<?xml version='1.0' encoding='UTF-8'?>
<gpx version="1.1" creator="https://www.komoot.de" xmlns="http://www.topografix.com/GPX/1/1" xmlns:xsi="http://www.w3.org/2001/XMLSchema-instance" xsi:schemaLocation="http://www.topografix.com/GPX/1/1 http://www.topografix.com/GPX/1/1/gpx.xsd">
  <metadata>
    <name>von Ingelfingen zurück 🚘</name>
    <author>
      <link href="https://www.komoot.de">
        <text>komoot</text>
        <type>text/html</type>
      </link>
    </author>
  </metadata>
  <trk>
    <name>von Ingelfingen zurück 🚘</name>
    <trkseg>
      <trkpt lat="49.297797" lon="9.658405">
        <ele>209.821461</ele>
        <time>2022-07-23T06:56:42.000Z</time>
      </trkpt>
      <trkpt lat="49.297882" lon="9.658254">
        <ele>209.821461</ele>
        <time>2022-07-23T07:00:15.999Z</time>
      </trkpt>
      <trkpt lat="49.297931" lon="9.658130">
        <ele>209.821461</ele>
        <time>2022-07-23T07:00:32.999Z</time>
      </trkpt>
      <trkpt lat="49.298091" lon="9.658116">
        <ele>209.821461</ele>
        <time>2022-07-23T07:01:11.999Z</time>
      </trkpt>
      <trkpt lat="49.298177" lon="9.658199">
        <ele>209.821461</ele>
        <time>2022-07-23T07:01:16.999Z</time>
      </trkpt>
      <trkpt lat="49.298307" lon="9.658091">
        <ele>209.821461</ele>
        <time>2022-07-23T07:01:50.999Z</time>
      </trkpt>
      <trkpt lat="49.298335" lon="9.657935">
        <ele>209.821461</ele>
        <time>2022-07-23T07:01:55.999Z</time>
      </trkpt>
      <trkpt lat="49.298362" lon="9.657792">
        <ele>209.821461</ele>
        <time>2022-07-23T07:01:58.999Z</time>
      </trkpt>
      <trkpt lat="49.298394" lon="9.657588">
        <ele>209.810943</ele>
        <time>2022-07-23T07:02:01.999Z</time>
      </trkpt>
      <trkpt lat="49.298420" lon="9.657429">
        <ele>209.795844</ele>
        <time>2022-07-23T07:02:03.999Z</time>
      </trkpt>
      <trkpt lat="49.298451" lon="9.657254">
        <ele>209.779139</ele>
        <time>2022-07-23T07:02:05.999Z</time>
      </trkpt>
      <trkpt lat="49.298485" lon="9.657067">
        <ele>209.761257</ele>
        <time>2022-07-23T07:02:07.999Z</time>
      </trkpt>
      <trkpt lat="49.298523" lon="9.656884">
        <ele>209.743566</ele>
        <time>2022-07-23T07:02:09.999Z</time>
      </trkpt>
      <trkpt lat="49.298561" lon="9.656713">
        <ele>209.726925</ele>
        <time>2022-07-23T07:02:11.999Z</time>
      </trkpt>
      <trkpt lat="49.298607" lon="9.656540">
        <ele>209.709716</ele>
        <time>2022-07-23T07:02:13.999Z</time>
      </trkpt>
      <trkpt lat="49.298659" lon="9.656368">
        <ele>209.692253</ele>
        <time>2022-07-23T07:02:15.999Z</time>
      </trkpt>
      <trkpt lat="49.298716" lon="9.656189">
        <ele>209.673904</ele>
        <time>2022-07-23T07:02:17.999Z</time>
      </trkpt>
      <trkpt lat="49.298775" lon="9.656020">
        <ele>209.656246</ele>
        <time>2022-07-23T07:02:19.999Z</time>
      </trkpt>
      <trkpt lat="49.298838" lon="9.655858">
        <ele>209.638872</ele>
        <time>2022-07-23T07:02:21.999Z</time>
      </trkpt>
      <trkpt lat="49.298898" lon="9.655692">
        <ele>209.621389</ele>
        <time>2022-07-23T07:02:23.999Z</time>
      </trkpt>
      <trkpt lat="49.298958" lon="9.655526">
        <ele>209.603907</ele>
        <time>2022-07-23T07:02:25.999Z</time>
      </trkpt>
      <trkpt lat="49.299022" lon="9.655355">
        <ele>209.585746</ele>
        <time>2022-07-23T07:02:27.999Z</time>
      </trkpt>
      <trkpt lat="49.299079" lon="9.655186">
        <ele>209.568220</ele>
        <time>2022-07-23T07:02:29.999Z</time>
      </trkpt>
      <trkpt lat="49.299131" lon="9.655022">
        <ele>209.557076</ele>
        <time>2022-07-23T07:02:31.999Z</time>
      </trkpt>
      <trkpt lat="49.299174" lon="9.654870">
        <ele>209.547216</ele>
        <time>2022-07-23T07:02:33.999Z</time>
      </trkpt>
      <trkpt lat="49.299212" lon="9.654724">
        <ele>209.537860</ele>
        <time>2022-07-23T07:02:35.999Z</time>
      </trkpt>
      <trkpt lat="49.299245" lon="9.654582">
        <ele>209.528889</ele>
        <time>2022-07-23T07:02:37.999Z</time>
      </trkpt>
      <trkpt lat="49.299274" lon="9.654451">
        <ele>209.520656</ele>
        <time>2022-07-23T07:02:39.999Z</time>
      </trkpt>
      <trkpt lat="49.299303" lon="9.654294">
        <ele>209.510945</ele>
        <time>2022-07-23T07:02:42.999Z</time>
      </trkpt>
      <trkpt lat="49.299372" lon="9.653867">
        <ele>209.484765</ele>
        <time>2022-07-23T07:03:20.999Z</time>
      </trkpt>
      <trkpt lat="49.299386" lon="9.653714">
        <ele>209.475570</ele>
        <time>2022-07-23T07:03:22.999Z</time>
      </trkpt>
      <trkpt lat="49.299391" lon="9.653540">
        <ele>209.465205</ele>
        <time>2022-07-23T07:03:24.999Z</time>
      </trkpt>
      <trkpt lat="49.299397" lon="9.653340">
        <ele>209.453290</ele>
        <time>2022-07-23T07:03:26.999Z</time>
      </trkpt>
      <trkpt lat="49.299403" lon="9.653131">
        <ele>209.440840</ele>
        <time>2022-07-23T07:03:28.999Z</time>
      </trkpt>
      <trkpt lat="49.299409" lon="9.652912">
        <ele>209.427796</ele>
        <time>2022-07-23T07:03:30.999Z</time>
      </trkpt>
      <trkpt lat="49.299410" lon="9.652700">
        <ele>209.415179</ele>
        <time>2022-07-23T07:03:32.999Z</time>
      </trkpt>
      <trkpt lat="49.299416" lon="9.652485">
        <ele>209.407188</ele>
        <time>2022-07-23T07:03:34.999Z</time>
      </trkpt>
      <trkpt lat="49.299421" lon="9.652274">
        <ele>209.463445</ele>
        <time>2022-07-23T07:03:36.999Z</time>
      </trkpt>
      <trkpt lat="49.299420" lon="9.652045">
        <ele>209.524462</ele>
        <time>2022-07-23T07:03:38.999Z</time>
      </trkpt>
      <trkpt lat="49.299430" lon="9.651834">
        <ele>209.580829</ele>
        <time>2022-07-23T07:03:40.999Z</time>
      </trkpt>
      <trkpt lat="49.299438" lon="9.651607">
        <ele>209.641400</ele>
        <time>2022-07-23T07:03:42.999Z</time>
      </trkpt>
      <trkpt lat="49.299450" lon="9.651384">
        <ele>209.701019</ele>
        <time>2022-07-23T07:03:44.999Z</time>
      </trkpt>
      <trkpt lat="49.299461" lon="9.651163">
        <ele>209.760074</ele>
        <time>2022-07-23T07:03:46.999Z</time>
      </trkpt>
      <trkpt lat="49.299477" lon="9.650949">
        <ele>209.817466</ele>
        <time>2022-07-23T07:03:48.999Z</time>
      </trkpt>
      <trkpt lat="49.299495" lon="9.650741">
        <ele>209.873372</ele>
        <time>2022-07-23T07:03:50.999Z</time>
      </trkpt>
      <trkpt lat="49.299519" lon="9.650532">
        <ele>209.929915</ele>
        <time>2022-07-23T07:03:52.999Z</time>
      </trkpt>
      <trkpt lat="49.299545" lon="9.650324">
        <ele>209.986344</ele>
        <time>2022-07-23T07:03:54.999Z</time>
      </trkpt>
      <trkpt lat="49.299566" lon="9.650123">
        <ele>210.040582</ele>
        <time>2022-07-23T07:03:56.999Z</time>
      </trkpt>
      <trkpt lat="49.299600" lon="9.649916">
        <ele>210.097458</ele>
        <time>2022-07-23T07:03:58.999Z</time>
      </trkpt>
      <trkpt lat="49.299632" lon="9.649706">
        <ele>210.124222</ele>
        <time>2022-07-23T07:04:00.999Z</time>
      </trkpt>
      <trkpt lat="49.299671" lon="9.649493">
        <ele>210.075222</ele>
        <time>2022-07-23T07:04:02.999Z</time>
      </trkpt>
      <trkpt lat="49.299714" lon="9.649283">
        <ele>210.026471</ele>
        <time>2022-07-23T07:04:04.999Z</time>
      </trkpt>
      <trkpt lat="49.299757" lon="9.649073">
        <ele>209.977721</ele>
        <time>2022-07-23T07:04:06.999Z</time>
      </trkpt>
      <trkpt lat="49.299801" lon="9.648863">
        <ele>209.928867</ele>
        <time>2022-07-23T07:04:08.999Z</time>
      </trkpt>
      <trkpt lat="49.299851" lon="9.648656">
        <ele>209.879976</ele>
        <time>2022-07-23T07:04:10.999Z</time>
      </trkpt>
      <trkpt lat="49.299906" lon="9.648455">
        <ele>209.831698</ele>
        <time>2022-07-23T07:04:12.999Z</time>
      </trkpt>
      <trkpt lat="49.299961" lon="9.648255">
        <ele>209.783624</ele>
        <time>2022-07-23T07:04:14.999Z</time>
      </trkpt>
      <trkpt lat="49.300016" lon="9.648054">
        <ele>209.735345</ele>
        <time>2022-07-23T07:04:16.999Z</time>
      </trkpt>
      <trkpt lat="49.300070" lon="9.647849">
        <ele>209.686377</ele>
        <time>2022-07-23T07:04:18.999Z</time>
      </trkpt>
      <trkpt lat="49.300130" lon="9.647647">
        <ele>209.637215</ele>
        <time>2022-07-23T07:04:20.999Z</time>
      </trkpt>
      <trkpt lat="49.300194" lon="9.647449">
        <ele>209.588270</ele>
        <time>2022-07-23T07:04:22.999Z</time>
      </trkpt>
      <trkpt lat="49.300256" lon="9.647249">
        <ele>209.539224</ele>
        <time>2022-07-23T07:04:24.999Z</time>
      </trkpt>
      <trkpt lat="49.300321" lon="9.647050">
        <ele>209.408099</ele>
        <time>2022-07-23T07:04:26.999Z</time>
      </trkpt>
      <trkpt lat="49.300394" lon="9.646855">
        <ele>209.249128</ele>
        <time>2022-07-23T07:04:28.999Z</time>
      </trkpt>
      <trkpt lat="49.300465" lon="9.646661">
        <ele>209.091843</ele>
        <time>2022-07-23T07:04:30.999Z</time>
      </trkpt>
      <trkpt lat="49.300542" lon="9.646467">
        <ele>208.931274</ele>
        <time>2022-07-23T07:04:32.999Z</time>
      </trkpt>
      <trkpt lat="49.300622" lon="9.646280">
        <ele>208.773151</ele>
        <time>2022-07-23T07:04:34.999Z</time>
      </trkpt>
      <trkpt lat="49.300699" lon="9.646097">
        <ele>208.619172</ele>
        <time>2022-07-23T07:04:36.999Z</time>
      </trkpt>
      <trkpt lat="49.300780" lon="9.645914">
        <ele>208.462800</ele>
        <time>2022-07-23T07:04:38.999Z</time>
      </trkpt>
      <trkpt lat="49.300870" lon="9.645734">
        <ele>208.302434</ele>
        <time>2022-07-23T07:04:40.999Z</time>
      </trkpt>
      <trkpt lat="49.300961" lon="9.645556">
        <ele>208.142522</ele>
        <time>2022-07-23T07:04:42.999Z</time>
      </trkpt>
      <trkpt lat="49.301050" lon="9.645377">
        <ele>207.983377</ele>
        <time>2022-07-23T07:04:45.000Z</time>
      </trkpt>
      <trkpt lat="49.301142" lon="9.645204">
        <ele>207.825550</ele>
        <time>2022-07-23T07:04:47.000Z</time>
      </trkpt>
      <trkpt lat="49.301234" lon="9.645028">
        <ele>207.666073</ele>
        <time>2022-07-23T07:04:49.000Z</time>
      </trkpt>
      <trkpt lat="49.301330" lon="9.644862">
        <ele>207.577544</ele>
        <time>2022-07-23T07:04:51.000Z</time>
      </trkpt>
      <trkpt lat="49.301428" lon="9.644697">
        <ele>207.578488</ele>
        <time>2022-07-23T07:04:53.000Z</time>
      </trkpt>
      <trkpt lat="49.301525" lon="9.644538">
        <ele>207.579408</ele>
        <time>2022-07-23T07:04:55.000Z</time>
      </trkpt>
      <trkpt lat="49.301622" lon="9.644378">
        <ele>207.580332</ele>
        <time>2022-07-23T07:04:57.000Z</time>
      </trkpt>
      <trkpt lat="49.301719" lon="9.644221">
        <ele>207.581246</ele>
        <time>2022-07-23T07:04:59.000Z</time>
      </trkpt>
      <trkpt lat="49.301816" lon="9.644069">
        <ele>207.582145</ele>
        <time>2022-07-23T07:05:01.000Z</time>
      </trkpt>
      <trkpt lat="49.301912" lon="9.643919">
        <ele>207.583034</ele>
        <time>2022-07-23T07:05:03.000Z</time>
      </trkpt>
      <trkpt lat="49.302011" lon="9.643767">
        <ele>207.583942</ele>
        <time>2022-07-23T07:05:05.000Z</time>
      </trkpt>
      <trkpt lat="49.302107" lon="9.643613">
        <ele>207.584842</ele>
        <time>2022-07-23T07:05:07.000Z</time>
      </trkpt>
      <trkpt lat="49.302205" lon="9.643464">
        <ele>207.585737</ele>
        <time>2022-07-23T07:05:09.000Z</time>
      </trkpt>
      <trkpt lat="49.302302" lon="9.643311">
        <ele>207.586639</ele>
        <time>2022-07-23T07:05:11.000Z</time>
      </trkpt>
      <trkpt lat="49.302396" lon="9.643154">
        <ele>207.587540</ele>
        <time>2022-07-23T07:05:13.000Z</time>
      </trkpt>
      <trkpt lat="49.302488" lon="9.642995">
        <ele>207.588439</ele>
        <time>2022-07-23T07:05:15.000Z</time>
      </trkpt>
      <trkpt lat="49.302576" lon="9.642829">
        <ele>207.678333</ele>
        <time>2022-07-23T07:05:17.000Z</time>
      </trkpt>
      <trkpt lat="49.302663" lon="9.642664">
        <ele>207.825799</ele>
        <time>2022-07-23T07:05:18.999Z</time>
      </trkpt>
      <trkpt lat="49.302748" lon="9.642495">
        <ele>207.974125</ele>
        <time>2022-07-23T07:05:20.999Z</time>
      </trkpt>
      <trkpt lat="49.302824" lon="9.642323">
        <ele>208.118516</ele>
        <time>2022-07-23T07:05:22.999Z</time>
      </trkpt>
      <trkpt lat="49.302900" lon="9.642148">
        <ele>208.264637</ele>
        <time>2022-07-23T07:05:24.999Z</time>
      </trkpt>
      <trkpt lat="49.302973" lon="9.641970">
        <ele>208.410771</ele>
        <time>2022-07-23T07:05:26.999Z</time>
      </trkpt>
      <trkpt lat="49.303039" lon="9.641782">
        <ele>208.559154</ele>
        <time>2022-07-23T07:05:28.999Z</time>
      </trkpt>
      <trkpt lat="49.303100" lon="9.641593">
        <ele>208.705709</ele>
        <time>2022-07-23T07:05:30.999Z</time>
      </trkpt>
      <trkpt lat="49.303161" lon="9.641404">
        <ele>208.852263</ele>
        <time>2022-07-23T07:05:32.999Z</time>
      </trkpt>
      <trkpt lat="49.303226" lon="9.641216">
        <ele>209.000143</ele>
        <time>2022-07-23T07:05:34.999Z</time>
      </trkpt>
      <trkpt lat="49.303283" lon="9.641032">
        <ele>209.141710</ele>
        <time>2022-07-23T07:05:36.999Z</time>
      </trkpt>
      <trkpt lat="49.303339" lon="9.640847">
        <ele>209.283453</ele>
        <time>2022-07-23T07:05:38.999Z</time>
      </trkpt>
      <trkpt lat="49.303394" lon="9.640660">
        <ele>209.426016</ele>
        <time>2022-07-23T07:05:40.999Z</time>
      </trkpt>
      <trkpt lat="49.303446" lon="9.640463">
        <ele>209.489833</ele>
        <time>2022-07-23T07:05:42.999Z</time>
      </trkpt>
      <trkpt lat="49.303497" lon="9.640266">
        <ele>209.455327</ele>
        <time>2022-07-23T07:05:44.999Z</time>
      </trkpt>
      <trkpt lat="49.303548" lon="9.640073">
        <ele>209.421426</ele>
        <time>2022-07-23T07:05:46.999Z</time>
      </trkpt>
      <trkpt lat="49.303593" lon="9.639884">
        <ele>209.388671</ele>
        <time>2022-07-23T07:05:48.999Z</time>
      </trkpt>
      <trkpt lat="49.303643" lon="9.639689">
        <ele>209.354560</ele>
        <time>2022-07-23T07:05:50.999Z</time>
      </trkpt>
      <trkpt lat="49.303685" lon="9.639484">
        <ele>209.319579</ele>
        <time>2022-07-23T07:05:52.999Z</time>
      </trkpt>
      <trkpt lat="49.303731" lon="9.639289">
        <ele>209.285821</ele>
        <time>2022-07-23T07:05:54.999Z</time>
      </trkpt>
      <trkpt lat="49.303778" lon="9.639093">
        <ele>209.251824</ele>
        <time>2022-07-23T07:05:56.999Z</time>
      </trkpt>
      <trkpt lat="49.303822" lon="9.638895">
        <ele>209.217771</ele>
        <time>2022-07-23T07:05:58.999Z</time>
      </trkpt>
      <trkpt lat="49.303861" lon="9.638695">
        <ele>209.183787</ele>
        <time>2022-07-23T07:06:00.999Z</time>
      </trkpt>
      <trkpt lat="49.303902" lon="9.638496">
        <ele>209.149813</ele>
        <time>2022-07-23T07:06:02.999Z</time>
      </trkpt>
      <trkpt lat="49.303942" lon="9.638298">
        <ele>209.116069</ele>
        <time>2022-07-23T07:06:04.999Z</time>
      </trkpt>
      <trkpt lat="49.303978" lon="9.638097">
        <ele>209.082135</ele>
        <time>2022-07-23T07:06:06.999Z</time>
      </trkpt>
      <trkpt lat="49.304014" lon="9.637898">
        <ele>209.026569</ele>
        <time>2022-07-23T07:06:08.999Z</time>
      </trkpt>
      <trkpt lat="49.304050" lon="9.637695">
        <ele>208.900448</ele>
        <time>2022-07-23T07:06:10.999Z</time>
      </trkpt>
      <trkpt lat="49.304081" lon="9.637491">
        <ele>208.774871</ele>
        <time>2022-07-23T07:06:12.999Z</time>
      </trkpt>
      <trkpt lat="49.304110" lon="9.637289">
        <ele>208.650869</ele>
        <time>2022-07-23T07:06:14.999Z</time>
      </trkpt>
      <trkpt lat="49.304138" lon="9.637094">
        <ele>208.531164</ele>
        <time>2022-07-23T07:06:16.999Z</time>
      </trkpt>
      <trkpt lat="49.304157" lon="9.636896">
        <ele>208.411183</ele>
        <time>2022-07-23T07:06:18.999Z</time>
      </trkpt>
      <trkpt lat="49.304175" lon="9.636696">
        <ele>208.290144</ele>
        <time>2022-07-23T07:06:20.999Z</time>
      </trkpt>
      <trkpt lat="49.304186" lon="9.636494">
        <ele>208.168622</ele>
        <time>2022-07-23T07:06:22.999Z</time>
      </trkpt>
      <trkpt lat="49.304192" lon="9.636293">
        <ele>208.047995</ele>
        <time>2022-07-23T07:06:24.999Z</time>
      </trkpt>
      <trkpt lat="49.304200" lon="9.636099">
        <ele>207.931458</ele>
        <time>2022-07-23T07:06:26.999Z</time>
      </trkpt>
      <trkpt lat="49.304205" lon="9.635912">
        <ele>207.819256</ele>
        <time>2022-07-23T07:06:28.999Z</time>
      </trkpt>
      <trkpt lat="49.304204" lon="9.635734">
        <ele>207.712539</ele>
        <time>2022-07-23T07:06:30.999Z</time>
      </trkpt>
      <trkpt lat="49.304200" lon="9.635578">
        <ele>207.618944</ele>
        <time>2022-07-23T07:06:32.999Z</time>
      </trkpt>
      <trkpt lat="49.304197" lon="9.635440">
        <ele>207.536166</ele>
        <time>2022-07-23T07:06:34.999Z</time>
      </trkpt>
      <trkpt lat="49.304190" lon="9.635264">
        <ele>207.430456</ele>
        <time>2022-07-23T07:06:37.999Z</time>
      </trkpt>
      <trkpt lat="49.304182" lon="9.635123">
        <ele>207.361336</ele>
        <time>2022-07-23T07:06:42.999Z</time>
      </trkpt>
      <trkpt lat="49.304152" lon="9.634785">
        <ele>207.212911</ele>
        <time>2022-07-23T07:07:38.999Z</time>
      </trkpt>
      <trkpt lat="49.304032" lon="9.634691">
        <ele>207.122993</ele>
        <time>2022-07-23T07:07:41.999Z</time>
      </trkpt>
      <trkpt lat="49.303937" lon="9.634682">
        <ele>207.059477</ele>
        <time>2022-07-23T07:07:43.999Z</time>
      </trkpt>
      <trkpt lat="49.303845" lon="9.634680">
        <ele>206.998079</ele>
        <time>2022-07-23T07:07:45.999Z</time>
      </trkpt>
      <trkpt lat="49.303744" lon="9.634676">
        <ele>206.930658</ele>
        <time>2022-07-23T07:07:47.999Z</time>
      </trkpt>
      <trkpt lat="49.303633" lon="9.634669">
        <ele>206.856523</ele>
        <time>2022-07-23T07:07:49.999Z</time>
      </trkpt>
      <trkpt lat="49.303511" lon="9.634664">
        <ele>206.775082</ele>
        <time>2022-07-23T07:07:51.999Z</time>
      </trkpt>
      <trkpt lat="49.303396" lon="9.634661">
        <ele>206.698331</ele>
        <time>2022-07-23T07:07:53.999Z</time>
      </trkpt>
      <trkpt lat="49.303298" lon="9.634658">
        <ele>206.632921</ele>
        <time>2022-07-23T07:07:55.999Z</time>
      </trkpt>
      <trkpt lat="49.303203" lon="9.634655">
        <ele>206.569513</ele>
        <time>2022-07-23T07:07:57.999Z</time>
      </trkpt>
      <trkpt lat="49.303085" lon="9.634582">
        <ele>206.484605</ele>
        <time>2022-07-23T07:08:00.999Z</time>
      </trkpt>
      <trkpt lat="49.303061" lon="9.634448">
        <ele>206.424139</ele>
        <time>2022-07-23T07:08:02.999Z</time>
      </trkpt>
      <trkpt lat="49.303066" lon="9.634296">
        <ele>206.357915</ele>
        <time>2022-07-23T07:08:04.999Z</time>
      </trkpt>
      <trkpt lat="49.303071" lon="9.634135">
        <ele>206.287781</ele>
        <time>2022-07-23T07:08:06.999Z</time>
      </trkpt>
      <trkpt lat="49.303079" lon="9.633975">
        <ele>206.217956</ele>
        <time>2022-07-23T07:08:08.999Z</time>
      </trkpt>
      <trkpt lat="49.303076" lon="9.633808">
        <ele>206.151252</ele>
        <time>2022-07-23T07:08:10.999Z</time>
      </trkpt>
      <trkpt lat="49.303079" lon="9.633637">
        <ele>206.084579</ele>
        <time>2022-07-23T07:08:12.999Z</time>
      </trkpt>
      <trkpt lat="49.303081" lon="9.633463">
        <ele>206.016749</ele>
        <time>2022-07-23T07:08:14.999Z</time>
      </trkpt>
      <trkpt lat="49.303080" lon="9.633286">
        <ele>205.947759</ele>
        <time>2022-07-23T07:08:16.999Z</time>
      </trkpt>
      <trkpt lat="49.303086" lon="9.633109">
        <ele>205.878677</ele>
        <time>2022-07-23T07:08:18.999Z</time>
      </trkpt>
      <trkpt lat="49.303080" lon="9.632933">
        <ele>205.809985</ele>
        <time>2022-07-23T07:08:20.999Z</time>
      </trkpt>
      <trkpt lat="49.303072" lon="9.632749">
        <ele>205.738110</ele>
        <time>2022-07-23T07:08:22.999Z</time>
      </trkpt>
      <trkpt lat="49.303066" lon="9.632566">
        <ele>205.666693</ele>
        <time>2022-07-23T07:08:24.999Z</time>
      </trkpt>
      <trkpt lat="49.303059" lon="9.632385">
        <ele>205.596021</ele>
        <time>2022-07-23T07:08:26.999Z</time>
      </trkpt>
      <trkpt lat="49.303045" lon="9.632207">
        <ele>205.526141</ele>
        <time>2022-07-23T07:08:28.999Z</time>
      </trkpt>
      <trkpt lat="49.303034" lon="9.632021">
        <ele>205.453347</ele>
        <time>2022-07-23T07:08:30.999Z</time>
      </trkpt>
      <trkpt lat="49.303022" lon="9.631829">
        <ele>205.378169</ele>
        <time>2022-07-23T07:08:32.999Z</time>
      </trkpt>
      <trkpt lat="49.303008" lon="9.631644">
        <ele>205.305579</ele>
        <time>2022-07-23T07:08:34.999Z</time>
      </trkpt>
      <trkpt lat="49.302987" lon="9.631467">
        <ele>205.235458</ele>
        <time>2022-07-23T07:08:36.999Z</time>
      </trkpt>
      <trkpt lat="49.302954" lon="9.631291">
        <ele>205.164080</ele>
        <time>2022-07-23T07:08:38.999Z</time>
      </trkpt>
      <trkpt lat="49.302919" lon="9.631107">
        <ele>205.102146</ele>
        <time>2022-07-23T07:08:40.999Z</time>
      </trkpt>
      <trkpt lat="49.302883" lon="9.630922">
        <ele>205.052048</ele>
        <time>2022-07-23T07:08:42.999Z</time>
      </trkpt>
      <trkpt lat="49.302851" lon="9.630738">
        <ele>205.002632</ele>
        <time>2022-07-23T07:08:44.999Z</time>
      </trkpt>
      <trkpt lat="49.302820" lon="9.630549">
        <ele>204.952060</ele>
        <time>2022-07-23T07:08:46.999Z</time>
      </trkpt>
      <trkpt lat="49.302786" lon="9.630362">
        <ele>204.901683</ele>
        <time>2022-07-23T07:08:48.999Z</time>
      </trkpt>
      <trkpt lat="49.302752" lon="9.630178">
        <ele>204.852056</ele>
        <time>2022-07-23T07:08:50.999Z</time>
      </trkpt>
      <trkpt lat="49.302718" lon="9.629990">
        <ele>204.801430</ele>
        <time>2022-07-23T07:08:52.999Z</time>
      </trkpt>
      <trkpt lat="49.302684" lon="9.629806">
        <ele>204.751803</ele>
        <time>2022-07-23T07:08:54.999Z</time>
      </trkpt>
      <trkpt lat="49.302654" lon="9.629621">
        <ele>204.702334</ele>
        <time>2022-07-23T07:08:57.000Z</time>
      </trkpt>
      <trkpt lat="49.302621" lon="9.629440">
        <ele>204.653564</ele>
        <time>2022-07-23T07:08:59.000Z</time>
      </trkpt>
      <trkpt lat="49.302581" lon="9.629262">
        <ele>204.604708</ele>
        <time>2022-07-23T07:09:01.000Z</time>
      </trkpt>
      <trkpt lat="49.302539" lon="9.629088">
        <ele>204.556562</ele>
        <time>2022-07-23T07:09:03.000Z</time>
      </trkpt>
      <trkpt lat="49.302494" lon="9.628916">
        <ele>204.508470</ele>
        <time>2022-07-23T07:09:05.000Z</time>
      </trkpt>
      <trkpt lat="49.302448" lon="9.628745">
        <ele>204.460468</ele>
        <time>2022-07-23T07:09:07.000Z</time>
      </trkpt>
      <trkpt lat="49.302402" lon="9.628575">
        <ele>204.412707</ele>
        <time>2022-07-23T07:09:09.000Z</time>
      </trkpt>
      <trkpt lat="49.302354" lon="9.628411">
        <ele>204.458466</ele>
        <time>2022-07-23T07:09:11.000Z</time>
      </trkpt>
      <trkpt lat="49.302308" lon="9.628250">
        <ele>204.504999</ele>
        <time>2022-07-23T07:09:13.000Z</time>
      </trkpt>
      <trkpt lat="49.302265" lon="9.628082">
        <ele>204.552776</ele>
        <time>2022-07-23T07:09:15.000Z</time>
      </trkpt>
      <trkpt lat="49.302222" lon="9.627909">
        <ele>204.601788</ele>
        <time>2022-07-23T07:09:17.000Z</time>
      </trkpt>
      <trkpt lat="49.302180" lon="9.627735">
        <ele>204.650906</ele>
        <time>2022-07-23T07:09:19.000Z</time>
      </trkpt>
      <trkpt lat="49.302139" lon="9.627558">
        <ele>204.700631</ele>
        <time>2022-07-23T07:09:21.000Z</time>
      </trkpt>
      <trkpt lat="49.302107" lon="9.627379">
        <ele>204.749766</ele>
        <time>2022-07-23T07:09:23.000Z</time>
      </trkpt>
      <trkpt lat="49.302081" lon="9.627204">
        <ele>204.797281</ele>
        <time>2022-07-23T07:09:25.000Z</time>
      </trkpt>
      <trkpt lat="49.302054" lon="9.627031">
        <ele>204.844372</ele>
        <time>2022-07-23T07:09:27.000Z</time>
      </trkpt>
      <trkpt lat="49.302027" lon="9.626857">
        <ele>204.891721</ele>
        <time>2022-07-23T07:09:29.000Z</time>
      </trkpt>
      <trkpt lat="49.302006" lon="9.626680">
        <ele>204.939347</ele>
        <time>2022-07-23T07:09:31.000Z</time>
      </trkpt>
      <trkpt lat="49.301991" lon="9.626505">
        <ele>204.986073</ele>
        <time>2022-07-23T07:09:33.000Z</time>
      </trkpt>
      <trkpt lat="49.301978" lon="9.626332">
        <ele>205.032174</ele>
        <time>2022-07-23T07:09:34.999Z</time>
      </trkpt>
      <trkpt lat="49.301974" lon="9.626160">
        <ele>205.077737</ele>
        <time>2022-07-23T07:09:36.999Z</time>
      </trkpt>
      <trkpt lat="49.301967" lon="9.625987">
        <ele>205.123623</ele>
        <time>2022-07-23T07:09:38.999Z</time>
      </trkpt>
      <trkpt lat="49.301949" lon="9.625813">
        <ele>205.090606</ele>
        <time>2022-07-23T07:09:40.999Z</time>
      </trkpt>
      <trkpt lat="49.301930" lon="9.625640">
        <ele>205.006078</ele>
        <time>2022-07-23T07:09:42.999Z</time>
      </trkpt>
      <trkpt lat="49.301907" lon="9.625471">
        <ele>204.922896</ele>
        <time>2022-07-23T07:09:44.999Z</time>
      </trkpt>
      <trkpt lat="49.301880" lon="9.625296">
        <ele>204.836250</ele>
        <time>2022-07-23T07:09:46.999Z</time>
      </trkpt>
      <trkpt lat="49.301835" lon="9.625109">
        <ele>204.740211</ele>
        <time>2022-07-23T07:09:48.999Z</time>
      </trkpt>
      <trkpt lat="49.301764" lon="9.624941">
        <ele>204.643752</ele>
        <time>2022-07-23T07:09:50.999Z</time>
      </trkpt>
      <trkpt lat="49.301695" lon="9.624795">
        <ele>204.556874</ele>
        <time>2022-07-23T07:09:52.999Z</time>
      </trkpt>
      <trkpt lat="49.301637" lon="9.624654">
        <ele>204.476549</ele>
        <time>2022-07-23T07:09:54.999Z</time>
      </trkpt>
      <trkpt lat="49.301577" lon="9.624517">
        <ele>204.397034</ele>
        <time>2022-07-23T07:09:56.999Z</time>
      </trkpt>
      <trkpt lat="49.301523" lon="9.624382">
        <ele>204.320726</ele>
        <time>2022-07-23T07:09:58.999Z</time>
      </trkpt>
      <trkpt lat="49.301473" lon="9.624245">
        <ele>204.245081</ele>
        <time>2022-07-23T07:10:00.999Z</time>
      </trkpt>
      <trkpt lat="49.301425" lon="9.624100">
        <ele>204.166730</ele>
        <time>2022-07-23T07:10:02.999Z</time>
      </trkpt>
      <trkpt lat="49.301378" lon="9.623955">
        <ele>204.088710</ele>
        <time>2022-07-23T07:10:04.999Z</time>
      </trkpt>
      <trkpt lat="49.301332" lon="9.623813">
        <ele>204.012314</ele>
        <time>2022-07-23T07:10:06.999Z</time>
      </trkpt>
      <trkpt lat="49.301289" lon="9.623665">
        <ele>203.934246</ele>
        <time>2022-07-23T07:10:08.999Z</time>
      </trkpt>
      <trkpt lat="49.301251" lon="9.623514">
        <ele>203.856261</ele>
        <time>2022-07-23T07:10:10.999Z</time>
      </trkpt>
      <trkpt lat="49.301214" lon="9.623361">
        <ele>203.813396</ele>
        <time>2022-07-23T07:10:12.999Z</time>
      </trkpt>
      <trkpt lat="49.301163" lon="9.623210">
        <ele>203.814313</ele>
        <time>2022-07-23T07:10:14.999Z</time>
      </trkpt>
      <trkpt lat="49.301105" lon="9.623069">
        <ele>203.815212</ele>
        <time>2022-07-23T07:10:16.999Z</time>
      </trkpt>
      <trkpt lat="49.301038" lon="9.622940">
        <ele>203.816101</ele>
        <time>2022-07-23T07:10:18.999Z</time>
      </trkpt>
      <trkpt lat="49.300963" lon="9.622819">
        <ele>203.817001</ele>
        <time>2022-07-23T07:10:20.999Z</time>
      </trkpt>
      <trkpt lat="49.300889" lon="9.622690">
        <ele>203.817927</ele>
        <time>2022-07-23T07:10:22.999Z</time>
      </trkpt>
      <trkpt lat="49.300812" lon="9.622563">
        <ele>203.818862</ele>
        <time>2022-07-23T07:10:24.999Z</time>
      </trkpt>
      <trkpt lat="49.300736" lon="9.622434">
        <ele>203.819799</ele>
        <time>2022-07-23T07:10:26.999Z</time>
      </trkpt>
      <trkpt lat="49.300658" lon="9.622305">
        <ele>203.820747</ele>
        <time>2022-07-23T07:10:28.999Z</time>
      </trkpt>
      <trkpt lat="49.300582" lon="9.622178">
        <ele>203.821677</ele>
        <time>2022-07-23T07:10:30.999Z</time>
      </trkpt>
      <trkpt lat="49.300506" lon="9.622049">
        <ele>203.822614</ele>
        <time>2022-07-23T07:10:32.999Z</time>
      </trkpt>
      <trkpt lat="49.300432" lon="9.621920">
        <ele>203.823540</ele>
        <time>2022-07-23T07:10:34.999Z</time>
      </trkpt>
      <trkpt lat="49.300367" lon="9.621779">
        <ele>203.824471</ele>
        <time>2022-07-23T07:10:36.999Z</time>
      </trkpt>
      <trkpt lat="49.300321" lon="9.621620">
        <ele>203.825409</ele>
        <time>2022-07-23T07:10:38.999Z</time>
      </trkpt>
      <trkpt lat="49.300290" lon="9.621455">
        <ele>203.826334</ele>
        <time>2022-07-23T07:10:40.999Z</time>
      </trkpt>
      <trkpt lat="49.300257" lon="9.621285">
        <ele>203.827290</ele>
        <time>2022-07-23T07:10:42.999Z</time>
      </trkpt>
      <trkpt lat="49.300219" lon="9.621121">
        <ele>203.832147</ele>
        <time>2022-07-23T07:10:44.999Z</time>
      </trkpt>
      <trkpt lat="49.300177" lon="9.620962">
        <ele>203.843174</ele>
        <time>2022-07-23T07:10:46.999Z</time>
      </trkpt>
      <trkpt lat="49.300128" lon="9.620807">
        <ele>203.854247</ele>
        <time>2022-07-23T07:10:48.999Z</time>
      </trkpt>
      <trkpt lat="49.300077" lon="9.620654">
        <ele>203.865293</ele>
        <time>2022-07-23T07:10:50.999Z</time>
      </trkpt>
      <trkpt lat="49.300030" lon="9.620503">
        <ele>203.876049</ele>
        <time>2022-07-23T07:10:52.999Z</time>
      </trkpt>
      <trkpt lat="49.299973" lon="9.620359">
        <ele>203.886877</ele>
        <time>2022-07-23T07:10:54.999Z</time>
      </trkpt>
      <trkpt lat="49.299909" lon="9.620224">
        <ele>203.897606</ele>
        <time>2022-07-23T07:10:56.999Z</time>
      </trkpt>
      <trkpt lat="49.299838" lon="9.620103">
        <ele>203.908070</ele>
        <time>2022-07-23T07:10:58.999Z</time>
      </trkpt>
      <trkpt lat="49.299765" lon="9.619993">
        <ele>203.918159</ele>
        <time>2022-07-23T07:11:00.999Z</time>
      </trkpt>
      <trkpt lat="49.299688" lon="9.619879">
        <ele>203.928710</ele>
        <time>2022-07-23T07:11:03.000Z</time>
      </trkpt>
      <trkpt lat="49.299608" lon="9.619773">
        <ele>203.939132</ele>
        <time>2022-07-23T07:11:05.000Z</time>
      </trkpt>
      <trkpt lat="49.299529" lon="9.619669">
        <ele>203.949395</ele>
        <time>2022-07-23T07:11:07.000Z</time>
      </trkpt>
      <trkpt lat="49.299450" lon="9.619576">
        <ele>203.959213</ele>
        <time>2022-07-23T07:11:09.000Z</time>
      </trkpt>
      <trkpt lat="49.299379" lon="9.619483">
        <ele>203.968418</ele>
        <time>2022-07-23T07:11:11.000Z</time>
      </trkpt>
      <trkpt lat="49.299274" lon="9.619358">
        <ele>203.981522</ele>
        <time>2022-07-23T07:11:14.000Z</time>
      </trkpt>
      <trkpt lat="49.299200" lon="9.619272">
        <ele>203.990674</ele>
        <time>2022-07-23T07:11:16.000Z</time>
      </trkpt>
      <trkpt lat="49.299127" lon="9.619189">
        <ele>203.999633</ele>
        <time>2022-07-23T07:11:18.000Z</time>
      </trkpt>
      <trkpt lat="49.299047" lon="9.619100">
        <ele>203.979548</ele>
        <time>2022-07-23T07:11:20.000Z</time>
      </trkpt>
      <trkpt lat="49.298968" lon="9.619014">
        <ele>203.921263</ele>
        <time>2022-07-23T07:11:22.000Z</time>
      </trkpt>
      <trkpt lat="49.298874" lon="9.618902">
        <ele>203.849648</ele>
        <time>2022-07-23T07:11:25.000Z</time>
      </trkpt>
      <trkpt lat="49.298796" lon="9.618815">
        <ele>203.791622</ele>
        <time>2022-07-23T07:11:28.000Z</time>
      </trkpt>
      <trkpt lat="49.298713" lon="9.618726">
        <ele>203.730692</ele>
        <time>2022-07-23T07:11:31.000Z</time>
      </trkpt>
      <trkpt lat="49.298619" lon="9.618627">
        <ele>203.662088</ele>
        <time>2022-07-23T07:11:34.000Z</time>
      </trkpt>
      <trkpt lat="49.298520" lon="9.618528">
        <ele>203.590983</ele>
        <time>2022-07-23T07:11:36.999Z</time>
      </trkpt>
      <trkpt lat="49.298423" lon="9.618432">
        <ele>203.521529</ele>
        <time>2022-07-23T07:11:39.999Z</time>
      </trkpt>
      <trkpt lat="49.298315" lon="9.618318">
        <ele>203.442650</ele>
        <time>2022-07-23T07:11:42.999Z</time>
      </trkpt>
      <trkpt lat="49.298240" lon="9.618237">
        <ele>203.387462</ele>
        <time>2022-07-23T07:11:44.999Z</time>
      </trkpt>
      <trkpt lat="49.298155" lon="9.618159">
        <ele>203.327868</ele>
        <time>2022-07-23T07:11:46.999Z</time>
      </trkpt>
      <trkpt lat="49.298072" lon="9.618088">
        <ele>203.270691</ele>
        <time>2022-07-23T07:11:48.999Z</time>
      </trkpt>
      <trkpt lat="49.297989" lon="9.618008">
        <ele>203.211713</ele>
        <time>2022-07-23T07:11:50.999Z</time>
      </trkpt>
      <trkpt lat="49.297901" lon="9.617919">
        <ele>203.148293</ele>
        <time>2022-07-23T07:11:52.999Z</time>
      </trkpt>
      <trkpt lat="49.297815" lon="9.617821">
        <ele>203.083833</ele>
        <time>2022-07-23T07:11:54.999Z</time>
      </trkpt>
      <trkpt lat="49.297734" lon="9.617715">
        <ele>203.019770</ele>
        <time>2022-07-23T07:11:56.999Z</time>
      </trkpt>
      <trkpt lat="49.297655" lon="9.617606">
        <ele>202.955836</ele>
        <time>2022-07-23T07:11:58.999Z</time>
      </trkpt>
      <trkpt lat="49.297575" lon="9.617502">
        <ele>202.906680</ele>
        <time>2022-07-23T07:12:00.999Z</time>
      </trkpt>
      <trkpt lat="49.297496" lon="9.617395">
        <ele>202.872388</ele>
        <time>2022-07-23T07:12:02.999Z</time>
      </trkpt>
      <trkpt lat="49.297424" lon="9.617300">
        <ele>202.841485</ele>
        <time>2022-07-23T07:12:04.999Z</time>
      </trkpt>
      <trkpt lat="49.297315" lon="9.617174">
        <ele>202.797075</ele>
        <time>2022-07-23T07:12:07.999Z</time>
      </trkpt>
      <trkpt lat="49.297202" lon="9.617080">
        <ele>202.755251</ele>
        <time>2022-07-23T07:12:10.999Z</time>
      </trkpt>
      <trkpt lat="49.297101" lon="9.616947">
        <ele>202.711938</ele>
        <time>2022-07-23T07:12:13.999Z</time>
      </trkpt>
      <trkpt lat="49.297022" lon="9.616845">
        <ele>202.678338</ele>
        <time>2022-07-23T07:12:15.999Z</time>
      </trkpt>
      <trkpt lat="49.296942" lon="9.616737">
        <ele>202.643661</ele>
        <time>2022-07-23T07:12:17.999Z</time>
      </trkpt>
      <trkpt lat="49.296864" lon="9.616637">
        <ele>202.610584</ele>
        <time>2022-07-23T07:12:19.999Z</time>
      </trkpt>
      <trkpt lat="49.296787" lon="9.616543">
        <ele>202.578563</ele>
        <time>2022-07-23T07:12:21.999Z</time>
      </trkpt>
      <trkpt lat="49.296706" lon="9.616444">
        <ele>202.544863</ele>
        <time>2022-07-23T07:12:23.999Z</time>
      </trkpt>
      <trkpt lat="49.296628" lon="9.616338">
        <ele>202.510955</ele>
        <time>2022-07-23T07:12:25.999Z</time>
      </trkpt>
      <trkpt lat="49.296556" lon="9.616239">
        <ele>202.479492</ele>
        <time>2022-07-23T07:12:27.999Z</time>
      </trkpt>
      <trkpt lat="49.296471" lon="9.616147">
        <ele>202.445643</ele>
        <time>2022-07-23T07:12:29.999Z</time>
      </trkpt>
      <trkpt lat="49.296394" lon="9.616038">
        <ele>202.411549</ele>
        <time>2022-07-23T07:12:31.999Z</time>
      </trkpt>
      <trkpt lat="49.296312" lon="9.615932">
        <ele>202.376656</ele>
        <time>2022-07-23T07:12:33.999Z</time>
      </trkpt>
      <trkpt lat="49.296231" lon="9.615828">
        <ele>202.342285</ele>
        <time>2022-07-23T07:12:35.999Z</time>
      </trkpt>
      <trkpt lat="49.296150" lon="9.615722">
        <ele>202.302418</ele>
        <time>2022-07-23T07:12:37.999Z</time>
      </trkpt>
      <trkpt lat="49.296062" lon="9.615624">
        <ele>202.260932</ele>
        <time>2022-07-23T07:12:39.999Z</time>
      </trkpt>
      <trkpt lat="49.295979" lon="9.615525">
        <ele>202.220822</ele>
        <time>2022-07-23T07:12:41.999Z</time>
      </trkpt>
      <trkpt lat="49.295898" lon="9.615433">
        <ele>202.182372</ele>
        <time>2022-07-23T07:12:43.999Z</time>
      </trkpt>
      <trkpt lat="49.295819" lon="9.615346">
        <ele>202.145271</ele>
        <time>2022-07-23T07:12:45.999Z</time>
      </trkpt>
      <trkpt lat="49.295729" lon="9.615288">
        <ele>202.108033</ele>
        <time>2022-07-23T07:12:47.999Z</time>
      </trkpt>
      <trkpt lat="49.295643" lon="9.615242">
        <ele>202.073290</ele>
        <time>2022-07-23T07:12:49.999Z</time>
      </trkpt>
      <trkpt lat="49.295554" lon="9.615201">
        <ele>202.037842</ele>
        <time>2022-07-23T07:12:51.999Z</time>
      </trkpt>
      <trkpt lat="49.295457" lon="9.615153">
        <ele>201.998963</ele>
        <time>2022-07-23T07:12:55.999Z</time>
      </trkpt>
      <trkpt lat="49.295368" lon="9.615113">
        <ele>201.963586</ele>
        <time>2022-07-23T07:13:11.000Z</time>
      </trkpt>
      <trkpt lat="49.295254" lon="9.615128">
        <ele>201.919942</ele>
        <time>2022-07-23T07:13:15.000Z</time>
      </trkpt>
      <trkpt lat="49.295127" lon="9.615094">
        <ele>201.870765</ele>
        <time>2022-07-23T07:13:18.000Z</time>
      </trkpt>
      <trkpt lat="49.295039" lon="9.615064">
        <ele>201.836378</ele>
        <time>2022-07-23T07:13:20.000Z</time>
      </trkpt>
      <trkpt lat="49.294909" lon="9.615016">
        <ele>201.785373</ele>
        <time>2022-07-23T07:13:23.000Z</time>
      </trkpt>
      <trkpt lat="49.294795" lon="9.614986">
        <ele>201.741253</ele>
        <time>2022-07-23T07:13:26.000Z</time>
      </trkpt>
      <trkpt lat="49.294686" lon="9.614979">
        <ele>201.699639</ele>
        <time>2022-07-23T07:13:29.000Z</time>
      </trkpt>
      <trkpt lat="49.294574" lon="9.614973">
        <ele>201.656891</ele>
        <time>2022-07-23T07:13:32.000Z</time>
      </trkpt>
      <trkpt lat="49.294456" lon="9.614969">
        <ele>201.738027</ele>
        <time>2022-07-23T07:13:35.000Z</time>
      </trkpt>
      <trkpt lat="49.294358" lon="9.614958">
        <ele>201.818850</ele>
        <time>2022-07-23T07:13:37.000Z</time>
      </trkpt>
      <trkpt lat="49.294255" lon="9.614946">
        <ele>201.903815</ele>
        <time>2022-07-23T07:13:39.000Z</time>
      </trkpt>
      <trkpt lat="49.294165" lon="9.614919">
        <ele>201.979245</ele>
        <time>2022-07-23T07:13:40.999Z</time>
      </trkpt>
      <trkpt lat="49.294066" lon="9.614923">
        <ele>202.060704</ele>
        <time>2022-07-23T07:13:42.999Z</time>
      </trkpt>
      <trkpt lat="49.293976" lon="9.614898">
        <ele>202.135936</ele>
        <time>2022-07-23T07:13:43.999Z</time>
      </trkpt>
      <trkpt lat="49.293861" lon="9.614830">
        <ele>202.237316</ele>
        <time>2022-07-23T07:13:46.999Z</time>
      </trkpt>
      <trkpt lat="49.293754" lon="9.614884">
        <ele>202.329971</ele>
        <time>2022-07-23T07:13:48.999Z</time>
      </trkpt>
      <trkpt lat="49.293676" lon="9.614987">
        <ele>202.414641</ele>
        <time>2022-07-23T07:13:50.999Z</time>
      </trkpt>
      <trkpt lat="49.293649" lon="9.615153">
        <ele>202.506417</ele>
        <time>2022-07-23T07:13:52.999Z</time>
      </trkpt>
      <trkpt lat="49.293670" lon="9.615336">
        <ele>202.606093</ele>
        <time>2022-07-23T07:13:54.999Z</time>
      </trkpt>
      <trkpt lat="49.293690" lon="9.615518">
        <ele>202.705100</ele>
        <time>2022-07-23T07:13:56.999Z</time>
      </trkpt>
      <trkpt lat="49.293710" lon="9.615701">
        <ele>202.804637</ele>
        <time>2022-07-23T07:13:58.999Z</time>
      </trkpt>
      <trkpt lat="49.293736" lon="9.615872">
        <ele>202.898827</ele>
        <time>2022-07-23T07:14:00.999Z</time>
      </trkpt>
      <trkpt lat="49.293762" lon="9.616039">
        <ele>202.990929</ele>
        <time>2022-07-23T07:14:02.999Z</time>
      </trkpt>
      <trkpt lat="49.293782" lon="9.616204">
        <ele>203.080957</ele>
        <time>2022-07-23T07:14:04.999Z</time>
      </trkpt>
      <trkpt lat="49.293797" lon="9.616378">
        <ele>203.271370</ele>
        <time>2022-07-23T07:14:06.999Z</time>
      </trkpt>
      <trkpt lat="49.293806" lon="9.616549">
        <ele>203.565470</ele>
        <time>2022-07-23T07:14:08.999Z</time>
      </trkpt>
      <trkpt lat="49.293818" lon="9.616711">
        <ele>203.844973</ele>
        <time>2022-07-23T07:14:10.999Z</time>
      </trkpt>
      <trkpt lat="49.293830" lon="9.616878">
        <ele>204.132995</ele>
        <time>2022-07-23T07:14:12.999Z</time>
      </trkpt>
      <trkpt lat="49.293840" lon="9.617044">
        <ele>204.418782</ele>
        <time>2022-07-23T07:14:14.999Z</time>
      </trkpt>
      <trkpt lat="49.293850" lon="9.617217">
        <ele>204.716520</ele>
        <time>2022-07-23T07:14:16.999Z</time>
      </trkpt>
      <trkpt lat="49.293860" lon="9.617379">
        <ele>204.995479</ele>
        <time>2022-07-23T07:14:18.999Z</time>
      </trkpt>
      <trkpt lat="49.293872" lon="9.617550">
        <ele>205.290317</ele>
        <time>2022-07-23T07:14:20.999Z</time>
      </trkpt>
      <trkpt lat="49.293882" lon="9.617708">
        <ele>205.562450</ele>
        <time>2022-07-23T07:14:22.999Z</time>
      </trkpt>
      <trkpt lat="49.293892" lon="9.617869">
        <ele>205.839702</ele>
        <time>2022-07-23T07:14:24.999Z</time>
      </trkpt>
      <trkpt lat="49.293923" lon="9.618010">
        <ele>206.094785</ele>
        <time>2022-07-23T07:14:26.999Z</time>
      </trkpt>
      <trkpt lat="49.293965" lon="9.618149">
        <ele>206.357405</ele>
        <time>2022-07-23T07:14:28.999Z</time>
      </trkpt>
      <trkpt lat="49.294019" lon="9.618280">
        <ele>206.623077</ele>
        <time>2022-07-23T07:14:30.999Z</time>
      </trkpt>
      <trkpt lat="49.294084" lon="9.618402">
        <ele>206.893139</ele>
        <time>2022-07-23T07:14:32.999Z</time>
      </trkpt>
      <trkpt lat="49.294156" lon="9.618506">
        <ele>207.153148</ele>
        <time>2022-07-23T07:14:34.999Z</time>
      </trkpt>
      <trkpt lat="49.294230" lon="9.618590">
        <ele>207.395166</ele>
        <time>2022-07-23T07:14:36.999Z</time>
      </trkpt>
      <trkpt lat="49.294315" lon="9.618668">
        <ele>207.655551</ele>
        <time>2022-07-23T07:14:38.999Z</time>
      </trkpt>
      <trkpt lat="49.294413" lon="9.618726">
        <ele>208.006118</ele>
        <time>2022-07-23T07:14:40.999Z</time>
      </trkpt>
      <trkpt lat="49.294506" lon="9.618778">
        <ele>208.533402</ele>
        <time>2022-07-23T07:14:42.999Z</time>
      </trkpt>
      <trkpt lat="49.294606" lon="9.618819">
        <ele>209.084779</ele>
        <time>2022-07-23T07:14:44.999Z</time>
      </trkpt>
      <trkpt lat="49.294700" lon="9.618858">
        <ele>209.603487</ele>
        <time>2022-07-23T07:14:46.999Z</time>
      </trkpt>
      <trkpt lat="49.294788" lon="9.618904">
        <ele>210.098720</ele>
        <time>2022-07-23T07:14:48.999Z</time>
      </trkpt>
      <trkpt lat="49.294874" lon="9.618993">
        <ele>210.651381</ele>
        <time>2022-07-23T07:14:51.999Z</time>
      </trkpt>
      <trkpt lat="49.294891" lon="9.619138">
        <ele>211.163164</ele>
        <time>2022-07-23T07:14:54.999Z</time>
      </trkpt>
      <trkpt lat="49.294833" lon="9.619251">
        <ele>211.662702</ele>
        <time>2022-07-23T07:14:58.999Z</time>
      </trkpt>
      <trkpt lat="49.294721" lon="9.619269">
        <ele>212.262552</ele>
        <time>2022-07-23T07:15:02.999Z</time>
      </trkpt>
      <trkpt lat="49.294621" lon="9.619231">
        <ele>212.811329</ele>
        <time>2022-07-23T07:15:05.999Z</time>
      </trkpt>
      <trkpt lat="49.294509" lon="9.619166">
        <ele>213.449214</ele>
        <time>2022-07-23T07:15:08.999Z</time>
      </trkpt>
      <trkpt lat="49.294392" lon="9.619130">
        <ele>214.084853</ele>
        <time>2022-07-23T07:15:11.999Z</time>
      </trkpt>
      <trkpt lat="49.294276" lon="9.619089">
        <ele>214.718945</ele>
        <time>2022-07-23T07:15:15.000Z</time>
      </trkpt>
      <trkpt lat="49.294159" lon="9.619039">
        <ele>215.365913</ele>
        <time>2022-07-23T07:15:18.000Z</time>
      </trkpt>
      <trkpt lat="49.294034" lon="9.618994">
        <ele>216.049847</ele>
        <time>2022-07-23T07:15:21.000Z</time>
      </trkpt>
      <trkpt lat="49.293911" lon="9.618950">
        <ele>216.722617</ele>
        <time>2022-07-23T07:15:24.000Z</time>
      </trkpt>
      <trkpt lat="49.293789" lon="9.618904">
        <ele>217.391825</ele>
        <time>2022-07-23T07:15:27.000Z</time>
      </trkpt>
      <trkpt lat="49.293666" lon="9.618858">
        <ele>218.423576</ele>
        <time>2022-07-23T07:15:30.000Z</time>
      </trkpt>
      <trkpt lat="49.293543" lon="9.618808">
        <ele>219.488114</ele>
        <time>2022-07-23T07:15:33.000Z</time>
      </trkpt>
      <trkpt lat="49.293420" lon="9.618763">
        <ele>220.545989</ele>
        <time>2022-07-23T07:15:36.000Z</time>
      </trkpt>
      <trkpt lat="49.293299" lon="9.618720">
        <ele>221.585079</ele>
        <time>2022-07-23T07:15:39.000Z</time>
      </trkpt>
      <trkpt lat="49.293177" lon="9.618675">
        <ele>222.634819</ele>
        <time>2022-07-23T07:15:41.999Z</time>
      </trkpt>
      <trkpt lat="49.293057" lon="9.618630">
        <ele>223.668299</ele>
        <time>2022-07-23T07:15:44.999Z</time>
      </trkpt>
      <trkpt lat="49.292932" lon="9.618601">
        <ele>224.725923</ele>
        <time>2022-07-23T07:15:47.999Z</time>
      </trkpt>
      <trkpt lat="49.292809" lon="9.618571">
        <ele>225.767850</ele>
        <time>2022-07-23T07:15:50.999Z</time>
      </trkpt>
      <trkpt lat="49.292684" lon="9.618555">
        <ele>226.817208</ele>
        <time>2022-07-23T07:15:53.999Z</time>
      </trkpt>
      <trkpt lat="49.292560" lon="9.618548">
        <ele>227.855266</ele>
        <time>2022-07-23T07:15:56.999Z</time>
      </trkpt>
      <trkpt lat="49.292435" lon="9.618550">
        <ele>228.901044</ele>
        <time>2022-07-23T07:15:59.999Z</time>
      </trkpt>
      <trkpt lat="49.292308" lon="9.618541">
        <ele>229.964631</ele>
        <time>2022-07-23T07:16:02.999Z</time>
      </trkpt>
      <trkpt lat="49.292183" lon="9.618537">
        <ele>231.010580</ele>
        <time>2022-07-23T07:16:05.999Z</time>
      </trkpt>
      <trkpt lat="49.292056" lon="9.618518">
        <ele>232.078078</ele>
        <time>2022-07-23T07:16:08.999Z</time>
      </trkpt>
      <trkpt lat="49.291932" lon="9.618486">
        <ele>233.028021</ele>
        <time>2022-07-23T07:16:11.999Z</time>
      </trkpt>
      <trkpt lat="49.291809" lon="9.618429">
        <ele>233.932490</ele>
        <time>2022-07-23T07:16:14.999Z</time>
      </trkpt>
      <trkpt lat="49.291694" lon="9.618361">
        <ele>234.800077</ele>
        <time>2022-07-23T07:16:17.999Z</time>
      </trkpt>
      <trkpt lat="49.291580" lon="9.618274">
        <ele>235.696420</ele>
        <time>2022-07-23T07:16:20.999Z</time>
      </trkpt>
      <trkpt lat="49.291471" lon="9.618169">
        <ele>236.602525</ele>
        <time>2022-07-23T07:16:23.999Z</time>
      </trkpt>
      <trkpt lat="49.291370" lon="9.618058">
        <ele>237.477227</ele>
        <time>2022-07-23T07:16:26.999Z</time>
      </trkpt>
      <trkpt lat="49.291275" lon="9.617934">
        <ele>238.355421</ele>
        <time>2022-07-23T07:16:29.999Z</time>
      </trkpt>
      <trkpt lat="49.291179" lon="9.617811">
        <ele>239.236037</ele>
        <time>2022-07-23T07:16:32.999Z</time>
      </trkpt>
      <trkpt lat="49.291082" lon="9.617687">
        <ele>240.124999</ele>
        <time>2022-07-23T07:16:35.999Z</time>
      </trkpt>
      <trkpt lat="49.290968" lon="9.617617">
        <ele>240.989396</ele>
        <time>2022-07-23T07:16:38.999Z</time>
      </trkpt>
      <trkpt lat="49.290868" lon="9.617735">
        <ele>241.877616</ele>
        <time>2022-07-23T07:16:41.999Z</time>
      </trkpt>
      <trkpt lat="49.290886" lon="9.617918">
        <ele>242.727255</ele>
        <time>2022-07-23T07:16:44.999Z</time>
      </trkpt>
      <trkpt lat="49.290982" lon="9.618055">
        <ele>243.650406</ele>
        <time>2022-07-23T07:16:47.999Z</time>
      </trkpt>
      <trkpt lat="49.291078" lon="9.618188">
        <ele>244.561143</ele>
        <time>2022-07-23T07:16:50.999Z</time>
      </trkpt>
      <trkpt lat="49.291165" lon="9.618326">
        <ele>245.449753</ele>
        <time>2022-07-23T07:16:53.999Z</time>
      </trkpt>
      <trkpt lat="49.291254" lon="9.618467">
        <ele>246.373415</ele>
        <time>2022-07-23T07:16:56.999Z</time>
      </trkpt>
      <trkpt lat="49.291338" lon="9.618611">
        <ele>247.282830</ele>
        <time>2022-07-23T07:16:59.999Z</time>
      </trkpt>
      <trkpt lat="49.291430" lon="9.618752">
        <ele>248.221676</ele>
        <time>2022-07-23T07:17:02.999Z</time>
      </trkpt>
      <trkpt lat="49.291520" lon="9.618890">
        <ele>249.140329</ele>
        <time>2022-07-23T07:17:05.999Z</time>
      </trkpt>
      <trkpt lat="49.291607" lon="9.619032">
        <ele>250.057433</ele>
        <time>2022-07-23T07:17:08.999Z</time>
      </trkpt>
      <trkpt lat="49.291694" lon="9.619172">
        <ele>250.967696</ele>
        <time>2022-07-23T07:17:11.999Z</time>
      </trkpt>
      <trkpt lat="49.291785" lon="9.619307">
        <ele>251.881589</ele>
        <time>2022-07-23T07:17:14.999Z</time>
      </trkpt>
      <trkpt lat="49.291874" lon="9.619445">
        <ele>252.795149</ele>
        <time>2022-07-23T07:17:17.999Z</time>
      </trkpt>
      <trkpt lat="49.291960" lon="9.619584">
        <ele>253.697026</ele>
        <time>2022-07-23T07:17:21.000Z</time>
      </trkpt>
      <trkpt lat="49.292044" lon="9.619720">
        <ele>254.578722</ele>
        <time>2022-07-23T07:17:24.000Z</time>
      </trkpt>
      <trkpt lat="49.292124" lon="9.619869">
        <ele>255.487188</ele>
        <time>2022-07-23T07:17:27.000Z</time>
      </trkpt>
      <trkpt lat="49.292187" lon="9.620040">
        <ele>256.411670</ele>
        <time>2022-07-23T07:17:30.000Z</time>
      </trkpt>
      <trkpt lat="49.292203" lon="9.620233">
        <ele>257.327472</ele>
        <time>2022-07-23T07:17:33.000Z</time>
      </trkpt>
      <trkpt lat="49.292188" lon="9.620426">
        <ele>258.270223</ele>
        <time>2022-07-23T07:17:36.000Z</time>
      </trkpt>
      <trkpt lat="49.292144" lon="9.620608">
        <ele>259.408092</ele>
        <time>2022-07-23T07:17:39.000Z</time>
      </trkpt>
      <trkpt lat="49.292078" lon="9.620773">
        <ele>260.542789</ele>
        <time>2022-07-23T07:17:42.000Z</time>
      </trkpt>
      <trkpt lat="49.292007" lon="9.620938">
        <ele>261.701617</ele>
        <time>2022-07-23T07:17:44.999Z</time>
      </trkpt>
      <trkpt lat="49.291939" lon="9.621109">
        <ele>262.875703</ele>
        <time>2022-07-23T07:17:47.999Z</time>
      </trkpt>
      <trkpt lat="49.291871" lon="9.621275">
        <ele>264.024864</ele>
        <time>2022-07-23T07:17:50.999Z</time>
      </trkpt>
      <trkpt lat="49.291808" lon="9.621442">
        <ele>265.155838</ele>
        <time>2022-07-23T07:17:53.999Z</time>
      </trkpt>
      <trkpt lat="49.291739" lon="9.621605">
        <ele>266.295016</ele>
        <time>2022-07-23T07:17:56.999Z</time>
      </trkpt>
      <trkpt lat="49.291676" lon="9.621774">
        <ele>267.436156</ele>
        <time>2022-07-23T07:17:59.999Z</time>
      </trkpt>
      <trkpt lat="49.291612" lon="9.621944">
        <ele>268.586857</ele>
        <time>2022-07-23T07:18:02.999Z</time>
      </trkpt>
      <trkpt lat="49.291547" lon="9.622110">
        <ele>269.721912</ele>
        <time>2022-07-23T07:18:05.999Z</time>
      </trkpt>
      <trkpt lat="49.291483" lon="9.622278">
        <ele>270.862476</ele>
        <time>2022-07-23T07:18:08.999Z</time>
      </trkpt>
      <trkpt lat="49.291416" lon="9.622445">
        <ele>272.011879</ele>
        <time>2022-07-23T07:18:11.999Z</time>
      </trkpt>
      <trkpt lat="49.291350" lon="9.622613">
        <ele>273.161617</ele>
        <time>2022-07-23T07:18:14.999Z</time>
      </trkpt>
      <trkpt lat="49.291283" lon="9.622782">
        <ele>274.311384</ele>
        <time>2022-07-23T07:18:17.999Z</time>
      </trkpt>
      <trkpt lat="49.291214" lon="9.622947">
        <ele>275.020408</ele>
        <time>2022-07-23T07:18:20.999Z</time>
      </trkpt>
      <trkpt lat="49.291150" lon="9.623112">
        <ele>275.714857</ele>
        <time>2022-07-23T07:18:23.999Z</time>
      </trkpt>
      <trkpt lat="49.291085" lon="9.623279">
        <ele>276.418361</ele>
        <time>2022-07-23T07:18:26.999Z</time>
      </trkpt>
      <trkpt lat="49.291019" lon="9.623442">
        <ele>277.112389</ele>
        <time>2022-07-23T07:18:29.999Z</time>
      </trkpt>
      <trkpt lat="49.290947" lon="9.623603">
        <ele>277.818553</ele>
        <time>2022-07-23T07:18:32.999Z</time>
      </trkpt>
      <trkpt lat="49.290870" lon="9.623757">
        <ele>278.520502</ele>
        <time>2022-07-23T07:18:35.999Z</time>
      </trkpt>
      <trkpt lat="49.290788" lon="9.623909">
        <ele>279.234070</ele>
        <time>2022-07-23T07:18:38.999Z</time>
      </trkpt>
      <trkpt lat="49.290702" lon="9.624057">
        <ele>279.951113</ele>
        <time>2022-07-23T07:18:41.999Z</time>
      </trkpt>
      <trkpt lat="49.290610" lon="9.624197">
        <ele>280.670039</ele>
        <time>2022-07-23T07:18:44.999Z</time>
      </trkpt>
      <trkpt lat="49.290513" lon="9.624327">
        <ele>281.384598</ele>
        <time>2022-07-23T07:18:47.999Z</time>
      </trkpt>
      <trkpt lat="49.290414" lon="9.624449">
        <ele>282.089064</ele>
        <time>2022-07-23T07:18:50.999Z</time>
      </trkpt>
      <trkpt lat="49.290308" lon="9.624564">
        <ele>282.809276</ele>
        <time>2022-07-23T07:18:53.999Z</time>
      </trkpt>
      <trkpt lat="49.290202" lon="9.624677">
        <ele>283.525335</ele>
        <time>2022-07-23T07:18:56.999Z</time>
      </trkpt>
      <trkpt lat="49.290094" lon="9.624779">
        <ele>284.228867</ele>
        <time>2022-07-23T07:18:59.999Z</time>
      </trkpt>
      <trkpt lat="49.289983" lon="9.624873">
        <ele>284.939112</ele>
        <time>2022-07-23T07:19:02.999Z</time>
      </trkpt>
      <trkpt lat="49.289870" lon="9.624964">
        <ele>285.654475</ele>
        <time>2022-07-23T07:19:05.999Z</time>
      </trkpt>
      <trkpt lat="49.289757" lon="9.625059">
        <ele>286.376753</ele>
        <time>2022-07-23T07:19:08.999Z</time>
      </trkpt>
      <trkpt lat="49.289648" lon="9.625153">
        <ele>287.077659</ele>
        <time>2022-07-23T07:19:11.999Z</time>
      </trkpt>
      <trkpt lat="49.289535" lon="9.625245">
        <ele>287.794730</ele>
        <time>2022-07-23T07:19:14.999Z</time>
      </trkpt>
      <trkpt lat="49.289421" lon="9.625338">
        <ele>288.518465</ele>
        <time>2022-07-23T07:19:17.999Z</time>
      </trkpt>
      <trkpt lat="49.289309" lon="9.625430">
        <ele>289.230592</ele>
        <time>2022-07-23T07:19:20.999Z</time>
      </trkpt>
      <trkpt lat="49.289194" lon="9.625523">
        <ele>289.959281</ele>
        <time>2022-07-23T07:19:23.999Z</time>
      </trkpt>
      <trkpt lat="49.289086" lon="9.625614">
        <ele>290.649961</ele>
        <time>2022-07-23T07:19:27.000Z</time>
      </trkpt>
      <trkpt lat="49.288975" lon="9.625711">
        <ele>291.366026</ele>
        <time>2022-07-23T07:19:30.000Z</time>
      </trkpt>
      <trkpt lat="49.288863" lon="9.625804">
        <ele>292.079887</ele>
        <time>2022-07-23T07:19:33.000Z</time>
      </trkpt>
      <trkpt lat="49.288749" lon="9.625898">
        <ele>292.805350</ele>
        <time>2022-07-23T07:19:36.000Z</time>
      </trkpt>
      <trkpt lat="49.288640" lon="9.625983">
        <ele>293.490729</ele>
        <time>2022-07-23T07:19:39.000Z</time>
      </trkpt>
      <trkpt lat="49.288529" lon="9.626063">
        <ele>294.178146</ele>
        <time>2022-07-23T07:19:42.000Z</time>
      </trkpt>
      <trkpt lat="49.288412" lon="9.626153">
        <ele>295.093485</ele>
        <time>2022-07-23T07:19:45.000Z</time>
      </trkpt>
      <trkpt lat="49.288293" lon="9.626240">
        <ele>296.072368</ele>
        <time>2022-07-23T07:19:48.000Z</time>
      </trkpt>
      <trkpt lat="49.288176" lon="9.626313">
        <ele>297.010267</ele>
        <time>2022-07-23T07:19:51.000Z</time>
      </trkpt>
      <trkpt lat="49.288066" lon="9.626375">
        <ele>297.880454</ele>
        <time>2022-07-23T07:19:54.000Z</time>
      </trkpt>
      <trkpt lat="49.287942" lon="9.626403">
        <ele>298.811078</ele>
        <time>2022-07-23T07:19:57.000Z</time>
      </trkpt>
      <trkpt lat="49.287818" lon="9.626422">
        <ele>299.736356</ele>
        <time>2022-07-23T07:20:00.000Z</time>
      </trkpt>
      <trkpt lat="49.287693" lon="9.626428">
        <ele>300.664926</ele>
        <time>2022-07-23T07:20:02.999Z</time>
      </trkpt>
      <trkpt lat="49.287566" lon="9.626408">
        <ele>301.612854</ele>
        <time>2022-07-23T07:20:05.999Z</time>
      </trkpt>
      <trkpt lat="49.287443" lon="9.626371">
        <ele>302.543533</ele>
        <time>2022-07-23T07:20:08.999Z</time>
      </trkpt>
      <trkpt lat="49.287316" lon="9.626328">
        <ele>303.509221</ele>
        <time>2022-07-23T07:20:11.999Z</time>
      </trkpt>
      <trkpt lat="49.287199" lon="9.626258">
        <ele>304.441743</ele>
        <time>2022-07-23T07:20:14.999Z</time>
      </trkpt>
      <trkpt lat="49.287082" lon="9.626167">
        <ele>305.415858</ele>
        <time>2022-07-23T07:20:17.999Z</time>
      </trkpt>
      <trkpt lat="49.286973" lon="9.626071">
        <ele>306.349217</ele>
        <time>2022-07-23T07:20:20.999Z</time>
      </trkpt>
      <trkpt lat="49.286862" lon="9.625964">
        <ele>307.322762</ele>
        <time>2022-07-23T07:20:23.999Z</time>
      </trkpt>
      <trkpt lat="49.286751" lon="9.625863">
        <ele>308.584639</ele>
        <time>2022-07-23T07:20:26.999Z</time>
      </trkpt>
      <trkpt lat="49.286639" lon="9.625762">
        <ele>310.059534</ele>
        <time>2022-07-23T07:20:29.999Z</time>
      </trkpt>
      <trkpt lat="49.286526" lon="9.625668">
        <ele>311.518810</ele>
        <time>2022-07-23T07:20:32.999Z</time>
      </trkpt>
      <trkpt lat="49.286414" lon="9.625568">
        <ele>312.989968</ele>
        <time>2022-07-23T07:20:35.999Z</time>
      </trkpt>
      <trkpt lat="49.286300" lon="9.625477">
        <ele>314.448841</ele>
        <time>2022-07-23T07:20:38.999Z</time>
      </trkpt>
      <trkpt lat="49.286186" lon="9.625387">
        <ele>315.904311</ele>
        <time>2022-07-23T07:20:41.999Z</time>
      </trkpt>
      <trkpt lat="49.286065" lon="9.625315">
        <ele>317.377569</ele>
        <time>2022-07-23T07:20:44.999Z</time>
      </trkpt>
      <trkpt lat="49.285938" lon="9.625262">
        <ele>318.871559</ele>
        <time>2022-07-23T07:20:47.999Z</time>
      </trkpt>
      <trkpt lat="49.285809" lon="9.625230">
        <ele>320.354841</ele>
        <time>2022-07-23T07:20:50.999Z</time>
      </trkpt>
      <trkpt lat="49.285684" lon="9.625182">
        <ele>321.817508</ele>
        <time>2022-07-23T07:20:53.999Z</time>
      </trkpt>
      <trkpt lat="49.285571" lon="9.625114">
        <ele>323.195408</ele>
        <time>2022-07-23T07:20:56.999Z</time>
      </trkpt>
      <trkpt lat="49.285470" lon="9.625017">
        <ele>324.548206</ele>
        <time>2022-07-23T07:20:59.999Z</time>
      </trkpt>
      <trkpt lat="49.285380" lon="9.624893">
        <ele>325.921696</ele>
        <time>2022-07-23T07:21:02.999Z</time>
      </trkpt>
      <trkpt lat="49.285303" lon="9.624753">
        <ele>327.277545</ele>
        <time>2022-07-23T07:21:05.999Z</time>
      </trkpt>
      <trkpt lat="49.285246" lon="9.624590">
        <ele>328.573869</ele>
        <time>2022-07-23T07:21:08.999Z</time>
      </trkpt>
      <trkpt lat="49.285200" lon="9.624416">
        <ele>329.770223</ele>
        <time>2022-07-23T07:21:11.999Z</time>
      </trkpt>
      <trkpt lat="49.285162" lon="9.624236">
        <ele>330.975785</ele>
        <time>2022-07-23T07:21:14.999Z</time>
      </trkpt>
      <trkpt lat="49.285131" lon="9.624050">
        <ele>332.199082</ele>
        <time>2022-07-23T07:21:17.999Z</time>
      </trkpt>
      <trkpt lat="49.285103" lon="9.623867">
        <ele>333.396837</ele>
        <time>2022-07-23T07:21:20.999Z</time>
      </trkpt>
      <trkpt lat="49.285073" lon="9.623688">
        <ele>334.574502</ele>
        <time>2022-07-23T07:21:23.999Z</time>
      </trkpt>
      <trkpt lat="49.285032" lon="9.623518">
        <ele>335.729442</ele>
        <time>2022-07-23T07:21:26.999Z</time>
      </trkpt>
      <trkpt lat="49.284983" lon="9.623353">
        <ele>336.884685</ele>
        <time>2022-07-23T07:21:29.999Z</time>
      </trkpt>
      <trkpt lat="49.284924" lon="9.623192">
        <ele>338.061420</ele>
        <time>2022-07-23T07:21:33.000Z</time>
      </trkpt>
      <trkpt lat="49.284852" lon="9.623042">
        <ele>339.248145</ele>
        <time>2022-07-23T07:21:36.000Z</time>
      </trkpt>
      <trkpt lat="49.284771" lon="9.622893">
        <ele>340.484100</ele>
        <time>2022-07-23T07:21:39.000Z</time>
      </trkpt>
      <trkpt lat="49.284694" lon="9.622738">
        <ele>341.725607</ele>
        <time>2022-07-23T07:21:42.000Z</time>
      </trkpt>
      <trkpt lat="49.284612" lon="9.622587">
        <ele>342.977609</ele>
        <time>2022-07-23T07:21:45.000Z</time>
      </trkpt>
      <trkpt lat="49.284528" lon="9.622442">
        <ele>344.213359</ele>
        <time>2022-07-23T07:21:48.000Z</time>
      </trkpt>
      <trkpt lat="49.284444" lon="9.622296">
        <ele>345.453883</ele>
        <time>2022-07-23T07:21:51.000Z</time>
      </trkpt>
      <trkpt lat="49.284362" lon="9.622145">
        <ele>346.537753</ele>
        <time>2022-07-23T07:21:54.000Z</time>
      </trkpt>
      <trkpt lat="49.284278" lon="9.621997">
        <ele>347.580223</ele>
        <time>2022-07-23T07:21:57.000Z</time>
      </trkpt>
      <trkpt lat="49.284195" lon="9.621847">
        <ele>348.625448</ele>
        <time>2022-07-23T07:22:00.000Z</time>
      </trkpt>
      <trkpt lat="49.284111" lon="9.621700">
        <ele>349.663918</ele>
        <time>2022-07-23T07:22:03.000Z</time>
      </trkpt>
      <trkpt lat="49.284033" lon="9.621549">
        <ele>350.687430</ele>
        <time>2022-07-23T07:22:06.000Z</time>
      </trkpt>
      <trkpt lat="49.283949" lon="9.621402">
        <ele>351.725902</ele>
        <time>2022-07-23T07:22:08.999Z</time>
      </trkpt>
      <trkpt lat="49.283865" lon="9.621252">
        <ele>352.776418</ele>
        <time>2022-07-23T07:22:11.999Z</time>
      </trkpt>
      <trkpt lat="49.283786" lon="9.621098">
        <ele>353.817495</ele>
        <time>2022-07-23T07:22:14.999Z</time>
      </trkpt>
      <trkpt lat="49.283704" lon="9.620945">
        <ele>354.869742</ele>
        <time>2022-07-23T07:22:17.999Z</time>
      </trkpt>
      <trkpt lat="49.283629" lon="9.620786">
        <ele>355.912411</ele>
        <time>2022-07-23T07:22:20.999Z</time>
      </trkpt>
      <trkpt lat="49.283556" lon="9.620627">
        <ele>356.945618</ele>
        <time>2022-07-23T07:22:23.999Z</time>
      </trkpt>
      <trkpt lat="49.283496" lon="9.620455">
        <ele>357.982096</ele>
        <time>2022-07-23T07:22:26.999Z</time>
      </trkpt>
      <trkpt lat="49.283444" lon="9.620277">
        <ele>359.018498</ele>
        <time>2022-07-23T07:22:29.999Z</time>
      </trkpt>
      <trkpt lat="49.283392" lon="9.620095">
        <ele>360.074336</ele>
        <time>2022-07-23T07:22:32.999Z</time>
      </trkpt>
      <trkpt lat="49.283344" lon="9.619913">
        <ele>361.084584</ele>
        <time>2022-07-23T07:22:35.999Z</time>
      </trkpt>
      <trkpt lat="49.283294" lon="9.619732">
        <ele>362.084509</ele>
        <time>2022-07-23T07:22:38.999Z</time>
      </trkpt>
      <trkpt lat="49.283242" lon="9.619552">
        <ele>363.085965</ele>
        <time>2022-07-23T07:22:41.999Z</time>
      </trkpt>
      <trkpt lat="49.283181" lon="9.619374">
        <ele>364.108823</ele>
        <time>2022-07-23T07:22:44.999Z</time>
      </trkpt>
      <trkpt lat="49.283123" lon="9.619197">
        <ele>365.116465</ele>
        <time>2022-07-23T07:22:47.999Z</time>
      </trkpt>
      <trkpt lat="49.283057" lon="9.619029">
        <ele>366.114122</ele>
        <time>2022-07-23T07:22:50.999Z</time>
      </trkpt>
      <trkpt lat="49.282988" lon="9.618866">
        <ele>367.102618</ele>
        <time>2022-07-23T07:22:53.999Z</time>
      </trkpt>
      <trkpt lat="49.282908" lon="9.618712">
        <ele>368.104102</ele>
        <time>2022-07-23T07:22:56.999Z</time>
      </trkpt>
      <trkpt lat="49.282822" lon="9.618567">
        <ele>369.101050</ele>
        <time>2022-07-23T07:22:59.999Z</time>
      </trkpt>
      <trkpt lat="49.282735" lon="9.618427">
        <ele>370.084691</ele>
        <time>2022-07-23T07:23:02.999Z</time>
      </trkpt>
      <trkpt lat="49.282641" lon="9.618299">
        <ele>371.065191</ele>
        <time>2022-07-23T07:23:05.999Z</time>
      </trkpt>
      <trkpt lat="49.282538" lon="9.618182">
        <ele>372.064922</ele>
        <time>2022-07-23T07:23:08.999Z</time>
      </trkpt>
      <trkpt lat="49.282430" lon="9.618076">
        <ele>373.064994</ele>
        <time>2022-07-23T07:23:11.999Z</time>
      </trkpt>
      <trkpt lat="49.282315" lon="9.617985">
        <ele>374.074254</ele>
        <time>2022-07-23T07:23:14.999Z</time>
      </trkpt>
      <trkpt lat="49.282194" lon="9.617903">
        <ele>374.503821</ele>
        <time>2022-07-23T07:23:17.999Z</time>
      </trkpt>
      <trkpt lat="49.282070" lon="9.617830">
        <ele>374.689301</ele>
        <time>2022-07-23T07:23:20.999Z</time>
      </trkpt>
      <trkpt lat="49.281940" lon="9.617777">
        <ele>374.877139</ele>
        <time>2022-07-23T07:23:23.999Z</time>
      </trkpt>
      <trkpt lat="49.281807" lon="9.617740">
        <ele>375.065890</ele>
        <time>2022-07-23T07:23:26.999Z</time>
      </trkpt>
      <trkpt lat="49.281677" lon="9.617712">
        <ele>375.249201</ele>
        <time>2022-07-23T07:23:29.999Z</time>
      </trkpt>
      <trkpt lat="49.281534" lon="9.617695">
        <ele>375.449481</ele>
        <time>2022-07-23T07:23:32.999Z</time>
      </trkpt>
      <trkpt lat="49.281424" lon="9.617705">
        <ele>375.603352</ele>
        <time>2022-07-23T07:23:34.999Z</time>
      </trkpt>
      <trkpt lat="49.281313" lon="9.617726">
        <ele>375.759525</ele>
        <time>2022-07-23T07:23:36.999Z</time>
      </trkpt>
      <trkpt lat="49.281201" lon="9.617748">
        <ele>375.917197</ele>
        <time>2022-07-23T07:23:39.000Z</time>
      </trkpt>
      <trkpt lat="49.281093" lon="9.617787">
        <ele>376.072133</ele>
        <time>2022-07-23T07:23:41.000Z</time>
      </trkpt>
      <trkpt lat="49.280988" lon="9.617832">
        <ele>376.224374</ele>
        <time>2022-07-23T07:23:43.000Z</time>
      </trkpt>
      <trkpt lat="49.280883" lon="9.617874">
        <ele>376.375902</ele>
        <time>2022-07-23T07:23:45.000Z</time>
      </trkpt>
      <trkpt lat="49.280777" lon="9.617915">
        <ele>376.528557</ele>
        <time>2022-07-23T07:23:47.000Z</time>
      </trkpt>
      <trkpt lat="49.280668" lon="9.617961">
        <ele>376.686424</ele>
        <time>2022-07-23T07:23:49.000Z</time>
      </trkpt>
      <trkpt lat="49.280565" lon="9.618007">
        <ele>376.836230</ele>
        <time>2022-07-23T07:23:51.000Z</time>
      </trkpt>
      <trkpt lat="49.280459" lon="9.618054">
        <ele>376.522614</ele>
        <time>2022-07-23T07:23:53.000Z</time>
      </trkpt>
      <trkpt lat="49.280355" lon="9.618112">
        <ele>375.996929</ele>
        <time>2022-07-23T07:23:55.000Z</time>
      </trkpt>
      <trkpt lat="49.280252" lon="9.618175">
        <ele>375.470161</ele>
        <time>2022-07-23T07:23:57.000Z</time>
      </trkpt>
      <trkpt lat="49.280146" lon="9.618244">
        <ele>374.923137</ele>
        <time>2022-07-23T07:23:59.000Z</time>
      </trkpt>
      <trkpt lat="49.280043" lon="9.618315">
        <ele>374.386688</ele>
        <time>2022-07-23T07:24:01.000Z</time>
      </trkpt>
      <trkpt lat="49.279938" lon="9.618392">
        <ele>373.833794</ele>
        <time>2022-07-23T07:24:03.000Z</time>
      </trkpt>
      <trkpt lat="49.279834" lon="9.618486">
        <ele>373.260305</ele>
        <time>2022-07-23T07:24:05.000Z</time>
      </trkpt>
      <trkpt lat="49.279728" lon="9.618576">
        <ele>372.684719</ele>
        <time>2022-07-23T07:24:07.000Z</time>
      </trkpt>
      <trkpt lat="49.279631" lon="9.618676">
        <ele>372.129452</ele>
        <time>2022-07-23T07:24:09.000Z</time>
      </trkpt>
      <trkpt lat="49.279533" lon="9.618777">
        <ele>371.568514</ele>
        <time>2022-07-23T07:24:11.000Z</time>
      </trkpt>
      <trkpt lat="49.279431" lon="9.618885">
        <ele>370.979658</ele>
        <time>2022-07-23T07:24:13.000Z</time>
      </trkpt>
      <trkpt lat="49.279331" lon="9.618987">
        <ele>370.409100</ele>
        <time>2022-07-23T07:24:14.999Z</time>
      </trkpt>
      <trkpt lat="49.279229" lon="9.619079">
        <ele>369.846940</ele>
        <time>2022-07-23T07:24:16.999Z</time>
      </trkpt>
      <trkpt lat="49.279130" lon="9.619176">
        <ele>369.288824</ele>
        <time>2022-07-23T07:24:18.999Z</time>
      </trkpt>
      <trkpt lat="49.279034" lon="9.619278">
        <ele>368.733983</ele>
        <time>2022-07-23T07:24:20.999Z</time>
      </trkpt>
      <trkpt lat="49.278940" lon="9.619372">
        <ele>368.177126</ele>
        <time>2022-07-23T07:24:22.999Z</time>
      </trkpt>
      <trkpt lat="49.278841" lon="9.619462">
        <ele>367.537372</ele>
        <time>2022-07-23T07:24:24.999Z</time>
      </trkpt>
      <trkpt lat="49.278751" lon="9.619557">
        <ele>366.930003</ele>
        <time>2022-07-23T07:24:26.999Z</time>
      </trkpt>
      <trkpt lat="49.278660" lon="9.619655">
        <ele>366.311858</ele>
        <time>2022-07-23T07:24:28.999Z</time>
      </trkpt>
      <trkpt lat="49.278564" lon="9.619747">
        <ele>365.682573</ele>
        <time>2022-07-23T07:24:30.999Z</time>
      </trkpt>
      <trkpt lat="49.278465" lon="9.619843">
        <ele>365.031450</ele>
        <time>2022-07-23T07:24:32.999Z</time>
      </trkpt>
      <trkpt lat="49.278366" lon="9.619943">
        <ele>364.372459</ele>
        <time>2022-07-23T07:24:34.999Z</time>
      </trkpt>
      <trkpt lat="49.278268" lon="9.620043">
        <ele>363.718102</ele>
        <time>2022-07-23T07:24:36.999Z</time>
      </trkpt>
      <trkpt lat="49.278170" lon="9.620141">
        <ele>363.067735</ele>
        <time>2022-07-23T07:24:38.999Z</time>
      </trkpt>
      <trkpt lat="49.278072" lon="9.620240">
        <ele>362.415379</ele>
        <time>2022-07-23T07:24:40.999Z</time>
      </trkpt>
      <trkpt lat="49.277976" lon="9.620342">
        <ele>361.766141</ele>
        <time>2022-07-23T07:24:42.999Z</time>
      </trkpt>
      <trkpt lat="49.277875" lon="9.620442">
        <ele>361.097838</ele>
        <time>2022-07-23T07:24:44.999Z</time>
      </trkpt>
      <trkpt lat="49.277772" lon="9.620539">
        <ele>360.425927</ele>
        <time>2022-07-23T07:24:46.999Z</time>
      </trkpt>
      <trkpt lat="49.277670" lon="9.620645">
        <ele>359.740980</ele>
        <time>2022-07-23T07:24:48.999Z</time>
      </trkpt>
      <trkpt lat="49.277568" lon="9.620754">
        <ele>359.049868</ele>
        <time>2022-07-23T07:24:50.999Z</time>
      </trkpt>
      <trkpt lat="49.277460" lon="9.620867">
        <ele>358.325287</ele>
        <time>2022-07-23T07:24:52.999Z</time>
      </trkpt>
      <trkpt lat="49.277349" lon="9.620979">
        <ele>357.668019</ele>
        <time>2022-07-23T07:24:54.999Z</time>
      </trkpt>
      <trkpt lat="49.277239" lon="9.621089">
        <ele>357.018423</ele>
        <time>2022-07-23T07:24:56.999Z</time>
      </trkpt>
      <trkpt lat="49.277127" lon="9.621203">
        <ele>356.353469</ele>
        <time>2022-07-23T07:24:58.999Z</time>
      </trkpt>
      <trkpt lat="49.277012" lon="9.621321">
        <ele>355.669009</ele>
        <time>2022-07-23T07:25:00.999Z</time>
      </trkpt>
      <trkpt lat="49.276898" lon="9.621438">
        <ele>354.990453</ele>
        <time>2022-07-23T07:25:02.999Z</time>
      </trkpt>
      <trkpt lat="49.276783" lon="9.621556">
        <ele>354.305992</ele>
        <time>2022-07-23T07:25:04.999Z</time>
      </trkpt>
      <trkpt lat="49.276669" lon="9.621672">
        <ele>353.629225</ele>
        <time>2022-07-23T07:25:06.999Z</time>
      </trkpt>
      <trkpt lat="49.276556" lon="9.621787">
        <ele>352.958363</ele>
        <time>2022-07-23T07:25:08.999Z</time>
      </trkpt>
      <trkpt lat="49.276447" lon="9.621901">
        <ele>352.305714</ele>
        <time>2022-07-23T07:25:10.999Z</time>
      </trkpt>
      <trkpt lat="49.276339" lon="9.622018">
        <ele>351.651606</ele>
        <time>2022-07-23T07:25:12.999Z</time>
      </trkpt>
      <trkpt lat="49.276225" lon="9.622126">
        <ele>350.988766</ele>
        <time>2022-07-23T07:25:14.999Z</time>
      </trkpt>
      <trkpt lat="49.276115" lon="9.622238">
        <ele>350.335618</ele>
        <time>2022-07-23T07:25:16.999Z</time>
      </trkpt>
      <trkpt lat="49.276007" lon="9.622347">
        <ele>349.696060</ele>
        <time>2022-07-23T07:25:18.999Z</time>
      </trkpt>
      <trkpt lat="49.275900" lon="9.622450">
        <ele>349.710443</ele>
        <time>2022-07-23T07:25:20.999Z</time>
      </trkpt>
      <trkpt lat="49.275798" lon="9.622557">
        <ele>350.138221</ele>
        <time>2022-07-23T07:25:22.999Z</time>
      </trkpt>
      <trkpt lat="49.275693" lon="9.622663">
        <ele>350.573362</ele>
        <time>2022-07-23T07:25:24.999Z</time>
      </trkpt>
      <trkpt lat="49.275585" lon="9.622775">
        <ele>351.024661</ele>
        <time>2022-07-23T07:25:26.999Z</time>
      </trkpt>
      <trkpt lat="49.275469" lon="9.622880">
        <ele>351.490914</ele>
        <time>2022-07-23T07:25:28.999Z</time>
      </trkpt>
      <trkpt lat="49.275352" lon="9.622989">
        <ele>351.964778</ele>
        <time>2022-07-23T07:25:30.999Z</time>
      </trkpt>
      <trkpt lat="49.275238" lon="9.623101">
        <ele>352.433421</ele>
        <time>2022-07-23T07:25:32.999Z</time>
      </trkpt>
      <trkpt lat="49.275124" lon="9.623211">
        <ele>352.899643</ele>
        <time>2022-07-23T07:25:34.999Z</time>
      </trkpt>
      <trkpt lat="49.275006" lon="9.623314">
        <ele>353.369619</ele>
        <time>2022-07-23T07:25:36.999Z</time>
      </trkpt>
      <trkpt lat="49.274880" lon="9.623409">
        <ele>353.855605</ele>
        <time>2022-07-23T07:25:38.999Z</time>
      </trkpt>
      <trkpt lat="49.274747" lon="9.623486">
        <ele>354.347656</ele>
        <time>2022-07-23T07:25:40.999Z</time>
      </trkpt>
      <trkpt lat="49.274617" lon="9.623567">
        <ele>354.833336</ele>
        <time>2022-07-23T07:25:42.999Z</time>
      </trkpt>
      <trkpt lat="49.274483" lon="9.623630">
        <ele>355.318432</ele>
        <time>2022-07-23T07:25:45.000Z</time>
      </trkpt>
      <trkpt lat="49.274351" lon="9.623690">
        <ele>355.629202</ele>
        <time>2022-07-23T07:25:47.000Z</time>
      </trkpt>
      <trkpt lat="49.274219" lon="9.623740">
        <ele>355.463916</ele>
        <time>2022-07-23T07:25:49.000Z</time>
      </trkpt>
      <trkpt lat="49.274087" lon="9.623794">
        <ele>355.297840</ele>
        <time>2022-07-23T07:25:51.000Z</time>
      </trkpt>
      <trkpt lat="49.273949" lon="9.623847">
        <ele>355.124902</ele>
        <time>2022-07-23T07:25:53.000Z</time>
      </trkpt>
      <trkpt lat="49.273810" lon="9.623899">
        <ele>354.950973</ele>
        <time>2022-07-23T07:25:55.000Z</time>
      </trkpt>
      <trkpt lat="49.273673" lon="9.623935">
        <ele>354.782007</ele>
        <time>2022-07-23T07:25:57.000Z</time>
      </trkpt>
      <trkpt lat="49.273537" lon="9.623982">
        <ele>354.612535</ele>
        <time>2022-07-23T07:25:59.000Z</time>
      </trkpt>
      <trkpt lat="49.273399" lon="9.624049">
        <ele>354.436568</ele>
        <time>2022-07-23T07:26:01.000Z</time>
      </trkpt>
      <trkpt lat="49.273259" lon="9.624106">
        <ele>354.260482</ele>
        <time>2022-07-23T07:26:03.000Z</time>
      </trkpt>
      <trkpt lat="49.273117" lon="9.624154">
        <ele>354.083719</ele>
        <time>2022-07-23T07:26:05.000Z</time>
      </trkpt>
      <trkpt lat="49.272986" lon="9.624203">
        <ele>353.919803</ele>
        <time>2022-07-23T07:26:07.000Z</time>
      </trkpt>
      <trkpt lat="49.272855" lon="9.624244">
        <ele>353.757273</ele>
        <time>2022-07-23T07:26:09.000Z</time>
      </trkpt>
      <trkpt lat="49.272726" lon="9.624284">
        <ele>353.597284</ele>
        <time>2022-07-23T07:26:11.000Z</time>
      </trkpt>
      <trkpt lat="49.272602" lon="9.624326">
        <ele>353.271749</ele>
        <time>2022-07-23T07:26:13.000Z</time>
      </trkpt>
      <trkpt lat="49.272478" lon="9.624371">
        <ele>352.499491</ele>
        <time>2022-07-23T07:26:15.000Z</time>
      </trkpt>
      <trkpt lat="49.272355" lon="9.624411">
        <ele>351.737476</ele>
        <time>2022-07-23T07:26:17.000Z</time>
      </trkpt>
      <trkpt lat="49.272233" lon="9.624458">
        <ele>350.975118</ele>
        <time>2022-07-23T07:26:19.000Z</time>
      </trkpt>
      <trkpt lat="49.272104" lon="9.624503">
        <ele>350.173343</ele>
        <time>2022-07-23T07:26:21.000Z</time>
      </trkpt>
      <trkpt lat="49.271974" lon="9.624551">
        <ele>349.362961</ele>
        <time>2022-07-23T07:26:23.000Z</time>
      </trkpt>
      <trkpt lat="49.271841" lon="9.624599">
        <ele>348.534893</ele>
        <time>2022-07-23T07:26:24.999Z</time>
      </trkpt>
      <trkpt lat="49.271713" lon="9.624642">
        <ele>347.740757</ele>
        <time>2022-07-23T07:26:26.999Z</time>
      </trkpt>
      <trkpt lat="49.271585" lon="9.624692">
        <ele>346.940237</ele>
        <time>2022-07-23T07:26:28.999Z</time>
      </trkpt>
      <trkpt lat="49.271463" lon="9.624752">
        <ele>346.163745</ele>
        <time>2022-07-23T07:26:30.999Z</time>
      </trkpt>
      <trkpt lat="49.271336" lon="9.624813">
        <ele>345.357173</ele>
        <time>2022-07-23T07:26:32.999Z</time>
      </trkpt>
      <trkpt lat="49.271209" lon="9.624878">
        <ele>344.545730</ele>
        <time>2022-07-23T07:26:34.999Z</time>
      </trkpt>
      <trkpt lat="49.271083" lon="9.624938">
        <ele>343.746121</ele>
        <time>2022-07-23T07:26:36.999Z</time>
      </trkpt>
      <trkpt lat="49.270958" lon="9.625004">
        <ele>342.944886</ele>
        <time>2022-07-23T07:26:38.999Z</time>
      </trkpt>
      <trkpt lat="49.270833" lon="9.625080">
        <ele>342.161666</ele>
        <time>2022-07-23T07:26:40.999Z</time>
      </trkpt>
      <trkpt lat="49.270711" lon="9.625166">
        <ele>341.404569</ele>
        <time>2022-07-23T07:26:42.999Z</time>
      </trkpt>
      <trkpt lat="49.270588" lon="9.625248">
        <ele>340.648335</ele>
        <time>2022-07-23T07:26:44.999Z</time>
      </trkpt>
      <trkpt lat="49.270467" lon="9.625323">
        <ele>339.912464</ele>
        <time>2022-07-23T07:26:46.999Z</time>
      </trkpt>
      <trkpt lat="49.270346" lon="9.625403">
        <ele>339.169501</ele>
        <time>2022-07-23T07:26:48.999Z</time>
      </trkpt>
      <trkpt lat="49.270226" lon="9.625491">
        <ele>338.419486</ele>
        <time>2022-07-23T07:26:50.999Z</time>
      </trkpt>
      <trkpt lat="49.270106" lon="9.625577">
        <ele>337.672617</ele>
        <time>2022-07-23T07:26:52.999Z</time>
      </trkpt>
      <trkpt lat="49.269984" lon="9.625665">
        <ele>336.912414</ele>
        <time>2022-07-23T07:26:54.999Z</time>
      </trkpt>
      <trkpt lat="49.269863" lon="9.625749">
        <ele>336.163499</ele>
        <time>2022-07-23T07:26:56.999Z</time>
      </trkpt>
      <trkpt lat="49.269738" lon="9.625828">
        <ele>335.401185</ele>
        <time>2022-07-23T07:26:58.999Z</time>
      </trkpt>
      <trkpt lat="49.269609" lon="9.625902">
        <ele>334.624612</ele>
        <time>2022-07-23T07:27:00.999Z</time>
      </trkpt>
      <trkpt lat="49.269475" lon="9.625966">
        <ele>333.833291</ele>
        <time>2022-07-23T07:27:02.999Z</time>
      </trkpt>
      <trkpt lat="49.269335" lon="9.626006">
        <ele>333.030380</ele>
        <time>2022-07-23T07:27:04.999Z</time>
      </trkpt>
      <trkpt lat="49.269196" lon="9.626031">
        <ele>332.558279</ele>
        <time>2022-07-23T07:27:06.999Z</time>
      </trkpt>
      <trkpt lat="49.269058" lon="9.626045">
        <ele>332.992763</ele>
        <time>2022-07-23T07:27:08.999Z</time>
      </trkpt>
      <trkpt lat="49.268922" lon="9.626048">
        <ele>333.420059</ele>
        <time>2022-07-23T07:27:10.999Z</time>
      </trkpt>
      <trkpt lat="49.268789" lon="9.626040">
        <ele>333.838208</ele>
        <time>2022-07-23T07:27:12.999Z</time>
      </trkpt>
      <trkpt lat="49.268648" lon="9.626027">
        <ele>334.281969</ele>
        <time>2022-07-23T07:27:14.999Z</time>
      </trkpt>
      <trkpt lat="49.268505" lon="9.626001">
        <ele>334.734363</ele>
        <time>2022-07-23T07:27:16.999Z</time>
      </trkpt>
      <trkpt lat="49.268367" lon="9.625943">
        <ele>335.183905</ele>
        <time>2022-07-23T07:27:18.999Z</time>
      </trkpt>
      <trkpt lat="49.268227" lon="9.625876">
        <ele>335.644670</ele>
        <time>2022-07-23T07:27:20.999Z</time>
      </trkpt>
      <trkpt lat="49.268092" lon="9.625795">
        <ele>336.100126</ele>
        <time>2022-07-23T07:27:22.999Z</time>
      </trkpt>
      <trkpt lat="49.267951" lon="9.625721">
        <ele>336.568340</ele>
        <time>2022-07-23T07:27:24.999Z</time>
      </trkpt>
      <trkpt lat="49.267813" lon="9.625644">
        <ele>337.029716</ele>
        <time>2022-07-23T07:27:26.999Z</time>
      </trkpt>
      <trkpt lat="49.267675" lon="9.625582">
        <ele>337.481498</ele>
        <time>2022-07-23T07:27:28.999Z</time>
      </trkpt>
      <trkpt lat="49.267538" lon="9.625526">
        <ele>337.926938</ele>
        <time>2022-07-23T07:27:30.999Z</time>
      </trkpt>
      <trkpt lat="49.267403" lon="9.625479">
        <ele>338.412273</ele>
        <time>2022-07-23T07:27:32.999Z</time>
      </trkpt>
      <trkpt lat="49.267269" lon="9.625438">
        <ele>338.922781</ele>
        <time>2022-07-23T07:27:34.999Z</time>
      </trkpt>
      <trkpt lat="49.267134" lon="9.625389">
        <ele>339.441098</ele>
        <time>2022-07-23T07:27:36.999Z</time>
      </trkpt>
      <trkpt lat="49.266996" lon="9.625348">
        <ele>339.966269</ele>
        <time>2022-07-23T07:27:38.999Z</time>
      </trkpt>
      <trkpt lat="49.266857" lon="9.625311">
        <ele>340.493352</ele>
        <time>2022-07-23T07:27:40.999Z</time>
      </trkpt>
      <trkpt lat="49.266721" lon="9.625261">
        <ele>341.015868</ele>
        <time>2022-07-23T07:27:42.999Z</time>
      </trkpt>
      <trkpt lat="49.266590" lon="9.625212">
        <ele>341.519655</ele>
        <time>2022-07-23T07:27:44.999Z</time>
      </trkpt>
      <trkpt lat="49.266467" lon="9.625169">
        <ele>341.990991</ele>
        <time>2022-07-23T07:27:46.999Z</time>
      </trkpt>
      <trkpt lat="49.266339" lon="9.625124">
        <ele>342.481625</ele>
        <time>2022-07-23T07:27:48.999Z</time>
      </trkpt>
      <trkpt lat="49.266206" lon="9.625075">
        <ele>342.992674</ele>
        <time>2022-07-23T07:27:51.000Z</time>
      </trkpt>
      <trkpt lat="49.266071" lon="9.625033">
        <ele>343.507326</ele>
        <time>2022-07-23T07:27:53.000Z</time>
      </trkpt>
      <trkpt lat="49.265935" lon="9.624985">
        <ele>344.028727</ele>
        <time>2022-07-23T07:27:55.000Z</time>
      </trkpt>
      <trkpt lat="49.265799" lon="9.624938">
        <ele>344.549586</ele>
        <time>2022-07-23T07:27:57.000Z</time>
      </trkpt>
      <trkpt lat="49.265665" lon="9.624896">
        <ele>344.922169</ele>
        <time>2022-07-23T07:27:59.000Z</time>
      </trkpt>
      <trkpt lat="49.265534" lon="9.624851">
        <ele>345.140839</ele>
        <time>2022-07-23T07:28:01.000Z</time>
      </trkpt>
      <trkpt lat="49.265405" lon="9.624807">
        <ele>345.356097</ele>
        <time>2022-07-23T07:28:03.000Z</time>
      </trkpt>
      <trkpt lat="49.265274" lon="9.624764">
        <ele>345.574311</ele>
        <time>2022-07-23T07:28:05.000Z</time>
      </trkpt>
      <trkpt lat="49.265141" lon="9.624719">
        <ele>345.796161</ele>
        <time>2022-07-23T07:28:07.000Z</time>
      </trkpt>
      <trkpt lat="49.265009" lon="9.624676">
        <ele>346.015968</ele>
        <time>2022-07-23T07:28:09.000Z</time>
      </trkpt>
      <trkpt lat="49.264876" lon="9.624634">
        <ele>346.237152</ele>
        <time>2022-07-23T07:28:11.000Z</time>
      </trkpt>
      <trkpt lat="49.264747" lon="9.624593">
        <ele>346.451740</ele>
        <time>2022-07-23T07:28:13.000Z</time>
      </trkpt>
      <trkpt lat="49.264615" lon="9.624547">
        <ele>346.672233</ele>
        <time>2022-07-23T07:28:15.000Z</time>
      </trkpt>
      <trkpt lat="49.264481" lon="9.624504">
        <ele>346.895227</ele>
        <time>2022-07-23T07:28:17.000Z</time>
      </trkpt>
      <trkpt lat="49.264347" lon="9.624456">
        <ele>347.119372</ele>
        <time>2022-07-23T07:28:19.000Z</time>
      </trkpt>
      <trkpt lat="49.264212" lon="9.624402">
        <ele>347.346629</ele>
        <time>2022-07-23T07:28:21.000Z</time>
      </trkpt>
      <trkpt lat="49.264079" lon="9.624355">
        <ele>347.568947</ele>
        <time>2022-07-23T07:28:23.000Z</time>
      </trkpt>
      <trkpt lat="49.263951" lon="9.624318">
        <ele>347.727099</ele>
        <time>2022-07-23T07:28:25.000Z</time>
      </trkpt>
      <trkpt lat="49.263822" lon="9.624275">
        <ele>347.621975</ele>
        <time>2022-07-23T07:28:27.000Z</time>
      </trkpt>
      <trkpt lat="49.263696" lon="9.624227">
        <ele>347.518588</ele>
        <time>2022-07-23T07:28:29.000Z</time>
      </trkpt>
      <trkpt lat="49.263568" lon="9.624183">
        <ele>347.414129</ele>
        <time>2022-07-23T07:28:31.000Z</time>
      </trkpt>
      <trkpt lat="49.263438" lon="9.624141">
        <ele>347.308335</ele>
        <time>2022-07-23T07:28:33.000Z</time>
      </trkpt>
      <trkpt lat="49.263308" lon="9.624094">
        <ele>347.201975</ele>
        <time>2022-07-23T07:28:35.000Z</time>
      </trkpt>
      <trkpt lat="49.263177" lon="9.624050">
        <ele>347.095184</ele>
        <time>2022-07-23T07:28:36.999Z</time>
      </trkpt>
      <trkpt lat="49.263043" lon="9.624005">
        <ele>346.985948</ele>
        <time>2022-07-23T07:28:38.999Z</time>
      </trkpt>
      <trkpt lat="49.262905" lon="9.623958">
        <ele>346.873378</ele>
        <time>2022-07-23T07:28:40.999Z</time>
      </trkpt>
      <trkpt lat="49.262768" lon="9.623913">
        <ele>346.761807</ele>
        <time>2022-07-23T07:28:42.999Z</time>
      </trkpt>
      <trkpt lat="49.262633" lon="9.623865">
        <ele>346.651451</ele>
        <time>2022-07-23T07:28:44.999Z</time>
      </trkpt>
      <trkpt lat="49.262497" lon="9.623822">
        <ele>346.540874</ele>
        <time>2022-07-23T07:28:46.999Z</time>
      </trkpt>
      <trkpt lat="49.262366" lon="9.623778">
        <ele>346.434083</ele>
        <time>2022-07-23T07:28:48.999Z</time>
      </trkpt>
      <trkpt lat="49.262240" lon="9.623736">
        <ele>346.331403</ele>
        <time>2022-07-23T07:28:50.999Z</time>
      </trkpt>
      <trkpt lat="49.262121" lon="9.623693">
        <ele>346.379578</ele>
        <time>2022-07-23T07:28:52.999Z</time>
      </trkpt>
      <trkpt lat="49.261998" lon="9.623654">
        <ele>346.464893</ele>
        <time>2022-07-23T07:28:54.999Z</time>
      </trkpt>
      <trkpt lat="49.261877" lon="9.623632">
        <ele>346.547658</ele>
        <time>2022-07-23T07:28:56.999Z</time>
      </trkpt>
      <trkpt lat="49.261752" lon="9.623622">
        <ele>346.632678</ele>
        <time>2022-07-23T07:28:58.999Z</time>
      </trkpt>
      <trkpt lat="49.261625" lon="9.623618">
        <ele>346.718959</ele>
        <time>2022-07-23T07:29:00.999Z</time>
      </trkpt>
      <trkpt lat="49.261497" lon="9.623625">
        <ele>346.805957</ele>
        <time>2022-07-23T07:29:02.999Z</time>
      </trkpt>
      <trkpt lat="49.261369" lon="9.623640">
        <ele>346.893153</ele>
        <time>2022-07-23T07:29:04.999Z</time>
      </trkpt>
      <trkpt lat="49.261243" lon="9.623654">
        <ele>346.978961</ele>
        <time>2022-07-23T07:29:06.999Z</time>
      </trkpt>
      <trkpt lat="49.261127" lon="9.623681">
        <ele>347.058657</ele>
        <time>2022-07-23T07:29:08.999Z</time>
      </trkpt>
      <trkpt lat="49.261009" lon="9.623695">
        <ele>347.139047</ele>
        <time>2022-07-23T07:29:10.999Z</time>
      </trkpt>
      <trkpt lat="49.260889" lon="9.623713">
        <ele>347.220945</ele>
        <time>2022-07-23T07:29:12.999Z</time>
      </trkpt>
      <trkpt lat="49.260772" lon="9.623737">
        <ele>347.301124</ele>
        <time>2022-07-23T07:29:14.999Z</time>
      </trkpt>
      <trkpt lat="49.260653" lon="9.623757">
        <ele>347.382438</ele>
        <time>2022-07-23T07:29:16.999Z</time>
      </trkpt>
      <trkpt lat="49.260531" lon="9.623774">
        <ele>347.465647</ele>
        <time>2022-07-23T07:29:18.999Z</time>
      </trkpt>
      <trkpt lat="49.260399" lon="9.623784">
        <ele>347.402269</ele>
        <time>2022-07-23T07:29:20.999Z</time>
      </trkpt>
      <trkpt lat="49.260276" lon="9.623802">
        <ele>346.877832</ele>
        <time>2022-07-23T07:29:22.999Z</time>
      </trkpt>
      <trkpt lat="49.260137" lon="9.623810">
        <ele>346.287444</ele>
        <time>2022-07-23T07:29:24.999Z</time>
      </trkpt>
      <trkpt lat="49.260003" lon="9.623831">
        <ele>345.715728</ele>
        <time>2022-07-23T07:29:26.999Z</time>
      </trkpt>
      <trkpt lat="49.259864" lon="9.623851">
        <ele>345.123161</ele>
        <time>2022-07-23T07:29:28.999Z</time>
      </trkpt>
      <trkpt lat="49.259727" lon="9.623869">
        <ele>344.539544</ele>
        <time>2022-07-23T07:29:30.999Z</time>
      </trkpt>
      <trkpt lat="49.259591" lon="9.623890">
        <ele>343.959382</ele>
        <time>2022-07-23T07:29:32.999Z</time>
      </trkpt>
      <trkpt lat="49.259460" lon="9.623908">
        <ele>343.401135</ele>
        <time>2022-07-23T07:29:34.999Z</time>
      </trkpt>
      <trkpt lat="49.259325" lon="9.623932">
        <ele>342.824297</ele>
        <time>2022-07-23T07:29:36.999Z</time>
      </trkpt>
      <trkpt lat="49.259189" lon="9.623968">
        <ele>342.238508</ele>
        <time>2022-07-23T07:29:38.999Z</time>
      </trkpt>
      <trkpt lat="49.259056" lon="9.624014">
        <ele>341.659800</ele>
        <time>2022-07-23T07:29:40.999Z</time>
      </trkpt>
      <trkpt lat="49.258916" lon="9.624067">
        <ele>341.047716</ele>
        <time>2022-07-23T07:29:42.999Z</time>
      </trkpt>
      <trkpt lat="49.258778" lon="9.624124">
        <ele>340.441081</ele>
        <time>2022-07-23T07:29:44.999Z</time>
      </trkpt>
      <trkpt lat="49.258644" lon="9.624191">
        <ele>339.886587</ele>
        <time>2022-07-23T07:29:46.999Z</time>
      </trkpt>
      <trkpt lat="49.258510" lon="9.624269">
        <ele>339.742846</ele>
        <time>2022-07-23T07:29:48.999Z</time>
      </trkpt>
      <trkpt lat="49.258375" lon="9.624356">
        <ele>339.595985</ele>
        <time>2022-07-23T07:29:50.999Z</time>
      </trkpt>
      <trkpt lat="49.258239" lon="9.624445">
        <ele>339.447690</ele>
        <time>2022-07-23T07:29:52.999Z</time>
      </trkpt>
      <trkpt lat="49.258105" lon="9.624548">
        <ele>339.297358</ele>
        <time>2022-07-23T07:29:54.999Z</time>
      </trkpt>
      <trkpt lat="49.257977" lon="9.624661">
        <ele>339.149223</ele>
        <time>2022-07-23T07:29:57.000Z</time>
      </trkpt>
      <trkpt lat="49.257851" lon="9.624775">
        <ele>339.002490</ele>
        <time>2022-07-23T07:29:59.000Z</time>
      </trkpt>
      <trkpt lat="49.257732" lon="9.624896">
        <ele>338.859274</ele>
        <time>2022-07-23T07:30:01.000Z</time>
      </trkpt>
      <trkpt lat="49.257615" lon="9.625020">
        <ele>338.716617</ele>
        <time>2022-07-23T07:30:03.000Z</time>
      </trkpt>
      <trkpt lat="49.257504" lon="9.625151">
        <ele>338.576118</ele>
        <time>2022-07-23T07:30:05.000Z</time>
      </trkpt>
      <trkpt lat="49.257398" lon="9.625289">
        <ele>338.436635</ele>
        <time>2022-07-23T07:30:07.000Z</time>
      </trkpt>
      <trkpt lat="49.257293" lon="9.625436">
        <ele>338.294010</ele>
        <time>2022-07-23T07:30:09.000Z</time>
      </trkpt>
      <trkpt lat="49.257193" lon="9.625590">
        <ele>338.151834</ele>
        <time>2022-07-23T07:30:11.000Z</time>
      </trkpt>
      <trkpt lat="49.257100" lon="9.625748">
        <ele>338.330232</ele>
        <time>2022-07-23T07:30:13.000Z</time>
      </trkpt>
      <trkpt lat="49.257008" lon="9.625904">
        <ele>338.713518</ele>
        <time>2022-07-23T07:30:15.000Z</time>
      </trkpt>
      <trkpt lat="49.256923" lon="9.626066">
        <ele>339.092441</ele>
        <time>2022-07-23T07:30:17.000Z</time>
      </trkpt>
      <trkpt lat="49.256849" lon="9.626231">
        <ele>339.457404</ele>
        <time>2022-07-23T07:30:19.000Z</time>
      </trkpt>
      <trkpt lat="49.256776" lon="9.626396">
        <ele>339.820794</ele>
        <time>2022-07-23T07:30:21.000Z</time>
      </trkpt>
      <trkpt lat="49.256703" lon="9.626561">
        <ele>340.184183</ele>
        <time>2022-07-23T07:30:23.000Z</time>
      </trkpt>
      <trkpt lat="49.256636" lon="9.626737">
        <ele>340.555619</ele>
        <time>2022-07-23T07:30:25.000Z</time>
      </trkpt>
      <trkpt lat="49.256578" lon="9.626912">
        <ele>340.913420</ele>
        <time>2022-07-23T07:30:27.000Z</time>
      </trkpt>
      <trkpt lat="49.256518" lon="9.627094">
        <ele>341.285130</ele>
        <time>2022-07-23T07:30:28.999Z</time>
      </trkpt>
      <trkpt lat="49.256464" lon="9.627277">
        <ele>341.651252</ele>
        <time>2022-07-23T07:30:30.999Z</time>
      </trkpt>
      <trkpt lat="49.256420" lon="9.627460">
        <ele>342.006779</ele>
        <time>2022-07-23T07:30:32.999Z</time>
      </trkpt>
      <trkpt lat="49.256378" lon="9.627643">
        <ele>342.360415</ele>
        <time>2022-07-23T07:30:34.999Z</time>
      </trkpt>
      <trkpt lat="49.256331" lon="9.627827">
        <ele>342.720622</ele>
        <time>2022-07-23T07:30:36.999Z</time>
      </trkpt>
      <trkpt lat="49.256287" lon="9.628009">
        <ele>343.074441</ele>
        <time>2022-07-23T07:30:38.999Z</time>
      </trkpt>
      <trkpt lat="49.256248" lon="9.628191">
        <ele>342.833217</ele>
        <time>2022-07-23T07:30:40.999Z</time>
      </trkpt>
      <trkpt lat="49.256203" lon="9.628377">
        <ele>342.490870</ele>
        <time>2022-07-23T07:30:42.999Z</time>
      </trkpt>
      <trkpt lat="49.256154" lon="9.628565">
        <ele>342.141501</ele>
        <time>2022-07-23T07:30:44.999Z</time>
      </trkpt>
      <trkpt lat="49.256099" lon="9.628752">
        <ele>341.787517</ele>
        <time>2022-07-23T07:30:46.999Z</time>
      </trkpt>
      <trkpt lat="49.256033" lon="9.628931">
        <ele>341.432706</ele>
        <time>2022-07-23T07:30:48.999Z</time>
      </trkpt>
      <trkpt lat="49.255965" lon="9.629109">
        <ele>341.076756</ele>
        <time>2022-07-23T07:30:50.998Z</time>
      </trkpt>
      <trkpt lat="49.255888" lon="9.629280">
        <ele>340.718218</ele>
        <time>2022-07-23T07:30:52.998Z</time>
      </trkpt>
      <trkpt lat="49.255802" lon="9.629445">
        <ele>340.353798</ele>
        <time>2022-07-23T07:30:54.998Z</time>
      </trkpt>
      <trkpt lat="49.255709" lon="9.629599">
        <ele>339.991704</ele>
        <time>2022-07-23T07:30:56.998Z</time>
      </trkpt>
      <trkpt lat="49.255609" lon="9.629745">
        <ele>339.626452</ele>
        <time>2022-07-23T07:30:58.998Z</time>
      </trkpt>
      <trkpt lat="49.255503" lon="9.629882">
        <ele>339.259757</ele>
        <time>2022-07-23T07:31:00.998Z</time>
      </trkpt>
      <trkpt lat="49.255395" lon="9.630007">
        <ele>338.901855</ele>
        <time>2022-07-23T07:31:02.998Z</time>
      </trkpt>
      <trkpt lat="49.255284" lon="9.630118">
        <ele>338.551361</ele>
        <time>2022-07-23T07:31:04.998Z</time>
      </trkpt>
      <trkpt lat="49.255164" lon="9.630218">
        <ele>338.603055</ele>
        <time>2022-07-23T07:31:06.998Z</time>
      </trkpt>
      <trkpt lat="49.255045" lon="9.630307">
        <ele>339.082920</ele>
        <time>2022-07-23T07:31:08.998Z</time>
      </trkpt>
      <trkpt lat="49.254923" lon="9.630385">
        <ele>339.561969</ele>
        <time>2022-07-23T07:31:10.998Z</time>
      </trkpt>
      <trkpt lat="49.254800" lon="9.630449">
        <ele>340.032696</ele>
        <time>2022-07-23T07:31:12.998Z</time>
      </trkpt>
      <trkpt lat="49.254674" lon="9.630507">
        <ele>340.509455</ele>
        <time>2022-07-23T07:31:14.998Z</time>
      </trkpt>
      <trkpt lat="49.254546" lon="9.630551">
        <ele>340.984829</ele>
        <time>2022-07-23T07:31:16.998Z</time>
      </trkpt>
      <trkpt lat="49.254414" lon="9.630586">
        <ele>341.470278</ele>
        <time>2022-07-23T07:31:18.998Z</time>
      </trkpt>
      <trkpt lat="49.254286" lon="9.630608">
        <ele>341.937031</ele>
        <time>2022-07-23T07:31:20.998Z</time>
      </trkpt>
      <trkpt lat="49.254163" lon="9.630622">
        <ele>342.383983</ele>
        <time>2022-07-23T07:31:22.998Z</time>
      </trkpt>
      <trkpt lat="49.254039" lon="9.630631">
        <ele>342.833835</ele>
        <time>2022-07-23T07:31:24.998Z</time>
      </trkpt>
      <trkpt lat="49.253917" lon="9.630648">
        <ele>343.277761</ele>
        <time>2022-07-23T07:31:26.998Z</time>
      </trkpt>
      <trkpt lat="49.253792" lon="9.630659">
        <ele>343.731479</ele>
        <time>2022-07-23T07:31:28.998Z</time>
      </trkpt>
      <trkpt lat="49.253667" lon="9.630671">
        <ele>344.185339</ele>
        <time>2022-07-23T07:31:30.998Z</time>
      </trkpt>
      <trkpt lat="49.253551" lon="9.630686">
        <ele>344.607192</ele>
        <time>2022-07-23T07:31:32.998Z</time>
      </trkpt>
      <trkpt lat="49.253436" lon="9.630720">
        <ele>344.889044</ele>
        <time>2022-07-23T07:31:34.998Z</time>
      </trkpt>
      <trkpt lat="49.253325" lon="9.630764">
        <ele>344.908026</ele>
        <time>2022-07-23T07:31:36.998Z</time>
      </trkpt>
      <trkpt lat="49.253212" lon="9.630805">
        <ele>344.927252</ele>
        <time>2022-07-23T07:31:38.998Z</time>
      </trkpt>
      <trkpt lat="49.253107" lon="9.630851">
        <ele>344.945333</ele>
        <time>2022-07-23T07:31:40.999Z</time>
      </trkpt>
      <trkpt lat="49.253003" lon="9.630897">
        <ele>344.963254</ele>
        <time>2022-07-23T07:31:42.999Z</time>
      </trkpt>
      <trkpt lat="49.252899" lon="9.630930">
        <ele>344.980838</ele>
        <time>2022-07-23T07:31:44.999Z</time>
      </trkpt>
      <trkpt lat="49.252777" lon="9.630955">
        <ele>345.001216</ele>
        <time>2022-07-23T07:31:47.999Z</time>
      </trkpt>
      <trkpt lat="49.252688" lon="9.630850">
        <ele>345.019814</ele>
        <time>2022-07-23T07:31:50.999Z</time>
      </trkpt>
      <trkpt lat="49.252655" lon="9.630683">
        <ele>345.038670</ele>
        <time>2022-07-23T07:31:53.999Z</time>
      </trkpt>
      <trkpt lat="49.252616" lon="9.630516">
        <ele>345.057837</ele>
        <time>2022-07-23T07:31:56.999Z</time>
      </trkpt>
      <trkpt lat="49.252561" lon="9.630347">
        <ele>345.078244</ele>
        <time>2022-07-23T07:31:59.999Z</time>
      </trkpt>
      <trkpt lat="49.252497" lon="9.630173">
        <ele>345.099828</ele>
        <time>2022-07-23T07:32:03.000Z</time>
      </trkpt>
      <trkpt lat="49.252457" lon="9.630049">
        <ele>345.114775</ele>
        <time>2022-07-23T07:32:05.000Z</time>
      </trkpt>
      <trkpt lat="49.252417" lon="9.629916">
        <ele>345.130600</ele>
        <time>2022-07-23T07:32:07.000Z</time>
      </trkpt>
      <trkpt lat="49.252356" lon="9.629729">
        <ele>345.153191</ele>
        <time>2022-07-23T07:32:10.000Z</time>
      </trkpt>
      <trkpt lat="49.252309" lon="9.629596">
        <ele>345.169535</ele>
        <time>2022-07-23T07:32:12.000Z</time>
      </trkpt>
      <trkpt lat="49.252269" lon="9.629450">
        <ele>345.075757</ele>
        <time>2022-07-23T07:32:14.000Z</time>
      </trkpt>
      <trkpt lat="49.252223" lon="9.629309">
        <ele>344.808462</ele>
        <time>2022-07-23T07:32:16.000Z</time>
      </trkpt>
      <trkpt lat="49.252183" lon="9.629176">
        <ele>344.560145</ele>
        <time>2022-07-23T07:32:18.000Z</time>
      </trkpt>
      <trkpt lat="49.252141" lon="9.629032">
        <ele>344.292695</ele>
        <time>2022-07-23T07:32:20.000Z</time>
      </trkpt>
      <trkpt lat="49.252101" lon="9.628880">
        <ele>344.014788</ele>
        <time>2022-07-23T07:32:22.000Z</time>
      </trkpt>
      <trkpt lat="49.252062" lon="9.628727">
        <ele>343.736264</ele>
        <time>2022-07-23T07:32:24.000Z</time>
      </trkpt>
      <trkpt lat="49.252030" lon="9.628587">
        <ele>343.484730</ele>
        <time>2022-07-23T07:32:26.000Z</time>
      </trkpt>
      <trkpt lat="49.252004" lon="9.628452">
        <ele>343.246052</ele>
        <time>2022-07-23T07:32:27.999Z</time>
      </trkpt>
      <trkpt lat="49.251958" lon="9.628263">
        <ele>342.904008</ele>
        <time>2022-07-23T07:32:30.999Z</time>
      </trkpt>
      <trkpt lat="49.251914" lon="9.628086">
        <ele>342.582837</ele>
        <time>2022-07-23T07:32:33.999Z</time>
      </trkpt>
      <trkpt lat="49.251867" lon="9.627921">
        <ele>342.277563</ele>
        <time>2022-07-23T07:32:36.999Z</time>
      </trkpt>
      <trkpt lat="49.251817" lon="9.627761">
        <ele>341.976758</ele>
        <time>2022-07-23T07:32:39.999Z</time>
      </trkpt>
      <trkpt lat="49.251758" lon="9.627605">
        <ele>341.671029</ele>
        <time>2022-07-23T07:32:42.999Z</time>
      </trkpt>
      <trkpt lat="49.251702" lon="9.627436">
        <ele>341.349640</ele>
        <time>2022-07-23T07:32:45.999Z</time>
      </trkpt>
      <trkpt lat="49.251649" lon="9.627266">
        <ele>341.030174</ele>
        <time>2022-07-23T07:32:48.999Z</time>
      </trkpt>
      <trkpt lat="49.251589" lon="9.627092">
        <ele>340.696476</ele>
        <time>2022-07-23T07:32:51.999Z</time>
      </trkpt>
      <trkpt lat="49.251528" lon="9.626912">
        <ele>340.058609</ele>
        <time>2022-07-23T07:32:54.999Z</time>
      </trkpt>
      <trkpt lat="49.251495" lon="9.626782">
        <ele>339.372984</ele>
        <time>2022-07-23T07:32:56.999Z</time>
      </trkpt>
      <trkpt lat="49.251466" lon="9.626647">
        <ele>338.674391</ele>
        <time>2022-07-23T07:32:58.999Z</time>
      </trkpt>
      <trkpt lat="49.251435" lon="9.626512">
        <ele>337.970944</ele>
        <time>2022-07-23T07:33:00.999Z</time>
      </trkpt>
      <trkpt lat="49.251408" lon="9.626371">
        <ele>337.248661</ele>
        <time>2022-07-23T07:33:02.999Z</time>
      </trkpt>
      <trkpt lat="49.251385" lon="9.626226">
        <ele>336.515180</ele>
        <time>2022-07-23T07:33:04.999Z</time>
      </trkpt>
      <trkpt lat="49.251357" lon="9.626087">
        <ele>335.800140</ele>
        <time>2022-07-23T07:33:06.999Z</time>
      </trkpt>
      <trkpt lat="49.251316" lon="9.625901">
        <ele>334.835144</ele>
        <time>2022-07-23T07:33:09.999Z</time>
      </trkpt>
      <trkpt lat="49.251272" lon="9.625728">
        <ele>333.922501</ele>
        <time>2022-07-23T07:33:12.999Z</time>
      </trkpt>
      <trkpt lat="49.251237" lon="9.625566">
        <ele>333.083713</ele>
        <time>2022-07-23T07:33:15.999Z</time>
      </trkpt>
      <trkpt lat="49.251195" lon="9.625406">
        <ele>332.236028</ele>
        <time>2022-07-23T07:33:18.999Z</time>
      </trkpt>
      <trkpt lat="49.251164" lon="9.625250">
        <ele>331.434470</ele>
        <time>2022-07-23T07:33:21.999Z</time>
      </trkpt>
      <trkpt lat="49.251154" lon="9.625070">
        <ele>330.546490</ele>
        <time>2022-07-23T07:33:24.999Z</time>
      </trkpt>
      <trkpt lat="49.251175" lon="9.624862">
        <ele>329.511917</ele>
        <time>2022-07-23T07:33:27.999Z</time>
      </trkpt>
      <trkpt lat="49.251213" lon="9.624722">
        <ele>328.766629</ele>
        <time>2022-07-23T07:33:29.999Z</time>
      </trkpt>
      <trkpt lat="49.251239" lon="9.624573">
        <ele>328.008509</ele>
        <time>2022-07-23T07:33:31.999Z</time>
      </trkpt>
      <trkpt lat="49.251248" lon="9.624411">
        <ele>327.209327</ele>
        <time>2022-07-23T07:33:33.999Z</time>
      </trkpt>
      <trkpt lat="49.251238" lon="9.624255">
        <ele>326.459264</ele>
        <time>2022-07-23T07:33:35.999Z</time>
      </trkpt>
      <trkpt lat="49.251240" lon="9.624104">
        <ele>325.745834</ele>
        <time>2022-07-23T07:33:37.999Z</time>
      </trkpt>
      <trkpt lat="49.251235" lon="9.623961">
        <ele>325.069371</ele>
        <time>2022-07-23T07:33:39.999Z</time>
      </trkpt>
      <trkpt lat="49.251219" lon="9.623822">
        <ele>324.402641</ele>
        <time>2022-07-23T07:33:41.999Z</time>
      </trkpt>
      <trkpt lat="49.251209" lon="9.623679">
        <ele>323.723281</ele>
        <time>2022-07-23T07:33:43.999Z</time>
      </trkpt>
      <trkpt lat="49.251199" lon="9.623523">
        <ele>322.982832</ele>
        <time>2022-07-23T07:33:45.999Z</time>
      </trkpt>
      <trkpt lat="49.251183" lon="9.623374">
        <ele>322.269535</ele>
        <time>2022-07-23T07:33:47.999Z</time>
      </trkpt>
      <trkpt lat="49.251163" lon="9.623233">
        <ele>321.587943</ele>
        <time>2022-07-23T07:33:49.999Z</time>
      </trkpt>
      <trkpt lat="49.251136" lon="9.623098">
        <ele>320.920975</ele>
        <time>2022-07-23T07:33:51.999Z</time>
      </trkpt>
      <trkpt lat="49.251106" lon="9.622958">
        <ele>320.224926</ele>
        <time>2022-07-23T07:33:53.999Z</time>
      </trkpt>
      <trkpt lat="49.251070" lon="9.622814">
        <ele>319.496523</ele>
        <time>2022-07-23T07:33:55.999Z</time>
      </trkpt>
      <trkpt lat="49.250994" lon="9.622721">
        <ele>318.792617</ele>
        <time>2022-07-23T07:33:57.999Z</time>
      </trkpt>
      <trkpt lat="49.250895" lon="9.622731">
        <ele>318.074624</ele>
        <time>2022-07-23T07:33:59.999Z</time>
      </trkpt>
      <trkpt lat="49.250813" lon="9.622834">
        <ele>317.307246</ele>
        <time>2022-07-23T07:34:01.999Z</time>
      </trkpt>
      <trkpt lat="49.250766" lon="9.622980">
        <ele>316.538264</ele>
        <time>2022-07-23T07:34:03.999Z</time>
      </trkpt>
      <trkpt lat="49.250724" lon="9.623146">
        <ele>315.697271</ele>
        <time>2022-07-23T07:34:05.999Z</time>
      </trkpt>
      <trkpt lat="49.250678" lon="9.623311">
        <ele>314.849734</ele>
        <time>2022-07-23T07:34:07.999Z</time>
      </trkpt>
      <trkpt lat="49.250628" lon="9.623483">
        <ele>313.960313</ele>
        <time>2022-07-23T07:34:09.999Z</time>
      </trkpt>
      <trkpt lat="49.250568" lon="9.623656">
        <ele>312.566354</ele>
        <time>2022-07-23T07:34:11.999Z</time>
      </trkpt>
      <trkpt lat="49.250501" lon="9.623833">
        <ele>311.103025</ele>
        <time>2022-07-23T07:34:13.999Z</time>
      </trkpt>
      <trkpt lat="49.250426" lon="9.624007">
        <ele>309.611769</ele>
        <time>2022-07-23T07:34:16.000Z</time>
      </trkpt>
      <trkpt lat="49.250344" lon="9.624183">
        <ele>308.065295</ele>
        <time>2022-07-23T07:34:18.000Z</time>
      </trkpt>
      <trkpt lat="49.250257" lon="9.624364">
        <ele>306.457710</ele>
        <time>2022-07-23T07:34:20.000Z</time>
      </trkpt>
      <trkpt lat="49.250162" lon="9.624532">
        <ele>304.868039</ele>
        <time>2022-07-23T07:34:22.000Z</time>
      </trkpt>
      <trkpt lat="49.250074" lon="9.624673">
        <ele>303.472856</ele>
        <time>2022-07-23T07:34:24.000Z</time>
      </trkpt>
      <trkpt lat="49.249990" lon="9.624786">
        <ele>302.248042</ele>
        <time>2022-07-23T07:34:26.000Z</time>
      </trkpt>
      <trkpt lat="49.249910" lon="9.624893">
        <ele>301.084469</ele>
        <time>2022-07-23T07:34:28.000Z</time>
      </trkpt>
      <trkpt lat="49.249837" lon="9.624993">
        <ele>300.011519</ele>
        <time>2022-07-23T07:34:30.000Z</time>
      </trkpt>
      <trkpt lat="49.249738" lon="9.625093">
        <ele>298.712265</ele>
        <time>2022-07-23T07:34:32.999Z</time>
      </trkpt>
      <trkpt lat="49.249627" lon="9.625004">
        <ele>297.339592</ele>
        <time>2022-07-23T07:34:35.999Z</time>
      </trkpt>
      <trkpt lat="49.249631" lon="9.624856">
        <ele>296.280190</ele>
        <time>2022-07-23T07:34:37.999Z</time>
      </trkpt>
      <trkpt lat="49.249701" lon="9.624697">
        <ele>294.908561</ele>
        <time>2022-07-23T07:34:40.999Z</time>
      </trkpt>
      <trkpt lat="49.249754" lon="9.624526">
        <ele>293.736894</ele>
        <time>2022-07-23T07:34:43.999Z</time>
      </trkpt>
      <trkpt lat="49.249796" lon="9.624398">
        <ele>292.984799</ele>
        <time>2022-07-23T07:34:45.999Z</time>
      </trkpt>
      <trkpt lat="49.249839" lon="9.624250">
        <ele>292.134341</ele>
        <time>2022-07-23T07:34:47.999Z</time>
      </trkpt>
      <trkpt lat="49.249879" lon="9.624079">
        <ele>291.180726</ele>
        <time>2022-07-23T07:34:49.999Z</time>
      </trkpt>
      <trkpt lat="49.249916" lon="9.623904">
        <ele>290.215022</ele>
        <time>2022-07-23T07:34:51.999Z</time>
      </trkpt>
      <trkpt lat="49.249951" lon="9.623724">
        <ele>289.229026</ele>
        <time>2022-07-23T07:34:53.999Z</time>
      </trkpt>
      <trkpt lat="49.249985" lon="9.623549">
        <ele>288.270484</ele>
        <time>2022-07-23T07:34:55.999Z</time>
      </trkpt>
      <trkpt lat="49.250019" lon="9.623367">
        <ele>287.276665</ele>
        <time>2022-07-23T07:34:57.999Z</time>
      </trkpt>
      <trkpt lat="49.250048" lon="9.623184">
        <ele>286.288050</ele>
        <time>2022-07-23T07:34:59.999Z</time>
      </trkpt>
      <trkpt lat="49.250056" lon="9.622998">
        <ele>285.309474</ele>
        <time>2022-07-23T07:35:01.999Z</time>
      </trkpt>
      <trkpt lat="49.250027" lon="9.622819">
        <ele>284.341253</ele>
        <time>2022-07-23T07:35:03.999Z</time>
      </trkpt>
      <trkpt lat="49.249969" lon="9.622685">
        <ele>283.497181</ele>
        <time>2022-07-23T07:35:05.999Z</time>
      </trkpt>
      <trkpt lat="49.249884" lon="9.622587">
        <ele>282.641606</ele>
        <time>2022-07-23T07:35:07.999Z</time>
      </trkpt>
      <trkpt lat="49.249792" lon="9.622517">
        <ele>281.815468</ele>
        <time>2022-07-23T07:35:09.999Z</time>
      </trkpt>
      <trkpt lat="49.249699" lon="9.622446">
        <ele>280.979790</ele>
        <time>2022-07-23T07:35:11.999Z</time>
      </trkpt>
      <trkpt lat="49.249610" lon="9.622377">
        <ele>280.177572</ele>
        <time>2022-07-23T07:35:13.999Z</time>
      </trkpt>
      <trkpt lat="49.249523" lon="9.622316">
        <ele>279.997613</ele>
        <time>2022-07-23T07:35:15.999Z</time>
      </trkpt>
      <trkpt lat="49.249411" lon="9.622231">
        <ele>280.610954</ele>
        <time>2022-07-23T07:35:18.999Z</time>
      </trkpt>
      <trkpt lat="49.249327" lon="9.622178">
        <ele>281.056742</ele>
        <time>2022-07-23T07:35:20.999Z</time>
      </trkpt>
      <trkpt lat="49.249204" lon="9.622086">
        <ele>281.728416</ele>
        <time>2022-07-23T07:35:23.999Z</time>
      </trkpt>
      <trkpt lat="49.249102" lon="9.622020">
        <ele>282.271757</ele>
        <time>2022-07-23T07:35:25.999Z</time>
      </trkpt>
      <trkpt lat="49.248991" lon="9.621946">
        <ele>282.865787</ele>
        <time>2022-07-23T07:35:27.999Z</time>
      </trkpt>
      <trkpt lat="49.248882" lon="9.621867">
        <ele>283.457502</ele>
        <time>2022-07-23T07:35:29.999Z</time>
      </trkpt>
      <trkpt lat="49.248773" lon="9.621787">
        <ele>284.050594</ele>
        <time>2022-07-23T07:35:31.999Z</time>
      </trkpt>
      <trkpt lat="49.248668" lon="9.621711">
        <ele>284.620457</ele>
        <time>2022-07-23T07:35:33.999Z</time>
      </trkpt>
      <trkpt lat="49.248571" lon="9.621627">
        <ele>285.167235</ele>
        <time>2022-07-23T07:35:35.999Z</time>
      </trkpt>
      <trkpt lat="49.248483" lon="9.621537">
        <ele>285.686451</ele>
        <time>2022-07-23T07:35:37.999Z</time>
      </trkpt>
      <trkpt lat="49.248407" lon="9.621443">
        <ele>286.165772</ele>
        <time>2022-07-23T07:35:39.999Z</time>
      </trkpt>
      <trkpt lat="49.248342" lon="9.621347">
        <ele>286.608830</ele>
        <time>2022-07-23T07:35:41.999Z</time>
      </trkpt>
      <trkpt lat="49.248266" lon="9.621198">
        <ele>287.214542</ele>
        <time>2022-07-23T07:35:44.999Z</time>
      </trkpt>
      <trkpt lat="49.248216" lon="9.621053">
        <ele>287.739837</ele>
        <time>2022-07-23T07:35:48.999Z</time>
      </trkpt>
      <trkpt lat="49.248180" lon="9.620920">
        <ele>288.201046</ele>
        <time>2022-07-23T07:35:51.999Z</time>
      </trkpt>
      <trkpt lat="49.248155" lon="9.620758">
        <ele>288.882511</ele>
        <time>2022-07-23T07:35:54.999Z</time>
      </trkpt>
      <trkpt lat="49.248142" lon="9.620581">
        <ele>290.084476</ele>
        <time>2022-07-23T07:35:57.999Z</time>
      </trkpt>
      <trkpt lat="49.248145" lon="9.620397">
        <ele>291.326530</ele>
        <time>2022-07-23T07:36:00.999Z</time>
      </trkpt>
      <trkpt lat="49.248156" lon="9.620218">
        <ele>292.539795</ele>
        <time>2022-07-23T07:36:03.999Z</time>
      </trkpt>
      <trkpt lat="49.248182" lon="9.620038">
        <ele>293.783849</ele>
        <time>2022-07-23T07:36:06.999Z</time>
      </trkpt>
      <trkpt lat="49.248215" lon="9.619866">
        <ele>294.993630</ele>
        <time>2022-07-23T07:36:09.999Z</time>
      </trkpt>
      <trkpt lat="49.248256" lon="9.619702">
        <ele>296.178714</ele>
        <time>2022-07-23T07:36:12.999Z</time>
      </trkpt>
      <trkpt lat="49.248334" lon="9.619556">
        <ele>297.451839</ele>
        <time>2022-07-23T07:36:16.000Z</time>
      </trkpt>
      <trkpt lat="49.248417" lon="9.619428">
        <ele>298.669328</ele>
        <time>2022-07-23T07:36:19.000Z</time>
      </trkpt>
      <trkpt lat="49.248509" lon="9.619310">
        <ele>299.909718</ele>
        <time>2022-07-23T07:36:22.000Z</time>
      </trkpt>
      <trkpt lat="49.248591" lon="9.619175">
        <ele>301.154095</ele>
        <time>2022-07-23T07:36:25.000Z</time>
      </trkpt>
      <trkpt lat="49.248622" lon="9.618993">
        <ele>302.423374</ele>
        <time>2022-07-23T07:36:28.000Z</time>
      </trkpt>
      <trkpt lat="49.248611" lon="9.618808">
        <ele>303.676945</ele>
        <time>2022-07-23T07:36:31.000Z</time>
      </trkpt>
      <trkpt lat="49.248553" lon="9.618636">
        <ele>304.983339</ele>
        <time>2022-07-23T07:36:34.000Z</time>
      </trkpt>
      <trkpt lat="49.248493" lon="9.618473">
        <ele>306.246111</ele>
        <time>2022-07-23T07:36:37.000Z</time>
      </trkpt>
      <trkpt lat="49.248427" lon="9.618316">
        <ele>307.561064</ele>
        <time>2022-07-23T07:36:40.000Z</time>
      </trkpt>
      <trkpt lat="49.248364" lon="9.618157">
        <ele>309.036449</ele>
        <time>2022-07-23T07:36:42.999Z</time>
      </trkpt>
      <trkpt lat="49.248297" lon="9.618001">
        <ele>310.517694</ele>
        <time>2022-07-23T07:36:45.999Z</time>
      </trkpt>
      <trkpt lat="49.248222" lon="9.617853">
        <ele>312.003900</ele>
        <time>2022-07-23T07:36:48.999Z</time>
      </trkpt>
      <trkpt lat="49.248147" lon="9.617705">
        <ele>313.490108</ele>
        <time>2022-07-23T07:36:51.999Z</time>
      </trkpt>
      <trkpt lat="49.248062" lon="9.617569">
        <ele>314.983639</ele>
        <time>2022-07-23T07:36:54.999Z</time>
      </trkpt>
      <trkpt lat="49.247976" lon="9.617436">
        <ele>316.468600</ele>
        <time>2022-07-23T07:36:57.999Z</time>
      </trkpt>
      <trkpt lat="49.247892" lon="9.617301">
        <ele>317.948004</ele>
        <time>2022-07-23T07:37:00.999Z</time>
      </trkpt>
      <trkpt lat="49.247806" lon="9.617169">
        <ele>319.427343</ele>
        <time>2022-07-23T07:37:03.999Z</time>
      </trkpt>
      <trkpt lat="49.247720" lon="9.617032">
        <ele>320.935016</ele>
        <time>2022-07-23T07:37:06.999Z</time>
      </trkpt>
      <trkpt lat="49.247636" lon="9.616891">
        <ele>322.449232</ele>
        <time>2022-07-23T07:37:09.999Z</time>
      </trkpt>
      <trkpt lat="49.247553" lon="9.616750">
        <ele>323.955284</ele>
        <time>2022-07-23T07:37:12.999Z</time>
      </trkpt>
      <trkpt lat="49.247472" lon="9.616601">
        <ele>325.493383</ele>
        <time>2022-07-23T07:37:15.999Z</time>
      </trkpt>
      <trkpt lat="49.247406" lon="9.616441">
        <ele>326.994729</ele>
        <time>2022-07-23T07:37:18.999Z</time>
      </trkpt>
      <trkpt lat="49.247338" lon="9.616287">
        <ele>328.469540</ele>
        <time>2022-07-23T07:37:21.999Z</time>
      </trkpt>
      <trkpt lat="49.247276" lon="9.616126">
        <ele>329.573310</ele>
        <time>2022-07-23T07:37:24.999Z</time>
      </trkpt>
      <trkpt lat="49.247225" lon="9.615953">
        <ele>330.446518</ele>
        <time>2022-07-23T07:37:27.999Z</time>
      </trkpt>
      <trkpt lat="49.247174" lon="9.615775">
        <ele>331.340740</ele>
        <time>2022-07-23T07:37:30.999Z</time>
      </trkpt>
      <trkpt lat="49.247124" lon="9.615596">
        <ele>332.236381</ele>
        <time>2022-07-23T07:37:33.999Z</time>
      </trkpt>
      <trkpt lat="49.247078" lon="9.615415">
        <ele>333.129880</ele>
        <time>2022-07-23T07:37:36.999Z</time>
      </trkpt>
      <trkpt lat="49.247028" lon="9.615235">
        <ele>334.029753</ele>
        <time>2022-07-23T07:37:39.999Z</time>
      </trkpt>
      <trkpt lat="49.246983" lon="9.615048">
        <ele>334.946568</ele>
        <time>2022-07-23T07:37:42.999Z</time>
      </trkpt>
      <trkpt lat="49.246931" lon="9.614867">
        <ele>335.856263</ele>
        <time>2022-07-23T07:37:45.999Z</time>
      </trkpt>
      <trkpt lat="49.246870" lon="9.614696">
        <ele>336.752677</ele>
        <time>2022-07-23T07:37:48.999Z</time>
      </trkpt>
      <trkpt lat="49.246795" lon="9.614614">
        <ele>337.401995</ele>
        <time>2022-07-23T07:37:50.999Z</time>
      </trkpt>
      <trkpt lat="49.246713" lon="9.614542">
        <ele>338.068027</ele>
        <time>2022-07-23T07:37:52.999Z</time>
      </trkpt>
      <trkpt lat="49.246761" lon="9.614324">
        <ele>339.126373</ele>
        <time>2022-07-23T07:37:54.999Z</time>
      </trkpt>
      <trkpt lat="49.246700" lon="9.614145">
        <ele>340.055252</ele>
        <time>2022-07-23T07:37:57.999Z</time>
      </trkpt>
      <trkpt lat="49.246633" lon="9.613982">
        <ele>340.941343</ele>
        <time>2022-07-23T07:38:00.999Z</time>
      </trkpt>
      <trkpt lat="49.246553" lon="9.613840">
        <ele>341.732674</ele>
        <time>2022-07-23T07:38:03.999Z</time>
      </trkpt>
      <trkpt lat="49.246462" lon="9.613699">
        <ele>341.823192</ele>
        <time>2022-07-23T07:38:06.999Z</time>
      </trkpt>
      <trkpt lat="49.246357" lon="9.613571">
        <ele>341.917035</ele>
        <time>2022-07-23T07:38:09.999Z</time>
      </trkpt>
      <trkpt lat="49.246283" lon="9.613476">
        <ele>341.984556</ele>
        <time>2022-07-23T07:38:11.999Z</time>
      </trkpt>
      <trkpt lat="49.246210" lon="9.613390">
        <ele>342.048958</ele>
        <time>2022-07-23T07:38:13.999Z</time>
      </trkpt>
      <trkpt lat="49.246115" lon="9.613270">
        <ele>342.135069</ele>
        <time>2022-07-23T07:38:16.999Z</time>
      </trkpt>
      <trkpt lat="49.246012" lon="9.613161">
        <ele>342.222617</ele>
        <time>2022-07-23T07:38:19.999Z</time>
      </trkpt>
      <trkpt lat="49.245904" lon="9.613231">
        <ele>342.304627</ele>
        <time>2022-07-23T07:38:23.000Z</time>
      </trkpt>
      <trkpt lat="49.245851" lon="9.613345">
        <ele>342.368520</ele>
        <time>2022-07-23T07:38:25.000Z</time>
      </trkpt>
      <trkpt lat="49.245801" lon="9.613473">
        <ele>342.436619</ele>
        <time>2022-07-23T07:38:27.000Z</time>
      </trkpt>
      <trkpt lat="49.245757" lon="9.613599">
        <ele>342.501855</ele>
        <time>2022-07-23T07:38:29.000Z</time>
      </trkpt>
      <trkpt lat="49.245697" lon="9.613777">
        <ele>342.593311</ele>
        <time>2022-07-23T07:38:32.000Z</time>
      </trkpt>
      <trkpt lat="49.245656" lon="9.613917">
        <ele>342.663363</ele>
        <time>2022-07-23T07:38:34.000Z</time>
      </trkpt>
      <trkpt lat="49.245615" lon="9.614074">
        <ele>342.740561</ele>
        <time>2022-07-23T07:38:36.000Z</time>
      </trkpt>
      <trkpt lat="49.245571" lon="9.614223">
        <ele>342.815220</ele>
        <time>2022-07-23T07:38:38.000Z</time>
      </trkpt>
      <trkpt lat="49.245539" lon="9.614360">
        <ele>342.881648</ele>
        <time>2022-07-23T07:38:40.000Z</time>
      </trkpt>
      <trkpt lat="49.245503" lon="9.614497">
        <ele>342.949070</ele>
        <time>2022-07-23T07:38:42.000Z</time>
      </trkpt>
      <trkpt lat="49.245456" lon="9.614661">
        <ele>342.829208</ele>
        <time>2022-07-23T07:38:44.000Z</time>
      </trkpt>
      <trkpt lat="49.245403" lon="9.614850">
        <ele>342.530297</ele>
        <time>2022-07-23T07:38:46.000Z</time>
      </trkpt>
      <trkpt lat="49.245346" lon="9.615048">
        <ele>342.215840</ele>
        <time>2022-07-23T07:38:48.000Z</time>
      </trkpt>
      <trkpt lat="49.245289" lon="9.615249">
        <ele>341.897390</ele>
        <time>2022-07-23T07:38:49.999Z</time>
      </trkpt>
      <trkpt lat="49.245233" lon="9.615451">
        <ele>341.578482</ele>
        <time>2022-07-23T07:38:51.999Z</time>
      </trkpt>
      <trkpt lat="49.245171" lon="9.615654">
        <ele>341.252805</ele>
        <time>2022-07-23T07:38:53.999Z</time>
      </trkpt>
      <trkpt lat="49.245105" lon="9.615861">
        <ele>340.918043</ele>
        <time>2022-07-23T07:38:55.999Z</time>
      </trkpt>
      <trkpt lat="49.245039" lon="9.616066">
        <ele>340.585889</ele>
        <time>2022-07-23T07:38:57.999Z</time>
      </trkpt>
      <trkpt lat="49.244973" lon="9.616276">
        <ele>340.247203</ele>
        <time>2022-07-23T07:38:59.999Z</time>
      </trkpt>
      <trkpt lat="49.244904" lon="9.616485">
        <ele>339.906865</ele>
        <time>2022-07-23T07:39:01.999Z</time>
      </trkpt>
      <trkpt lat="49.244837" lon="9.616694">
        <ele>339.568512</ele>
        <time>2022-07-23T07:39:03.999Z</time>
      </trkpt>
      <trkpt lat="49.244778" lon="9.616888">
        <ele>339.257508</ele>
        <time>2022-07-23T07:39:05.999Z</time>
      </trkpt>
      <trkpt lat="49.244714" lon="9.617092">
        <ele>338.967939</ele>
        <time>2022-07-23T07:39:07.999Z</time>
      </trkpt>
      <trkpt lat="49.244654" lon="9.617304">
        <ele>338.894530</ele>
        <time>2022-07-23T07:39:09.999Z</time>
      </trkpt>
      <trkpt lat="49.244596" lon="9.617521">
        <ele>338.820034</ele>
        <time>2022-07-23T07:39:11.999Z</time>
      </trkpt>
      <trkpt lat="49.244541" lon="9.617739">
        <ele>338.745783</ele>
        <time>2022-07-23T07:39:13.999Z</time>
      </trkpt>
      <trkpt lat="49.244490" lon="9.617959">
        <ele>338.671613</ele>
        <time>2022-07-23T07:39:15.999Z</time>
      </trkpt>
      <trkpt lat="49.244445" lon="9.618181">
        <ele>338.597761</ele>
        <time>2022-07-23T07:39:17.999Z</time>
      </trkpt>
      <trkpt lat="49.244402" lon="9.618406">
        <ele>338.523278</ele>
        <time>2022-07-23T07:39:19.999Z</time>
      </trkpt>
      <trkpt lat="49.244365" lon="9.618627">
        <ele>338.450794</ele>
        <time>2022-07-23T07:39:21.999Z</time>
      </trkpt>
      <trkpt lat="49.244332" lon="9.618851">
        <ele>338.377839</ele>
        <time>2022-07-23T07:39:23.999Z</time>
      </trkpt>
      <trkpt lat="49.244301" lon="9.619076">
        <ele>338.304781</ele>
        <time>2022-07-23T07:39:25.999Z</time>
      </trkpt>
      <trkpt lat="49.244277" lon="9.619295">
        <ele>338.234230</ele>
        <time>2022-07-23T07:39:27.999Z</time>
      </trkpt>
      <trkpt lat="49.244257" lon="9.619497">
        <ele>338.169320</ele>
        <time>2022-07-23T07:39:29.999Z</time>
      </trkpt>
      <trkpt lat="49.244243" lon="9.619693">
        <ele>338.106679</ele>
        <time>2022-07-23T07:39:31.999Z</time>
      </trkpt>
      <trkpt lat="49.244231" lon="9.619889">
        <ele>338.297237</ele>
        <time>2022-07-23T07:39:33.999Z</time>
      </trkpt>
      <trkpt lat="49.244220" lon="9.620085">
        <ele>338.500619</ele>
        <time>2022-07-23T07:39:35.999Z</time>
      </trkpt>
      <trkpt lat="49.244216" lon="9.620286">
        <ele>338.708520</ele>
        <time>2022-07-23T07:39:37.999Z</time>
      </trkpt>
      <trkpt lat="49.244212" lon="9.620487">
        <ele>338.916421</ele>
        <time>2022-07-23T07:39:39.999Z</time>
      </trkpt>
      <trkpt lat="49.244209" lon="9.620691">
        <ele>339.127380</ele>
        <time>2022-07-23T07:39:41.999Z</time>
      </trkpt>
      <trkpt lat="49.244208" lon="9.620894">
        <ele>339.337258</ele>
        <time>2022-07-23T07:39:43.999Z</time>
      </trkpt>
      <trkpt lat="49.244209" lon="9.621099">
        <ele>339.549204</ele>
        <time>2022-07-23T07:39:45.999Z</time>
      </trkpt>
      <trkpt lat="49.244210" lon="9.621301">
        <ele>339.758048</ele>
        <time>2022-07-23T07:39:47.999Z</time>
      </trkpt>
      <trkpt lat="49.244210" lon="9.621504">
        <ele>339.967920</ele>
        <time>2022-07-23T07:39:49.999Z</time>
      </trkpt>
      <trkpt lat="49.244209" lon="9.621710">
        <ele>340.180899</ele>
        <time>2022-07-23T07:39:51.999Z</time>
      </trkpt>
      <trkpt lat="49.244206" lon="9.621898">
        <ele>340.375322</ele>
        <time>2022-07-23T07:39:53.999Z</time>
      </trkpt>
      <trkpt lat="49.244207" lon="9.622080">
        <ele>340.563490</ele>
        <time>2022-07-23T07:39:55.999Z</time>
      </trkpt>
      <trkpt lat="49.244206" lon="9.622263">
        <ele>340.752691</ele>
        <time>2022-07-23T07:39:57.999Z</time>
      </trkpt>
      <trkpt lat="49.244213" lon="9.622421">
        <ele>340.916416</ele>
        <time>2022-07-23T07:39:59.999Z</time>
      </trkpt>
      <trkpt lat="49.244180" lon="9.622597">
        <ele>340.916123</ele>
        <time>2022-07-23T07:40:02.999Z</time>
      </trkpt>
      <trkpt lat="49.244092" lon="9.622627">
        <ele>340.882781</ele>
        <time>2022-07-23T07:40:05.999Z</time>
      </trkpt>
      <trkpt lat="49.243996" lon="9.622610">
        <ele>340.847040</ele>
        <time>2022-07-23T07:40:07.999Z</time>
      </trkpt>
      <trkpt lat="49.243891" lon="9.622610">
        <ele>340.808207</ele>
        <time>2022-07-23T07:40:09.999Z</time>
      </trkpt>
      <trkpt lat="49.243789" lon="9.622609">
        <ele>340.770483</ele>
        <time>2022-07-23T07:40:11.999Z</time>
      </trkpt>
      <trkpt lat="49.243696" lon="9.622611">
        <ele>340.736085</ele>
        <time>2022-07-23T07:40:13.999Z</time>
      </trkpt>
      <trkpt lat="49.243571" lon="9.622614">
        <ele>340.689850</ele>
        <time>2022-07-23T07:40:16.999Z</time>
      </trkpt>
      <trkpt lat="49.243452" lon="9.622607">
        <ele>340.645807</ele>
        <time>2022-07-23T07:40:19.999Z</time>
      </trkpt>
      <trkpt lat="49.243358" lon="9.622611">
        <ele>340.611029</ele>
        <time>2022-07-23T07:40:21.999Z</time>
      </trkpt>
      <trkpt lat="49.243258" lon="9.622610">
        <ele>340.574045</ele>
        <time>2022-07-23T07:40:23.999Z</time>
      </trkpt>
      <trkpt lat="49.243162" lon="9.622602">
        <ele>340.538488</ele>
        <time>2022-07-23T07:40:25.999Z</time>
      </trkpt>
      <trkpt lat="49.243058" lon="9.622585">
        <ele>340.499807</ele>
        <time>2022-07-23T07:40:28.000Z</time>
      </trkpt>
      <trkpt lat="49.242956" lon="9.622533">
        <ele>340.460049</ele>
        <time>2022-07-23T07:40:30.000Z</time>
      </trkpt>
      <trkpt lat="49.242861" lon="9.622450">
        <ele>340.419601</ele>
        <time>2022-07-23T07:40:32.000Z</time>
      </trkpt>
      <trkpt lat="49.242762" lon="9.622374">
        <ele>340.378646</ele>
        <time>2022-07-23T07:40:34.000Z</time>
      </trkpt>
      <trkpt lat="49.242662" lon="9.622297">
        <ele>340.337252</ele>
        <time>2022-07-23T07:40:36.000Z</time>
      </trkpt>
      <trkpt lat="49.242564" lon="9.622224">
        <ele>340.296950</ele>
        <time>2022-07-23T07:40:38.000Z</time>
      </trkpt>
      <trkpt lat="49.242477" lon="9.622156">
        <ele>340.440352</ele>
        <time>2022-07-23T07:40:40.000Z</time>
      </trkpt>
      <trkpt lat="49.242388" lon="9.622086">
        <ele>340.658941</ele>
        <time>2022-07-23T07:40:42.000Z</time>
      </trkpt>
      <trkpt lat="49.242293" lon="9.622017">
        <ele>340.888654</ele>
        <time>2022-07-23T07:40:44.000Z</time>
      </trkpt>
      <trkpt lat="49.242195" lon="9.621941">
        <ele>341.128648</ele>
        <time>2022-07-23T07:40:46.000Z</time>
      </trkpt>
      <trkpt lat="49.242095" lon="9.621868">
        <ele>341.370677</ele>
        <time>2022-07-23T07:40:48.000Z</time>
      </trkpt>
      <trkpt lat="49.241994" lon="9.621793">
        <ele>341.615911</ele>
        <time>2022-07-23T07:40:50.000Z</time>
      </trkpt>
      <trkpt lat="49.241892" lon="9.621716">
        <ele>341.864361</ele>
        <time>2022-07-23T07:40:52.000Z</time>
      </trkpt>
      <trkpt lat="49.241793" lon="9.621640">
        <ele>342.106307</ele>
        <time>2022-07-23T07:40:54.000Z</time>
      </trkpt>
      <trkpt lat="49.241695" lon="9.621563">
        <ele>342.346950</ele>
        <time>2022-07-23T07:40:56.000Z</time>
      </trkpt>
      <trkpt lat="49.241596" lon="9.621486">
        <ele>342.589538</ele>
        <time>2022-07-23T07:40:58.000Z</time>
      </trkpt>
      <trkpt lat="49.241494" lon="9.621412">
        <ele>342.836127</ele>
        <time>2022-07-23T07:40:59.999Z</time>
      </trkpt>
      <trkpt lat="49.241387" lon="9.621333">
        <ele>343.095647</ele>
        <time>2022-07-23T07:41:01.999Z</time>
      </trkpt>
      <trkpt lat="49.241277" lon="9.621250">
        <ele>343.363560</ele>
        <time>2022-07-23T07:41:03.999Z</time>
      </trkpt>
      <trkpt lat="49.241167" lon="9.621168">
        <ele>343.630845</ele>
        <time>2022-07-23T07:41:05.999Z</time>
      </trkpt>
      <trkpt lat="49.241056" lon="9.621084">
        <ele>343.901348</ele>
        <time>2022-07-23T07:41:07.999Z</time>
      </trkpt>
      <trkpt lat="49.240944" lon="9.620996">
        <ele>344.176369</ele>
        <time>2022-07-23T07:41:09.999Z</time>
      </trkpt>
      <trkpt lat="49.240833" lon="9.620909">
        <ele>344.071777</ele>
        <time>2022-07-23T07:41:11.999Z</time>
      </trkpt>
      <trkpt lat="49.240722" lon="9.620830">
        <ele>343.905029</ele>
        <time>2022-07-23T07:41:13.999Z</time>
      </trkpt>
      <trkpt lat="49.240612" lon="9.620745">
        <ele>343.737181</ele>
        <time>2022-07-23T07:41:15.999Z</time>
      </trkpt>
      <trkpt lat="49.240504" lon="9.620658">
        <ele>343.570940</ele>
        <time>2022-07-23T07:41:17.999Z</time>
      </trkpt>
      <trkpt lat="49.240395" lon="9.620578">
        <ele>343.406277</ele>
        <time>2022-07-23T07:41:19.999Z</time>
      </trkpt>
      <trkpt lat="49.240286" lon="9.620500">
        <ele>343.242374</ele>
        <time>2022-07-23T07:41:21.999Z</time>
      </trkpt>
      <trkpt lat="49.240189" lon="9.620424">
        <ele>343.093941</ele>
        <time>2022-07-23T07:41:23.999Z</time>
      </trkpt>
      <trkpt lat="49.240103" lon="9.620341">
        <ele>342.955461</ele>
        <time>2022-07-23T07:41:25.999Z</time>
      </trkpt>
      <trkpt lat="49.240026" lon="9.620231">
        <ele>342.812014</ele>
        <time>2022-07-23T07:41:27.999Z</time>
      </trkpt>
      <trkpt lat="49.239946" lon="9.620109">
        <ele>342.658217</ele>
        <time>2022-07-23T07:41:29.999Z</time>
      </trkpt>
      <trkpt lat="49.239866" lon="9.619983">
        <ele>342.501889</ele>
        <time>2022-07-23T07:41:31.999Z</time>
      </trkpt>
      <trkpt lat="49.239784" lon="9.619856">
        <ele>342.343019</ele>
        <time>2022-07-23T07:41:33.999Z</time>
      </trkpt>
      <trkpt lat="49.239696" lon="9.619728">
        <ele>342.177686</ele>
        <time>2022-07-23T07:41:35.999Z</time>
      </trkpt>
      <trkpt lat="49.239610" lon="9.619600">
        <ele>342.014319</ele>
        <time>2022-07-23T07:41:37.999Z</time>
      </trkpt>
      <trkpt lat="49.239523" lon="9.619473">
        <ele>341.850586</ele>
        <time>2022-07-23T07:41:39.999Z</time>
      </trkpt>
      <trkpt lat="49.239438" lon="9.619343">
        <ele>341.537175</ele>
        <time>2022-07-23T07:41:41.999Z</time>
      </trkpt>
      <trkpt lat="49.239350" lon="9.619217">
        <ele>341.063011</ele>
        <time>2022-07-23T07:41:43.999Z</time>
      </trkpt>
      <trkpt lat="49.239264" lon="9.619090">
        <ele>340.592785</ele>
        <time>2022-07-23T07:41:45.999Z</time>
      </trkpt>
      <trkpt lat="49.239180" lon="9.618962">
        <ele>340.126386</ele>
        <time>2022-07-23T07:41:47.999Z</time>
      </trkpt>
      <trkpt lat="49.239094" lon="9.618833">
        <ele>339.652577</ele>
        <time>2022-07-23T07:41:49.999Z</time>
      </trkpt>
      <trkpt lat="49.239010" lon="9.618706">
        <ele>339.187986</ele>
        <time>2022-07-23T07:41:51.999Z</time>
      </trkpt>
      <trkpt lat="49.238925" lon="9.618577">
        <ele>338.716981</ele>
        <time>2022-07-23T07:41:53.999Z</time>
      </trkpt>
      <trkpt lat="49.238839" lon="9.618446">
        <ele>338.239561</ele>
        <time>2022-07-23T07:41:55.999Z</time>
      </trkpt>
      <trkpt lat="49.238751" lon="9.618318">
        <ele>337.761869</ele>
        <time>2022-07-23T07:41:57.999Z</time>
      </trkpt>
      <trkpt lat="49.238662" lon="9.618193">
        <ele>337.286559</ele>
        <time>2022-07-23T07:41:59.999Z</time>
      </trkpt>
      <trkpt lat="49.238577" lon="9.618060">
        <ele>336.808261</ele>
        <time>2022-07-23T07:42:01.999Z</time>
      </trkpt>
      <trkpt lat="49.238489" lon="9.617927">
        <ele>336.321630</ele>
        <time>2022-07-23T07:42:03.999Z</time>
      </trkpt>
      <trkpt lat="49.238402" lon="9.617796">
        <ele>335.841409</ele>
        <time>2022-07-23T07:42:05.999Z</time>
      </trkpt>
      <trkpt lat="49.238314" lon="9.617665">
        <ele>335.358373</ele>
        <time>2022-07-23T07:42:07.999Z</time>
      </trkpt>
      <trkpt lat="49.238227" lon="9.617534">
        <ele>334.878151</ele>
        <time>2022-07-23T07:42:09.999Z</time>
      </trkpt>
      <trkpt lat="49.238139" lon="9.617406">
        <ele>334.228681</ele>
        <time>2022-07-23T07:42:11.999Z</time>
      </trkpt>
      <trkpt lat="49.238057" lon="9.617283">
        <ele>333.505588</ele>
        <time>2022-07-23T07:42:13.999Z</time>
      </trkpt>
      <trkpt lat="49.237975" lon="9.617166">
        <ele>332.799543</ele>
        <time>2022-07-23T07:42:15.999Z</time>
      </trkpt>
      <trkpt lat="49.237898" lon="9.617049">
        <ele>332.116208</ele>
        <time>2022-07-23T07:42:17.999Z</time>
      </trkpt>
      <trkpt lat="49.237825" lon="9.616933">
        <ele>331.453494</ele>
        <time>2022-07-23T07:42:19.999Z</time>
      </trkpt>
      <trkpt lat="49.237751" lon="9.616826">
        <ele>330.812349</ele>
        <time>2022-07-23T07:42:21.999Z</time>
      </trkpt>
      <trkpt lat="49.237678" lon="9.616719">
        <ele>330.175771</ele>
        <time>2022-07-23T07:42:23.999Z</time>
      </trkpt>
      <trkpt lat="49.237609" lon="9.616613">
        <ele>329.560072</ele>
        <time>2022-07-23T07:42:25.999Z</time>
      </trkpt>
      <trkpt lat="49.237539" lon="9.616508">
        <ele>328.942794</ele>
        <time>2022-07-23T07:42:27.999Z</time>
      </trkpt>
      <trkpt lat="49.237466" lon="9.616403">
        <ele>328.311875</ele>
        <time>2022-07-23T07:42:29.999Z</time>
      </trkpt>
      <trkpt lat="49.237394" lon="9.616291">
        <ele>327.665340</ele>
        <time>2022-07-23T07:42:31.999Z</time>
      </trkpt>
      <trkpt lat="49.237321" lon="9.616185">
        <ele>327.031596</ele>
        <time>2022-07-23T07:42:34.000Z</time>
      </trkpt>
      <trkpt lat="49.237243" lon="9.616086">
        <ele>326.393382</ele>
        <time>2022-07-23T07:42:36.000Z</time>
      </trkpt>
      <trkpt lat="49.237162" lon="9.616001">
        <ele>325.774785</ele>
        <time>2022-07-23T07:42:38.000Z</time>
      </trkpt>
      <trkpt lat="49.237077" lon="9.615933">
        <ele>325.170628</ele>
        <time>2022-07-23T07:42:40.000Z</time>
      </trkpt>
      <trkpt lat="49.236992" lon="9.615858">
        <ele>324.552612</ele>
        <time>2022-07-23T07:42:42.000Z</time>
      </trkpt>
      <trkpt lat="49.236905" lon="9.615784">
        <ele>323.925653</ele>
        <time>2022-07-23T07:42:44.000Z</time>
      </trkpt>
      <trkpt lat="49.236820" lon="9.615699">
        <ele>323.291612</ele>
        <time>2022-07-23T07:42:46.000Z</time>
      </trkpt>
      <trkpt lat="49.236730" lon="9.615617">
        <ele>322.684613</ele>
        <time>2022-07-23T07:42:48.000Z</time>
      </trkpt>
      <trkpt lat="49.236641" lon="9.615539">
        <ele>322.090249</ele>
        <time>2022-07-23T07:42:50.000Z</time>
      </trkpt>
      <trkpt lat="49.236551" lon="9.615459">
        <ele>321.487084</ele>
        <time>2022-07-23T07:42:52.000Z</time>
      </trkpt>
      <trkpt lat="49.236463" lon="9.615374">
        <ele>320.884037</ele>
        <time>2022-07-23T07:42:54.000Z</time>
      </trkpt>
      <trkpt lat="49.236374" lon="9.615292">
        <ele>320.282011</ele>
        <time>2022-07-23T07:42:56.000Z</time>
      </trkpt>
      <trkpt lat="49.236292" lon="9.615215">
        <ele>319.724487</ele>
        <time>2022-07-23T07:42:58.000Z</time>
      </trkpt>
      <trkpt lat="49.236214" lon="9.615141">
        <ele>319.192657</ele>
        <time>2022-07-23T07:43:00.000Z</time>
      </trkpt>
      <trkpt lat="49.236129" lon="9.615065">
        <ele>318.622153</ele>
        <time>2022-07-23T07:43:01.999Z</time>
      </trkpt>
      <trkpt lat="49.236038" lon="9.614990">
        <ele>318.023162</ele>
        <time>2022-07-23T07:43:03.999Z</time>
      </trkpt>
      <trkpt lat="49.235941" lon="9.614907">
        <ele>317.379117</ele>
        <time>2022-07-23T07:43:05.999Z</time>
      </trkpt>
      <trkpt lat="49.235842" lon="9.614815">
        <ele>316.707906</ele>
        <time>2022-07-23T07:43:07.999Z</time>
      </trkpt>
      <trkpt lat="49.235746" lon="9.614731">
        <ele>316.067045</ele>
        <time>2022-07-23T07:43:09.999Z</time>
      </trkpt>
      <trkpt lat="49.235661" lon="9.614661">
        <ele>315.507645</ele>
        <time>2022-07-23T07:43:11.999Z</time>
      </trkpt>
      <trkpt lat="49.235596" lon="9.614546">
        <ele>314.931986</ele>
        <time>2022-07-23T07:43:15.999Z</time>
      </trkpt>
      <trkpt lat="49.235605" lon="9.614384">
        <ele>314.316648</ele>
        <time>2022-07-23T07:43:18.999Z</time>
      </trkpt>
      <trkpt lat="49.235632" lon="9.614175">
        <ele>313.510311</ele>
        <time>2022-07-23T07:43:21.999Z</time>
      </trkpt>
      <trkpt lat="49.235645" lon="9.614010">
        <ele>312.923237</ele>
        <time>2022-07-23T07:43:23.999Z</time>
      </trkpt>
      <trkpt lat="49.235665" lon="9.613847">
        <ele>312.842403</ele>
        <time>2022-07-23T07:43:25.999Z</time>
      </trkpt>
      <trkpt lat="49.235679" lon="9.613680">
        <ele>312.760341</ele>
        <time>2022-07-23T07:43:27.999Z</time>
      </trkpt>
      <trkpt lat="49.235695" lon="9.613506">
        <ele>312.674699</ele>
        <time>2022-07-23T07:43:29.999Z</time>
      </trkpt>
      <trkpt lat="49.235712" lon="9.613352">
        <ele>312.598576</ele>
        <time>2022-07-23T07:43:31.999Z</time>
      </trkpt>
      <trkpt lat="49.235732" lon="9.613202">
        <ele>312.523960</ele>
        <time>2022-07-23T07:43:33.999Z</time>
      </trkpt>
      <trkpt lat="49.235753" lon="9.613049">
        <ele>312.447760</ele>
        <time>2022-07-23T07:43:35.999Z</time>
      </trkpt>
      <trkpt lat="49.235726" lon="9.612871">
        <ele>312.358696</ele>
        <time>2022-07-23T07:43:38.999Z</time>
      </trkpt>
      <trkpt lat="49.235623" lon="9.612866">
        <ele>312.281774</ele>
        <time>2022-07-23T07:43:45.999Z</time>
      </trkpt>
      <trkpt lat="49.235508" lon="9.612855">
        <ele>312.195766</ele>
        <time>2022-07-23T07:43:48.999Z</time>
      </trkpt>
      <trkpt lat="49.235395" lon="9.612835">
        <ele>312.110857</ele>
        <time>2022-07-23T07:43:50.999Z</time>
      </trkpt>
      <trkpt lat="49.235264" lon="9.612810">
        <ele>312.012318</ele>
        <time>2022-07-23T07:43:52.999Z</time>
      </trkpt>
      <trkpt lat="49.235133" lon="9.612785">
        <ele>311.913778</ele>
        <time>2022-07-23T07:43:54.999Z</time>
      </trkpt>
      <trkpt lat="49.235010" lon="9.612761">
        <ele>311.821224</ele>
        <time>2022-07-23T07:43:56.999Z</time>
      </trkpt>
      <trkpt lat="49.234889" lon="9.612742">
        <ele>311.730432</ele>
        <time>2022-07-23T07:43:58.999Z</time>
      </trkpt>
      <trkpt lat="49.234769" lon="9.612722">
        <ele>311.640330</ele>
        <time>2022-07-23T07:44:00.999Z</time>
      </trkpt>
      <trkpt lat="49.234649" lon="9.612697">
        <ele>311.997224</ele>
        <time>2022-07-23T07:44:02.999Z</time>
      </trkpt>
      <trkpt lat="49.234528" lon="9.612669">
        <ele>313.012319</ele>
        <time>2022-07-23T07:44:04.999Z</time>
      </trkpt>
      <trkpt lat="49.234406" lon="9.612644">
        <ele>314.033335</ele>
        <time>2022-07-23T07:44:06.999Z</time>
      </trkpt>
      <trkpt lat="49.234286" lon="9.612620">
        <ele>315.037194</ele>
        <time>2022-07-23T07:44:08.999Z</time>
      </trkpt>
      <trkpt lat="49.234165" lon="9.612599">
        <ele>316.047320</ele>
        <time>2022-07-23T07:44:10.999Z</time>
      </trkpt>
      <trkpt lat="49.234046" lon="9.612576">
        <ele>317.042261</ele>
        <time>2022-07-23T07:44:12.999Z</time>
      </trkpt>
      <trkpt lat="49.233932" lon="9.612556">
        <ele>317.994082</ele>
        <time>2022-07-23T07:44:14.999Z</time>
      </trkpt>
      <trkpt lat="49.233826" lon="9.612532">
        <ele>318.882916</ele>
        <time>2022-07-23T07:44:16.999Z</time>
      </trkpt>
      <trkpt lat="49.233731" lon="9.612512">
        <ele>319.678357</ele>
        <time>2022-07-23T07:44:18.999Z</time>
      </trkpt>
      <trkpt lat="49.233604" lon="9.612489">
        <ele>320.739169</ele>
        <time>2022-07-23T07:44:21.999Z</time>
      </trkpt>
      <trkpt lat="49.233494" lon="9.612469">
        <ele>321.658034</ele>
        <time>2022-07-23T07:44:24.999Z</time>
      </trkpt>
      <trkpt lat="49.233391" lon="9.612441">
        <ele>322.525781</ele>
        <time>2022-07-23T07:44:28.999Z</time>
      </trkpt>
      <trkpt lat="49.233291" lon="9.612400">
        <ele>323.384499</ele>
        <time>2022-07-23T07:44:31.999Z</time>
      </trkpt>
      <trkpt lat="49.233182" lon="9.612315">
        <ele>324.399131</ele>
        <time>2022-07-23T07:44:34.999Z</time>
      </trkpt>
      <trkpt lat="49.233079" lon="9.612200">
        <ele>325.456481</ele>
        <time>2022-07-23T07:44:37.999Z</time>
      </trkpt>
      <trkpt lat="49.232976" lon="9.612082">
        <ele>326.520768</ele>
        <time>2022-07-23T07:44:41.000Z</time>
      </trkpt>
      <trkpt lat="49.232871" lon="9.611964">
        <ele>327.426174</ele>
        <time>2022-07-23T07:44:44.000Z</time>
      </trkpt>
      <trkpt lat="49.232763" lon="9.611848">
        <ele>328.343235</ele>
        <time>2022-07-23T07:44:47.000Z</time>
      </trkpt>
      <trkpt lat="49.232655" lon="9.611739">
        <ele>329.242426</ele>
        <time>2022-07-23T07:44:50.000Z</time>
      </trkpt>
      <trkpt lat="49.232540" lon="9.611654">
        <ele>330.130141</ele>
        <time>2022-07-23T07:44:53.000Z</time>
      </trkpt>
      <trkpt lat="49.232417" lon="9.611600">
        <ele>331.019670</ele>
        <time>2022-07-23T07:44:56.000Z</time>
      </trkpt>
      <trkpt lat="49.232293" lon="9.611562">
        <ele>331.898798</ele>
        <time>2022-07-23T07:44:59.000Z</time>
      </trkpt>
      <trkpt lat="49.232155" lon="9.611526">
        <ele>332.871981</ele>
        <time>2022-07-23T07:45:02.000Z</time>
      </trkpt>
      <trkpt lat="49.232028" lon="9.611503">
        <ele>333.761026</ele>
        <time>2022-07-23T07:45:05.000Z</time>
      </trkpt>
      <trkpt lat="49.231905" lon="9.611483">
        <ele>334.620917</ele>
        <time>2022-07-23T07:45:08.000Z</time>
      </trkpt>
      <trkpt lat="49.231795" lon="9.611478">
        <ele>335.385964</ele>
        <time>2022-07-23T07:45:10.999Z</time>
      </trkpt>
      <trkpt lat="49.231696" lon="9.611457">
        <ele>336.080774</ele>
        <time>2022-07-23T07:45:12.999Z</time>
      </trkpt>
      <trkpt lat="49.231592" lon="9.611441">
        <ele>336.807412</ele>
        <time>2022-07-23T07:45:14.999Z</time>
      </trkpt>
      <trkpt lat="49.231488" lon="9.611419">
        <ele>337.537276</ele>
        <time>2022-07-23T07:45:16.999Z</time>
      </trkpt>
      <trkpt lat="49.231383" lon="9.611388">
        <ele>338.280669</ele>
        <time>2022-07-23T07:45:18.999Z</time>
      </trkpt>
      <trkpt lat="49.231274" lon="9.611370">
        <ele>339.030158</ele>
        <time>2022-07-23T07:45:20.999Z</time>
      </trkpt>
      <trkpt lat="49.231165" lon="9.611348">
        <ele>339.493085</ele>
        <time>2022-07-23T07:45:22.999Z</time>
      </trkpt>
      <trkpt lat="49.231065" lon="9.611331">
        <ele>339.916734</ele>
        <time>2022-07-23T07:45:24.999Z</time>
      </trkpt>
      <trkpt lat="49.230958" lon="9.611313">
        <ele>340.369981</ele>
        <time>2022-07-23T07:45:26.999Z</time>
      </trkpt>
      <trkpt lat="49.230851" lon="9.611287">
        <ele>340.826154</ele>
        <time>2022-07-23T07:45:28.999Z</time>
      </trkpt>
      <trkpt lat="49.230748" lon="9.611270">
        <ele>341.262360</ele>
        <time>2022-07-23T07:45:30.999Z</time>
      </trkpt>
      <trkpt lat="49.230642" lon="9.611250">
        <ele>341.712061</ele>
        <time>2022-07-23T07:45:32.999Z</time>
      </trkpt>
      <trkpt lat="49.230539" lon="9.611232">
        <ele>342.148570</ele>
        <time>2022-07-23T07:45:34.999Z</time>
      </trkpt>
      <trkpt lat="49.230429" lon="9.611208">
        <ele>342.616415</ele>
        <time>2022-07-23T07:45:36.999Z</time>
      </trkpt>
      <trkpt lat="49.230315" lon="9.611184">
        <ele>343.100941</ele>
        <time>2022-07-23T07:45:38.999Z</time>
      </trkpt>
      <trkpt lat="49.230201" lon="9.611156">
        <ele>343.587087</ele>
        <time>2022-07-23T07:45:40.999Z</time>
      </trkpt>
      <trkpt lat="49.230088" lon="9.611140">
        <ele>344.064917</ele>
        <time>2022-07-23T07:45:42.999Z</time>
      </trkpt>
      <trkpt lat="49.229975" lon="9.611114">
        <ele>344.546058</ele>
        <time>2022-07-23T07:45:44.999Z</time>
      </trkpt>
      <trkpt lat="49.229863" lon="9.611092">
        <ele>345.021512</ele>
        <time>2022-07-23T07:45:46.999Z</time>
      </trkpt>
      <trkpt lat="49.229749" lon="9.611069">
        <ele>345.505671</ele>
        <time>2022-07-23T07:45:48.999Z</time>
      </trkpt>
      <trkpt lat="49.229631" lon="9.611044">
        <ele>346.007257</ele>
        <time>2022-07-23T07:45:50.999Z</time>
      </trkpt>
      <trkpt lat="49.229506" lon="9.611021">
        <ele>346.537370</ele>
        <time>2022-07-23T07:45:52.999Z</time>
      </trkpt>
      <trkpt lat="49.229379" lon="9.610994">
        <ele>346.695053</ele>
        <time>2022-07-23T07:45:54.999Z</time>
      </trkpt>
      <trkpt lat="49.229250" lon="9.610965">
        <ele>346.818556</ele>
        <time>2022-07-23T07:45:56.999Z</time>
      </trkpt>
      <trkpt lat="49.229131" lon="9.610939">
        <ele>346.932418</ele>
        <time>2022-07-23T07:45:58.999Z</time>
      </trkpt>
      <trkpt lat="49.229012" lon="9.610914">
        <ele>347.046195</ele>
        <time>2022-07-23T07:46:00.999Z</time>
      </trkpt>
      <trkpt lat="49.228892" lon="9.610893">
        <ele>347.160602</ele>
        <time>2022-07-23T07:46:02.999Z</time>
      </trkpt>
      <trkpt lat="49.228783" lon="9.610904">
        <ele>347.264075</ele>
        <time>2022-07-23T07:46:04.999Z</time>
      </trkpt>
      <trkpt lat="49.228686" lon="9.610934">
        <ele>347.357812</ele>
        <time>2022-07-23T07:46:06.999Z</time>
      </trkpt>
      <trkpt lat="49.228568" lon="9.610972">
        <ele>347.472030</ele>
        <time>2022-07-23T07:46:09.999Z</time>
      </trkpt>
      <trkpt lat="49.228446" lon="9.610969">
        <ele>347.587608</ele>
        <time>2022-07-23T07:46:12.999Z</time>
      </trkpt>
      <trkpt lat="49.228357" lon="9.610941">
        <ele>347.673672</ele>
        <time>2022-07-23T07:46:14.999Z</time>
      </trkpt>
      <trkpt lat="49.228228" lon="9.610880">
        <ele>347.801559</ele>
        <time>2022-07-23T07:46:17.999Z</time>
      </trkpt>
      <trkpt lat="49.228128" lon="9.610835">
        <ele>347.900288</ele>
        <time>2022-07-23T07:46:19.999Z</time>
      </trkpt>
      <trkpt lat="49.228021" lon="9.610787">
        <ele>348.005901</ele>
        <time>2022-07-23T07:46:21.999Z</time>
      </trkpt>
      <trkpt lat="49.227920" lon="9.610747">
        <ele>348.104720</ele>
        <time>2022-07-23T07:46:23.999Z</time>
      </trkpt>
      <trkpt lat="49.227826" lon="9.610701">
        <ele>348.198196</ele>
        <time>2022-07-23T07:46:26.999Z</time>
      </trkpt>
      <trkpt lat="49.227706" lon="9.610652">
        <ele>348.276853</ele>
        <time>2022-07-23T07:46:39.999Z</time>
      </trkpt>
      <trkpt lat="49.227619" lon="9.610613">
        <ele>348.243107</ele>
        <time>2022-07-23T07:46:41.999Z</time>
      </trkpt>
      <trkpt lat="49.227526" lon="9.610578">
        <ele>348.207456</ele>
        <time>2022-07-23T07:46:43.999Z</time>
      </trkpt>
      <trkpt lat="49.227437" lon="9.610540">
        <ele>348.173061</ele>
        <time>2022-07-23T07:46:46.000Z</time>
      </trkpt>
      <trkpt lat="49.227326" lon="9.610620">
        <ele>348.127391</ele>
        <time>2022-07-23T07:46:49.000Z</time>
      </trkpt>
      <trkpt lat="49.227292" lon="9.610754">
        <ele>348.092442</ele>
        <time>2022-07-23T07:46:51.000Z</time>
      </trkpt>
      <trkpt lat="49.227258" lon="9.610903">
        <ele>348.054071</ele>
        <time>2022-07-23T07:46:53.000Z</time>
      </trkpt>
      <trkpt lat="49.227226" lon="9.611055">
        <ele>348.015246</ele>
        <time>2022-07-23T07:46:55.000Z</time>
      </trkpt>
      <trkpt lat="49.227195" lon="9.611214">
        <ele>347.974905</ele>
        <time>2022-07-23T07:46:57.000Z</time>
      </trkpt>
      <trkpt lat="49.227161" lon="9.611363">
        <ele>347.936534</ele>
        <time>2022-07-23T07:46:59.000Z</time>
      </trkpt>
      <trkpt lat="49.227131" lon="9.611522">
        <ele>347.896299</ele>
        <time>2022-07-23T07:47:01.000Z</time>
      </trkpt>
      <trkpt lat="49.227103" lon="9.611676">
        <ele>347.857436</ele>
        <time>2022-07-23T07:47:03.000Z</time>
      </trkpt>
      <trkpt lat="49.227068" lon="9.611865">
        <ele>347.809676</ele>
        <time>2022-07-23T07:47:06.000Z</time>
      </trkpt>
      <trkpt lat="49.227040" lon="9.611996">
        <ele>347.776166</ele>
        <time>2022-07-23T07:47:08.000Z</time>
      </trkpt>
      <trkpt lat="49.227008" lon="9.612153">
        <ele>347.736182</ele>
        <time>2022-07-23T07:47:10.000Z</time>
      </trkpt>
      <trkpt lat="49.226974" lon="9.612332">
        <ele>347.690862</ele>
        <time>2022-07-23T07:47:12.000Z</time>
      </trkpt>
      <trkpt lat="49.226935" lon="9.612520">
        <ele>347.642906</ele>
        <time>2022-07-23T07:47:13.999Z</time>
      </trkpt>
      <trkpt lat="49.226883" lon="9.612718">
        <ele>347.637117</ele>
        <time>2022-07-23T07:47:15.999Z</time>
      </trkpt>
      <trkpt lat="49.226815" lon="9.612909">
        <ele>347.673658</ele>
        <time>2022-07-23T07:47:17.999Z</time>
      </trkpt>
      <trkpt lat="49.226740" lon="9.613097">
        <ele>347.710664</ele>
        <time>2022-07-23T07:47:19.999Z</time>
      </trkpt>
      <trkpt lat="49.226670" lon="9.613285">
        <ele>347.747016</ele>
        <time>2022-07-23T07:47:21.999Z</time>
      </trkpt>
      <trkpt lat="49.226595" lon="9.613474">
        <ele>347.784165</ele>
        <time>2022-07-23T07:47:23.999Z</time>
      </trkpt>
      <trkpt lat="49.226519" lon="9.613666">
        <ele>347.821878</ele>
        <time>2022-07-23T07:47:25.999Z</time>
      </trkpt>
      <trkpt lat="49.226446" lon="9.613860">
        <ele>347.859488</ele>
        <time>2022-07-23T07:47:27.999Z</time>
      </trkpt>
      <trkpt lat="49.226378" lon="9.614059">
        <ele>347.897215</ele>
        <time>2022-07-23T07:47:29.999Z</time>
      </trkpt>
      <trkpt lat="49.226317" lon="9.614265">
        <ele>347.935210</ele>
        <time>2022-07-23T07:47:31.999Z</time>
      </trkpt>
      <trkpt lat="49.226264" lon="9.614479">
        <ele>347.973655</ele>
        <time>2022-07-23T07:47:33.999Z</time>
      </trkpt>
      <trkpt lat="49.226211" lon="9.614688">
        <ele>348.011316</ele>
        <time>2022-07-23T07:47:35.999Z</time>
      </trkpt>
      <trkpt lat="49.226164" lon="9.614893">
        <ele>348.047812</ele>
        <time>2022-07-23T07:47:37.999Z</time>
      </trkpt>
      <trkpt lat="49.226113" lon="9.615092">
        <ele>348.072832</ele>
        <time>2022-07-23T07:47:39.999Z</time>
      </trkpt>
      <trkpt lat="49.226063" lon="9.615291">
        <ele>347.969664</ele>
        <time>2022-07-23T07:47:41.999Z</time>
      </trkpt>
      <trkpt lat="49.226007" lon="9.615482">
        <ele>347.868360</ele>
        <time>2022-07-23T07:47:43.999Z</time>
      </trkpt>
      <trkpt lat="49.225950" lon="9.615675">
        <ele>347.765870</ele>
        <time>2022-07-23T07:47:45.999Z</time>
      </trkpt>
      <trkpt lat="49.225885" lon="9.615865">
        <ele>347.662087</ele>
        <time>2022-07-23T07:47:47.999Z</time>
      </trkpt>
      <trkpt lat="49.225818" lon="9.616049">
        <ele>347.560153</ele>
        <time>2022-07-23T07:47:49.999Z</time>
      </trkpt>
      <trkpt lat="49.225748" lon="9.616235">
        <ele>347.456280</ele>
        <time>2022-07-23T07:47:51.999Z</time>
      </trkpt>
      <trkpt lat="49.225675" lon="9.616417">
        <ele>347.352935</ele>
        <time>2022-07-23T07:47:53.999Z</time>
      </trkpt>
      <trkpt lat="49.225603" lon="9.616600">
        <ele>347.249560</ele>
        <time>2022-07-23T07:47:55.999Z</time>
      </trkpt>
      <trkpt lat="49.225528" lon="9.616780">
        <ele>347.146249</ele>
        <time>2022-07-23T07:47:57.999Z</time>
      </trkpt>
      <trkpt lat="49.225453" lon="9.616954">
        <ele>347.045372</ele>
        <time>2022-07-23T07:47:59.999Z</time>
      </trkpt>
      <trkpt lat="49.225374" lon="9.617128">
        <ele>346.942833</ele>
        <time>2022-07-23T07:48:01.999Z</time>
      </trkpt>
      <trkpt lat="49.225298" lon="9.617300">
        <ele>346.842349</ele>
        <time>2022-07-23T07:48:03.999Z</time>
      </trkpt>
      <trkpt lat="49.225220" lon="9.617474">
        <ele>346.743511</ele>
        <time>2022-07-23T07:48:05.999Z</time>
      </trkpt>
      <trkpt lat="49.225147" lon="9.617650">
        <ele>346.683569</ele>
        <time>2022-07-23T07:48:07.999Z</time>
      </trkpt>
      <trkpt lat="49.225075" lon="9.617825">
        <ele>346.624106</ele>
        <time>2022-07-23T07:48:09.999Z</time>
      </trkpt>
      <trkpt lat="49.225002" lon="9.617999">
        <ele>346.564650</ele>
        <time>2022-07-23T07:48:11.999Z</time>
      </trkpt>
      <trkpt lat="49.224927" lon="9.618177">
        <ele>346.503749</ele>
        <time>2022-07-23T07:48:13.999Z</time>
      </trkpt>
      <trkpt lat="49.224849" lon="9.618351">
        <ele>346.443075</ele>
        <time>2022-07-23T07:48:15.999Z</time>
      </trkpt>
      <trkpt lat="49.224772" lon="9.618524">
        <ele>346.382886</ele>
        <time>2022-07-23T07:48:17.999Z</time>
      </trkpt>
      <trkpt lat="49.224692" lon="9.618697">
        <ele>346.321943</ele>
        <time>2022-07-23T07:48:19.999Z</time>
      </trkpt>
      <trkpt lat="49.224612" lon="9.618866">
        <ele>346.261935</ele>
        <time>2022-07-23T07:48:21.999Z</time>
      </trkpt>
      <trkpt lat="49.224530" lon="9.619036">
        <ele>346.201175</ele>
        <time>2022-07-23T07:48:23.999Z</time>
      </trkpt>
      <trkpt lat="49.224457" lon="9.619207">
        <ele>346.142442</ele>
        <time>2022-07-23T07:48:25.999Z</time>
      </trkpt>
      <trkpt lat="49.224393" lon="9.619382">
        <ele>346.084779</ele>
        <time>2022-07-23T07:48:27.999Z</time>
      </trkpt>
      <trkpt lat="49.224338" lon="9.619558">
        <ele>346.028684</ele>
        <time>2022-07-23T07:48:29.999Z</time>
      </trkpt>
      <trkpt lat="49.224289" lon="9.619734">
        <ele>345.973679</ele>
        <time>2022-07-23T07:48:31.999Z</time>
      </trkpt>
      <trkpt lat="49.224243" lon="9.619909">
        <ele>346.069390</ele>
        <time>2022-07-23T07:48:33.999Z</time>
      </trkpt>
      <trkpt lat="49.224200" lon="9.620082">
        <ele>346.231324</ele>
        <time>2022-07-23T07:48:35.999Z</time>
      </trkpt>
      <trkpt lat="49.224156" lon="9.620253">
        <ele>346.392110</ele>
        <time>2022-07-23T07:48:37.999Z</time>
      </trkpt>
      <trkpt lat="49.224111" lon="9.620426">
        <ele>346.555016</ele>
        <time>2022-07-23T07:48:39.999Z</time>
      </trkpt>
      <trkpt lat="49.224074" lon="9.620577">
        <ele>346.696105</ele>
        <time>2022-07-23T07:48:41.999Z</time>
      </trkpt>
      <trkpt lat="49.224040" lon="9.620720">
        <ele>346.829237</ele>
        <time>2022-07-23T07:48:43.999Z</time>
      </trkpt>
      <trkpt lat="49.224000" lon="9.620869">
        <ele>346.970168</ele>
        <time>2022-07-23T07:48:45.999Z</time>
      </trkpt>
      <trkpt lat="49.223953" lon="9.621035">
        <ele>347.128448</ele>
        <time>2022-07-23T07:48:47.999Z</time>
      </trkpt>
      <trkpt lat="49.223921" lon="9.621203">
        <ele>347.281541</ele>
        <time>2022-07-23T07:48:49.999Z</time>
      </trkpt>
      <trkpt lat="49.223892" lon="9.621375">
        <ele>347.436945</ele>
        <time>2022-07-23T07:48:52.000Z</time>
      </trkpt>
      <trkpt lat="49.223866" lon="9.621552">
        <ele>347.595657</ele>
        <time>2022-07-23T07:48:54.000Z</time>
      </trkpt>
      <trkpt lat="49.223846" lon="9.621733">
        <ele>347.756251</ele>
        <time>2022-07-23T07:48:56.000Z</time>
      </trkpt>
      <trkpt lat="49.223829" lon="9.621914">
        <ele>347.916224</ele>
        <time>2022-07-23T07:48:58.000Z</time>
      </trkpt>
      <trkpt lat="49.223811" lon="9.622093">
        <ele>348.074663</ele>
        <time>2022-07-23T07:49:00.000Z</time>
      </trkpt>
      <trkpt lat="49.223795" lon="9.622276">
        <ele>348.236184</ele>
        <time>2022-07-23T07:49:02.000Z</time>
      </trkpt>
      <trkpt lat="49.223776" lon="9.622459">
        <ele>348.414292</ele>
        <time>2022-07-23T07:49:04.000Z</time>
      </trkpt>
      <trkpt lat="49.223754" lon="9.622643">
        <ele>348.658532</ele>
        <time>2022-07-23T07:49:06.000Z</time>
      </trkpt>
      <trkpt lat="49.223729" lon="9.622824">
        <ele>348.900090</ele>
        <time>2022-07-23T07:49:08.000Z</time>
      </trkpt>
      <trkpt lat="49.223700" lon="9.623005">
        <ele>349.143428</ele>
        <time>2022-07-23T07:49:10.000Z</time>
      </trkpt>
      <trkpt lat="49.223672" lon="9.623186">
        <ele>349.386298</ele>
        <time>2022-07-23T07:49:12.000Z</time>
      </trkpt>
      <trkpt lat="49.223642" lon="9.623359">
        <ele>349.620009</ele>
        <time>2022-07-23T07:49:14.000Z</time>
      </trkpt>
      <trkpt lat="49.223602" lon="9.623532">
        <ele>349.859632</ele>
        <time>2022-07-23T07:49:16.000Z</time>
      </trkpt>
      <trkpt lat="49.223554" lon="9.623712">
        <ele>350.113494</ele>
        <time>2022-07-23T07:49:18.000Z</time>
      </trkpt>
      <trkpt lat="49.223504" lon="9.623895">
        <ele>350.372503</ele>
        <time>2022-07-23T07:49:20.000Z</time>
      </trkpt>
      <trkpt lat="49.223457" lon="9.624070">
        <ele>350.619565</ele>
        <time>2022-07-23T07:49:21.999Z</time>
      </trkpt>
      <trkpt lat="49.223410" lon="9.624240">
        <ele>350.860603</ele>
        <time>2022-07-23T07:49:23.999Z</time>
      </trkpt>
      <trkpt lat="49.223358" lon="9.624413">
        <ele>351.109264</ele>
        <time>2022-07-23T07:49:25.999Z</time>
      </trkpt>
      <trkpt lat="49.223316" lon="9.624588">
        <ele>351.352701</ele>
        <time>2022-07-23T07:49:27.999Z</time>
      </trkpt>
      <trkpt lat="49.223282" lon="9.624765">
        <ele>351.593599</ele>
        <time>2022-07-23T07:49:29.999Z</time>
      </trkpt>
      <trkpt lat="49.223251" lon="9.624942">
        <ele>351.832874</ele>
        <time>2022-07-23T07:49:31.999Z</time>
      </trkpt>
      <trkpt lat="49.223218" lon="9.625117">
        <ele>352.101689</ele>
        <time>2022-07-23T07:49:33.999Z</time>
      </trkpt>
      <trkpt lat="49.223185" lon="9.625291">
        <ele>352.405474</ele>
        <time>2022-07-23T07:49:35.999Z</time>
      </trkpt>
      <trkpt lat="49.223150" lon="9.625464">
        <ele>352.709128</ele>
        <time>2022-07-23T07:49:37.999Z</time>
      </trkpt>
      <trkpt lat="49.223110" lon="9.625631">
        <ele>353.007362</ele>
        <time>2022-07-23T07:49:39.999Z</time>
      </trkpt>
      <trkpt lat="49.223065" lon="9.625793">
        <ele>353.302522</ele>
        <time>2022-07-23T07:49:41.999Z</time>
      </trkpt>
      <trkpt lat="49.223017" lon="9.625951">
        <ele>353.594687</ele>
        <time>2022-07-23T07:49:43.999Z</time>
      </trkpt>
      <trkpt lat="49.222936" lon="9.626109">
        <ele>353.931458</ele>
        <time>2022-07-23T07:49:45.999Z</time>
      </trkpt>
      <trkpt lat="49.222917" lon="9.626256">
        <ele>354.182704</ele>
        <time>2022-07-23T07:49:47.999Z</time>
      </trkpt>
      <trkpt lat="49.222865" lon="9.626415">
        <ele>354.480845</ele>
        <time>2022-07-23T07:49:49.999Z</time>
      </trkpt>
      <trkpt lat="49.222814" lon="9.626579">
        <ele>354.785392</ele>
        <time>2022-07-23T07:49:51.999Z</time>
      </trkpt>
      <trkpt lat="49.222759" lon="9.626745">
        <ele>355.097480</ele>
        <time>2022-07-23T07:49:53.999Z</time>
      </trkpt>
      <trkpt lat="49.222699" lon="9.626905">
        <ele>355.406818</ele>
        <time>2022-07-23T07:49:55.999Z</time>
      </trkpt>
      <trkpt lat="49.222643" lon="9.627063">
        <ele>355.708222</ele>
        <time>2022-07-23T07:49:57.999Z</time>
      </trkpt>
      <trkpt lat="49.222589" lon="9.627224">
        <ele>356.011677</ele>
        <time>2022-07-23T07:49:59.999Z</time>
      </trkpt>
      <trkpt lat="49.222532" lon="9.627382">
        <ele>356.314314</ele>
        <time>2022-07-23T07:50:01.999Z</time>
      </trkpt>
      <trkpt lat="49.222470" lon="9.627553">
        <ele>356.575394</ele>
        <time>2022-07-23T07:50:03.999Z</time>
      </trkpt>
      <trkpt lat="49.222410" lon="9.627725">
        <ele>356.556754</ele>
        <time>2022-07-23T07:50:05.999Z</time>
      </trkpt>
      <trkpt lat="49.222357" lon="9.627890">
        <ele>356.539177</ele>
        <time>2022-07-23T07:50:07.999Z</time>
      </trkpt>
      <trkpt lat="49.222302" lon="9.628049">
        <ele>356.521978</ele>
        <time>2022-07-23T07:50:09.999Z</time>
      </trkpt>
      <trkpt lat="49.222257" lon="9.628212">
        <ele>356.505062</ele>
        <time>2022-07-23T07:50:11.999Z</time>
      </trkpt>
      <trkpt lat="49.222203" lon="9.628374">
        <ele>356.487676</ele>
        <time>2022-07-23T07:50:13.999Z</time>
      </trkpt>
      <trkpt lat="49.222158" lon="9.628537">
        <ele>356.470760</ele>
        <time>2022-07-23T07:50:15.999Z</time>
      </trkpt>
      <trkpt lat="49.222110" lon="9.628700">
        <ele>356.453668</ele>
        <time>2022-07-23T07:50:17.999Z</time>
      </trkpt>
      <trkpt lat="49.222060" lon="9.628875">
        <ele>356.435408</ele>
        <time>2022-07-23T07:50:19.999Z</time>
      </trkpt>
      <trkpt lat="49.222038" lon="9.629054">
        <ele>356.417997</ele>
        <time>2022-07-23T07:50:21.999Z</time>
      </trkpt>
      <trkpt lat="49.222014" lon="9.629251">
        <ele>356.398840</ele>
        <time>2022-07-23T07:50:23.999Z</time>
      </trkpt>
      <trkpt lat="49.221992" lon="9.629441">
        <ele>356.380395</ele>
        <time>2022-07-23T07:50:25.999Z</time>
      </trkpt>
      <trkpt lat="49.221976" lon="9.629629">
        <ele>356.362271</ele>
        <time>2022-07-23T07:50:27.999Z</time>
      </trkpt>
      <trkpt lat="49.221952" lon="9.629822">
        <ele>356.343491</ele>
        <time>2022-07-23T07:50:29.999Z</time>
      </trkpt>
      <trkpt lat="49.221932" lon="9.630007">
        <ele>356.325565</ele>
        <time>2022-07-23T07:50:31.999Z</time>
      </trkpt>
      <trkpt lat="49.221917" lon="9.630192">
        <ele>356.286884</ele>
        <time>2022-07-23T07:50:33.999Z</time>
      </trkpt>
      <trkpt lat="49.221902" lon="9.630377">
        <ele>356.222621</ele>
        <time>2022-07-23T07:50:35.999Z</time>
      </trkpt>
      <trkpt lat="49.221885" lon="9.630558">
        <ele>356.159585</ele>
        <time>2022-07-23T07:50:37.999Z</time>
      </trkpt>
      <trkpt lat="49.221865" lon="9.630733">
        <ele>356.098343</ele>
        <time>2022-07-23T07:50:39.999Z</time>
      </trkpt>
      <trkpt lat="49.221847" lon="9.630911">
        <ele>356.036251</ele>
        <time>2022-07-23T07:50:41.999Z</time>
      </trkpt>
      <trkpt lat="49.221821" lon="9.631090">
        <ele>355.973039</ele>
        <time>2022-07-23T07:50:43.999Z</time>
      </trkpt>
      <trkpt lat="49.221769" lon="9.631263">
        <ele>355.907390</ele>
        <time>2022-07-23T07:50:45.999Z</time>
      </trkpt>
      <trkpt lat="49.221697" lon="9.631423">
        <ele>355.840411</ele>
        <time>2022-07-23T07:50:47.999Z</time>
      </trkpt>
      <trkpt lat="49.221622" lon="9.631572">
        <ele>355.775564</ele>
        <time>2022-07-23T07:50:49.999Z</time>
      </trkpt>
      <trkpt lat="49.221547" lon="9.631722">
        <ele>355.710443</ele>
        <time>2022-07-23T07:50:51.999Z</time>
      </trkpt>
      <trkpt lat="49.221470" lon="9.631867">
        <ele>355.646022</ele>
        <time>2022-07-23T07:50:53.999Z</time>
      </trkpt>
      <trkpt lat="49.221394" lon="9.632018">
        <ele>355.580306</ele>
        <time>2022-07-23T07:50:55.999Z</time>
      </trkpt>
      <trkpt lat="49.221321" lon="9.632167">
        <ele>355.516098</ele>
        <time>2022-07-23T07:50:58.000Z</time>
      </trkpt>
      <trkpt lat="49.221251" lon="9.632316">
        <ele>355.452827</ele>
        <time>2022-07-23T07:51:00.000Z</time>
      </trkpt>
      <trkpt lat="49.221178" lon="9.632465">
        <ele>355.388618</ele>
        <time>2022-07-23T07:51:02.000Z</time>
      </trkpt>
      <trkpt lat="49.221101" lon="9.632616">
        <ele>355.264032</ele>
        <time>2022-07-23T07:51:04.000Z</time>
      </trkpt>
      <trkpt lat="49.221028" lon="9.632769">
        <ele>355.111515</ele>
        <time>2022-07-23T07:51:06.000Z</time>
      </trkpt>
      <trkpt lat="49.220954" lon="9.632923">
        <ele>354.957621</ele>
        <time>2022-07-23T07:51:08.000Z</time>
      </trkpt>
      <trkpt lat="49.220874" lon="9.633074">
        <ele>354.801115</ele>
        <time>2022-07-23T07:51:10.000Z</time>
      </trkpt>
      <trkpt lat="49.220797" lon="9.633231">
        <ele>354.643077</ele>
        <time>2022-07-23T07:51:12.000Z</time>
      </trkpt>
      <trkpt lat="49.220720" lon="9.633388">
        <ele>354.485039</ele>
        <time>2022-07-23T07:51:14.000Z</time>
      </trkpt>
      <trkpt lat="49.220643" lon="9.633543">
        <ele>354.328285</ele>
        <time>2022-07-23T07:51:16.000Z</time>
      </trkpt>
      <trkpt lat="49.220567" lon="9.633698">
        <ele>354.172273</ele>
        <time>2022-07-23T07:51:18.000Z</time>
      </trkpt>
      <trkpt lat="49.220495" lon="9.633851">
        <ele>354.020480</ele>
        <time>2022-07-23T07:51:20.000Z</time>
      </trkpt>
      <trkpt lat="49.220423" lon="9.633998">
        <ele>353.872577</ele>
        <time>2022-07-23T07:51:22.000Z</time>
      </trkpt>
      <trkpt lat="49.220351" lon="9.634144">
        <ele>353.725318</ele>
        <time>2022-07-23T07:51:23.999Z</time>
      </trkpt>
      <trkpt lat="49.220284" lon="9.634287">
        <ele>353.583657</ele>
        <time>2022-07-23T07:51:25.999Z</time>
      </trkpt>
      <trkpt lat="49.220220" lon="9.634437">
        <ele>353.439435</ele>
        <time>2022-07-23T07:51:27.999Z</time>
      </trkpt>
      <trkpt lat="49.220159" lon="9.634589">
        <ele>353.295832</ele>
        <time>2022-07-23T07:51:29.999Z</time>
      </trkpt>
      <trkpt lat="49.220092" lon="9.634739">
        <ele>353.149459</ele>
        <time>2022-07-23T07:51:31.999Z</time>
      </trkpt>
      <trkpt lat="49.220029" lon="9.634888">
        <ele>352.942003</ele>
        <time>2022-07-23T07:51:33.999Z</time>
      </trkpt>
      <trkpt lat="49.219973" lon="9.635026">
        <ele>352.752114</ele>
        <time>2022-07-23T07:51:35.999Z</time>
      </trkpt>
      <trkpt lat="49.219917" lon="9.635166">
        <ele>352.560235</ele>
        <time>2022-07-23T07:51:37.999Z</time>
      </trkpt>
      <trkpt lat="49.219864" lon="9.635302">
        <ele>352.375134</ele>
        <time>2022-07-23T07:51:39.999Z</time>
      </trkpt>
      <trkpt lat="49.219816" lon="9.635420">
        <ele>352.212655</ele>
        <time>2022-07-23T07:51:41.999Z</time>
      </trkpt>
      <trkpt lat="49.219745" lon="9.635589">
        <ele>351.977794</ele>
        <time>2022-07-23T07:51:44.999Z</time>
      </trkpt>
      <trkpt lat="49.219696" lon="9.635712">
        <ele>351.809401</ele>
        <time>2022-07-23T07:51:46.999Z</time>
      </trkpt>
      <trkpt lat="49.219647" lon="9.635844">
        <ele>351.631942</ele>
        <time>2022-07-23T07:51:48.999Z</time>
      </trkpt>
      <trkpt lat="49.219601" lon="9.635963">
        <ele>351.470321</ele>
        <time>2022-07-23T07:51:50.999Z</time>
      </trkpt>
      <trkpt lat="49.219535" lon="9.636057">
        <ele>351.309015</ele>
        <time>2022-07-23T07:51:52.999Z</time>
      </trkpt>
      <trkpt lat="49.219441" lon="9.636103">
        <ele>351.132421</ele>
        <time>2022-07-23T07:51:54.999Z</time>
      </trkpt>
      <trkpt lat="49.219348" lon="9.636160">
        <ele>350.953161</ele>
        <time>2022-07-23T07:51:56.999Z</time>
      </trkpt>
      <trkpt lat="49.219266" lon="9.636239">
        <ele>350.779790</ele>
        <time>2022-07-23T07:51:58.999Z</time>
      </trkpt>
      <trkpt lat="49.219167" lon="9.636358">
        <ele>350.554556</ele>
        <time>2022-07-23T07:52:01.999Z</time>
      </trkpt>
      <trkpt lat="49.219070" lon="9.636470">
        <ele>350.337148</ele>
        <time>2022-07-23T07:52:04.999Z</time>
      </trkpt>
      <trkpt lat="49.218980" lon="9.636567">
        <ele>350.140191</ele>
        <time>2022-07-23T07:52:07.999Z</time>
      </trkpt>
      <trkpt lat="49.218893" lon="9.636652">
        <ele>349.955508</ele>
        <time>2022-07-23T07:52:10.999Z</time>
      </trkpt>
      <trkpt lat="49.218801" lon="9.636676">
        <ele>349.701538</ele>
        <time>2022-07-23T07:52:13.999Z</time>
      </trkpt>
      <trkpt lat="49.218725" lon="9.636576">
        <ele>349.412889</ele>
        <time>2022-07-23T07:52:16.999Z</time>
      </trkpt>
      <trkpt lat="49.218649" lon="9.636430">
        <ele>349.061645</ele>
        <time>2022-07-23T07:52:19.999Z</time>
      </trkpt>
      <trkpt lat="49.218590" lon="9.636326">
        <ele>348.802481</ele>
        <time>2022-07-23T07:52:21.999Z</time>
      </trkpt>
      <trkpt lat="49.218525" lon="9.636218">
        <ele>348.526184</ele>
        <time>2022-07-23T07:52:23.999Z</time>
      </trkpt>
      <trkpt lat="49.218464" lon="9.636107">
        <ele>348.253266</ele>
        <time>2022-07-23T07:52:25.999Z</time>
      </trkpt>
      <trkpt lat="49.218389" lon="9.635975">
        <ele>347.924109</ele>
        <time>2022-07-23T07:52:28.999Z</time>
      </trkpt>
      <trkpt lat="49.218300" lon="9.635821">
        <ele>347.537243</ele>
        <time>2022-07-23T07:52:31.999Z</time>
      </trkpt>
      <trkpt lat="49.218233" lon="9.635710">
        <ele>347.252890</ele>
        <time>2022-07-23T07:52:33.999Z</time>
      </trkpt>
      <trkpt lat="49.218168" lon="9.635597">
        <ele>346.969602</ele>
        <time>2022-07-23T07:52:35.999Z</time>
      </trkpt>
      <trkpt lat="49.218096" lon="9.635490">
        <ele>346.680576</ele>
        <time>2022-07-23T07:52:37.999Z</time>
      </trkpt>
      <trkpt lat="49.218021" lon="9.635377">
        <ele>346.377479</ele>
        <time>2022-07-23T07:52:39.999Z</time>
      </trkpt>
      <trkpt lat="49.217946" lon="9.635265">
        <ele>346.075699</ele>
        <time>2022-07-23T07:52:41.999Z</time>
      </trkpt>
      <trkpt lat="49.217870" lon="9.635156">
        <ele>345.775736</ele>
        <time>2022-07-23T07:52:43.999Z</time>
      </trkpt>
      <trkpt lat="49.217791" lon="9.635052">
        <ele>345.475627</ele>
        <time>2022-07-23T07:52:45.999Z</time>
      </trkpt>
      <trkpt lat="49.217711" lon="9.634945">
        <ele>345.169644</ele>
        <time>2022-07-23T07:52:47.999Z</time>
      </trkpt>
      <trkpt lat="49.217622" lon="9.634831">
        <ele>344.835397</ele>
        <time>2022-07-23T07:52:49.999Z</time>
      </trkpt>
      <trkpt lat="49.217532" lon="9.634717">
        <ele>344.344003</ele>
        <time>2022-07-23T07:52:51.999Z</time>
      </trkpt>
      <trkpt lat="49.217441" lon="9.634599">
        <ele>343.788830</ele>
        <time>2022-07-23T07:52:53.999Z</time>
      </trkpt>
      <trkpt lat="49.217354" lon="9.634480">
        <ele>343.245712</ele>
        <time>2022-07-23T07:52:55.999Z</time>
      </trkpt>
      <trkpt lat="49.217263" lon="9.634364">
        <ele>342.694449</ele>
        <time>2022-07-23T07:52:57.999Z</time>
      </trkpt>
      <trkpt lat="49.217173" lon="9.634252">
        <ele>342.154509</ele>
        <time>2022-07-23T07:52:59.999Z</time>
      </trkpt>
      <trkpt lat="49.217082" lon="9.634145">
        <ele>341.620343</ele>
        <time>2022-07-23T07:53:01.999Z</time>
      </trkpt>
      <trkpt lat="49.216993" lon="9.634034">
        <ele>341.085933</ele>
        <time>2022-07-23T07:53:04.000Z</time>
      </trkpt>
      <trkpt lat="49.216903" lon="9.633922">
        <ele>340.545992</ele>
        <time>2022-07-23T07:53:06.000Z</time>
      </trkpt>
      <trkpt lat="49.216815" lon="9.633803">
        <ele>339.999390</ele>
        <time>2022-07-23T07:53:08.000Z</time>
      </trkpt>
      <trkpt lat="49.216726" lon="9.633692">
        <ele>339.464978</ele>
        <time>2022-07-23T07:53:10.000Z</time>
      </trkpt>
      <trkpt lat="49.216637" lon="9.633578">
        <ele>338.924758</ele>
        <time>2022-07-23T07:53:12.000Z</time>
      </trkpt>
      <trkpt lat="49.216547" lon="9.633464">
        <ele>338.380959</ele>
        <time>2022-07-23T07:53:14.000Z</time>
      </trkpt>
      <trkpt lat="49.216459" lon="9.633344">
        <ele>337.832337</ele>
        <time>2022-07-23T07:53:16.000Z</time>
      </trkpt>
      <trkpt lat="49.216365" lon="9.633229">
        <ele>337.272171</ele>
        <time>2022-07-23T07:53:18.000Z</time>
      </trkpt>
      <trkpt lat="49.216276" lon="9.633114">
        <ele>336.729992</ele>
        <time>2022-07-23T07:53:20.000Z</time>
      </trkpt>
      <trkpt lat="49.216186" lon="9.633013">
        <ele>336.427994</ele>
        <time>2022-07-23T07:53:22.000Z</time>
      </trkpt>
      <trkpt lat="49.216095" lon="9.632911">
        <ele>336.588529</ele>
        <time>2022-07-23T07:53:24.000Z</time>
      </trkpt>
      <trkpt lat="49.216006" lon="9.632803">
        <ele>336.750182</ele>
        <time>2022-07-23T07:53:26.000Z</time>
      </trkpt>
      <trkpt lat="49.215910" lon="9.632677">
        <ele>336.930172</ele>
        <time>2022-07-23T07:53:28.000Z</time>
      </trkpt>
      <trkpt lat="49.215810" lon="9.632559">
        <ele>337.109888</ele>
        <time>2022-07-23T07:53:29.999Z</time>
      </trkpt>
      <trkpt lat="49.215722" lon="9.632443">
        <ele>337.275182</ele>
        <time>2022-07-23T07:53:31.999Z</time>
      </trkpt>
      <trkpt lat="49.215616" lon="9.632363">
        <ele>337.443401</ele>
        <time>2022-07-23T07:53:33.999Z</time>
      </trkpt>
      <trkpt lat="49.215496" lon="9.632335">
        <ele>337.616180</ele>
        <time>2022-07-23T07:53:35.999Z</time>
      </trkpt>
      <trkpt lat="49.215377" lon="9.632335">
        <ele>337.785564</ele>
        <time>2022-07-23T07:53:37.999Z</time>
      </trkpt>
      <trkpt lat="49.215265" lon="9.632399">
        <ele>337.955728</ele>
        <time>2022-07-23T07:53:39.999Z</time>
      </trkpt>
      <trkpt lat="49.215164" lon="9.632487">
        <ele>338.121144</ele>
        <time>2022-07-23T07:53:41.999Z</time>
      </trkpt>
      <trkpt lat="49.215087" lon="9.632597">
        <ele>338.271054</ele>
        <time>2022-07-23T07:53:43.999Z</time>
      </trkpt>
      <trkpt lat="49.214994" lon="9.632727">
        <ele>338.450312</ele>
        <time>2022-07-23T07:53:46.999Z</time>
      </trkpt>
      <trkpt lat="49.214907" lon="9.632862">
        <ele>338.626639</ele>
        <time>2022-07-23T07:53:49.999Z</time>
      </trkpt>
      <trkpt lat="49.214843" lon="9.632963">
        <ele>338.757473</ele>
        <time>2022-07-23T07:53:51.999Z</time>
      </trkpt>
      <trkpt lat="49.214773" lon="9.633075">
        <ele>338.901599</ele>
        <time>2022-07-23T07:53:53.999Z</time>
      </trkpt>
      <trkpt lat="49.214701" lon="9.633182">
        <ele>339.100903</ele>
        <time>2022-07-23T07:53:55.999Z</time>
      </trkpt>
      <trkpt lat="49.214626" lon="9.633288">
        <ele>339.322746</ele>
        <time>2022-07-23T07:53:57.999Z</time>
      </trkpt>
      <trkpt lat="49.214562" lon="9.633390">
        <ele>339.523533</ele>
        <time>2022-07-23T07:53:59.999Z</time>
      </trkpt>
      <trkpt lat="49.214472" lon="9.633506">
        <ele>339.779226</ele>
        <time>2022-07-23T07:54:02.999Z</time>
      </trkpt>
      <trkpt lat="49.214401" lon="9.633596">
        <ele>339.979564</ele>
        <time>2022-07-23T07:54:04.999Z</time>
      </trkpt>
      <trkpt lat="49.214292" lon="9.633699">
        <ele>340.257951</ele>
        <time>2022-07-23T07:54:07.999Z</time>
      </trkpt>
      <trkpt lat="49.214164" lon="9.633760">
        <ele>340.549303</ele>
        <time>2022-07-23T07:54:10.999Z</time>
      </trkpt>
      <trkpt lat="49.214069" lon="9.633772">
        <ele>340.756470</ele>
        <time>2022-07-23T07:54:12.999Z</time>
      </trkpt>
      <trkpt lat="49.213977" lon="9.633763">
        <ele>340.956823</ele>
        <time>2022-07-23T07:54:14.999Z</time>
      </trkpt>
      <trkpt lat="49.213885" lon="9.633736">
        <ele>341.160408</ele>
        <time>2022-07-23T07:54:16.999Z</time>
      </trkpt>
      <trkpt lat="49.213761" lon="9.633660">
        <ele>341.450696</ele>
        <time>2022-07-23T07:54:19.999Z</time>
      </trkpt>
      <trkpt lat="49.213676" lon="9.633601">
        <ele>341.653531</ele>
        <time>2022-07-23T07:54:21.999Z</time>
      </trkpt>
      <trkpt lat="49.213591" lon="9.633553">
        <ele>341.850431</ele>
        <time>2022-07-23T07:54:23.999Z</time>
      </trkpt>
      <trkpt lat="49.213481" lon="9.633491">
        <ele>342.105184</ele>
        <time>2022-07-23T07:54:26.999Z</time>
      </trkpt>
      <trkpt lat="49.213376" lon="9.633465">
        <ele>342.336348</ele>
        <time>2022-07-23T07:54:29.999Z</time>
      </trkpt>
      <trkpt lat="49.213274" lon="9.633484">
        <ele>342.559661</ele>
        <time>2022-07-23T07:54:32.999Z</time>
      </trkpt>
      <trkpt lat="49.213169" lon="9.633528">
        <ele>342.796255</ele>
        <time>2022-07-23T07:54:35.999Z</time>
      </trkpt>
      <trkpt lat="49.213056" lon="9.633577">
        <ele>343.226661</ele>
        <time>2022-07-23T07:54:39.999Z</time>
      </trkpt>
      <trkpt lat="49.212962" lon="9.633578">
        <ele>343.605306</ele>
        <time>2022-07-23T07:54:44.999Z</time>
      </trkpt>
      <trkpt lat="49.212851" lon="9.633538">
        <ele>344.064641</ele>
        <time>2022-07-23T07:54:49.999Z</time>
      </trkpt>
      <trkpt lat="49.212757" lon="9.633486">
        <ele>344.467242</ele>
        <time>2022-07-23T07:54:52.999Z</time>
      </trkpt>
      <trkpt lat="49.212662" lon="9.633426">
        <ele>344.881196</ele>
        <time>2022-07-23T07:54:55.999Z</time>
      </trkpt>
      <trkpt lat="49.212536" lon="9.633349">
        <ele>345.427679</ele>
        <time>2022-07-23T07:54:58.999Z</time>
      </trkpt>
      <trkpt lat="49.212444" lon="9.633297">
        <ele>345.822713</ele>
        <time>2022-07-23T07:55:00.999Z</time>
      </trkpt>
      <trkpt lat="49.212348" lon="9.633253">
        <ele>346.226366</ele>
        <time>2022-07-23T07:55:02.999Z</time>
      </trkpt>
      <trkpt lat="49.212255" lon="9.633215">
        <ele>346.614090</ele>
        <time>2022-07-23T07:55:04.999Z</time>
      </trkpt>
      <trkpt lat="49.212152" lon="9.633195">
        <ele>347.032303</ele>
        <time>2022-07-23T07:55:06.999Z</time>
      </trkpt>
      <trkpt lat="49.212051" lon="9.633185">
        <ele>347.439986</ele>
        <time>2022-07-23T07:55:09.000Z</time>
      </trkpt>
      <trkpt lat="49.211954" lon="9.633179">
        <ele>347.831025</ele>
        <time>2022-07-23T07:55:11.000Z</time>
      </trkpt>
      <trkpt lat="49.211850" lon="9.633178">
        <ele>348.249950</ele>
        <time>2022-07-23T07:55:13.000Z</time>
      </trkpt>
      <trkpt lat="49.211746" lon="9.633169">
        <ele>348.669536</ele>
        <time>2022-07-23T07:55:15.000Z</time>
      </trkpt>
      <trkpt lat="49.211643" lon="9.633164">
        <ele>349.084633</ele>
        <time>2022-07-23T07:55:17.000Z</time>
      </trkpt>
      <trkpt lat="49.211539" lon="9.633167">
        <ele>349.503624</ele>
        <time>2022-07-23T07:55:19.000Z</time>
      </trkpt>
      <trkpt lat="49.211438" lon="9.633168">
        <ele>349.910466</ele>
        <time>2022-07-23T07:55:21.000Z</time>
      </trkpt>
      <trkpt lat="49.211335" lon="9.633165">
        <ele>350.205868</ele>
        <time>2022-07-23T07:55:23.000Z</time>
      </trkpt>
      <trkpt lat="49.211226" lon="9.633162">
        <ele>350.420773</ele>
        <time>2022-07-23T07:55:25.000Z</time>
      </trkpt>
      <trkpt lat="49.211114" lon="9.633158">
        <ele>350.641617</ele>
        <time>2022-07-23T07:55:26.999Z</time>
      </trkpt>
      <trkpt lat="49.210996" lon="9.633150">
        <ele>350.874457</ele>
        <time>2022-07-23T07:55:28.999Z</time>
      </trkpt>
      <trkpt lat="49.210873" lon="9.633150">
        <ele>351.116926</ele>
        <time>2022-07-23T07:55:30.999Z</time>
      </trkpt>
      <trkpt lat="49.210750" lon="9.633143">
        <ele>351.359562</ele>
        <time>2022-07-23T07:55:32.999Z</time>
      </trkpt>
      <trkpt lat="49.210627" lon="9.633140">
        <ele>351.602061</ele>
        <time>2022-07-23T07:55:34.999Z</time>
      </trkpt>
      <trkpt lat="49.210501" lon="9.633134">
        <ele>351.850563</ele>
        <time>2022-07-23T07:55:36.999Z</time>
      </trkpt>
      <trkpt lat="49.210376" lon="9.633127">
        <ele>352.097139</ele>
        <time>2022-07-23T07:55:38.999Z</time>
      </trkpt>
      <trkpt lat="49.210253" lon="9.633110">
        <ele>352.340594</ele>
        <time>2022-07-23T07:55:40.999Z</time>
      </trkpt>
      <trkpt lat="49.210128" lon="9.633082">
        <ele>352.589629</ele>
        <time>2022-07-23T07:55:42.999Z</time>
      </trkpt>
      <trkpt lat="49.210002" lon="9.633049">
        <ele>352.841621</ele>
        <time>2022-07-23T07:55:44.999Z</time>
      </trkpt>
      <trkpt lat="49.209890" lon="9.633015">
        <ele>353.066705</ele>
        <time>2022-07-23T07:55:46.999Z</time>
      </trkpt>
      <trkpt lat="49.209775" lon="9.632988">
        <ele>353.296054</ele>
        <time>2022-07-23T07:55:48.999Z</time>
      </trkpt>
      <trkpt lat="49.209659" lon="9.632952">
        <ele>353.529376</ele>
        <time>2022-07-23T07:55:50.999Z</time>
      </trkpt>
      <trkpt lat="49.209547" lon="9.632922">
        <ele>353.543921</ele>
        <time>2022-07-23T07:55:52.999Z</time>
      </trkpt>
      <trkpt lat="49.209448" lon="9.632887">
        <ele>353.384167</ele>
        <time>2022-07-23T07:55:54.999Z</time>
      </trkpt>
      <trkpt lat="49.209358" lon="9.632860">
        <ele>353.239969</ele>
        <time>2022-07-23T07:55:56.999Z</time>
      </trkpt>
      <trkpt lat="49.209261" lon="9.632824">
        <ele>353.083038</ele>
        <time>2022-07-23T07:56:00.999Z</time>
      </trkpt>
      <trkpt lat="49.209163" lon="9.632795">
        <ele>352.926101</ele>
        <time>2022-07-23T07:56:03.999Z</time>
      </trkpt>
      <trkpt lat="49.209060" lon="9.632801">
        <ele>352.764039</ele>
        <time>2022-07-23T07:56:06.999Z</time>
      </trkpt>
      <trkpt lat="49.209014" lon="9.632933">
        <ele>352.610367</ele>
        <time>2022-07-23T07:56:11.999Z</time>
      </trkpt>
      <trkpt lat="49.209032" lon="9.633078">
        <ele>352.458762</ele>
        <time>2022-07-23T07:56:15.999Z</time>
      </trkpt>
      <trkpt lat="49.209061" lon="9.633233">
        <ele>352.293149</ele>
        <time>2022-07-23T07:56:18.999Z</time>
      </trkpt>
      <trkpt lat="49.209073" lon="9.633438">
        <ele>352.081734</ele>
        <time>2022-07-23T07:56:21.999Z</time>
      </trkpt>
      <trkpt lat="49.209076" lon="9.633584">
        <ele>351.931693</ele>
        <time>2022-07-23T07:56:23.999Z</time>
      </trkpt>
      <trkpt lat="49.209084" lon="9.633744">
        <ele>351.766864</ele>
        <time>2022-07-23T07:56:25.999Z</time>
      </trkpt>
      <trkpt lat="49.209092" lon="9.633917">
        <ele>351.588718</ele>
        <time>2022-07-23T07:56:27.999Z</time>
      </trkpt>
      <trkpt lat="49.209100" lon="9.634092">
        <ele>351.408523</ele>
        <time>2022-07-23T07:56:29.999Z</time>
      </trkpt>
      <trkpt lat="49.209107" lon="9.634275">
        <ele>351.220228</ele>
        <time>2022-07-23T07:56:31.999Z</time>
      </trkpt>
      <trkpt lat="49.209113" lon="9.634468">
        <ele>351.021759</ele>
        <time>2022-07-23T07:56:33.999Z</time>
      </trkpt>
      <trkpt lat="49.209123" lon="9.634658">
        <ele>350.825963</ele>
        <time>2022-07-23T07:56:35.999Z</time>
      </trkpt>
      <trkpt lat="49.209132" lon="9.634846">
        <ele>350.701518</ele>
        <time>2022-07-23T07:56:37.999Z</time>
      </trkpt>
      <trkpt lat="49.209141" lon="9.635040">
        <ele>350.580003</ele>
        <time>2022-07-23T07:56:39.999Z</time>
      </trkpt>
      <trkpt lat="49.209154" lon="9.635237">
        <ele>350.456294</ele>
        <time>2022-07-23T07:56:41.999Z</time>
      </trkpt>
      <trkpt lat="49.209169" lon="9.635440">
        <ele>350.328653</ele>
        <time>2022-07-23T07:56:43.999Z</time>
      </trkpt>
      <trkpt lat="49.209184" lon="9.635638">
        <ele>350.204116</ele>
        <time>2022-07-23T07:56:45.999Z</time>
      </trkpt>
      <trkpt lat="49.209204" lon="9.635836">
        <ele>350.078938</ele>
        <time>2022-07-23T07:56:47.999Z</time>
      </trkpt>
      <trkpt lat="49.209221" lon="9.636027">
        <ele>349.958501</ele>
        <time>2022-07-23T07:56:49.999Z</time>
      </trkpt>
      <trkpt lat="49.209238" lon="9.636204">
        <ele>349.846725</ele>
        <time>2022-07-23T07:56:51.999Z</time>
      </trkpt>
      <trkpt lat="49.209253" lon="9.636359">
        <ele>349.748826</ele>
        <time>2022-07-23T07:56:53.999Z</time>
      </trkpt>
      <trkpt lat="49.209248" lon="9.636499">
        <ele>349.661226</ele>
        <time>2022-07-23T07:56:55.999Z</time>
      </trkpt>
      <trkpt lat="49.209160" lon="9.636611">
        <ele>349.551775</ele>
        <time>2022-07-23T07:56:58.999Z</time>
      </trkpt>
      <trkpt lat="49.209042" lon="9.636542">
        <ele>349.430970</ele>
        <time>2022-07-23T07:57:01.999Z</time>
      </trkpt>
      <trkpt lat="49.208956" lon="9.636492">
        <ele>349.342991</ele>
        <time>2022-07-23T07:57:03.999Z</time>
      </trkpt>
      <trkpt lat="49.208858" lon="9.636448">
        <ele>349.245319</ele>
        <time>2022-07-23T07:57:05.999Z</time>
      </trkpt>
      <trkpt lat="49.208764" lon="9.636391">
        <ele>349.148624</ele>
        <time>2022-07-23T07:57:07.999Z</time>
      </trkpt>
      <trkpt lat="49.208643" lon="9.636325">
        <ele>348.952450</ele>
        <time>2022-07-23T07:57:10.999Z</time>
      </trkpt>
      <trkpt lat="49.208555" lon="9.636282">
        <ele>348.761301</ele>
        <time>2022-07-23T07:57:12.999Z</time>
      </trkpt>
      <trkpt lat="49.208468" lon="9.636239">
        <ele>348.572122</ele>
        <time>2022-07-23T07:57:14.999Z</time>
      </trkpt>
      <trkpt lat="49.208377" lon="9.636194">
        <ele>348.374236</ele>
        <time>2022-07-23T07:57:16.999Z</time>
      </trkpt>
      <trkpt lat="49.208278" lon="9.636146">
        <ele>348.159346</ele>
        <time>2022-07-23T07:57:18.999Z</time>
      </trkpt>
      <trkpt lat="49.208176" lon="9.636093">
        <ele>347.936451</ele>
        <time>2022-07-23T07:57:20.999Z</time>
      </trkpt>
      <trkpt lat="49.208072" lon="9.636040">
        <ele>347.709633</ele>
        <time>2022-07-23T07:57:22.999Z</time>
      </trkpt>
      <trkpt lat="49.207962" lon="9.635986">
        <ele>347.470594</ele>
        <time>2022-07-23T07:57:24.999Z</time>
      </trkpt>
      <trkpt lat="49.207850" lon="9.635928">
        <ele>347.225931</ele>
        <time>2022-07-23T07:57:26.999Z</time>
      </trkpt>
      <trkpt lat="49.207738" lon="9.635872">
        <ele>346.982121</ele>
        <time>2022-07-23T07:57:29.000Z</time>
      </trkpt>
      <trkpt lat="49.207621" lon="9.635827">
        <ele>346.732490</ele>
        <time>2022-07-23T07:57:31.000Z</time>
      </trkpt>
      <trkpt lat="49.207503" lon="9.635764">
        <ele>346.473889</ele>
        <time>2022-07-23T07:57:33.000Z</time>
      </trkpt>
      <trkpt lat="49.207380" lon="9.635711">
        <ele>346.209476</ele>
        <time>2022-07-23T07:57:35.000Z</time>
      </trkpt>
      <trkpt lat="49.207269" lon="9.635653">
        <ele>345.966772</ele>
        <time>2022-07-23T07:57:37.000Z</time>
      </trkpt>
      <trkpt lat="49.207145" lon="9.635586">
        <ele>345.694665</ele>
        <time>2022-07-23T07:57:38.999Z</time>
      </trkpt>
      <trkpt lat="49.207021" lon="9.635538">
        <ele>345.429997</ele>
        <time>2022-07-23T07:57:40.999Z</time>
      </trkpt>
      <trkpt lat="49.206890" lon="9.635501">
        <ele>345.201374</ele>
        <time>2022-07-23T07:57:43.015Z</time>
      </trkpt>
      <trkpt lat="49.206757" lon="9.635450">
        <ele>344.980424</ele>
        <time>2022-07-23T07:57:44.999Z</time>
      </trkpt>
      <trkpt lat="49.206711" lon="9.635327">
        <ele>344.831211</ele>
        <time>2022-07-23T07:57:45.999Z</time>
      </trkpt>
      <trkpt lat="49.206588" lon="9.635310">
        <ele>344.632194</ele>
        <time>2022-07-23T07:57:47.999Z</time>
      </trkpt>
      <trkpt lat="49.206465" lon="9.635246">
        <ele>344.422843</ele>
        <time>2022-07-23T07:57:49.999Z</time>
      </trkpt>
      <trkpt lat="49.206354" lon="9.635187">
        <ele>344.233491</ele>
        <time>2022-07-23T07:57:51.999Z</time>
      </trkpt>
      <trkpt lat="49.206241" lon="9.635128">
        <ele>344.041092</ele>
        <time>2022-07-23T07:57:53.999Z</time>
      </trkpt>
      <trkpt lat="49.206136" lon="9.635075">
        <ele>343.862924</ele>
        <time>2022-07-23T07:57:55.999Z</time>
      </trkpt>
      <trkpt lat="49.206045" lon="9.635023">
        <ele>343.706393</ele>
        <time>2022-07-23T07:57:57.999Z</time>
      </trkpt>
      <trkpt lat="49.205949" lon="9.634998">
        <ele>343.549469</ele>
        <time>2022-07-23T07:58:00.999Z</time>
      </trkpt>
      <trkpt lat="49.205891" lon="9.635136">
        <ele>343.376710</ele>
        <time>2022-07-23T07:58:02.999Z</time>
      </trkpt>
      <trkpt lat="49.205866" lon="9.635283">
        <ele>343.216785</ele>
        <time>2022-07-23T07:58:04.999Z</time>
      </trkpt>
      <trkpt lat="49.205816" lon="9.635417">
        <ele>343.054316</ele>
        <time>2022-07-23T07:58:06.999Z</time>
      </trkpt>
      <trkpt lat="49.205788" lon="9.635583">
        <ele>342.873814</ele>
        <time>2022-07-23T07:58:08.999Z</time>
      </trkpt>
      <trkpt lat="49.205745" lon="9.635739">
        <ele>342.695551</ele>
        <time>2022-07-23T07:58:10.999Z</time>
      </trkpt>
      <trkpt lat="49.205675" lon="9.635877">
        <ele>342.511609</ele>
        <time>2022-07-23T07:58:12.999Z</time>
      </trkpt>
      <trkpt lat="49.205584" lon="9.635990">
        <ele>342.668501</ele>
        <time>2022-07-23T07:58:14.999Z</time>
      </trkpt>
      <trkpt lat="49.205487" lon="9.636089">
        <ele>342.926504</ele>
        <time>2022-07-23T07:58:16.999Z</time>
      </trkpt>
      <trkpt lat="49.205371" lon="9.636134">
        <ele>343.191324</ele>
        <time>2022-07-23T07:58:18.999Z</time>
      </trkpt>
      <trkpt lat="49.205253" lon="9.636138">
        <ele>343.452516</ele>
        <time>2022-07-23T07:58:20.999Z</time>
      </trkpt>
      <trkpt lat="49.205140" lon="9.636108">
        <ele>343.706314</ele>
        <time>2022-07-23T07:58:22.999Z</time>
      </trkpt>
      <trkpt lat="49.205033" lon="9.636065">
        <ele>343.951125</ele>
        <time>2022-07-23T07:58:24.999Z</time>
      </trkpt>
      <trkpt lat="49.204921" lon="9.636028">
        <ele>344.204684</ele>
        <time>2022-07-23T07:58:26.999Z</time>
      </trkpt>
      <trkpt lat="49.204818" lon="9.635990">
        <ele>344.439146</ele>
        <time>2022-07-23T07:58:28.999Z</time>
      </trkpt>
      <trkpt lat="49.204707" lon="9.635950">
        <ele>344.691500</ele>
        <time>2022-07-23T07:58:30.999Z</time>
      </trkpt>
      <trkpt lat="49.204604" lon="9.635913">
        <ele>344.925628</ele>
        <time>2022-07-23T07:58:32.999Z</time>
      </trkpt>
      <trkpt lat="49.204504" lon="9.635881">
        <ele>345.151708</ele>
        <time>2022-07-23T07:58:34.999Z</time>
      </trkpt>
      <trkpt lat="49.204387" lon="9.635853">
        <ele>345.413769</ele>
        <time>2022-07-23T07:58:36.999Z</time>
      </trkpt>
      <trkpt lat="49.204279" lon="9.635819">
        <ele>345.657772</ele>
        <time>2022-07-23T07:58:38.999Z</time>
      </trkpt>
      <trkpt lat="49.204192" lon="9.635785">
        <ele>345.856475</ele>
        <time>2022-07-23T07:58:40.999Z</time>
      </trkpt>
      <trkpt lat="49.204069" lon="9.635736">
        <ele>346.137738</ele>
        <time>2022-07-23T07:58:43.999Z</time>
      </trkpt>
      <trkpt lat="49.203942" lon="9.635728">
        <ele>346.419021</ele>
        <time>2022-07-23T07:58:46.999Z</time>
      </trkpt>
      <trkpt lat="49.203856" lon="9.635793">
        <ele>346.319857</ele>
        <time>2022-07-23T07:58:48.999Z</time>
      </trkpt>
      <trkpt lat="49.203767" lon="9.635918">
        <ele>346.131060</ele>
        <time>2022-07-23T07:58:51.999Z</time>
      </trkpt>
      <trkpt lat="49.203679" lon="9.636048">
        <ele>345.939902</ele>
        <time>2022-07-23T07:58:54.999Z</time>
      </trkpt>
      <trkpt lat="49.203586" lon="9.636186">
        <ele>345.737446</ele>
        <time>2022-07-23T07:58:57.999Z</time>
      </trkpt>
      <trkpt lat="49.203501" lon="9.636294">
        <ele>345.564781</ele>
        <time>2022-07-23T07:59:00.999Z</time>
      </trkpt>
      <trkpt lat="49.203420" lon="9.636399">
        <ele>345.398874</ele>
        <time>2022-07-23T07:59:03.999Z</time>
      </trkpt>
      <trkpt lat="49.203313" lon="9.636455">
        <ele>345.222129</ele>
        <time>2022-07-23T07:59:06.999Z</time>
      </trkpt>
      <trkpt lat="49.203201" lon="9.636492">
        <ele>345.043046</ele>
        <time>2022-07-23T07:59:09.999Z</time>
      </trkpt>
      <trkpt lat="49.203088" lon="9.636538">
        <ele>344.860290</ele>
        <time>2022-07-23T07:59:12.999Z</time>
      </trkpt>
      <trkpt lat="49.202976" lon="9.636587">
        <ele>344.678227</ele>
        <time>2022-07-23T07:59:15.999Z</time>
      </trkpt>
      <trkpt lat="49.202880" lon="9.636626">
        <ele>344.522987</ele>
        <time>2022-07-23T07:59:18.999Z</time>
      </trkpt>
      <trkpt lat="49.202782" lon="9.636672">
        <ele>344.362774</ele>
        <time>2022-07-23T07:59:23.000Z</time>
      </trkpt>
      <trkpt lat="49.202676" lon="9.636728">
        <ele>344.187508</ele>
        <time>2022-07-23T07:59:27.000Z</time>
      </trkpt>
      <trkpt lat="49.202590" lon="9.636773">
        <ele>344.045454</ele>
        <time>2022-07-23T07:59:32.000Z</time>
      </trkpt>
      <trkpt lat="49.202483" lon="9.636803">
        <ele>343.875434</ele>
        <time>2022-07-23T07:59:41.000Z</time>
      </trkpt>
      <trkpt lat="49.202392" lon="9.636728">
        <ele>343.713893</ele>
        <time>2022-07-23T07:59:44.000Z</time>
      </trkpt>
      <trkpt lat="49.202321" lon="9.636608">
        <ele>343.473718</ele>
        <time>2022-07-23T07:59:47.000Z</time>
      </trkpt>
      <trkpt lat="49.202258" lon="9.636471">
        <ele>343.158717</ele>
        <time>2022-07-23T07:59:50.999Z</time>
      </trkpt>
      <trkpt lat="49.202218" lon="9.636319">
        <ele>342.850603</ele>
        <time>2022-07-23T07:59:54.999Z</time>
      </trkpt>
      <trkpt lat="49.202178" lon="9.636127">
        <ele>342.471680</ele>
        <time>2022-07-23T07:59:57.999Z</time>
      </trkpt>
      <trkpt lat="49.202147" lon="9.635991">
        <ele>342.200847</ele>
        <time>2022-07-23T07:59:59.999Z</time>
      </trkpt>
      <trkpt lat="49.202113" lon="9.635855">
        <ele>341.927048</ele>
        <time>2022-07-23T08:00:01.999Z</time>
      </trkpt>
      <trkpt lat="49.202071" lon="9.635671">
        <ele>341.560569</ele>
        <time>2022-07-23T08:00:04.999Z</time>
      </trkpt>
      <trkpt lat="49.202002" lon="9.635528">
        <ele>341.226316</ele>
        <time>2022-07-23T08:00:08.999Z</time>
      </trkpt>
      <trkpt lat="49.201885" lon="9.635566">
        <ele>340.882123</ele>
        <time>2022-07-23T08:00:10.999Z</time>
      </trkpt>
      <trkpt lat="49.201764" lon="9.635655">
        <ele>340.495791</ele>
        <time>2022-07-23T08:00:13.999Z</time>
      </trkpt>
      <trkpt lat="49.201657" lon="9.635708">
        <ele>340.172148</ele>
        <time>2022-07-23T08:00:16.999Z</time>
      </trkpt>
      <trkpt lat="49.201558" lon="9.635736">
        <ele>339.882428</ele>
        <time>2022-07-23T08:00:19.999Z</time>
      </trkpt>
      <trkpt lat="49.201459" lon="9.635747">
        <ele>339.596782</ele>
        <time>2022-07-23T08:00:24.999Z</time>
      </trkpt>
      <trkpt lat="49.201376" lon="9.635668">
        <ele>339.315506</ele>
        <time>2022-07-23T08:00:27.999Z</time>
      </trkpt>
      <trkpt lat="49.201301" lon="9.635555">
        <ele>339.012638</ele>
        <time>2022-07-23T08:00:30.999Z</time>
      </trkpt>
      <trkpt lat="49.201184" lon="9.635480">
        <ele>338.647602</ele>
        <time>2022-07-23T08:00:33.999Z</time>
      </trkpt>
      <trkpt lat="49.201087" lon="9.635553">
        <ele>338.520673</ele>
        <time>2022-07-23T08:00:35.999Z</time>
      </trkpt>
      <trkpt lat="49.201032" lon="9.635701">
        <ele>338.672181</ele>
        <time>2022-07-23T08:00:37.999Z</time>
      </trkpt>
      <trkpt lat="49.200967" lon="9.635864">
        <ele>338.842105</ele>
        <time>2022-07-23T08:00:40.999Z</time>
      </trkpt>
      <trkpt lat="49.200897" lon="9.635961">
        <ele>338.970706</ele>
        <time>2022-07-23T08:00:43.999Z</time>
      </trkpt>
      <trkpt lat="49.200802" lon="9.636021">
        <ele>339.110667</ele>
        <time>2022-07-23T08:00:46.999Z</time>
      </trkpt>
      <trkpt lat="49.200708" lon="9.636005">
        <ele>339.239471</ele>
        <time>2022-07-23T08:00:56.999Z</time>
      </trkpt>
      <trkpt lat="49.200633" lon="9.636211">
        <ele>339.449316</ele>
        <time>2022-07-23T08:01:01.999Z</time>
      </trkpt>
      <trkpt lat="49.200627" lon="9.636355">
        <ele>339.577716</ele>
        <time>2022-07-23T08:01:03.999Z</time>
      </trkpt>
      <trkpt lat="49.200621" lon="9.636516">
        <ele>339.721216</ele>
        <time>2022-07-23T08:01:05.999Z</time>
      </trkpt>
      <trkpt lat="49.200614" lon="9.636692">
        <ele>339.878120</ele>
        <time>2022-07-23T08:01:07.999Z</time>
      </trkpt>
      <trkpt lat="49.200606" lon="9.636888">
        <ele>340.052872</ele>
        <time>2022-07-23T08:01:09.999Z</time>
      </trkpt>
      <trkpt lat="49.200598" lon="9.637097">
        <ele>340.239171</ele>
        <time>2022-07-23T08:01:11.999Z</time>
      </trkpt>
      <trkpt lat="49.200589" lon="9.637316">
        <ele>340.434435</ele>
        <time>2022-07-23T08:01:13.999Z</time>
      </trkpt>
      <trkpt lat="49.200581" lon="9.637537">
        <ele>340.631395</ele>
        <time>2022-07-23T08:01:15.999Z</time>
      </trkpt>
      <trkpt lat="49.200586" lon="9.637758">
        <ele>340.828172</ele>
        <time>2022-07-23T08:01:17.999Z</time>
      </trkpt>
      <trkpt lat="49.200577" lon="9.637980">
        <ele>341.026256</ele>
        <time>2022-07-23T08:01:19.999Z</time>
      </trkpt>
      <trkpt lat="49.200567" lon="9.638201">
        <ele>341.223653</ele>
        <time>2022-07-23T08:01:21.999Z</time>
      </trkpt>
      <trkpt lat="49.200561" lon="9.638420">
        <ele>341.418967</ele>
        <time>2022-07-23T08:01:23.999Z</time>
      </trkpt>
      <trkpt lat="49.200551" lon="9.638645">
        <ele>341.619920</ele>
        <time>2022-07-23T08:01:25.999Z</time>
      </trkpt>
      <trkpt lat="49.200542" lon="9.638868">
        <ele>341.819006</ele>
        <time>2022-07-23T08:01:28.000Z</time>
      </trkpt>
      <trkpt lat="49.200533" lon="9.639092">
        <ele>342.018981</ele>
        <time>2022-07-23T08:01:30.000Z</time>
      </trkpt>
      <trkpt lat="49.200522" lon="9.639316">
        <ele>342.219143</ele>
        <time>2022-07-23T08:01:32.000Z</time>
      </trkpt>
      <trkpt lat="49.200512" lon="9.639538">
        <ele>342.417428</ele>
        <time>2022-07-23T08:01:34.000Z</time>
      </trkpt>
      <trkpt lat="49.200504" lon="9.639756">
        <ele>342.611987</ele>
        <time>2022-07-23T08:01:36.000Z</time>
      </trkpt>
      <trkpt lat="49.200497" lon="9.639966">
        <ele>342.799354</ele>
        <time>2022-07-23T08:01:38.000Z</time>
      </trkpt>
      <trkpt lat="49.200488" lon="9.640172">
        <ele>342.983323</ele>
        <time>2022-07-23T08:01:40.000Z</time>
      </trkpt>
      <trkpt lat="49.200480" lon="9.640376">
        <ele>343.165428</ele>
        <time>2022-07-23T08:01:42.000Z</time>
      </trkpt>
      <trkpt lat="49.200471" lon="9.640576">
        <ele>343.344063</ele>
        <time>2022-07-23T08:01:44.000Z</time>
      </trkpt>
      <trkpt lat="49.200460" lon="9.640768">
        <ele>344.035823</ele>
        <time>2022-07-23T08:01:46.000Z</time>
      </trkpt>
      <trkpt lat="49.200451" lon="9.640963">
        <ele>344.806126</ele>
        <time>2022-07-23T08:01:48.000Z</time>
      </trkpt>
      <trkpt lat="49.200435" lon="9.641158">
        <ele>345.580550</ele>
        <time>2022-07-23T08:01:50.000Z</time>
      </trkpt>
      <trkpt lat="49.200410" lon="9.641348">
        <ele>346.344266</ele>
        <time>2022-07-23T08:01:52.000Z</time>
      </trkpt>
      <trkpt lat="49.200375" lon="9.641535">
        <ele>347.110766</ele>
        <time>2022-07-23T08:01:54.000Z</time>
      </trkpt>
      <trkpt lat="49.200328" lon="9.641719">
        <ele>347.889243</ele>
        <time>2022-07-23T08:01:55.999Z</time>
      </trkpt>
      <trkpt lat="49.200277" lon="9.641898">
        <ele>348.658725</ele>
        <time>2022-07-23T08:01:57.999Z</time>
      </trkpt>
      <trkpt lat="49.200223" lon="9.642073">
        <ele>349.421334</ele>
        <time>2022-07-23T08:01:59.999Z</time>
      </trkpt>
      <trkpt lat="49.200169" lon="9.642246">
        <ele>350.176825</ele>
        <time>2022-07-23T08:02:01.999Z</time>
      </trkpt>
      <trkpt lat="49.200121" lon="9.642424">
        <ele>350.935614</ele>
        <time>2022-07-23T08:02:03.999Z</time>
      </trkpt>
      <trkpt lat="49.200080" lon="9.642605">
        <ele>351.690484</ele>
        <time>2022-07-23T08:02:05.999Z</time>
      </trkpt>
      <trkpt lat="49.200045" lon="9.642785">
        <ele>352.430510</ele>
        <time>2022-07-23T08:02:07.999Z</time>
      </trkpt>
      <trkpt lat="49.200012" lon="9.642969">
        <ele>353.182376</ele>
        <time>2022-07-23T08:02:09.999Z</time>
      </trkpt>
      <trkpt lat="49.199980" lon="9.643152">
        <ele>353.928862</ele>
        <time>2022-07-23T08:02:11.999Z</time>
      </trkpt>
      <trkpt lat="49.199949" lon="9.643339">
        <ele>354.769443</ele>
        <time>2022-07-23T08:02:13.999Z</time>
      </trkpt>
      <trkpt lat="49.199918" lon="9.643524">
        <ele>355.648446</ele>
        <time>2022-07-23T08:02:15.999Z</time>
      </trkpt>
      <trkpt lat="49.199888" lon="9.643708">
        <ele>356.521260</ele>
        <time>2022-07-23T08:02:17.999Z</time>
      </trkpt>
      <trkpt lat="49.199858" lon="9.643895">
        <ele>357.407478</ele>
        <time>2022-07-23T08:02:19.999Z</time>
      </trkpt>
      <trkpt lat="49.199826" lon="9.644083">
        <ele>358.301613</ele>
        <time>2022-07-23T08:02:21.999Z</time>
      </trkpt>
      <trkpt lat="49.199793" lon="9.644273">
        <ele>359.206444</ele>
        <time>2022-07-23T08:02:23.999Z</time>
      </trkpt>
      <trkpt lat="49.199760" lon="9.644463">
        <ele>360.111274</ele>
        <time>2022-07-23T08:02:25.999Z</time>
      </trkpt>
      <trkpt lat="49.199723" lon="9.644656">
        <ele>361.036990</ele>
        <time>2022-07-23T08:02:27.999Z</time>
      </trkpt>
      <trkpt lat="49.199679" lon="9.644844">
        <ele>361.956082</ele>
        <time>2022-07-23T08:02:29.999Z</time>
      </trkpt>
      <trkpt lat="49.199623" lon="9.645024">
        <ele>362.873634</ele>
        <time>2022-07-23T08:02:31.999Z</time>
      </trkpt>
      <trkpt lat="49.199566" lon="9.645199">
        <ele>363.773585</ele>
        <time>2022-07-23T08:02:33.999Z</time>
      </trkpt>
      <trkpt lat="49.199503" lon="9.645368">
        <ele>364.669081</ele>
        <time>2022-07-23T08:02:35.999Z</time>
      </trkpt>
      <trkpt lat="49.199442" lon="9.645538">
        <ele>365.561712</ele>
        <time>2022-07-23T08:02:37.999Z</time>
      </trkpt>
      <trkpt lat="49.199382" lon="9.645711">
        <ele>366.463148</ele>
        <time>2022-07-23T08:02:39.999Z</time>
      </trkpt>
      <trkpt lat="49.199327" lon="9.645885">
        <ele>367.258468</ele>
        <time>2022-07-23T08:02:41.999Z</time>
      </trkpt>
      <trkpt lat="49.199275" lon="9.646063">
        <ele>367.977025</ele>
        <time>2022-07-23T08:02:43.999Z</time>
      </trkpt>
      <trkpt lat="49.199234" lon="9.646243">
        <ele>368.679527</ele>
        <time>2022-07-23T08:02:45.999Z</time>
      </trkpt>
      <trkpt lat="49.199206" lon="9.646433">
        <ele>369.397322</ele>
        <time>2022-07-23T08:02:47.999Z</time>
      </trkpt>
      <trkpt lat="49.199188" lon="9.646628">
        <ele>370.123091</ele>
        <time>2022-07-23T08:02:49.999Z</time>
      </trkpt>
      <trkpt lat="49.199177" lon="9.646822">
        <ele>370.840727</ele>
        <time>2022-07-23T08:02:51.999Z</time>
      </trkpt>
      <trkpt lat="49.199173" lon="9.647018">
        <ele>371.563400</ele>
        <time>2022-07-23T08:02:53.999Z</time>
      </trkpt>
      <trkpt lat="49.199179" lon="9.647213">
        <ele>372.282831</ele>
        <time>2022-07-23T08:02:55.999Z</time>
      </trkpt>
      <trkpt lat="49.199196" lon="9.647404">
        <ele>372.993224</ele>
        <time>2022-07-23T08:02:57.999Z</time>
      </trkpt>
      <trkpt lat="49.199217" lon="9.647598">
        <ele>373.717917</ele>
        <time>2022-07-23T08:02:59.999Z</time>
      </trkpt>
      <trkpt lat="49.199240" lon="9.647791">
        <ele>374.440913</ele>
        <time>2022-07-23T08:03:01.999Z</time>
      </trkpt>
      <trkpt lat="49.199262" lon="9.647985">
        <ele>375.166548</ele>
        <time>2022-07-23T08:03:03.999Z</time>
      </trkpt>
      <trkpt lat="49.199282" lon="9.648182">
        <ele>375.901262</ele>
        <time>2022-07-23T08:03:05.999Z</time>
      </trkpt>
      <trkpt lat="49.199301" lon="9.648381">
        <ele>376.642424</ele>
        <time>2022-07-23T08:03:07.999Z</time>
      </trkpt>
      <trkpt lat="49.199311" lon="9.648580">
        <ele>377.161764</ele>
        <time>2022-07-23T08:03:09.999Z</time>
      </trkpt>
      <trkpt lat="49.199310" lon="9.648773">
        <ele>377.438826</ele>
        <time>2022-07-23T08:03:11.999Z</time>
      </trkpt>
      <trkpt lat="49.199305" lon="9.648959">
        <ele>377.706056</ele>
        <time>2022-07-23T08:03:13.999Z</time>
      </trkpt>
      <trkpt lat="49.199289" lon="9.649153">
        <ele>377.986754</ele>
        <time>2022-07-23T08:03:15.999Z</time>
      </trkpt>
      <trkpt lat="49.199265" lon="9.649351">
        <ele>378.275834</ele>
        <time>2022-07-23T08:03:17.999Z</time>
      </trkpt>
      <trkpt lat="49.199229" lon="9.649548">
        <ele>378.569481</ele>
        <time>2022-07-23T08:03:19.999Z</time>
      </trkpt>
      <trkpt lat="49.199181" lon="9.649738">
        <ele>378.861903</ele>
        <time>2022-07-23T08:03:21.999Z</time>
      </trkpt>
      <trkpt lat="49.199129" lon="9.649926">
        <ele>379.154962</ele>
        <time>2022-07-23T08:03:23.999Z</time>
      </trkpt>
      <trkpt lat="49.199067" lon="9.650100">
        <ele>379.439465</ele>
        <time>2022-07-23T08:03:25.999Z</time>
      </trkpt>
      <trkpt lat="49.198999" lon="9.650263">
        <ele>379.717076</ele>
        <time>2022-07-23T08:03:27.999Z</time>
      </trkpt>
      <trkpt lat="49.198923" lon="9.650416">
        <ele>379.992967</ele>
        <time>2022-07-23T08:03:29.999Z</time>
      </trkpt>
      <trkpt lat="49.198846" lon="9.650559">
        <ele>380.258965</ele>
        <time>2022-07-23T08:03:31.999Z</time>
      </trkpt>
      <trkpt lat="49.198763" lon="9.650698">
        <ele>380.529267</ele>
        <time>2022-07-23T08:03:34.000Z</time>
      </trkpt>
      <trkpt lat="49.198676" lon="9.650833">
        <ele>380.801457</ele>
        <time>2022-07-23T08:03:36.000Z</time>
      </trkpt>
      <trkpt lat="49.198592" lon="9.650959">
        <ele>381.262175</ele>
        <time>2022-07-23T08:03:38.000Z</time>
      </trkpt>
      <trkpt lat="49.198507" lon="9.651076">
        <ele>382.113718</ele>
        <time>2022-07-23T08:03:40.000Z</time>
      </trkpt>
      <trkpt lat="49.198427" lon="9.651178">
        <ele>382.889306</ele>
        <time>2022-07-23T08:03:42.000Z</time>
      </trkpt>
      <trkpt lat="49.198343" lon="9.651257">
        <ele>383.623685</ele>
        <time>2022-07-23T08:03:44.000Z</time>
      </trkpt>
      <trkpt lat="49.198242" lon="9.651246">
        <ele>384.377887</ele>
        <time>2022-07-23T08:03:46.000Z</time>
      </trkpt>
      <trkpt lat="49.198172" lon="9.651141">
        <ele>385.107976</ele>
        <time>2022-07-23T08:03:48.000Z</time>
      </trkpt>
      <trkpt lat="49.198117" lon="9.651019">
        <ele>385.829380</ele>
        <time>2022-07-23T08:03:50.000Z</time>
      </trkpt>
      <trkpt lat="49.198054" lon="9.650911">
        <ele>386.534019</ele>
        <time>2022-07-23T08:03:52.000Z</time>
      </trkpt>
      <trkpt lat="49.197994" lon="9.650800">
        <ele>387.235168</ele>
        <time>2022-07-23T08:03:54.000Z</time>
      </trkpt>
      <trkpt lat="49.197937" lon="9.650685">
        <ele>387.937700</ele>
        <time>2022-07-23T08:03:56.000Z</time>
      </trkpt>
      <trkpt lat="49.197882" lon="9.650575">
        <ele>388.611847</ele>
        <time>2022-07-23T08:03:57.999Z</time>
      </trkpt>
      <trkpt lat="49.197827" lon="9.650465">
        <ele>389.285994</ele>
        <time>2022-07-23T08:03:59.999Z</time>
      </trkpt>
      <trkpt lat="49.197750" lon="9.650298">
        <ele>390.280796</ele>
        <time>2022-07-23T08:04:02.999Z</time>
      </trkpt>
      <trkpt lat="49.197680" lon="9.650128">
        <ele>391.258800</ele>
        <time>2022-07-23T08:04:05.999Z</time>
      </trkpt>
      <trkpt lat="49.197613" lon="9.649954">
        <ele>392.241801</ele>
        <time>2022-07-23T08:04:08.999Z</time>
      </trkpt>
      <trkpt lat="49.197550" lon="9.649784">
        <ele>393.193034</ele>
        <time>2022-07-23T08:04:11.999Z</time>
      </trkpt>
      <trkpt lat="49.197490" lon="9.649618">
        <ele>394.116362</ele>
        <time>2022-07-23T08:04:14.999Z</time>
      </trkpt>
      <trkpt lat="49.197426" lon="9.649457">
        <ele>395.242107</ele>
        <time>2022-07-23T08:04:17.999Z</time>
      </trkpt>
      <trkpt lat="49.197365" lon="9.649294">
        <ele>396.444691</ele>
        <time>2022-07-23T08:04:20.999Z</time>
      </trkpt>
      <trkpt lat="49.197312" lon="9.649138">
        <ele>397.570364</ele>
        <time>2022-07-23T08:04:23.999Z</time>
      </trkpt>
      <trkpt lat="49.197254" lon="9.648974">
        <ele>398.764244</ele>
        <time>2022-07-23T08:04:27.999Z</time>
      </trkpt>
      <trkpt lat="49.197196" lon="9.648824">
        <ele>399.880113</ele>
        <time>2022-07-23T08:04:30.999Z</time>
      </trkpt>
      <trkpt lat="49.197132" lon="9.648658">
        <ele>401.114079</ele>
        <time>2022-07-23T08:04:33.999Z</time>
      </trkpt>
      <trkpt lat="49.197068" lon="9.648486">
        <ele>402.381281</ele>
        <time>2022-07-23T08:04:36.999Z</time>
      </trkpt>
      <trkpt lat="49.197006" lon="9.648312">
        <ele>403.650130</ele>
        <time>2022-07-23T08:04:39.999Z</time>
      </trkpt>
      <trkpt lat="49.196946" lon="9.648136">
        <ele>404.921056</ele>
        <time>2022-07-23T08:04:42.999Z</time>
      </trkpt>
      <trkpt lat="49.196896" lon="9.647958">
        <ele>406.161493</ele>
        <time>2022-07-23T08:04:45.999Z</time>
      </trkpt>
      <trkpt lat="49.196852" lon="9.647775">
        <ele>407.409906</ele>
        <time>2022-07-23T08:04:48.999Z</time>
      </trkpt>
      <trkpt lat="49.196809" lon="9.647590">
        <ele>408.667027</ele>
        <time>2022-07-23T08:04:51.999Z</time>
      </trkpt>
      <trkpt lat="49.196768" lon="9.647404">
        <ele>409.923784</ele>
        <time>2022-07-23T08:04:54.999Z</time>
      </trkpt>
      <trkpt lat="49.196729" lon="9.647218">
        <ele>411.174416</ele>
        <time>2022-07-23T08:04:57.999Z</time>
      </trkpt>
      <trkpt lat="49.196690" lon="9.647034">
        <ele>412.232143</ele>
        <time>2022-07-23T08:05:00.999Z</time>
      </trkpt>
      <trkpt lat="49.196651" lon="9.646848">
        <ele>412.942341</ele>
        <time>2022-07-23T08:05:03.999Z</time>
      </trkpt>
      <trkpt lat="49.196610" lon="9.646660">
        <ele>413.662912</ele>
        <time>2022-07-23T08:05:06.999Z</time>
      </trkpt>
      <trkpt lat="49.196568" lon="9.646468">
        <ele>414.399040</ele>
        <time>2022-07-23T08:05:09.999Z</time>
      </trkpt>
      <trkpt lat="49.196525" lon="9.646284">
        <ele>415.109502</ele>
        <time>2022-07-23T08:05:12.999Z</time>
      </trkpt>
      <trkpt lat="49.196480" lon="9.646115">
        <ele>415.772988</ele>
        <time>2022-07-23T08:05:14.999Z</time>
      </trkpt>
      <trkpt lat="49.196422" lon="9.645943">
        <ele>416.476682</ele>
        <time>2022-07-23T08:05:16.999Z</time>
      </trkpt>
      <trkpt lat="49.196355" lon="9.645764">
        <ele>417.226674</ele>
        <time>2022-07-23T08:05:18.999Z</time>
      </trkpt>
      <trkpt lat="49.196281" lon="9.645582">
        <ele>418.006005</ele>
        <time>2022-07-23T08:05:20.999Z</time>
      </trkpt>
      <trkpt lat="49.196198" lon="9.645409">
        <ele>418.786304</ele>
        <time>2022-07-23T08:05:22.999Z</time>
      </trkpt>
      <trkpt lat="49.196109" lon="9.645236">
        <ele>419.586811</ele>
        <time>2022-07-23T08:05:24.999Z</time>
      </trkpt>
      <trkpt lat="49.196024" lon="9.645061">
        <ele>420.379571</ele>
        <time>2022-07-23T08:05:26.999Z</time>
      </trkpt>
      <trkpt lat="49.195938" lon="9.644897">
        <ele>421.144079</ele>
        <time>2022-07-23T08:05:28.999Z</time>
      </trkpt>
      <trkpt lat="49.195853" lon="9.644739">
        <ele>421.888149</ele>
        <time>2022-07-23T08:05:30.999Z</time>
      </trkpt>
      <trkpt lat="49.195771" lon="9.644580">
        <ele>422.653665</ele>
        <time>2022-07-23T08:05:32.999Z</time>
      </trkpt>
      <trkpt lat="49.195692" lon="9.644427">
        <ele>423.395743</ele>
        <time>2022-07-23T08:05:34.999Z</time>
      </trkpt>
      <trkpt lat="49.195607" lon="9.644272">
        <ele>424.165791</ele>
        <time>2022-07-23T08:05:36.999Z</time>
      </trkpt>
      <trkpt lat="49.195522" lon="9.644117">
        <ele>424.935839</ele>
        <time>2022-07-23T08:05:38.999Z</time>
      </trkpt>
      <trkpt lat="49.195438" lon="9.643964">
        <ele>425.696315</ele>
        <time>2022-07-23T08:05:40.999Z</time>
      </trkpt>
      <trkpt lat="49.195359" lon="9.643816">
        <ele>426.423561</ele>
        <time>2022-07-23T08:05:42.999Z</time>
      </trkpt>
      <trkpt lat="49.195264" lon="9.643684">
        <ele>427.170839</ele>
        <time>2022-07-23T08:05:44.999Z</time>
      </trkpt>
      <trkpt lat="49.195154" lon="9.643592">
        <ele>427.900869</ele>
        <time>2022-07-23T08:05:46.999Z</time>
      </trkpt>
      <trkpt lat="49.195032" lon="9.643531">
        <ele>428.648312</ele>
        <time>2022-07-23T08:05:48.999Z</time>
      </trkpt>
      <trkpt lat="49.194909" lon="9.643507">
        <ele>429.370414</ele>
        <time>2022-07-23T08:05:50.999Z</time>
      </trkpt>
      <trkpt lat="49.194788" lon="9.643508">
        <ele>430.075080</ele>
        <time>2022-07-23T08:05:52.999Z</time>
      </trkpt>
      <trkpt lat="49.194663" lon="9.643528">
        <ele>430.806998</ele>
        <time>2022-07-23T08:05:55.000Z</time>
      </trkpt>
      <trkpt lat="49.194543" lon="9.643536">
        <ele>431.506492</ele>
        <time>2022-07-23T08:05:57.000Z</time>
      </trkpt>
      <trkpt lat="49.194420" lon="9.643560">
        <ele>432.228594</ele>
        <time>2022-07-23T08:05:58.999Z</time>
      </trkpt>
      <trkpt lat="49.194297" lon="9.643592">
        <ele>433.151782</ele>
        <time>2022-07-23T08:06:00.999Z</time>
      </trkpt>
      <trkpt lat="49.194169" lon="9.643624">
        <ele>434.217229</ele>
        <time>2022-07-23T08:06:02.999Z</time>
      </trkpt>
      <trkpt lat="49.194042" lon="9.643661">
        <ele>435.279261</ele>
        <time>2022-07-23T08:06:04.999Z</time>
      </trkpt>
      <trkpt lat="49.193915" lon="9.643703">
        <ele>436.346639</ele>
        <time>2022-07-23T08:06:06.999Z</time>
      </trkpt>
      <trkpt lat="49.193789" lon="9.643747">
        <ele>437.408326</ele>
        <time>2022-07-23T08:06:08.999Z</time>
      </trkpt>
      <trkpt lat="49.193666" lon="9.643798">
        <ele>438.455195</ele>
        <time>2022-07-23T08:06:10.999Z</time>
      </trkpt>
      <trkpt lat="49.193545" lon="9.643850">
        <ele>439.487654</ele>
        <time>2022-07-23T08:06:12.999Z</time>
      </trkpt>
      <trkpt lat="49.193425" lon="9.643917">
        <ele>440.537012</ele>
        <time>2022-07-23T08:06:14.999Z</time>
      </trkpt>
      <trkpt lat="49.193305" lon="9.643992">
        <ele>441.601857</ele>
        <time>2022-07-23T08:06:16.999Z</time>
      </trkpt>
      <trkpt lat="49.193186" lon="9.644059">
        <ele>442.643502</ele>
        <time>2022-07-23T08:06:18.999Z</time>
      </trkpt>
      <trkpt lat="49.193068" lon="9.644123">
        <ele>443.671950</ele>
        <time>2022-07-23T08:06:20.999Z</time>
      </trkpt>
      <trkpt lat="49.192947" lon="9.644172">
        <ele>444.700172</ele>
        <time>2022-07-23T08:06:22.999Z</time>
      </trkpt>
      <trkpt lat="49.192823" lon="9.644190">
        <ele>445.723393</ele>
        <time>2022-07-23T08:06:24.999Z</time>
      </trkpt>
      <trkpt lat="49.192699" lon="9.644199">
        <ele>446.743185</ele>
        <time>2022-07-23T08:06:26.999Z</time>
      </trkpt>
      <trkpt lat="49.192573" lon="9.644207">
        <ele>447.804304</ele>
        <time>2022-07-23T08:06:28.999Z</time>
      </trkpt>
      <trkpt lat="49.192447" lon="9.644212">
        <ele>448.889137</ele>
        <time>2022-07-23T08:06:30.999Z</time>
      </trkpt>
      <trkpt lat="49.192321" lon="9.644218">
        <ele>449.974129</ele>
        <time>2022-07-23T08:06:32.999Z</time>
      </trkpt>
      <trkpt lat="49.192190" lon="9.644237">
        <ele>451.106685</ele>
        <time>2022-07-23T08:06:34.999Z</time>
      </trkpt>
      <trkpt lat="49.192060" lon="9.644274">
        <ele>452.244770</ele>
        <time>2022-07-23T08:06:36.999Z</time>
      </trkpt>
      <trkpt lat="49.191938" lon="9.644324">
        <ele>453.331822</ele>
        <time>2022-07-23T08:06:38.999Z</time>
      </trkpt>
      <trkpt lat="49.191823" lon="9.644384">
        <ele>454.377569</ele>
        <time>2022-07-23T08:06:40.999Z</time>
      </trkpt>
      <trkpt lat="49.191718" lon="9.644455">
        <ele>455.365601</ele>
        <time>2022-07-23T08:06:42.999Z</time>
      </trkpt>
      <trkpt lat="49.191630" lon="9.644530">
        <ele>456.232569</ele>
        <time>2022-07-23T08:06:44.999Z</time>
      </trkpt>
      <trkpt lat="49.191547" lon="9.644605">
        <ele>457.062206</ele>
        <time>2022-07-23T08:06:46.999Z</time>
      </trkpt>
      <trkpt lat="49.191469" lon="9.644675">
        <ele>457.840490</ele>
        <time>2022-07-23T08:06:48.999Z</time>
      </trkpt>
      <trkpt lat="49.191359" lon="9.644787">
        <ele>458.977694</ele>
        <time>2022-07-23T08:06:51.999Z</time>
      </trkpt>
      <trkpt lat="49.191282" lon="9.644867">
        <ele>459.778759</ele>
        <time>2022-07-23T08:06:53.999Z</time>
      </trkpt>
      <trkpt lat="49.191200" lon="9.644965">
        <ele>460.674287</ele>
        <time>2022-07-23T08:06:55.999Z</time>
      </trkpt>
      <trkpt lat="49.191112" lon="9.645062">
        <ele>461.607755</ele>
        <time>2022-07-23T08:06:57.999Z</time>
      </trkpt>
      <trkpt lat="49.191012" lon="9.645185">
        <ele>462.712048</ele>
        <time>2022-07-23T08:06:59.999Z</time>
      </trkpt>
      <trkpt lat="49.190905" lon="9.645291">
        <ele>463.643240</ele>
        <time>2022-07-23T08:07:01.999Z</time>
      </trkpt>
      <trkpt lat="49.190784" lon="9.645372">
        <ele>464.604768</ele>
        <time>2022-07-23T08:07:03.999Z</time>
      </trkpt>
      <trkpt lat="49.190662" lon="9.645438">
        <ele>465.546840</ele>
        <time>2022-07-23T08:07:05.999Z</time>
      </trkpt>
      <trkpt lat="49.190539" lon="9.645491">
        <ele>466.477143</ele>
        <time>2022-07-23T08:07:07.999Z</time>
      </trkpt>
      <trkpt lat="49.190414" lon="9.645520">
        <ele>467.397578</ele>
        <time>2022-07-23T08:07:09.999Z</time>
      </trkpt>
      <trkpt lat="49.190286" lon="9.645549">
        <ele>468.339612</ele>
        <time>2022-07-23T08:07:11.999Z</time>
      </trkpt>
      <trkpt lat="49.190160" lon="9.645571">
        <ele>469.262879</ele>
        <time>2022-07-23T08:07:13.999Z</time>
      </trkpt>
      <trkpt lat="49.190037" lon="9.645597">
        <ele>470.166857</ele>
        <time>2022-07-23T08:07:15.999Z</time>
      </trkpt>
      <trkpt lat="49.189919" lon="9.645624">
        <ele>471.035482</ele>
        <time>2022-07-23T08:07:17.999Z</time>
      </trkpt>
      <trkpt lat="49.189797" lon="9.645648">
        <ele>471.930985</ele>
        <time>2022-07-23T08:07:19.999Z</time>
      </trkpt>
      <trkpt lat="49.189674" lon="9.645679">
        <ele>472.838525</ele>
        <time>2022-07-23T08:07:21.999Z</time>
      </trkpt>
      <trkpt lat="49.189549" lon="9.645698">
        <ele>473.753038</ele>
        <time>2022-07-23T08:07:23.999Z</time>
      </trkpt>
      <trkpt lat="49.189425" lon="9.645680">
        <ele>474.659845</ele>
        <time>2022-07-23T08:07:25.999Z</time>
      </trkpt>
      <trkpt lat="49.189311" lon="9.645609">
        <ele>475.555917</ele>
        <time>2022-07-23T08:07:27.999Z</time>
      </trkpt>
      <trkpt lat="49.189230" lon="9.645471">
        <ele>476.468311</ele>
        <time>2022-07-23T08:07:29.999Z</time>
      </trkpt>
      <trkpt lat="49.189251" lon="9.645296">
        <ele>477.356243</ele>
        <time>2022-07-23T08:07:31.999Z</time>
      </trkpt>
      <trkpt lat="49.189344" lon="9.645224">
        <ele>478.152101</ele>
        <time>2022-07-23T08:07:33.999Z</time>
      </trkpt>
      <trkpt lat="49.189449" lon="9.645252">
        <ele>478.965945</ele>
        <time>2022-07-23T08:07:35.999Z</time>
      </trkpt>
      <trkpt lat="49.189552" lon="9.645290">
        <ele>479.774972</ele>
        <time>2022-07-23T08:07:37.999Z</time>
      </trkpt>
      <trkpt lat="49.189663" lon="9.645304">
        <ele>480.625420</ele>
        <time>2022-07-23T08:07:39.999Z</time>
      </trkpt>
      <trkpt lat="49.189776" lon="9.645270">
        <ele>481.504790</ele>
        <time>2022-07-23T08:07:41.999Z</time>
      </trkpt>
      <trkpt lat="49.189883" lon="9.645201">
        <ele>482.391418</ele>
        <time>2022-07-23T08:07:43.999Z</time>
      </trkpt>
      <trkpt lat="49.189975" lon="9.645096">
        <ele>483.267811</ele>
        <time>2022-07-23T08:07:46.000Z</time>
      </trkpt>
      <trkpt lat="49.190053" lon="9.644964">
        <ele>484.155875</ele>
        <time>2022-07-23T08:07:48.000Z</time>
      </trkpt>
      <trkpt lat="49.190128" lon="9.644831">
        <ele>485.032513</ele>
        <time>2022-07-23T08:07:50.000Z</time>
      </trkpt>
      <trkpt lat="49.190200" lon="9.644695">
        <ele>485.905942</ele>
        <time>2022-07-23T08:07:52.000Z</time>
      </trkpt>
      <trkpt lat="49.190278" lon="9.644563">
        <ele>486.794004</ele>
        <time>2022-07-23T08:07:54.000Z</time>
      </trkpt>
      <trkpt lat="49.190362" lon="9.644443">
        <ele>487.671510</ele>
        <time>2022-07-23T08:07:56.000Z</time>
      </trkpt>
      <trkpt lat="49.190456" lon="9.644333">
        <ele>488.575126</ele>
        <time>2022-07-23T08:07:58.000Z</time>
      </trkpt>
      <trkpt lat="49.190552" lon="9.644230">
        <ele>489.470416</ele>
        <time>2022-07-23T08:08:00.000Z</time>
      </trkpt>
      <trkpt lat="49.190648" lon="9.644139">
        <ele>490.303476</ele>
        <time>2022-07-23T08:08:02.000Z</time>
      </trkpt>
      <trkpt lat="49.190748" lon="9.644044">
        <ele>491.168180</ele>
        <time>2022-07-23T08:08:04.000Z</time>
      </trkpt>
      <trkpt lat="49.190845" lon="9.643945">
        <ele>492.024744</ele>
        <time>2022-07-23T08:08:06.000Z</time>
      </trkpt>
      <trkpt lat="49.190944" lon="9.643856">
        <ele>492.868262</ele>
        <time>2022-07-23T08:08:08.000Z</time>
      </trkpt>
      <trkpt lat="49.191042" lon="9.643762">
        <ele>493.717957</ele>
        <time>2022-07-23T08:08:09.999Z</time>
      </trkpt>
      <trkpt lat="49.191139" lon="9.643661">
        <ele>494.579885</ele>
        <time>2022-07-23T08:08:11.999Z</time>
      </trkpt>
      <trkpt lat="49.191234" lon="9.643558">
        <ele>495.435222</ele>
        <time>2022-07-23T08:08:13.999Z</time>
      </trkpt>
      <trkpt lat="49.191333" lon="9.643462">
        <ele>496.296250</ele>
        <time>2022-07-23T08:08:15.999Z</time>
      </trkpt>
      <trkpt lat="49.191425" lon="9.643353">
        <ele>497.151026</ele>
        <time>2022-07-23T08:08:17.999Z</time>
      </trkpt>
      <trkpt lat="49.191479" lon="9.643197">
        <ele>497.998561</ele>
        <time>2022-07-23T08:08:19.999Z</time>
      </trkpt>
      <trkpt lat="49.191476" lon="9.643024">
        <ele>498.829433</ele>
        <time>2022-07-23T08:08:21.999Z</time>
      </trkpt>
      <trkpt lat="49.191427" lon="9.642870">
        <ele>499.651766</ele>
        <time>2022-07-23T08:08:23.999Z</time>
      </trkpt>
      <trkpt lat="49.191340" lon="9.642760">
        <ele>500.480855</ele>
        <time>2022-07-23T08:08:25.999Z</time>
      </trkpt>
      <trkpt lat="49.191240" lon="9.642677">
        <ele>501.316601</ele>
        <time>2022-07-23T08:08:27.999Z</time>
      </trkpt>
      <trkpt lat="49.191139" lon="9.642601">
        <ele>502.143441</ele>
        <time>2022-07-23T08:08:29.999Z</time>
      </trkpt>
      <trkpt lat="49.191030" lon="9.642527">
        <ele>502.914946</ele>
        <time>2022-07-23T08:08:31.999Z</time>
      </trkpt>
      <trkpt lat="49.190918" lon="9.642455">
        <ele>503.426179</ele>
        <time>2022-07-23T08:08:33.999Z</time>
      </trkpt>
      <trkpt lat="49.190807" lon="9.642388">
        <ele>503.928327</ele>
        <time>2022-07-23T08:08:35.999Z</time>
      </trkpt>
      <trkpt lat="49.190691" lon="9.642332">
        <ele>504.440205</ele>
        <time>2022-07-23T08:08:37.999Z</time>
      </trkpt>
      <trkpt lat="49.190575" lon="9.642300">
        <ele>504.936233</ele>
        <time>2022-07-23T08:08:39.999Z</time>
      </trkpt>
      <trkpt lat="49.190457" lon="9.642324">
        <ele>505.437175</ele>
        <time>2022-07-23T08:08:41.999Z</time>
      </trkpt>
      <trkpt lat="49.190342" lon="9.642385">
        <ele>505.949379</ele>
        <time>2022-07-23T08:08:43.999Z</time>
      </trkpt>
      <trkpt lat="49.190232" lon="9.642457">
        <ele>506.452864</ele>
        <time>2022-07-23T08:08:45.999Z</time>
      </trkpt>
      <trkpt lat="49.190131" lon="9.642533">
        <ele>506.926514</ele>
        <time>2022-07-23T08:08:47.999Z</time>
      </trkpt>
      <trkpt lat="49.190034" lon="9.642603">
        <ele>507.377838</ele>
        <time>2022-07-23T08:08:49.999Z</time>
      </trkpt>
      <trkpt lat="49.189945" lon="9.642657">
        <ele>507.780744</ele>
        <time>2022-07-23T08:08:51.999Z</time>
      </trkpt>
      <trkpt lat="49.189860" lon="9.642717">
        <ele>508.174676</ele>
        <time>2022-07-23T08:08:53.999Z</time>
      </trkpt>
      <trkpt lat="49.189745" lon="9.642792">
        <ele>508.700752</ele>
        <time>2022-07-23T08:08:56.999Z</time>
      </trkpt>
      <trkpt lat="49.189650" lon="9.642848">
        <ele>509.129179</ele>
        <time>2022-07-23T08:08:58.999Z</time>
      </trkpt>
      <trkpt lat="49.189561" lon="9.642913">
        <ele>509.544192</ele>
        <time>2022-07-23T08:09:00.999Z</time>
      </trkpt>
      <trkpt lat="49.189439" lon="9.642966">
        <ele>510.077892</ele>
        <time>2022-07-23T08:09:03.999Z</time>
      </trkpt>
      <trkpt lat="49.189330" lon="9.643002">
        <ele>510.291066</ele>
        <time>2022-07-23T08:09:06.999Z</time>
      </trkpt>
      <trkpt lat="49.189223" lon="9.643012">
        <ele>510.173700</ele>
        <time>2022-07-23T08:09:09.999Z</time>
      </trkpt>
      <trkpt lat="49.189101" lon="9.643015">
        <ele>510.040113</ele>
        <time>2022-07-23T08:09:12.999Z</time>
      </trkpt>
      <trkpt lat="49.188981" lon="9.642995">
        <ele>509.907955</ele>
        <time>2022-07-23T08:09:15.999Z</time>
      </trkpt>
      <trkpt lat="49.188862" lon="9.642960">
        <ele>509.775284</ele>
        <time>2022-07-23T08:09:18.999Z</time>
      </trkpt>
      <trkpt lat="49.188742" lon="9.642891">
        <ele>509.634933</ele>
        <time>2022-07-23T08:09:21.999Z</time>
      </trkpt>
      <trkpt lat="49.188616" lon="9.642836">
        <ele>509.491479</ele>
        <time>2022-07-23T08:09:24.999Z</time>
      </trkpt>
      <trkpt lat="49.188488" lon="9.642778">
        <ele>509.345324</ele>
        <time>2022-07-23T08:09:27.999Z</time>
      </trkpt>
      <trkpt lat="49.188393" lon="9.642779">
        <ele>509.241312</ele>
        <time>2022-07-23T08:09:29.999Z</time>
      </trkpt>
      <trkpt lat="49.188294" lon="9.642780">
        <ele>509.132921</ele>
        <time>2022-07-23T08:09:31.999Z</time>
      </trkpt>
      <trkpt lat="49.188195" lon="9.642777">
        <ele>509.024510</ele>
        <time>2022-07-23T08:09:33.999Z</time>
      </trkpt>
      <trkpt lat="49.188098" lon="9.642771">
        <ele>508.918224</ele>
        <time>2022-07-23T08:09:35.999Z</time>
      </trkpt>
      <trkpt lat="49.188002" lon="9.642786">
        <ele>508.812573</ele>
        <time>2022-07-23T08:09:37.999Z</time>
      </trkpt>
      <trkpt lat="49.187903" lon="9.642833">
        <ele>508.699087</ele>
        <time>2022-07-23T08:09:39.999Z</time>
      </trkpt>
      <trkpt lat="49.187798" lon="9.642857">
        <ele>508.582853</ele>
        <time>2022-07-23T08:09:41.999Z</time>
      </trkpt>
      <trkpt lat="49.187702" lon="9.642834">
        <ele>508.476468</ele>
        <time>2022-07-23T08:09:43.999Z</time>
      </trkpt>
      <trkpt lat="49.187617" lon="9.642765">
        <ele>508.372040</ele>
        <time>2022-07-23T08:09:45.999Z</time>
      </trkpt>
      <trkpt lat="49.187533" lon="9.642707">
        <ele>508.296955</ele>
        <time>2022-07-23T08:09:47.999Z</time>
      </trkpt>
      <trkpt lat="49.187415" lon="9.642626">
        <ele>508.191583</ele>
        <time>2022-07-23T08:09:51.000Z</time>
      </trkpt>
      <trkpt lat="49.187330" lon="9.642577">
        <ele>508.117578</ele>
        <time>2022-07-23T08:09:54.000Z</time>
      </trkpt>
      <trkpt lat="49.187234" lon="9.642548">
        <ele>508.037852</ele>
        <time>2022-07-23T08:09:57.000Z</time>
      </trkpt>
      <trkpt lat="49.187120" lon="9.642525">
        <ele>507.944168</ele>
        <time>2022-07-23T08:10:00.000Z</time>
      </trkpt>
      <trkpt lat="49.187016" lon="9.642481">
        <ele>507.856255</ele>
        <time>2022-07-23T08:10:02.000Z</time>
      </trkpt>
      <trkpt lat="49.186905" lon="9.642426">
        <ele>507.761194</ele>
        <time>2022-07-23T08:10:04.000Z</time>
      </trkpt>
      <trkpt lat="49.186796" lon="9.642345">
        <ele>507.662467</ele>
        <time>2022-07-23T08:10:06.000Z</time>
      </trkpt>
      <trkpt lat="49.186703" lon="9.642248">
        <ele>507.570764</ele>
        <time>2022-07-23T08:10:08.000Z</time>
      </trkpt>
      <trkpt lat="49.186613" lon="9.642125">
        <ele>507.472444</ele>
        <time>2022-07-23T08:10:10.000Z</time>
      </trkpt>
      <trkpt lat="49.186527" lon="9.641988">
        <ele>507.371291</ele>
        <time>2022-07-23T08:10:12.000Z</time>
      </trkpt>
      <trkpt lat="49.186457" lon="9.641837">
        <ele>507.272709</ele>
        <time>2022-07-23T08:10:14.000Z</time>
      </trkpt>
      <trkpt lat="49.186391" lon="9.641687">
        <ele>507.176418</ele>
        <time>2022-07-23T08:10:16.000Z</time>
      </trkpt>
      <trkpt lat="49.186335" lon="9.641531">
        <ele>507.081641</ele>
        <time>2022-07-23T08:10:18.000Z</time>
      </trkpt>
      <trkpt lat="49.186279" lon="9.641373">
        <ele>506.985929</ele>
        <time>2022-07-23T08:10:19.999Z</time>
      </trkpt>
      <trkpt lat="49.186213" lon="9.641216">
        <ele>506.875252</ele>
        <time>2022-07-23T08:10:21.999Z</time>
      </trkpt>
      <trkpt lat="49.186140" lon="9.641067">
        <ele>506.726983</ele>
        <time>2022-07-23T08:10:23.999Z</time>
      </trkpt>
      <trkpt lat="49.186062" lon="9.640918">
        <ele>506.574982</ele>
        <time>2022-07-23T08:10:25.999Z</time>
      </trkpt>
      <trkpt lat="49.185975" lon="9.640777">
        <ele>506.420588</ele>
        <time>2022-07-23T08:10:27.999Z</time>
      </trkpt>
      <trkpt lat="49.185879" lon="9.640644">
        <ele>506.262817</ele>
        <time>2022-07-23T08:10:29.999Z</time>
      </trkpt>
      <trkpt lat="49.185780" lon="9.640537">
        <ele>506.115155</ele>
        <time>2022-07-23T08:10:31.999Z</time>
      </trkpt>
      <trkpt lat="49.185676" lon="9.640438">
        <ele>505.965939</ele>
        <time>2022-07-23T08:10:33.999Z</time>
      </trkpt>
      <trkpt lat="49.185569" lon="9.640337">
        <ele>505.812777</ele>
        <time>2022-07-23T08:10:35.999Z</time>
      </trkpt>
      <trkpt lat="49.185466" lon="9.640222">
        <ele>505.657441</ele>
        <time>2022-07-23T08:10:37.999Z</time>
      </trkpt>
      <trkpt lat="49.185376" lon="9.640078">
        <ele>505.498798</ele>
        <time>2022-07-23T08:10:39.999Z</time>
      </trkpt>
      <trkpt lat="49.185325" lon="9.639899">
        <ele>505.343317</ele>
        <time>2022-07-23T08:10:41.999Z</time>
      </trkpt>
      <trkpt lat="49.185298" lon="9.639719">
        <ele>505.196266</ele>
        <time>2022-07-23T08:10:43.999Z</time>
      </trkpt>
      <trkpt lat="49.185280" lon="9.639533">
        <ele>505.046549</ele>
        <time>2022-07-23T08:10:45.999Z</time>
      </trkpt>
      <trkpt lat="49.185259" lon="9.639361">
        <ele>504.907225</ele>
        <time>2022-07-23T08:10:47.999Z</time>
      </trkpt>
      <trkpt lat="49.185234" lon="9.639214">
        <ele>504.786280</ele>
        <time>2022-07-23T08:10:49.999Z</time>
      </trkpt>
      <trkpt lat="49.185204" lon="9.639083">
        <ele>504.625395</ele>
        <time>2022-07-23T08:10:51.999Z</time>
      </trkpt>
      <trkpt lat="49.185162" lon="9.638900">
        <ele>504.287461</ele>
        <time>2022-07-23T08:10:54.999Z</time>
      </trkpt>
      <trkpt lat="49.185123" lon="9.638719">
        <ele>503.955403</ele>
        <time>2022-07-23T08:10:57.999Z</time>
      </trkpt>
      <trkpt lat="49.185078" lon="9.638526">
        <ele>503.598375</ele>
        <time>2022-07-23T08:11:00.999Z</time>
      </trkpt>
      <trkpt lat="49.185054" lon="9.638390">
        <ele>503.352931</ele>
        <time>2022-07-23T08:11:02.999Z</time>
      </trkpt>
      <trkpt lat="49.185028" lon="9.638188">
        <ele>502.994218</ele>
        <time>2022-07-23T08:11:05.999Z</time>
      </trkpt>
      <trkpt lat="49.185009" lon="9.638028">
        <ele>502.710878</ele>
        <time>2022-07-23T08:11:07.999Z</time>
      </trkpt>
      <trkpt lat="49.184984" lon="9.637855">
        <ele>502.402173</ele>
        <time>2022-07-23T08:11:09.999Z</time>
      </trkpt>
      <trkpt lat="49.184961" lon="9.637674">
        <ele>502.080903</ele>
        <time>2022-07-23T08:11:11.999Z</time>
      </trkpt>
      <trkpt lat="49.184930" lon="9.637491">
        <ele>501.751518</ele>
        <time>2022-07-23T08:11:13.999Z</time>
      </trkpt>
      <trkpt lat="49.184895" lon="9.637320">
        <ele>501.439309</ele>
        <time>2022-07-23T08:11:15.999Z</time>
      </trkpt>
      <trkpt lat="49.184861" lon="9.637146">
        <ele>501.122882</ele>
        <time>2022-07-23T08:11:17.999Z</time>
      </trkpt>
      <trkpt lat="49.184820" lon="9.636953">
        <ele>500.769293</ele>
        <time>2022-07-23T08:11:19.999Z</time>
      </trkpt>
      <trkpt lat="49.184778" lon="9.636759">
        <ele>500.413216</ele>
        <time>2022-07-23T08:11:21.999Z</time>
      </trkpt>
      <trkpt lat="49.184727" lon="9.636566">
        <ele>500.050500</ele>
        <time>2022-07-23T08:11:23.999Z</time>
      </trkpt>
      <trkpt lat="49.184672" lon="9.636382">
        <ele>499.737596</ele>
        <time>2022-07-23T08:11:25.999Z</time>
      </trkpt>
      <trkpt lat="49.184612" lon="9.636201">
        <ele>499.446117</ele>
        <time>2022-07-23T08:11:27.999Z</time>
      </trkpt>
      <trkpt lat="49.184548" lon="9.636016">
        <ele>499.145492</ele>
        <time>2022-07-23T08:11:29.999Z</time>
      </trkpt>
      <trkpt lat="49.184492" lon="9.635828">
        <ele>498.848763</ele>
        <time>2022-07-23T08:11:31.999Z</time>
      </trkpt>
      <trkpt lat="49.184438" lon="9.635636">
        <ele>498.548560</ele>
        <time>2022-07-23T08:11:33.999Z</time>
      </trkpt>
      <trkpt lat="49.184391" lon="9.635445">
        <ele>498.255442</ele>
        <time>2022-07-23T08:11:35.999Z</time>
      </trkpt>
      <trkpt lat="49.184350" lon="9.635247">
        <ele>497.957137</ele>
        <time>2022-07-23T08:11:37.999Z</time>
      </trkpt>
      <trkpt lat="49.184327" lon="9.635044">
        <ele>497.661232</ele>
        <time>2022-07-23T08:11:39.999Z</time>
      </trkpt>
      <trkpt lat="49.184319" lon="9.634836">
        <ele>497.361977</ele>
        <time>2022-07-23T08:11:41.999Z</time>
      </trkpt>
      <trkpt lat="49.184318" lon="9.634624">
        <ele>497.057486</ele>
        <time>2022-07-23T08:11:43.999Z</time>
      </trkpt>
      <trkpt lat="49.184314" lon="9.634424">
        <ele>496.770103</ele>
        <time>2022-07-23T08:11:45.999Z</time>
      </trkpt>
      <trkpt lat="49.184308" lon="9.634231">
        <ele>496.492594</ele>
        <time>2022-07-23T08:11:47.999Z</time>
      </trkpt>
      <trkpt lat="49.184298" lon="9.634043">
        <ele>496.221688</ele>
        <time>2022-07-23T08:11:49.999Z</time>
      </trkpt>
      <trkpt lat="49.184282" lon="9.633852">
        <ele>495.953914</ele>
        <time>2022-07-23T08:11:51.999Z</time>
      </trkpt>
      <trkpt lat="49.184255" lon="9.633662">
        <ele>495.768559</ele>
        <time>2022-07-23T08:11:53.999Z</time>
      </trkpt>
      <trkpt lat="49.184220" lon="9.633482">
        <ele>495.589536</ele>
        <time>2022-07-23T08:11:55.999Z</time>
      </trkpt>
      <trkpt lat="49.184181" lon="9.633302">
        <ele>495.408763</ele>
        <time>2022-07-23T08:11:58.000Z</time>
      </trkpt>
      <trkpt lat="49.184128" lon="9.633131">
        <ele>495.228353</ele>
        <time>2022-07-23T08:12:00.000Z</time>
      </trkpt>
      <trkpt lat="49.184068" lon="9.632965">
        <ele>495.047524</ele>
        <time>2022-07-23T08:12:02.000Z</time>
      </trkpt>
      <trkpt lat="49.184028" lon="9.632801">
        <ele>494.880655</ele>
        <time>2022-07-23T08:12:04.000Z</time>
      </trkpt>
      <trkpt lat="49.184003" lon="9.632639">
        <ele>494.721976</ele>
        <time>2022-07-23T08:12:06.000Z</time>
      </trkpt>
      <trkpt lat="49.183985" lon="9.632464">
        <ele>494.553098</ele>
        <time>2022-07-23T08:12:08.000Z</time>
      </trkpt>
      <trkpt lat="49.183988" lon="9.632291">
        <ele>494.388121</ele>
        <time>2022-07-23T08:12:10.000Z</time>
      </trkpt>
      <trkpt lat="49.184001" lon="9.632107">
        <ele>494.211694</ele>
        <time>2022-07-23T08:12:12.000Z</time>
      </trkpt>
      <trkpt lat="49.184011" lon="9.631930">
        <ele>494.042332</ele>
        <time>2022-07-23T08:12:14.000Z</time>
      </trkpt>
      <trkpt lat="49.184006" lon="9.631772">
        <ele>493.891536</ele>
        <time>2022-07-23T08:12:16.000Z</time>
      </trkpt>
      <trkpt lat="49.184014" lon="9.631588">
        <ele>493.715744</ele>
        <time>2022-07-23T08:12:18.000Z</time>
      </trkpt>
      <trkpt lat="49.184004" lon="9.631412">
        <ele>493.547332</ele>
        <time>2022-07-23T08:12:20.000Z</time>
      </trkpt>
      <trkpt lat="49.183996" lon="9.631243">
        <ele>493.385804</ele>
        <time>2022-07-23T08:12:22.000Z</time>
      </trkpt>
      <trkpt lat="49.183992" lon="9.631068">
        <ele>493.317850</ele>
        <time>2022-07-23T08:12:24.000Z</time>
      </trkpt>
      <trkpt lat="49.183994" lon="9.630886">
        <ele>493.277292</ele>
        <time>2022-07-23T08:12:26.000Z</time>
      </trkpt>
      <trkpt lat="49.183986" lon="9.630695">
        <ele>493.234647</ele>
        <time>2022-07-23T08:12:27.999Z</time>
      </trkpt>
      <trkpt lat="49.183960" lon="9.630501">
        <ele>493.190522</ele>
        <time>2022-07-23T08:12:29.999Z</time>
      </trkpt>
      <trkpt lat="49.183924" lon="9.630311">
        <ele>493.146444</ele>
        <time>2022-07-23T08:12:31.999Z</time>
      </trkpt>
      <trkpt lat="49.183888" lon="9.630122">
        <ele>493.102581</ele>
        <time>2022-07-23T08:12:33.999Z</time>
      </trkpt>
      <trkpt lat="49.183853" lon="9.629936">
        <ele>493.059454</ele>
        <time>2022-07-23T08:12:35.999Z</time>
      </trkpt>
      <trkpt lat="49.183818" lon="9.629759">
        <ele>493.018250</ele>
        <time>2022-07-23T08:12:37.999Z</time>
      </trkpt>
      <trkpt lat="49.183784" lon="9.629584">
        <ele>492.977572</ele>
        <time>2022-07-23T08:12:39.999Z</time>
      </trkpt>
      <trkpt lat="49.183747" lon="9.629418">
        <ele>492.938493</ele>
        <time>2022-07-23T08:12:41.999Z</time>
      </trkpt>
      <trkpt lat="49.183703" lon="9.629249">
        <ele>492.897960</ele>
        <time>2022-07-23T08:12:43.999Z</time>
      </trkpt>
      <trkpt lat="49.183648" lon="9.629087">
        <ele>492.857285</ele>
        <time>2022-07-23T08:12:45.999Z</time>
      </trkpt>
      <trkpt lat="49.183589" lon="9.628923">
        <ele>492.815574</ele>
        <time>2022-07-23T08:12:47.999Z</time>
      </trkpt>
      <trkpt lat="49.183529" lon="9.628766">
        <ele>492.775051</ele>
        <time>2022-07-23T08:12:49.999Z</time>
      </trkpt>
      <trkpt lat="49.183461" lon="9.628615">
        <ele>492.738018</ele>
        <time>2022-07-23T08:12:51.999Z</time>
      </trkpt>
      <trkpt lat="49.183387" lon="9.628474">
        <ele>492.914037</ele>
        <time>2022-07-23T08:12:53.999Z</time>
      </trkpt>
      <trkpt lat="49.183309" lon="9.628334">
        <ele>493.093103</ele>
        <time>2022-07-23T08:12:55.999Z</time>
      </trkpt>
      <trkpt lat="49.183214" lon="9.628194">
        <ele>493.289540</ele>
        <time>2022-07-23T08:12:57.999Z</time>
      </trkpt>
      <trkpt lat="49.183122" lon="9.628059">
        <ele>493.479383</ele>
        <time>2022-07-23T08:12:59.999Z</time>
      </trkpt>
      <trkpt lat="49.183019" lon="9.627932">
        <ele>493.676389</ele>
        <time>2022-07-23T08:13:01.999Z</time>
      </trkpt>
      <trkpt lat="49.182915" lon="9.627819">
        <ele>493.866354</ele>
        <time>2022-07-23T08:13:03.999Z</time>
      </trkpt>
      <trkpt lat="49.182805" lon="9.627718">
        <ele>494.057407</ele>
        <time>2022-07-23T08:13:05.999Z</time>
      </trkpt>
      <trkpt lat="49.182695" lon="9.627624">
        <ele>494.245045</ele>
        <time>2022-07-23T08:13:07.999Z</time>
      </trkpt>
      <trkpt lat="49.182582" lon="9.627542">
        <ele>494.431298</ele>
        <time>2022-07-23T08:13:09.999Z</time>
      </trkpt>
      <trkpt lat="49.182466" lon="9.627472">
        <ele>494.617001</ele>
        <time>2022-07-23T08:13:11.999Z</time>
      </trkpt>
      <trkpt lat="49.182349" lon="9.627410">
        <ele>494.801397</ele>
        <time>2022-07-23T08:13:13.999Z</time>
      </trkpt>
      <trkpt lat="49.182227" lon="9.627361">
        <ele>494.989239</ele>
        <time>2022-07-23T08:13:15.999Z</time>
      </trkpt>
      <trkpt lat="49.182100" lon="9.627326">
        <ele>495.181414</ele>
        <time>2022-07-23T08:13:17.999Z</time>
      </trkpt>
      <trkpt lat="49.181975" lon="9.627291">
        <ele>495.370659</ele>
        <time>2022-07-23T08:13:19.999Z</time>
      </trkpt>
      <trkpt lat="49.181840" lon="9.627271">
        <ele>495.610704</ele>
        <time>2022-07-23T08:13:21.999Z</time>
      </trkpt>
      <trkpt lat="49.181709" lon="9.627262">
        <ele>495.852687</ele>
        <time>2022-07-23T08:13:23.999Z</time>
      </trkpt>
      <trkpt lat="49.181576" lon="9.627263">
        <ele>496.098120</ele>
        <time>2022-07-23T08:13:25.999Z</time>
      </trkpt>
      <trkpt lat="49.181444" lon="9.627278">
        <ele>496.342376</ele>
        <time>2022-07-23T08:13:27.999Z</time>
      </trkpt>
      <trkpt lat="49.181313" lon="9.627302">
        <ele>496.585842</ele>
        <time>2022-07-23T08:13:29.999Z</time>
      </trkpt>
      <trkpt lat="49.181184" lon="9.627339">
        <ele>496.828039</ele>
        <time>2022-07-23T08:13:31.999Z</time>
      </trkpt>
      <trkpt lat="49.181055" lon="9.627385">
        <ele>497.072469</ele>
        <time>2022-07-23T08:13:33.999Z</time>
      </trkpt>
      <trkpt lat="49.180926" lon="9.627432">
        <ele>497.317175</ele>
        <time>2022-07-23T08:13:35.999Z</time>
      </trkpt>
      <trkpt lat="49.180797" lon="9.627487">
        <ele>497.564296</ele>
        <time>2022-07-23T08:13:37.999Z</time>
      </trkpt>
      <trkpt lat="49.180668" lon="9.627538">
        <ele>497.810165</ele>
        <time>2022-07-23T08:13:39.999Z</time>
      </trkpt>
      <trkpt lat="49.180547" lon="9.627590">
        <ele>498.042094</ele>
        <time>2022-07-23T08:13:41.999Z</time>
      </trkpt>
      <trkpt lat="49.180425" lon="9.627642">
        <ele>498.275800</ele>
        <time>2022-07-23T08:13:43.999Z</time>
      </trkpt>
      <trkpt lat="49.180303" lon="9.627695">
        <ele>498.509833</ele>
        <time>2022-07-23T08:13:45.999Z</time>
      </trkpt>
      <trkpt lat="49.180175" lon="9.627750">
        <ele>498.758435</ele>
        <time>2022-07-23T08:13:47.999Z</time>
      </trkpt>
      <trkpt lat="49.180046" lon="9.627809">
        <ele>499.042732</ele>
        <time>2022-07-23T08:13:49.999Z</time>
      </trkpt>
      <trkpt lat="49.179919" lon="9.627864">
        <ele>499.321431</ele>
        <time>2022-07-23T08:13:51.999Z</time>
      </trkpt>
      <trkpt lat="49.179794" lon="9.627925">
        <ele>499.598473</ele>
        <time>2022-07-23T08:13:53.999Z</time>
      </trkpt>
      <trkpt lat="49.179667" lon="9.627976">
        <ele>499.875719</ele>
        <time>2022-07-23T08:13:55.999Z</time>
      </trkpt>
      <trkpt lat="49.179542" lon="9.628026">
        <ele>500.148531</ele>
        <time>2022-07-23T08:13:57.999Z</time>
      </trkpt>
      <trkpt lat="49.179412" lon="9.628064">
        <ele>500.427992</ele>
        <time>2022-07-23T08:13:59.999Z</time>
      </trkpt>
      <trkpt lat="49.179280" lon="9.628091">
        <ele>500.709191</ele>
        <time>2022-07-23T08:14:01.999Z</time>
      </trkpt>
      <trkpt lat="49.179145" lon="9.628117">
        <ele>500.996495</ele>
        <time>2022-07-23T08:14:04.000Z</time>
      </trkpt>
      <trkpt lat="49.179013" lon="9.628118">
        <ele>501.275217</ele>
        <time>2022-07-23T08:14:06.000Z</time>
      </trkpt>
      <trkpt lat="49.178878" lon="9.628135">
        <ele>501.561234</ele>
        <time>2022-07-23T08:14:08.000Z</time>
      </trkpt>
      <trkpt lat="49.178747" lon="9.628144">
        <ele>501.838120</ele>
        <time>2022-07-23T08:14:10.000Z</time>
      </trkpt>
      <trkpt lat="49.178620" lon="9.628156">
        <ele>502.106792</ele>
        <time>2022-07-23T08:14:12.000Z</time>
      </trkpt>
      <trkpt lat="49.178496" lon="9.628153">
        <ele>502.368651</ele>
        <time>2022-07-23T08:14:14.000Z</time>
      </trkpt>
      <trkpt lat="49.178367" lon="9.628157">
        <ele>502.514958</ele>
        <time>2022-07-23T08:14:16.000Z</time>
      </trkpt>
      <trkpt lat="49.178245" lon="9.628132">
        <ele>502.478611</ele>
        <time>2022-07-23T08:14:18.000Z</time>
      </trkpt>
      <trkpt lat="49.178123" lon="9.628094">
        <ele>502.441846</ele>
        <time>2022-07-23T08:14:20.000Z</time>
      </trkpt>
      <trkpt lat="49.178003" lon="9.628038">
        <ele>502.404799</ele>
        <time>2022-07-23T08:14:22.000Z</time>
      </trkpt>
      <trkpt lat="49.177878" lon="9.627982">
        <ele>502.366338</ele>
        <time>2022-07-23T08:14:24.000Z</time>
      </trkpt>
      <trkpt lat="49.177747" lon="9.627915">
        <ele>502.325550</ele>
        <time>2022-07-23T08:14:26.000Z</time>
      </trkpt>
      <trkpt lat="49.177618" lon="9.627848">
        <ele>502.285322</ele>
        <time>2022-07-23T08:14:28.000Z</time>
      </trkpt>
      <trkpt lat="49.177493" lon="9.627778">
        <ele>502.246015</ele>
        <time>2022-07-23T08:14:30.000Z</time>
      </trkpt>
      <trkpt lat="49.177370" lon="9.627706">
        <ele>502.207126</ele>
        <time>2022-07-23T08:14:31.999Z</time>
      </trkpt>
      <trkpt lat="49.177252" lon="9.627642">
        <ele>502.170156</ele>
        <time>2022-07-23T08:14:33.999Z</time>
      </trkpt>
      <trkpt lat="49.177124" lon="9.627581">
        <ele>502.130567</ele>
        <time>2022-07-23T08:14:35.999Z</time>
      </trkpt>
      <trkpt lat="49.177006" lon="9.627527">
        <ele>502.094197</ele>
        <time>2022-07-23T08:14:37.999Z</time>
      </trkpt>
      <trkpt lat="49.176880" lon="9.627465">
        <ele>502.055113</ele>
        <time>2022-07-23T08:14:39.999Z</time>
      </trkpt>
      <trkpt lat="49.176763" lon="9.627409">
        <ele>502.018912</ele>
        <time>2022-07-23T08:14:41.999Z</time>
      </trkpt>
      <trkpt lat="49.176657" lon="9.627349">
        <ele>502.004601</ele>
        <time>2022-07-23T08:14:43.999Z</time>
      </trkpt>
      <trkpt lat="49.176552" lon="9.627293">
        <ele>502.017210</ele>
        <time>2022-07-23T08:14:45.999Z</time>
      </trkpt>
      <trkpt lat="49.176450" lon="9.627244">
        <ele>502.029333</ele>
        <time>2022-07-23T08:14:47.999Z</time>
      </trkpt>
      <trkpt lat="49.176350" lon="9.627183">
        <ele>502.041540</ele>
        <time>2022-07-23T08:14:49.999Z</time>
      </trkpt>
      <trkpt lat="49.176254" lon="9.627134">
        <ele>502.053016</ele>
        <time>2022-07-23T08:14:51.999Z</time>
      </trkpt>
      <trkpt lat="49.176158" lon="9.627082">
        <ele>502.064564</ele>
        <time>2022-07-23T08:14:53.999Z</time>
      </trkpt>
      <trkpt lat="49.176065" lon="9.627063">
        <ele>502.075203</ele>
        <time>2022-07-23T08:14:55.999Z</time>
      </trkpt>
      <trkpt lat="49.175970" lon="9.627065">
        <ele>502.085976</ele>
        <time>2022-07-23T08:14:57.999Z</time>
      </trkpt>
      <trkpt lat="49.175846" lon="9.627084">
        <ele>502.100107</ele>
        <time>2022-07-23T08:15:00.999Z</time>
      </trkpt>
      <trkpt lat="49.175724" lon="9.627117">
        <ele>502.114156</ele>
        <time>2022-07-23T08:15:03.999Z</time>
      </trkpt>
      <trkpt lat="49.175597" lon="9.627155">
        <ele>502.128830</ele>
        <time>2022-07-23T08:15:06.999Z</time>
      </trkpt>
      <trkpt lat="49.175467" lon="9.627214">
        <ele>502.144206</ele>
        <time>2022-07-23T08:15:09.999Z</time>
      </trkpt>
      <trkpt lat="49.175380" lon="9.627254">
        <ele>502.154507</ele>
        <time>2022-07-23T08:15:11.999Z</time>
      </trkpt>
      <trkpt lat="49.175252" lon="9.627295">
        <ele>502.169336</ele>
        <time>2022-07-23T08:15:14.999Z</time>
      </trkpt>
      <trkpt lat="49.175161" lon="9.627336">
        <ele>502.180093</ele>
        <time>2022-07-23T08:15:16.999Z</time>
      </trkpt>
      <trkpt lat="49.175068" lon="9.627380">
        <ele>502.191131</ele>
        <time>2022-07-23T08:15:18.999Z</time>
      </trkpt>
      <trkpt lat="49.174974" lon="9.627421">
        <ele>502.202215</ele>
        <time>2022-07-23T08:15:20.999Z</time>
      </trkpt>
      <trkpt lat="49.174878" lon="9.627467">
        <ele>502.170665</ele>
        <time>2022-07-23T08:15:22.999Z</time>
      </trkpt>
      <trkpt lat="49.174774" lon="9.627519">
        <ele>502.131623</ele>
        <time>2022-07-23T08:15:24.999Z</time>
      </trkpt>
      <trkpt lat="49.174660" lon="9.627564">
        <ele>502.089611</ele>
        <time>2022-07-23T08:15:26.999Z</time>
      </trkpt>
      <trkpt lat="49.174552" lon="9.627616">
        <ele>502.049209</ele>
        <time>2022-07-23T08:15:28.999Z</time>
      </trkpt>
      <trkpt lat="49.174430" lon="9.627675">
        <ele>502.003552</ele>
        <time>2022-07-23T08:15:30.999Z</time>
      </trkpt>
      <trkpt lat="49.174304" lon="9.627731">
        <ele>501.956732</ele>
        <time>2022-07-23T08:15:32.999Z</time>
      </trkpt>
      <trkpt lat="49.174182" lon="9.627789">
        <ele>501.911144</ele>
        <time>2022-07-23T08:15:34.999Z</time>
      </trkpt>
      <trkpt lat="49.174056" lon="9.627824">
        <ele>501.865448</ele>
        <time>2022-07-23T08:15:36.999Z</time>
      </trkpt>
      <trkpt lat="49.173933" lon="9.627888">
        <ele>501.819088</ele>
        <time>2022-07-23T08:15:38.999Z</time>
      </trkpt>
      <trkpt lat="49.173792" lon="9.627961">
        <ele>501.765970</ele>
        <time>2022-07-23T08:15:40.999Z</time>
      </trkpt>
      <trkpt lat="49.173666" lon="9.628011">
        <ele>501.719521</ele>
        <time>2022-07-23T08:15:42.999Z</time>
      </trkpt>
      <trkpt lat="49.173549" lon="9.628074">
        <ele>501.675261</ele>
        <time>2022-07-23T08:15:44.999Z</time>
      </trkpt>
      <trkpt lat="49.173421" lon="9.628125">
        <ele>501.628062</ele>
        <time>2022-07-23T08:15:46.999Z</time>
      </trkpt>
      <trkpt lat="49.173305" lon="9.628178">
        <ele>501.584862</ele>
        <time>2022-07-23T08:15:48.999Z</time>
      </trkpt>
      <trkpt lat="49.173190" lon="9.628238">
        <ele>501.439204</ele>
        <time>2022-07-23T08:15:50.999Z</time>
      </trkpt>
      <trkpt lat="49.173062" lon="9.628293">
        <ele>501.148426</ele>
        <time>2022-07-23T08:15:52.999Z</time>
      </trkpt>
      <trkpt lat="49.172935" lon="9.628353">
        <ele>500.857724</ele>
        <time>2022-07-23T08:15:54.999Z</time>
      </trkpt>
      <trkpt lat="49.172806" lon="9.628406">
        <ele>500.565594</ele>
        <time>2022-07-23T08:15:56.999Z</time>
      </trkpt>
      <trkpt lat="49.172672" lon="9.628463">
        <ele>500.261408</ele>
        <time>2022-07-23T08:15:58.999Z</time>
      </trkpt>
      <trkpt lat="49.172544" lon="9.628522">
        <ele>499.969031</ele>
        <time>2022-07-23T08:16:00.999Z</time>
      </trkpt>
      <trkpt lat="49.172414" lon="9.628589">
        <ele>499.669009</ele>
        <time>2022-07-23T08:16:02.999Z</time>
      </trkpt>
      <trkpt lat="49.172282" lon="9.628646">
        <ele>499.369035</ele>
        <time>2022-07-23T08:16:04.999Z</time>
      </trkpt>
      <trkpt lat="49.172146" lon="9.628703">
        <ele>499.060632</ele>
        <time>2022-07-23T08:16:06.999Z</time>
      </trkpt>
      <trkpt lat="49.172012" lon="9.628764">
        <ele>498.754864</ele>
        <time>2022-07-23T08:16:09.000Z</time>
      </trkpt>
      <trkpt lat="49.171880" lon="9.628825">
        <ele>498.453285</ele>
        <time>2022-07-23T08:16:11.000Z</time>
      </trkpt>
      <trkpt lat="49.171749" lon="9.628880">
        <ele>498.156184</ele>
        <time>2022-07-23T08:16:13.000Z</time>
      </trkpt>
      <trkpt lat="49.171611" lon="9.628941">
        <ele>497.842021</ele>
        <time>2022-07-23T08:16:15.000Z</time>
      </trkpt>
      <trkpt lat="49.171483" lon="9.628998">
        <ele>497.606753</ele>
        <time>2022-07-23T08:16:17.000Z</time>
      </trkpt>
      <trkpt lat="49.171345" lon="9.629060">
        <ele>497.521351</ele>
        <time>2022-07-23T08:16:19.000Z</time>
      </trkpt>
      <trkpt lat="49.171212" lon="9.629127">
        <ele>497.438206</ele>
        <time>2022-07-23T08:16:21.000Z</time>
      </trkpt>
      <trkpt lat="49.171083" lon="9.629182">
        <ele>497.358689</ele>
        <time>2022-07-23T08:16:23.000Z</time>
      </trkpt>
      <trkpt lat="49.170942" lon="9.629236">
        <ele>497.272382</ele>
        <time>2022-07-23T08:16:25.000Z</time>
      </trkpt>
      <trkpt lat="49.170805" lon="9.629300">
        <ele>497.187326</ele>
        <time>2022-07-23T08:16:27.000Z</time>
      </trkpt>
      <trkpt lat="49.170672" lon="9.629364">
        <ele>497.104538</ele>
        <time>2022-07-23T08:16:29.000Z</time>
      </trkpt>
      <trkpt lat="49.170551" lon="9.629426">
        <ele>497.028766</ele>
        <time>2022-07-23T08:16:31.000Z</time>
      </trkpt>
      <trkpt lat="49.170418" lon="9.629488">
        <ele>496.946208</ele>
        <time>2022-07-23T08:16:33.000Z</time>
      </trkpt>
      <trkpt lat="49.170282" lon="9.629546">
        <ele>496.862375</ele>
        <time>2022-07-23T08:16:35.000Z</time>
      </trkpt>
      <trkpt lat="49.170156" lon="9.629602">
        <ele>496.784465</ele>
        <time>2022-07-23T08:16:37.000Z</time>
      </trkpt>
      <trkpt lat="49.170015" lon="9.629669">
        <ele>496.696795</ele>
        <time>2022-07-23T08:16:39.000Z</time>
      </trkpt>
      <trkpt lat="49.169882" lon="9.629723">
        <ele>496.615088</ele>
        <time>2022-07-23T08:16:41.000Z</time>
      </trkpt>
      <trkpt lat="49.169746" lon="9.629766">
        <ele>496.541542</ele>
        <time>2022-07-23T08:16:42.999Z</time>
      </trkpt>
      <trkpt lat="49.169617" lon="9.629825">
        <ele>496.487873</ele>
        <time>2022-07-23T08:16:44.999Z</time>
      </trkpt>
      <trkpt lat="49.169488" lon="9.629898">
        <ele>496.433047</ele>
        <time>2022-07-23T08:16:46.999Z</time>
      </trkpt>
      <trkpt lat="49.169351" lon="9.629965">
        <ele>496.375715</ele>
        <time>2022-07-23T08:16:48.999Z</time>
      </trkpt>
      <trkpt lat="49.169216" lon="9.630019">
        <ele>496.320095</ele>
        <time>2022-07-23T08:16:50.999Z</time>
      </trkpt>
      <trkpt lat="49.169080" lon="9.630084">
        <ele>496.263300</ele>
        <time>2022-07-23T08:16:52.999Z</time>
      </trkpt>
      <trkpt lat="49.168948" lon="9.630146">
        <ele>496.208260</ele>
        <time>2022-07-23T08:16:54.999Z</time>
      </trkpt>
      <trkpt lat="49.168821" lon="9.630202">
        <ele>496.155576</ele>
        <time>2022-07-23T08:16:56.999Z</time>
      </trkpt>
      <trkpt lat="49.168692" lon="9.630257">
        <ele>496.102196</ele>
        <time>2022-07-23T08:16:58.999Z</time>
      </trkpt>
      <trkpt lat="49.168557" lon="9.630294">
        <ele>496.047528</ele>
        <time>2022-07-23T08:17:00.999Z</time>
      </trkpt>
      <trkpt lat="49.168434" lon="9.630385">
        <ele>495.993066</ele>
        <time>2022-07-23T08:17:02.999Z</time>
      </trkpt>
      <trkpt lat="49.168293" lon="9.630415">
        <ele>495.936322</ele>
        <time>2022-07-23T08:17:04.999Z</time>
      </trkpt>
      <trkpt lat="49.168163" lon="9.630500">
        <ele>495.879968</ele>
        <time>2022-07-23T08:17:06.999Z</time>
      </trkpt>
      <trkpt lat="49.168031" lon="9.630556">
        <ele>495.868038</ele>
        <time>2022-07-23T08:17:08.999Z</time>
      </trkpt>
      <trkpt lat="49.167903" lon="9.630612">
        <ele>495.944778</ele>
        <time>2022-07-23T08:17:10.999Z</time>
      </trkpt>
      <trkpt lat="49.167774" lon="9.630668">
        <ele>496.022072</ele>
        <time>2022-07-23T08:17:12.999Z</time>
      </trkpt>
      <trkpt lat="49.167648" lon="9.630726">
        <ele>496.097918</ele>
        <time>2022-07-23T08:17:14.999Z</time>
      </trkpt>
      <trkpt lat="49.167529" lon="9.630784">
        <ele>496.169909</ele>
        <time>2022-07-23T08:17:16.999Z</time>
      </trkpt>
      <trkpt lat="49.167401" lon="9.630838">
        <ele>496.246445</ele>
        <time>2022-07-23T08:17:18.999Z</time>
      </trkpt>
      <trkpt lat="49.167271" lon="9.630889">
        <ele>496.323804</ele>
        <time>2022-07-23T08:17:20.999Z</time>
      </trkpt>
      <trkpt lat="49.167150" lon="9.630949">
        <ele>496.397124</ele>
        <time>2022-07-23T08:17:22.999Z</time>
      </trkpt>
      <trkpt lat="49.167018" lon="9.631007">
        <ele>496.476288</ele>
        <time>2022-07-23T08:17:24.999Z</time>
      </trkpt>
      <trkpt lat="49.166894" lon="9.631073">
        <ele>496.551967</ele>
        <time>2022-07-23T08:17:26.999Z</time>
      </trkpt>
      <trkpt lat="49.166776" lon="9.631164">
        <ele>496.628141</ele>
        <time>2022-07-23T08:17:28.999Z</time>
      </trkpt>
      <trkpt lat="49.166686" lon="9.631285">
        <ele>496.697213</ele>
        <time>2022-07-23T08:17:30.999Z</time>
      </trkpt>
      <trkpt lat="49.166594" lon="9.631431">
        <ele>496.773633</ele>
        <time>2022-07-23T08:17:32.999Z</time>
      </trkpt>
      <trkpt lat="49.166499" lon="9.631575">
        <ele>496.850730</ele>
        <time>2022-07-23T08:17:34.999Z</time>
      </trkpt>
      <trkpt lat="49.166430" lon="9.631741">
        <ele>496.799611</ele>
        <time>2022-07-23T08:17:36.999Z</time>
      </trkpt>
      <trkpt lat="49.166379" lon="9.631906">
        <ele>496.678211</ele>
        <time>2022-07-23T08:17:38.999Z</time>
      </trkpt>
      <trkpt lat="49.166295" lon="9.632053">
        <ele>496.548350</ele>
        <time>2022-07-23T08:17:40.999Z</time>
      </trkpt>
      <trkpt lat="49.166236" lon="9.632214">
        <ele>496.425582</ele>
        <time>2022-07-23T08:17:42.999Z</time>
      </trkpt>
      <trkpt lat="49.166170" lon="9.632371">
        <ele>496.301427</ele>
        <time>2022-07-23T08:17:44.999Z</time>
      </trkpt>
      <trkpt lat="49.166106" lon="9.632516">
        <ele>496.185056</ele>
        <time>2022-07-23T08:17:46.999Z</time>
      </trkpt>
      <trkpt lat="49.166037" lon="9.632668">
        <ele>496.061970</ele>
        <time>2022-07-23T08:17:48.999Z</time>
      </trkpt>
      <trkpt lat="49.165966" lon="9.632819">
        <ele>495.938253</ele>
        <time>2022-07-23T08:17:50.999Z</time>
      </trkpt>
      <trkpt lat="49.165893" lon="9.632965">
        <ele>495.815995</ele>
        <time>2022-07-23T08:17:52.999Z</time>
      </trkpt>
      <trkpt lat="49.165827" lon="9.633116">
        <ele>495.695176</ele>
        <time>2022-07-23T08:17:54.999Z</time>
      </trkpt>
      <trkpt lat="49.165765" lon="9.633264">
        <ele>495.578256</ele>
        <time>2022-07-23T08:17:56.999Z</time>
      </trkpt>
      <trkpt lat="49.165701" lon="9.633410">
        <ele>495.461333</ele>
        <time>2022-07-23T08:17:58.999Z</time>
      </trkpt>
      <trkpt lat="49.165631" lon="9.633560">
        <ele>495.338748</ele>
        <time>2022-07-23T08:18:00.999Z</time>
      </trkpt>
      <trkpt lat="49.165571" lon="9.633689">
        <ele>495.233443</ele>
        <time>2022-07-23T08:18:02.999Z</time>
      </trkpt>
      <trkpt lat="49.165505" lon="9.633823">
        <ele>495.121848</ele>
        <time>2022-07-23T08:18:04.999Z</time>
      </trkpt>
      <trkpt lat="49.165441" lon="9.633961">
        <ele>495.022294</ele>
        <time>2022-07-23T08:18:06.999Z</time>
      </trkpt>
      <trkpt lat="49.165370" lon="9.634095">
        <ele>494.944381</ele>
        <time>2022-07-23T08:18:08.999Z</time>
      </trkpt>
      <trkpt lat="49.165296" lon="9.634226">
        <ele>494.866176</ele>
        <time>2022-07-23T08:18:10.999Z</time>
      </trkpt>
      <trkpt lat="49.165211" lon="9.634343">
        <ele>494.787169</ele>
        <time>2022-07-23T08:18:12.999Z</time>
      </trkpt>
      <trkpt lat="49.165108" lon="9.634432">
        <ele>494.705436</ele>
        <time>2022-07-23T08:18:15.000Z</time>
      </trkpt>
      <trkpt lat="49.164996" lon="9.634492">
        <ele>494.623447</ele>
        <time>2022-07-23T08:18:17.000Z</time>
      </trkpt>
      <trkpt lat="49.164880" lon="9.634530">
        <ele>494.541488</ele>
        <time>2022-07-23T08:18:19.000Z</time>
      </trkpt>
      <trkpt lat="49.164760" lon="9.634552">
        <ele>494.457989</ele>
        <time>2022-07-23T08:18:21.000Z</time>
      </trkpt>
      <trkpt lat="49.164659" lon="9.634580">
        <ele>494.387073</ele>
        <time>2022-07-23T08:18:23.000Z</time>
      </trkpt>
      <trkpt lat="49.164548" lon="9.634603">
        <ele>494.309685</ele>
        <time>2022-07-23T08:18:26.000Z</time>
      </trkpt>
      <trkpt lat="49.164458" lon="9.634620">
        <ele>494.247034</ele>
        <time>2022-07-23T08:18:29.000Z</time>
      </trkpt>
      <trkpt lat="49.164338" lon="9.634653">
        <ele>494.162799</ele>
        <time>2022-07-23T08:18:32.000Z</time>
      </trkpt>
      <trkpt lat="49.164243" lon="9.634676">
        <ele>494.096349</ele>
        <time>2022-07-23T08:18:34.000Z</time>
      </trkpt>
      <trkpt lat="49.164116" lon="9.634713">
        <ele>494.007029</ele>
        <time>2022-07-23T08:18:36.000Z</time>
      </trkpt>
      <trkpt lat="49.163983" lon="9.634754">
        <ele>493.913294</ele>
        <time>2022-07-23T08:18:38.000Z</time>
      </trkpt>
      <trkpt lat="49.163857" lon="9.634801">
        <ele>493.823692</ele>
        <time>2022-07-23T08:18:40.000Z</time>
      </trkpt>
      <trkpt lat="49.163732" lon="9.634854">
        <ele>493.837264</ele>
        <time>2022-07-23T08:18:42.000Z</time>
      </trkpt>
      <trkpt lat="49.163609" lon="9.634903">
        <ele>493.873464</ele>
        <time>2022-07-23T08:18:44.000Z</time>
      </trkpt>
      <trkpt lat="49.163481" lon="9.634962">
        <ele>493.911540</ele>
        <time>2022-07-23T08:18:46.000Z</time>
      </trkpt>
      <trkpt lat="49.163368" lon="9.635018">
        <ele>493.945371</ele>
        <time>2022-07-23T08:18:47.999Z</time>
      </trkpt>
      <trkpt lat="49.163239" lon="9.635067">
        <ele>493.983227</ele>
        <time>2022-07-23T08:18:49.999Z</time>
      </trkpt>
      <trkpt lat="49.163114" lon="9.635129">
        <ele>494.020654</ele>
        <time>2022-07-23T08:18:51.999Z</time>
      </trkpt>
      <trkpt lat="49.162989" lon="9.635180">
        <ele>494.057500</ele>
        <time>2022-07-23T08:18:53.999Z</time>
      </trkpt>
      <trkpt lat="49.162865" lon="9.635243">
        <ele>494.094714</ele>
        <time>2022-07-23T08:18:55.999Z</time>
      </trkpt>
      <trkpt lat="49.162730" lon="9.635289">
        <ele>494.134106</ele>
        <time>2022-07-23T08:18:57.999Z</time>
      </trkpt>
      <trkpt lat="49.162604" lon="9.635345">
        <ele>494.171477</ele>
        <time>2022-07-23T08:18:59.999Z</time>
      </trkpt>
      <trkpt lat="49.162472" lon="9.635365">
        <ele>494.209256</ele>
        <time>2022-07-23T08:19:01.999Z</time>
      </trkpt>
      <trkpt lat="49.162333" lon="9.635373">
        <ele>494.248872</ele>
        <time>2022-07-23T08:19:03.999Z</time>
      </trkpt>
      <trkpt lat="49.162200" lon="9.635368">
        <ele>494.286763</ele>
        <time>2022-07-23T08:19:05.999Z</time>
      </trkpt>
      <trkpt lat="49.162072" lon="9.635362">
        <ele>494.339926</ele>
        <time>2022-07-23T08:19:07.999Z</time>
      </trkpt>
      <trkpt lat="49.161936" lon="9.635355">
        <ele>494.547787</ele>
        <time>2022-07-23T08:19:09.999Z</time>
      </trkpt>
      <trkpt lat="49.161799" lon="9.635351">
        <ele>494.757096</ele>
        <time>2022-07-23T08:19:11.999Z</time>
      </trkpt>
      <trkpt lat="49.161667" lon="9.635347">
        <ele>494.958769</ele>
        <time>2022-07-23T08:19:13.999Z</time>
      </trkpt>
      <trkpt lat="49.161532" lon="9.635337">
        <ele>495.165227</ele>
        <time>2022-07-23T08:19:15.999Z</time>
      </trkpt>
      <trkpt lat="49.161394" lon="9.635335">
        <ele>495.376035</ele>
        <time>2022-07-23T08:19:17.999Z</time>
      </trkpt>
      <trkpt lat="49.161248" lon="9.635313">
        <ele>495.600134</ele>
        <time>2022-07-23T08:19:19.999Z</time>
      </trkpt>
      <trkpt lat="49.161121" lon="9.635323">
        <ele>495.794387</ele>
        <time>2022-07-23T08:19:21.999Z</time>
      </trkpt>
      <trkpt lat="49.160977" lon="9.635314">
        <ele>496.014534</ele>
        <time>2022-07-23T08:19:23.999Z</time>
      </trkpt>
      <trkpt lat="49.160840" lon="9.635310">
        <ele>496.223843</ele>
        <time>2022-07-23T08:19:25.999Z</time>
      </trkpt>
      <trkpt lat="49.160708" lon="9.635300">
        <ele>496.425724</ele>
        <time>2022-07-23T08:19:27.999Z</time>
      </trkpt>
      <trkpt lat="49.160583" lon="9.635298">
        <ele>496.616675</ele>
        <time>2022-07-23T08:19:29.999Z</time>
      </trkpt>
      <trkpt lat="49.160454" lon="9.635290">
        <ele>496.813887</ele>
        <time>2022-07-23T08:19:31.999Z</time>
      </trkpt>
      <trkpt lat="49.160322" lon="9.635288">
        <ele>497.015531</ele>
        <time>2022-07-23T08:19:33.999Z</time>
      </trkpt>
      <trkpt lat="49.160185" lon="9.635283">
        <ele>496.551385</ele>
        <time>2022-07-23T08:19:35.999Z</time>
      </trkpt>
      <trkpt lat="49.160061" lon="9.635271">
        <ele>495.932073</ele>
        <time>2022-07-23T08:19:37.999Z</time>
      </trkpt>
      <trkpt lat="49.159927" lon="9.635260">
        <ele>495.263192</ele>
        <time>2022-07-23T08:19:39.999Z</time>
      </trkpt>
      <trkpt lat="49.159792" lon="9.635244">
        <ele>494.588270</ele>
        <time>2022-07-23T08:19:41.999Z</time>
      </trkpt>
      <trkpt lat="49.159662" lon="9.635230">
        <ele>493.938683</ele>
        <time>2022-07-23T08:19:43.999Z</time>
      </trkpt>
      <trkpt lat="49.159531" lon="9.635209">
        <ele>493.282139</ele>
        <time>2022-07-23T08:19:45.999Z</time>
      </trkpt>
      <trkpt lat="49.159396" lon="9.635203">
        <ele>492.608951</ele>
        <time>2022-07-23T08:19:47.999Z</time>
      </trkpt>
      <trkpt lat="49.159269" lon="9.635193">
        <ele>491.975084</ele>
        <time>2022-07-23T08:19:49.999Z</time>
      </trkpt>
      <trkpt lat="49.159140" lon="9.635182">
        <ele>491.331087</ele>
        <time>2022-07-23T08:19:51.999Z</time>
      </trkpt>
      <trkpt lat="49.159009" lon="9.635203">
        <ele>490.674543</ele>
        <time>2022-07-23T08:19:53.999Z</time>
      </trkpt>
      <trkpt lat="49.158890" lon="9.635238">
        <ele>490.070518</ele>
        <time>2022-07-23T08:19:55.999Z</time>
      </trkpt>
      <trkpt lat="49.158780" lon="9.635271">
        <ele>489.511774</ele>
        <time>2022-07-23T08:19:57.999Z</time>
      </trkpt>
      <trkpt lat="49.158661" lon="9.635307">
        <ele>488.907124</ele>
        <time>2022-07-23T08:19:59.999Z</time>
      </trkpt>
      <trkpt lat="49.158536" lon="9.635337">
        <ele>488.276438</ele>
        <time>2022-07-23T08:20:01.999Z</time>
      </trkpt>
      <trkpt lat="49.158422" lon="9.635366">
        <ele>487.603916</ele>
        <time>2022-07-23T08:20:03.999Z</time>
      </trkpt>
      <trkpt lat="49.158308" lon="9.635399">
        <ele>486.886515</ele>
        <time>2022-07-23T08:20:05.999Z</time>
      </trkpt>
      <trkpt lat="49.158188" lon="9.635420">
        <ele>486.139690</ele>
        <time>2022-07-23T08:20:07.999Z</time>
      </trkpt>
      <trkpt lat="49.158070" lon="9.635407">
        <ele>485.408184</ele>
        <time>2022-07-23T08:20:09.999Z</time>
      </trkpt>
      <trkpt lat="49.157961" lon="9.635371">
        <ele>484.718676</ele>
        <time>2022-07-23T08:20:11.999Z</time>
      </trkpt>
      <trkpt lat="49.157842" lon="9.635317">
        <ele>483.951162</ele>
        <time>2022-07-23T08:20:13.999Z</time>
      </trkpt>
      <trkpt lat="49.157726" lon="9.635198">
        <ele>483.087452</ele>
        <time>2022-07-23T08:20:15.999Z</time>
      </trkpt>
      <trkpt lat="49.157620" lon="9.635146">
        <ele>482.399131</ele>
        <time>2022-07-23T08:20:17.999Z</time>
      </trkpt>
      <trkpt lat="49.157515" lon="9.635055">
        <ele>481.652867</ele>
        <time>2022-07-23T08:20:19.999Z</time>
      </trkpt>
      <trkpt lat="49.157427" lon="9.634954">
        <ele>480.972524</ele>
        <time>2022-07-23T08:20:22.000Z</time>
      </trkpt>
      <trkpt lat="49.157342" lon="9.634859">
        <ele>480.321528</ele>
        <time>2022-07-23T08:20:24.000Z</time>
      </trkpt>
      <trkpt lat="49.157248" lon="9.634763">
        <ele>479.622593</ele>
        <time>2022-07-23T08:20:26.000Z</time>
      </trkpt>
      <trkpt lat="49.157157" lon="9.634694">
        <ele>478.994543</ele>
        <time>2022-07-23T08:20:28.000Z</time>
      </trkpt>
      <trkpt lat="49.157072" lon="9.634608">
        <ele>478.364336</ele>
        <time>2022-07-23T08:20:30.000Z</time>
      </trkpt>
      <trkpt lat="49.156971" lon="9.634516">
        <ele>477.637424</ele>
        <time>2022-07-23T08:20:32.000Z</time>
      </trkpt>
      <trkpt lat="49.156867" lon="9.634455">
        <ele>476.988543</ele>
        <time>2022-07-23T08:20:34.000Z</time>
      </trkpt>
      <trkpt lat="49.156753" lon="9.634462">
        <ele>477.173527</ele>
        <time>2022-07-23T08:20:36.000Z</time>
      </trkpt>
      <trkpt lat="49.156637" lon="9.634520">
        <ele>477.371405</ele>
        <time>2022-07-23T08:20:38.000Z</time>
      </trkpt>
      <trkpt lat="49.156531" lon="9.634594">
        <ele>477.560334</ele>
        <time>2022-07-23T08:20:40.000Z</time>
      </trkpt>
      <trkpt lat="49.156427" lon="9.634670">
        <ele>477.747223</ele>
        <time>2022-07-23T08:20:42.000Z</time>
      </trkpt>
      <trkpt lat="49.156325" lon="9.634742">
        <ele>477.929373</ele>
        <time>2022-07-23T08:20:44.000Z</time>
      </trkpt>
      <trkpt lat="49.156223" lon="9.634806">
        <ele>478.108134</ele>
        <time>2022-07-23T08:20:46.000Z</time>
      </trkpt>
      <trkpt lat="49.156114" lon="9.634853">
        <ele>478.291755</ele>
        <time>2022-07-23T08:20:47.999Z</time>
      </trkpt>
      <trkpt lat="49.155998" lon="9.634893">
        <ele>478.484555</ele>
        <time>2022-07-23T08:20:49.999Z</time>
      </trkpt>
      <trkpt lat="49.155886" lon="9.634934">
        <ele>478.671279</ele>
        <time>2022-07-23T08:20:51.999Z</time>
      </trkpt>
      <trkpt lat="49.155772" lon="9.634961">
        <ele>478.858318</ele>
        <time>2022-07-23T08:20:53.999Z</time>
      </trkpt>
      <trkpt lat="49.155651" lon="9.634998">
        <ele>479.058387</ele>
        <time>2022-07-23T08:20:55.999Z</time>
      </trkpt>
      <trkpt lat="49.155536" lon="9.635041">
        <ele>479.250337</ele>
        <time>2022-07-23T08:20:57.999Z</time>
      </trkpt>
      <trkpt lat="49.155406" lon="9.635082">
        <ele>479.465551</ele>
        <time>2022-07-23T08:20:59.999Z</time>
      </trkpt>
      <trkpt lat="49.155290" lon="9.635111">
        <ele>479.656126</ele>
        <time>2022-07-23T08:21:01.999Z</time>
      </trkpt>
      <trkpt lat="49.155165" lon="9.635149">
        <ele>479.862762</ele>
        <time>2022-07-23T08:21:03.999Z</time>
      </trkpt>
      <trkpt lat="49.155033" lon="9.635193">
        <ele>480.238593</ele>
        <time>2022-07-23T08:21:05.999Z</time>
      </trkpt>
      <trkpt lat="49.154913" lon="9.635212">
        <ele>480.599697</ele>
        <time>2022-07-23T08:21:07.999Z</time>
      </trkpt>
      <trkpt lat="49.154794" lon="9.635209">
        <ele>480.955937</ele>
        <time>2022-07-23T08:21:09.999Z</time>
      </trkpt>
      <trkpt lat="49.154669" lon="9.635208">
        <ele>481.330092</ele>
        <time>2022-07-23T08:21:11.999Z</time>
      </trkpt>
      <trkpt lat="49.154542" lon="9.635214">
        <ele>481.710410</ele>
        <time>2022-07-23T08:21:13.999Z</time>
      </trkpt>
      <trkpt lat="49.154416" lon="9.635230">
        <ele>482.088852</ele>
        <time>2022-07-23T08:21:15.999Z</time>
      </trkpt>
      <trkpt lat="49.154289" lon="9.635229">
        <ele>482.468993</ele>
        <time>2022-07-23T08:21:17.999Z</time>
      </trkpt>
      <trkpt lat="49.154155" lon="9.635235">
        <ele>482.870254</ele>
        <time>2022-07-23T08:21:19.999Z</time>
      </trkpt>
      <trkpt lat="49.154018" lon="9.635236">
        <ele>483.280328</ele>
        <time>2022-07-23T08:21:21.999Z</time>
      </trkpt>
      <trkpt lat="49.153872" lon="9.635239">
        <ele>483.717374</ele>
        <time>2022-07-23T08:21:23.999Z</time>
      </trkpt>
      <trkpt lat="49.153732" lon="9.635234">
        <ele>484.136537</ele>
        <time>2022-07-23T08:21:25.999Z</time>
      </trkpt>
      <trkpt lat="49.153587" lon="9.635241">
        <ele>484.570767</ele>
        <time>2022-07-23T08:21:27.999Z</time>
      </trkpt>
      <trkpt lat="49.153444" lon="9.635244">
        <ele>484.998835</ele>
        <time>2022-07-23T08:21:29.999Z</time>
      </trkpt>
      <trkpt lat="49.153309" lon="9.635258">
        <ele>485.386389</ele>
        <time>2022-07-23T08:21:31.999Z</time>
      </trkpt>
      <trkpt lat="49.153165" lon="9.635262">
        <ele>485.756611</ele>
        <time>2022-07-23T08:21:33.999Z</time>
      </trkpt>
      <trkpt lat="49.153018" lon="9.635255">
        <ele>486.134667</ele>
        <time>2022-07-23T08:21:35.999Z</time>
      </trkpt>
      <trkpt lat="49.152879" lon="9.635257">
        <ele>486.491992</ele>
        <time>2022-07-23T08:21:37.999Z</time>
      </trkpt>
      <trkpt lat="49.152749" lon="9.635259">
        <ele>486.826182</ele>
        <time>2022-07-23T08:21:39.999Z</time>
      </trkpt>
      <trkpt lat="49.152616" lon="9.635275">
        <ele>487.169124</ele>
        <time>2022-07-23T08:21:41.999Z</time>
      </trkpt>
      <trkpt lat="49.152478" lon="9.635279">
        <ele>487.523926</ele>
        <time>2022-07-23T08:21:43.999Z</time>
      </trkpt>
      <trkpt lat="49.152342" lon="9.635280">
        <ele>487.873527</ele>
        <time>2022-07-23T08:21:45.999Z</time>
      </trkpt>
      <trkpt lat="49.152208" lon="9.635286">
        <ele>488.218131</ele>
        <time>2022-07-23T08:21:47.999Z</time>
      </trkpt>
      <trkpt lat="49.152068" lon="9.635285">
        <ele>488.578014</ele>
        <time>2022-07-23T08:21:49.999Z</time>
      </trkpt>
      <trkpt lat="49.151932" lon="9.635289">
        <ele>488.927675</ele>
        <time>2022-07-23T08:21:51.999Z</time>
      </trkpt>
      <trkpt lat="49.151793" lon="9.635299">
        <ele>489.285379</ele>
        <time>2022-07-23T08:21:53.999Z</time>
      </trkpt>
      <trkpt lat="49.151657" lon="9.635319">
        <ele>489.636590</ele>
        <time>2022-07-23T08:21:55.999Z</time>
      </trkpt>
      <trkpt lat="49.151524" lon="9.635348">
        <ele>489.963854</ele>
        <time>2022-07-23T08:21:57.999Z</time>
      </trkpt>
      <trkpt lat="49.151390" lon="9.635380">
        <ele>490.231873</ele>
        <time>2022-07-23T08:21:59.999Z</time>
      </trkpt>
      <trkpt lat="49.151252" lon="9.635420">
        <ele>490.509444</ele>
        <time>2022-07-23T08:22:01.999Z</time>
      </trkpt>
      <trkpt lat="49.151118" lon="9.635461">
        <ele>490.779503</ele>
        <time>2022-07-23T08:22:03.999Z</time>
      </trkpt>
      <trkpt lat="49.150983" lon="9.635502">
        <ele>491.051501</ele>
        <time>2022-07-23T08:22:05.999Z</time>
      </trkpt>
      <trkpt lat="49.150849" lon="9.635541">
        <ele>491.321065</ele>
        <time>2022-07-23T08:22:07.999Z</time>
      </trkpt>
      <trkpt lat="49.150713" lon="9.635579">
        <ele>491.594277</ele>
        <time>2022-07-23T08:22:09.999Z</time>
      </trkpt>
      <trkpt lat="49.150580" lon="9.635621">
        <ele>491.862658</ele>
        <time>2022-07-23T08:22:11.999Z</time>
      </trkpt>
      <trkpt lat="49.150448" lon="9.635663">
        <ele>492.129103</ele>
        <time>2022-07-23T08:22:13.999Z</time>
      </trkpt>
      <trkpt lat="49.150314" lon="9.635701">
        <ele>492.398429</ele>
        <time>2022-07-23T08:22:15.999Z</time>
      </trkpt>
      <trkpt lat="49.150182" lon="9.635738">
        <ele>492.663633</ele>
        <time>2022-07-23T08:22:17.999Z</time>
      </trkpt>
      <trkpt lat="49.150049" lon="9.635771">
        <ele>492.929904</ele>
        <time>2022-07-23T08:22:19.999Z</time>
      </trkpt>
      <trkpt lat="49.149912" lon="9.635811">
        <ele>493.205534</ele>
        <time>2022-07-23T08:22:21.999Z</time>
      </trkpt>
      <trkpt lat="49.149777" lon="9.635851">
        <ele>493.427957</ele>
        <time>2022-07-23T08:22:23.999Z</time>
      </trkpt>
      <trkpt lat="49.149645" lon="9.635887">
        <ele>493.008408</ele>
        <time>2022-07-23T08:22:25.999Z</time>
      </trkpt>
      <trkpt lat="49.149524" lon="9.635920">
        <ele>492.623821</ele>
        <time>2022-07-23T08:22:28.000Z</time>
      </trkpt>
      <trkpt lat="49.149401" lon="9.635951">
        <ele>492.233759</ele>
        <time>2022-07-23T08:22:30.000Z</time>
      </trkpt>
      <trkpt lat="49.149281" lon="9.635981">
        <ele>491.853291</ele>
        <time>2022-07-23T08:22:32.000Z</time>
      </trkpt>
      <trkpt lat="49.149167" lon="9.636017">
        <ele>491.489055</ele>
        <time>2022-07-23T08:22:34.000Z</time>
      </trkpt>
      <trkpt lat="49.149056" lon="9.636081">
        <ele>491.117856</ele>
        <time>2022-07-23T08:22:36.000Z</time>
      </trkpt>
      <trkpt lat="49.148958" lon="9.636190">
        <ele>490.738650</ele>
        <time>2022-07-23T08:22:38.000Z</time>
      </trkpt>
      <trkpt lat="49.148862" lon="9.636310">
        <ele>490.350642</ele>
        <time>2022-07-23T08:22:40.000Z</time>
      </trkpt>
      <trkpt lat="49.148815" lon="9.636481">
        <ele>489.971018</ele>
        <time>2022-07-23T08:22:42.000Z</time>
      </trkpt>
      <trkpt lat="49.148747" lon="9.636631">
        <ele>489.597492</ele>
        <time>2022-07-23T08:22:44.000Z</time>
      </trkpt>
      <trkpt lat="49.148707" lon="9.636803">
        <ele>489.223876</ele>
        <time>2022-07-23T08:22:46.000Z</time>
      </trkpt>
      <trkpt lat="49.148646" lon="9.636958">
        <ele>488.853647</ele>
        <time>2022-07-23T08:22:48.000Z</time>
      </trkpt>
      <trkpt lat="49.148564" lon="9.637073">
        <ele>488.505465</ele>
        <time>2022-07-23T08:22:49.999Z</time>
      </trkpt>
      <trkpt lat="49.148467" lon="9.637160">
        <ele>488.153575</ele>
        <time>2022-07-23T08:22:51.999Z</time>
      </trkpt>
      <trkpt lat="49.148359" lon="9.637197">
        <ele>487.779601</ele>
        <time>2022-07-23T08:22:53.999Z</time>
      </trkpt>
      <trkpt lat="49.148261" lon="9.637224">
        <ele>487.092677</ele>
        <time>2022-07-23T08:22:55.999Z</time>
      </trkpt>
      <trkpt lat="49.148166" lon="9.637247">
        <ele>486.429172</ele>
        <time>2022-07-23T08:22:57.999Z</time>
      </trkpt>
      <trkpt lat="49.148062" lon="9.637271">
        <ele>485.703621</ele>
        <time>2022-07-23T08:22:59.999Z</time>
      </trkpt>
      <trkpt lat="49.147955" lon="9.637293">
        <ele>484.958858</ele>
        <time>2022-07-23T08:23:01.999Z</time>
      </trkpt>
      <trkpt lat="49.147852" lon="9.637322">
        <ele>484.236383</ele>
        <time>2022-07-23T08:23:03.999Z</time>
      </trkpt>
      <trkpt lat="49.147753" lon="9.637346">
        <ele>483.544918</ele>
        <time>2022-07-23T08:23:05.999Z</time>
      </trkpt>
      <trkpt lat="49.147660" lon="9.637373">
        <ele>482.891911</ele>
        <time>2022-07-23T08:23:07.999Z</time>
      </trkpt>
      <trkpt lat="49.147566" lon="9.637393">
        <ele>482.237221</ele>
        <time>2022-07-23T08:23:09.999Z</time>
      </trkpt>
      <trkpt lat="49.147472" lon="9.637410">
        <ele>481.584259</ele>
        <time>2022-07-23T08:23:11.999Z</time>
      </trkpt>
      <trkpt lat="49.147366" lon="9.637427">
        <ele>480.849026</ele>
        <time>2022-07-23T08:23:13.999Z</time>
      </trkpt>
      <trkpt lat="49.147255" lon="9.637435">
        <ele>480.082464</ele>
        <time>2022-07-23T08:23:15.999Z</time>
      </trkpt>
      <trkpt lat="49.147141" lon="9.637451">
        <ele>479.292750</ele>
        <time>2022-07-23T08:23:17.999Z</time>
      </trkpt>
      <trkpt lat="49.147023" lon="9.637464">
        <ele>478.476640</ele>
        <time>2022-07-23T08:23:19.999Z</time>
      </trkpt>
      <trkpt lat="49.146898" lon="9.637494">
        <ele>477.603791</ele>
        <time>2022-07-23T08:23:21.999Z</time>
      </trkpt>
      <trkpt lat="49.146772" lon="9.637528">
        <ele>476.721169</ele>
        <time>2022-07-23T08:23:23.999Z</time>
      </trkpt>
      <trkpt lat="49.146646" lon="9.637568">
        <ele>475.833440</ele>
        <time>2022-07-23T08:23:25.999Z</time>
      </trkpt>
      <trkpt lat="49.146520" lon="9.637617">
        <ele>475.506645</ele>
        <time>2022-07-23T08:23:27.999Z</time>
      </trkpt>
      <trkpt lat="49.146395" lon="9.637664">
        <ele>475.660117</ele>
        <time>2022-07-23T08:23:29.999Z</time>
      </trkpt>
      <trkpt lat="49.146273" lon="9.637705">
        <ele>475.809043</ele>
        <time>2022-07-23T08:23:31.999Z</time>
      </trkpt>
      <trkpt lat="49.146151" lon="9.637748">
        <ele>475.958313</ele>
        <time>2022-07-23T08:23:33.999Z</time>
      </trkpt>
      <trkpt lat="49.146037" lon="9.637787">
        <ele>476.097590</ele>
        <time>2022-07-23T08:23:35.999Z</time>
      </trkpt>
      <trkpt lat="49.145926" lon="9.637831">
        <ele>476.234305</ele>
        <time>2022-07-23T08:23:37.999Z</time>
      </trkpt>
      <trkpt lat="49.145818" lon="9.637870">
        <ele>476.366611</ele>
        <time>2022-07-23T08:23:39.999Z</time>
      </trkpt>
      <trkpt lat="49.145720" lon="9.637946">
        <ele>476.497624</ele>
        <time>2022-07-23T08:23:41.999Z</time>
      </trkpt>
      <trkpt lat="49.145632" lon="9.638041">
        <ele>476.626065</ele>
        <time>2022-07-23T08:23:43.999Z</time>
      </trkpt>
      <trkpt lat="49.145570" lon="9.638179">
        <ele>476.756629</ele>
        <time>2022-07-23T08:23:45.999Z</time>
      </trkpt>
      <trkpt lat="49.145512" lon="9.638331">
        <ele>476.893868</ele>
        <time>2022-07-23T08:23:47.999Z</time>
      </trkpt>
      <trkpt lat="49.145456" lon="9.638494">
        <ele>477.037457</ele>
        <time>2022-07-23T08:23:49.999Z</time>
      </trkpt>
      <trkpt lat="49.145394" lon="9.638652">
        <ele>477.181151</ele>
        <time>2022-07-23T08:23:51.999Z</time>
      </trkpt>
      <trkpt lat="49.145316" lon="9.638786">
        <ele>477.321042</ele>
        <time>2022-07-23T08:23:53.999Z</time>
      </trkpt>
      <trkpt lat="49.145232" lon="9.638911">
        <ele>477.460804</ele>
        <time>2022-07-23T08:23:55.999Z</time>
      </trkpt>
      <trkpt lat="49.145144" lon="9.639026">
        <ele>477.713796</ele>
        <time>2022-07-23T08:23:57.999Z</time>
      </trkpt>
      <trkpt lat="49.145046" lon="9.639120">
        <ele>478.350763</ele>
        <time>2022-07-23T08:23:59.999Z</time>
      </trkpt>
      <trkpt lat="49.144948" lon="9.639216">
        <ele>478.991587</ele>
        <time>2022-07-23T08:24:01.999Z</time>
      </trkpt>
      <trkpt lat="49.144847" lon="9.639312">
        <ele>479.646379</ele>
        <time>2022-07-23T08:24:03.999Z</time>
      </trkpt>
      <trkpt lat="49.144755" lon="9.639427">
        <ele>480.300674</ele>
        <time>2022-07-23T08:24:05.999Z</time>
      </trkpt>
      <trkpt lat="49.144660" lon="9.639548">
        <ele>480.981463</ele>
        <time>2022-07-23T08:24:07.999Z</time>
      </trkpt>
      <trkpt lat="49.144567" lon="9.639667">
        <ele>481.649184</ele>
        <time>2022-07-23T08:24:09.999Z</time>
      </trkpt>
      <trkpt lat="49.144469" lon="9.639794">
        <ele>482.356522</ele>
        <time>2022-07-23T08:24:11.999Z</time>
      </trkpt>
      <trkpt lat="49.144374" lon="9.639903">
        <ele>483.010491</ele>
        <time>2022-07-23T08:24:13.999Z</time>
      </trkpt>
      <trkpt lat="49.144278" lon="9.640003">
        <ele>483.650075</ele>
        <time>2022-07-23T08:24:15.999Z</time>
      </trkpt>
      <trkpt lat="49.144172" lon="9.640080">
        <ele>484.296211</ele>
        <time>2022-07-23T08:24:17.999Z</time>
      </trkpt>
      <trkpt lat="49.144057" lon="9.640134">
        <ele>484.958557</ele>
        <time>2022-07-23T08:24:19.999Z</time>
      </trkpt>
      <trkpt lat="49.143943" lon="9.640158">
        <ele>485.592123</ele>
        <time>2022-07-23T08:24:21.999Z</time>
      </trkpt>
      <trkpt lat="49.143828" lon="9.640163">
        <ele>486.225528</ele>
        <time>2022-07-23T08:24:23.999Z</time>
      </trkpt>
      <trkpt lat="49.143710" lon="9.640171">
        <ele>486.875832</ele>
        <time>2022-07-23T08:24:25.999Z</time>
      </trkpt>
      <trkpt lat="49.143591" lon="9.640183">
        <ele>487.472820</ele>
        <time>2022-07-23T08:24:27.999Z</time>
      </trkpt>
      <trkpt lat="49.143475" lon="9.640202">
        <ele>487.504425</ele>
        <time>2022-07-23T08:24:29.999Z</time>
      </trkpt>
      <trkpt lat="49.143370" lon="9.640220">
        <ele>487.533049</ele>
        <time>2022-07-23T08:24:31.999Z</time>
      </trkpt>
      <trkpt lat="49.143274" lon="9.640242">
        <ele>487.559346</ele>
        <time>2022-07-23T08:24:33.999Z</time>
      </trkpt>
      <trkpt lat="49.143175" lon="9.640280">
        <ele>487.586999</ele>
        <time>2022-07-23T08:24:35.999Z</time>
      </trkpt>
      <trkpt lat="49.143078" lon="9.640325">
        <ele>487.614460</ele>
        <time>2022-07-23T08:24:37.999Z</time>
      </trkpt>
      <trkpt lat="49.142984" lon="9.640372">
        <ele>487.641253</ele>
        <time>2022-07-23T08:24:39.999Z</time>
      </trkpt>
      <trkpt lat="49.142892" lon="9.640418">
        <ele>487.667476</ele>
        <time>2022-07-23T08:24:41.999Z</time>
      </trkpt>
      <trkpt lat="49.142795" lon="9.640467">
        <ele>487.695152</ele>
        <time>2022-07-23T08:24:43.999Z</time>
      </trkpt>
      <trkpt lat="49.142689" lon="9.640529">
        <ele>487.725898</ele>
        <time>2022-07-23T08:24:45.999Z</time>
      </trkpt>
      <trkpt lat="49.142580" lon="9.640613">
        <ele>487.758967</ele>
        <time>2022-07-23T08:24:47.999Z</time>
      </trkpt>
      <trkpt lat="49.142462" lon="9.640697">
        <ele>487.794231</ele>
        <time>2022-07-23T08:24:49.999Z</time>
      </trkpt>
      <trkpt lat="49.142344" lon="9.640783">
        <ele>487.829645</ele>
        <time>2022-07-23T08:24:51.999Z</time>
      </trkpt>
      <trkpt lat="49.142234" lon="9.640871">
        <ele>487.863279</ele>
        <time>2022-07-23T08:24:53.999Z</time>
      </trkpt>
      <trkpt lat="49.142128" lon="9.640958">
        <ele>487.895873</ele>
        <time>2022-07-23T08:24:55.999Z</time>
      </trkpt>
      <trkpt lat="49.142020" lon="9.641048">
        <ele>487.929196</ele>
        <time>2022-07-23T08:24:57.999Z</time>
      </trkpt>
      <trkpt lat="49.141907" lon="9.641125">
        <ele>487.929337</ele>
        <time>2022-07-23T08:24:59.999Z</time>
      </trkpt>
      <trkpt lat="49.141796" lon="9.641213">
        <ele>487.765272</ele>
        <time>2022-07-23T08:25:01.999Z</time>
      </trkpt>
      <trkpt lat="49.141687" lon="9.641295">
        <ele>487.605872</ele>
        <time>2022-07-23T08:25:03.999Z</time>
      </trkpt>
      <trkpt lat="49.141581" lon="9.641376">
        <ele>487.450380</ele>
        <time>2022-07-23T08:25:05.999Z</time>
      </trkpt>
      <trkpt lat="49.141476" lon="9.641460">
        <ele>487.294883</ele>
        <time>2022-07-23T08:25:07.999Z</time>
      </trkpt>
      <trkpt lat="49.141367" lon="9.641544">
        <ele>487.134718</ele>
        <time>2022-07-23T08:25:09.999Z</time>
      </trkpt>
      <trkpt lat="49.141257" lon="9.641624">
        <ele>486.974884</ele>
        <time>2022-07-23T08:25:11.999Z</time>
      </trkpt>
      <trkpt lat="49.141148" lon="9.641707">
        <ele>486.815103</ele>
        <time>2022-07-23T08:25:13.999Z</time>
      </trkpt>
      <trkpt lat="49.141045" lon="9.641797">
        <ele>486.659435</ele>
        <time>2022-07-23T08:25:15.999Z</time>
      </trkpt>
      <trkpt lat="49.140941" lon="9.641890">
        <ele>486.501342</ele>
        <time>2022-07-23T08:25:17.999Z</time>
      </trkpt>
      <trkpt lat="49.140842" lon="9.641989">
        <ele>486.346117</ele>
        <time>2022-07-23T08:25:19.999Z</time>
      </trkpt>
      <trkpt lat="49.140747" lon="9.642098">
        <ele>486.190261</ele>
        <time>2022-07-23T08:25:21.999Z</time>
      </trkpt>
      <trkpt lat="49.140645" lon="9.642198">
        <ele>486.031265</ele>
        <time>2022-07-23T08:25:23.999Z</time>
      </trkpt>
      <trkpt lat="49.140537" lon="9.642283">
        <ele>485.871878</ele>
        <time>2022-07-23T08:25:25.999Z</time>
      </trkpt>
      <trkpt lat="49.140431" lon="9.642362">
        <ele>485.717145</ele>
        <time>2022-07-23T08:25:27.999Z</time>
      </trkpt>
      <trkpt lat="49.140323" lon="9.642427">
        <ele>485.434274</ele>
        <time>2022-07-23T08:25:29.999Z</time>
      </trkpt>
      <trkpt lat="49.140218" lon="9.642493">
        <ele>484.680496</ele>
        <time>2022-07-23T08:25:31.999Z</time>
      </trkpt>
      <trkpt lat="49.140107" lon="9.642555">
        <ele>483.895862</ele>
        <time>2022-07-23T08:25:33.999Z</time>
      </trkpt>
      <trkpt lat="49.139999" lon="9.642596">
        <ele>483.157024</ele>
        <time>2022-07-23T08:25:35.999Z</time>
      </trkpt>
      <trkpt lat="49.139884" lon="9.642626">
        <ele>482.382455</ele>
        <time>2022-07-23T08:25:37.999Z</time>
      </trkpt>
      <trkpt lat="49.139764" lon="9.642633">
        <ele>481.585149</ele>
        <time>2022-07-23T08:25:39.999Z</time>
      </trkpt>
      <trkpt lat="49.139651" lon="9.642653">
        <ele>480.829885</ele>
        <time>2022-07-23T08:25:41.999Z</time>
      </trkpt>
      <trkpt lat="49.139542" lon="9.642674">
        <ele>480.100466</ele>
        <time>2022-07-23T08:25:43.999Z</time>
      </trkpt>
      <trkpt lat="49.139435" lon="9.642696">
        <ele>479.383653</ele>
        <time>2022-07-23T08:25:45.999Z</time>
      </trkpt>
      <trkpt lat="49.139329" lon="9.642732">
        <ele>478.662715</ele>
        <time>2022-07-23T08:25:47.999Z</time>
      </trkpt>
      <trkpt lat="49.139216" lon="9.642767">
        <ele>477.897216</ele>
        <time>2022-07-23T08:25:49.999Z</time>
      </trkpt>
      <trkpt lat="49.139102" lon="9.642818">
        <ele>477.108574</ele>
        <time>2022-07-23T08:25:51.999Z</time>
      </trkpt>
      <trkpt lat="49.138981" lon="9.642849">
        <ele>476.294002</ele>
        <time>2022-07-23T08:25:53.999Z</time>
      </trkpt>
      <trkpt lat="49.138862" lon="9.642856">
        <ele>475.503329</ele>
        <time>2022-07-23T08:25:55.999Z</time>
      </trkpt>
      <trkpt lat="49.138744" lon="9.642835">
        <ele>474.714589</ele>
        <time>2022-07-23T08:25:57.999Z</time>
      </trkpt>
      <trkpt lat="49.138637" lon="9.642786">
        <ele>473.972976</ele>
        <time>2022-07-23T08:25:59.999Z</time>
      </trkpt>
      <trkpt lat="49.138530" lon="9.642741">
        <ele>473.798379</ele>
        <time>2022-07-23T08:26:01.999Z</time>
      </trkpt>
      <trkpt lat="49.138429" lon="9.642703">
        <ele>474.034519</ele>
        <time>2022-07-23T08:26:03.999Z</time>
      </trkpt>
      <trkpt lat="49.138328" lon="9.642673">
        <ele>474.268105</ele>
        <time>2022-07-23T08:26:05.999Z</time>
      </trkpt>
      <trkpt lat="49.138213" lon="9.642677">
        <ele>474.529253</ele>
        <time>2022-07-23T08:26:07.999Z</time>
      </trkpt>
      <trkpt lat="49.138092" lon="9.642690">
        <ele>474.804632</ele>
        <time>2022-07-23T08:26:09.999Z</time>
      </trkpt>
      <trkpt lat="49.137967" lon="9.642702">
        <ele>475.088974</ele>
        <time>2022-07-23T08:26:11.999Z</time>
      </trkpt>
      <trkpt lat="49.137847" lon="9.642693">
        <ele>475.361734</ele>
        <time>2022-07-23T08:26:13.999Z</time>
      </trkpt>
      <trkpt lat="49.137714" lon="9.642664">
        <ele>475.666735</ele>
        <time>2022-07-23T08:26:15.999Z</time>
      </trkpt>
      <trkpt lat="49.137582" lon="9.642618">
        <ele>475.974100</ele>
        <time>2022-07-23T08:26:17.999Z</time>
      </trkpt>
      <trkpt lat="49.137454" lon="9.642564">
        <ele>476.275560</ele>
        <time>2022-07-23T08:26:19.999Z</time>
      </trkpt>
      <trkpt lat="49.137332" lon="9.642482">
        <ele>476.578128</ele>
        <time>2022-07-23T08:26:21.999Z</time>
      </trkpt>
      <trkpt lat="49.137225" lon="9.642367">
        <ele>476.875089</ele>
        <time>2022-07-23T08:26:23.999Z</time>
      </trkpt>
      <trkpt lat="49.137144" lon="9.642225">
        <ele>477.154913</ele>
        <time>2022-07-23T08:26:25.999Z</time>
      </trkpt>
      <trkpt lat="49.137075" lon="9.642053">
        <ele>477.454590</ele>
        <time>2022-07-23T08:26:27.999Z</time>
      </trkpt>
      <trkpt lat="49.137014" lon="9.641887">
        <ele>477.737383</ele>
        <time>2022-07-23T08:26:29.999Z</time>
      </trkpt>
      <trkpt lat="49.136952" lon="9.641724">
        <ele>478.240987</ele>
        <time>2022-07-23T08:26:31.999Z</time>
      </trkpt>
      <trkpt lat="49.136887" lon="9.641563">
        <ele>478.747212</ele>
        <time>2022-07-23T08:26:33.999Z</time>
      </trkpt>
      <trkpt lat="49.136818" lon="9.641409">
        <ele>479.246654</ele>
        <time>2022-07-23T08:26:35.999Z</time>
      </trkpt>
      <trkpt lat="49.136745" lon="9.641254">
        <ele>479.757688</ele>
        <time>2022-07-23T08:26:37.999Z</time>
      </trkpt>
      <trkpt lat="49.136673" lon="9.641100">
        <ele>480.264165</ele>
        <time>2022-07-23T08:26:39.999Z</time>
      </trkpt>
      <trkpt lat="49.136597" lon="9.640943">
        <ele>480.786756</ele>
        <time>2022-07-23T08:26:41.999Z</time>
      </trkpt>
      <trkpt lat="49.136517" lon="9.640781">
        <ele>481.329859</ele>
        <time>2022-07-23T08:26:43.999Z</time>
      </trkpt>
      <trkpt lat="49.136430" lon="9.640624">
        <ele>481.880399</ele>
        <time>2022-07-23T08:26:45.999Z</time>
      </trkpt>
      <trkpt lat="49.136329" lon="9.640464">
        <ele>482.475319</ele>
        <time>2022-07-23T08:26:47.999Z</time>
      </trkpt>
      <trkpt lat="49.136226" lon="9.640307">
        <ele>483.070252</ele>
        <time>2022-07-23T08:26:49.999Z</time>
      </trkpt>
      <trkpt lat="49.136114" lon="9.640145">
        <ele>483.700913</ele>
        <time>2022-07-23T08:26:51.999Z</time>
      </trkpt>
      <trkpt lat="49.136014" lon="9.640002">
        <ele>484.260992</ele>
        <time>2022-07-23T08:26:53.999Z</time>
      </trkpt>
      <trkpt lat="49.135923" lon="9.639863">
        <ele>484.787165</ele>
        <time>2022-07-23T08:26:55.999Z</time>
      </trkpt>
      <trkpt lat="49.135829" lon="9.639730">
        <ele>485.044213</ele>
        <time>2022-07-23T08:26:57.999Z</time>
      </trkpt>
      <trkpt lat="49.135737" lon="9.639603">
        <ele>484.925879</ele>
        <time>2022-07-23T08:26:59.999Z</time>
      </trkpt>
      <trkpt lat="49.135651" lon="9.639472">
        <ele>484.809980</ele>
        <time>2022-07-23T08:27:01.999Z</time>
      </trkpt>
      <trkpt lat="49.135567" lon="9.639342">
        <ele>484.695870</ele>
        <time>2022-07-23T08:27:03.999Z</time>
      </trkpt>
      <trkpt lat="49.135473" lon="9.639211">
        <ele>484.574443</ele>
        <time>2022-07-23T08:27:05.999Z</time>
      </trkpt>
      <trkpt lat="49.135381" lon="9.639077">
        <ele>484.453134</ele>
        <time>2022-07-23T08:27:07.999Z</time>
      </trkpt>
      <trkpt lat="49.135290" lon="9.638943">
        <ele>484.332514</ele>
        <time>2022-07-23T08:27:09.999Z</time>
      </trkpt>
      <trkpt lat="49.135194" lon="9.638815">
        <ele>484.210908</ele>
        <time>2022-07-23T08:27:11.999Z</time>
      </trkpt>
      <trkpt lat="49.135098" lon="9.638684">
        <ele>484.088063</ele>
        <time>2022-07-23T08:27:13.999Z</time>
      </trkpt>
      <trkpt lat="49.135000" lon="9.638551">
        <ele>483.962961</ele>
        <time>2022-07-23T08:27:15.999Z</time>
      </trkpt>
      <trkpt lat="49.134900" lon="9.638418">
        <ele>483.836425</ele>
        <time>2022-07-23T08:27:17.999Z</time>
      </trkpt>
      <trkpt lat="49.134799" lon="9.638288">
        <ele>483.710382</ele>
        <time>2022-07-23T08:27:19.999Z</time>
      </trkpt>
      <trkpt lat="49.134695" lon="9.638158">
        <ele>483.582135</ele>
        <time>2022-07-23T08:27:21.999Z</time>
      </trkpt>
      <trkpt lat="49.134597" lon="9.638029">
        <ele>483.458677</ele>
        <time>2022-07-23T08:27:23.999Z</time>
      </trkpt>
      <trkpt lat="49.134500" lon="9.637902">
        <ele>483.317775</ele>
        <time>2022-07-23T08:27:25.999Z</time>
      </trkpt>
      <trkpt lat="49.134398" lon="9.637774">
        <ele>483.133544</ele>
        <time>2022-07-23T08:27:27.999Z</time>
      </trkpt>
      <trkpt lat="49.134299" lon="9.637649">
        <ele>482.954287</ele>
        <time>2022-07-23T08:27:29.999Z</time>
      </trkpt>
      <trkpt lat="49.134204" lon="9.637518">
        <ele>482.775674</ele>
        <time>2022-07-23T08:27:31.999Z</time>
      </trkpt>
      <trkpt lat="49.134105" lon="9.637393">
        <ele>482.596417</ele>
        <time>2022-07-23T08:27:33.999Z</time>
      </trkpt>
      <trkpt lat="49.134008" lon="9.637268">
        <ele>482.419303</ele>
        <time>2022-07-23T08:27:35.999Z</time>
      </trkpt>
      <trkpt lat="49.133907" lon="9.637141">
        <ele>482.236729</ele>
        <time>2022-07-23T08:27:37.999Z</time>
      </trkpt>
      <trkpt lat="49.133809" lon="9.637015">
        <ele>482.057958</ele>
        <time>2022-07-23T08:27:39.999Z</time>
      </trkpt>
      <trkpt lat="49.133713" lon="9.636890">
        <ele>481.881909</ele>
        <time>2022-07-23T08:27:41.999Z</time>
      </trkpt>
      <trkpt lat="49.133618" lon="9.636766">
        <ele>481.707514</ele>
        <time>2022-07-23T08:27:43.999Z</time>
      </trkpt>
      <trkpt lat="49.133521" lon="9.636643">
        <ele>481.531571</ele>
        <time>2022-07-23T08:27:45.999Z</time>
      </trkpt>
      <trkpt lat="49.133421" lon="9.636517">
        <ele>481.350655</ele>
        <time>2022-07-23T08:27:47.999Z</time>
      </trkpt>
      <trkpt lat="49.133322" lon="9.636390">
        <ele>481.170227</ele>
        <time>2022-07-23T08:27:49.999Z</time>
      </trkpt>
      <trkpt lat="49.133219" lon="9.636261">
        <ele>480.984335</ele>
        <time>2022-07-23T08:27:51.999Z</time>
      </trkpt>
      <trkpt lat="49.133115" lon="9.636131">
        <ele>480.743937</ele>
        <time>2022-07-23T08:27:53.999Z</time>
      </trkpt>
      <trkpt lat="49.133013" lon="9.635995">
        <ele>480.412785</ele>
        <time>2022-07-23T08:27:55.999Z</time>
      </trkpt>
      <trkpt lat="49.132905" lon="9.635871">
        <ele>480.082318</ele>
        <time>2022-07-23T08:27:57.999Z</time>
      </trkpt>
      <trkpt lat="49.132799" lon="9.635743">
        <ele>479.751818</ele>
        <time>2022-07-23T08:27:59.999Z</time>
      </trkpt>
      <trkpt lat="49.132694" lon="9.635615">
        <ele>479.423234</ele>
        <time>2022-07-23T08:28:01.999Z</time>
      </trkpt>
      <trkpt lat="49.132587" lon="9.635491">
        <ele>479.094719</ele>
        <time>2022-07-23T08:28:03.999Z</time>
      </trkpt>
      <trkpt lat="49.132482" lon="9.635364">
        <ele>478.767131</ele>
        <time>2022-07-23T08:28:05.999Z</time>
      </trkpt>
      <trkpt lat="49.132378" lon="9.635240">
        <ele>478.444432</ele>
        <time>2022-07-23T08:28:07.999Z</time>
      </trkpt>
      <trkpt lat="49.132274" lon="9.635117">
        <ele>478.122716</ele>
        <time>2022-07-23T08:28:09.999Z</time>
      </trkpt>
      <trkpt lat="49.132170" lon="9.634997">
        <ele>477.803916</ele>
        <time>2022-07-23T08:28:11.999Z</time>
      </trkpt>
      <trkpt lat="49.132069" lon="9.634880">
        <ele>477.493866</ele>
        <time>2022-07-23T08:28:13.999Z</time>
      </trkpt>
      <trkpt lat="49.131968" lon="9.634759">
        <ele>477.179907</ele>
        <time>2022-07-23T08:28:15.999Z</time>
      </trkpt>
      <trkpt lat="49.131871" lon="9.634635">
        <ele>476.870530</ele>
        <time>2022-07-23T08:28:17.999Z</time>
      </trkpt>
      <trkpt lat="49.131779" lon="9.634518">
        <ele>476.577725</ele>
        <time>2022-07-23T08:28:19.999Z</time>
      </trkpt>
      <trkpt lat="49.131681" lon="9.634406">
        <ele>476.227981</ele>
        <time>2022-07-23T08:28:21.999Z</time>
      </trkpt>
      <trkpt lat="49.131584" lon="9.634295">
        <ele>475.852253</ele>
        <time>2022-07-23T08:28:23.999Z</time>
      </trkpt>
      <trkpt lat="49.131486" lon="9.634185">
        <ele>475.475243</ele>
        <time>2022-07-23T08:28:25.999Z</time>
      </trkpt>
      <trkpt lat="49.131410" lon="9.634095">
        <ele>475.177132</ele>
        <time>2022-07-23T08:28:27.999Z</time>
      </trkpt>
      <trkpt lat="49.131328" lon="9.634002">
        <ele>474.860519</ele>
        <time>2022-07-23T08:28:30.999Z</time>
      </trkpt>
      <trkpt lat="49.131243" lon="9.633916">
        <ele>474.544444</ele>
        <time>2022-07-23T08:28:37.999Z</time>
      </trkpt>
      <trkpt lat="49.131132" lon="9.633853">
        <ele>474.177306</ele>
        <time>2022-07-23T08:28:40.999Z</time>
      </trkpt>
      <trkpt lat="49.131006" lon="9.633793">
        <ele>473.768102</ele>
        <time>2022-07-23T08:28:43.999Z</time>
      </trkpt>
      <trkpt lat="49.130903" lon="9.633750">
        <ele>473.437036</ele>
        <time>2022-07-23T08:28:45.999Z</time>
      </trkpt>
      <trkpt lat="49.130780" lon="9.633718">
        <ele>473.050172</ele>
        <time>2022-07-23T08:28:47.999Z</time>
      </trkpt>
      <trkpt lat="49.130655" lon="9.633713">
        <ele>472.662461</ele>
        <time>2022-07-23T08:28:49.999Z</time>
      </trkpt>
      <trkpt lat="49.130527" lon="9.633718">
        <ele>472.265451</ele>
        <time>2022-07-23T08:28:51.999Z</time>
      </trkpt>
      <trkpt lat="49.130412" lon="9.633772">
        <ele>471.892428</ele>
        <time>2022-07-23T08:28:53.999Z</time>
      </trkpt>
      <trkpt lat="49.130287" lon="9.633858">
        <ele>471.467385</ele>
        <time>2022-07-23T08:28:55.999Z</time>
      </trkpt>
      <trkpt lat="49.130170" lon="9.633961">
        <ele>471.048727</ele>
        <time>2022-07-23T08:28:57.999Z</time>
      </trkpt>
      <trkpt lat="49.130058" lon="9.634053">
        <ele>470.785080</ele>
        <time>2022-07-23T08:29:00.000Z</time>
      </trkpt>
      <trkpt lat="49.129948" lon="9.634147">
        <ele>470.611188</ele>
        <time>2022-07-23T08:29:02.000Z</time>
      </trkpt>
      <trkpt lat="49.129827" lon="9.634236">
        <ele>470.425905</ele>
        <time>2022-07-23T08:29:04.000Z</time>
      </trkpt>
      <trkpt lat="49.129695" lon="9.634275">
        <ele>470.240403</ele>
        <time>2022-07-23T08:29:06.000Z</time>
      </trkpt>
      <trkpt lat="49.129564" lon="9.634300">
        <ele>470.058249</ele>
        <time>2022-07-23T08:29:07.999Z</time>
      </trkpt>
      <trkpt lat="49.129418" lon="9.634306">
        <ele>469.856729</ele>
        <time>2022-07-23T08:29:09.999Z</time>
      </trkpt>
      <trkpt lat="49.129270" lon="9.634313">
        <ele>469.652425</ele>
        <time>2022-07-23T08:29:11.999Z</time>
      </trkpt>
      <trkpt lat="49.129126" lon="9.634314">
        <ele>469.453736</ele>
        <time>2022-07-23T08:29:13.999Z</time>
      </trkpt>
      <trkpt lat="49.128980" lon="9.634327">
        <ele>469.251948</ele>
        <time>2022-07-23T08:29:15.999Z</time>
      </trkpt>
      <trkpt lat="49.128836" lon="9.634327">
        <ele>469.053260</ele>
        <time>2022-07-23T08:29:17.999Z</time>
      </trkpt>
      <trkpt lat="49.128693" lon="9.634324">
        <ele>468.855934</ele>
        <time>2022-07-23T08:29:19.999Z</time>
      </trkpt>
      <trkpt lat="49.128561" lon="9.634327">
        <ele>468.673784</ele>
        <time>2022-07-23T08:29:21.999Z</time>
      </trkpt>
      <trkpt lat="49.128428" lon="9.634325">
        <ele>468.490266</ele>
        <time>2022-07-23T08:29:23.999Z</time>
      </trkpt>
      <trkpt lat="49.128293" lon="9.634301">
        <ele>468.450068</ele>
        <time>2022-07-23T08:29:25.999Z</time>
      </trkpt>
      <trkpt lat="49.128157" lon="9.634257">
        <ele>468.526515</ele>
        <time>2022-07-23T08:29:27.999Z</time>
      </trkpt>
      <trkpt lat="49.128037" lon="9.634178">
        <ele>468.598370</ele>
        <time>2022-07-23T08:29:29.999Z</time>
      </trkpt>
      <trkpt lat="49.127911" lon="9.634093">
        <ele>468.674112</ele>
        <time>2022-07-23T08:29:31.999Z</time>
      </trkpt>
      <trkpt lat="49.127783" lon="9.634006">
        <ele>468.751151</ele>
        <time>2022-07-23T08:29:33.999Z</time>
      </trkpt>
      <trkpt lat="49.127652" lon="9.633923">
        <ele>468.829138</ele>
        <time>2022-07-23T08:29:35.999Z</time>
      </trkpt>
      <trkpt lat="49.127516" lon="9.633831">
        <ele>468.910928</ele>
        <time>2022-07-23T08:29:37.999Z</time>
      </trkpt>
      <trkpt lat="49.127382" lon="9.633745">
        <ele>468.990853</ele>
        <time>2022-07-23T08:29:39.999Z</time>
      </trkpt>
      <trkpt lat="49.127246" lon="9.633660">
        <ele>469.071657</ele>
        <time>2022-07-23T08:29:41.999Z</time>
      </trkpt>
      <trkpt lat="49.127114" lon="9.633566">
        <ele>469.151742</ele>
        <time>2022-07-23T08:29:43.999Z</time>
      </trkpt>
      <trkpt lat="49.126983" lon="9.633480">
        <ele>469.230149</ele>
        <time>2022-07-23T08:29:45.999Z</time>
      </trkpt>
      <trkpt lat="49.126850" lon="9.633395">
        <ele>469.309428</ele>
        <time>2022-07-23T08:29:47.999Z</time>
      </trkpt>
      <trkpt lat="49.126718" lon="9.633307">
        <ele>469.388625</ele>
        <time>2022-07-23T08:29:49.999Z</time>
      </trkpt>
      <trkpt lat="49.126583" lon="9.633216">
        <ele>470.070912</ele>
        <time>2022-07-23T08:29:51.999Z</time>
      </trkpt>
      <trkpt lat="49.126452" lon="9.633122">
        <ele>470.809849</ele>
        <time>2022-07-23T08:29:53.999Z</time>
      </trkpt>
      <trkpt lat="49.126325" lon="9.633014">
        <ele>471.551938</ele>
        <time>2022-07-23T08:29:55.999Z</time>
      </trkpt>
      <trkpt lat="49.126204" lon="9.632896">
        <ele>472.284832</ele>
        <time>2022-07-23T08:29:57.999Z</time>
      </trkpt>
      <trkpt lat="49.126084" lon="9.632772">
        <ele>473.024469</ele>
        <time>2022-07-23T08:29:59.999Z</time>
      </trkpt>
      <trkpt lat="49.125971" lon="9.632643">
        <ele>473.744654</ele>
        <time>2022-07-23T08:30:01.999Z</time>
      </trkpt>
      <trkpt lat="49.125866" lon="9.632505">
        <ele>474.451781</ele>
        <time>2022-07-23T08:30:03.999Z</time>
      </trkpt>
      <trkpt lat="49.125767" lon="9.632358">
        <ele>475.156590</ele>
        <time>2022-07-23T08:30:05.999Z</time>
      </trkpt>
      <trkpt lat="49.125672" lon="9.632199">
        <ele>475.875980</ele>
        <time>2022-07-23T08:30:07.999Z</time>
      </trkpt>
      <trkpt lat="49.125592" lon="9.632045">
        <ele>476.532955</ele>
        <time>2022-07-23T08:30:09.999Z</time>
      </trkpt>
      <trkpt lat="49.125514" lon="9.631890">
        <ele>477.186277</ele>
        <time>2022-07-23T08:30:11.999Z</time>
      </trkpt>
      <trkpt lat="49.125442" lon="9.631731">
        <ele>477.832335</ele>
        <time>2022-07-23T08:30:13.999Z</time>
      </trkpt>
      <trkpt lat="49.125368" lon="9.631562">
        <ele>478.511763</ele>
        <time>2022-07-23T08:30:15.999Z</time>
      </trkpt>
      <trkpt lat="49.125296" lon="9.631383">
        <ele>478.704245</ele>
        <time>2022-07-23T08:30:17.999Z</time>
      </trkpt>
      <trkpt lat="49.125220" lon="9.631205">
        <ele>478.842710</ele>
        <time>2022-07-23T08:30:19.999Z</time>
      </trkpt>
      <trkpt lat="49.125143" lon="9.631023">
        <ele>478.983902</ele>
        <time>2022-07-23T08:30:21.999Z</time>
      </trkpt>
      <trkpt lat="49.125062" lon="9.630842">
        <ele>479.126758</ele>
        <time>2022-07-23T08:30:23.999Z</time>
      </trkpt>
      <trkpt lat="49.124974" lon="9.630664">
        <ele>479.272096</ele>
        <time>2022-07-23T08:30:25.999Z</time>
      </trkpt>
      <trkpt lat="49.124887" lon="9.630492">
        <ele>479.413723</ele>
        <time>2022-07-23T08:30:27.999Z</time>
      </trkpt>
      <trkpt lat="49.124800" lon="9.630310">
        <ele>479.560559</ele>
        <time>2022-07-23T08:30:29.999Z</time>
      </trkpt>
      <trkpt lat="49.124705" lon="9.630151">
        <ele>479.700827</ele>
        <time>2022-07-23T08:30:31.999Z</time>
      </trkpt>
      <trkpt lat="49.124611" lon="9.629986">
        <ele>479.843351</ele>
        <time>2022-07-23T08:30:33.999Z</time>
      </trkpt>
      <trkpt lat="49.124516" lon="9.629826">
        <ele>479.984101</ele>
        <time>2022-07-23T08:30:35.999Z</time>
      </trkpt>
      <trkpt lat="49.124420" lon="9.629676">
        <ele>480.120791</ele>
        <time>2022-07-23T08:30:37.999Z</time>
      </trkpt>
      <trkpt lat="49.124319" lon="9.629517">
        <ele>480.265154</ele>
        <time>2022-07-23T08:30:39.999Z</time>
      </trkpt>
      <trkpt lat="49.124216" lon="9.629368">
        <ele>480.354028</ele>
        <time>2022-07-23T08:30:41.999Z</time>
      </trkpt>
      <trkpt lat="49.124108" lon="9.629224">
        <ele>480.282818</ele>
        <time>2022-07-23T08:30:43.999Z</time>
      </trkpt>
      <trkpt lat="49.124007" lon="9.629088">
        <ele>480.215939</ele>
        <time>2022-07-23T08:30:45.999Z</time>
      </trkpt>
      <trkpt lat="49.123911" lon="9.628963">
        <ele>480.153279</ele>
        <time>2022-07-23T08:30:47.999Z</time>
      </trkpt>
      <trkpt lat="49.123818" lon="9.628851">
        <ele>480.094451</ele>
        <time>2022-07-23T08:30:49.999Z</time>
      </trkpt>
      <trkpt lat="49.123727" lon="9.628742">
        <ele>480.037008</ele>
        <time>2022-07-23T08:30:51.999Z</time>
      </trkpt>
      <trkpt lat="49.123650" lon="9.628641">
        <ele>479.986593</ele>
        <time>2022-07-23T08:30:53.999Z</time>
      </trkpt>
      <trkpt lat="49.123577" lon="9.628560">
        <ele>479.941773</ele>
        <time>2022-07-23T08:30:55.999Z</time>
      </trkpt>
      <trkpt lat="49.123467" lon="9.628466">
        <ele>479.879159</ele>
        <time>2022-07-23T08:30:58.999Z</time>
      </trkpt>
      <trkpt lat="49.123390" lon="9.628590">
        <ele>479.823582</ele>
        <time>2022-07-23T08:31:01.999Z</time>
      </trkpt>
      <trkpt lat="49.123431" lon="9.628715">
        <ele>479.778123</ele>
        <time>2022-07-23T08:31:03.999Z</time>
      </trkpt>
      <trkpt lat="49.123503" lon="9.628862">
        <ele>479.718426</ele>
        <time>2022-07-23T08:31:06.999Z</time>
      </trkpt>
      <trkpt lat="49.123549" lon="9.628985">
        <ele>479.672366</ele>
        <time>2022-07-23T08:31:09.999Z</time>
      </trkpt>
      <trkpt lat="49.123583" lon="9.629136">
        <ele>479.620448</ele>
        <time>2022-07-23T08:31:12.999Z</time>
      </trkpt>
      <trkpt lat="49.123622" lon="9.629278">
        <ele>479.570379</ele>
        <time>2022-07-23T08:31:15.999Z</time>
      </trkpt>
      <trkpt lat="49.123632" lon="9.629423">
        <ele>479.522975</ele>
        <time>2022-07-23T08:31:18.999Z</time>
      </trkpt>
      <trkpt lat="49.123623" lon="9.629579">
        <ele>479.481730</ele>
        <time>2022-07-23T08:31:22.999Z</time>
      </trkpt>
      <trkpt lat="49.123606" lon="9.629346">
        <ele>479.532348</ele>
        <time>2022-07-23T08:56:20.000Z</time>
      </trkpt>
      <trkpt lat="49.123586" lon="9.629197">
        <ele>479.565189</ele>
        <time>2022-07-23T08:56:26.000Z</time>
      </trkpt>
      <trkpt lat="49.123554" lon="9.629062">
        <ele>479.596190</ele>
        <time>2022-07-23T08:56:31.000Z</time>
      </trkpt>
      <trkpt lat="49.123500" lon="9.628921">
        <ele>479.631463</ele>
        <time>2022-07-23T08:56:36.000Z</time>
      </trkpt>
      <trkpt lat="49.123461" lon="9.628790">
        <ele>479.662536</ele>
        <time>2022-07-23T08:56:41.000Z</time>
      </trkpt>
      <trkpt lat="49.123424" lon="9.628481">
        <ele>479.730360</ele>
        <time>2022-07-23T08:57:13.999Z</time>
      </trkpt>
      <trkpt lat="49.123362" lon="9.628330">
        <ele>479.768848</ele>
        <time>2022-07-23T08:57:17.999Z</time>
      </trkpt>
      <trkpt lat="49.123267" lon="9.628243">
        <ele>479.805389</ele>
        <time>2022-07-23T08:57:20.999Z</time>
      </trkpt>
      <trkpt lat="49.123175" lon="9.628155">
        <ele>479.841198</ele>
        <time>2022-07-23T08:57:22.999Z</time>
      </trkpt>
      <trkpt lat="49.123075" lon="9.628058">
        <ele>479.880276</ele>
        <time>2022-07-23T08:57:24.999Z</time>
      </trkpt>
      <trkpt lat="49.122964" lon="9.627949">
        <ele>479.923807</ele>
        <time>2022-07-23T08:57:26.999Z</time>
      </trkpt>
      <trkpt lat="49.122855" lon="9.627827">
        <ele>479.968384</ele>
        <time>2022-07-23T08:57:28.999Z</time>
      </trkpt>
      <trkpt lat="49.122745" lon="9.627713">
        <ele>480.012235</ele>
        <time>2022-07-23T08:57:30.999Z</time>
      </trkpt>
      <trkpt lat="49.122639" lon="9.627603">
        <ele>480.054509</ele>
        <time>2022-07-23T08:57:32.999Z</time>
      </trkpt>
      <trkpt lat="49.122540" lon="9.627494">
        <ele>480.029813</ele>
        <time>2022-07-23T08:57:34.999Z</time>
      </trkpt>
      <trkpt lat="49.122432" lon="9.627391">
        <ele>479.955656</ele>
        <time>2022-07-23T08:57:36.999Z</time>
      </trkpt>
      <trkpt lat="49.122319" lon="9.627275">
        <ele>479.876360</ele>
        <time>2022-07-23T08:57:38.999Z</time>
      </trkpt>
      <trkpt lat="49.122199" lon="9.627160">
        <ele>479.793852</ele>
        <time>2022-07-23T08:57:40.999Z</time>
      </trkpt>
      <trkpt lat="49.122073" lon="9.627045">
        <ele>479.708362</ele>
        <time>2022-07-23T08:57:42.999Z</time>
      </trkpt>
      <trkpt lat="49.121946" lon="9.626932">
        <ele>479.622758</ele>
        <time>2022-07-23T08:57:44.999Z</time>
      </trkpt>
      <trkpt lat="49.121808" lon="9.626846">
        <ele>479.535945</ele>
        <time>2022-07-23T08:57:46.999Z</time>
      </trkpt>
      <trkpt lat="49.121667" lon="9.626773">
        <ele>479.449228</ele>
        <time>2022-07-23T08:57:48.999Z</time>
      </trkpt>
      <trkpt lat="49.121526" lon="9.626698">
        <ele>479.362263</ele>
        <time>2022-07-23T08:57:50.999Z</time>
      </trkpt>
      <trkpt lat="49.121388" lon="9.626619">
        <ele>479.276423</ele>
        <time>2022-07-23T08:57:52.999Z</time>
      </trkpt>
      <trkpt lat="49.121247" lon="9.626552">
        <ele>479.190412</ele>
        <time>2022-07-23T08:57:54.999Z</time>
      </trkpt>
      <trkpt lat="49.121116" lon="9.626487">
        <ele>479.110183</ele>
        <time>2022-07-23T08:57:56.999Z</time>
      </trkpt>
      <trkpt lat="49.120999" lon="9.626426">
        <ele>479.038174</ele>
        <time>2022-07-23T08:57:58.999Z</time>
      </trkpt>
      <trkpt lat="49.120884" lon="9.626367">
        <ele>479.104743</ele>
        <time>2022-07-23T08:58:00.999Z</time>
      </trkpt>
      <trkpt lat="49.120775" lon="9.626308">
        <ele>479.202223</ele>
        <time>2022-07-23T08:58:02.999Z</time>
      </trkpt>
      <trkpt lat="49.120668" lon="9.626248">
        <ele>479.298305</ele>
        <time>2022-07-23T08:58:04.999Z</time>
      </trkpt>
      <trkpt lat="49.120557" lon="9.626183">
        <ele>479.398512</ele>
        <time>2022-07-23T08:58:06.999Z</time>
      </trkpt>
      <trkpt lat="49.120448" lon="9.626121">
        <ele>479.496557</ele>
        <time>2022-07-23T08:58:09.000Z</time>
      </trkpt>
      <trkpt lat="49.120335" lon="9.626039">
        <ele>479.602011</ele>
        <time>2022-07-23T08:58:11.000Z</time>
      </trkpt>
      <trkpt lat="49.120227" lon="9.625942">
        <ele>479.707617</ele>
        <time>2022-07-23T08:58:13.000Z</time>
      </trkpt>
      <trkpt lat="49.120125" lon="9.625828">
        <ele>479.814149</ele>
        <time>2022-07-23T08:58:15.000Z</time>
      </trkpt>
      <trkpt lat="49.120030" lon="9.625695">
        <ele>479.922766</ele>
        <time>2022-07-23T08:58:17.000Z</time>
      </trkpt>
      <trkpt lat="49.119937" lon="9.625550">
        <ele>480.034774</ele>
        <time>2022-07-23T08:58:19.000Z</time>
      </trkpt>
      <trkpt lat="49.119845" lon="9.625401">
        <ele>480.147789</ele>
        <time>2022-07-23T08:58:21.000Z</time>
      </trkpt>
      <trkpt lat="49.119752" lon="9.625255">
        <ele>480.260192</ele>
        <time>2022-07-23T08:58:23.000Z</time>
      </trkpt>
      <trkpt lat="49.119663" lon="9.625115">
        <ele>480.367872</ele>
        <time>2022-07-23T08:58:25.000Z</time>
      </trkpt>
      <trkpt lat="49.119572" lon="9.624978">
        <ele>480.475564</ele>
        <time>2022-07-23T08:58:27.000Z</time>
      </trkpt>
      <trkpt lat="49.119479" lon="9.624844">
        <ele>480.620628</ele>
        <time>2022-07-23T08:58:29.000Z</time>
      </trkpt>
      <trkpt lat="49.119370" lon="9.624720">
        <ele>480.833404</ele>
        <time>2022-07-23T08:58:31.000Z</time>
      </trkpt>
      <trkpt lat="49.119246" lon="9.624621">
        <ele>481.052464</ele>
        <time>2022-07-23T08:58:33.000Z</time>
      </trkpt>
      <trkpt lat="49.119118" lon="9.624535">
        <ele>481.271400</ele>
        <time>2022-07-23T08:58:35.000Z</time>
      </trkpt>
      <trkpt lat="49.118986" lon="9.624460">
        <ele>481.491905</ele>
        <time>2022-07-23T08:58:37.000Z</time>
      </trkpt>
      <trkpt lat="49.118849" lon="9.624406">
        <ele>481.713435</ele>
        <time>2022-07-23T08:58:39.000Z</time>
      </trkpt>
      <trkpt lat="49.118711" lon="9.624370">
        <ele>481.932634</ele>
        <time>2022-07-23T08:58:41.000Z</time>
      </trkpt>
      <trkpt lat="49.118570" lon="9.624353">
        <ele>482.154090</ele>
        <time>2022-07-23T08:58:43.000Z</time>
      </trkpt>
      <trkpt lat="49.118431" lon="9.624357">
        <ele>482.371767</ele>
        <time>2022-07-23T08:58:45.000Z</time>
      </trkpt>
      <trkpt lat="49.118293" lon="9.624377">
        <ele>482.588809</ele>
        <time>2022-07-23T08:58:47.000Z</time>
      </trkpt>
      <trkpt lat="49.118160" lon="9.624420">
        <ele>482.801664</ele>
        <time>2022-07-23T08:58:49.000Z</time>
      </trkpt>
      <trkpt lat="49.118037" lon="9.624481">
        <ele>483.004142</ele>
        <time>2022-07-23T08:58:51.000Z</time>
      </trkpt>
      <trkpt lat="49.117917" lon="9.624560">
        <ele>483.208730</ele>
        <time>2022-07-23T08:58:52.999Z</time>
      </trkpt>
      <trkpt lat="49.117812" lon="9.624668">
        <ele>483.301649</ele>
        <time>2022-07-23T08:58:54.999Z</time>
      </trkpt>
      <trkpt lat="49.117723" lon="9.624788">
        <ele>483.103082</ele>
        <time>2022-07-23T08:58:56.999Z</time>
      </trkpt>
      <trkpt lat="49.117633" lon="9.624910">
        <ele>482.901810</ele>
        <time>2022-07-23T08:58:58.999Z</time>
      </trkpt>
      <trkpt lat="49.117539" lon="9.625013">
        <ele>482.708303</ele>
        <time>2022-07-23T08:59:00.999Z</time>
      </trkpt>
      <trkpt lat="49.117431" lon="9.625079">
        <ele>482.513718</ele>
        <time>2022-07-23T08:59:02.999Z</time>
      </trkpt>
      <trkpt lat="49.117309" lon="9.625114">
        <ele>482.306063</ele>
        <time>2022-07-23T08:59:04.999Z</time>
      </trkpt>
      <trkpt lat="49.117188" lon="9.625147">
        <ele>482.100448</ele>
        <time>2022-07-23T08:59:06.999Z</time>
      </trkpt>
      <trkpt lat="49.117069" lon="9.625192">
        <ele>481.895372</ele>
        <time>2022-07-23T08:59:08.999Z</time>
      </trkpt>
      <trkpt lat="49.116958" lon="9.625273">
        <ele>481.689593</ele>
        <time>2022-07-23T08:59:10.999Z</time>
      </trkpt>
      <trkpt lat="49.116865" lon="9.625389">
        <ele>481.488756</ele>
        <time>2022-07-23T08:59:12.999Z</time>
      </trkpt>
      <trkpt lat="49.116802" lon="9.625524">
        <ele>481.307219</ele>
        <time>2022-07-23T08:59:14.999Z</time>
      </trkpt>
      <trkpt lat="49.116752" lon="9.625685">
        <ele>481.112100</ele>
        <time>2022-07-23T08:59:16.999Z</time>
      </trkpt>
      <trkpt lat="49.116727" lon="9.625858">
        <ele>480.918118</ele>
        <time>2022-07-23T08:59:18.999Z</time>
      </trkpt>
      <trkpt lat="49.116703" lon="9.626025">
        <ele>480.730911</ele>
        <time>2022-07-23T08:59:20.999Z</time>
      </trkpt>
      <trkpt lat="49.116681" lon="9.626202">
        <ele>480.533647</ele>
        <time>2022-07-23T08:59:22.999Z</time>
      </trkpt>
      <trkpt lat="49.116643" lon="9.626381">
        <ele>480.374908</ele>
        <time>2022-07-23T08:59:24.999Z</time>
      </trkpt>
      <trkpt lat="49.116607" lon="9.626563">
        <ele>480.670436</ele>
        <time>2022-07-23T08:59:26.999Z</time>
      </trkpt>
      <trkpt lat="49.116562" lon="9.626739">
        <ele>480.964134</ele>
        <time>2022-07-23T08:59:28.999Z</time>
      </trkpt>
      <trkpt lat="49.116506" lon="9.626915">
        <ele>481.268312</ele>
        <time>2022-07-23T08:59:30.999Z</time>
      </trkpt>
      <trkpt lat="49.116444" lon="9.627091">
        <ele>481.578984</ele>
        <time>2022-07-23T08:59:32.999Z</time>
      </trkpt>
      <trkpt lat="49.116378" lon="9.627255">
        <ele>481.878229</ele>
        <time>2022-07-23T08:59:34.999Z</time>
      </trkpt>
      <trkpt lat="49.116300" lon="9.627411">
        <ele>482.183365</ele>
        <time>2022-07-23T08:59:36.999Z</time>
      </trkpt>
      <trkpt lat="49.116201" lon="9.627549">
        <ele>482.501618</ele>
        <time>2022-07-23T08:59:38.999Z</time>
      </trkpt>
      <trkpt lat="49.116096" lon="9.627675">
        <ele>482.818689</ele>
        <time>2022-07-23T08:59:40.999Z</time>
      </trkpt>
      <trkpt lat="49.115981" lon="9.627778">
        <ele>483.135259</ele>
        <time>2022-07-23T08:59:42.999Z</time>
      </trkpt>
      <trkpt lat="49.115862" lon="9.627863">
        <ele>483.447218</ele>
        <time>2022-07-23T08:59:44.999Z</time>
      </trkpt>
      <trkpt lat="49.115740" lon="9.627931">
        <ele>483.755621</ele>
        <time>2022-07-23T08:59:46.999Z</time>
      </trkpt>
      <trkpt lat="49.115618" lon="9.627985">
        <ele>484.057259</ele>
        <time>2022-07-23T08:59:48.999Z</time>
      </trkpt>
      <trkpt lat="49.115493" lon="9.628018">
        <ele>484.358506</ele>
        <time>2022-07-23T08:59:50.999Z</time>
      </trkpt>
      <trkpt lat="49.115359" lon="9.628017">
        <ele>484.661394</ele>
        <time>2022-07-23T08:59:52.999Z</time>
      </trkpt>
      <trkpt lat="49.115223" lon="9.628001">
        <ele>484.899921</ele>
        <time>2022-07-23T08:59:54.999Z</time>
      </trkpt>
      <trkpt lat="49.115090" lon="9.627961">
        <ele>485.136963</ele>
        <time>2022-07-23T08:59:56.999Z</time>
      </trkpt>
      <trkpt lat="49.114960" lon="9.627897">
        <ele>485.375805</ele>
        <time>2022-07-23T08:59:58.999Z</time>
      </trkpt>
      <trkpt lat="49.114832" lon="9.627836">
        <ele>485.610276</ele>
        <time>2022-07-23T09:00:00.999Z</time>
      </trkpt>
      <trkpt lat="49.114707" lon="9.627778">
        <ele>485.838723</ele>
        <time>2022-07-23T09:00:02.999Z</time>
      </trkpt>
      <trkpt lat="49.114582" lon="9.627721">
        <ele>486.066840</ele>
        <time>2022-07-23T09:00:04.999Z</time>
      </trkpt>
      <trkpt lat="49.114459" lon="9.627673">
        <ele>486.288837</ele>
        <time>2022-07-23T09:00:06.999Z</time>
      </trkpt>
      <trkpt lat="49.114337" lon="9.627633">
        <ele>486.507036</ele>
        <time>2022-07-23T09:00:08.999Z</time>
      </trkpt>
      <trkpt lat="49.114213" lon="9.627597">
        <ele>486.727756</ele>
        <time>2022-07-23T09:00:10.999Z</time>
      </trkpt>
      <trkpt lat="49.114082" lon="9.627563">
        <ele>486.960118</ele>
        <time>2022-07-23T09:00:12.999Z</time>
      </trkpt>
      <trkpt lat="49.113950" lon="9.627546">
        <ele>487.191766</ele>
        <time>2022-07-23T09:00:15.000Z</time>
      </trkpt>
      <trkpt lat="49.113817" lon="9.627541">
        <ele>487.424414</ele>
        <time>2022-07-23T09:00:17.000Z</time>
      </trkpt>
      <trkpt lat="49.113684" lon="9.627541">
        <ele>487.656992</ele>
        <time>2022-07-23T09:00:19.000Z</time>
      </trkpt>
      <trkpt lat="49.113550" lon="9.627552">
        <ele>487.716992</ele>
        <time>2022-07-23T09:00:21.000Z</time>
      </trkpt>
      <trkpt lat="49.113418" lon="9.627579">
        <ele>487.631615</ele>
        <time>2022-07-23T09:00:23.000Z</time>
      </trkpt>
      <trkpt lat="49.113284" lon="9.627608">
        <ele>487.544853</ele>
        <time>2022-07-23T09:00:25.000Z</time>
      </trkpt>
      <trkpt lat="49.113150" lon="9.627645">
        <ele>487.457556</ele>
        <time>2022-07-23T09:00:27.000Z</time>
      </trkpt>
      <trkpt lat="49.113016" lon="9.627687">
        <ele>487.369863</ele>
        <time>2022-07-23T09:00:29.000Z</time>
      </trkpt>
      <trkpt lat="49.112881" lon="9.627727">
        <ele>487.281704</ele>
        <time>2022-07-23T09:00:31.000Z</time>
      </trkpt>
      <trkpt lat="49.112747" lon="9.627770">
        <ele>487.193925</ele>
        <time>2022-07-23T09:00:33.000Z</time>
      </trkpt>
      <trkpt lat="49.112614" lon="9.627812">
        <ele>487.106860</ele>
        <time>2022-07-23T09:00:35.000Z</time>
      </trkpt>
      <trkpt lat="49.112482" lon="9.627852">
        <ele>487.020589</ele>
        <time>2022-07-23T09:00:37.000Z</time>
      </trkpt>
      <trkpt lat="49.112348" lon="9.627886">
        <ele>486.933507</ele>
        <time>2022-07-23T09:00:39.000Z</time>
      </trkpt>
      <trkpt lat="49.112212" lon="9.627911">
        <ele>486.845692</ele>
        <time>2022-07-23T09:00:41.000Z</time>
      </trkpt>
      <trkpt lat="49.112074" lon="9.627922">
        <ele>486.757103</ele>
        <time>2022-07-23T09:00:43.000Z</time>
      </trkpt>
      <trkpt lat="49.111934" lon="9.627918">
        <ele>486.667336</ele>
        <time>2022-07-23T09:00:45.000Z</time>
      </trkpt>
      <trkpt lat="49.111794" lon="9.627905">
        <ele>486.500339</ele>
        <time>2022-07-23T09:00:47.000Z</time>
      </trkpt>
      <trkpt lat="49.111654" lon="9.627878">
        <ele>486.200836</ele>
        <time>2022-07-23T09:00:49.000Z</time>
      </trkpt>
      <trkpt lat="49.111515" lon="9.627836">
        <ele>485.900098</ele>
        <time>2022-07-23T09:00:51.000Z</time>
      </trkpt>
      <trkpt lat="49.111377" lon="9.627790">
        <ele>485.600307</ele>
        <time>2022-07-23T09:00:53.000Z</time>
      </trkpt>
      <trkpt lat="49.111242" lon="9.627740">
        <ele>485.305474</ele>
        <time>2022-07-23T09:00:55.000Z</time>
      </trkpt>
      <trkpt lat="49.111109" lon="9.627688">
        <ele>485.014088</ele>
        <time>2022-07-23T09:00:57.000Z</time>
      </trkpt>
      <trkpt lat="49.110978" lon="9.627634">
        <ele>484.726101</ele>
        <time>2022-07-23T09:00:59.000Z</time>
      </trkpt>
      <trkpt lat="49.110847" lon="9.627580">
        <ele>484.438115</ele>
        <time>2022-07-23T09:01:01.000Z</time>
      </trkpt>
      <trkpt lat="49.110718" lon="9.627525">
        <ele>484.153854</ele>
        <time>2022-07-23T09:01:03.000Z</time>
      </trkpt>
      <trkpt lat="49.110586" lon="9.627470">
        <ele>483.863454</ele>
        <time>2022-07-23T09:01:05.000Z</time>
      </trkpt>
      <trkpt lat="49.110453" lon="9.627413">
        <ele>483.570269</ele>
        <time>2022-07-23T09:01:07.000Z</time>
      </trkpt>
      <trkpt lat="49.110321" lon="9.627361">
        <ele>483.280938</ele>
        <time>2022-07-23T09:01:09.000Z</time>
      </trkpt>
      <trkpt lat="49.110184" lon="9.627309">
        <ele>482.981320</ele>
        <time>2022-07-23T09:01:11.000Z</time>
      </trkpt>
      <trkpt lat="49.110044" lon="9.627268">
        <ele>482.632946</ele>
        <time>2022-07-23T09:01:13.000Z</time>
      </trkpt>
      <trkpt lat="49.109903" lon="9.627236">
        <ele>482.209285</ele>
        <time>2022-07-23T09:01:14.999Z</time>
      </trkpt>
      <trkpt lat="49.109760" lon="9.627212">
        <ele>481.781722</ele>
        <time>2022-07-23T09:01:16.999Z</time>
      </trkpt>
      <trkpt lat="49.109618" lon="9.627205">
        <ele>481.359469</ele>
        <time>2022-07-23T09:01:18.999Z</time>
      </trkpt>
      <trkpt lat="49.109478" lon="9.627212">
        <ele>480.943157</ele>
        <time>2022-07-23T09:01:20.999Z</time>
      </trkpt>
      <trkpt lat="49.109337" lon="9.627226">
        <ele>480.523211</ele>
        <time>2022-07-23T09:01:22.999Z</time>
      </trkpt>
      <trkpt lat="49.109200" lon="9.627253">
        <ele>480.112663</ele>
        <time>2022-07-23T09:01:24.999Z</time>
      </trkpt>
      <trkpt lat="49.109067" lon="9.627284">
        <ele>479.712803</ele>
        <time>2022-07-23T09:01:26.999Z</time>
      </trkpt>
      <trkpt lat="49.108937" lon="9.627332">
        <ele>479.315308</ele>
        <time>2022-07-23T09:01:28.999Z</time>
      </trkpt>
      <trkpt lat="49.108811" lon="9.627392">
        <ele>478.923054</ele>
        <time>2022-07-23T09:01:30.999Z</time>
      </trkpt>
      <trkpt lat="49.108685" lon="9.627449">
        <ele>478.532498</ele>
        <time>2022-07-23T09:01:32.999Z</time>
      </trkpt>
      <trkpt lat="49.108556" lon="9.627515">
        <ele>478.128169</ele>
        <time>2022-07-23T09:01:34.999Z</time>
      </trkpt>
      <trkpt lat="49.108437" lon="9.627605">
        <ele>477.733519</ele>
        <time>2022-07-23T09:01:36.999Z</time>
      </trkpt>
      <trkpt lat="49.108320" lon="9.627700">
        <ele>477.426490</ele>
        <time>2022-07-23T09:01:38.999Z</time>
      </trkpt>
      <trkpt lat="49.108208" lon="9.627792">
        <ele>477.352722</ele>
        <time>2022-07-23T09:01:40.999Z</time>
      </trkpt>
      <trkpt lat="49.108100" lon="9.627879">
        <ele>477.281894</ele>
        <time>2022-07-23T09:01:42.999Z</time>
      </trkpt>
      <trkpt lat="49.107994" lon="9.627967">
        <ele>477.211910</ele>
        <time>2022-07-23T09:01:44.999Z</time>
      </trkpt>
      <trkpt lat="49.107890" lon="9.628058">
        <ele>477.142384</ele>
        <time>2022-07-23T09:01:46.999Z</time>
      </trkpt>
      <trkpt lat="49.107783" lon="9.628148">
        <ele>477.071526</ele>
        <time>2022-07-23T09:01:48.999Z</time>
      </trkpt>
      <trkpt lat="49.107676" lon="9.628231">
        <ele>477.001912</ele>
        <time>2022-07-23T09:01:50.999Z</time>
      </trkpt>
      <trkpt lat="49.107569" lon="9.628320">
        <ele>476.931236</ele>
        <time>2022-07-23T09:01:52.999Z</time>
      </trkpt>
      <trkpt lat="49.107461" lon="9.628399">
        <ele>476.861773</ele>
        <time>2022-07-23T09:01:54.999Z</time>
      </trkpt>
      <trkpt lat="49.107343" lon="9.628465">
        <ele>476.788878</ele>
        <time>2022-07-23T09:01:56.999Z</time>
      </trkpt>
      <trkpt lat="49.107230" lon="9.628517">
        <ele>476.720417</ele>
        <time>2022-07-23T09:01:58.999Z</time>
      </trkpt>
      <trkpt lat="49.107112" lon="9.628566">
        <ele>476.649482</ele>
        <time>2022-07-23T09:02:00.999Z</time>
      </trkpt>
      <trkpt lat="49.107002" lon="9.628634">
        <ele>476.580644</ele>
        <time>2022-07-23T09:02:02.999Z</time>
      </trkpt>
      <trkpt lat="49.106922" lon="9.628767">
        <ele>476.512054</ele>
        <time>2022-07-23T09:02:04.999Z</time>
      </trkpt>
      <trkpt lat="49.106863" lon="9.628916">
        <ele>476.445924</ele>
        <time>2022-07-23T09:02:06.999Z</time>
      </trkpt>
      <trkpt lat="49.106803" lon="9.629084">
        <ele>476.421015</ele>
        <time>2022-07-23T09:02:08.999Z</time>
      </trkpt>
      <trkpt lat="49.106754" lon="9.629239">
        <ele>476.456685</ele>
        <time>2022-07-23T09:02:10.999Z</time>
      </trkpt>
      <trkpt lat="49.106715" lon="9.629382">
        <ele>476.488788</ele>
        <time>2022-07-23T09:02:12.999Z</time>
      </trkpt>
      <trkpt lat="49.106663" lon="9.629534">
        <ele>476.524330</ele>
        <time>2022-07-23T09:02:14.999Z</time>
      </trkpt>
      <trkpt lat="49.106607" lon="9.629689">
        <ele>476.561018</ele>
        <time>2022-07-23T09:02:16.999Z</time>
      </trkpt>
      <trkpt lat="49.106548" lon="9.629844">
        <ele>476.598174</ele>
        <time>2022-07-23T09:02:18.999Z</time>
      </trkpt>
      <trkpt lat="49.106478" lon="9.629993">
        <ele>476.636180</ele>
        <time>2022-07-23T09:02:21.000Z</time>
      </trkpt>
      <trkpt lat="49.106396" lon="9.630126">
        <ele>476.674041</ele>
        <time>2022-07-23T09:02:23.000Z</time>
      </trkpt>
      <trkpt lat="49.106301" lon="9.630223">
        <ele>476.710214</ele>
        <time>2022-07-23T09:02:25.000Z</time>
      </trkpt>
      <trkpt lat="49.106202" lon="9.630297">
        <ele>476.745103</ele>
        <time>2022-07-23T09:02:27.000Z</time>
      </trkpt>
      <trkpt lat="49.106099" lon="9.630359">
        <ele>476.780149</ele>
        <time>2022-07-23T09:02:29.000Z</time>
      </trkpt>
      <trkpt lat="49.105996" lon="9.630415">
        <ele>476.814758</ele>
        <time>2022-07-23T09:02:31.000Z</time>
      </trkpt>
      <trkpt lat="49.105894" lon="9.630474">
        <ele>476.849284</ele>
        <time>2022-07-23T09:02:33.000Z</time>
      </trkpt>
      <trkpt lat="49.105797" lon="9.630531">
        <ele>476.882183</ele>
        <time>2022-07-23T09:02:35.000Z</time>
      </trkpt>
      <trkpt lat="49.105695" lon="9.630597">
        <ele>476.917249</ele>
        <time>2022-07-23T09:02:37.000Z</time>
      </trkpt>
      <trkpt lat="49.105602" lon="9.630678">
        <ele>476.951138</ele>
        <time>2022-07-23T09:02:39.000Z</time>
      </trkpt>
      <trkpt lat="49.105519" lon="9.630773">
        <ele>477.075480</ele>
        <time>2022-07-23T09:02:41.000Z</time>
      </trkpt>
      <trkpt lat="49.105437" lon="9.630874">
        <ele>477.400816</ele>
        <time>2022-07-23T09:02:43.000Z</time>
      </trkpt>
      <trkpt lat="49.105356" lon="9.630995">
        <ele>477.750731</ele>
        <time>2022-07-23T09:02:45.000Z</time>
      </trkpt>
      <trkpt lat="49.105286" lon="9.631104">
        <ele>478.059459</ele>
        <time>2022-07-23T09:02:47.000Z</time>
      </trkpt>
      <trkpt lat="49.105207" lon="9.631231">
        <ele>478.413680</ele>
        <time>2022-07-23T09:02:49.000Z</time>
      </trkpt>
      <trkpt lat="49.105129" lon="9.631356">
        <ele>478.762842</ele>
        <time>2022-07-23T09:02:51.000Z</time>
      </trkpt>
      <trkpt lat="49.105046" lon="9.631471">
        <ele>479.108936</ele>
        <time>2022-07-23T09:02:53.000Z</time>
      </trkpt>
      <trkpt lat="49.104951" lon="9.631561">
        <ele>479.454195</ele>
        <time>2022-07-23T09:02:55.000Z</time>
      </trkpt>
      <trkpt lat="49.104851" lon="9.631625">
        <ele>479.789059</ele>
        <time>2022-07-23T09:02:57.000Z</time>
      </trkpt>
      <trkpt lat="49.104750" lon="9.631661">
        <ele>480.109378</ele>
        <time>2022-07-23T09:02:59.000Z</time>
      </trkpt>
      <trkpt lat="49.104652" lon="9.631681">
        <ele>480.414741</ele>
        <time>2022-07-23T09:03:01.000Z</time>
      </trkpt>
      <trkpt lat="49.104557" lon="9.631695">
        <ele>480.709511</ele>
        <time>2022-07-23T09:03:03.000Z</time>
      </trkpt>
      <trkpt lat="49.104458" lon="9.631714">
        <ele>481.017677</ele>
        <time>2022-07-23T09:03:05.000Z</time>
      </trkpt>
      <trkpt lat="49.104354" lon="9.631733">
        <ele>481.341170</ele>
        <time>2022-07-23T09:03:07.000Z</time>
      </trkpt>
      <trkpt lat="49.104245" lon="9.631757">
        <ele>481.681297</ele>
        <time>2022-07-23T09:03:09.000Z</time>
      </trkpt>
      <trkpt lat="49.104131" lon="9.631792">
        <ele>482.040428</ele>
        <time>2022-07-23T09:03:11.000Z</time>
      </trkpt>
      <trkpt lat="49.104017" lon="9.631831">
        <ele>482.401240</ele>
        <time>2022-07-23T09:03:12.999Z</time>
      </trkpt>
      <trkpt lat="49.103913" lon="9.631895">
        <ele>482.865849</ele>
        <time>2022-07-23T09:03:14.999Z</time>
      </trkpt>
      <trkpt lat="49.103809" lon="9.631967">
        <ele>483.409117</ele>
        <time>2022-07-23T09:03:16.999Z</time>
      </trkpt>
      <trkpt lat="49.103709" lon="9.632046">
        <ele>483.944771</ele>
        <time>2022-07-23T09:03:18.999Z</time>
      </trkpt>
      <trkpt lat="49.103612" lon="9.632132">
        <ele>484.478395</ele>
        <time>2022-07-23T09:03:20.999Z</time>
      </trkpt>
      <trkpt lat="49.103516" lon="9.632224">
        <ele>485.017605</ele>
        <time>2022-07-23T09:03:22.999Z</time>
      </trkpt>
      <trkpt lat="49.103424" lon="9.632318">
        <ele>485.544230</ele>
        <time>2022-07-23T09:03:24.999Z</time>
      </trkpt>
      <trkpt lat="49.103330" lon="9.632414">
        <ele>486.082229</ele>
        <time>2022-07-23T09:03:26.999Z</time>
      </trkpt>
      <trkpt lat="49.103240" lon="9.632509">
        <ele>486.602737</ele>
        <time>2022-07-23T09:03:28.999Z</time>
      </trkpt>
      <trkpt lat="49.103153" lon="9.632609">
        <ele>487.120781</ele>
        <time>2022-07-23T09:03:30.999Z</time>
      </trkpt>
      <trkpt lat="49.103069" lon="9.632734">
        <ele>487.678755</ele>
        <time>2022-07-23T09:03:32.999Z</time>
      </trkpt>
      <trkpt lat="49.103020" lon="9.632907">
        <ele>488.265912</ele>
        <time>2022-07-23T09:03:34.999Z</time>
      </trkpt>
      <trkpt lat="49.102987" lon="9.633086">
        <ele>488.845175</ele>
        <time>2022-07-23T09:03:36.999Z</time>
      </trkpt>
      <trkpt lat="49.102968" lon="9.633269">
        <ele>489.422337</ele>
        <time>2022-07-23T09:03:38.999Z</time>
      </trkpt>
      <trkpt lat="49.102954" lon="9.633456">
        <ele>490.008632</ele>
        <time>2022-07-23T09:03:40.999Z</time>
      </trkpt>
      <trkpt lat="49.102950" lon="9.633644">
        <ele>490.594555</ele>
        <time>2022-07-23T09:03:42.999Z</time>
      </trkpt>
      <trkpt lat="49.102953" lon="9.633833">
        <ele>491.112812</ele>
        <time>2022-07-23T09:03:44.999Z</time>
      </trkpt>
      <trkpt lat="49.102961" lon="9.634021">
        <ele>491.272987</ele>
        <time>2022-07-23T09:03:46.999Z</time>
      </trkpt>
      <trkpt lat="49.102976" lon="9.634208">
        <ele>491.433163</ele>
        <time>2022-07-23T09:03:48.999Z</time>
      </trkpt>
      <trkpt lat="49.102995" lon="9.634398">
        <ele>491.596574</ele>
        <time>2022-07-23T09:03:50.999Z</time>
      </trkpt>
      <trkpt lat="49.103009" lon="9.634588">
        <ele>491.759132</ele>
        <time>2022-07-23T09:03:52.999Z</time>
      </trkpt>
      <trkpt lat="49.103027" lon="9.634782">
        <ele>491.925718</ele>
        <time>2022-07-23T09:03:54.999Z</time>
      </trkpt>
      <trkpt lat="49.103068" lon="9.634964">
        <ele>492.089358</ele>
        <time>2022-07-23T09:03:56.999Z</time>
      </trkpt>
      <trkpt lat="49.103103" lon="9.635147">
        <ele>492.251447</ele>
        <time>2022-07-23T09:03:58.999Z</time>
      </trkpt>
      <trkpt lat="49.103120" lon="9.635336">
        <ele>492.413644</ele>
        <time>2022-07-23T09:04:00.999Z</time>
      </trkpt>
      <trkpt lat="49.103130" lon="9.635526">
        <ele>492.575702</ele>
        <time>2022-07-23T09:04:02.999Z</time>
      </trkpt>
      <trkpt lat="49.103140" lon="9.635708">
        <ele>492.730982</ele>
        <time>2022-07-23T09:04:04.999Z</time>
      </trkpt>
      <trkpt lat="49.103142" lon="9.635893">
        <ele>492.888289</ele>
        <time>2022-07-23T09:04:06.999Z</time>
      </trkpt>
      <trkpt lat="49.103133" lon="9.636085">
        <ele>493.051945</ele>
        <time>2022-07-23T09:04:08.999Z</time>
      </trkpt>
      <trkpt lat="49.103118" lon="9.636280">
        <ele>493.218873</ele>
        <time>2022-07-23T09:04:10.999Z</time>
      </trkpt>
      <trkpt lat="49.103092" lon="9.636472">
        <ele>493.385566</ele>
        <time>2022-07-23T09:04:12.999Z</time>
      </trkpt>
      <trkpt lat="49.103061" lon="9.636665">
        <ele>493.456178</ele>
        <time>2022-07-23T09:04:14.999Z</time>
      </trkpt>
      <trkpt lat="49.103023" lon="9.636851">
        <ele>493.498885</ele>
        <time>2022-07-23T09:04:16.999Z</time>
      </trkpt>
      <trkpt lat="49.102970" lon="9.637026">
        <ele>493.541147</ele>
        <time>2022-07-23T09:04:18.999Z</time>
      </trkpt>
      <trkpt lat="49.102919" lon="9.637202">
        <ele>493.583333</ele>
        <time>2022-07-23T09:04:20.999Z</time>
      </trkpt>
      <trkpt lat="49.102862" lon="9.637367">
        <ele>493.624224</ele>
        <time>2022-07-23T09:04:22.999Z</time>
      </trkpt>
      <trkpt lat="49.102796" lon="9.637521">
        <ele>493.664567</ele>
        <time>2022-07-23T09:04:24.999Z</time>
      </trkpt>
      <trkpt lat="49.102731" lon="9.637681">
        <ele>493.705840</ele>
        <time>2022-07-23T09:04:27.000Z</time>
      </trkpt>
      <trkpt lat="49.102655" lon="9.637835">
        <ele>493.748109</ele>
        <time>2022-07-23T09:04:29.000Z</time>
      </trkpt>
      <trkpt lat="49.102581" lon="9.637988">
        <ele>493.789803</ele>
        <time>2022-07-23T09:04:31.000Z</time>
      </trkpt>
      <trkpt lat="49.102506" lon="9.638140">
        <ele>493.831521</ele>
        <time>2022-07-23T09:04:33.000Z</time>
      </trkpt>
      <trkpt lat="49.102430" lon="9.638284">
        <ele>493.872062</ele>
        <time>2022-07-23T09:04:35.000Z</time>
      </trkpt>
      <trkpt lat="49.102358" lon="9.638427">
        <ele>493.911603</ele>
        <time>2022-07-23T09:04:37.000Z</time>
      </trkpt>
      <trkpt lat="49.102280" lon="9.638572">
        <ele>493.952736</ele>
        <time>2022-07-23T09:04:39.000Z</time>
      </trkpt>
      <trkpt lat="49.102202" lon="9.638722">
        <ele>493.994723</ele>
        <time>2022-07-23T09:04:41.000Z</time>
      </trkpt>
      <trkpt lat="49.102121" lon="9.638879">
        <ele>494.072602</ele>
        <time>2022-07-23T09:04:43.000Z</time>
      </trkpt>
      <trkpt lat="49.102038" lon="9.639035">
        <ele>494.221180</ele>
        <time>2022-07-23T09:04:45.000Z</time>
      </trkpt>
      <trkpt lat="49.101954" lon="9.639189">
        <ele>494.369334</ele>
        <time>2022-07-23T09:04:47.000Z</time>
      </trkpt>
      <trkpt lat="49.101865" lon="9.639338">
        <ele>494.518412</ele>
        <time>2022-07-23T09:04:49.000Z</time>
      </trkpt>
      <trkpt lat="49.101770" lon="9.639476">
        <ele>494.666422</ele>
        <time>2022-07-23T09:04:51.000Z</time>
      </trkpt>
      <trkpt lat="49.101667" lon="9.639602">
        <ele>494.815401</ele>
        <time>2022-07-23T09:04:53.000Z</time>
      </trkpt>
      <trkpt lat="49.101553" lon="9.639706">
        <ele>494.965310</ele>
        <time>2022-07-23T09:04:55.000Z</time>
      </trkpt>
      <trkpt lat="49.101434" lon="9.639791">
        <ele>495.113619</ele>
        <time>2022-07-23T09:04:57.000Z</time>
      </trkpt>
      <trkpt lat="49.101310" lon="9.639857">
        <ele>495.261865</ele>
        <time>2022-07-23T09:04:59.000Z</time>
      </trkpt>
      <trkpt lat="49.101181" lon="9.639910">
        <ele>495.412676</ele>
        <time>2022-07-23T09:05:01.000Z</time>
      </trkpt>
      <trkpt lat="49.101050" lon="9.639937">
        <ele>495.561908</ele>
        <time>2022-07-23T09:05:03.000Z</time>
      </trkpt>
      <trkpt lat="49.100918" lon="9.639947">
        <ele>495.711112</ele>
        <time>2022-07-23T09:05:05.000Z</time>
      </trkpt>
      <trkpt lat="49.100787" lon="9.639941">
        <ele>495.859070</ele>
        <time>2022-07-23T09:05:07.000Z</time>
      </trkpt>
      <trkpt lat="49.100655" lon="9.639937">
        <ele>496.008120</ele>
        <time>2022-07-23T09:05:09.000Z</time>
      </trkpt>
      <trkpt lat="49.100523" lon="9.639940">
        <ele>496.283240</ele>
        <time>2022-07-23T09:05:11.000Z</time>
      </trkpt>
      <trkpt lat="49.100389" lon="9.639959">
        <ele>496.622209</ele>
        <time>2022-07-23T09:05:13.000Z</time>
      </trkpt>
      <trkpt lat="49.100256" lon="9.639992">
        <ele>496.961600</ele>
        <time>2022-07-23T09:05:15.000Z</time>
      </trkpt>
      <trkpt lat="49.100126" lon="9.640035">
        <ele>497.296633</ele>
        <time>2022-07-23T09:05:17.000Z</time>
      </trkpt>
      <trkpt lat="49.099998" lon="9.640093">
        <ele>497.632928</ele>
        <time>2022-07-23T09:05:19.000Z</time>
      </trkpt>
      <trkpt lat="49.099871" lon="9.640172">
        <ele>497.978328</ele>
        <time>2022-07-23T09:05:21.000Z</time>
      </trkpt>
      <trkpt lat="49.099749" lon="9.640265">
        <ele>498.321769</ele>
        <time>2022-07-23T09:05:23.000Z</time>
      </trkpt>
      <trkpt lat="49.099633" lon="9.640371">
        <ele>498.662251</ele>
        <time>2022-07-23T09:05:25.000Z</time>
      </trkpt>
      <trkpt lat="49.099521" lon="9.640487">
        <ele>499.003102</ele>
        <time>2022-07-23T09:05:27.000Z</time>
      </trkpt>
      <trkpt lat="49.099420" lon="9.640615">
        <ele>499.333676</ele>
        <time>2022-07-23T09:05:29.000Z</time>
      </trkpt>
      <trkpt lat="49.099323" lon="9.640757">
        <ele>499.672106</ele>
        <time>2022-07-23T09:05:31.000Z</time>
      </trkpt>
      <trkpt lat="49.099241" lon="9.640901">
        <ele>499.986839</ele>
        <time>2022-07-23T09:05:33.000Z</time>
      </trkpt>
      <trkpt lat="49.099158" lon="9.641066">
        <ele>500.329990</ele>
        <time>2022-07-23T09:05:35.000Z</time>
      </trkpt>
      <trkpt lat="49.099081" lon="9.641238">
        <ele>500.451567</ele>
        <time>2022-07-23T09:05:37.000Z</time>
      </trkpt>
      <trkpt lat="49.099012" lon="9.641421">
        <ele>499.925707</ele>
        <time>2022-07-23T09:05:38.999Z</time>
      </trkpt>
      <trkpt lat="49.098954" lon="9.641616">
        <ele>499.392368</ele>
        <time>2022-07-23T09:05:40.999Z</time>
      </trkpt>
      <trkpt lat="49.098902" lon="9.641814">
        <ele>498.861129</ele>
        <time>2022-07-23T09:05:42.999Z</time>
      </trkpt>
      <trkpt lat="49.098860" lon="9.642017">
        <ele>498.330986</ele>
        <time>2022-07-23T09:05:44.999Z</time>
      </trkpt>
      <trkpt lat="49.098827" lon="9.642225">
        <ele>497.798040</ele>
        <time>2022-07-23T09:05:46.999Z</time>
      </trkpt>
      <trkpt lat="49.098802" lon="9.642440">
        <ele>497.254274</ele>
        <time>2022-07-23T09:05:48.999Z</time>
      </trkpt>
      <trkpt lat="49.098764" lon="9.642656">
        <ele>496.697317</ele>
        <time>2022-07-23T09:05:50.999Z</time>
      </trkpt>
      <trkpt lat="49.098713" lon="9.642860">
        <ele>496.153549</ele>
        <time>2022-07-23T09:05:52.999Z</time>
      </trkpt>
      <trkpt lat="49.098644" lon="9.643058">
        <ele>495.595006</ele>
        <time>2022-07-23T09:05:54.999Z</time>
      </trkpt>
      <trkpt lat="49.098559" lon="9.643245">
        <ele>495.028128</ele>
        <time>2022-07-23T09:05:56.999Z</time>
      </trkpt>
      <trkpt lat="49.098463" lon="9.643421">
        <ele>494.457699</ele>
        <time>2022-07-23T09:05:58.999Z</time>
      </trkpt>
      <trkpt lat="49.098367" lon="9.643593">
        <ele>493.894886</ele>
        <time>2022-07-23T09:06:00.999Z</time>
      </trkpt>
      <trkpt lat="49.098273" lon="9.643761">
        <ele>493.591544</ele>
        <time>2022-07-23T09:06:02.999Z</time>
      </trkpt>
      <trkpt lat="49.098178" lon="9.643930">
        <ele>493.379386</ele>
        <time>2022-07-23T09:06:04.999Z</time>
      </trkpt>
      <trkpt lat="49.098082" lon="9.644089">
        <ele>493.173378</ele>
        <time>2022-07-23T09:06:06.999Z</time>
      </trkpt>
      <trkpt lat="49.097981" lon="9.644233">
        <ele>492.972379</ele>
        <time>2022-07-23T09:06:08.999Z</time>
      </trkpt>
      <trkpt lat="49.097870" lon="9.644359">
        <ele>492.771188</ele>
        <time>2022-07-23T09:06:10.999Z</time>
      </trkpt>
      <trkpt lat="49.097752" lon="9.644469">
        <ele>492.570080</ele>
        <time>2022-07-23T09:06:12.999Z</time>
      </trkpt>
      <trkpt lat="49.097620" lon="9.644543">
        <ele>492.365529</ele>
        <time>2022-07-23T09:06:14.999Z</time>
      </trkpt>
      <trkpt lat="49.097487" lon="9.644597">
        <ele>492.165330</ele>
        <time>2022-07-23T09:06:16.999Z</time>
      </trkpt>
      <trkpt lat="49.097354" lon="9.644633">
        <ele>491.968837</ele>
        <time>2022-07-23T09:06:18.999Z</time>
      </trkpt>
      <trkpt lat="49.097225" lon="9.644658">
        <ele>491.779673</ele>
        <time>2022-07-23T09:06:20.999Z</time>
      </trkpt>
      <trkpt lat="49.097099" lon="9.644685">
        <ele>491.594582</ele>
        <time>2022-07-23T09:06:22.999Z</time>
      </trkpt>
      <trkpt lat="49.096968" lon="9.644713">
        <ele>491.402156</ele>
        <time>2022-07-23T09:06:24.999Z</time>
      </trkpt>
      <trkpt lat="49.096838" lon="9.644738">
        <ele>491.211549</ele>
        <time>2022-07-23T09:06:26.999Z</time>
      </trkpt>
      <trkpt lat="49.096707" lon="9.644769">
        <ele>491.192819</ele>
        <time>2022-07-23T09:06:28.999Z</time>
      </trkpt>
      <trkpt lat="49.096574" lon="9.644795">
        <ele>491.308535</ele>
        <time>2022-07-23T09:06:30.999Z</time>
      </trkpt>
      <trkpt lat="49.096444" lon="9.644818">
        <ele>491.421476</ele>
        <time>2022-07-23T09:06:33.000Z</time>
      </trkpt>
      <trkpt lat="49.096311" lon="9.644850">
        <ele>491.537671</ele>
        <time>2022-07-23T09:06:35.000Z</time>
      </trkpt>
      <trkpt lat="49.096180" lon="9.644879">
        <ele>491.651906</ele>
        <time>2022-07-23T09:06:37.000Z</time>
      </trkpt>
      <trkpt lat="49.096053" lon="9.644909">
        <ele>491.762811</ele>
        <time>2022-07-23T09:06:39.000Z</time>
      </trkpt>
      <trkpt lat="49.095924" lon="9.644928">
        <ele>491.874655</ele>
        <time>2022-07-23T09:06:41.000Z</time>
      </trkpt>
      <trkpt lat="49.095798" lon="9.644949">
        <ele>491.984039</ele>
        <time>2022-07-23T09:06:43.000Z</time>
      </trkpt>
      <trkpt lat="49.095674" lon="9.644975">
        <ele>492.092055</ele>
        <time>2022-07-23T09:06:45.000Z</time>
      </trkpt>
      <trkpt lat="49.095543" lon="9.644988">
        <ele>492.205347</ele>
        <time>2022-07-23T09:06:47.000Z</time>
      </trkpt>
      <trkpt lat="49.095418" lon="9.644995">
        <ele>492.313295</ele>
        <time>2022-07-23T09:06:49.000Z</time>
      </trkpt>
      <trkpt lat="49.095289" lon="9.644996">
        <ele>492.424624</ele>
        <time>2022-07-23T09:06:51.000Z</time>
      </trkpt>
      <trkpt lat="49.095156" lon="9.644991">
        <ele>492.539438</ele>
        <time>2022-07-23T09:06:53.000Z</time>
      </trkpt>
      <trkpt lat="49.095021" lon="9.644977">
        <ele>492.656212</ele>
        <time>2022-07-23T09:06:55.000Z</time>
      </trkpt>
      <trkpt lat="49.094885" lon="9.644963">
        <ele>492.556153</ele>
        <time>2022-07-23T09:06:57.000Z</time>
      </trkpt>
      <trkpt lat="49.094752" lon="9.644952">
        <ele>492.403822</ele>
        <time>2022-07-23T09:06:59.000Z</time>
      </trkpt>
      <trkpt lat="49.094622" lon="9.644937">
        <ele>492.254722</ele>
        <time>2022-07-23T09:07:01.000Z</time>
      </trkpt>
      <trkpt lat="49.094492" lon="9.644930">
        <ele>492.105952</ele>
        <time>2022-07-23T09:07:03.000Z</time>
      </trkpt>
      <trkpt lat="49.094364" lon="9.644911">
        <ele>491.958873</ele>
        <time>2022-07-23T09:07:05.000Z</time>
      </trkpt>
      <trkpt lat="49.094234" lon="9.644897">
        <ele>491.809827</ele>
        <time>2022-07-23T09:07:07.000Z</time>
      </trkpt>
      <trkpt lat="49.094100" lon="9.644888">
        <ele>491.656427</ele>
        <time>2022-07-23T09:07:09.000Z</time>
      </trkpt>
      <trkpt lat="49.093971" lon="9.644871">
        <ele>491.508346</ele>
        <time>2022-07-23T09:07:11.000Z</time>
      </trkpt>
      <trkpt lat="49.093835" lon="9.644868">
        <ele>491.352790</ele>
        <time>2022-07-23T09:07:13.000Z</time>
      </trkpt>
      <trkpt lat="49.093701" lon="9.644873">
        <ele>491.199493</ele>
        <time>2022-07-23T09:07:15.000Z</time>
      </trkpt>
      <trkpt lat="49.093562" lon="9.644903">
        <ele>491.038943</ele>
        <time>2022-07-23T09:07:17.000Z</time>
      </trkpt>
      <trkpt lat="49.093430" lon="9.644972">
        <ele>490.879380</ele>
        <time>2022-07-23T09:07:19.000Z</time>
      </trkpt>
      <trkpt lat="49.093308" lon="9.645069">
        <ele>490.722074</ele>
        <time>2022-07-23T09:07:21.000Z</time>
      </trkpt>
      <trkpt lat="49.093199" lon="9.645183">
        <ele>490.719783</ele>
        <time>2022-07-23T09:07:23.000Z</time>
      </trkpt>
      <trkpt lat="49.093099" lon="9.645319">
        <ele>491.003272</ele>
        <time>2022-07-23T09:07:25.000Z</time>
      </trkpt>
      <trkpt lat="49.093008" lon="9.645460">
        <ele>491.277722</ele>
        <time>2022-07-23T09:07:27.000Z</time>
      </trkpt>
      <trkpt lat="49.092909" lon="9.645589">
        <ele>491.553238</ele>
        <time>2022-07-23T09:07:29.000Z</time>
      </trkpt>
      <trkpt lat="49.092793" lon="9.645707">
        <ele>491.848312</ele>
        <time>2022-07-23T09:07:30.999Z</time>
      </trkpt>
      <trkpt lat="49.092675" lon="9.645784">
        <ele>492.119975</ele>
        <time>2022-07-23T09:07:32.999Z</time>
      </trkpt>
      <trkpt lat="49.092553" lon="9.645842">
        <ele>492.390481</ele>
        <time>2022-07-23T09:07:34.999Z</time>
      </trkpt>
      <trkpt lat="49.092431" lon="9.645890">
        <ele>492.657196</ele>
        <time>2022-07-23T09:07:36.999Z</time>
      </trkpt>
      <trkpt lat="49.092311" lon="9.645918">
        <ele>492.914190</ele>
        <time>2022-07-23T09:07:38.999Z</time>
      </trkpt>
      <trkpt lat="49.092193" lon="9.645956">
        <ele>493.169496</ele>
        <time>2022-07-23T09:07:40.999Z</time>
      </trkpt>
      <trkpt lat="49.092075" lon="9.646003">
        <ele>493.427665</ele>
        <time>2022-07-23T09:07:42.999Z</time>
      </trkpt>
      <trkpt lat="49.091954" lon="9.646059">
        <ele>493.695334</ele>
        <time>2022-07-23T09:07:44.999Z</time>
      </trkpt>
      <trkpt lat="49.091836" lon="9.646140">
        <ele>493.969224</ele>
        <time>2022-07-23T09:07:46.999Z</time>
      </trkpt>
      <trkpt lat="49.091723" lon="9.646247">
        <ele>494.250709</ele>
        <time>2022-07-23T09:07:48.999Z</time>
      </trkpt>
      <trkpt lat="49.091609" lon="9.646360">
        <ele>494.410087</ele>
        <time>2022-07-23T09:07:50.999Z</time>
      </trkpt>
      <trkpt lat="49.091492" lon="9.646470">
        <ele>494.353508</ele>
        <time>2022-07-23T09:07:52.999Z</time>
      </trkpt>
      <trkpt lat="49.091368" lon="9.646564">
        <ele>494.296501</ele>
        <time>2022-07-23T09:07:54.999Z</time>
      </trkpt>
      <trkpt lat="49.091238" lon="9.646640">
        <ele>494.239179</ele>
        <time>2022-07-23T09:07:56.999Z</time>
      </trkpt>
      <trkpt lat="49.091109" lon="9.646707">
        <ele>494.183069</ele>
        <time>2022-07-23T09:07:58.999Z</time>
      </trkpt>
      <trkpt lat="49.090980" lon="9.646768">
        <ele>494.127460</ele>
        <time>2022-07-23T09:08:00.999Z</time>
      </trkpt>
      <trkpt lat="49.090849" lon="9.646827">
        <ele>494.071218</ele>
        <time>2022-07-23T09:08:02.999Z</time>
      </trkpt>
      <trkpt lat="49.090720" lon="9.646888">
        <ele>494.015608</ele>
        <time>2022-07-23T09:08:04.999Z</time>
      </trkpt>
      <trkpt lat="49.090586" lon="9.646933">
        <ele>493.959109</ele>
        <time>2022-07-23T09:08:06.999Z</time>
      </trkpt>
      <trkpt lat="49.090450" lon="9.646963">
        <ele>493.902525</ele>
        <time>2022-07-23T09:08:08.999Z</time>
      </trkpt>
      <trkpt lat="49.090313" lon="9.646966">
        <ele>493.846103</ele>
        <time>2022-07-23T09:08:10.999Z</time>
      </trkpt>
      <trkpt lat="49.090178" lon="9.646973">
        <ele>493.790480</ele>
        <time>2022-07-23T09:08:12.999Z</time>
      </trkpt>
      <trkpt lat="49.090046" lon="9.646972">
        <ele>493.736122</ele>
        <time>2022-07-23T09:08:14.999Z</time>
      </trkpt>
      <trkpt lat="49.089914" lon="9.646982">
        <ele>493.693564</ele>
        <time>2022-07-23T09:08:16.999Z</time>
      </trkpt>
      <trkpt lat="49.089776" lon="9.646985">
        <ele>493.714924</ele>
        <time>2022-07-23T09:08:18.999Z</time>
      </trkpt>
      <trkpt lat="49.089639" lon="9.646986">
        <ele>493.736128</ele>
        <time>2022-07-23T09:08:20.999Z</time>
      </trkpt>
      <trkpt lat="49.089507" lon="9.646994">
        <ele>493.756574</ele>
        <time>2022-07-23T09:08:22.999Z</time>
      </trkpt>
      <trkpt lat="49.089388" lon="9.646992">
        <ele>493.774993</ele>
        <time>2022-07-23T09:08:24.999Z</time>
      </trkpt>
      <trkpt lat="49.089267" lon="9.646992">
        <ele>493.793720</ele>
        <time>2022-07-23T09:08:26.999Z</time>
      </trkpt>
      <trkpt lat="49.089147" lon="9.646992">
        <ele>493.812293</ele>
        <time>2022-07-23T09:08:28.999Z</time>
      </trkpt>
      <trkpt lat="49.089045" lon="9.646977">
        <ele>493.828153</ele>
        <time>2022-07-23T09:08:30.999Z</time>
      </trkpt>
      <trkpt lat="49.088918" lon="9.646962">
        <ele>493.847867</ele>
        <time>2022-07-23T09:08:33.999Z</time>
      </trkpt>
      <trkpt lat="49.088805" lon="9.646858">
        <ele>493.868288</ele>
        <time>2022-07-23T09:08:36.999Z</time>
      </trkpt>
      <trkpt lat="49.088768" lon="9.646714">
        <ele>493.883967</ele>
        <time>2022-07-23T09:08:39.000Z</time>
      </trkpt>
      <trkpt lat="49.088740" lon="9.646565">
        <ele>493.899678</ele>
        <time>2022-07-23T09:08:41.000Z</time>
      </trkpt>
      <trkpt lat="49.088706" lon="9.646404">
        <ele>493.916825</ele>
        <time>2022-07-23T09:08:43.000Z</time>
      </trkpt>
      <trkpt lat="49.088670" lon="9.646246">
        <ele>493.933781</ele>
        <time>2022-07-23T09:08:45.000Z</time>
      </trkpt>
      <trkpt lat="49.088638" lon="9.646082">
        <ele>493.951126</ele>
        <time>2022-07-23T09:08:47.000Z</time>
      </trkpt>
      <trkpt lat="49.088603" lon="9.645913">
        <ele>493.967077</ele>
        <time>2022-07-23T09:08:49.000Z</time>
      </trkpt>
      <trkpt lat="49.088564" lon="9.645744">
        <ele>493.891408</ele>
        <time>2022-07-23T09:08:51.000Z</time>
      </trkpt>
      <trkpt lat="49.088527" lon="9.645574">
        <ele>493.815757</ele>
        <time>2022-07-23T09:08:53.000Z</time>
      </trkpt>
      <trkpt lat="49.088496" lon="9.645404">
        <ele>493.741236</ele>
        <time>2022-07-23T09:08:55.000Z</time>
      </trkpt>
      <trkpt lat="49.088461" lon="9.645246">
        <ele>493.670800</ele>
        <time>2022-07-23T09:08:57.000Z</time>
      </trkpt>
      <trkpt lat="49.088432" lon="9.645101">
        <ele>493.606776</ele>
        <time>2022-07-23T09:08:59.000Z</time>
      </trkpt>
      <trkpt lat="49.088403" lon="9.644962">
        <ele>493.545170</ele>
        <time>2022-07-23T09:09:01.000Z</time>
      </trkpt>
      <trkpt lat="49.088371" lon="9.644826">
        <ele>493.484144</ele>
        <time>2022-07-23T09:09:03.000Z</time>
      </trkpt>
      <trkpt lat="49.088340" lon="9.644678">
        <ele>493.418525</ele>
        <time>2022-07-23T09:09:05.000Z</time>
      </trkpt>
      <trkpt lat="49.088305" lon="9.644509">
        <ele>493.343674</ele>
        <time>2022-07-23T09:09:07.000Z</time>
      </trkpt>
      <trkpt lat="49.088272" lon="9.644337">
        <ele>493.267986</ele>
        <time>2022-07-23T09:09:09.000Z</time>
      </trkpt>
      <trkpt lat="49.088234" lon="9.644167">
        <ele>493.192129</ele>
        <time>2022-07-23T09:09:11.000Z</time>
      </trkpt>
      <trkpt lat="49.088203" lon="9.643997">
        <ele>493.117608</ele>
        <time>2022-07-23T09:09:13.000Z</time>
      </trkpt>
      <trkpt lat="49.088165" lon="9.643847">
        <ele>493.049689</ele>
        <time>2022-07-23T09:09:15.000Z</time>
      </trkpt>
      <trkpt lat="49.088131" lon="9.643709">
        <ele>492.987425</ele>
        <time>2022-07-23T09:09:17.000Z</time>
      </trkpt>
      <trkpt lat="49.088099" lon="9.643553">
        <ele>492.918391</ele>
        <time>2022-07-23T09:09:19.000Z</time>
      </trkpt>
      <trkpt lat="49.088067" lon="9.643381">
        <ele>492.842881</ele>
        <time>2022-07-23T09:09:21.000Z</time>
      </trkpt>
      <trkpt lat="49.088033" lon="9.643203">
        <ele>492.617320</ele>
        <time>2022-07-23T09:09:23.000Z</time>
      </trkpt>
      <trkpt lat="49.088000" lon="9.643031">
        <ele>492.290055</ele>
        <time>2022-07-23T09:09:24.999Z</time>
      </trkpt>
      <trkpt lat="49.087968" lon="9.642859">
        <ele>491.963564</ele>
        <time>2022-07-23T09:09:26.999Z</time>
      </trkpt>
      <trkpt lat="49.087937" lon="9.642685">
        <ele>491.634300</ele>
        <time>2022-07-23T09:09:28.999Z</time>
      </trkpt>
      <trkpt lat="49.087902" lon="9.642514">
        <ele>491.307167</ele>
        <time>2022-07-23T09:09:30.999Z</time>
      </trkpt>
      <trkpt lat="49.087862" lon="9.642347">
        <ele>490.982477</ele>
        <time>2022-07-23T09:09:32.999Z</time>
      </trkpt>
      <trkpt lat="49.087829" lon="9.642176">
        <ele>490.656964</ele>
        <time>2022-07-23T09:09:34.999Z</time>
      </trkpt>
      <trkpt lat="49.087797" lon="9.642003">
        <ele>490.328714</ele>
        <time>2022-07-23T09:09:36.999Z</time>
      </trkpt>
      <trkpt lat="49.087767" lon="9.641833">
        <ele>490.007228</ele>
        <time>2022-07-23T09:09:38.999Z</time>
      </trkpt>
      <trkpt lat="49.087727" lon="9.641658">
        <ele>489.668782</ele>
        <time>2022-07-23T09:09:40.999Z</time>
      </trkpt>
      <trkpt lat="49.087691" lon="9.641479">
        <ele>489.326869</ele>
        <time>2022-07-23T09:09:42.999Z</time>
      </trkpt>
      <trkpt lat="49.087657" lon="9.641296">
        <ele>488.979530</ele>
        <time>2022-07-23T09:09:44.999Z</time>
      </trkpt>
      <trkpt lat="49.087619" lon="9.641121">
        <ele>488.642879</ele>
        <time>2022-07-23T09:09:46.999Z</time>
      </trkpt>
      <trkpt lat="49.087580" lon="9.640942">
        <ele>488.298417</ele>
        <time>2022-07-23T09:09:48.999Z</time>
      </trkpt>
      <trkpt lat="49.087547" lon="9.640757">
        <ele>487.948306</ele>
        <time>2022-07-23T09:09:50.999Z</time>
      </trkpt>
      <trkpt lat="49.087518" lon="9.640574">
        <ele>487.633701</ele>
        <time>2022-07-23T09:09:52.999Z</time>
      </trkpt>
      <trkpt lat="49.087479" lon="9.640396">
        <ele>487.343767</ele>
        <time>2022-07-23T09:09:54.999Z</time>
      </trkpt>
      <trkpt lat="49.087444" lon="9.640223">
        <ele>487.064075</ele>
        <time>2022-07-23T09:09:56.999Z</time>
      </trkpt>
      <trkpt lat="49.087413" lon="9.640042">
        <ele>486.775084</ele>
        <time>2022-07-23T09:09:58.999Z</time>
      </trkpt>
      <trkpt lat="49.087380" lon="9.639861">
        <ele>486.484863</ele>
        <time>2022-07-23T09:10:00.999Z</time>
      </trkpt>
      <trkpt lat="49.087342" lon="9.639679">
        <ele>486.189787</ele>
        <time>2022-07-23T09:10:02.999Z</time>
      </trkpt>
      <trkpt lat="49.087306" lon="9.639500">
        <ele>485.900543</ele>
        <time>2022-07-23T09:10:04.999Z</time>
      </trkpt>
      <trkpt lat="49.087273" lon="9.639327">
        <ele>485.622207</ele>
        <time>2022-07-23T09:10:06.999Z</time>
      </trkpt>
      <trkpt lat="49.087236" lon="9.639152">
        <ele>485.338147</ele>
        <time>2022-07-23T09:10:08.999Z</time>
      </trkpt>
      <trkpt lat="49.087203" lon="9.638979">
        <ele>485.059810</ele>
        <time>2022-07-23T09:10:10.999Z</time>
      </trkpt>
      <trkpt lat="49.087173" lon="9.638806">
        <ele>484.783368</ele>
        <time>2022-07-23T09:10:12.999Z</time>
      </trkpt>
      <trkpt lat="49.087140" lon="9.638630">
        <ele>484.500579</ele>
        <time>2022-07-23T09:10:14.999Z</time>
      </trkpt>
      <trkpt lat="49.087105" lon="9.638455">
        <ele>484.217932</ele>
        <time>2022-07-23T09:10:16.999Z</time>
      </trkpt>
      <trkpt lat="49.087075" lon="9.638279">
        <ele>483.937008</ele>
        <time>2022-07-23T09:10:18.999Z</time>
      </trkpt>
      <trkpt lat="49.087040" lon="9.638095">
        <ele>483.641037</ele>
        <time>2022-07-23T09:10:20.999Z</time>
      </trkpt>
      <trkpt lat="49.086999" lon="9.637911">
        <ele>483.333136</ele>
        <time>2022-07-23T09:10:22.999Z</time>
      </trkpt>
      <trkpt lat="49.086959" lon="9.637723">
        <ele>483.016675</ele>
        <time>2022-07-23T09:10:24.999Z</time>
      </trkpt>
      <trkpt lat="49.086923" lon="9.637535">
        <ele>482.703098</ele>
        <time>2022-07-23T09:10:26.999Z</time>
      </trkpt>
      <trkpt lat="49.086889" lon="9.637347">
        <ele>482.390857</ele>
        <time>2022-07-23T09:10:28.999Z</time>
      </trkpt>
      <trkpt lat="49.086854" lon="9.637158">
        <ele>482.076416</ele>
        <time>2022-07-23T09:10:30.999Z</time>
      </trkpt>
      <trkpt lat="49.086816" lon="9.636975">
        <ele>481.769070</ele>
        <time>2022-07-23T09:10:32.999Z</time>
      </trkpt>
      <trkpt lat="49.086774" lon="9.636788">
        <ele>481.452579</ele>
        <time>2022-07-23T09:10:34.999Z</time>
      </trkpt>
      <trkpt lat="49.086736" lon="9.636599">
        <ele>481.136063</ele>
        <time>2022-07-23T09:10:36.999Z</time>
      </trkpt>
      <trkpt lat="49.086702" lon="9.636410">
        <ele>480.822278</ele>
        <time>2022-07-23T09:10:38.999Z</time>
      </trkpt>
      <trkpt lat="49.086667" lon="9.636228">
        <ele>480.518604</ele>
        <time>2022-07-23T09:10:40.999Z</time>
      </trkpt>
      <trkpt lat="49.086622" lon="9.636049">
        <ele>480.211648</ele>
        <time>2022-07-23T09:10:42.999Z</time>
      </trkpt>
      <trkpt lat="49.086577" lon="9.635863">
        <ele>479.894203</ele>
        <time>2022-07-23T09:10:45.000Z</time>
      </trkpt>
      <trkpt lat="49.086534" lon="9.635681">
        <ele>479.584450</ele>
        <time>2022-07-23T09:10:47.000Z</time>
      </trkpt>
      <trkpt lat="49.086482" lon="9.635505">
        <ele>479.275337</ele>
        <time>2022-07-23T09:10:49.000Z</time>
      </trkpt>
      <trkpt lat="49.086420" lon="9.635337">
        <ele>478.958213</ele>
        <time>2022-07-23T09:10:51.000Z</time>
      </trkpt>
      <trkpt lat="49.086360" lon="9.635168">
        <ele>478.636717</ele>
        <time>2022-07-23T09:10:53.000Z</time>
      </trkpt>
      <trkpt lat="49.086296" lon="9.635002">
        <ele>478.314564</ele>
        <time>2022-07-23T09:10:55.000Z</time>
      </trkpt>
      <trkpt lat="49.086224" lon="9.634847">
        <ele>477.996756</ele>
        <time>2022-07-23T09:10:57.000Z</time>
      </trkpt>
      <trkpt lat="49.086144" lon="9.634698">
        <ele>477.674530</ele>
        <time>2022-07-23T09:10:59.000Z</time>
      </trkpt>
      <trkpt lat="49.086065" lon="9.634547">
        <ele>477.351310</ele>
        <time>2022-07-23T09:11:01.000Z</time>
      </trkpt>
      <trkpt lat="49.085982" lon="9.634402">
        <ele>477.029240</ele>
        <time>2022-07-23T09:11:03.000Z</time>
      </trkpt>
      <trkpt lat="49.085896" lon="9.634255">
        <ele>476.699589</ele>
        <time>2022-07-23T09:11:05.000Z</time>
      </trkpt>
      <trkpt lat="49.085815" lon="9.634102">
        <ele>476.370562</ele>
        <time>2022-07-23T09:11:07.000Z</time>
      </trkpt>
      <trkpt lat="49.085733" lon="9.633948">
        <ele>476.038627</ele>
        <time>2022-07-23T09:11:09.000Z</time>
      </trkpt>
      <trkpt lat="49.085647" lon="9.633798">
        <ele>475.705217</ele>
        <time>2022-07-23T09:11:11.000Z</time>
      </trkpt>
      <trkpt lat="49.085559" lon="9.633650">
        <ele>475.370905</ele>
        <time>2022-07-23T09:11:13.000Z</time>
      </trkpt>
      <trkpt lat="49.085472" lon="9.633498">
        <ele>475.033296</ele>
        <time>2022-07-23T09:11:15.000Z</time>
      </trkpt>
      <trkpt lat="49.085387" lon="9.633341">
        <ele>474.692622</ele>
        <time>2022-07-23T09:11:17.000Z</time>
      </trkpt>
      <trkpt lat="49.085302" lon="9.633187">
        <ele>474.710341</ele>
        <time>2022-07-23T09:11:19.000Z</time>
      </trkpt>
      <trkpt lat="49.085217" lon="9.633025">
        <ele>474.960578</ele>
        <time>2022-07-23T09:11:21.000Z</time>
      </trkpt>
      <trkpt lat="49.085135" lon="9.632857">
        <ele>475.213161</ele>
        <time>2022-07-23T09:11:22.999Z</time>
      </trkpt>
      <trkpt lat="49.085052" lon="9.632688">
        <ele>475.467813</ele>
        <time>2022-07-23T09:11:24.999Z</time>
      </trkpt>
      <trkpt lat="49.084974" lon="9.632514">
        <ele>475.722002</ele>
        <time>2022-07-23T09:11:26.999Z</time>
      </trkpt>
      <trkpt lat="49.084900" lon="9.632341">
        <ele>475.971098</ele>
        <time>2022-07-23T09:11:28.999Z</time>
      </trkpt>
      <trkpt lat="49.084826" lon="9.632168">
        <ele>476.220193</ele>
        <time>2022-07-23T09:11:30.999Z</time>
      </trkpt>
      <trkpt lat="49.084756" lon="9.631994">
        <ele>476.466367</ele>
        <time>2022-07-23T09:11:32.999Z</time>
      </trkpt>
      <trkpt lat="49.084689" lon="9.631820">
        <ele>476.709696</ele>
        <time>2022-07-23T09:11:34.999Z</time>
      </trkpt>
      <trkpt lat="49.084622" lon="9.631645">
        <ele>476.954065</ele>
        <time>2022-07-23T09:11:36.999Z</time>
      </trkpt>
      <trkpt lat="49.084559" lon="9.631474">
        <ele>477.190588</ele>
        <time>2022-07-23T09:11:38.999Z</time>
      </trkpt>
      <trkpt lat="49.084494" lon="9.631298">
        <ele>477.434171</ele>
        <time>2022-07-23T09:11:40.999Z</time>
      </trkpt>
      <trkpt lat="49.084434" lon="9.631119">
        <ele>477.676581</ele>
        <time>2022-07-23T09:11:42.999Z</time>
      </trkpt>
      <trkpt lat="49.084373" lon="9.630940">
        <ele>477.992797</ele>
        <time>2022-07-23T09:11:44.999Z</time>
      </trkpt>
      <trkpt lat="49.084310" lon="9.630760">
        <ele>478.618319</ele>
        <time>2022-07-23T09:11:46.999Z</time>
      </trkpt>
      <trkpt lat="49.084253" lon="9.630579">
        <ele>479.233869</ele>
        <time>2022-07-23T09:11:48.999Z</time>
      </trkpt>
      <trkpt lat="49.084198" lon="9.630393">
        <ele>479.859357</ele>
        <time>2022-07-23T09:11:50.999Z</time>
      </trkpt>
      <trkpt lat="49.084152" lon="9.630202">
        <ele>480.483085</ele>
        <time>2022-07-23T09:11:52.999Z</time>
      </trkpt>
      <trkpt lat="49.084112" lon="9.630008">
        <ele>481.106453</ele>
        <time>2022-07-23T09:11:54.999Z</time>
      </trkpt>
      <trkpt lat="49.084075" lon="9.629814">
        <ele>481.725751</ele>
        <time>2022-07-23T09:11:56.999Z</time>
      </trkpt>
      <trkpt lat="49.084039" lon="9.629626">
        <ele>482.326084</ele>
        <time>2022-07-23T09:11:58.999Z</time>
      </trkpt>
      <trkpt lat="49.084006" lon="9.629441">
        <ele>482.913754</ele>
        <time>2022-07-23T09:12:00.999Z</time>
      </trkpt>
      <trkpt lat="49.083973" lon="9.629258">
        <ele>483.495512</ele>
        <time>2022-07-23T09:12:02.999Z</time>
      </trkpt>
      <trkpt lat="49.083940" lon="9.629074">
        <ele>484.080226</ele>
        <time>2022-07-23T09:12:04.999Z</time>
      </trkpt>
      <trkpt lat="49.083903" lon="9.628887">
        <ele>484.678956</ele>
        <time>2022-07-23T09:12:06.999Z</time>
      </trkpt>
      <trkpt lat="49.083868" lon="9.628701">
        <ele>485.272101</ele>
        <time>2022-07-23T09:12:08.999Z</time>
      </trkpt>
      <trkpt lat="49.083833" lon="9.628511">
        <ele>485.877039</ele>
        <time>2022-07-23T09:12:10.999Z</time>
      </trkpt>
      <trkpt lat="49.083798" lon="9.628323">
        <ele>486.325106</ele>
        <time>2022-07-23T09:12:12.999Z</time>
      </trkpt>
      <trkpt lat="49.083764" lon="9.628133">
        <ele>486.440112</ele>
        <time>2022-07-23T09:12:14.999Z</time>
      </trkpt>
      <trkpt lat="49.083727" lon="9.627939">
        <ele>486.558093</ele>
        <time>2022-07-23T09:12:16.999Z</time>
      </trkpt>
      <trkpt lat="49.083691" lon="9.627747">
        <ele>486.674704</ele>
        <time>2022-07-23T09:12:18.999Z</time>
      </trkpt>
      <trkpt lat="49.083659" lon="9.627550">
        <ele>486.793216</ele>
        <time>2022-07-23T09:12:20.999Z</time>
      </trkpt>
      <trkpt lat="49.083630" lon="9.627350">
        <ele>486.912823</ele>
        <time>2022-07-23T09:12:22.999Z</time>
      </trkpt>
      <trkpt lat="49.083606" lon="9.627137">
        <ele>487.039020</ele>
        <time>2022-07-23T09:12:24.999Z</time>
      </trkpt>
      <trkpt lat="49.083585" lon="9.626921">
        <ele>487.166523</ele>
        <time>2022-07-23T09:12:26.999Z</time>
      </trkpt>
      <trkpt lat="49.083564" lon="9.626709">
        <ele>487.291717</ele>
        <time>2022-07-23T09:12:28.999Z</time>
      </trkpt>
      <trkpt lat="49.083547" lon="9.626495">
        <ele>487.417587</ele>
        <time>2022-07-23T09:12:30.999Z</time>
      </trkpt>
      <trkpt lat="49.083529" lon="9.626279">
        <ele>487.544726</ele>
        <time>2022-07-23T09:12:32.999Z</time>
      </trkpt>
      <trkpt lat="49.083510" lon="9.626067">
        <ele>487.669665</ele>
        <time>2022-07-23T09:12:34.999Z</time>
      </trkpt>
      <trkpt lat="49.083490" lon="9.625860">
        <ele>487.791840</ele>
        <time>2022-07-23T09:12:36.999Z</time>
      </trkpt>
      <trkpt lat="49.083470" lon="9.625649">
        <ele>487.994880</ele>
        <time>2022-07-23T09:12:38.999Z</time>
      </trkpt>
      <trkpt lat="49.083454" lon="9.625445">
        <ele>488.520100</ele>
        <time>2022-07-23T09:12:40.999Z</time>
      </trkpt>
      <trkpt lat="49.083438" lon="9.625244">
        <ele>489.037706</ele>
        <time>2022-07-23T09:12:42.999Z</time>
      </trkpt>
      <trkpt lat="49.083421" lon="9.625042">
        <ele>489.558333</ele>
        <time>2022-07-23T09:12:44.999Z</time>
      </trkpt>
      <trkpt lat="49.083404" lon="9.624842">
        <ele>490.073890</ele>
        <time>2022-07-23T09:12:46.999Z</time>
      </trkpt>
      <trkpt lat="49.083390" lon="9.624642">
        <ele>490.588071</ele>
        <time>2022-07-23T09:12:48.999Z</time>
      </trkpt>
      <trkpt lat="49.083375" lon="9.624443">
        <ele>491.100142</ele>
        <time>2022-07-23T09:12:51.000Z</time>
      </trkpt>
      <trkpt lat="49.083357" lon="9.624245">
        <ele>491.611152</ele>
        <time>2022-07-23T09:12:53.000Z</time>
      </trkpt>
      <trkpt lat="49.083339" lon="9.624040">
        <ele>492.139892</ele>
        <time>2022-07-23T09:12:55.000Z</time>
      </trkpt>
      <trkpt lat="49.083322" lon="9.623835">
        <ele>492.668127</ele>
        <time>2022-07-23T09:12:57.000Z</time>
      </trkpt>
      <trkpt lat="49.083307" lon="9.623627">
        <ele>493.203062</ele>
        <time>2022-07-23T09:12:59.000Z</time>
      </trkpt>
      <trkpt lat="49.083289" lon="9.623416">
        <ele>493.747008</ele>
        <time>2022-07-23T09:13:01.000Z</time>
      </trkpt>
      <trkpt lat="49.083270" lon="9.623205">
        <ele>494.291473</ele>
        <time>2022-07-23T09:13:03.000Z</time>
      </trkpt>
      <trkpt lat="49.083252" lon="9.622989">
        <ele>494.848097</ele>
        <time>2022-07-23T09:13:05.000Z</time>
      </trkpt>
      <trkpt lat="49.083235" lon="9.622772">
        <ele>495.163668</ele>
        <time>2022-07-23T09:13:07.000Z</time>
      </trkpt>
      <trkpt lat="49.083217" lon="9.622560">
        <ele>495.440936</ele>
        <time>2022-07-23T09:13:09.000Z</time>
      </trkpt>
      <trkpt lat="49.083201" lon="9.622351">
        <ele>495.713857</ele>
        <time>2022-07-23T09:13:11.000Z</time>
      </trkpt>
      <trkpt lat="49.083182" lon="9.622138">
        <ele>495.992671</ele>
        <time>2022-07-23T09:13:13.000Z</time>
      </trkpt>
      <trkpt lat="49.083168" lon="9.621924">
        <ele>496.271614</ele>
        <time>2022-07-23T09:13:15.000Z</time>
      </trkpt>
      <trkpt lat="49.083161" lon="9.621712">
        <ele>496.546930</ele>
        <time>2022-07-23T09:13:17.000Z</time>
      </trkpt>
      <trkpt lat="49.083159" lon="9.621503">
        <ele>496.818035</ele>
        <time>2022-07-23T09:13:19.000Z</time>
      </trkpt>
      <trkpt lat="49.083166" lon="9.621299">
        <ele>497.082989</ele>
        <time>2022-07-23T09:13:21.000Z</time>
      </trkpt>
      <trkpt lat="49.083175" lon="9.621094">
        <ele>497.349474</ele>
        <time>2022-07-23T09:13:23.000Z</time>
      </trkpt>
      <trkpt lat="49.083191" lon="9.620887">
        <ele>497.619819</ele>
        <time>2022-07-23T09:13:25.000Z</time>
      </trkpt>
      <trkpt lat="49.083214" lon="9.620676">
        <ele>497.897254</ele>
        <time>2022-07-23T09:13:27.000Z</time>
      </trkpt>
      <trkpt lat="49.083246" lon="9.620464">
        <ele>498.179428</ele>
        <time>2022-07-23T09:13:29.000Z</time>
      </trkpt>
      <trkpt lat="49.083285" lon="9.620251">
        <ele>498.466284</ele>
        <time>2022-07-23T09:13:30.999Z</time>
      </trkpt>
      <trkpt lat="49.083331" lon="9.620038">
        <ele>498.226048</ele>
        <time>2022-07-23T09:13:32.999Z</time>
      </trkpt>
      <trkpt lat="49.083387" lon="9.619830">
        <ele>497.968487</ele>
        <time>2022-07-23T09:13:34.999Z</time>
      </trkpt>
      <trkpt lat="49.083452" lon="9.619627">
        <ele>497.709697</ele>
        <time>2022-07-23T09:13:36.999Z</time>
      </trkpt>
      <trkpt lat="49.083528" lon="9.619428">
        <ele>497.445869</ele>
        <time>2022-07-23T09:13:38.999Z</time>
      </trkpt>
      <trkpt lat="49.083605" lon="9.619237">
        <ele>497.189003</ele>
        <time>2022-07-23T09:13:40.999Z</time>
      </trkpt>
      <trkpt lat="49.083683" lon="9.619052">
        <ele>496.937021</ele>
        <time>2022-07-23T09:13:42.999Z</time>
      </trkpt>
      <trkpt lat="49.083758" lon="9.618868">
        <ele>496.688812</ele>
        <time>2022-07-23T09:13:44.999Z</time>
      </trkpt>
      <trkpt lat="49.083832" lon="9.618682">
        <ele>496.439569</ele>
        <time>2022-07-23T09:13:46.999Z</time>
      </trkpt>
      <trkpt lat="49.083907" lon="9.618495">
        <ele>496.188437</ele>
        <time>2022-07-23T09:13:48.999Z</time>
      </trkpt>
      <trkpt lat="49.083982" lon="9.618311">
        <ele>495.940229</ele>
        <time>2022-07-23T09:13:50.999Z</time>
      </trkpt>
      <trkpt lat="49.084056" lon="9.618133">
        <ele>495.698770</ele>
        <time>2022-07-23T09:13:52.999Z</time>
      </trkpt>
      <trkpt lat="49.084130" lon="9.617958">
        <ele>495.460205</ele>
        <time>2022-07-23T09:13:54.999Z</time>
      </trkpt>
      <trkpt lat="49.084198" lon="9.617780">
        <ele>495.270521</ele>
        <time>2022-07-23T09:13:56.999Z</time>
      </trkpt>
      <trkpt lat="49.084270" lon="9.617604">
        <ele>495.136967</ele>
        <time>2022-07-23T09:13:58.999Z</time>
      </trkpt>
      <trkpt lat="49.084341" lon="9.617429">
        <ele>495.004479</ele>
        <time>2022-07-23T09:14:00.999Z</time>
      </trkpt>
      <trkpt lat="49.084410" lon="9.617249">
        <ele>494.870248</ele>
        <time>2022-07-23T09:14:02.999Z</time>
      </trkpt>
      <trkpt lat="49.084480" lon="9.617070">
        <ele>494.736071</ele>
        <time>2022-07-23T09:14:04.999Z</time>
      </trkpt>
      <trkpt lat="49.084564" lon="9.616891">
        <ele>494.594348</ele>
        <time>2022-07-23T09:14:06.999Z</time>
      </trkpt>
      <trkpt lat="49.084631" lon="9.616712">
        <ele>494.461659</ele>
        <time>2022-07-23T09:14:08.999Z</time>
      </trkpt>
      <trkpt lat="49.084696" lon="9.616533">
        <ele>494.329934</ele>
        <time>2022-07-23T09:14:10.999Z</time>
      </trkpt>
      <trkpt lat="49.084768" lon="9.616356">
        <ele>494.195835</ele>
        <time>2022-07-23T09:14:12.999Z</time>
      </trkpt>
      <trkpt lat="49.084842" lon="9.616180">
        <ele>494.061230</ele>
        <time>2022-07-23T09:14:14.999Z</time>
      </trkpt>
      <trkpt lat="49.084913" lon="9.616007">
        <ele>493.929836</ele>
        <time>2022-07-23T09:14:16.999Z</time>
      </trkpt>
      <trkpt lat="49.084984" lon="9.615832">
        <ele>493.797349</ele>
        <time>2022-07-23T09:14:18.999Z</time>
      </trkpt>
      <trkpt lat="49.085055" lon="9.615658">
        <ele>493.665409</ele>
        <time>2022-07-23T09:14:20.999Z</time>
      </trkpt>
      <trkpt lat="49.085124" lon="9.615482">
        <ele>493.544824</ele>
        <time>2022-07-23T09:14:22.999Z</time>
      </trkpt>
      <trkpt lat="49.085188" lon="9.615309">
        <ele>493.467209</ele>
        <time>2022-07-23T09:14:24.999Z</time>
      </trkpt>
      <trkpt lat="49.085247" lon="9.615138">
        <ele>493.391709</ele>
        <time>2022-07-23T09:14:26.999Z</time>
      </trkpt>
      <trkpt lat="49.085300" lon="9.614965">
        <ele>493.317102</ele>
        <time>2022-07-23T09:14:28.999Z</time>
      </trkpt>
      <trkpt lat="49.085345" lon="9.614792">
        <ele>493.244389</ele>
        <time>2022-07-23T09:14:30.999Z</time>
      </trkpt>
      <trkpt lat="49.085382" lon="9.614640">
        <ele>493.181045</ele>
        <time>2022-07-23T09:14:32.999Z</time>
      </trkpt>
      <trkpt lat="49.085416" lon="9.614505">
        <ele>493.124545</ele>
        <time>2022-07-23T09:14:34.999Z</time>
      </trkpt>
      <trkpt lat="49.085460" lon="9.614358">
        <ele>493.061410</ele>
        <time>2022-07-23T09:14:36.999Z</time>
      </trkpt>
      <trkpt lat="49.085501" lon="9.614186">
        <ele>492.989910</ele>
        <time>2022-07-23T09:14:38.999Z</time>
      </trkpt>
      <trkpt lat="49.085546" lon="9.614002">
        <ele>492.913187</ele>
        <time>2022-07-23T09:14:40.999Z</time>
      </trkpt>
      <trkpt lat="49.085580" lon="9.613824">
        <ele>492.840759</ele>
        <time>2022-07-23T09:14:42.999Z</time>
      </trkpt>
      <trkpt lat="49.085604" lon="9.613655">
        <ele>492.773209</ele>
        <time>2022-07-23T09:14:44.999Z</time>
      </trkpt>
      <trkpt lat="49.085630" lon="9.613487">
        <ele>492.705776</ele>
        <time>2022-07-23T09:14:46.999Z</time>
      </trkpt>
      <trkpt lat="49.085655" lon="9.613325">
        <ele>492.640762</ele>
        <time>2022-07-23T09:14:48.999Z</time>
      </trkpt>
      <trkpt lat="49.085677" lon="9.613161">
        <ele>492.575369</ele>
        <time>2022-07-23T09:14:50.999Z</time>
      </trkpt>
      <trkpt lat="49.085697" lon="9.612995">
        <ele>492.509437</ele>
        <time>2022-07-23T09:14:52.999Z</time>
      </trkpt>
      <trkpt lat="49.085721" lon="9.612832">
        <ele>492.382303</ele>
        <time>2022-07-23T09:14:54.999Z</time>
      </trkpt>
      <trkpt lat="49.085746" lon="9.612657">
        <ele>492.217226</ele>
        <time>2022-07-23T09:14:57.000Z</time>
      </trkpt>
      <trkpt lat="49.085769" lon="9.612468">
        <ele>492.040056</ele>
        <time>2022-07-23T09:14:59.000Z</time>
      </trkpt>
      <trkpt lat="49.085796" lon="9.612281">
        <ele>491.863574</ele>
        <time>2022-07-23T09:15:01.000Z</time>
      </trkpt>
      <trkpt lat="49.085819" lon="9.612099">
        <ele>491.692743</ele>
        <time>2022-07-23T09:15:03.000Z</time>
      </trkpt>
      <trkpt lat="49.085842" lon="9.611916">
        <ele>491.521008</ele>
        <time>2022-07-23T09:15:05.000Z</time>
      </trkpt>
      <trkpt lat="49.085863" lon="9.611735">
        <ele>491.351596</ele>
        <time>2022-07-23T09:15:07.000Z</time>
      </trkpt>
      <trkpt lat="49.085894" lon="9.611555">
        <ele>491.180064</ele>
        <time>2022-07-23T09:15:09.000Z</time>
      </trkpt>
      <trkpt lat="49.085919" lon="9.611371">
        <ele>491.006874</ele>
        <time>2022-07-23T09:15:11.000Z</time>
      </trkpt>
      <trkpt lat="49.085946" lon="9.611180">
        <ele>490.826790</ele>
        <time>2022-07-23T09:15:13.000Z</time>
      </trkpt>
      <trkpt lat="49.085978" lon="9.610987">
        <ele>490.643305</ele>
        <time>2022-07-23T09:15:15.000Z</time>
      </trkpt>
      <trkpt lat="49.086004" lon="9.610792">
        <ele>490.459901</ele>
        <time>2022-07-23T09:15:17.000Z</time>
      </trkpt>
      <trkpt lat="49.086031" lon="9.610593">
        <ele>490.272604</ele>
        <time>2022-07-23T09:15:19.000Z</time>
      </trkpt>
      <trkpt lat="49.086057" lon="9.610393">
        <ele>490.084683</ele>
        <time>2022-07-23T09:15:21.000Z</time>
      </trkpt>
      <trkpt lat="49.086083" lon="9.610189">
        <ele>489.771567</ele>
        <time>2022-07-23T09:15:23.000Z</time>
      </trkpt>
      <trkpt lat="49.086111" lon="9.609985">
        <ele>489.222699</ele>
        <time>2022-07-23T09:15:25.000Z</time>
      </trkpt>
      <trkpt lat="49.086140" lon="9.609780">
        <ele>488.670419</ele>
        <time>2022-07-23T09:15:27.000Z</time>
      </trkpt>
      <trkpt lat="49.086167" lon="9.609575">
        <ele>488.119781</ele>
        <time>2022-07-23T09:15:29.000Z</time>
      </trkpt>
      <trkpt lat="49.086198" lon="9.609377">
        <ele>487.583693</ele>
        <time>2022-07-23T09:15:31.000Z</time>
      </trkpt>
      <trkpt lat="49.086226" lon="9.609182">
        <ele>487.058000</ele>
        <time>2022-07-23T09:15:33.000Z</time>
      </trkpt>
      <trkpt lat="49.086250" lon="9.608986">
        <ele>486.532927</ele>
        <time>2022-07-23T09:15:35.000Z</time>
      </trkpt>
      <trkpt lat="49.086275" lon="9.608786">
        <ele>485.996758</ele>
        <time>2022-07-23T09:15:36.999Z</time>
      </trkpt>
      <trkpt lat="49.086305" lon="9.608586">
        <ele>485.456459</ele>
        <time>2022-07-23T09:15:38.999Z</time>
      </trkpt>
      <trkpt lat="49.086336" lon="9.608385">
        <ele>484.912686</ele>
        <time>2022-07-23T09:15:40.999Z</time>
      </trkpt>
      <trkpt lat="49.086360" lon="9.608180">
        <ele>484.364300</ele>
        <time>2022-07-23T09:15:42.999Z</time>
      </trkpt>
      <trkpt lat="49.086379" lon="9.607968">
        <ele>483.800837</ele>
        <time>2022-07-23T09:15:44.999Z</time>
      </trkpt>
      <trkpt lat="49.086398" lon="9.607752">
        <ele>483.226935</ele>
        <time>2022-07-23T09:15:46.999Z</time>
      </trkpt>
      <trkpt lat="49.086412" lon="9.607536">
        <ele>482.674801</ele>
        <time>2022-07-23T09:15:48.999Z</time>
      </trkpt>
      <trkpt lat="49.086427" lon="9.607321">
        <ele>482.260749</ele>
        <time>2022-07-23T09:15:50.999Z</time>
      </trkpt>
      <trkpt lat="49.086438" lon="9.607103">
        <ele>481.842045</ele>
        <time>2022-07-23T09:15:52.999Z</time>
      </trkpt>
      <trkpt lat="49.086444" lon="9.606886">
        <ele>481.426122</ele>
        <time>2022-07-23T09:15:54.999Z</time>
      </trkpt>
      <trkpt lat="49.086451" lon="9.606672">
        <ele>481.015805</ele>
        <time>2022-07-23T09:15:56.999Z</time>
      </trkpt>
      <trkpt lat="49.086453" lon="9.606457">
        <ele>480.604041</ele>
        <time>2022-07-23T09:15:58.999Z</time>
      </trkpt>
      <trkpt lat="49.086450" lon="9.606245">
        <ele>480.197969</ele>
        <time>2022-07-23T09:16:00.999Z</time>
      </trkpt>
      <trkpt lat="49.086443" lon="9.606033">
        <ele>479.791477</ele>
        <time>2022-07-23T09:16:02.999Z</time>
      </trkpt>
      <trkpt lat="49.086434" lon="9.605814">
        <ele>479.371270</ele>
        <time>2022-07-23T09:16:04.999Z</time>
      </trkpt>
      <trkpt lat="49.086423" lon="9.605594">
        <ele>478.948747</ele>
        <time>2022-07-23T09:16:06.999Z</time>
      </trkpt>
      <trkpt lat="49.086408" lon="9.605375">
        <ele>478.527078</ele>
        <time>2022-07-23T09:16:08.999Z</time>
      </trkpt>
      <trkpt lat="49.086391" lon="9.605161">
        <ele>478.114267</ele>
        <time>2022-07-23T09:16:10.999Z</time>
      </trkpt>
      <trkpt lat="49.086370" lon="9.604942">
        <ele>477.690413</ele>
        <time>2022-07-23T09:16:12.999Z</time>
      </trkpt>
      <trkpt lat="49.086347" lon="9.604722">
        <ele>477.526388</ele>
        <time>2022-07-23T09:16:14.999Z</time>
      </trkpt>
      <trkpt lat="49.086325" lon="9.604504">
        <ele>477.648797</ele>
        <time>2022-07-23T09:16:16.999Z</time>
      </trkpt>
      <trkpt lat="49.086298" lon="9.604289">
        <ele>477.770288</ele>
        <time>2022-07-23T09:16:18.999Z</time>
      </trkpt>
      <trkpt lat="49.086269" lon="9.604071">
        <ele>477.893740</ele>
        <time>2022-07-23T09:16:20.999Z</time>
      </trkpt>
      <trkpt lat="49.086239" lon="9.603857">
        <ele>478.015192</ele>
        <time>2022-07-23T09:16:22.999Z</time>
      </trkpt>
      <trkpt lat="49.086201" lon="9.603644">
        <ele>478.137706</ele>
        <time>2022-07-23T09:16:24.999Z</time>
      </trkpt>
      <trkpt lat="49.086155" lon="9.603435">
        <ele>478.260068</ele>
        <time>2022-07-23T09:16:26.999Z</time>
      </trkpt>
      <trkpt lat="49.086114" lon="9.603226">
        <ele>478.381147</ele>
        <time>2022-07-23T09:16:28.999Z</time>
      </trkpt>
      <trkpt lat="49.086070" lon="9.603021">
        <ele>478.500868</ele>
        <time>2022-07-23T09:16:30.999Z</time>
      </trkpt>
      <trkpt lat="49.086019" lon="9.602815">
        <ele>478.623087</ele>
        <time>2022-07-23T09:16:32.999Z</time>
      </trkpt>
      <trkpt lat="49.085969" lon="9.602615">
        <ele>478.741891</ele>
        <time>2022-07-23T09:16:34.999Z</time>
      </trkpt>
      <trkpt lat="49.085917" lon="9.602417">
        <ele>478.860280</ele>
        <time>2022-07-23T09:16:36.999Z</time>
      </trkpt>
      <trkpt lat="49.085865" lon="9.602228">
        <ele>478.974048</ele>
        <time>2022-07-23T09:16:38.999Z</time>
      </trkpt>
      <trkpt lat="49.085816" lon="9.602044">
        <ele>479.148495</ele>
        <time>2022-07-23T09:16:40.999Z</time>
      </trkpt>
      <trkpt lat="49.085759" lon="9.601869">
        <ele>479.332034</ele>
        <time>2022-07-23T09:16:42.999Z</time>
      </trkpt>
      <trkpt lat="49.085702" lon="9.601695">
        <ele>479.514733</ele>
        <time>2022-07-23T09:16:44.999Z</time>
      </trkpt>
      <trkpt lat="49.085645" lon="9.601535">
        <ele>479.685775</ele>
        <time>2022-07-23T09:16:46.999Z</time>
      </trkpt>
      <trkpt lat="49.085583" lon="9.601383">
        <ele>479.853934</ele>
        <time>2022-07-23T09:16:48.999Z</time>
      </trkpt>
      <trkpt lat="49.085515" lon="9.601234">
        <ele>480.024477</ele>
        <time>2022-07-23T09:16:50.999Z</time>
      </trkpt>
      <trkpt lat="49.085445" lon="9.601093">
        <ele>480.190629</ele>
        <time>2022-07-23T09:16:52.999Z</time>
      </trkpt>
      <trkpt lat="49.085385" lon="9.600953">
        <ele>480.347747</ele>
        <time>2022-07-23T09:16:54.999Z</time>
      </trkpt>
      <trkpt lat="49.085334" lon="9.600815">
        <ele>480.496548</ele>
        <time>2022-07-23T09:16:56.999Z</time>
      </trkpt>
      <trkpt lat="49.085250" lon="9.600728">
        <ele>480.642087</ele>
        <time>2022-07-23T09:16:58.999Z</time>
      </trkpt>
      <trkpt lat="49.085148" lon="9.600712">
        <ele>480.789110</ele>
        <time>2022-07-23T09:17:00.999Z</time>
      </trkpt>
      <trkpt lat="49.085068" lon="9.600624">
        <ele>480.930487</ele>
        <time>2022-07-23T09:17:03.000Z</time>
      </trkpt>
      <trkpt lat="49.085019" lon="9.600489">
        <ele>481.075430</ele>
        <time>2022-07-23T09:17:05.000Z</time>
      </trkpt>
      <trkpt lat="49.084963" lon="9.600368">
        <ele>481.214567</ele>
        <time>2022-07-23T09:17:07.000Z</time>
      </trkpt>
      <trkpt lat="49.084911" lon="9.600250">
        <ele>481.348128</ele>
        <time>2022-07-23T09:17:09.000Z</time>
      </trkpt>
      <trkpt lat="49.084850" lon="9.600128">
        <ele>481.492268</ele>
        <time>2022-07-23T09:17:11.000Z</time>
      </trkpt>
      <trkpt lat="49.084799" lon="9.600002">
        <ele>481.544820</ele>
        <time>2022-07-23T09:17:13.000Z</time>
      </trkpt>
      <trkpt lat="49.084745" lon="9.599865">
        <ele>481.481483</ele>
        <time>2022-07-23T09:17:15.000Z</time>
      </trkpt>
      <trkpt lat="49.084674" lon="9.599724">
        <ele>481.411032</ele>
        <time>2022-07-23T09:17:17.000Z</time>
      </trkpt>
      <trkpt lat="49.084600" lon="9.599589">
        <ele>481.341300</ele>
        <time>2022-07-23T09:17:19.000Z</time>
      </trkpt>
      <trkpt lat="49.084526" lon="9.599458">
        <ele>481.272775</ele>
        <time>2022-07-23T09:17:21.000Z</time>
      </trkpt>
      <trkpt lat="49.084451" lon="9.599333">
        <ele>481.205625</ele>
        <time>2022-07-23T09:17:23.000Z</time>
      </trkpt>
      <trkpt lat="49.084375" lon="9.599209">
        <ele>481.138354</ele>
        <time>2022-07-23T09:17:25.000Z</time>
      </trkpt>
      <trkpt lat="49.084300" lon="9.599081">
        <ele>481.070323</ele>
        <time>2022-07-23T09:17:27.000Z</time>
      </trkpt>
      <trkpt lat="49.084227" lon="9.598962">
        <ele>481.005738</ele>
        <time>2022-07-23T09:17:29.000Z</time>
      </trkpt>
      <trkpt lat="49.084160" lon="9.598854">
        <ele>480.946813</ele>
        <time>2022-07-23T09:17:30.999Z</time>
      </trkpt>
      <trkpt lat="49.084092" lon="9.598746">
        <ele>480.887471</ele>
        <time>2022-07-23T09:17:32.999Z</time>
      </trkpt>
      <trkpt lat="49.084020" lon="9.598637">
        <ele>480.826148</ele>
        <time>2022-07-23T09:17:34.999Z</time>
      </trkpt>
      <trkpt lat="49.083946" lon="9.598535">
        <ele>480.765853</ele>
        <time>2022-07-23T09:17:36.999Z</time>
      </trkpt>
      <trkpt lat="49.083871" lon="9.598429">
        <ele>480.704043</ele>
        <time>2022-07-23T09:17:38.999Z</time>
      </trkpt>
      <trkpt lat="49.083791" lon="9.598315">
        <ele>480.637859</ele>
        <time>2022-07-23T09:17:40.999Z</time>
      </trkpt>
      <trkpt lat="49.083707" lon="9.598201">
        <ele>480.569888</ele>
        <time>2022-07-23T09:17:42.999Z</time>
      </trkpt>
      <trkpt lat="49.083622" lon="9.598088">
        <ele>480.501723</ele>
        <time>2022-07-23T09:17:44.999Z</time>
      </trkpt>
      <trkpt lat="49.083544" lon="9.597964">
        <ele>480.545400</ele>
        <time>2022-07-23T09:17:46.999Z</time>
      </trkpt>
      <trkpt lat="49.083463" lon="9.597844">
        <ele>480.632683</ele>
        <time>2022-07-23T09:17:48.999Z</time>
      </trkpt>
      <trkpt lat="49.083387" lon="9.597726">
        <ele>480.716509</ele>
        <time>2022-07-23T09:17:50.999Z</time>
      </trkpt>
      <trkpt lat="49.083314" lon="9.597604">
        <ele>480.800209</ele>
        <time>2022-07-23T09:17:52.999Z</time>
      </trkpt>
      <trkpt lat="49.083243" lon="9.597471">
        <ele>480.887118</ele>
        <time>2022-07-23T09:17:54.999Z</time>
      </trkpt>
      <trkpt lat="49.083175" lon="9.597343">
        <ele>480.970598</ele>
        <time>2022-07-23T09:17:56.999Z</time>
      </trkpt>
      <trkpt lat="49.083111" lon="9.597217">
        <ele>481.051362</ele>
        <time>2022-07-23T09:17:58.999Z</time>
      </trkpt>
      <trkpt lat="49.083059" lon="9.597085">
        <ele>481.129384</ele>
        <time>2022-07-23T09:18:00.999Z</time>
      </trkpt>
      <trkpt lat="49.083006" lon="9.596957">
        <ele>481.206088</ele>
        <time>2022-07-23T09:18:02.999Z</time>
      </trkpt>
      <trkpt lat="49.082953" lon="9.596830">
        <ele>481.282364</ele>
        <time>2022-07-23T09:18:04.999Z</time>
      </trkpt>
      <trkpt lat="49.082903" lon="9.596712">
        <ele>481.353551</ele>
        <time>2022-07-23T09:18:06.999Z</time>
      </trkpt>
      <trkpt lat="49.082853" lon="9.596585">
        <ele>481.428606</ele>
        <time>2022-07-23T09:18:08.999Z</time>
      </trkpt>
      <trkpt lat="49.082794" lon="9.596479">
        <ele>481.499066</ele>
        <time>2022-07-23T09:18:10.999Z</time>
      </trkpt>
      <trkpt lat="49.082672" lon="9.596423">
        <ele>481.597586</ele>
        <time>2022-07-23T09:18:13.999Z</time>
      </trkpt>
      <trkpt lat="49.082577" lon="9.596400">
        <ele>481.671972</ele>
        <time>2022-07-23T09:18:16.999Z</time>
      </trkpt>
      <trkpt lat="49.082485" lon="9.596382">
        <ele>481.743703</ele>
        <time>2022-07-23T09:18:19.999Z</time>
      </trkpt>
      <trkpt lat="49.082387" lon="9.596351">
        <ele>481.821100</ele>
        <time>2022-07-23T09:18:23.999Z</time>
      </trkpt>
      <trkpt lat="49.082299" lon="9.596314">
        <ele>481.838813</ele>
        <time>2022-07-23T09:18:31.999Z</time>
      </trkpt>
      <trkpt lat="49.082193" lon="9.596268">
        <ele>481.674137</ele>
        <time>2022-07-23T09:18:34.999Z</time>
      </trkpt>
      <trkpt lat="49.082106" lon="9.596225">
        <ele>481.537485</ele>
        <time>2022-07-23T09:18:36.999Z</time>
      </trkpt>
      <trkpt lat="49.081999" lon="9.596195">
        <ele>481.374915</ele>
        <time>2022-07-23T09:18:38.999Z</time>
      </trkpt>
      <trkpt lat="49.081888" lon="9.596163">
        <ele>481.206110</ele>
        <time>2022-07-23T09:18:40.999Z</time>
      </trkpt>
      <trkpt lat="49.081778" lon="9.596137">
        <ele>481.039773</ele>
        <time>2022-07-23T09:18:42.999Z</time>
      </trkpt>
      <trkpt lat="49.081662" lon="9.596118">
        <ele>480.865432</ele>
        <time>2022-07-23T09:18:44.999Z</time>
      </trkpt>
      <trkpt lat="49.081551" lon="9.596093">
        <ele>480.697763</ele>
        <time>2022-07-23T09:18:46.999Z</time>
      </trkpt>
      <trkpt lat="49.081442" lon="9.596056">
        <ele>480.530901</ele>
        <time>2022-07-23T09:18:48.999Z</time>
      </trkpt>
      <trkpt lat="49.081338" lon="9.596023">
        <ele>480.372167</ele>
        <time>2022-07-23T09:18:50.999Z</time>
      </trkpt>
      <trkpt lat="49.081227" lon="9.595990">
        <ele>480.203177</ele>
        <time>2022-07-23T09:18:52.999Z</time>
      </trkpt>
      <trkpt lat="49.081118" lon="9.595937">
        <ele>480.032231</ele>
        <time>2022-07-23T09:18:54.999Z</time>
      </trkpt>
      <trkpt lat="49.081010" lon="9.595913">
        <ele>479.869140</ele>
        <time>2022-07-23T09:18:56.999Z</time>
      </trkpt>
      <trkpt lat="49.080902" lon="9.595912">
        <ele>479.707746</ele>
        <time>2022-07-23T09:18:58.999Z</time>
      </trkpt>
      <trkpt lat="49.080790" lon="9.595909">
        <ele>479.540352</ele>
        <time>2022-07-23T09:19:00.999Z</time>
      </trkpt>
      <trkpt lat="49.080680" lon="9.595921">
        <ele>479.375554</ele>
        <time>2022-07-23T09:19:02.999Z</time>
      </trkpt>
      <trkpt lat="49.080572" lon="9.595932">
        <ele>479.213804</ele>
        <time>2022-07-23T09:19:04.999Z</time>
      </trkpt>
      <trkpt lat="49.080461" lon="9.595935">
        <ele>479.232877</ele>
        <time>2022-07-23T09:19:06.999Z</time>
      </trkpt>
      <trkpt lat="49.080355" lon="9.595927">
        <ele>479.286959</ele>
        <time>2022-07-23T09:19:09.000Z</time>
      </trkpt>
      <trkpt lat="49.080237" lon="9.595911">
        <ele>479.347327</ele>
        <time>2022-07-23T09:19:11.000Z</time>
      </trkpt>
      <trkpt lat="49.080131" lon="9.595900">
        <ele>479.401469</ele>
        <time>2022-07-23T09:19:13.000Z</time>
      </trkpt>
      <trkpt lat="49.080036" lon="9.595891">
        <ele>479.449973</ele>
        <time>2022-07-23T09:19:15.000Z</time>
      </trkpt>
      <trkpt lat="49.079935" lon="9.595871">
        <ele>479.501872</ele>
        <time>2022-07-23T09:19:17.000Z</time>
      </trkpt>
      <trkpt lat="49.079836" lon="9.595854">
        <ele>479.552640</ele>
        <time>2022-07-23T09:19:19.000Z</time>
      </trkpt>
      <trkpt lat="49.079734" lon="9.595860">
        <ele>479.604657</ele>
        <time>2022-07-23T09:19:21.000Z</time>
      </trkpt>
      <trkpt lat="49.079627" lon="9.595860">
        <ele>479.659183</ele>
        <time>2022-07-23T09:19:23.000Z</time>
      </trkpt>
      <trkpt lat="49.079523" lon="9.595855">
        <ele>479.712207</ele>
        <time>2022-07-23T09:19:25.000Z</time>
      </trkpt>
      <trkpt lat="49.079422" lon="9.595868">
        <ele>479.763858</ele>
        <time>2022-07-23T09:19:27.000Z</time>
      </trkpt>
      <trkpt lat="49.079322" lon="9.595882">
        <ele>479.815031</ele>
        <time>2022-07-23T09:19:29.000Z</time>
      </trkpt>
      <trkpt lat="49.079216" lon="9.595887">
        <ele>479.869073</ele>
        <time>2022-07-23T09:19:30.999Z</time>
      </trkpt>
      <trkpt lat="49.079123" lon="9.595926">
        <ele>479.918220</ele>
        <time>2022-07-23T09:19:32.999Z</time>
      </trkpt>
      <trkpt lat="49.079020" lon="9.595961">
        <ele>479.971992</ele>
        <time>2022-07-23T09:19:34.999Z</time>
      </trkpt>
      <trkpt lat="49.078924" lon="9.595980">
        <ele>480.021322</ele>
        <time>2022-07-23T09:19:36.999Z</time>
      </trkpt>
      <trkpt lat="49.078824" lon="9.596006">
        <ele>480.073015</ele>
        <time>2022-07-23T09:19:38.999Z</time>
      </trkpt>
      <trkpt lat="49.078722" lon="9.596009">
        <ele>480.109196</ele>
        <time>2022-07-23T09:19:40.999Z</time>
      </trkpt>
      <trkpt lat="49.078618" lon="9.596009">
        <ele>480.125114</ele>
        <time>2022-07-23T09:19:42.999Z</time>
      </trkpt>
      <trkpt lat="49.078513" lon="9.596021">
        <ele>480.141230</ele>
        <time>2022-07-23T09:19:44.999Z</time>
      </trkpt>
      <trkpt lat="49.078400" lon="9.596029">
        <ele>480.158544</ele>
        <time>2022-07-23T09:19:46.999Z</time>
      </trkpt>
      <trkpt lat="49.078279" lon="9.596029">
        <ele>480.177064</ele>
        <time>2022-07-23T09:19:48.999Z</time>
      </trkpt>
      <trkpt lat="49.078168" lon="9.595989">
        <ele>480.194521</ele>
        <time>2022-07-23T09:19:50.999Z</time>
      </trkpt>
      <trkpt lat="49.078062" lon="9.595920">
        <ele>480.212158</ele>
        <time>2022-07-23T09:19:52.999Z</time>
      </trkpt>
      <trkpt lat="49.077979" lon="9.595808">
        <ele>480.229113</ele>
        <time>2022-07-23T09:19:54.999Z</time>
      </trkpt>
      <trkpt lat="49.077905" lon="9.595712">
        <ele>480.243977</ele>
        <time>2022-07-23T09:19:56.999Z</time>
      </trkpt>
      <trkpt lat="49.077838" lon="9.595615">
        <ele>480.258110</ele>
        <time>2022-07-23T09:19:58.999Z</time>
      </trkpt>
      <trkpt lat="49.077721" lon="9.595529">
        <ele>480.277985</ele>
        <time>2022-07-23T09:20:01.999Z</time>
      </trkpt>
      <trkpt lat="49.077631" lon="9.595509">
        <ele>480.291905</ele>
        <time>2022-07-23T09:20:06.999Z</time>
      </trkpt>
      <trkpt lat="49.077518" lon="9.595515">
        <ele>480.309211</ele>
        <time>2022-07-23T09:20:17.999Z</time>
      </trkpt>
      <trkpt lat="49.077416" lon="9.595545">
        <ele>480.325110</ele>
        <time>2022-07-23T09:20:20.999Z</time>
      </trkpt>
      <trkpt lat="49.077289" lon="9.595599">
        <ele>480.345289</ele>
        <time>2022-07-23T09:20:23.999Z</time>
      </trkpt>
      <trkpt lat="49.077202" lon="9.595642">
        <ele>480.359285</ele>
        <time>2022-07-23T09:20:25.999Z</time>
      </trkpt>
      <trkpt lat="49.077101" lon="9.595686">
        <ele>480.375361</ele>
        <time>2022-07-23T09:20:27.999Z</time>
      </trkpt>
      <trkpt lat="49.077010" lon="9.595728">
        <ele>480.424792</ele>
        <time>2022-07-23T09:20:29.999Z</time>
      </trkpt>
      <trkpt lat="49.076916" lon="9.595781">
        <ele>480.483962</ele>
        <time>2022-07-23T09:20:31.999Z</time>
      </trkpt>
      <trkpt lat="49.076813" lon="9.595819">
        <ele>480.546532</ele>
        <time>2022-07-23T09:20:33.999Z</time>
      </trkpt>
      <trkpt lat="49.076714" lon="9.595845">
        <ele>480.605848</ele>
        <time>2022-07-23T09:20:35.999Z</time>
      </trkpt>
      <trkpt lat="49.076615" lon="9.595870">
        <ele>480.665100</ele>
        <time>2022-07-23T09:20:37.999Z</time>
      </trkpt>
      <trkpt lat="49.076517" lon="9.595880">
        <ele>480.723095</ele>
        <time>2022-07-23T09:20:39.999Z</time>
      </trkpt>
      <trkpt lat="49.076414" lon="9.595885">
        <ele>480.783945</ele>
        <time>2022-07-23T09:20:41.999Z</time>
      </trkpt>
      <trkpt lat="49.076313" lon="9.595892">
        <ele>480.843645</ele>
        <time>2022-07-23T09:20:43.999Z</time>
      </trkpt>
      <trkpt lat="49.076215" lon="9.595879">
        <ele>480.901730</ele>
        <time>2022-07-23T09:20:45.999Z</time>
      </trkpt>
      <trkpt lat="49.076111" lon="9.595850">
        <ele>480.964156</ele>
        <time>2022-07-23T09:20:47.999Z</time>
      </trkpt>
      <trkpt lat="49.076006" lon="9.595807">
        <ele>481.028348</ele>
        <time>2022-07-23T09:20:49.999Z</time>
      </trkpt>
      <trkpt lat="49.075898" lon="9.595753">
        <ele>481.095453</ele>
        <time>2022-07-23T09:20:51.999Z</time>
      </trkpt>
      <trkpt lat="49.075783" lon="9.595732">
        <ele>481.163842</ele>
        <time>2022-07-23T09:20:53.999Z</time>
      </trkpt>
      <trkpt lat="49.075668" lon="9.595685">
        <ele>481.234138</ele>
        <time>2022-07-23T09:20:55.999Z</time>
      </trkpt>
      <trkpt lat="49.075559" lon="9.595673">
        <ele>481.298668</ele>
        <time>2022-07-23T09:20:57.999Z</time>
      </trkpt>
      <trkpt lat="49.075454" lon="9.595668">
        <ele>481.360698</ele>
        <time>2022-07-23T09:20:59.999Z</time>
      </trkpt>
      <trkpt lat="49.075359" lon="9.595689">
        <ele>481.417378</ele>
        <time>2022-07-23T09:21:01.999Z</time>
      </trkpt>
      <trkpt lat="49.075229" lon="9.595683">
        <ele>481.627982</ele>
        <time>2022-07-23T09:21:04.999Z</time>
      </trkpt>
      <trkpt lat="49.075105" lon="9.595678">
        <ele>481.881354</ele>
        <time>2022-07-23T09:21:07.999Z</time>
      </trkpt>
      <trkpt lat="49.074974" lon="9.595681">
        <ele>482.148965</ele>
        <time>2022-07-23T09:21:10.999Z</time>
      </trkpt>
      <trkpt lat="49.074843" lon="9.595694">
        <ele>482.417112</ele>
        <time>2022-07-23T09:21:13.999Z</time>
      </trkpt>
      <trkpt lat="49.074713" lon="9.595711">
        <ele>482.683623</ele>
        <time>2022-07-23T09:21:16.999Z</time>
      </trkpt>
      <trkpt lat="49.074623" lon="9.595729">
        <ele>482.869029</ele>
        <time>2022-07-23T09:21:18.999Z</time>
      </trkpt>
      <trkpt lat="49.074492" lon="9.595771">
        <ele>483.142448</ele>
        <time>2022-07-23T09:21:21.999Z</time>
      </trkpt>
      <trkpt lat="49.074401" lon="9.595800">
        <ele>483.332333</ele>
        <time>2022-07-23T09:21:23.999Z</time>
      </trkpt>
      <trkpt lat="49.074304" lon="9.595834">
        <ele>483.535622</ele>
        <time>2022-07-23T09:21:25.999Z</time>
      </trkpt>
      <trkpt lat="49.074206" lon="9.595873">
        <ele>483.742488</ele>
        <time>2022-07-23T09:21:27.999Z</time>
      </trkpt>
      <trkpt lat="49.074108" lon="9.595911">
        <ele>483.949020</ele>
        <time>2022-07-23T09:21:29.999Z</time>
      </trkpt>
      <trkpt lat="49.074012" lon="9.595949">
        <ele>484.151595</ele>
        <time>2022-07-23T09:21:31.999Z</time>
      </trkpt>
      <trkpt lat="49.073915" lon="9.595989">
        <ele>484.356830</ele>
        <time>2022-07-23T09:21:34.000Z</time>
      </trkpt>
      <trkpt lat="49.073816" lon="9.596026">
        <ele>484.565021</ele>
        <time>2022-07-23T09:21:35.999Z</time>
      </trkpt>
      <trkpt lat="49.073712" lon="9.596064">
        <ele>484.783453</ele>
        <time>2022-07-23T09:21:37.999Z</time>
      </trkpt>
      <trkpt lat="49.073608" lon="9.596105">
        <ele>485.002854</ele>
        <time>2022-07-23T09:21:39.999Z</time>
      </trkpt>
      <trkpt lat="49.073505" lon="9.596148">
        <ele>485.231849</ele>
        <time>2022-07-23T09:21:41.999Z</time>
      </trkpt>
      <trkpt lat="49.073407" lon="9.596184">
        <ele>485.458620</ele>
        <time>2022-07-23T09:21:43.999Z</time>
      </trkpt>
      <trkpt lat="49.073307" lon="9.596220">
        <ele>485.689769</ele>
        <time>2022-07-23T09:21:45.999Z</time>
      </trkpt>
      <trkpt lat="49.073202" lon="9.596258">
        <ele>485.932543</ele>
        <time>2022-07-23T09:21:47.999Z</time>
      </trkpt>
      <trkpt lat="49.073090" lon="9.596289">
        <ele>486.188626</ele>
        <time>2022-07-23T09:21:49.999Z</time>
      </trkpt>
      <trkpt lat="49.072979" lon="9.596321">
        <ele>486.442765</ele>
        <time>2022-07-23T09:21:51.999Z</time>
      </trkpt>
      <trkpt lat="49.072870" lon="9.596352">
        <ele>486.692210</ele>
        <time>2022-07-23T09:21:53.999Z</time>
      </trkpt>
      <trkpt lat="49.072758" lon="9.596383">
        <ele>486.948293</ele>
        <time>2022-07-23T09:21:55.999Z</time>
      </trkpt>
      <trkpt lat="49.072652" lon="9.596415">
        <ele>487.191387</ele>
        <time>2022-07-23T09:21:57.999Z</time>
      </trkpt>
      <trkpt lat="49.072550" lon="9.596448">
        <ele>487.425961</ele>
        <time>2022-07-23T09:21:59.999Z</time>
      </trkpt>
      <trkpt lat="49.072446" lon="9.596475">
        <ele>487.663297</ele>
        <time>2022-07-23T09:22:01.999Z</time>
      </trkpt>
      <trkpt lat="49.072341" lon="9.596494">
        <ele>487.901177</ele>
        <time>2022-07-23T09:22:03.999Z</time>
      </trkpt>
      <trkpt lat="49.072239" lon="9.596503">
        <ele>488.131037</ele>
        <time>2022-07-23T09:22:05.999Z</time>
      </trkpt>
      <trkpt lat="49.072144" lon="9.596512">
        <ele>488.345176</ele>
        <time>2022-07-23T09:22:07.999Z</time>
      </trkpt>
      <trkpt lat="49.072021" lon="9.596477">
        <ele>488.626665</ele>
        <time>2022-07-23T09:22:10.999Z</time>
      </trkpt>
      <trkpt lat="49.071944" lon="9.596337">
        <ele>488.896081</ele>
        <time>2022-07-23T09:22:13.999Z</time>
      </trkpt>
      <trkpt lat="49.071859" lon="9.596234">
        <ele>489.140242</ele>
        <time>2022-07-23T09:22:16.999Z</time>
      </trkpt>
      <trkpt lat="49.071749" lon="9.596271">
        <ele>489.196137</ele>
        <time>2022-07-23T09:22:19.999Z</time>
      </trkpt>
      <trkpt lat="49.071661" lon="9.596326">
        <ele>489.229052</ele>
        <time>2022-07-23T09:22:22.999Z</time>
      </trkpt>
      <trkpt lat="49.071562" lon="9.596385">
        <ele>489.265840</ele>
        <time>2022-07-23T09:22:26.999Z</time>
      </trkpt>
      <trkpt lat="49.071469" lon="9.596432">
        <ele>489.299749</ele>
        <time>2022-07-23T09:22:30.999Z</time>
      </trkpt>
      <trkpt lat="49.071373" lon="9.596475">
        <ele>489.334380</ele>
        <time>2022-07-23T09:22:34.999Z</time>
      </trkpt>
      <trkpt lat="49.071256" lon="9.596495">
        <ele>489.375132</ele>
        <time>2022-07-23T09:22:38.999Z</time>
      </trkpt>
      <trkpt lat="49.071161" lon="9.596498">
        <ele>489.408023</ele>
        <time>2022-07-23T09:22:41.999Z</time>
      </trkpt>
      <trkpt lat="49.071053" lon="9.596499">
        <ele>489.445407</ele>
        <time>2022-07-23T09:22:44.999Z</time>
      </trkpt>
      <trkpt lat="49.070960" lon="9.596500">
        <ele>489.477599</ele>
        <time>2022-07-23T09:22:46.999Z</time>
      </trkpt>
      <trkpt lat="49.070856" lon="9.596531">
        <ele>489.514278</ele>
        <time>2022-07-23T09:22:48.999Z</time>
      </trkpt>
      <trkpt lat="49.070748" lon="9.596601">
        <ele>489.554892</ele>
        <time>2022-07-23T09:22:50.999Z</time>
      </trkpt>
      <trkpt lat="49.070654" lon="9.596684">
        <ele>489.592481</ele>
        <time>2022-07-23T09:22:52.999Z</time>
      </trkpt>
      <trkpt lat="49.070555" lon="9.596773">
        <ele>489.632250</ele>
        <time>2022-07-23T09:22:54.999Z</time>
      </trkpt>
      <trkpt lat="49.070458" lon="9.596870">
        <ele>489.672390</ele>
        <time>2022-07-23T09:22:56.999Z</time>
      </trkpt>
      <trkpt lat="49.070365" lon="9.596970">
        <ele>489.711767</ele>
        <time>2022-07-23T09:22:58.999Z</time>
      </trkpt>
      <trkpt lat="49.070274" lon="9.597073">
        <ele>489.750981</ele>
        <time>2022-07-23T09:23:00.999Z</time>
      </trkpt>
      <trkpt lat="49.070179" lon="9.597174">
        <ele>489.746183</ele>
        <time>2022-07-23T09:23:02.999Z</time>
      </trkpt>
      <trkpt lat="49.070086" lon="9.597281">
        <ele>489.567101</ele>
        <time>2022-07-23T09:23:04.999Z</time>
      </trkpt>
      <trkpt lat="49.069986" lon="9.597392">
        <ele>489.376970</ele>
        <time>2022-07-23T09:23:06.999Z</time>
      </trkpt>
      <trkpt lat="49.069880" lon="9.597496">
        <ele>489.183205</ele>
        <time>2022-07-23T09:23:08.999Z</time>
      </trkpt>
      <trkpt lat="49.069772" lon="9.597598">
        <ele>488.987913</ele>
        <time>2022-07-23T09:23:10.999Z</time>
      </trkpt>
      <trkpt lat="49.069660" lon="9.597698">
        <ele>488.788389</ele>
        <time>2022-07-23T09:23:12.999Z</time>
      </trkpt>
      <trkpt lat="49.069542" lon="9.597793">
        <ele>488.583246</ele>
        <time>2022-07-23T09:23:14.999Z</time>
      </trkpt>
      <trkpt lat="49.069427" lon="9.597883">
        <ele>488.384520</ele>
        <time>2022-07-23T09:23:16.999Z</time>
      </trkpt>
      <trkpt lat="49.069303" lon="9.597959">
        <ele>488.179047</ele>
        <time>2022-07-23T09:23:18.999Z</time>
      </trkpt>
      <trkpt lat="49.069164" lon="9.598020">
        <ele>487.956646</ele>
        <time>2022-07-23T09:23:21.000Z</time>
      </trkpt>
      <trkpt lat="49.069031" lon="9.598074">
        <ele>487.745019</ele>
        <time>2022-07-23T09:23:23.000Z</time>
      </trkpt>
      <trkpt lat="49.068888" lon="9.598105">
        <ele>487.522920</ele>
        <time>2022-07-23T09:23:25.000Z</time>
      </trkpt>
      <trkpt lat="49.068765" lon="9.598150">
        <ele>487.328424</ele>
        <time>2022-07-23T09:23:27.000Z</time>
      </trkpt>
      <trkpt lat="49.068643" lon="9.598175">
        <ele>487.139140</ele>
        <time>2022-07-23T09:23:29.000Z</time>
      </trkpt>
      <trkpt lat="49.068519" lon="9.598203">
        <ele>487.146377</ele>
        <time>2022-07-23T09:23:31.000Z</time>
      </trkpt>
      <trkpt lat="49.068403" lon="9.598232">
        <ele>487.477431</ele>
        <time>2022-07-23T09:23:33.000Z</time>
      </trkpt>
      <trkpt lat="49.068287" lon="9.598238">
        <ele>487.804320</ele>
        <time>2022-07-23T09:23:35.000Z</time>
      </trkpt>
      <trkpt lat="49.068173" lon="9.598235">
        <ele>488.125436</ele>
        <time>2022-07-23T09:23:37.000Z</time>
      </trkpt>
      <trkpt lat="49.068064" lon="9.598228">
        <ele>488.432694</ele>
        <time>2022-07-23T09:23:39.000Z</time>
      </trkpt>
      <trkpt lat="49.067952" lon="9.598297">
        <ele>488.772856</ele>
        <time>2022-07-23T09:23:41.000Z</time>
      </trkpt>
      <trkpt lat="49.067848" lon="9.598392">
        <ele>489.114207</ele>
        <time>2022-07-23T09:23:43.000Z</time>
      </trkpt>
      <trkpt lat="49.067745" lon="9.598497">
        <ele>489.463046</ele>
        <time>2022-07-23T09:23:44.999Z</time>
      </trkpt>
      <trkpt lat="49.067645" lon="9.598598">
        <ele>489.800763</ele>
        <time>2022-07-23T09:23:46.999Z</time>
      </trkpt>
      <trkpt lat="49.067544" lon="9.598688">
        <ele>490.130147</ele>
        <time>2022-07-23T09:23:48.999Z</time>
      </trkpt>
      <trkpt lat="49.067442" lon="9.598760">
        <ele>490.446653</ele>
        <time>2022-07-23T09:23:50.999Z</time>
      </trkpt>
      <trkpt lat="49.067335" lon="9.598833">
        <ele>490.776741</ele>
        <time>2022-07-23T09:23:52.999Z</time>
      </trkpt>
      <trkpt lat="49.067225" lon="9.598911">
        <ele>491.118345</ele>
        <time>2022-07-23T09:23:54.999Z</time>
      </trkpt>
      <trkpt lat="49.067117" lon="9.598984">
        <ele>491.451007</ele>
        <time>2022-07-23T09:23:56.999Z</time>
      </trkpt>
      <trkpt lat="49.067003" lon="9.599056">
        <ele>491.798477</ele>
        <time>2022-07-23T09:23:58.999Z</time>
      </trkpt>
      <trkpt lat="49.066901" lon="9.599134">
        <ele>492.107787</ele>
        <time>2022-07-23T09:24:00.999Z</time>
      </trkpt>
      <trkpt lat="49.066801" lon="9.599207">
        <ele>492.318961</ele>
        <time>2022-07-23T09:24:02.999Z</time>
      </trkpt>
      <trkpt lat="49.066695" lon="9.599283">
        <ele>492.542069</ele>
        <time>2022-07-23T09:24:04.999Z</time>
      </trkpt>
      <trkpt lat="49.066587" lon="9.599362">
        <ele>492.770224</ele>
        <time>2022-07-23T09:24:06.999Z</time>
      </trkpt>
      <trkpt lat="49.066481" lon="9.599449">
        <ele>492.999507</ele>
        <time>2022-07-23T09:24:08.999Z</time>
      </trkpt>
      <trkpt lat="49.066377" lon="9.599535">
        <ele>493.224844</ele>
        <time>2022-07-23T09:24:10.999Z</time>
      </trkpt>
      <trkpt lat="49.066277" lon="9.599608">
        <ele>493.436019</ele>
        <time>2022-07-23T09:24:12.999Z</time>
      </trkpt>
      <trkpt lat="49.066160" lon="9.599690">
        <ele>493.681287</ele>
        <time>2022-07-23T09:24:14.999Z</time>
      </trkpt>
      <trkpt lat="49.066051" lon="9.599761">
        <ele>493.907060</ele>
        <time>2022-07-23T09:24:16.999Z</time>
      </trkpt>
      <trkpt lat="49.065939" lon="9.599839">
        <ele>494.141589</ele>
        <time>2022-07-23T09:24:18.999Z</time>
      </trkpt>
      <trkpt lat="49.065837" lon="9.599904">
        <ele>494.352163</ele>
        <time>2022-07-23T09:24:20.999Z</time>
      </trkpt>
      <trkpt lat="49.065736" lon="9.599978">
        <ele>494.565596</ele>
        <time>2022-07-23T09:24:22.999Z</time>
      </trkpt>
      <trkpt lat="49.065636" lon="9.600046">
        <ele>494.774155</ele>
        <time>2022-07-23T09:24:24.999Z</time>
      </trkpt>
      <trkpt lat="49.065539" lon="9.600114">
        <ele>494.977507</ele>
        <time>2022-07-23T09:24:26.999Z</time>
      </trkpt>
      <trkpt lat="49.065446" lon="9.600186">
        <ele>495.176168</ele>
        <time>2022-07-23T09:24:28.999Z</time>
      </trkpt>
      <trkpt lat="49.065348" lon="9.600260">
        <ele>495.384464</ele>
        <time>2022-07-23T09:24:30.999Z</time>
      </trkpt>
      <trkpt lat="49.065253" lon="9.600344">
        <ele>495.527971</ele>
        <time>2022-07-23T09:24:32.999Z</time>
      </trkpt>
      <trkpt lat="49.065169" lon="9.600459">
        <ele>495.575704</ele>
        <time>2022-07-23T09:24:34.999Z</time>
      </trkpt>
      <trkpt lat="49.065096" lon="9.600563">
        <ele>495.617946</ele>
        <time>2022-07-23T09:24:36.999Z</time>
      </trkpt>
      <trkpt lat="49.065027" lon="9.600683">
        <ele>495.662196</ele>
        <time>2022-07-23T09:24:38.999Z</time>
      </trkpt>
      <trkpt lat="49.064959" lon="9.600815">
        <ele>495.708734</ele>
        <time>2022-07-23T09:24:40.999Z</time>
      </trkpt>
      <trkpt lat="49.064893" lon="9.600956">
        <ele>495.756761</ele>
        <time>2022-07-23T09:24:42.999Z</time>
      </trkpt>
      <trkpt lat="49.064831" lon="9.601101">
        <ele>495.804749</ele>
        <time>2022-07-23T09:24:44.999Z</time>
      </trkpt>
      <trkpt lat="49.064773" lon="9.601259">
        <ele>495.854945</ele>
        <time>2022-07-23T09:24:46.999Z</time>
      </trkpt>
      <trkpt lat="49.064715" lon="9.601417">
        <ele>495.905140</ele>
        <time>2022-07-23T09:24:48.999Z</time>
      </trkpt>
      <trkpt lat="49.064654" lon="9.601582">
        <ele>495.957648</ele>
        <time>2022-07-23T09:24:50.999Z</time>
      </trkpt>
      <trkpt lat="49.064587" lon="9.601743">
        <ele>496.010510</ele>
        <time>2022-07-23T09:24:52.999Z</time>
      </trkpt>
      <trkpt lat="49.064526" lon="9.601908">
        <ele>496.063019</ele>
        <time>2022-07-23T09:24:54.999Z</time>
      </trkpt>
      <trkpt lat="49.064465" lon="9.602070">
        <ele>496.114805</ele>
        <time>2022-07-23T09:24:56.999Z</time>
      </trkpt>
      <trkpt lat="49.064403" lon="9.602235">
        <ele>496.167522</ele>
        <time>2022-07-23T09:24:58.999Z</time>
      </trkpt>
      <trkpt lat="49.064343" lon="9.602405">
        <ele>496.221040</ele>
        <time>2022-07-23T09:25:00.999Z</time>
      </trkpt>
      <trkpt lat="49.064287" lon="9.602559">
        <ele>496.269855</ele>
        <time>2022-07-23T09:25:02.999Z</time>
      </trkpt>
      <trkpt lat="49.064229" lon="9.602721">
        <ele>495.785440</ele>
        <time>2022-07-23T09:25:04.999Z</time>
      </trkpt>
      <trkpt lat="49.064166" lon="9.602889">
        <ele>495.275129</ele>
        <time>2022-07-23T09:25:06.999Z</time>
      </trkpt>
      <trkpt lat="49.064100" lon="9.603066">
        <ele>494.738227</ele>
        <time>2022-07-23T09:25:08.999Z</time>
      </trkpt>
      <trkpt lat="49.064033" lon="9.603245">
        <ele>494.194752</ele>
        <time>2022-07-23T09:25:10.999Z</time>
      </trkpt>
      <trkpt lat="49.063966" lon="9.603428">
        <ele>493.642094</ele>
        <time>2022-07-23T09:25:12.999Z</time>
      </trkpt>
      <trkpt lat="49.063901" lon="9.603610">
        <ele>493.095633</ele>
        <time>2022-07-23T09:25:14.999Z</time>
      </trkpt>
      <trkpt lat="49.063838" lon="9.603791">
        <ele>492.555306</ele>
        <time>2022-07-23T09:25:16.999Z</time>
      </trkpt>
      <trkpt lat="49.063773" lon="9.603968">
        <ele>492.020380</ele>
        <time>2022-07-23T09:25:18.999Z</time>
      </trkpt>
      <trkpt lat="49.063706" lon="9.604134">
        <ele>491.506379</ele>
        <time>2022-07-23T09:25:20.999Z</time>
      </trkpt>
      <trkpt lat="49.063644" lon="9.604302">
        <ele>490.998051</ele>
        <time>2022-07-23T09:25:22.999Z</time>
      </trkpt>
      <trkpt lat="49.063586" lon="9.604467">
        <ele>490.504407</ele>
        <time>2022-07-23T09:25:24.999Z</time>
      </trkpt>
      <trkpt lat="49.063525" lon="9.604625">
        <ele>490.020931</ele>
        <time>2022-07-23T09:25:27.000Z</time>
      </trkpt>
      <trkpt lat="49.063464" lon="9.604780">
        <ele>489.544251</ele>
        <time>2022-07-23T09:25:29.000Z</time>
      </trkpt>
      <trkpt lat="49.063408" lon="9.604933">
        <ele>489.082221</ele>
        <time>2022-07-23T09:25:31.000Z</time>
      </trkpt>
      <trkpt lat="49.063352" lon="9.605091">
        <ele>489.269528</ele>
        <time>2022-07-23T09:25:33.000Z</time>
      </trkpt>
      <trkpt lat="49.063293" lon="9.605255">
        <ele>489.544376</ele>
        <time>2022-07-23T09:25:35.000Z</time>
      </trkpt>
      <trkpt lat="49.063227" lon="9.605426">
        <ele>489.835924</ele>
        <time>2022-07-23T09:25:37.000Z</time>
      </trkpt>
      <trkpt lat="49.063163" lon="9.605602">
        <ele>490.131624</ele>
        <time>2022-07-23T09:25:39.000Z</time>
      </trkpt>
      <trkpt lat="49.063096" lon="9.605774">
        <ele>490.425579</ele>
        <time>2022-07-23T09:25:41.000Z</time>
      </trkpt>
      <trkpt lat="49.063029" lon="9.605948">
        <ele>490.722064</ele>
        <time>2022-07-23T09:25:43.000Z</time>
      </trkpt>
      <trkpt lat="49.062964" lon="9.606122">
        <ele>491.016303</ele>
        <time>2022-07-23T09:25:45.000Z</time>
      </trkpt>
      <trkpt lat="49.062900" lon="9.606295">
        <ele>491.308158</ele>
        <time>2022-07-23T09:25:47.000Z</time>
      </trkpt>
      <trkpt lat="49.062836" lon="9.606469">
        <ele>491.601293</ele>
        <time>2022-07-23T09:25:49.000Z</time>
      </trkpt>
      <trkpt lat="49.062771" lon="9.606643">
        <ele>491.895533</ele>
        <time>2022-07-23T09:25:51.000Z</time>
      </trkpt>
      <trkpt lat="49.062706" lon="9.606817">
        <ele>492.189773</ele>
        <time>2022-07-23T09:25:53.000Z</time>
      </trkpt>
      <trkpt lat="49.062639" lon="9.606989">
        <ele>492.483730</ele>
        <time>2022-07-23T09:25:55.000Z</time>
      </trkpt>
      <trkpt lat="49.062574" lon="9.607162">
        <ele>492.776695</ele>
        <time>2022-07-23T09:25:56.999Z</time>
      </trkpt>
      <trkpt lat="49.062514" lon="9.607331">
        <ele>493.059068</ele>
        <time>2022-07-23T09:25:58.999Z</time>
      </trkpt>
      <trkpt lat="49.062453" lon="9.607498">
        <ele>492.835512</ele>
        <time>2022-07-23T09:26:00.999Z</time>
      </trkpt>
      <trkpt lat="49.062390" lon="9.607665">
        <ele>492.597972</ele>
        <time>2022-07-23T09:26:02.999Z</time>
      </trkpt>
      <trkpt lat="49.062326" lon="9.607831">
        <ele>492.360551</ele>
        <time>2022-07-23T09:26:04.999Z</time>
      </trkpt>
      <trkpt lat="49.062264" lon="9.608005">
        <ele>492.116399</ele>
        <time>2022-07-23T09:26:06.999Z</time>
      </trkpt>
      <trkpt lat="49.062200" lon="9.608175">
        <ele>491.874714</ele>
        <time>2022-07-23T09:26:08.999Z</time>
      </trkpt>
      <trkpt lat="49.062131" lon="9.608344">
        <ele>491.629255</ele>
        <time>2022-07-23T09:26:10.999Z</time>
      </trkpt>
      <trkpt lat="49.062066" lon="9.608519">
        <ele>491.381285</ele>
        <time>2022-07-23T09:26:12.999Z</time>
      </trkpt>
      <trkpt lat="49.062001" lon="9.608686">
        <ele>491.141844</ele>
        <time>2022-07-23T09:26:14.999Z</time>
      </trkpt>
      <trkpt lat="49.061931" lon="9.608854">
        <ele>490.896425</ele>
        <time>2022-07-23T09:26:16.999Z</time>
      </trkpt>
      <trkpt lat="49.061856" lon="9.609013">
        <ele>490.654921</ele>
        <time>2022-07-23T09:26:18.999Z</time>
      </trkpt>
      <trkpt lat="49.061764" lon="9.609154">
        <ele>490.409632</ele>
        <time>2022-07-23T09:26:20.999Z</time>
      </trkpt>
      <trkpt lat="49.061650" lon="9.609261">
        <ele>490.157851</ele>
        <time>2022-07-23T09:26:22.999Z</time>
      </trkpt>
      <trkpt lat="49.061528" lon="9.609339">
        <ele>489.909007</ele>
        <time>2022-07-23T09:26:24.999Z</time>
      </trkpt>
      <trkpt lat="49.061406" lon="9.609411">
        <ele>489.602403</ele>
        <time>2022-07-23T09:26:26.999Z</time>
      </trkpt>
      <trkpt lat="49.061281" lon="9.609484">
        <ele>488.547133</ele>
        <time>2022-07-23T09:26:28.999Z</time>
      </trkpt>
      <trkpt lat="49.061159" lon="9.609555">
        <ele>487.517648</ele>
        <time>2022-07-23T09:26:30.999Z</time>
      </trkpt>
      <trkpt lat="49.061038" lon="9.609627">
        <ele>486.493659</ele>
        <time>2022-07-23T09:26:32.999Z</time>
      </trkpt>
      <trkpt lat="49.060917" lon="9.609705">
        <ele>485.458007</ele>
        <time>2022-07-23T09:26:34.999Z</time>
      </trkpt>
      <trkpt lat="49.060791" lon="9.609778">
        <ele>484.395369</ele>
        <time>2022-07-23T09:26:36.999Z</time>
      </trkpt>
      <trkpt lat="49.060662" lon="9.609856">
        <ele>483.301335</ele>
        <time>2022-07-23T09:26:38.999Z</time>
      </trkpt>
      <trkpt lat="49.060532" lon="9.609925">
        <ele>482.216117</ele>
        <time>2022-07-23T09:26:40.999Z</time>
      </trkpt>
      <trkpt lat="49.060395" lon="9.609992">
        <ele>481.081820</ele>
        <time>2022-07-23T09:26:42.999Z</time>
      </trkpt>
      <trkpt lat="49.060270" lon="9.610070">
        <ele>480.017043</ele>
        <time>2022-07-23T09:26:44.999Z</time>
      </trkpt>
      <trkpt lat="49.060143" lon="9.610139">
        <ele>478.954136</ele>
        <time>2022-07-23T09:26:46.999Z</time>
      </trkpt>
      <trkpt lat="49.060016" lon="9.610206">
        <ele>477.894650</ele>
        <time>2022-07-23T09:26:48.999Z</time>
      </trkpt>
      <trkpt lat="49.059900" lon="9.610288">
        <ele>476.886683</ele>
        <time>2022-07-23T09:26:50.999Z</time>
      </trkpt>
      <trkpt lat="49.059797" lon="9.610410">
        <ele>475.858663</ele>
        <time>2022-07-23T09:26:52.999Z</time>
      </trkpt>
      <trkpt lat="49.059726" lon="9.610563">
        <ele>474.863573</ele>
        <time>2022-07-23T09:26:54.999Z</time>
      </trkpt>
      <trkpt lat="49.059675" lon="9.610738">
        <ele>473.831137</ele>
        <time>2022-07-23T09:26:56.999Z</time>
      </trkpt>
      <trkpt lat="49.059650" lon="9.610923">
        <ele>472.812898</ele>
        <time>2022-07-23T09:26:58.999Z</time>
      </trkpt>
      <trkpt lat="49.059639" lon="9.611113">
        <ele>471.784702</ele>
        <time>2022-07-23T09:27:00.999Z</time>
      </trkpt>
      <trkpt lat="49.059646" lon="9.611304">
        <ele>470.753496</ele>
        <time>2022-07-23T09:27:02.999Z</time>
      </trkpt>
      <trkpt lat="49.059644" lon="9.611493">
        <ele>469.734547</ele>
        <time>2022-07-23T09:27:04.999Z</time>
      </trkpt>
      <trkpt lat="49.059651" lon="9.611681">
        <ele>468.719487</ele>
        <time>2022-07-23T09:27:06.999Z</time>
      </trkpt>
      <trkpt lat="49.059654" lon="9.611877">
        <ele>467.662649</ele>
        <time>2022-07-23T09:27:08.999Z</time>
      </trkpt>
      <trkpt lat="49.059656" lon="9.612072">
        <ele>466.611361</ele>
        <time>2022-07-23T09:27:10.999Z</time>
      </trkpt>
      <trkpt lat="49.059656" lon="9.612276">
        <ele>465.511687</ele>
        <time>2022-07-23T09:27:12.999Z</time>
      </trkpt>
      <trkpt lat="49.059652" lon="9.612487">
        <ele>464.373803</ele>
        <time>2022-07-23T09:27:14.999Z</time>
      </trkpt>
      <trkpt lat="49.059634" lon="9.612700">
        <ele>463.216105</ele>
        <time>2022-07-23T09:27:16.999Z</time>
      </trkpt>
      <trkpt lat="49.059598" lon="9.612903">
        <ele>462.082455</ele>
        <time>2022-07-23T09:27:18.999Z</time>
      </trkpt>
      <trkpt lat="49.059558" lon="9.613110">
        <ele>460.919100</ele>
        <time>2022-07-23T09:27:20.999Z</time>
      </trkpt>
      <trkpt lat="49.059515" lon="9.613311">
        <ele>459.782269</ele>
        <time>2022-07-23T09:27:22.999Z</time>
      </trkpt>
      <trkpt lat="49.059476" lon="9.613505">
        <ele>458.691886</ele>
        <time>2022-07-23T09:27:24.999Z</time>
      </trkpt>
      <trkpt lat="49.059443" lon="9.613695">
        <ele>457.635695</ele>
        <time>2022-07-23T09:27:26.999Z</time>
      </trkpt>
      <trkpt lat="49.059409" lon="9.613882">
        <ele>456.592915</ele>
        <time>2022-07-23T09:27:28.999Z</time>
      </trkpt>
      <trkpt lat="49.059371" lon="9.614074">
        <ele>455.515199</ele>
        <time>2022-07-23T09:27:30.999Z</time>
      </trkpt>
      <trkpt lat="49.059332" lon="9.614267">
        <ele>454.429949</ele>
        <time>2022-07-23T09:27:33.000Z</time>
      </trkpt>
      <trkpt lat="49.059295" lon="9.614471">
        <ele>453.292567</ele>
        <time>2022-07-23T09:27:35.000Z</time>
      </trkpt>
      <trkpt lat="49.059255" lon="9.614673">
        <ele>452.158668</ele>
        <time>2022-07-23T09:27:37.000Z</time>
      </trkpt>
      <trkpt lat="49.059207" lon="9.614882">
        <ele>450.968653</ele>
        <time>2022-07-23T09:27:39.000Z</time>
      </trkpt>
      <trkpt lat="49.059159" lon="9.615082">
        <ele>449.824164</ele>
        <time>2022-07-23T09:27:41.000Z</time>
      </trkpt>
      <trkpt lat="49.059091" lon="9.615261">
        <ele>448.712383</ele>
        <time>2022-07-23T09:27:43.000Z</time>
      </trkpt>
      <trkpt lat="49.058997" lon="9.615428">
        <ele>447.529419</ele>
        <time>2022-07-23T09:27:45.000Z</time>
      </trkpt>
      <trkpt lat="49.058894" lon="9.615572">
        <ele>446.383952</ele>
        <time>2022-07-23T09:27:47.000Z</time>
      </trkpt>
      <trkpt lat="49.058786" lon="9.615693">
        <ele>445.271881</ele>
        <time>2022-07-23T09:27:49.000Z</time>
      </trkpt>
      <trkpt lat="49.058668" lon="9.615800">
        <ele>444.123787</ele>
        <time>2022-07-23T09:27:51.000Z</time>
      </trkpt>
      <trkpt lat="49.058552" lon="9.615904">
        <ele>442.998459</ele>
        <time>2022-07-23T09:27:53.000Z</time>
      </trkpt>
      <trkpt lat="49.058436" lon="9.616005">
        <ele>441.881370</ele>
        <time>2022-07-23T09:27:55.000Z</time>
      </trkpt>
      <trkpt lat="49.058324" lon="9.616112">
        <ele>440.776120</ele>
        <time>2022-07-23T09:27:57.000Z</time>
      </trkpt>
      <trkpt lat="49.058209" lon="9.616210">
        <ele>439.674397</ele>
        <time>2022-07-23T09:27:59.000Z</time>
      </trkpt>
      <trkpt lat="49.058089" lon="9.616317">
        <ele>438.511887</ele>
        <time>2022-07-23T09:28:01.000Z</time>
      </trkpt>
      <trkpt lat="49.057974" lon="9.616437">
        <ele>437.346605</ele>
        <time>2022-07-23T09:28:02.999Z</time>
      </trkpt>
      <trkpt lat="49.057864" lon="9.616571">
        <ele>436.169316</ele>
        <time>2022-07-23T09:28:04.999Z</time>
      </trkpt>
      <trkpt lat="49.057758" lon="9.616717">
        <ele>434.974950</ele>
        <time>2022-07-23T09:28:06.999Z</time>
      </trkpt>
      <trkpt lat="49.057664" lon="9.616882">
        <ele>433.776566</ele>
        <time>2022-07-23T09:28:08.999Z</time>
      </trkpt>
      <trkpt lat="49.057576" lon="9.617042">
        <ele>432.631617</ele>
        <time>2022-07-23T09:28:10.999Z</time>
      </trkpt>
      <trkpt lat="49.057479" lon="9.617204">
        <ele>431.428809</ele>
        <time>2022-07-23T09:28:12.999Z</time>
      </trkpt>
      <trkpt lat="49.057380" lon="9.617361">
        <ele>430.120528</ele>
        <time>2022-07-23T09:28:14.999Z</time>
      </trkpt>
      <trkpt lat="49.057287" lon="9.617522">
        <ele>428.745624</ele>
        <time>2022-07-23T09:28:16.999Z</time>
      </trkpt>
      <trkpt lat="49.057191" lon="9.617679">
        <ele>427.369998</ele>
        <time>2022-07-23T09:28:18.999Z</time>
      </trkpt>
      <trkpt lat="49.057099" lon="9.617837">
        <ele>426.015962</ele>
        <time>2022-07-23T09:28:20.999Z</time>
      </trkpt>
      <trkpt lat="49.057007" lon="9.617994">
        <ele>424.666708</ele>
        <time>2022-07-23T09:28:22.999Z</time>
      </trkpt>
      <trkpt lat="49.056915" lon="9.618149">
        <ele>423.326975</ele>
        <time>2022-07-23T09:28:24.999Z</time>
      </trkpt>
      <trkpt lat="49.056823" lon="9.618300">
        <ele>422.006122</ele>
        <time>2022-07-23T09:28:26.999Z</time>
      </trkpt>
      <trkpt lat="49.056733" lon="9.618452">
        <ele>420.693756</ele>
        <time>2022-07-23T09:28:28.999Z</time>
      </trkpt>
      <trkpt lat="49.056645" lon="9.618602">
        <ele>419.403989</ele>
        <time>2022-07-23T09:28:30.999Z</time>
      </trkpt>
      <trkpt lat="49.056566" lon="9.618751">
        <ele>418.176150</ele>
        <time>2022-07-23T09:28:32.999Z</time>
      </trkpt>
      <trkpt lat="49.056490" lon="9.618927">
        <ele>416.825859</ele>
        <time>2022-07-23T09:28:34.999Z</time>
      </trkpt>
      <trkpt lat="49.056440" lon="9.619119">
        <ele>415.502283</ele>
        <time>2022-07-23T09:28:36.999Z</time>
      </trkpt>
      <trkpt lat="49.056409" lon="9.619322">
        <ele>414.166956</ele>
        <time>2022-07-23T09:28:38.999Z</time>
      </trkpt>
      <trkpt lat="49.056385" lon="9.619522">
        <ele>412.915031</ele>
        <time>2022-07-23T09:28:40.999Z</time>
      </trkpt>
      <trkpt lat="49.056363" lon="9.619721">
        <ele>411.763757</ele>
        <time>2022-07-23T09:28:42.999Z</time>
      </trkpt>
      <trkpt lat="49.056344" lon="9.619923">
        <ele>410.599600</ele>
        <time>2022-07-23T09:28:44.999Z</time>
      </trkpt>
      <trkpt lat="49.056319" lon="9.620119">
        <ele>409.460497</ele>
        <time>2022-07-23T09:28:46.999Z</time>
      </trkpt>
      <trkpt lat="49.056302" lon="9.620315">
        <ele>408.332626</ele>
        <time>2022-07-23T09:28:48.999Z</time>
      </trkpt>
      <trkpt lat="49.056283" lon="9.620514">
        <ele>407.185406</ele>
        <time>2022-07-23T09:28:50.999Z</time>
      </trkpt>
      <trkpt lat="49.056265" lon="9.620716">
        <ele>406.022452</ele>
        <time>2022-07-23T09:28:52.999Z</time>
      </trkpt>
      <trkpt lat="49.056242" lon="9.620915">
        <ele>404.869695</ele>
        <time>2022-07-23T09:28:54.999Z</time>
      </trkpt>
      <trkpt lat="49.056223" lon="9.621118">
        <ele>403.699889</ele>
        <time>2022-07-23T09:28:56.999Z</time>
      </trkpt>
      <trkpt lat="49.056193" lon="9.621318">
        <ele>402.529440</ele>
        <time>2022-07-23T09:28:58.999Z</time>
      </trkpt>
      <trkpt lat="49.056138" lon="9.621502">
        <ele>401.375734</ele>
        <time>2022-07-23T09:29:00.999Z</time>
      </trkpt>
      <trkpt lat="49.056071" lon="9.621676">
        <ele>400.224439</ele>
        <time>2022-07-23T09:29:02.999Z</time>
      </trkpt>
      <trkpt lat="49.055975" lon="9.621833">
        <ele>398.999460</ele>
        <time>2022-07-23T09:29:04.999Z</time>
      </trkpt>
      <trkpt lat="49.055884" lon="9.621995">
        <ele>397.782237</ele>
        <time>2022-07-23T09:29:06.999Z</time>
      </trkpt>
      <trkpt lat="49.055794" lon="9.622148">
        <ele>396.881381</ele>
        <time>2022-07-23T09:29:08.999Z</time>
      </trkpt>
      <trkpt lat="49.055704" lon="9.622302">
        <ele>396.006386</ele>
        <time>2022-07-23T09:29:10.999Z</time>
      </trkpt>
      <trkpt lat="49.055617" lon="9.622455">
        <ele>395.147396</ele>
        <time>2022-07-23T09:29:12.999Z</time>
      </trkpt>
      <trkpt lat="49.055536" lon="9.622604">
        <ele>394.326460</ele>
        <time>2022-07-23T09:29:14.999Z</time>
      </trkpt>
      <trkpt lat="49.055451" lon="9.622751">
        <ele>393.495139</ele>
        <time>2022-07-23T09:29:16.999Z</time>
      </trkpt>
      <trkpt lat="49.055368" lon="9.622895">
        <ele>392.681918</ele>
        <time>2022-07-23T09:29:18.999Z</time>
      </trkpt>
      <trkpt lat="49.055284" lon="9.623044">
        <ele>391.848451</ele>
        <time>2022-07-23T09:29:20.999Z</time>
      </trkpt>
      <trkpt lat="49.055185" lon="9.623207">
        <ele>390.906033</ele>
        <time>2022-07-23T09:29:22.999Z</time>
      </trkpt>
      <trkpt lat="49.055099" lon="9.623359">
        <ele>390.054479</ele>
        <time>2022-07-23T09:29:24.999Z</time>
      </trkpt>
      <trkpt lat="49.055018" lon="9.623496">
        <ele>389.272029</ele>
        <time>2022-07-23T09:29:26.999Z</time>
      </trkpt>
      <trkpt lat="49.054935" lon="9.623636">
        <ele>388.471462</ele>
        <time>2022-07-23T09:29:28.999Z</time>
      </trkpt>
      <trkpt lat="49.054856" lon="9.623774">
        <ele>387.694430</ele>
        <time>2022-07-23T09:29:30.999Z</time>
      </trkpt>
      <trkpt lat="49.054775" lon="9.623914">
        <ele>386.902486</ele>
        <time>2022-07-23T09:29:32.999Z</time>
      </trkpt>
      <trkpt lat="49.054692" lon="9.624055">
        <ele>386.098767</ele>
        <time>2022-07-23T09:29:34.999Z</time>
      </trkpt>
      <trkpt lat="49.054609" lon="9.624199">
        <ele>385.834236</ele>
        <time>2022-07-23T09:29:36.999Z</time>
      </trkpt>
      <trkpt lat="49.054526" lon="9.624340">
        <ele>385.622531</ele>
        <time>2022-07-23T09:29:39.000Z</time>
      </trkpt>
      <trkpt lat="49.054443" lon="9.624488">
        <ele>385.404946</ele>
        <time>2022-07-23T09:29:41.000Z</time>
      </trkpt>
      <trkpt lat="49.054354" lon="9.624629">
        <ele>385.186274</ele>
        <time>2022-07-23T09:29:43.000Z</time>
      </trkpt>
      <trkpt lat="49.054269" lon="9.624778">
        <ele>384.965615</ele>
        <time>2022-07-23T09:29:45.000Z</time>
      </trkpt>
      <trkpt lat="49.054185" lon="9.624924">
        <ele>384.748601</ele>
        <time>2022-07-23T09:29:47.000Z</time>
      </trkpt>
      <trkpt lat="49.054101" lon="9.625063">
        <ele>384.537400</ele>
        <time>2022-07-23T09:29:49.000Z</time>
      </trkpt>
      <trkpt lat="49.054019" lon="9.625206">
        <ele>384.325153</ele>
        <time>2022-07-23T09:29:51.000Z</time>
      </trkpt>
      <trkpt lat="49.053937" lon="9.625348">
        <ele>384.113744</ele>
        <time>2022-07-23T09:29:53.000Z</time>
      </trkpt>
      <trkpt lat="49.053856" lon="9.625489">
        <ele>383.904300</ele>
        <time>2022-07-23T09:29:55.000Z</time>
      </trkpt>
      <trkpt lat="49.053774" lon="9.625628">
        <ele>383.695394</ele>
        <time>2022-07-23T09:29:57.000Z</time>
      </trkpt>
      <trkpt lat="49.053697" lon="9.625763">
        <ele>383.495482</ele>
        <time>2022-07-23T09:29:59.000Z</time>
      </trkpt>
      <trkpt lat="49.053617" lon="9.625892">
        <ele>383.297097</ele>
        <time>2022-07-23T09:30:01.000Z</time>
      </trkpt>
      <trkpt lat="49.053545" lon="9.626028">
        <ele>383.101806</ele>
        <time>2022-07-23T09:30:03.000Z</time>
      </trkpt>
      <trkpt lat="49.053468" lon="9.626159">
        <ele>383.042024</ele>
        <time>2022-07-23T09:30:05.000Z</time>
      </trkpt>
      <trkpt lat="49.053386" lon="9.626291">
        <ele>383.305943</ele>
        <time>2022-07-23T09:30:07.000Z</time>
      </trkpt>
      <trkpt lat="49.053308" lon="9.626430">
        <ele>383.571481</ele>
        <time>2022-07-23T09:30:08.999Z</time>
      </trkpt>
      <trkpt lat="49.053227" lon="9.626576">
        <ele>383.849059</ele>
        <time>2022-07-23T09:30:10.999Z</time>
      </trkpt>
      <trkpt lat="49.053145" lon="9.626724">
        <ele>384.130283</ele>
        <time>2022-07-23T09:30:12.999Z</time>
      </trkpt>
      <trkpt lat="49.053061" lon="9.626869">
        <ele>384.411110</ele>
        <time>2022-07-23T09:30:14.999Z</time>
      </trkpt>
      <trkpt lat="49.052976" lon="9.627013">
        <ele>384.692329</ele>
        <time>2022-07-23T09:30:16.999Z</time>
      </trkpt>
      <trkpt lat="49.052892" lon="9.627161">
        <ele>384.976433</ele>
        <time>2022-07-23T09:30:18.999Z</time>
      </trkpt>
      <trkpt lat="49.052811" lon="9.627296">
        <ele>385.242030</ele>
        <time>2022-07-23T09:30:20.999Z</time>
      </trkpt>
      <trkpt lat="49.052728" lon="9.627442">
        <ele>385.522491</ele>
        <time>2022-07-23T09:30:22.999Z</time>
      </trkpt>
      <trkpt lat="49.052640" lon="9.627580">
        <ele>385.801894</ele>
        <time>2022-07-23T09:30:24.999Z</time>
      </trkpt>
      <trkpt lat="49.052543" lon="9.627709">
        <ele>386.086797</ele>
        <time>2022-07-23T09:30:26.999Z</time>
      </trkpt>
      <trkpt lat="49.052436" lon="9.627817">
        <ele>386.370858</ele>
        <time>2022-07-23T09:30:28.999Z</time>
      </trkpt>
      <trkpt lat="49.052318" lon="9.627907">
        <ele>386.662954</ele>
        <time>2022-07-23T09:30:30.999Z</time>
      </trkpt>
      <trkpt lat="49.052195" lon="9.627983">
        <ele>386.942200</ele>
        <time>2022-07-23T09:30:32.999Z</time>
      </trkpt>
      <trkpt lat="49.052066" lon="9.628042">
        <ele>386.783786</ele>
        <time>2022-07-23T09:30:34.999Z</time>
      </trkpt>
      <trkpt lat="49.051932" lon="9.628089">
        <ele>386.622050</ele>
        <time>2022-07-23T09:30:36.999Z</time>
      </trkpt>
      <trkpt lat="49.051796" lon="9.628129">
        <ele>386.459127</ele>
        <time>2022-07-23T09:30:38.999Z</time>
      </trkpt>
      <trkpt lat="49.051663" lon="9.628162">
        <ele>386.300623</ele>
        <time>2022-07-23T09:30:40.999Z</time>
      </trkpt>
      <trkpt lat="49.051534" lon="9.628198">
        <ele>386.146362</ele>
        <time>2022-07-23T09:30:42.999Z</time>
      </trkpt>
      <trkpt lat="49.051409" lon="9.628228">
        <ele>385.997516</ele>
        <time>2022-07-23T09:30:44.999Z</time>
      </trkpt>
      <trkpt lat="49.051292" lon="9.628260">
        <ele>385.857694</ele>
        <time>2022-07-23T09:30:46.999Z</time>
      </trkpt>
      <trkpt lat="49.051174" lon="9.628290">
        <ele>385.716976</ele>
        <time>2022-07-23T09:30:48.999Z</time>
      </trkpt>
      <trkpt lat="49.051053" lon="9.628321">
        <ele>385.572650</ele>
        <time>2022-07-23T09:30:50.999Z</time>
      </trkpt>
      <trkpt lat="49.050927" lon="9.628358">
        <ele>385.421715</ele>
        <time>2022-07-23T09:30:52.999Z</time>
      </trkpt>
      <trkpt lat="49.050801" lon="9.628386">
        <ele>385.271936</ele>
        <time>2022-07-23T09:30:54.999Z</time>
      </trkpt>
      <trkpt lat="49.050674" lon="9.628408">
        <ele>385.121586</ele>
        <time>2022-07-23T09:30:56.999Z</time>
      </trkpt>
      <trkpt lat="49.050545" lon="9.628424">
        <ele>384.969341</ele>
        <time>2022-07-23T09:30:58.999Z</time>
      </trkpt>
      <trkpt lat="49.050416" lon="9.628429">
        <ele>384.819945</ele>
        <time>2022-07-23T09:31:00.999Z</time>
      </trkpt>
      <trkpt lat="49.050291" lon="9.628409">
        <ele>384.697496</ele>
        <time>2022-07-23T09:31:02.999Z</time>
      </trkpt>
      <trkpt lat="49.050164" lon="9.628380">
        <ele>384.572389</ele>
        <time>2022-07-23T09:31:04.999Z</time>
      </trkpt>
      <trkpt lat="49.050041" lon="9.628335">
        <ele>384.449159</ele>
        <time>2022-07-23T09:31:06.999Z</time>
      </trkpt>
      <trkpt lat="49.049912" lon="9.628293">
        <ele>384.320652</ele>
        <time>2022-07-23T09:31:08.999Z</time>
      </trkpt>
      <trkpt lat="49.049788" lon="9.628245">
        <ele>384.196018</ele>
        <time>2022-07-23T09:31:10.999Z</time>
      </trkpt>
      <trkpt lat="49.049667" lon="9.628192">
        <ele>384.073373</ele>
        <time>2022-07-23T09:31:12.999Z</time>
      </trkpt>
      <trkpt lat="49.049543" lon="9.628142">
        <ele>383.948418</ele>
        <time>2022-07-23T09:31:14.999Z</time>
      </trkpt>
      <trkpt lat="49.049420" lon="9.628099">
        <ele>383.825481</ele>
        <time>2022-07-23T09:31:16.999Z</time>
      </trkpt>
      <trkpt lat="49.049296" lon="9.628044">
        <ele>383.699673</ele>
        <time>2022-07-23T09:31:18.999Z</time>
      </trkpt>
      <trkpt lat="49.049163" lon="9.627992">
        <ele>383.565911</ele>
        <time>2022-07-23T09:31:20.999Z</time>
      </trkpt>
      <trkpt lat="49.049029" lon="9.627943">
        <ele>383.431665</ele>
        <time>2022-07-23T09:31:22.999Z</time>
      </trkpt>
      <trkpt lat="49.048894" lon="9.627890">
        <ele>383.295857</ele>
        <time>2022-07-23T09:31:24.999Z</time>
      </trkpt>
      <trkpt lat="49.048762" lon="9.627836">
        <ele>383.162714</ele>
        <time>2022-07-23T09:31:26.999Z</time>
      </trkpt>
      <trkpt lat="49.048628" lon="9.627780">
        <ele>383.044351</ele>
        <time>2022-07-23T09:31:28.999Z</time>
      </trkpt>
      <trkpt lat="49.048491" lon="9.627726">
        <ele>382.951708</ele>
        <time>2022-07-23T09:31:30.999Z</time>
      </trkpt>
      <trkpt lat="49.048358" lon="9.627674">
        <ele>382.861816</ele>
        <time>2022-07-23T09:31:32.999Z</time>
      </trkpt>
      <trkpt lat="49.048223" lon="9.627619">
        <ele>382.770331</ele>
        <time>2022-07-23T09:31:34.999Z</time>
      </trkpt>
      <trkpt lat="49.048088" lon="9.627566">
        <ele>382.679063</ele>
        <time>2022-07-23T09:31:36.999Z</time>
      </trkpt>
      <trkpt lat="49.047952" lon="9.627509">
        <ele>382.586722</ele>
        <time>2022-07-23T09:31:38.999Z</time>
      </trkpt>
      <trkpt lat="49.047820" lon="9.627455">
        <ele>382.497245</ele>
        <time>2022-07-23T09:31:40.999Z</time>
      </trkpt>
      <trkpt lat="49.047691" lon="9.627404">
        <ele>382.409996</ele>
        <time>2022-07-23T09:31:42.999Z</time>
      </trkpt>
      <trkpt lat="49.047565" lon="9.627354">
        <ele>382.324755</ele>
        <time>2022-07-23T09:31:44.999Z</time>
      </trkpt>
      <trkpt lat="49.047437" lon="9.627305">
        <ele>382.238352</ele>
        <time>2022-07-23T09:31:46.999Z</time>
      </trkpt>
      <trkpt lat="49.047306" lon="9.627251">
        <ele>382.149508</ele>
        <time>2022-07-23T09:31:48.999Z</time>
      </trkpt>
      <trkpt lat="49.047172" lon="9.627200">
        <ele>382.059086</ele>
        <time>2022-07-23T09:31:50.999Z</time>
      </trkpt>
      <trkpt lat="49.047038" lon="9.627149">
        <ele>381.968664</ele>
        <time>2022-07-23T09:31:52.999Z</time>
      </trkpt>
      <trkpt lat="49.046904" lon="9.627095">
        <ele>381.886098</ele>
        <time>2022-07-23T09:31:54.999Z</time>
      </trkpt>
      <trkpt lat="49.046771" lon="9.627039">
        <ele>381.827023</ele>
        <time>2022-07-23T09:31:56.999Z</time>
      </trkpt>
      <trkpt lat="49.046635" lon="9.626982">
        <ele>381.766635</ele>
        <time>2022-07-23T09:31:58.999Z</time>
      </trkpt>
      <trkpt lat="49.046502" lon="9.626932">
        <ele>381.707985</ele>
        <time>2022-07-23T09:32:00.999Z</time>
      </trkpt>
      <trkpt lat="49.046368" lon="9.626879">
        <ele>381.648713</ele>
        <time>2022-07-23T09:32:02.999Z</time>
      </trkpt>
      <trkpt lat="49.046239" lon="9.626826">
        <ele>381.591511</ele>
        <time>2022-07-23T09:32:04.999Z</time>
      </trkpt>
      <trkpt lat="49.046112" lon="9.626770">
        <ele>381.534908</ele>
        <time>2022-07-23T09:32:06.999Z</time>
      </trkpt>
      <trkpt lat="49.045984" lon="9.626721">
        <ele>381.478403</ele>
        <time>2022-07-23T09:32:08.999Z</time>
      </trkpt>
      <trkpt lat="49.045855" lon="9.626681">
        <ele>381.422040</ele>
        <time>2022-07-23T09:32:10.999Z</time>
      </trkpt>
      <trkpt lat="49.045726" lon="9.626656">
        <ele>381.366362</ele>
        <time>2022-07-23T09:32:12.999Z</time>
      </trkpt>
      <trkpt lat="49.045594" lon="9.626640">
        <ele>381.309666</ele>
        <time>2022-07-23T09:32:14.999Z</time>
      </trkpt>
      <trkpt lat="49.045458" lon="9.626642">
        <ele>381.251432</ele>
        <time>2022-07-23T09:32:16.999Z</time>
      </trkpt>
      <trkpt lat="49.045322" lon="9.626651">
        <ele>381.193146</ele>
        <time>2022-07-23T09:32:18.999Z</time>
      </trkpt>
      <trkpt lat="49.045186" lon="9.626667">
        <ele>381.134742</ele>
        <time>2022-07-23T09:32:20.999Z</time>
      </trkpt>
      <trkpt lat="49.045048" lon="9.626688">
        <ele>381.026951</ele>
        <time>2022-07-23T09:32:22.999Z</time>
      </trkpt>
      <trkpt lat="49.044915" lon="9.626714">
        <ele>380.919966</ele>
        <time>2022-07-23T09:32:24.999Z</time>
      </trkpt>
      <trkpt lat="49.044784" lon="9.626738">
        <ele>380.814693</ele>
        <time>2022-07-23T09:32:26.999Z</time>
      </trkpt>
      <trkpt lat="49.044662" lon="9.626767">
        <ele>380.716177</ele>
        <time>2022-07-23T09:32:28.999Z</time>
      </trkpt>
      <trkpt lat="49.044537" lon="9.626786">
        <ele>380.615949</ele>
        <time>2022-07-23T09:32:30.999Z</time>
      </trkpt>
      <trkpt lat="49.044406" lon="9.626816">
        <ele>380.510256</ele>
        <time>2022-07-23T09:32:32.999Z</time>
      </trkpt>
      <trkpt lat="49.044281" lon="9.626841">
        <ele>380.409668</ele>
        <time>2022-07-23T09:32:34.999Z</time>
      </trkpt>
      <trkpt lat="49.044155" lon="9.626871">
        <ele>380.307919</ele>
        <time>2022-07-23T09:32:36.999Z</time>
      </trkpt>
      <trkpt lat="49.044035" lon="9.626899">
        <ele>380.211060</ele>
        <time>2022-07-23T09:32:38.999Z</time>
      </trkpt>
      <trkpt lat="49.043915" lon="9.626914">
        <ele>380.114994</ele>
        <time>2022-07-23T09:32:40.999Z</time>
      </trkpt>
      <trkpt lat="49.043788" lon="9.626952">
        <ele>380.011733</ele>
        <time>2022-07-23T09:32:42.999Z</time>
      </trkpt>
      <trkpt lat="49.043656" lon="9.626993">
        <ele>379.904253</ele>
        <time>2022-07-23T09:32:44.999Z</time>
      </trkpt>
      <trkpt lat="49.043523" lon="9.627045">
        <ele>379.794706</ele>
        <time>2022-07-23T09:32:46.999Z</time>
      </trkpt>
      <trkpt lat="49.043391" lon="9.627107">
        <ele>379.646952</ele>
        <time>2022-07-23T09:32:48.999Z</time>
      </trkpt>
      <trkpt lat="49.043266" lon="9.627186">
        <ele>379.196112</ele>
        <time>2022-07-23T09:32:50.999Z</time>
      </trkpt>
      <trkpt lat="49.043149" lon="9.627277">
        <ele>378.758512</ele>
        <time>2022-07-23T09:32:52.999Z</time>
      </trkpt>
      <trkpt lat="49.043038" lon="9.627382">
        <ele>378.323316</ele>
        <time>2022-07-23T09:32:54.999Z</time>
      </trkpt>
      <trkpt lat="49.042923" lon="9.627491">
        <ele>377.872188</ele>
        <time>2022-07-23T09:32:56.999Z</time>
      </trkpt>
      <trkpt lat="49.042816" lon="9.627619">
        <ele>377.419110</ele>
        <time>2022-07-23T09:32:58.999Z</time>
      </trkpt>
      <trkpt lat="49.042721" lon="9.627753">
        <ele>376.987988</ele>
        <time>2022-07-23T09:33:00.999Z</time>
      </trkpt>
      <trkpt lat="49.042636" lon="9.627900">
        <ele>376.559842</ele>
        <time>2022-07-23T09:33:02.999Z</time>
      </trkpt>
      <trkpt lat="49.042550" lon="9.628048">
        <ele>376.127853</ele>
        <time>2022-07-23T09:33:04.999Z</time>
      </trkpt>
      <trkpt lat="49.042468" lon="9.628193">
        <ele>375.709570</ele>
        <time>2022-07-23T09:33:06.999Z</time>
      </trkpt>
      <trkpt lat="49.042384" lon="9.628342">
        <ele>375.280318</ele>
        <time>2022-07-23T09:33:08.999Z</time>
      </trkpt>
      <trkpt lat="49.042302" lon="9.628504">
        <ele>374.833261</ele>
        <time>2022-07-23T09:33:10.999Z</time>
      </trkpt>
      <trkpt lat="49.042220" lon="9.628665">
        <ele>374.387931</ele>
        <time>2022-07-23T09:33:12.999Z</time>
      </trkpt>
      <trkpt lat="49.042140" lon="9.628827">
        <ele>373.944915</ele>
        <time>2022-07-23T09:33:14.999Z</time>
      </trkpt>
      <trkpt lat="49.042062" lon="9.628988">
        <ele>373.705937</ele>
        <time>2022-07-23T09:33:16.999Z</time>
      </trkpt>
      <trkpt lat="49.041991" lon="9.629159">
        <ele>373.712466</ele>
        <time>2022-07-23T09:33:18.999Z</time>
      </trkpt>
      <trkpt lat="49.041931" lon="9.629341">
        <ele>373.719036</ele>
        <time>2022-07-23T09:33:20.999Z</time>
      </trkpt>
      <trkpt lat="49.041881" lon="9.629529">
        <ele>373.725580</ele>
        <time>2022-07-23T09:33:22.999Z</time>
      </trkpt>
      <trkpt lat="49.041835" lon="9.629720">
        <ele>373.732143</ele>
        <time>2022-07-23T09:33:24.999Z</time>
      </trkpt>
      <trkpt lat="49.041791" lon="9.629910">
        <ele>373.738642</ele>
        <time>2022-07-23T09:33:26.999Z</time>
      </trkpt>
      <trkpt lat="49.041746" lon="9.630104">
        <ele>373.745279</ele>
        <time>2022-07-23T09:33:28.999Z</time>
      </trkpt>
      <trkpt lat="49.041702" lon="9.630297">
        <ele>373.751870</ele>
        <time>2022-07-23T09:33:30.999Z</time>
      </trkpt>
      <trkpt lat="49.041664" lon="9.630492">
        <ele>373.758431</ele>
        <time>2022-07-23T09:33:32.999Z</time>
      </trkpt>
      <trkpt lat="49.041621" lon="9.630688">
        <ele>373.765097</ele>
        <time>2022-07-23T09:33:34.999Z</time>
      </trkpt>
      <trkpt lat="49.041592" lon="9.630886">
        <ele>373.771641</ele>
        <time>2022-07-23T09:33:36.999Z</time>
      </trkpt>
      <trkpt lat="49.041568" lon="9.631093">
        <ele>373.778421</ele>
        <time>2022-07-23T09:33:38.999Z</time>
      </trkpt>
      <trkpt lat="49.041540" lon="9.631299">
        <ele>373.785206</ele>
        <time>2022-07-23T09:33:40.999Z</time>
      </trkpt>
      <trkpt lat="49.041506" lon="9.631502">
        <ele>373.795816</ele>
        <time>2022-07-23T09:33:42.999Z</time>
      </trkpt>
      <trkpt lat="49.041443" lon="9.631687">
        <ele>373.865084</ele>
        <time>2022-07-23T09:33:44.999Z</time>
      </trkpt>
      <trkpt lat="49.041351" lon="9.631843">
        <ele>373.934806</ele>
        <time>2022-07-23T09:33:46.999Z</time>
      </trkpt>
      <trkpt lat="49.041241" lon="9.631999">
        <ele>374.010933</ele>
        <time>2022-07-23T09:33:48.999Z</time>
      </trkpt>
      <trkpt lat="49.041113" lon="9.632130">
        <ele>374.089061</ele>
        <time>2022-07-23T09:33:50.999Z</time>
      </trkpt>
      <trkpt lat="49.040991" lon="9.632266">
        <ele>374.165650</ele>
        <time>2022-07-23T09:33:52.999Z</time>
      </trkpt>
      <trkpt lat="49.040860" lon="9.632381">
        <ele>374.242259</ele>
        <time>2022-07-23T09:33:54.999Z</time>
      </trkpt>
      <trkpt lat="49.040733" lon="9.632505">
        <ele>374.318688</ele>
        <time>2022-07-23T09:33:56.999Z</time>
      </trkpt>
      <trkpt lat="49.040607" lon="9.632630">
        <ele>374.394871</ele>
        <time>2022-07-23T09:33:58.999Z</time>
      </trkpt>
      <trkpt lat="49.040477" lon="9.632754">
        <ele>374.472585</ele>
        <time>2022-07-23T09:34:00.999Z</time>
      </trkpt>
      <trkpt lat="49.040352" lon="9.632882">
        <ele>374.548894</ele>
        <time>2022-07-23T09:34:02.999Z</time>
      </trkpt>
      <trkpt lat="49.040226" lon="9.633013">
        <ele>374.626182</ele>
        <time>2022-07-23T09:34:04.999Z</time>
      </trkpt>
      <trkpt lat="49.040099" lon="9.633138">
        <ele>374.702791</ele>
        <time>2022-07-23T09:34:06.999Z</time>
      </trkpt>
      <trkpt lat="49.039974" lon="9.633266">
        <ele>374.706640</ele>
        <time>2022-07-23T09:34:08.999Z</time>
      </trkpt>
      <trkpt lat="49.039851" lon="9.633396">
        <ele>374.710049</ele>
        <time>2022-07-23T09:34:10.999Z</time>
      </trkpt>
      <trkpt lat="49.039736" lon="9.633522">
        <ele>374.713274</ele>
        <time>2022-07-23T09:34:12.999Z</time>
      </trkpt>
      <trkpt lat="49.039621" lon="9.633649">
        <ele>374.716509</ele>
        <time>2022-07-23T09:34:14.999Z</time>
      </trkpt>
      <trkpt lat="49.039507" lon="9.633774">
        <ele>374.719707</ele>
        <time>2022-07-23T09:34:16.999Z</time>
      </trkpt>
      <trkpt lat="49.039394" lon="9.633903">
        <ele>374.722923</ele>
        <time>2022-07-23T09:34:18.999Z</time>
      </trkpt>
      <trkpt lat="49.039283" lon="9.634035">
        <ele>374.726129</ele>
        <time>2022-07-23T09:34:20.999Z</time>
      </trkpt>
      <trkpt lat="49.039173" lon="9.634165">
        <ele>374.729299</ele>
        <time>2022-07-23T09:34:22.999Z</time>
      </trkpt>
      <trkpt lat="49.039063" lon="9.634291">
        <ele>374.732433</ele>
        <time>2022-07-23T09:34:24.999Z</time>
      </trkpt>
      <trkpt lat="49.038956" lon="9.634413">
        <ele>374.735477</ele>
        <time>2022-07-23T09:34:26.999Z</time>
      </trkpt>
      <trkpt lat="49.038849" lon="9.634534">
        <ele>374.738511</ele>
        <time>2022-07-23T09:34:28.999Z</time>
      </trkpt>
      <trkpt lat="49.038745" lon="9.634656">
        <ele>374.741500</ele>
        <time>2022-07-23T09:34:30.999Z</time>
      </trkpt>
      <trkpt lat="49.038643" lon="9.634781">
        <ele>374.737028</ele>
        <time>2022-07-23T09:34:32.999Z</time>
      </trkpt>
      <trkpt lat="49.038535" lon="9.634912">
        <ele>374.654754</ele>
        <time>2022-07-23T09:34:34.999Z</time>
      </trkpt>
      <trkpt lat="49.038425" lon="9.635046">
        <ele>374.570818</ele>
        <time>2022-07-23T09:34:36.999Z</time>
      </trkpt>
      <trkpt lat="49.038320" lon="9.635175">
        <ele>374.490429</ele>
        <time>2022-07-23T09:34:38.999Z</time>
      </trkpt>
      <trkpt lat="49.038214" lon="9.635298">
        <ele>374.411017</ele>
        <time>2022-07-23T09:34:40.999Z</time>
      </trkpt>
      <trkpt lat="49.038110" lon="9.635424">
        <ele>374.331827</ele>
        <time>2022-07-23T09:34:42.999Z</time>
      </trkpt>
      <trkpt lat="49.038003" lon="9.635546">
        <ele>374.252174</ele>
        <time>2022-07-23T09:34:44.999Z</time>
      </trkpt>
      <trkpt lat="49.037896" lon="9.635669">
        <ele>374.172286</ele>
        <time>2022-07-23T09:34:46.999Z</time>
      </trkpt>
      <trkpt lat="49.037792" lon="9.635798">
        <ele>374.092361</ele>
        <time>2022-07-23T09:34:48.999Z</time>
      </trkpt>
      <trkpt lat="49.037685" lon="9.635925">
        <ele>374.011523</ele>
        <time>2022-07-23T09:34:50.999Z</time>
      </trkpt>
      <trkpt lat="49.037574" lon="9.636046">
        <ele>373.930174</ele>
        <time>2022-07-23T09:34:52.999Z</time>
      </trkpt>
      <trkpt lat="49.037464" lon="9.636172">
        <ele>373.848152</ele>
        <time>2022-07-23T09:34:54.999Z</time>
      </trkpt>
      <trkpt lat="49.037345" lon="9.636281">
        <ele>373.765387</ele>
        <time>2022-07-23T09:34:56.999Z</time>
      </trkpt>
      <trkpt lat="49.037212" lon="9.636332">
        <ele>373.683617</ele>
        <time>2022-07-23T09:34:58.999Z</time>
      </trkpt>
      <trkpt lat="49.037087" lon="9.636356">
        <ele>373.813973</ele>
        <time>2022-07-23T09:35:00.999Z</time>
      </trkpt>
      <trkpt lat="49.036977" lon="9.636353">
        <ele>373.961496</ele>
        <time>2022-07-23T09:35:02.999Z</time>
      </trkpt>
      <trkpt lat="49.036878" lon="9.636352">
        <ele>374.094248</ele>
        <time>2022-07-23T09:35:04.999Z</time>
      </trkpt>
      <trkpt lat="49.036778" lon="9.636279">
        <ele>374.242903</ele>
        <time>2022-07-23T09:35:07.999Z</time>
      </trkpt>
      <trkpt lat="49.036767" lon="9.636139">
        <ele>374.366853</ele>
        <time>2022-07-23T09:35:16.999Z</time>
      </trkpt>
      <trkpt lat="49.036746" lon="9.635963">
        <ele>374.524110</ele>
        <time>2022-07-23T09:35:22.999Z</time>
      </trkpt>
      <trkpt lat="49.036722" lon="9.635798">
        <ele>374.672683</ele>
        <time>2022-07-23T09:35:25.999Z</time>
      </trkpt>
      <trkpt lat="49.036689" lon="9.635655">
        <ele>374.805950</ele>
        <time>2022-07-23T09:35:27.999Z</time>
      </trkpt>
      <trkpt lat="49.036651" lon="9.635513">
        <ele>374.940776</ele>
        <time>2022-07-23T09:35:29.999Z</time>
      </trkpt>
      <trkpt lat="49.036615" lon="9.635368">
        <ele>375.077076</ele>
        <time>2022-07-23T09:35:31.999Z</time>
      </trkpt>
      <trkpt lat="49.036577" lon="9.635216">
        <ele>375.220080</ele>
        <time>2022-07-23T09:35:33.999Z</time>
      </trkpt>
      <trkpt lat="49.036537" lon="9.635068">
        <ele>375.360804</ele>
        <time>2022-07-23T09:35:35.999Z</time>
      </trkpt>
      <trkpt lat="49.036500" lon="9.634921">
        <ele>375.499224</ele>
        <time>2022-07-23T09:35:37.999Z</time>
      </trkpt>
      <trkpt lat="49.036457" lon="9.634766">
        <ele>375.647177</ele>
        <time>2022-07-23T09:35:39.999Z</time>
      </trkpt>
      <trkpt lat="49.036411" lon="9.634606">
        <ele>375.800759</ele>
        <time>2022-07-23T09:35:41.999Z</time>
      </trkpt>
      <trkpt lat="49.036368" lon="9.634434">
        <ele>375.962580</ele>
        <time>2022-07-23T09:35:43.999Z</time>
      </trkpt>
      <trkpt lat="49.036326" lon="9.634265">
        <ele>376.134079</ele>
        <time>2022-07-23T09:35:45.999Z</time>
      </trkpt>
      <trkpt lat="49.036283" lon="9.634094">
        <ele>376.348679</ele>
        <time>2022-07-23T09:35:47.999Z</time>
      </trkpt>
      <trkpt lat="49.036234" lon="9.633917">
        <ele>376.573809</ele>
        <time>2022-07-23T09:35:49.999Z</time>
      </trkpt>
      <trkpt lat="49.036194" lon="9.633749">
        <ele>376.783240</ele>
        <time>2022-07-23T09:35:51.999Z</time>
      </trkpt>
      <trkpt lat="49.036146" lon="9.633582">
        <ele>376.996900</ele>
        <time>2022-07-23T09:35:53.999Z</time>
      </trkpt>
      <trkpt lat="49.036100" lon="9.633418">
        <ele>377.205914</ele>
        <time>2022-07-23T09:35:55.999Z</time>
      </trkpt>
      <trkpt lat="49.036056" lon="9.633248">
        <ele>377.420071</ele>
        <time>2022-07-23T09:35:57.999Z</time>
      </trkpt>
      <trkpt lat="49.036009" lon="9.633074">
        <ele>377.640581</ele>
        <time>2022-07-23T09:35:59.999Z</time>
      </trkpt>
      <trkpt lat="49.035970" lon="9.632900">
        <ele>377.856050</ele>
        <time>2022-07-23T09:36:01.999Z</time>
      </trkpt>
      <trkpt lat="49.035929" lon="9.632722">
        <ele>378.077118</ele>
        <time>2022-07-23T09:36:03.999Z</time>
      </trkpt>
      <trkpt lat="49.035906" lon="9.632535">
        <ele>378.300056</ele>
        <time>2022-07-23T09:36:05.999Z</time>
      </trkpt>
      <trkpt lat="49.035889" lon="9.632347">
        <ele>378.522429</ele>
        <time>2022-07-23T09:36:07.999Z</time>
      </trkpt>
      <trkpt lat="49.035869" lon="9.632179">
        <ele>378.722501</ele>
        <time>2022-07-23T09:36:09.999Z</time>
      </trkpt>
      <trkpt lat="49.035840" lon="9.631997">
        <ele>378.941966</ele>
        <time>2022-07-23T09:36:11.999Z</time>
      </trkpt>
      <trkpt lat="49.035809" lon="9.631812">
        <ele>379.165707</ele>
        <time>2022-07-23T09:36:13.999Z</time>
      </trkpt>
      <trkpt lat="49.035764" lon="9.631641">
        <ele>379.348358</ele>
        <time>2022-07-23T09:36:15.999Z</time>
      </trkpt>
      <trkpt lat="49.035697" lon="9.631487">
        <ele>379.478481</ele>
        <time>2022-07-23T09:36:17.999Z</time>
      </trkpt>
      <trkpt lat="49.035634" lon="9.631326">
        <ele>379.610485</ele>
        <time>2022-07-23T09:36:19.999Z</time>
      </trkpt>
      <trkpt lat="49.035580" lon="9.631174">
        <ele>379.732200</ele>
        <time>2022-07-23T09:36:21.999Z</time>
      </trkpt>
      <trkpt lat="49.035543" lon="9.630992">
        <ele>379.866353</ele>
        <time>2022-07-23T09:36:23.999Z</time>
      </trkpt>
      <trkpt lat="49.035527" lon="9.630808">
        <ele>379.997029</ele>
        <time>2022-07-23T09:36:25.999Z</time>
      </trkpt>
      <trkpt lat="49.035513" lon="9.630629">
        <ele>380.123945</ele>
        <time>2022-07-23T09:36:27.999Z</time>
      </trkpt>
      <trkpt lat="49.035494" lon="9.630456">
        <ele>380.247439</ele>
        <time>2022-07-23T09:36:29.999Z</time>
      </trkpt>
      <trkpt lat="49.035477" lon="9.630276">
        <ele>380.375473</ele>
        <time>2022-07-23T09:36:31.999Z</time>
      </trkpt>
      <trkpt lat="49.035461" lon="9.630094">
        <ele>380.504754</ele>
        <time>2022-07-23T09:36:33.999Z</time>
      </trkpt>
      <trkpt lat="49.035446" lon="9.629915">
        <ele>380.631801</ele>
        <time>2022-07-23T09:36:35.999Z</time>
      </trkpt>
      <trkpt lat="49.035423" lon="9.629739">
        <ele>380.758149</ele>
        <time>2022-07-23T09:36:37.999Z</time>
      </trkpt>
      <trkpt lat="49.035398" lon="9.629566">
        <ele>380.882870</ele>
        <time>2022-07-23T09:36:39.999Z</time>
      </trkpt>
      <trkpt lat="49.035376" lon="9.629383">
        <ele>381.013857</ele>
        <time>2022-07-23T09:36:41.999Z</time>
      </trkpt>
      <trkpt lat="49.035358" lon="9.629206">
        <ele>381.139961</ele>
        <time>2022-07-23T09:36:43.999Z</time>
      </trkpt>
      <trkpt lat="49.035328" lon="9.629022">
        <ele>381.336342</ele>
        <time>2022-07-23T09:36:45.999Z</time>
      </trkpt>
      <trkpt lat="49.035312" lon="9.628836">
        <ele>381.658890</ele>
        <time>2022-07-23T09:36:47.999Z</time>
      </trkpt>
      <trkpt lat="49.035301" lon="9.628649">
        <ele>381.981707</ele>
        <time>2022-07-23T09:36:49.999Z</time>
      </trkpt>
      <trkpt lat="49.035297" lon="9.628464">
        <ele>382.299968</ele>
        <time>2022-07-23T09:36:51.999Z</time>
      </trkpt>
      <trkpt lat="49.035294" lon="9.628275">
        <ele>382.625028</ele>
        <time>2022-07-23T09:36:53.999Z</time>
      </trkpt>
      <trkpt lat="49.035294" lon="9.628089">
        <ele>382.944835</ele>
        <time>2022-07-23T09:36:55.999Z</time>
      </trkpt>
      <trkpt lat="49.035294" lon="9.627902">
        <ele>383.266361</ele>
        <time>2022-07-23T09:36:57.999Z</time>
      </trkpt>
      <trkpt lat="49.035286" lon="9.627699">
        <ele>383.616027</ele>
        <time>2022-07-23T09:36:59.999Z</time>
      </trkpt>
      <trkpt lat="49.035281" lon="9.627492">
        <ele>383.972183</ele>
        <time>2022-07-23T09:37:01.999Z</time>
      </trkpt>
      <trkpt lat="49.035275" lon="9.627277">
        <ele>384.342186</ele>
        <time>2022-07-23T09:37:03.999Z</time>
      </trkpt>
      <trkpt lat="49.035265" lon="9.627070">
        <ele>384.699066</ele>
        <time>2022-07-23T09:37:05.999Z</time>
      </trkpt>
      <trkpt lat="49.035260" lon="9.626860">
        <ele>385.060376</ele>
        <time>2022-07-23T09:37:07.999Z</time>
      </trkpt>
      <trkpt lat="49.035254" lon="9.626655">
        <ele>385.413202</ele>
        <time>2022-07-23T09:37:09.999Z</time>
      </trkpt>
      <trkpt lat="49.035248" lon="9.626457">
        <ele>385.754006</ele>
        <time>2022-07-23T09:37:11.999Z</time>
      </trkpt>
      <trkpt lat="49.035242" lon="9.626259">
        <ele>386.071113</ele>
        <time>2022-07-23T09:37:13.999Z</time>
      </trkpt>
      <trkpt lat="49.035243" lon="9.626061">
        <ele>386.356967</ele>
        <time>2022-07-23T09:37:15.999Z</time>
      </trkpt>
      <trkpt lat="49.035247" lon="9.625860">
        <ele>386.647277</ele>
        <time>2022-07-23T09:37:17.999Z</time>
      </trkpt>
      <trkpt lat="49.035270" lon="9.625652">
        <ele>386.951801</ele>
        <time>2022-07-23T09:37:19.999Z</time>
      </trkpt>
      <trkpt lat="49.035302" lon="9.625451">
        <ele>387.250410</ele>
        <time>2022-07-23T09:37:21.999Z</time>
      </trkpt>
      <trkpt lat="49.035342" lon="9.625282">
        <ele>387.509803</ele>
        <time>2022-07-23T09:37:23.999Z</time>
      </trkpt>
      <trkpt lat="49.035375" lon="9.625125">
        <ele>387.747822</ele>
        <time>2022-07-23T09:37:25.999Z</time>
      </trkpt>
      <trkpt lat="49.035400" lon="9.624957">
        <ele>387.996526</ele>
        <time>2022-07-23T09:37:27.999Z</time>
      </trkpt>
      <trkpt lat="49.035439" lon="9.624787">
        <ele>388.256541</ele>
        <time>2022-07-23T09:37:29.999Z</time>
      </trkpt>
      <trkpt lat="49.035483" lon="9.624596">
        <ele>388.548807</ele>
        <time>2022-07-23T09:37:31.999Z</time>
      </trkpt>
      <trkpt lat="49.035522" lon="9.624408">
        <ele>388.833478</ele>
        <time>2022-07-23T09:37:33.999Z</time>
      </trkpt>
      <trkpt lat="49.035555" lon="9.624223">
        <ele>389.110264</ele>
        <time>2022-07-23T09:37:35.999Z</time>
      </trkpt>
      <trkpt lat="49.035590" lon="9.624048">
        <ele>389.374398</ele>
        <time>2022-07-23T09:37:37.999Z</time>
      </trkpt>
      <trkpt lat="49.035625" lon="9.623876">
        <ele>389.634393</ele>
        <time>2022-07-23T09:37:39.999Z</time>
      </trkpt>
      <trkpt lat="49.035658" lon="9.623710">
        <ele>389.884815</ele>
        <time>2022-07-23T09:37:41.999Z</time>
      </trkpt>
      <trkpt lat="49.035691" lon="9.623546">
        <ele>390.403113</ele>
        <time>2022-07-23T09:37:43.999Z</time>
      </trkpt>
      <trkpt lat="49.035727" lon="9.623367">
        <ele>390.998982</ele>
        <time>2022-07-23T09:37:45.999Z</time>
      </trkpt>
      <trkpt lat="49.035759" lon="9.623210">
        <ele>391.522223</ele>
        <time>2022-07-23T09:37:47.999Z</time>
      </trkpt>
      <trkpt lat="49.035801" lon="9.623051">
        <ele>392.067769</ele>
        <time>2022-07-23T09:37:49.999Z</time>
      </trkpt>
      <trkpt lat="49.035826" lon="9.622892">
        <ele>392.588134</ele>
        <time>2022-07-23T09:37:51.999Z</time>
      </trkpt>
      <trkpt lat="49.035788" lon="9.622740">
        <ele>393.105851</ele>
        <time>2022-07-23T09:37:53.999Z</time>
      </trkpt>
      <trkpt lat="49.035707" lon="9.622634">
        <ele>393.623936</ele>
        <time>2022-07-23T09:37:55.999Z</time>
      </trkpt>
      <trkpt lat="49.035626" lon="9.622530">
        <ele>394.137900</ele>
        <time>2022-07-23T09:37:57.999Z</time>
      </trkpt>
      <trkpt lat="49.035545" lon="9.622417">
        <ele>394.670760</ele>
        <time>2022-07-23T09:37:59.999Z</time>
      </trkpt>
      <trkpt lat="49.035461" lon="9.622303">
        <ele>395.216565</ele>
        <time>2022-07-23T09:38:01.999Z</time>
      </trkpt>
      <trkpt lat="49.035380" lon="9.622179">
        <ele>395.773652</ele>
        <time>2022-07-23T09:38:03.999Z</time>
      </trkpt>
      <trkpt lat="49.035288" lon="9.622067">
        <ele>396.345060</ele>
        <time>2022-07-23T09:38:05.999Z</time>
      </trkpt>
      <trkpt lat="49.035195" lon="9.621944">
        <ele>396.942595</ele>
        <time>2022-07-23T09:38:07.999Z</time>
      </trkpt>
      <trkpt lat="49.035108" lon="9.621815">
        <ele>397.531589</ele>
        <time>2022-07-23T09:38:09.999Z</time>
      </trkpt>
      <trkpt lat="49.035019" lon="9.621689">
        <ele>398.121046</ele>
        <time>2022-07-23T09:38:11.999Z</time>
      </trkpt>
      <trkpt lat="49.034928" lon="9.621562">
        <ele>398.785759</ele>
        <time>2022-07-23T09:38:13.999Z</time>
      </trkpt>
      <trkpt lat="49.034835" lon="9.621433">
        <ele>399.894843</ele>
        <time>2022-07-23T09:38:15.999Z</time>
      </trkpt>
      <trkpt lat="49.034743" lon="9.621298">
        <ele>401.021194</ele>
        <time>2022-07-23T09:38:17.999Z</time>
      </trkpt>
      <trkpt lat="49.034649" lon="9.621161">
        <ele>402.168289</ele>
        <time>2022-07-23T09:38:19.999Z</time>
      </trkpt>
      <trkpt lat="49.034546" lon="9.621031">
        <ele>403.347829</ele>
        <time>2022-07-23T09:38:21.999Z</time>
      </trkpt>
      <trkpt lat="49.034451" lon="9.620895">
        <ele>404.497356</ele>
        <time>2022-07-23T09:38:23.999Z</time>
      </trkpt>
      <trkpt lat="49.034357" lon="9.620758">
        <ele>405.644455</ele>
        <time>2022-07-23T09:38:25.999Z</time>
      </trkpt>
      <trkpt lat="49.034265" lon="9.620616">
        <ele>406.799252</ele>
        <time>2022-07-23T09:38:27.999Z</time>
      </trkpt>
      <trkpt lat="49.034178" lon="9.620473">
        <ele>407.927712</ele>
        <time>2022-07-23T09:38:29.999Z</time>
      </trkpt>
      <trkpt lat="49.034097" lon="9.620328">
        <ele>409.029633</ele>
        <time>2022-07-23T09:38:31.999Z</time>
      </trkpt>
      <trkpt lat="49.034022" lon="9.620179">
        <ele>410.116242</ele>
        <time>2022-07-23T09:38:33.999Z</time>
      </trkpt>
      <trkpt lat="49.033955" lon="9.620044">
        <ele>411.095656</ele>
        <time>2022-07-23T09:38:35.999Z</time>
      </trkpt>
      <trkpt lat="49.033886" lon="9.619918">
        <ele>412.045303</ele>
        <time>2022-07-23T09:38:37.999Z</time>
      </trkpt>
      <trkpt lat="49.033833" lon="9.619798">
        <ele>412.882256</ele>
        <time>2022-07-23T09:38:39.999Z</time>
      </trkpt>
      <trkpt lat="49.033762" lon="9.619633">
        <ele>414.023908</ele>
        <time>2022-07-23T09:38:42.999Z</time>
      </trkpt>
      <trkpt lat="49.033689" lon="9.619499">
        <ele>415.278978</ele>
        <time>2022-07-23T09:38:45.999Z</time>
      </trkpt>
      <trkpt lat="49.033631" lon="9.619382">
        <ele>416.528478</ele>
        <time>2022-07-23T09:38:49.999Z</time>
      </trkpt>
      <trkpt lat="49.033568" lon="9.619242">
        <ele>417.974962</ele>
        <time>2022-07-23T09:38:53.999Z</time>
      </trkpt>
      <trkpt lat="49.033515" lon="9.619118">
        <ele>419.235904</ele>
        <time>2022-07-23T09:38:56.999Z</time>
      </trkpt>
      <trkpt lat="49.033445" lon="9.618984">
        <ele>420.695424</ele>
        <time>2022-07-23T09:38:59.999Z</time>
      </trkpt>
      <trkpt lat="49.033370" lon="9.618834">
        <ele>422.302388</ele>
        <time>2022-07-23T09:39:02.999Z</time>
      </trkpt>
      <trkpt lat="49.033305" lon="9.618679">
        <ele>423.869759</ele>
        <time>2022-07-23T09:39:05.999Z</time>
      </trkpt>
      <trkpt lat="49.033231" lon="9.618533">
        <ele>425.441787</ele>
        <time>2022-07-23T09:39:08.999Z</time>
      </trkpt>
      <trkpt lat="49.033156" lon="9.618379">
        <ele>427.075981</ele>
        <time>2022-07-23T09:39:11.999Z</time>
      </trkpt>
      <trkpt lat="49.033087" lon="9.618230">
        <ele>428.629942</ele>
        <time>2022-07-23T09:39:14.999Z</time>
      </trkpt>
      <trkpt lat="49.033018" lon="9.618078">
        <ele>430.204847</ele>
        <time>2022-07-23T09:39:17.999Z</time>
      </trkpt>
      <trkpt lat="49.032950" lon="9.617933">
        <ele>431.723510</ele>
        <time>2022-07-23T09:39:20.999Z</time>
      </trkpt>
      <trkpt lat="49.032891" lon="9.617798">
        <ele>433.105607</ele>
        <time>2022-07-23T09:39:23.999Z</time>
      </trkpt>
      <trkpt lat="49.032818" lon="9.617658">
        <ele>434.629403</ele>
        <time>2022-07-23T09:39:26.999Z</time>
      </trkpt>
      <trkpt lat="49.032746" lon="9.617489">
        <ele>436.346306</ele>
        <time>2022-07-23T09:39:29.999Z</time>
      </trkpt>
      <trkpt lat="49.032687" lon="9.617343">
        <ele>437.807302</ele>
        <time>2022-07-23T09:39:32.999Z</time>
      </trkpt>
      <trkpt lat="49.032605" lon="9.617205">
        <ele>439.627340</ele>
        <time>2022-07-23T09:39:35.999Z</time>
      </trkpt>
      <trkpt lat="49.032496" lon="9.617102">
        <ele>441.550069</ele>
        <time>2022-07-23T09:39:38.999Z</time>
      </trkpt>
      <trkpt lat="49.032378" lon="9.617071">
        <ele>443.345549</ele>
        <time>2022-07-23T09:39:41.999Z</time>
      </trkpt>
      <trkpt lat="49.032267" lon="9.617042">
        <ele>445.034250</ele>
        <time>2022-07-23T09:39:44.999Z</time>
      </trkpt>
      <trkpt lat="49.032176" lon="9.617036">
        <ele>446.400080</ele>
        <time>2022-07-23T09:39:46.999Z</time>
      </trkpt>
      <trkpt lat="49.032051" lon="9.617017">
        <ele>448.283756</ele>
        <time>2022-07-23T09:39:49.999Z</time>
      </trkpt>
      <trkpt lat="49.031925" lon="9.617010">
        <ele>450.174394</ele>
        <time>2022-07-23T09:39:52.999Z</time>
      </trkpt>
      <trkpt lat="49.031809" lon="9.617003">
        <ele>451.915190</ele>
        <time>2022-07-23T09:39:55.999Z</time>
      </trkpt>
      <trkpt lat="49.031682" lon="9.616975">
        <ele>453.839363</ele>
        <time>2022-07-23T09:39:58.999Z</time>
      </trkpt>
      <trkpt lat="49.031560" lon="9.616940">
        <ele>455.700849</ele>
        <time>2022-07-23T09:40:01.999Z</time>
      </trkpt>
      <trkpt lat="49.031442" lon="9.616910">
        <ele>457.494687</ele>
        <time>2022-07-23T09:40:04.999Z</time>
      </trkpt>
      <trkpt lat="49.031332" lon="9.616897">
        <ele>459.149095</ele>
        <time>2022-07-23T09:40:07.999Z</time>
      </trkpt>
      <trkpt lat="49.031215" lon="9.616870">
        <ele>460.923493</ele>
        <time>2022-07-23T09:40:10.999Z</time>
      </trkpt>
      <trkpt lat="49.031096" lon="9.616834">
        <ele>462.742675</ele>
        <time>2022-07-23T09:40:13.999Z</time>
      </trkpt>
      <trkpt lat="49.031007" lon="9.616811">
        <ele>464.096263</ele>
        <time>2022-07-23T09:40:15.999Z</time>
      </trkpt>
      <trkpt lat="49.030895" lon="9.616741">
        <ele>465.552284</ele>
        <time>2022-07-23T09:40:18.999Z</time>
      </trkpt>
      <trkpt lat="49.030793" lon="9.616628">
        <ele>466.803645</ele>
        <time>2022-07-23T09:40:21.999Z</time>
      </trkpt>
      <trkpt lat="49.030697" lon="9.616488">
        <ele>468.122046</ele>
        <time>2022-07-23T09:40:24.999Z</time>
      </trkpt>
      <trkpt lat="49.030616" lon="9.616332">
        <ele>469.417110</ele>
        <time>2022-07-23T09:40:27.999Z</time>
      </trkpt>
      <trkpt lat="49.030557" lon="9.616163">
        <ele>470.663176</ele>
        <time>2022-07-23T09:40:30.999Z</time>
      </trkpt>
      <trkpt lat="49.030508" lon="9.615986">
        <ele>471.913581</ele>
        <time>2022-07-23T09:40:33.999Z</time>
      </trkpt>
      <trkpt lat="49.030464" lon="9.615806">
        <ele>473.163807</ele>
        <time>2022-07-23T09:40:36.999Z</time>
      </trkpt>
      <trkpt lat="49.030423" lon="9.615625">
        <ele>474.410094</ele>
        <time>2022-07-23T09:40:39.999Z</time>
      </trkpt>
      <trkpt lat="49.030383" lon="9.615445">
        <ele>475.647011</ele>
        <time>2022-07-23T09:40:42.999Z</time>
      </trkpt>
      <trkpt lat="49.030346" lon="9.615261">
        <ele>476.899559</ele>
        <time>2022-07-23T09:40:45.999Z</time>
      </trkpt>
      <trkpt lat="49.030306" lon="9.615075">
        <ele>478.173522</ele>
        <time>2022-07-23T09:40:48.999Z</time>
      </trkpt>
      <trkpt lat="49.030268" lon="9.614888">
        <ele>479.447653</ele>
        <time>2022-07-23T09:40:51.999Z</time>
      </trkpt>
      <trkpt lat="49.030216" lon="9.614703">
        <ele>480.757633</ele>
        <time>2022-07-23T09:40:54.999Z</time>
      </trkpt>
      <trkpt lat="49.030140" lon="9.614545">
        <ele>482.032962</ele>
        <time>2022-07-23T09:40:57.999Z</time>
      </trkpt>
      <trkpt lat="49.030059" lon="9.614439">
        <ele>482.881426</ele>
        <time>2022-07-23T09:40:59.999Z</time>
      </trkpt>
      <trkpt lat="49.029970" lon="9.614348">
        <ele>483.369059</ele>
        <time>2022-07-23T09:41:01.999Z</time>
      </trkpt>
      <trkpt lat="49.029876" lon="9.614263">
        <ele>483.866386</ele>
        <time>2022-07-23T09:41:03.999Z</time>
      </trkpt>
      <trkpt lat="49.029784" lon="9.614174">
        <ele>484.362196</ele>
        <time>2022-07-23T09:41:05.999Z</time>
      </trkpt>
      <trkpt lat="49.029692" lon="9.614080">
        <ele>484.866155</ele>
        <time>2022-07-23T09:41:07.999Z</time>
      </trkpt>
      <trkpt lat="49.029592" lon="9.613992">
        <ele>485.391573</ele>
        <time>2022-07-23T09:41:09.999Z</time>
      </trkpt>
      <trkpt lat="49.029482" lon="9.613904">
        <ele>485.956868</ele>
        <time>2022-07-23T09:41:11.999Z</time>
      </trkpt>
      <trkpt lat="49.029382" lon="9.613805">
        <ele>486.499437</ele>
        <time>2022-07-23T09:41:13.999Z</time>
      </trkpt>
      <trkpt lat="49.029282" lon="9.613715">
        <ele>487.027864</ele>
        <time>2022-07-23T09:41:15.999Z</time>
      </trkpt>
      <trkpt lat="49.029183" lon="9.613626">
        <ele>487.550855</ele>
        <time>2022-07-23T09:41:17.999Z</time>
      </trkpt>
      <trkpt lat="49.029083" lon="9.613551">
        <ele>488.058002</ele>
        <time>2022-07-23T09:41:19.999Z</time>
      </trkpt>
      <trkpt lat="49.028983" lon="9.613478">
        <ele>488.562544</ele>
        <time>2022-07-23T09:41:21.999Z</time>
      </trkpt>
      <trkpt lat="49.028883" lon="9.613400">
        <ele>489.073705</ele>
        <time>2022-07-23T09:41:23.999Z</time>
      </trkpt>
      <trkpt lat="49.028797" lon="9.613293">
        <ele>489.578803</ele>
        <time>2022-07-23T09:41:25.999Z</time>
      </trkpt>
      <trkpt lat="49.028733" lon="9.613166">
        <ele>490.056766</ele>
        <time>2022-07-23T09:41:27.999Z</time>
      </trkpt>
      <trkpt lat="49.028671" lon="9.613046">
        <ele>490.512655</ele>
        <time>2022-07-23T09:41:29.999Z</time>
      </trkpt>
      <trkpt lat="49.028611" lon="9.612927">
        <ele>490.722248</ele>
        <time>2022-07-23T09:41:31.999Z</time>
      </trkpt>
      <trkpt lat="49.028516" lon="9.612879">
        <ele>489.674228</ele>
        <time>2022-07-23T09:41:36.999Z</time>
      </trkpt>
      <trkpt lat="49.028476" lon="9.613016">
        <ele>488.644489</ele>
        <time>2022-07-23T09:41:49.999Z</time>
      </trkpt>
      <trkpt lat="49.028485" lon="9.613160">
        <ele>487.651250</ele>
        <time>2022-07-23T09:41:53.999Z</time>
      </trkpt>
      <trkpt lat="49.028483" lon="9.613302">
        <ele>486.676001</ele>
        <time>2022-07-23T09:41:57.999Z</time>
      </trkpt>
      <trkpt lat="49.028494" lon="9.613478">
        <ele>485.462044</ele>
        <time>2022-07-23T09:42:01.999Z</time>
      </trkpt>
      <trkpt lat="49.028519" lon="9.613618">
        <ele>484.465740</ele>
        <time>2022-07-23T09:42:04.999Z</time>
      </trkpt>
      <trkpt lat="49.028538" lon="9.613768">
        <ele>483.416744</ele>
        <time>2022-07-23T09:42:07.999Z</time>
      </trkpt>
      <trkpt lat="49.028568" lon="9.613916">
        <ele>482.353070</ele>
        <time>2022-07-23T09:42:10.999Z</time>
      </trkpt>
      <trkpt lat="49.028597" lon="9.614084">
        <ele>481.160217</ele>
        <time>2022-07-23T09:42:13.999Z</time>
      </trkpt>
      <trkpt lat="49.028614" lon="9.614265">
        <ele>479.904722</ele>
        <time>2022-07-23T09:42:16.999Z</time>
      </trkpt>
      <trkpt lat="49.028632" lon="9.614451">
        <ele>478.613746</ele>
        <time>2022-07-23T09:42:19.999Z</time>
      </trkpt>
      <trkpt lat="49.028659" lon="9.614636">
        <ele>477.312385</ele>
        <time>2022-07-23T09:42:22.999Z</time>
      </trkpt>
      <trkpt lat="49.028691" lon="9.614811">
        <ele>476.064924</ele>
        <time>2022-07-23T09:42:25.999Z</time>
      </trkpt>
      <trkpt lat="49.028720" lon="9.614971">
        <ele>474.925108</ele>
        <time>2022-07-23T09:42:28.999Z</time>
      </trkpt>
      <trkpt lat="49.028747" lon="9.615109">
        <ele>473.936269</ele>
        <time>2022-07-23T09:42:31.999Z</time>
      </trkpt>
      <trkpt lat="49.028768" lon="9.615253">
        <ele>472.923357</ele>
        <time>2022-07-23T09:42:34.999Z</time>
      </trkpt>
      <trkpt lat="49.028747" lon="9.615389">
        <ele>471.980097</ele>
        <time>2022-07-23T09:42:37.999Z</time>
      </trkpt>
      <trkpt lat="49.028693" lon="9.615520">
        <ele>471.110136</ele>
        <time>2022-07-23T09:42:41.999Z</time>
      </trkpt>
      <trkpt lat="49.028654" lon="9.615649">
        <ele>470.311492</ele>
        <time>2022-07-23T09:42:45.999Z</time>
      </trkpt>
      <trkpt lat="49.028608" lon="9.615771">
        <ele>469.520264</ele>
        <time>2022-07-23T09:42:49.999Z</time>
      </trkpt>
      <trkpt lat="49.028540" lon="9.615875">
        <ele>468.694520</ele>
        <time>2022-07-23T09:42:53.999Z</time>
      </trkpt>
      <trkpt lat="49.028462" lon="9.615968">
        <ele>467.845578</ele>
        <time>2022-07-23T09:42:56.999Z</time>
      </trkpt>
      <trkpt lat="49.028383" lon="9.616050">
        <ele>467.026189</ele>
        <time>2022-07-23T09:42:59.999Z</time>
      </trkpt>
      <trkpt lat="49.028273" lon="9.616121">
        <ele>466.001996</ele>
        <time>2022-07-23T09:43:02.999Z</time>
      </trkpt>
      <trkpt lat="49.028165" lon="9.616153">
        <ele>465.058629</ele>
        <time>2022-07-23T09:43:05.999Z</time>
      </trkpt>
      <trkpt lat="49.028045" lon="9.616197">
        <ele>464.000362</ele>
        <time>2022-07-23T09:43:08.999Z</time>
      </trkpt>
      <trkpt lat="49.027930" lon="9.616221">
        <ele>463.005099</ele>
        <time>2022-07-23T09:43:11.999Z</time>
      </trkpt>
      <trkpt lat="49.027837" lon="9.616287">
        <ele>462.125557</ele>
        <time>2022-07-23T09:43:14.999Z</time>
      </trkpt>
      <trkpt lat="49.027773" lon="9.616422">
        <ele>461.188945</ele>
        <time>2022-07-23T09:43:17.999Z</time>
      </trkpt>
      <trkpt lat="49.027753" lon="9.616587">
        <ele>460.245550</ele>
        <time>2022-07-23T09:43:21.999Z</time>
      </trkpt>
      <trkpt lat="49.027810" lon="9.616743">
        <ele>459.241490</ele>
        <time>2022-07-23T09:43:25.999Z</time>
      </trkpt>
      <trkpt lat="49.027818" lon="9.616902">
        <ele>458.344920</ele>
        <time>2022-07-23T09:43:29.999Z</time>
      </trkpt>
      <trkpt lat="49.027849" lon="9.617033">
        <ele>457.561904</ele>
        <time>2022-07-23T09:43:32.999Z</time>
      </trkpt>
      <trkpt lat="49.027936" lon="9.617126">
        <ele>456.650921</ele>
        <time>2022-07-23T09:43:36.999Z</time>
      </trkpt>
      <trkpt lat="49.028026" lon="9.617249">
        <ele>457.846124</ele>
        <time>2022-07-23T09:43:40.999Z</time>
      </trkpt>
      <trkpt lat="49.028083" lon="9.617415">
        <ele>459.107333</ele>
        <time>2022-07-23T09:43:44.999Z</time>
      </trkpt>
      <trkpt lat="49.028081" lon="9.617582">
        <ele>460.231528</ele>
        <time>2022-07-23T09:43:47.999Z</time>
      </trkpt>
      <trkpt lat="49.028088" lon="9.617734">
        <ele>461.257096</ele>
        <time>2022-07-23T09:43:50.999Z</time>
      </trkpt>
      <trkpt lat="49.028088" lon="9.617915">
        <ele>462.475331</ele>
        <time>2022-07-23T09:43:53.999Z</time>
      </trkpt>
      <trkpt lat="49.028065" lon="9.618102">
        <ele>463.755901</ele>
        <time>2022-07-23T09:43:56.999Z</time>
      </trkpt>
      <trkpt lat="49.028032" lon="9.618278">
        <ele>464.987965</ele>
        <time>2022-07-23T09:43:59.999Z</time>
      </trkpt>
      <trkpt lat="49.027991" lon="9.618444">
        <ele>466.181880</ele>
        <time>2022-07-23T09:44:02.999Z</time>
      </trkpt>
      <trkpt lat="49.027938" lon="9.618593">
        <ele>467.322803</ele>
        <time>2022-07-23T09:44:05.999Z</time>
      </trkpt>
      <trkpt lat="49.027891" lon="9.618758">
        <ele>468.533620</ele>
        <time>2022-07-23T09:44:08.999Z</time>
      </trkpt>
      <trkpt lat="49.027863" lon="9.618931">
        <ele>469.732963</ele>
        <time>2022-07-23T09:44:11.999Z</time>
      </trkpt>
      <trkpt lat="49.027883" lon="9.619110">
        <ele>470.955108</ele>
        <time>2022-07-23T09:44:14.999Z</time>
      </trkpt>
      <trkpt lat="49.027923" lon="9.619283">
        <ele>472.189775</ele>
        <time>2022-07-23T09:44:17.999Z</time>
      </trkpt>
      <trkpt lat="49.027959" lon="9.619438">
        <ele>473.296533</ele>
        <time>2022-07-23T09:44:21.000Z</time>
      </trkpt>
      <trkpt lat="49.027996" lon="9.619600">
        <ele>474.451143</ele>
        <time>2022-07-23T09:44:24.000Z</time>
      </trkpt>
      <trkpt lat="49.028033" lon="9.619769">
        <ele>475.261425</ele>
        <time>2022-07-23T09:44:27.000Z</time>
      </trkpt>
      <trkpt lat="49.028065" lon="9.619939">
        <ele>475.620877</ele>
        <time>2022-07-23T09:44:30.000Z</time>
      </trkpt>
      <trkpt lat="49.028100" lon="9.620122">
        <ele>476.008292</ele>
        <time>2022-07-23T09:44:33.000Z</time>
      </trkpt>
      <trkpt lat="49.028134" lon="9.620305">
        <ele>476.394851</ele>
        <time>2022-07-23T09:44:36.000Z</time>
      </trkpt>
      <trkpt lat="49.028172" lon="9.620491">
        <ele>476.790789</ele>
        <time>2022-07-23T09:44:39.000Z</time>
      </trkpt>
      <trkpt lat="49.028197" lon="9.620633">
        <ele>477.089601</ele>
        <time>2022-07-23T09:44:41.000Z</time>
      </trkpt>
      <trkpt lat="49.028219" lon="9.620775">
        <ele>477.386139</ele>
        <time>2022-07-23T09:44:43.000Z</time>
      </trkpt>
      <trkpt lat="49.028249" lon="9.620921">
        <ele>477.697087</ele>
        <time>2022-07-23T09:44:45.000Z</time>
      </trkpt>
      <trkpt lat="49.028282" lon="9.621070">
        <ele>478.016712</ele>
        <time>2022-07-23T09:44:47.000Z</time>
      </trkpt>
      <trkpt lat="49.028303" lon="9.621223">
        <ele>478.334397</ele>
        <time>2022-07-23T09:44:48.999Z</time>
      </trkpt>
      <trkpt lat="49.028331" lon="9.621357">
        <ele>478.620222</ele>
        <time>2022-07-23T09:44:50.999Z</time>
      </trkpt>
      <trkpt lat="49.028356" lon="9.621493">
        <ele>478.907275</ele>
        <time>2022-07-23T09:44:52.999Z</time>
      </trkpt>
      <trkpt lat="49.028381" lon="9.621632">
        <ele>479.200202</ele>
        <time>2022-07-23T09:44:54.999Z</time>
      </trkpt>
      <trkpt lat="49.028401" lon="9.621768">
        <ele>479.483464</ele>
        <time>2022-07-23T09:44:56.999Z</time>
      </trkpt>
      <trkpt lat="49.028433" lon="9.621900">
        <ele>479.769479</ele>
        <time>2022-07-23T09:44:58.999Z</time>
      </trkpt>
      <trkpt lat="49.028474" lon="9.622093">
        <ele>480.181789</ele>
        <time>2022-07-23T09:45:01.999Z</time>
      </trkpt>
      <trkpt lat="49.028504" lon="9.622291">
        <ele>480.594791</ele>
        <time>2022-07-23T09:45:04.999Z</time>
      </trkpt>
      <trkpt lat="49.028536" lon="9.622466">
        <ele>480.644195</ele>
        <time>2022-07-23T09:45:07.999Z</time>
      </trkpt>
      <trkpt lat="49.028568" lon="9.622630">
        <ele>480.616041</ele>
        <time>2022-07-23T09:45:10.999Z</time>
      </trkpt>
      <trkpt lat="49.028603" lon="9.622805">
        <ele>480.585937</ele>
        <time>2022-07-23T09:45:13.999Z</time>
      </trkpt>
      <trkpt lat="49.028631" lon="9.622998">
        <ele>480.553413</ele>
        <time>2022-07-23T09:45:16.999Z</time>
      </trkpt>
      <trkpt lat="49.028664" lon="9.623181">
        <ele>480.522185</ele>
        <time>2022-07-23T09:45:19.999Z</time>
      </trkpt>
      <trkpt lat="49.028695" lon="9.623362">
        <ele>480.491404</ele>
        <time>2022-07-23T09:45:22.999Z</time>
      </trkpt>
      <trkpt lat="49.028729" lon="9.623543">
        <ele>480.460425</ele>
        <time>2022-07-23T09:45:25.999Z</time>
      </trkpt>
      <trkpt lat="49.028768" lon="9.623734">
        <ele>480.427510</ele>
        <time>2022-07-23T09:45:28.999Z</time>
      </trkpt>
      <trkpt lat="49.028805" lon="9.623916">
        <ele>480.396158</ele>
        <time>2022-07-23T09:45:31.999Z</time>
      </trkpt>
      <trkpt lat="49.028842" lon="9.624082">
        <ele>480.367309</ele>
        <time>2022-07-23T09:45:34.999Z</time>
      </trkpt>
      <trkpt lat="49.028871" lon="9.624254">
        <ele>480.338088</ele>
        <time>2022-07-23T09:45:37.999Z</time>
      </trkpt>
      <trkpt lat="49.028891" lon="9.624431">
        <ele>480.308536</ele>
        <time>2022-07-23T09:45:40.999Z</time>
      </trkpt>
      <trkpt lat="49.028903" lon="9.624612">
        <ele>480.278603</ele>
        <time>2022-07-23T09:45:44.999Z</time>
      </trkpt>
      <trkpt lat="49.028911" lon="9.624759">
        <ele>480.254333</ele>
        <time>2022-07-23T09:45:47.999Z</time>
      </trkpt>
      <trkpt lat="49.028913" lon="9.624911">
        <ele>480.229318</ele>
        <time>2022-07-23T09:45:50.999Z</time>
      </trkpt>
      <trkpt lat="49.028924" lon="9.625075">
        <ele>480.490144</ele>
        <time>2022-07-23T09:45:53.999Z</time>
      </trkpt>
      <trkpt lat="49.028927" lon="9.625221">
        <ele>480.940097</ele>
        <time>2022-07-23T09:45:56.999Z</time>
      </trkpt>
      <trkpt lat="49.028928" lon="9.625372">
        <ele>481.405255</ele>
        <time>2022-07-23T09:45:59.999Z</time>
      </trkpt>
      <trkpt lat="49.028939" lon="9.625525">
        <ele>481.879374</ele>
        <time>2022-07-23T09:46:02.999Z</time>
      </trkpt>
      <trkpt lat="49.028950" lon="9.625697">
        <ele>482.411710</ele>
        <time>2022-07-23T09:46:06.999Z</time>
      </trkpt>
      <trkpt lat="49.028951" lon="9.625871">
        <ele>482.947713</ele>
        <time>2022-07-23T09:46:10.999Z</time>
      </trkpt>
      <trkpt lat="49.028942" lon="9.626039">
        <ele>483.466937</ele>
        <time>2022-07-23T09:46:14.999Z</time>
      </trkpt>
      <trkpt lat="49.028936" lon="9.626190">
        <ele>483.932924</ele>
        <time>2022-07-23T09:46:17.999Z</time>
      </trkpt>
      <trkpt lat="49.028926" lon="9.626329">
        <ele>484.363664</ele>
        <time>2022-07-23T09:46:20.999Z</time>
      </trkpt>
      <trkpt lat="49.028904" lon="9.626480">
        <ele>484.840143</ele>
        <time>2022-07-23T09:46:23.999Z</time>
      </trkpt>
      <trkpt lat="49.028899" lon="9.626630">
        <ele>485.302793</ele>
        <time>2022-07-23T09:46:27.000Z</time>
      </trkpt>
      <trkpt lat="49.028889" lon="9.626781">
        <ele>485.770294</ele>
        <time>2022-07-23T09:46:30.000Z</time>
      </trkpt>
      <trkpt lat="49.028879" lon="9.626942">
        <ele>486.268452</ele>
        <time>2022-07-23T09:46:33.000Z</time>
      </trkpt>
      <trkpt lat="49.028869" lon="9.627090">
        <ele>486.726760</ele>
        <time>2022-07-23T09:46:36.000Z</time>
      </trkpt>
      <trkpt lat="49.028837" lon="9.627257">
        <ele>487.262698</ele>
        <time>2022-07-23T09:46:39.000Z</time>
      </trkpt>
      <trkpt lat="49.028793" lon="9.627430">
        <ele>487.834288</ele>
        <time>2022-07-23T09:46:42.000Z</time>
      </trkpt>
      <trkpt lat="49.028767" lon="9.627567">
        <ele>488.273620</ele>
        <time>2022-07-23T09:46:45.000Z</time>
      </trkpt>
      <trkpt lat="49.028725" lon="9.627690">
        <ele>488.755439</ele>
        <time>2022-07-23T09:46:48.000Z</time>
      </trkpt>
      <trkpt lat="49.028619" lon="9.627671">
        <ele>490.061822</ele>
        <time>2022-07-23T09:46:52.000Z</time>
      </trkpt>
      <trkpt lat="49.028554" lon="9.627573">
        <ele>491.180569</ele>
        <time>2022-07-23T09:47:01.999Z</time>
      </trkpt>
      <trkpt lat="49.028480" lon="9.627487">
        <ele>492.319341</ele>
        <time>2022-07-23T09:47:09.999Z</time>
      </trkpt>
      <trkpt lat="49.028398" lon="9.627385">
        <ele>493.614535</ele>
        <time>2022-07-23T09:47:14.999Z</time>
      </trkpt>
      <trkpt lat="49.028319" lon="9.627287">
        <ele>494.860985</ele>
        <time>2022-07-23T09:47:18.999Z</time>
      </trkpt>
      <trkpt lat="49.028246" lon="9.627154">
        <ele>496.253023</ele>
        <time>2022-07-23T09:47:22.999Z</time>
      </trkpt>
      <trkpt lat="49.028172" lon="9.627018">
        <ele>497.671395</ele>
        <time>2022-07-23T09:47:26.999Z</time>
      </trkpt>
      <trkpt lat="49.028110" lon="9.626904">
        <ele>498.860095</ele>
        <time>2022-07-23T09:47:29.999Z</time>
      </trkpt>
      <trkpt lat="49.028048" lon="9.626772">
        <ele>500.163256</ele>
        <time>2022-07-23T09:47:32.999Z</time>
      </trkpt>
      <trkpt lat="49.027990" lon="9.626640">
        <ele>501.438527</ele>
        <time>2022-07-23T09:47:35.999Z</time>
      </trkpt>
      <trkpt lat="49.027925" lon="9.626512">
        <ele>502.737882</ele>
        <time>2022-07-23T09:47:38.999Z</time>
      </trkpt>
      <trkpt lat="49.027861" lon="9.626382">
        <ele>504.042581</ele>
        <time>2022-07-23T09:47:41.999Z</time>
      </trkpt>
      <trkpt lat="49.027796" lon="9.626231">
        <ele>505.492294</ele>
        <time>2022-07-23T09:47:44.999Z</time>
      </trkpt>
      <trkpt lat="49.027731" lon="9.626080">
        <ele>506.942008</ele>
        <time>2022-07-23T09:47:47.999Z</time>
      </trkpt>
      <trkpt lat="49.027662" lon="9.625932">
        <ele>508.399472</ele>
        <time>2022-07-23T09:47:50.999Z</time>
      </trkpt>
      <trkpt lat="49.027590" lon="9.625786">
        <ele>509.865659</ele>
        <time>2022-07-23T09:47:53.999Z</time>
      </trkpt>
      <trkpt lat="49.027519" lon="9.625641">
        <ele>511.127816</ele>
        <time>2022-07-23T09:47:56.999Z</time>
      </trkpt>
      <trkpt lat="49.027453" lon="9.625499">
        <ele>512.106646</ele>
        <time>2022-07-23T09:47:59.999Z</time>
      </trkpt>
      <trkpt lat="49.027395" lon="9.625349">
        <ele>513.085939</ele>
        <time>2022-07-23T09:48:02.999Z</time>
      </trkpt>
      <trkpt lat="49.027330" lon="9.625208">
        <ele>514.055229</ele>
        <time>2022-07-23T09:48:05.999Z</time>
      </trkpt>
      <trkpt lat="49.027269" lon="9.625077">
        <ele>514.958795</ele>
        <time>2022-07-23T09:48:08.999Z</time>
      </trkpt>
      <trkpt lat="49.027204" lon="9.624942">
        <ele>515.900684</ele>
        <time>2022-07-23T09:48:11.999Z</time>
      </trkpt>
      <trkpt lat="49.027142" lon="9.624794">
        <ele>516.888349</ele>
        <time>2022-07-23T09:48:14.999Z</time>
      </trkpt>
      <trkpt lat="49.027082" lon="9.624628">
        <ele>517.954315</ele>
        <time>2022-07-23T09:48:17.999Z</time>
      </trkpt>
      <trkpt lat="49.027019" lon="9.624437">
        <ele>519.156683</ele>
        <time>2022-07-23T09:48:20.999Z</time>
      </trkpt>
      <trkpt lat="49.026972" lon="9.624288">
        <ele>520.086528</ele>
        <time>2022-07-23T09:48:22.999Z</time>
      </trkpt>
      <trkpt lat="49.026911" lon="9.624141">
        <ele>521.064849</ele>
        <time>2022-07-23T09:48:24.999Z</time>
      </trkpt>
      <trkpt lat="49.026840" lon="9.624000">
        <ele>522.064628</ele>
        <time>2022-07-23T09:48:26.999Z</time>
      </trkpt>
      <trkpt lat="49.026752" lon="9.623867">
        <ele>523.127201</ele>
        <time>2022-07-23T09:48:28.999Z</time>
      </trkpt>
      <trkpt lat="49.026649" lon="9.623739">
        <ele>524.266734</ele>
        <time>2022-07-23T09:48:30.999Z</time>
      </trkpt>
      <trkpt lat="49.026543" lon="9.623615">
        <ele>525.412499</ele>
        <time>2022-07-23T09:48:33.000Z</time>
      </trkpt>
      <trkpt lat="49.026431" lon="9.623488">
        <ele>526.113408</ele>
        <time>2022-07-23T09:48:35.000Z</time>
      </trkpt>
      <trkpt lat="49.026326" lon="9.623352">
        <ele>526.124815</ele>
        <time>2022-07-23T09:48:37.000Z</time>
      </trkpt>
      <trkpt lat="49.026242" lon="9.623199">
        <ele>526.135650</ele>
        <time>2022-07-23T09:48:39.000Z</time>
      </trkpt>
      <trkpt lat="49.026180" lon="9.623014">
        <ele>526.146931</ele>
        <time>2022-07-23T09:48:41.000Z</time>
      </trkpt>
      <trkpt lat="49.026124" lon="9.622819">
        <ele>526.158490</ele>
        <time>2022-07-23T09:48:43.000Z</time>
      </trkpt>
      <trkpt lat="49.026074" lon="9.622632">
        <ele>526.169455</ele>
        <time>2022-07-23T09:48:45.000Z</time>
      </trkpt>
      <trkpt lat="49.026009" lon="9.622453">
        <ele>526.180565</ele>
        <time>2022-07-23T09:48:47.000Z</time>
      </trkpt>
      <trkpt lat="49.025926" lon="9.622289">
        <ele>526.191814</ele>
        <time>2022-07-23T09:48:49.000Z</time>
      </trkpt>
      <trkpt lat="49.025843" lon="9.622148">
        <ele>526.202102</ele>
        <time>2022-07-23T09:48:51.000Z</time>
      </trkpt>
      <trkpt lat="49.025759" lon="9.622020">
        <ele>526.211935</ele>
        <time>2022-07-23T09:48:53.000Z</time>
      </trkpt>
      <trkpt lat="49.025665" lon="9.621908">
        <ele>526.221813</ele>
        <time>2022-07-23T09:48:55.000Z</time>
      </trkpt>
      <trkpt lat="49.025559" lon="9.621821">
        <ele>526.231781</ele>
        <time>2022-07-23T09:48:57.000Z</time>
      </trkpt>
      <trkpt lat="49.025446" lon="9.621730">
        <ele>526.242362</ele>
        <time>2022-07-23T09:48:58.999Z</time>
      </trkpt>
      <trkpt lat="49.025328" lon="9.621631">
        <ele>526.253515</ele>
        <time>2022-07-23T09:49:00.999Z</time>
      </trkpt>
      <trkpt lat="49.025208" lon="9.621521">
        <ele>526.156274</ele>
        <time>2022-07-23T09:49:02.999Z</time>
      </trkpt>
      <trkpt lat="49.025090" lon="9.621405">
        <ele>526.001379</ele>
        <time>2022-07-23T09:49:04.999Z</time>
      </trkpt>
      <trkpt lat="49.024973" lon="9.621299">
        <ele>525.851230</ele>
        <time>2022-07-23T09:49:06.999Z</time>
      </trkpt>
      <trkpt lat="49.024855" lon="9.621196">
        <ele>525.701222</ele>
        <time>2022-07-23T09:49:08.999Z</time>
      </trkpt>
      <trkpt lat="49.024741" lon="9.621103">
        <ele>525.558579</ele>
        <time>2022-07-23T09:49:10.999Z</time>
      </trkpt>
      <trkpt lat="49.024621" lon="9.621020">
        <ele>525.413201</ele>
        <time>2022-07-23T09:49:12.999Z</time>
      </trkpt>
      <trkpt lat="49.024506" lon="9.620920">
        <ele>525.267143</ele>
        <time>2022-07-23T09:49:14.999Z</time>
      </trkpt>
      <trkpt lat="49.024394" lon="9.620822">
        <ele>525.124676</ele>
        <time>2022-07-23T09:49:16.999Z</time>
      </trkpt>
      <trkpt lat="49.024285" lon="9.620727">
        <ele>524.986161</ele>
        <time>2022-07-23T09:49:18.999Z</time>
      </trkpt>
      <trkpt lat="49.024159" lon="9.620628">
        <ele>524.829777</ele>
        <time>2022-07-23T09:49:20.999Z</time>
      </trkpt>
      <trkpt lat="49.024039" lon="9.620529">
        <ele>524.679247</ele>
        <time>2022-07-23T09:49:22.999Z</time>
      </trkpt>
      <trkpt lat="49.023923" lon="9.620401">
        <ele>524.521273</ele>
        <time>2022-07-23T09:49:24.999Z</time>
      </trkpt>
      <trkpt lat="49.023826" lon="9.620239">
        <ele>524.362557</ele>
        <time>2022-07-23T09:49:26.999Z</time>
      </trkpt>
      <trkpt lat="49.023747" lon="9.620077">
        <ele>524.333120</ele>
        <time>2022-07-23T09:49:28.999Z</time>
      </trkpt>
      <trkpt lat="49.023671" lon="9.619907">
        <ele>524.491235</ele>
        <time>2022-07-23T09:49:30.999Z</time>
      </trkpt>
      <trkpt lat="49.023595" lon="9.619739">
        <ele>524.648082</ele>
        <time>2022-07-23T09:49:32.999Z</time>
      </trkpt>
      <trkpt lat="49.023509" lon="9.619610">
        <ele>524.789452</ele>
        <time>2022-07-23T09:49:34.999Z</time>
      </trkpt>
      <trkpt lat="49.023401" lon="9.619490">
        <ele>524.946052</ele>
        <time>2022-07-23T09:49:36.999Z</time>
      </trkpt>
      <trkpt lat="49.023285" lon="9.619359">
        <ele>525.115213</ele>
        <time>2022-07-23T09:49:38.999Z</time>
      </trkpt>
      <trkpt lat="49.023181" lon="9.619207">
        <ele>525.284031</ele>
        <time>2022-07-23T09:49:40.999Z</time>
      </trkpt>
      <trkpt lat="49.023094" lon="9.619039">
        <ele>525.448542</ele>
        <time>2022-07-23T09:49:42.999Z</time>
      </trkpt>
      <trkpt lat="49.023011" lon="9.618866">
        <ele>525.613275</ele>
        <time>2022-07-23T09:49:44.999Z</time>
      </trkpt>
      <trkpt lat="49.022941" lon="9.618688">
        <ele>525.772780</ele>
        <time>2022-07-23T09:49:46.999Z</time>
      </trkpt>
      <trkpt lat="49.022880" lon="9.618507">
        <ele>525.929173</ele>
        <time>2022-07-23T09:49:48.999Z</time>
      </trkpt>
      <trkpt lat="49.022820" lon="9.618334">
        <ele>526.079573</ele>
        <time>2022-07-23T09:49:50.999Z</time>
      </trkpt>
      <trkpt lat="49.022761" lon="9.618181">
        <ele>526.215976</ele>
        <time>2022-07-23T09:49:52.999Z</time>
      </trkpt>
      <trkpt lat="49.022697" lon="9.618043">
        <ele>526.345871</ele>
        <time>2022-07-23T09:49:54.999Z</time>
      </trkpt>
      <trkpt lat="49.022603" lon="9.617948">
        <ele>526.683493</ele>
        <time>2022-07-23T09:49:56.999Z</time>
      </trkpt>
      <trkpt lat="49.022501" lon="9.617882">
        <ele>527.088092</ele>
        <time>2022-07-23T09:49:58.999Z</time>
      </trkpt>
      <trkpt lat="49.022395" lon="9.617829">
        <ele>527.495430</ele>
        <time>2022-07-23T09:50:00.999Z</time>
      </trkpt>
      <trkpt lat="49.022284" lon="9.617764">
        <ele>527.929609</ele>
        <time>2022-07-23T09:50:02.999Z</time>
      </trkpt>
      <trkpt lat="49.022182" lon="9.617672">
        <ele>528.362340</ele>
        <time>2022-07-23T09:50:04.999Z</time>
      </trkpt>
      <trkpt lat="49.022089" lon="9.617561">
        <ele>528.793583</ele>
        <time>2022-07-23T09:50:06.999Z</time>
      </trkpt>
      <trkpt lat="49.022009" lon="9.617432">
        <ele>529.218736</ele>
        <time>2022-07-23T09:50:08.999Z</time>
      </trkpt>
      <trkpt lat="49.021924" lon="9.617301">
        <ele>529.660026</ele>
        <time>2022-07-23T09:50:10.999Z</time>
      </trkpt>
      <trkpt lat="49.021845" lon="9.617168">
        <ele>530.089728</ele>
        <time>2022-07-23T09:50:12.999Z</time>
      </trkpt>
      <trkpt lat="49.021767" lon="9.617046">
        <ele>530.497732</ele>
        <time>2022-07-23T09:50:14.999Z</time>
      </trkpt>
      <trkpt lat="49.021692" lon="9.616928">
        <ele>530.891233</ele>
        <time>2022-07-23T09:50:16.999Z</time>
      </trkpt>
      <trkpt lat="49.021617" lon="9.616791">
        <ele>531.318579</ele>
        <time>2022-07-23T09:50:18.999Z</time>
      </trkpt>
      <trkpt lat="49.021548" lon="9.616652">
        <ele>531.736035</ele>
        <time>2022-07-23T09:50:20.999Z</time>
      </trkpt>
      <trkpt lat="49.021481" lon="9.616517">
        <ele>532.141447</ele>
        <time>2022-07-23T09:50:22.999Z</time>
      </trkpt>
      <trkpt lat="49.021433" lon="9.616362">
        <ele>532.551912</ele>
        <time>2022-07-23T09:50:24.999Z</time>
      </trkpt>
      <trkpt lat="49.021389" lon="9.616190">
        <ele>532.938505</ele>
        <time>2022-07-23T09:50:26.999Z</time>
      </trkpt>
      <trkpt lat="49.021358" lon="9.616016">
        <ele>532.840898</ele>
        <time>2022-07-23T09:50:28.999Z</time>
      </trkpt>
      <trkpt lat="49.021324" lon="9.615837">
        <ele>532.740015</ele>
        <time>2022-07-23T09:50:30.999Z</time>
      </trkpt>
      <trkpt lat="49.021276" lon="9.615665">
        <ele>532.638825</ele>
        <time>2022-07-23T09:50:32.999Z</time>
      </trkpt>
      <trkpt lat="49.021228" lon="9.615496">
        <ele>532.539126</ele>
        <time>2022-07-23T09:50:34.999Z</time>
      </trkpt>
      <trkpt lat="49.021172" lon="9.615346">
        <ele>532.445688</ele>
        <time>2022-07-23T09:50:36.999Z</time>
      </trkpt>
      <trkpt lat="49.021108" lon="9.615208">
        <ele>532.354189</ele>
        <time>2022-07-23T09:50:38.999Z</time>
      </trkpt>
      <trkpt lat="49.021020" lon="9.615096">
        <ele>532.259569</ele>
        <time>2022-07-23T09:50:40.999Z</time>
      </trkpt>
      <trkpt lat="49.020916" lon="9.615030">
        <ele>532.166580</ele>
        <time>2022-07-23T09:50:42.999Z</time>
      </trkpt>
      <trkpt lat="49.020807" lon="9.614992">
        <ele>532.074279</ele>
        <time>2022-07-23T09:50:44.999Z</time>
      </trkpt>
      <trkpt lat="49.020701" lon="9.614963">
        <ele>531.985380</ele>
        <time>2022-07-23T09:50:46.999Z</time>
      </trkpt>
      <trkpt lat="49.020603" lon="9.614888">
        <ele>531.894865</ele>
        <time>2022-07-23T09:50:48.999Z</time>
      </trkpt>
      <trkpt lat="49.020510" lon="9.614770">
        <ele>531.794994</ele>
        <time>2022-07-23T09:50:50.999Z</time>
      </trkpt>
      <trkpt lat="49.020447" lon="9.614622">
        <ele>531.699475</ele>
        <time>2022-07-23T09:50:52.999Z</time>
      </trkpt>
      <trkpt lat="49.020396" lon="9.614479">
        <ele>531.611355</ele>
        <time>2022-07-23T09:50:54.999Z</time>
      </trkpt>
      <trkpt lat="49.020354" lon="9.614350">
        <ele>531.533388</ele>
        <time>2022-07-23T09:50:56.999Z</time>
      </trkpt>
      <trkpt lat="49.020322" lon="9.614184">
        <ele>531.440384</ele>
        <time>2022-07-23T09:50:59.999Z</time>
      </trkpt>
      <trkpt lat="49.020301" lon="9.614042">
        <ele>531.363732</ele>
        <time>2022-07-23T09:51:02.999Z</time>
      </trkpt>
      <trkpt lat="49.020291" lon="9.613871">
        <ele>531.273329</ele>
        <time>2022-07-23T09:51:06.999Z</time>
      </trkpt>
      <trkpt lat="49.020281" lon="9.613700">
        <ele>531.182927</ele>
        <time>2022-07-23T09:51:09.999Z</time>
      </trkpt>
      <trkpt lat="49.020265" lon="9.613546">
        <ele>531.100823</ele>
        <time>2022-07-23T09:51:11.999Z</time>
      </trkpt>
      <trkpt lat="49.020247" lon="9.613381">
        <ele>531.012743</ele>
        <time>2022-07-23T09:51:13.999Z</time>
      </trkpt>
      <trkpt lat="49.020238" lon="9.613215">
        <ele>530.925033</ele>
        <time>2022-07-23T09:51:15.999Z</time>
      </trkpt>
      <trkpt lat="49.020227" lon="9.613047">
        <ele>530.836128</ele>
        <time>2022-07-23T09:51:17.999Z</time>
      </trkpt>
      <trkpt lat="49.020211" lon="9.612878">
        <ele>530.746213</ele>
        <time>2022-07-23T09:51:19.999Z</time>
      </trkpt>
      <trkpt lat="49.020195" lon="9.612707">
        <ele>530.655256</ele>
        <time>2022-07-23T09:51:21.999Z</time>
      </trkpt>
      <trkpt lat="49.020180" lon="9.612531">
        <ele>530.561799</ele>
        <time>2022-07-23T09:51:23.999Z</time>
      </trkpt>
      <trkpt lat="49.020155" lon="9.612351">
        <ele>530.464912</ele>
        <time>2022-07-23T09:51:25.999Z</time>
      </trkpt>
      <trkpt lat="49.020134" lon="9.612167">
        <ele>530.366565</ele>
        <time>2022-07-23T09:51:27.999Z</time>
      </trkpt>
      <trkpt lat="49.020122" lon="9.611971">
        <ele>530.262906</ele>
        <time>2022-07-23T09:51:29.999Z</time>
      </trkpt>
      <trkpt lat="49.020106" lon="9.611770">
        <ele>530.156286</ele>
        <time>2022-07-23T09:51:31.999Z</time>
      </trkpt>
      <trkpt lat="49.020098" lon="9.611565">
        <ele>530.048146</ele>
        <time>2022-07-23T09:51:33.999Z</time>
      </trkpt>
      <trkpt lat="49.020102" lon="9.611361">
        <ele>529.902156</ele>
        <time>2022-07-23T09:51:35.999Z</time>
      </trkpt>
      <trkpt lat="49.020110" lon="9.611156">
        <ele>529.741320</ele>
        <time>2022-07-23T09:51:37.999Z</time>
      </trkpt>
      <trkpt lat="49.020106" lon="9.610956">
        <ele>529.584610</ele>
        <time>2022-07-23T09:51:39.999Z</time>
      </trkpt>
      <trkpt lat="49.020108" lon="9.610757">
        <ele>529.428739</ele>
        <time>2022-07-23T09:51:41.999Z</time>
      </trkpt>
      <trkpt lat="49.020108" lon="9.610551">
        <ele>529.267403</ele>
        <time>2022-07-23T09:51:43.999Z</time>
      </trkpt>
      <trkpt lat="49.020108" lon="9.610346">
        <ele>529.106851</ele>
        <time>2022-07-23T09:51:45.999Z</time>
      </trkpt>
      <trkpt lat="49.020105" lon="9.610143">
        <ele>528.947824</ele>
        <time>2022-07-23T09:51:47.999Z</time>
      </trkpt>
      <trkpt lat="49.020101" lon="9.609938">
        <ele>528.787201</ele>
        <time>2022-07-23T09:51:49.999Z</time>
      </trkpt>
      <trkpt lat="49.020099" lon="9.609733">
        <ele>528.626630</ele>
        <time>2022-07-23T09:51:51.999Z</time>
      </trkpt>
      <trkpt lat="49.020096" lon="9.609526">
        <ele>528.464472</ele>
        <time>2022-07-23T09:51:53.999Z</time>
      </trkpt>
      <trkpt lat="49.020090" lon="9.609319">
        <ele>528.302195</ele>
        <time>2022-07-23T09:51:55.999Z</time>
      </trkpt>
      <trkpt lat="49.020092" lon="9.609108">
        <ele>528.136926</ele>
        <time>2022-07-23T09:51:57.999Z</time>
      </trkpt>
      <trkpt lat="49.020090" lon="9.608897">
        <ele>527.971657</ele>
        <time>2022-07-23T09:51:59.999Z</time>
      </trkpt>
      <trkpt lat="49.020088" lon="9.608689">
        <ele>528.030778</ele>
        <time>2022-07-23T09:52:01.999Z</time>
      </trkpt>
      <trkpt lat="49.020088" lon="9.608479">
        <ele>528.446379</ele>
        <time>2022-07-23T09:52:03.999Z</time>
      </trkpt>
      <trkpt lat="49.020083" lon="9.608266">
        <ele>528.868188</ele>
        <time>2022-07-23T09:52:05.999Z</time>
      </trkpt>
      <trkpt lat="49.020075" lon="9.608053">
        <ele>529.290417</ele>
        <time>2022-07-23T09:52:07.999Z</time>
      </trkpt>
      <trkpt lat="49.020065" lon="9.607839">
        <ele>529.715009</ele>
        <time>2022-07-23T09:52:09.999Z</time>
      </trkpt>
      <trkpt lat="49.020045" lon="9.607629">
        <ele>530.134970</ele>
        <time>2022-07-23T09:52:11.999Z</time>
      </trkpt>
      <trkpt lat="49.020030" lon="9.607418">
        <ele>530.554998</ele>
        <time>2022-07-23T09:52:13.999Z</time>
      </trkpt>
      <trkpt lat="49.020021" lon="9.607207">
        <ele>530.973461</ele>
        <time>2022-07-23T09:52:15.999Z</time>
      </trkpt>
      <trkpt lat="49.020000" lon="9.606998">
        <ele>531.391911</ele>
        <time>2022-07-23T09:52:17.999Z</time>
      </trkpt>
      <trkpt lat="49.019978" lon="9.606785">
        <ele>531.818646</ele>
        <time>2022-07-23T09:52:19.999Z</time>
      </trkpt>
      <trkpt lat="49.019953" lon="9.606576">
        <ele>532.239094</ele>
        <time>2022-07-23T09:52:21.999Z</time>
      </trkpt>
      <trkpt lat="49.019923" lon="9.606372">
        <ele>532.652849</ele>
        <time>2022-07-23T09:52:23.999Z</time>
      </trkpt>
      <trkpt lat="49.019881" lon="9.606161">
        <ele>533.089243</ele>
        <time>2022-07-23T09:52:25.999Z</time>
      </trkpt>
      <trkpt lat="49.019841" lon="9.605973">
        <ele>533.349248</ele>
        <time>2022-07-23T09:52:27.999Z</time>
      </trkpt>
      <trkpt lat="49.019796" lon="9.605794">
        <ele>533.453380</ele>
        <time>2022-07-23T09:52:29.999Z</time>
      </trkpt>
      <trkpt lat="49.019754" lon="9.605625">
        <ele>533.551550</ele>
        <time>2022-07-23T09:52:31.999Z</time>
      </trkpt>
      <trkpt lat="49.019711" lon="9.605449">
        <ele>533.653572</ele>
        <time>2022-07-23T09:52:33.999Z</time>
      </trkpt>
      <trkpt lat="49.019672" lon="9.605278">
        <ele>533.751915</ele>
        <time>2022-07-23T09:52:35.999Z</time>
      </trkpt>
      <trkpt lat="49.019632" lon="9.605106">
        <ele>533.851045</ele>
        <time>2022-07-23T09:52:37.999Z</time>
      </trkpt>
      <trkpt lat="49.019597" lon="9.604926">
        <ele>533.953028</ele>
        <time>2022-07-23T09:52:39.999Z</time>
      </trkpt>
      <trkpt lat="49.019562" lon="9.604745">
        <ele>534.055532</ele>
        <time>2022-07-23T09:52:41.999Z</time>
      </trkpt>
      <trkpt lat="49.019526" lon="9.604565">
        <ele>534.157753</ele>
        <time>2022-07-23T09:52:43.999Z</time>
      </trkpt>
      <trkpt lat="49.019491" lon="9.604385">
        <ele>534.259736</ele>
        <time>2022-07-23T09:52:45.999Z</time>
      </trkpt>
      <trkpt lat="49.019455" lon="9.604208">
        <ele>534.360400</ele>
        <time>2022-07-23T09:52:47.999Z</time>
      </trkpt>
      <trkpt lat="49.019421" lon="9.604035">
        <ele>534.458503</ele>
        <time>2022-07-23T09:52:49.999Z</time>
      </trkpt>
      <trkpt lat="49.019389" lon="9.603868">
        <ele>534.553010</ele>
        <time>2022-07-23T09:52:51.999Z</time>
      </trkpt>
      <trkpt lat="49.019367" lon="9.603718">
        <ele>534.636503</ele>
        <time>2022-07-23T09:52:53.999Z</time>
      </trkpt>
      <trkpt lat="49.019351" lon="9.603582">
        <ele>534.711557</ele>
        <time>2022-07-23T09:52:56.000Z</time>
      </trkpt>
      <trkpt lat="49.019321" lon="9.603405">
        <ele>534.733925</ele>
        <time>2022-07-23T09:52:59.000Z</time>
      </trkpt>
      <trkpt lat="49.019301" lon="9.603272">
        <ele>534.541821</ele>
        <time>2022-07-23T09:53:07.000Z</time>
      </trkpt>
      <trkpt lat="49.019224" lon="9.602971">
        <ele>534.086959</ele>
        <time>2022-07-23T09:56:13.999Z</time>
      </trkpt>
      <trkpt lat="49.019194" lon="9.602805">
        <ele>533.844543</ele>
        <time>2022-07-23T09:56:16.999Z</time>
      </trkpt>
      <trkpt lat="49.019171" lon="9.602643">
        <ele>533.611187</ele>
        <time>2022-07-23T09:56:18.999Z</time>
      </trkpt>
      <trkpt lat="49.019157" lon="9.602495">
        <ele>533.400668</ele>
        <time>2022-07-23T09:56:20.999Z</time>
      </trkpt>
      <trkpt lat="49.019142" lon="9.602337">
        <ele>533.175908</ele>
        <time>2022-07-23T09:56:22.999Z</time>
      </trkpt>
      <trkpt lat="49.019137" lon="9.602158">
        <ele>532.923673</ele>
        <time>2022-07-23T09:56:24.999Z</time>
      </trkpt>
      <trkpt lat="49.019129" lon="9.601982">
        <ele>532.675296</ele>
        <time>2022-07-23T09:56:26.999Z</time>
      </trkpt>
      <trkpt lat="49.019118" lon="9.601823">
        <ele>532.450204</ele>
        <time>2022-07-23T09:56:28.999Z</time>
      </trkpt>
      <trkpt lat="49.019111" lon="9.601664">
        <ele>532.225851</ele>
        <time>2022-07-23T09:56:30.999Z</time>
      </trkpt>
      <trkpt lat="49.019104" lon="9.601496">
        <ele>531.988854</ele>
        <time>2022-07-23T09:56:32.999Z</time>
      </trkpt>
      <trkpt lat="49.019099" lon="9.601330">
        <ele>531.754903</ele>
        <time>2022-07-23T09:56:34.999Z</time>
      </trkpt>
      <trkpt lat="49.019120" lon="9.601183">
        <ele>531.543095</ele>
        <time>2022-07-23T09:56:36.999Z</time>
      </trkpt>
      <trkpt lat="49.019176" lon="9.601031">
        <ele>531.297644</ele>
        <time>2022-07-23T09:56:39.999Z</time>
      </trkpt>
      <trkpt lat="49.019117" lon="9.600884">
        <ele>531.055007</ele>
        <time>2022-07-23T09:56:42.999Z</time>
      </trkpt>
      <trkpt lat="49.019020" lon="9.600805">
        <ele>530.272455</ele>
        <time>2022-07-23T09:56:44.999Z</time>
      </trkpt>
      <trkpt lat="49.018950" lon="9.600680">
        <ele>528.883647</ele>
        <time>2022-07-23T09:56:46.999Z</time>
      </trkpt>
      <trkpt lat="49.018874" lon="9.600545">
        <ele>527.380382</ele>
        <time>2022-07-23T09:56:48.999Z</time>
      </trkpt>
      <trkpt lat="49.018783" lon="9.600388">
        <ele>525.610012</ele>
        <time>2022-07-23T09:56:50.999Z</time>
      </trkpt>
      <trkpt lat="49.018685" lon="9.600241">
        <ele>523.838912</ele>
        <time>2022-07-23T09:56:52.999Z</time>
      </trkpt>
      <trkpt lat="49.018594" lon="9.600082">
        <ele>522.055841</ele>
        <time>2022-07-23T09:56:54.999Z</time>
      </trkpt>
      <trkpt lat="49.018492" lon="9.599919">
        <ele>520.152241</ele>
        <time>2022-07-23T09:56:57.000Z</time>
      </trkpt>
      <trkpt lat="49.018373" lon="9.599735">
        <ele>517.968773</ele>
        <time>2022-07-23T09:56:59.000Z</time>
      </trkpt>
      <trkpt lat="49.018262" lon="9.599548">
        <ele>515.837673</ele>
        <time>2022-07-23T09:57:01.000Z</time>
      </trkpt>
      <trkpt lat="49.018194" lon="9.599427">
        <ele>514.491286</ele>
        <time>2022-07-23T09:57:02.000Z</time>
      </trkpt>
      <trkpt lat="49.018090" lon="9.599290">
        <ele>512.720620</ele>
        <time>2022-07-23T09:57:04.000Z</time>
      </trkpt>
      <trkpt lat="49.017992" lon="9.599120">
        <ele>510.808199</ele>
        <time>2022-07-23T09:57:06.000Z</time>
      </trkpt>
      <trkpt lat="49.017905" lon="9.598980">
        <ele>509.178587</ele>
        <time>2022-07-23T09:57:08.000Z</time>
      </trkpt>
      <trkpt lat="49.017821" lon="9.598841">
        <ele>507.650577</ele>
        <time>2022-07-23T09:57:10.000Z</time>
      </trkpt>
      <trkpt lat="49.017743" lon="9.598700">
        <ele>506.711652</ele>
        <time>2022-07-23T09:57:12.000Z</time>
      </trkpt>
      <trkpt lat="49.017673" lon="9.598556">
        <ele>505.799285</ele>
        <time>2022-07-23T09:57:14.000Z</time>
      </trkpt>
      <trkpt lat="49.017618" lon="9.598406">
        <ele>504.924545</ele>
        <time>2022-07-23T09:57:16.000Z</time>
      </trkpt>
      <trkpt lat="49.017576" lon="9.598246">
        <ele>504.047316</ele>
        <time>2022-07-23T09:57:18.000Z</time>
      </trkpt>
      <trkpt lat="49.017529" lon="9.598068">
        <ele>503.070604</ele>
        <time>2022-07-23T09:57:20.000Z</time>
      </trkpt>
      <trkpt lat="49.017481" lon="9.597878">
        <ele>502.034213</ele>
        <time>2022-07-23T09:57:22.000Z</time>
      </trkpt>
      <trkpt lat="49.017413" lon="9.597691">
        <ele>500.945839</ele>
        <time>2022-07-23T09:57:24.000Z</time>
      </trkpt>
      <trkpt lat="49.017335" lon="9.597509">
        <ele>499.839175</ele>
        <time>2022-07-23T09:57:26.000Z</time>
      </trkpt>
      <trkpt lat="49.017245" lon="9.597343">
        <ele>498.742870</ele>
        <time>2022-07-23T09:57:28.000Z</time>
      </trkpt>
      <trkpt lat="49.017153" lon="9.597190">
        <ele>497.686287</ele>
        <time>2022-07-23T09:57:30.000Z</time>
      </trkpt>
      <trkpt lat="49.017059" lon="9.597060">
        <ele>496.701333</ele>
        <time>2022-07-23T09:57:32.000Z</time>
      </trkpt>
      <trkpt lat="49.016972" lon="9.596947">
        <ele>495.814325</ele>
        <time>2022-07-23T09:57:34.000Z</time>
      </trkpt>
      <trkpt lat="49.016894" lon="9.596852">
        <ele>495.039520</ele>
        <time>2022-07-23T09:57:36.000Z</time>
      </trkpt>
      <trkpt lat="49.016820" lon="9.596764">
        <ele>494.311160</ele>
        <time>2022-07-23T09:57:37.999Z</time>
      </trkpt>
      <trkpt lat="49.016743" lon="9.596658">
        <ele>493.794691</ele>
        <time>2022-07-23T09:57:39.999Z</time>
      </trkpt>
      <trkpt lat="49.016661" lon="9.596549">
        <ele>493.792801</ele>
        <time>2022-07-23T09:57:41.999Z</time>
      </trkpt>
      <trkpt lat="49.016579" lon="9.596441">
        <ele>493.790918</ele>
        <time>2022-07-23T09:57:43.999Z</time>
      </trkpt>
      <trkpt lat="49.016494" lon="9.596330">
        <ele>493.788974</ele>
        <time>2022-07-23T09:57:45.999Z</time>
      </trkpt>
      <trkpt lat="49.016410" lon="9.596217">
        <ele>493.787027</ele>
        <time>2022-07-23T09:57:47.999Z</time>
      </trkpt>
      <trkpt lat="49.016324" lon="9.596103">
        <ele>493.785047</ele>
        <time>2022-07-23T09:57:49.999Z</time>
      </trkpt>
      <trkpt lat="49.016238" lon="9.595988">
        <ele>493.783059</ele>
        <time>2022-07-23T09:57:51.999Z</time>
      </trkpt>
      <trkpt lat="49.016153" lon="9.595867">
        <ele>493.781039</ele>
        <time>2022-07-23T09:57:53.999Z</time>
      </trkpt>
      <trkpt lat="49.016066" lon="9.595753">
        <ele>493.779046</ele>
        <time>2022-07-23T09:57:55.999Z</time>
      </trkpt>
      <trkpt lat="49.015977" lon="9.595644">
        <ele>493.777062</ele>
        <time>2022-07-23T09:57:57.999Z</time>
      </trkpt>
      <trkpt lat="49.015893" lon="9.595527">
        <ele>493.775085</ele>
        <time>2022-07-23T09:57:59.999Z</time>
      </trkpt>
      <trkpt lat="49.015807" lon="9.595415">
        <ele>493.773120</ele>
        <time>2022-07-23T09:58:01.999Z</time>
      </trkpt>
      <trkpt lat="49.015722" lon="9.595300">
        <ele>493.771145</ele>
        <time>2022-07-23T09:58:03.999Z</time>
      </trkpt>
      <trkpt lat="49.015637" lon="9.595181">
        <ele>493.769140</ele>
        <time>2022-07-23T09:58:05.999Z</time>
      </trkpt>
      <trkpt lat="49.015550" lon="9.595066">
        <ele>493.767139</ele>
        <time>2022-07-23T09:58:07.999Z</time>
      </trkpt>
      <trkpt lat="49.015464" lon="9.594952">
        <ele>493.765159</ele>
        <time>2022-07-23T09:58:09.999Z</time>
      </trkpt>
      <trkpt lat="49.015378" lon="9.594835">
        <ele>493.900332</ele>
        <time>2022-07-23T09:58:11.999Z</time>
      </trkpt>
      <trkpt lat="49.015290" lon="9.594721">
        <ele>494.194563</ele>
        <time>2022-07-23T09:58:13.999Z</time>
      </trkpt>
      <trkpt lat="49.015211" lon="9.594598">
        <ele>494.482262</ele>
        <time>2022-07-23T09:58:15.999Z</time>
      </trkpt>
      <trkpt lat="49.015126" lon="9.594476">
        <ele>494.779710</ele>
        <time>2022-07-23T09:58:17.999Z</time>
      </trkpt>
      <trkpt lat="49.015045" lon="9.594346">
        <ele>495.079367</ele>
        <time>2022-07-23T09:58:19.999Z</time>
      </trkpt>
      <trkpt lat="49.014961" lon="9.594210">
        <ele>495.391562</ele>
        <time>2022-07-23T09:58:21.999Z</time>
      </trkpt>
      <trkpt lat="49.014884" lon="9.594071">
        <ele>495.695623</ele>
        <time>2022-07-23T09:58:23.999Z</time>
      </trkpt>
      <trkpt lat="49.014802" lon="9.593941">
        <ele>495.997041</ele>
        <time>2022-07-23T09:58:25.999Z</time>
      </trkpt>
      <trkpt lat="49.014724" lon="9.593818">
        <ele>496.282965</ele>
        <time>2022-07-23T09:58:27.999Z</time>
      </trkpt>
      <trkpt lat="49.014648" lon="9.593688">
        <ele>496.573995</ele>
        <time>2022-07-23T09:58:29.999Z</time>
      </trkpt>
      <trkpt lat="49.014570" lon="9.593554">
        <ele>496.873407</ele>
        <time>2022-07-23T09:58:31.999Z</time>
      </trkpt>
      <trkpt lat="49.014496" lon="9.593423">
        <ele>497.162337</ele>
        <time>2022-07-23T09:58:33.999Z</time>
      </trkpt>
      <trkpt lat="49.014425" lon="9.593292">
        <ele>497.446337</ele>
        <time>2022-07-23T09:58:35.999Z</time>
      </trkpt>
      <trkpt lat="49.014352" lon="9.593161">
        <ele>497.733610</ele>
        <time>2022-07-23T09:58:37.999Z</time>
      </trkpt>
      <trkpt lat="49.014277" lon="9.593018">
        <ele>498.039602</ele>
        <time>2022-07-23T09:58:39.999Z</time>
      </trkpt>
      <trkpt lat="49.014211" lon="9.592863">
        <ele>498.348676</ele>
        <time>2022-07-23T09:58:41.999Z</time>
      </trkpt>
      <trkpt lat="49.014174" lon="9.592687">
        <ele>498.712071</ele>
        <time>2022-07-23T09:58:43.999Z</time>
      </trkpt>
      <trkpt lat="49.014161" lon="9.592505">
        <ele>499.072038</ele>
        <time>2022-07-23T09:58:45.999Z</time>
      </trkpt>
      <trkpt lat="49.014172" lon="9.592327">
        <ele>499.423574</ele>
        <time>2022-07-23T09:58:47.999Z</time>
      </trkpt>
      <trkpt lat="49.014189" lon="9.592157">
        <ele>499.761693</ele>
        <time>2022-07-23T09:58:49.999Z</time>
      </trkpt>
      <trkpt lat="49.014213" lon="9.591990">
        <ele>500.097841</ele>
        <time>2022-07-23T09:58:51.999Z</time>
      </trkpt>
      <trkpt lat="49.014251" lon="9.591822">
        <ele>500.447256</ele>
        <time>2022-07-23T09:58:53.999Z</time>
      </trkpt>
      <trkpt lat="49.014274" lon="9.591619">
        <ele>500.852308</ele>
        <time>2022-07-23T09:58:56.999Z</time>
      </trkpt>
      <trkpt lat="49.014276" lon="9.591482">
        <ele>501.121746</ele>
        <time>2022-07-23T09:58:58.999Z</time>
      </trkpt>
      <trkpt lat="49.014267" lon="9.591337">
        <ele>501.408120</ele>
        <time>2022-07-23T09:59:00.999Z</time>
      </trkpt>
      <trkpt lat="49.014253" lon="9.591189">
        <ele>501.702130</ele>
        <time>2022-07-23T09:59:03.000Z</time>
      </trkpt>
      <trkpt lat="49.014242" lon="9.591030">
        <ele>502.016492</ele>
        <time>2022-07-23T09:59:05.000Z</time>
      </trkpt>
      <trkpt lat="49.014236" lon="9.590874">
        <ele>502.323747</ele>
        <time>2022-07-23T09:59:07.000Z</time>
      </trkpt>
      <trkpt lat="49.014215" lon="9.590731">
        <ele>502.611877</ele>
        <time>2022-07-23T09:59:09.000Z</time>
      </trkpt>
      <trkpt lat="49.014191" lon="9.590574">
        <ele>502.928846</ele>
        <time>2022-07-23T09:59:11.000Z</time>
      </trkpt>
      <trkpt lat="49.014185" lon="9.590407">
        <ele>503.257696</ele>
        <time>2022-07-23T09:59:13.000Z</time>
      </trkpt>
      <trkpt lat="49.014171" lon="9.590240">
        <ele>503.588725</ele>
        <time>2022-07-23T09:59:15.000Z</time>
      </trkpt>
      <trkpt lat="49.014159" lon="9.590068">
        <ele>503.435283</ele>
        <time>2022-07-23T09:59:17.000Z</time>
      </trkpt>
      <trkpt lat="49.014140" lon="9.589901">
        <ele>502.901317</ele>
        <time>2022-07-23T09:59:19.000Z</time>
      </trkpt>
      <trkpt lat="49.014114" lon="9.589722">
        <ele>502.323740</ele>
        <time>2022-07-23T09:59:21.000Z</time>
      </trkpt>
      <trkpt lat="49.014092" lon="9.589539">
        <ele>501.737620</ele>
        <time>2022-07-23T09:59:23.000Z</time>
      </trkpt>
      <trkpt lat="49.014062" lon="9.589363">
        <ele>501.164738</ele>
        <time>2022-07-23T09:59:24.999Z</time>
      </trkpt>
      <trkpt lat="49.014009" lon="9.589203">
        <ele>500.600040</ele>
        <time>2022-07-23T09:59:26.999Z</time>
      </trkpt>
      <trkpt lat="49.013957" lon="9.589053">
        <ele>500.065537</ele>
        <time>2022-07-23T09:59:28.999Z</time>
      </trkpt>
      <trkpt lat="49.013895" lon="9.588896">
        <ele>499.488194</ele>
        <time>2022-07-23T09:59:30.999Z</time>
      </trkpt>
      <trkpt lat="49.013829" lon="9.588733">
        <ele>498.884709</ele>
        <time>2022-07-23T09:59:32.999Z</time>
      </trkpt>
      <trkpt lat="49.013761" lon="9.588563">
        <ele>498.257404</ele>
        <time>2022-07-23T09:59:34.999Z</time>
      </trkpt>
      <trkpt lat="49.013698" lon="9.588389">
        <ele>497.631258</ele>
        <time>2022-07-23T09:59:36.999Z</time>
      </trkpt>
      <trkpt lat="49.013635" lon="9.588225">
        <ele>497.032499</ele>
        <time>2022-07-23T09:59:38.999Z</time>
      </trkpt>
      <trkpt lat="49.013575" lon="9.588069">
        <ele>496.462769</ele>
        <time>2022-07-23T09:59:40.999Z</time>
      </trkpt>
      <trkpt lat="49.013504" lon="9.587920">
        <ele>495.882555</ele>
        <time>2022-07-23T09:59:42.999Z</time>
      </trkpt>
      <trkpt lat="49.013424" lon="9.587779">
        <ele>495.295206</ele>
        <time>2022-07-23T09:59:44.999Z</time>
      </trkpt>
      <trkpt lat="49.013335" lon="9.587646">
        <ele>494.391806</ele>
        <time>2022-07-23T09:59:46.999Z</time>
      </trkpt>
      <trkpt lat="49.013241" lon="9.587512">
        <ele>493.306311</ele>
        <time>2022-07-23T09:59:48.999Z</time>
      </trkpt>
      <trkpt lat="49.013146" lon="9.587374">
        <ele>492.199492</ele>
        <time>2022-07-23T09:59:50.999Z</time>
      </trkpt>
      <trkpt lat="49.013053" lon="9.587234">
        <ele>491.097078</ele>
        <time>2022-07-23T09:59:52.999Z</time>
      </trkpt>
      <trkpt lat="49.012963" lon="9.587083">
        <ele>489.968257</ele>
        <time>2022-07-23T09:59:54.999Z</time>
      </trkpt>
      <trkpt lat="49.012897" lon="9.586921">
        <ele>488.913160</ele>
        <time>2022-07-23T09:59:56.999Z</time>
      </trkpt>
      <trkpt lat="49.012824" lon="9.586740">
        <ele>487.737599</ele>
        <time>2022-07-23T09:59:58.999Z</time>
      </trkpt>
      <trkpt lat="49.012768" lon="9.586546">
        <ele>486.564941</ele>
        <time>2022-07-23T10:00:00.999Z</time>
      </trkpt>
      <trkpt lat="49.012700" lon="9.586344">
        <ele>485.308767</ele>
        <time>2022-07-23T10:00:02.999Z</time>
      </trkpt>
      <trkpt lat="49.012626" lon="9.586153">
        <ele>484.081463</ele>
        <time>2022-07-23T10:00:04.999Z</time>
      </trkpt>
      <trkpt lat="49.012556" lon="9.585945">
        <ele>482.788051</ele>
        <time>2022-07-23T10:00:06.999Z</time>
      </trkpt>
      <trkpt lat="49.012489" lon="9.585731">
        <ele>481.476113</ele>
        <time>2022-07-23T10:00:08.999Z</time>
      </trkpt>
      <trkpt lat="49.012445" lon="9.585527">
        <ele>480.288012</ele>
        <time>2022-07-23T10:00:10.999Z</time>
      </trkpt>
      <trkpt lat="49.012431" lon="9.585324">
        <ele>479.506051</ele>
        <time>2022-07-23T10:00:12.999Z</time>
      </trkpt>
      <trkpt lat="49.012417" lon="9.585125">
        <ele>478.898760</ele>
        <time>2022-07-23T10:00:14.999Z</time>
      </trkpt>
      <trkpt lat="49.012378" lon="9.584929">
        <ele>478.277269</ele>
        <time>2022-07-23T10:00:16.999Z</time>
      </trkpt>
      <trkpt lat="49.012310" lon="9.584765">
        <ele>477.688545</ele>
        <time>2022-07-23T10:00:18.999Z</time>
      </trkpt>
      <trkpt lat="49.012222" lon="9.584632">
        <ele>477.115308</ele>
        <time>2022-07-23T10:00:20.999Z</time>
      </trkpt>
      <trkpt lat="49.012120" lon="9.584553">
        <ele>476.586038</ele>
        <time>2022-07-23T10:00:22.999Z</time>
      </trkpt>
      <trkpt lat="49.012014" lon="9.584513">
        <ele>476.080862</ele>
        <time>2022-07-23T10:00:24.999Z</time>
      </trkpt>
      <trkpt lat="49.011904" lon="9.584503">
        <ele>475.571075</ele>
        <time>2022-07-23T10:00:26.999Z</time>
      </trkpt>
      <trkpt lat="49.011791" lon="9.584528">
        <ele>475.042838</ele>
        <time>2022-07-23T10:00:28.999Z</time>
      </trkpt>
      <trkpt lat="49.011687" lon="9.584550">
        <ele>474.557102</ele>
        <time>2022-07-23T10:00:30.999Z</time>
      </trkpt>
      <trkpt lat="49.011589" lon="9.584563">
        <ele>474.102021</ele>
        <time>2022-07-23T10:00:32.999Z</time>
      </trkpt>
      <trkpt lat="49.011491" lon="9.584574">
        <ele>473.647425</ele>
        <time>2022-07-23T10:00:34.999Z</time>
      </trkpt>
      <trkpt lat="49.011370" lon="9.584587">
        <ele>473.086265</ele>
        <time>2022-07-23T10:00:36.999Z</time>
      </trkpt>
      <trkpt lat="49.011250" lon="9.584560">
        <ele>472.525106</ele>
        <time>2022-07-23T10:00:38.999Z</time>
      </trkpt>
      <trkpt lat="49.011126" lon="9.584518">
        <ele>471.937469</ele>
        <time>2022-07-23T10:00:40.999Z</time>
      </trkpt>
      <trkpt lat="49.011003" lon="9.584474">
        <ele>471.530783</ele>
        <time>2022-07-23T10:00:42.999Z</time>
      </trkpt>
      <trkpt lat="49.010882" lon="9.584425">
        <ele>471.356972</ele>
        <time>2022-07-23T10:00:44.999Z</time>
      </trkpt>
      <trkpt lat="49.010764" lon="9.584377">
        <ele>471.187419</ele>
        <time>2022-07-23T10:00:46.999Z</time>
      </trkpt>
      <trkpt lat="49.010643" lon="9.584334">
        <ele>471.014929</ele>
        <time>2022-07-23T10:00:48.999Z</time>
      </trkpt>
      <trkpt lat="49.010519" lon="9.584284">
        <ele>470.836858</ele>
        <time>2022-07-23T10:00:50.999Z</time>
      </trkpt>
      <trkpt lat="49.010393" lon="9.584234">
        <ele>470.656102</ele>
        <time>2022-07-23T10:00:52.999Z</time>
      </trkpt>
      <trkpt lat="49.010264" lon="9.584187">
        <ele>470.471966</ele>
        <time>2022-07-23T10:00:54.999Z</time>
      </trkpt>
      <trkpt lat="49.010135" lon="9.584136">
        <ele>470.286949</ele>
        <time>2022-07-23T10:00:56.999Z</time>
      </trkpt>
      <trkpt lat="49.010006" lon="9.584092">
        <ele>470.103428</ele>
        <time>2022-07-23T10:00:58.999Z</time>
      </trkpt>
      <trkpt lat="49.009880" lon="9.584049">
        <ele>469.924171</ele>
        <time>2022-07-23T10:01:00.999Z</time>
      </trkpt>
      <trkpt lat="49.009750" lon="9.584022">
        <ele>469.742022</ele>
        <time>2022-07-23T10:01:02.999Z</time>
      </trkpt>
      <trkpt lat="49.009619" lon="9.584030">
        <ele>469.560007</ele>
        <time>2022-07-23T10:01:04.999Z</time>
      </trkpt>
      <trkpt lat="49.009495" lon="9.584079">
        <ele>469.382166</ele>
        <time>2022-07-23T10:01:06.999Z</time>
      </trkpt>
      <trkpt lat="49.009383" lon="9.584141">
        <ele>469.216741</ele>
        <time>2022-07-23T10:01:08.999Z</time>
      </trkpt>
      <trkpt lat="49.009281" lon="9.584226">
        <ele>469.157347</ele>
        <time>2022-07-23T10:01:10.999Z</time>
      </trkpt>
      <trkpt lat="49.009175" lon="9.584309">
        <ele>469.301123</ele>
        <time>2022-07-23T10:01:12.999Z</time>
      </trkpt>
      <trkpt lat="49.009064" lon="9.584378">
        <ele>469.445753</ele>
        <time>2022-07-23T10:01:14.999Z</time>
      </trkpt>
      <trkpt lat="49.008948" lon="9.584438">
        <ele>469.593547</ele>
        <time>2022-07-23T10:01:16.999Z</time>
      </trkpt>
      <trkpt lat="49.008824" lon="9.584486">
        <ele>469.747904</ele>
        <time>2022-07-23T10:01:18.999Z</time>
      </trkpt>
      <trkpt lat="49.008702" lon="9.584524">
        <ele>469.898142</ele>
        <time>2022-07-23T10:01:20.999Z</time>
      </trkpt>
      <trkpt lat="49.008579" lon="9.584567">
        <ele>470.050398</ele>
        <time>2022-07-23T10:01:22.999Z</time>
      </trkpt>
      <trkpt lat="49.008462" lon="9.584614">
        <ele>470.196380</ele>
        <time>2022-07-23T10:01:24.999Z</time>
      </trkpt>
      <trkpt lat="49.008349" lon="9.584666">
        <ele>470.338794</ele>
        <time>2022-07-23T10:01:26.999Z</time>
      </trkpt>
      <trkpt lat="49.008232" lon="9.584714">
        <ele>470.484981</ele>
        <time>2022-07-23T10:01:28.999Z</time>
      </trkpt>
      <trkpt lat="49.008120" lon="9.584771">
        <ele>470.627444</ele>
        <time>2022-07-23T10:01:30.999Z</time>
      </trkpt>
      <trkpt lat="49.007999" lon="9.584821">
        <ele>470.778702</ele>
        <time>2022-07-23T10:01:32.999Z</time>
      </trkpt>
      <trkpt lat="49.007872" lon="9.584882">
        <ele>470.939357</ele>
        <time>2022-07-23T10:01:34.999Z</time>
      </trkpt>
      <trkpt lat="49.007750" lon="9.584921">
        <ele>471.089756</ele>
        <time>2022-07-23T10:01:36.999Z</time>
      </trkpt>
      <trkpt lat="49.007626" lon="9.584940">
        <ele>471.240119</ele>
        <time>2022-07-23T10:01:38.999Z</time>
      </trkpt>
      <trkpt lat="49.007505" lon="9.584954">
        <ele>471.182069</ele>
        <time>2022-07-23T10:01:40.999Z</time>
      </trkpt>
      <trkpt lat="49.007385" lon="9.584955">
        <ele>471.048845</ele>
        <time>2022-07-23T10:01:42.999Z</time>
      </trkpt>
      <trkpt lat="49.007261" lon="9.584952">
        <ele>470.911165</ele>
        <time>2022-07-23T10:01:44.999Z</time>
      </trkpt>
      <trkpt lat="49.007133" lon="9.584955">
        <ele>470.769044</ele>
        <time>2022-07-23T10:01:46.999Z</time>
      </trkpt>
      <trkpt lat="49.007003" lon="9.584958">
        <ele>470.624704</ele>
        <time>2022-07-23T10:01:48.999Z</time>
      </trkpt>
      <trkpt lat="49.006867" lon="9.584961">
        <ele>470.473703</ele>
        <time>2022-07-23T10:01:50.999Z</time>
      </trkpt>
      <trkpt lat="49.006734" lon="9.584965">
        <ele>470.326020</ele>
        <time>2022-07-23T10:01:52.999Z</time>
      </trkpt>
      <trkpt lat="49.006600" lon="9.584971">
        <ele>470.177191</ele>
        <time>2022-07-23T10:01:54.999Z</time>
      </trkpt>
      <trkpt lat="49.006469" lon="9.584976">
        <ele>470.031711</ele>
        <time>2022-07-23T10:01:56.999Z</time>
      </trkpt>
      <trkpt lat="49.006351" lon="9.584982">
        <ele>469.900637</ele>
        <time>2022-07-23T10:01:58.999Z</time>
      </trkpt>
      <trkpt lat="49.006242" lon="9.584992">
        <ele>469.779407</ele>
        <time>2022-07-23T10:02:00.999Z</time>
      </trkpt>
      <trkpt lat="49.006143" lon="9.584985">
        <ele>469.669381</ele>
        <time>2022-07-23T10:02:02.999Z</time>
      </trkpt>
      <trkpt lat="49.006043" lon="9.584958">
        <ele>469.556635</ele>
        <time>2022-07-23T10:02:04.999Z</time>
      </trkpt>
      <trkpt lat="49.005937" lon="9.584866">
        <ele>469.421219</ele>
        <time>2022-07-23T10:02:06.999Z</time>
      </trkpt>
      <trkpt lat="49.005846" lon="9.584740">
        <ele>469.284740</ele>
        <time>2022-07-23T10:02:08.999Z</time>
      </trkpt>
      <trkpt lat="49.005776" lon="9.584592">
        <ele>468.397670</ele>
        <time>2022-07-23T10:02:10.999Z</time>
      </trkpt>
      <trkpt lat="49.005721" lon="9.584425">
        <ele>467.480246</ele>
        <time>2022-07-23T10:02:12.999Z</time>
      </trkpt>
      <trkpt lat="49.005702" lon="9.584233">
        <ele>466.526948</ele>
        <time>2022-07-23T10:02:14.999Z</time>
      </trkpt>
      <trkpt lat="49.005703" lon="9.584042">
        <ele>465.589195</ele>
        <time>2022-07-23T10:02:16.999Z</time>
      </trkpt>
      <trkpt lat="49.005722" lon="9.583852">
        <ele>464.645606</ele>
        <time>2022-07-23T10:02:18.999Z</time>
      </trkpt>
      <trkpt lat="49.005729" lon="9.583665">
        <ele>463.726028</ele>
        <time>2022-07-23T10:02:20.999Z</time>
      </trkpt>
      <trkpt lat="49.005750" lon="9.583466">
        <ele>462.736468</ele>
        <time>2022-07-23T10:02:22.999Z</time>
      </trkpt>
      <trkpt lat="49.005766" lon="9.583265">
        <ele>461.742412</ele>
        <time>2022-07-23T10:02:24.999Z</time>
      </trkpt>
      <trkpt lat="49.005786" lon="9.583068">
        <ele>460.763719</ele>
        <time>2022-07-23T10:02:26.999Z</time>
      </trkpt>
      <trkpt lat="49.005807" lon="9.582866">
        <ele>459.759616</ele>
        <time>2022-07-23T10:02:28.999Z</time>
      </trkpt>
      <trkpt lat="49.005824" lon="9.582663">
        <ele>458.754892</ele>
        <time>2022-07-23T10:02:30.999Z</time>
      </trkpt>
      <trkpt lat="49.005842" lon="9.582472">
        <ele>457.807544</ele>
        <time>2022-07-23T10:02:32.999Z</time>
      </trkpt>
      <trkpt lat="49.005864" lon="9.582276">
        <ele>456.831291</ele>
        <time>2022-07-23T10:02:34.999Z</time>
      </trkpt>
      <trkpt lat="49.005878" lon="9.582079">
        <ele>455.858455</ele>
        <time>2022-07-23T10:02:36.999Z</time>
      </trkpt>
      <trkpt lat="49.005893" lon="9.581882">
        <ele>454.774237</ele>
        <time>2022-07-23T10:02:38.999Z</time>
      </trkpt>
      <trkpt lat="49.005907" lon="9.581689">
        <ele>453.708444</ele>
        <time>2022-07-23T10:02:40.999Z</time>
      </trkpt>
      <trkpt lat="49.005926" lon="9.581502">
        <ele>452.669802</ele>
        <time>2022-07-23T10:02:42.999Z</time>
      </trkpt>
      <trkpt lat="49.005945" lon="9.581318">
        <ele>451.647430</ele>
        <time>2022-07-23T10:02:44.999Z</time>
      </trkpt>
      <trkpt lat="49.005957" lon="9.581131">
        <ele>450.616129</ele>
        <time>2022-07-23T10:02:46.999Z</time>
      </trkpt>
      <trkpt lat="49.005953" lon="9.580951">
        <ele>449.627581</ele>
        <time>2022-07-23T10:02:48.999Z</time>
      </trkpt>
      <trkpt lat="49.005930" lon="9.580761">
        <ele>448.567105</ele>
        <time>2022-07-23T10:02:50.999Z</time>
      </trkpt>
      <trkpt lat="49.005879" lon="9.580589">
        <ele>447.531069</ele>
        <time>2022-07-23T10:02:52.999Z</time>
      </trkpt>
      <trkpt lat="49.005816" lon="9.580424">
        <ele>446.483176</ele>
        <time>2022-07-23T10:02:54.999Z</time>
      </trkpt>
      <trkpt lat="49.005742" lon="9.580261">
        <ele>445.395139</ele>
        <time>2022-07-23T10:02:56.999Z</time>
      </trkpt>
      <trkpt lat="49.005669" lon="9.580096">
        <ele>444.302757</ele>
        <time>2022-07-23T10:02:58.999Z</time>
      </trkpt>
      <trkpt lat="49.005604" lon="9.579918">
        <ele>443.184568</ele>
        <time>2022-07-23T10:03:00.999Z</time>
      </trkpt>
      <trkpt lat="49.005548" lon="9.579741">
        <ele>442.105953</ele>
        <time>2022-07-23T10:03:02.999Z</time>
      </trkpt>
      <trkpt lat="49.005500" lon="9.579559">
        <ele>441.029273</ele>
        <time>2022-07-23T10:03:04.999Z</time>
      </trkpt>
      <trkpt lat="49.005474" lon="9.579377">
        <ele>440.014844</ele>
        <time>2022-07-23T10:03:06.999Z</time>
      </trkpt>
      <trkpt lat="49.005431" lon="9.579183">
        <ele>438.902551</ele>
        <time>2022-07-23T10:03:08.999Z</time>
      </trkpt>
      <trkpt lat="49.005403" lon="9.579002">
        <ele>437.892430</ele>
        <time>2022-07-23T10:03:10.999Z</time>
      </trkpt>
      <trkpt lat="49.005369" lon="9.578821">
        <ele>436.869761</ele>
        <time>2022-07-23T10:03:12.999Z</time>
      </trkpt>
      <trkpt lat="49.005329" lon="9.578628">
        <ele>435.770347</ele>
        <time>2022-07-23T10:03:14.999Z</time>
      </trkpt>
      <trkpt lat="49.005299" lon="9.578451">
        <ele>434.777346</ele>
        <time>2022-07-23T10:03:16.999Z</time>
      </trkpt>
      <trkpt lat="49.005257" lon="9.578268">
        <ele>433.724245</ele>
        <time>2022-07-23T10:03:18.999Z</time>
      </trkpt>
      <trkpt lat="49.005204" lon="9.578102">
        <ele>432.721438</ele>
        <time>2022-07-23T10:03:20.999Z</time>
      </trkpt>
      <trkpt lat="49.005124" lon="9.577981">
        <ele>431.788280</ele>
        <time>2022-07-23T10:03:22.999Z</time>
      </trkpt>
      <trkpt lat="49.005002" lon="9.577846">
        <ele>430.539991</ele>
        <time>2022-07-23T10:03:24.999Z</time>
      </trkpt>
      <trkpt lat="49.004887" lon="9.577769">
        <ele>429.499949</ele>
        <time>2022-07-23T10:03:26.999Z</time>
      </trkpt>
      <trkpt lat="49.004747" lon="9.577718">
        <ele>428.308064</ele>
        <time>2022-07-23T10:03:28.999Z</time>
      </trkpt>
      <trkpt lat="49.004614" lon="9.577685">
        <ele>427.192289</ele>
        <time>2022-07-23T10:03:30.999Z</time>
      </trkpt>
      <trkpt lat="49.004478" lon="9.577662">
        <ele>426.059257</ele>
        <time>2022-07-23T10:03:32.999Z</time>
      </trkpt>
      <trkpt lat="49.004349" lon="9.577636">
        <ele>425.129281</ele>
        <time>2022-07-23T10:03:34.999Z</time>
      </trkpt>
      <trkpt lat="49.004208" lon="9.577576">
        <ele>424.116456</ele>
        <time>2022-07-23T10:03:36.999Z</time>
      </trkpt>
      <trkpt lat="49.004096" lon="9.577528">
        <ele>423.311526</ele>
        <time>2022-07-23T10:03:38.999Z</time>
      </trkpt>
      <trkpt lat="49.003981" lon="9.577535">
        <ele>422.515248</ele>
        <time>2022-07-23T10:03:40.999Z</time>
      </trkpt>
      <trkpt lat="49.003846" lon="9.577593">
        <ele>421.544844</ele>
        <time>2022-07-23T10:03:42.999Z</time>
      </trkpt>
      <trkpt lat="49.003737" lon="9.577696">
        <ele>420.657569</ele>
        <time>2022-07-23T10:03:44.999Z</time>
      </trkpt>
      <trkpt lat="49.003667" lon="9.577846">
        <ele>419.822077</ele>
        <time>2022-07-23T10:03:46.999Z</time>
      </trkpt>
      <trkpt lat="49.003571" lon="9.577975">
        <ele>418.936667</ele>
        <time>2022-07-23T10:03:48.999Z</time>
      </trkpt>
      <trkpt lat="49.003479" lon="9.578090">
        <ele>418.113511</ele>
        <time>2022-07-23T10:03:50.999Z</time>
      </trkpt>
      <trkpt lat="49.003390" lon="9.578222">
        <ele>417.254387</ele>
        <time>2022-07-23T10:03:52.999Z</time>
      </trkpt>
      <trkpt lat="49.003302" lon="9.578347">
        <ele>416.422183</ele>
        <time>2022-07-23T10:03:54.999Z</time>
      </trkpt>
      <trkpt lat="49.003183" lon="9.578436">
        <ele>415.505107</ele>
        <time>2022-07-23T10:03:56.999Z</time>
      </trkpt>
      <trkpt lat="49.003071" lon="9.578494">
        <ele>414.686724</ele>
        <time>2022-07-23T10:03:58.999Z</time>
      </trkpt>
      <trkpt lat="49.002957" lon="9.578494">
        <ele>413.897999</ele>
        <time>2022-07-23T10:04:00.999Z</time>
      </trkpt>
      <trkpt lat="49.002846" lon="9.578464">
        <ele>413.057768</ele>
        <time>2022-07-23T10:04:02.999Z</time>
      </trkpt>
      <trkpt lat="49.002730" lon="9.578433">
        <ele>412.087724</ele>
        <time>2022-07-23T10:04:04.999Z</time>
      </trkpt>
      <trkpt lat="49.002622" lon="9.578408">
        <ele>411.187949</ele>
        <time>2022-07-23T10:04:06.999Z</time>
      </trkpt>
      <trkpt lat="49.002505" lon="9.578369">
        <ele>410.201468</ele>
        <time>2022-07-23T10:04:08.999Z</time>
      </trkpt>
      <trkpt lat="49.002398" lon="9.578334">
        <ele>409.300065</ele>
        <time>2022-07-23T10:04:10.999Z</time>
      </trkpt>
      <trkpt lat="49.002284" lon="9.578300">
        <ele>408.343262</ele>
        <time>2022-07-23T10:04:12.999Z</time>
      </trkpt>
      <trkpt lat="49.002180" lon="9.578285">
        <ele>407.482807</ele>
        <time>2022-07-23T10:04:14.999Z</time>
      </trkpt>
      <trkpt lat="49.002081" lon="9.578267">
        <ele>406.661581</ele>
        <time>2022-07-23T10:04:16.999Z</time>
      </trkpt>
      <trkpt lat="49.001982" lon="9.578274">
        <ele>405.845259</ele>
        <time>2022-07-23T10:04:18.999Z</time>
      </trkpt>
      <trkpt lat="49.001876" lon="9.578246">
        <ele>404.959143</ele>
        <time>2022-07-23T10:04:20.999Z</time>
      </trkpt>
      <trkpt lat="49.001775" lon="9.578232">
        <ele>404.123792</ele>
        <time>2022-07-23T10:04:22.999Z</time>
      </trkpt>
      <trkpt lat="49.001636" lon="9.578236">
        <ele>402.978670</ele>
        <time>2022-07-23T10:04:25.999Z</time>
      </trkpt>
      <trkpt lat="49.001532" lon="9.578204">
        <ele>402.104762</ele>
        <time>2022-07-23T10:04:27.999Z</time>
      </trkpt>
      <trkpt lat="49.001438" lon="9.578204">
        <ele>401.330501</ele>
        <time>2022-07-23T10:04:29.999Z</time>
      </trkpt>
      <trkpt lat="49.001335" lon="9.578190">
        <ele>400.478742</ele>
        <time>2022-07-23T10:04:31.999Z</time>
      </trkpt>
      <trkpt lat="49.001224" lon="9.578188">
        <ele>399.564391</ele>
        <time>2022-07-23T10:04:33.999Z</time>
      </trkpt>
      <trkpt lat="49.001111" lon="9.578181">
        <ele>398.632862</ele>
        <time>2022-07-23T10:04:35.999Z</time>
      </trkpt>
      <trkpt lat="49.000983" lon="9.578156">
        <ele>397.663904</ele>
        <time>2022-07-23T10:04:37.999Z</time>
      </trkpt>
      <trkpt lat="49.000862" lon="9.578136">
        <ele>396.751179</ele>
        <time>2022-07-23T10:04:39.999Z</time>
      </trkpt>
      <trkpt lat="49.000746" lon="9.578144">
        <ele>395.880380</ele>
        <time>2022-07-23T10:04:41.999Z</time>
      </trkpt>
      <trkpt lat="49.000620" lon="9.578077">
        <ele>394.879632</ele>
        <time>2022-07-23T10:04:43.999Z</time>
      </trkpt>
      <trkpt lat="49.000507" lon="9.578028">
        <ele>393.998596</ele>
        <time>2022-07-23T10:04:45.999Z</time>
      </trkpt>
      <trkpt lat="49.000388" lon="9.577973">
        <ele>393.066066</ele>
        <time>2022-07-23T10:04:47.999Z</time>
      </trkpt>
      <trkpt lat="49.000272" lon="9.577936">
        <ele>392.177314</ele>
        <time>2022-07-23T10:04:49.999Z</time>
      </trkpt>
      <trkpt lat="49.000155" lon="9.577879">
        <ele>391.256179</ele>
        <time>2022-07-23T10:04:51.999Z</time>
      </trkpt>
      <trkpt lat="49.000048" lon="9.577840">
        <ele>390.431140</ele>
        <time>2022-07-23T10:04:53.999Z</time>
      </trkpt>
      <trkpt lat="48.999925" lon="9.577793">
        <ele>389.480193</ele>
        <time>2022-07-23T10:04:55.999Z</time>
      </trkpt>
      <trkpt lat="48.999808" lon="9.577771">
        <ele>388.596133</ele>
        <time>2022-07-23T10:04:57.999Z</time>
      </trkpt>
      <trkpt lat="48.999692" lon="9.577763">
        <ele>387.725334</ele>
        <time>2022-07-23T10:04:59.999Z</time>
      </trkpt>
      <trkpt lat="48.999576" lon="9.577788">
        <ele>386.846772</ele>
        <time>2022-07-23T10:05:01.999Z</time>
      </trkpt>
      <trkpt lat="48.999462" lon="9.577839">
        <ele>385.955798</ele>
        <time>2022-07-23T10:05:03.999Z</time>
      </trkpt>
      <trkpt lat="48.999354" lon="9.577889">
        <ele>385.106159</ele>
        <time>2022-07-23T10:05:05.999Z</time>
      </trkpt>
      <trkpt lat="48.999251" lon="9.577950">
        <ele>384.155091</ele>
        <time>2022-07-23T10:05:07.999Z</time>
      </trkpt>
      <trkpt lat="48.999150" lon="9.578012">
        <ele>383.217952</ele>
        <time>2022-07-23T10:05:09.999Z</time>
      </trkpt>
      <trkpt lat="48.999043" lon="9.578075">
        <ele>382.230702</ele>
        <time>2022-07-23T10:05:11.999Z</time>
      </trkpt>
      <trkpt lat="48.998936" lon="9.578134">
        <ele>381.251363</ele>
        <time>2022-07-23T10:05:13.999Z</time>
      </trkpt>
      <trkpt lat="48.998819" lon="9.578189">
        <ele>380.197561</ele>
        <time>2022-07-23T10:05:15.999Z</time>
      </trkpt>
      <trkpt lat="48.998703" lon="9.578251">
        <ele>379.139567</ele>
        <time>2022-07-23T10:05:17.999Z</time>
      </trkpt>
      <trkpt lat="48.998597" lon="9.578321">
        <ele>378.145297</ele>
        <time>2022-07-23T10:05:19.999Z</time>
      </trkpt>
      <trkpt lat="48.998490" lon="9.578380">
        <ele>377.165957</ele>
        <time>2022-07-23T10:05:21.999Z</time>
      </trkpt>
      <trkpt lat="48.998396" lon="9.578456">
        <ele>376.250140</ele>
        <time>2022-07-23T10:05:23.999Z</time>
      </trkpt>
      <trkpt lat="48.998302" lon="9.578548">
        <ele>375.288667</ele>
        <time>2022-07-23T10:05:25.999Z</time>
      </trkpt>
      <trkpt lat="48.998217" lon="9.578637">
        <ele>374.401098</ele>
        <time>2022-07-23T10:05:27.999Z</time>
      </trkpt>
      <trkpt lat="48.998117" lon="9.578754">
        <ele>373.316079</ele>
        <time>2022-07-23T10:05:29.999Z</time>
      </trkpt>
      <trkpt lat="48.998028" lon="9.578877">
        <ele>372.282070</ele>
        <time>2022-07-23T10:05:31.999Z</time>
      </trkpt>
      <trkpt lat="48.997944" lon="9.579002">
        <ele>371.271666</ele>
        <time>2022-07-23T10:05:33.999Z</time>
      </trkpt>
      <trkpt lat="48.997859" lon="9.579116">
        <ele>370.297188</ele>
        <time>2022-07-23T10:05:35.999Z</time>
      </trkpt>
      <trkpt lat="48.997777" lon="9.579258">
        <ele>369.264904</ele>
        <time>2022-07-23T10:05:38.000Z</time>
      </trkpt>
      <trkpt lat="48.997696" lon="9.579391">
        <ele>368.327534</ele>
        <time>2022-07-23T10:05:40.000Z</time>
      </trkpt>
      <trkpt lat="48.997602" lon="9.579516">
        <ele>367.345389</ele>
        <time>2022-07-23T10:05:42.000Z</time>
      </trkpt>
      <trkpt lat="48.997512" lon="9.579636">
        <ele>366.403951</ele>
        <time>2022-07-23T10:05:44.000Z</time>
      </trkpt>
      <trkpt lat="48.997410" lon="9.579724">
        <ele>365.481171</ele>
        <time>2022-07-23T10:05:46.000Z</time>
      </trkpt>
      <trkpt lat="48.997302" lon="9.579797">
        <ele>364.551015</ele>
        <time>2022-07-23T10:05:48.000Z</time>
      </trkpt>
      <trkpt lat="48.997199" lon="9.579834">
        <ele>363.717869</ele>
        <time>2022-07-23T10:05:49.999Z</time>
      </trkpt>
      <trkpt lat="48.997083" lon="9.579817">
        <ele>362.800378</ele>
        <time>2022-07-23T10:05:51.999Z</time>
      </trkpt>
      <trkpt lat="48.996968" lon="9.579787">
        <ele>361.881807</ele>
        <time>2022-07-23T10:05:53.999Z</time>
      </trkpt>
      <trkpt lat="48.996845" lon="9.579745">
        <ele>360.889412</ele>
        <time>2022-07-23T10:05:55.999Z</time>
      </trkpt>
      <trkpt lat="48.996741" lon="9.579775">
        <ele>360.056075</ele>
        <time>2022-07-23T10:05:57.999Z</time>
      </trkpt>
      <trkpt lat="48.996614" lon="9.579793">
        <ele>359.051878</ele>
        <time>2022-07-23T10:05:59.999Z</time>
      </trkpt>
      <trkpt lat="48.996500" lon="9.579814">
        <ele>358.147814</ele>
        <time>2022-07-23T10:06:01.999Z</time>
      </trkpt>
      <trkpt lat="48.996391" lon="9.579863">
        <ele>357.253098</ele>
        <time>2022-07-23T10:06:03.999Z</time>
      </trkpt>
      <trkpt lat="48.996256" lon="9.579893">
        <ele>356.178993</ele>
        <time>2022-07-23T10:06:05.999Z</time>
      </trkpt>
      <trkpt lat="48.996141" lon="9.579933">
        <ele>355.236470</ele>
        <time>2022-07-23T10:06:07.999Z</time>
      </trkpt>
      <trkpt lat="48.996028" lon="9.579997">
        <ele>354.232443</ele>
        <time>2022-07-23T10:06:09.999Z</time>
      </trkpt>
      <trkpt lat="48.995908" lon="9.580056">
        <ele>353.182278</ele>
        <time>2022-07-23T10:06:11.999Z</time>
      </trkpt>
      <trkpt lat="48.995800" lon="9.580121">
        <ele>352.215183</ele>
        <time>2022-07-23T10:06:13.999Z</time>
      </trkpt>
      <trkpt lat="48.995690" lon="9.580207">
        <ele>351.185518</ele>
        <time>2022-07-23T10:06:15.999Z</time>
      </trkpt>
      <trkpt lat="48.995580" lon="9.580287">
        <ele>350.170399</ele>
        <time>2022-07-23T10:06:17.999Z</time>
      </trkpt>
      <trkpt lat="48.995467" lon="9.580371">
        <ele>349.123276</ele>
        <time>2022-07-23T10:06:19.999Z</time>
      </trkpt>
      <trkpt lat="48.995351" lon="9.580478">
        <ele>347.993981</ele>
        <time>2022-07-23T10:06:21.999Z</time>
      </trkpt>
      <trkpt lat="48.995238" lon="9.580596">
        <ele>346.853120</ele>
        <time>2022-07-23T10:06:23.999Z</time>
      </trkpt>
      <trkpt lat="48.995138" lon="9.580716">
        <ele>345.793073</ele>
        <time>2022-07-23T10:06:25.999Z</time>
      </trkpt>
      <trkpt lat="48.995028" lon="9.580826">
        <ele>344.697313</ele>
        <time>2022-07-23T10:06:27.999Z</time>
      </trkpt>
      <trkpt lat="48.994925" lon="9.580951">
        <ele>343.600714</ele>
        <time>2022-07-23T10:06:29.999Z</time>
      </trkpt>
      <trkpt lat="48.994812" lon="9.581077">
        <ele>342.434582</ele>
        <time>2022-07-23T10:06:31.999Z</time>
      </trkpt>
      <trkpt lat="48.994701" lon="9.581204">
        <ele>341.278579</ele>
        <time>2022-07-23T10:06:33.999Z</time>
      </trkpt>
      <trkpt lat="48.994592" lon="9.581323">
        <ele>340.192868</ele>
        <time>2022-07-23T10:06:35.999Z</time>
      </trkpt>
      <trkpt lat="48.994482" lon="9.581443">
        <ele>339.166818</ele>
        <time>2022-07-23T10:06:37.999Z</time>
      </trkpt>
      <trkpt lat="48.994374" lon="9.581560">
        <ele>338.161787</ele>
        <time>2022-07-23T10:06:39.999Z</time>
      </trkpt>
      <trkpt lat="48.994268" lon="9.581679">
        <ele>337.163210</ele>
        <time>2022-07-23T10:06:41.999Z</time>
      </trkpt>
      <trkpt lat="48.994159" lon="9.581793">
        <ele>336.160508</ele>
        <time>2022-07-23T10:06:43.999Z</time>
      </trkpt>
      <trkpt lat="48.994062" lon="9.581922">
        <ele>335.184048</ele>
        <time>2022-07-23T10:06:45.999Z</time>
      </trkpt>
      <trkpt lat="48.993981" lon="9.582081">
        <ele>334.182238</ele>
        <time>2022-07-23T10:06:47.999Z</time>
      </trkpt>
      <trkpt lat="48.993929" lon="9.582263">
        <ele>333.194319</ele>
        <time>2022-07-23T10:06:49.999Z</time>
      </trkpt>
      <trkpt lat="48.993897" lon="9.582453">
        <ele>332.218079</ele>
        <time>2022-07-23T10:06:51.999Z</time>
      </trkpt>
      <trkpt lat="48.993869" lon="9.582652">
        <ele>331.205187</ele>
        <time>2022-07-23T10:06:53.999Z</time>
      </trkpt>
      <trkpt lat="48.993811" lon="9.582835">
        <ele>330.193752</ele>
        <time>2022-07-23T10:06:55.999Z</time>
      </trkpt>
      <trkpt lat="48.993728" lon="9.583003">
        <ele>329.147142</ele>
        <time>2022-07-23T10:06:57.999Z</time>
      </trkpt>
      <trkpt lat="48.993621" lon="9.583125">
        <ele>328.133571</ele>
        <time>2022-07-23T10:06:59.999Z</time>
      </trkpt>
      <trkpt lat="48.993507" lon="9.583227">
        <ele>327.130891</ele>
        <time>2022-07-23T10:07:01.999Z</time>
      </trkpt>
      <trkpt lat="48.993394" lon="9.583337">
        <ele>326.069489</ele>
        <time>2022-07-23T10:07:03.999Z</time>
      </trkpt>
      <trkpt lat="48.993281" lon="9.583436">
        <ele>325.022555</ele>
        <time>2022-07-23T10:07:05.999Z</time>
      </trkpt>
      <trkpt lat="48.993168" lon="9.583529">
        <ele>323.991016</ele>
        <time>2022-07-23T10:07:07.999Z</time>
      </trkpt>
      <trkpt lat="48.993058" lon="9.583641">
        <ele>322.928424</ele>
        <time>2022-07-23T10:07:09.999Z</time>
      </trkpt>
      <trkpt lat="48.992948" lon="9.583735">
        <ele>321.915455</ele>
        <time>2022-07-23T10:07:11.999Z</time>
      </trkpt>
      <trkpt lat="48.992845" lon="9.583848">
        <ele>320.896063</ele>
        <time>2022-07-23T10:07:13.999Z</time>
      </trkpt>
      <trkpt lat="48.992747" lon="9.583959">
        <ele>319.915310</ele>
        <time>2022-07-23T10:07:15.999Z</time>
      </trkpt>
      <trkpt lat="48.992647" lon="9.584085">
        <ele>318.873113</ele>
        <time>2022-07-23T10:07:17.999Z</time>
      </trkpt>
      <trkpt lat="48.992553" lon="9.584219">
        <ele>317.839258</ele>
        <time>2022-07-23T10:07:19.999Z</time>
      </trkpt>
      <trkpt lat="48.992457" lon="9.584350">
        <ele>316.804226</ele>
        <time>2022-07-23T10:07:21.999Z</time>
      </trkpt>
      <trkpt lat="48.992360" lon="9.584477">
        <ele>315.777056</ele>
        <time>2022-07-23T10:07:23.999Z</time>
      </trkpt>
      <trkpt lat="48.992262" lon="9.584592">
        <ele>314.783580</ele>
        <time>2022-07-23T10:07:25.999Z</time>
      </trkpt>
      <trkpt lat="48.992153" lon="9.584684">
        <ele>313.782755</ele>
        <time>2022-07-23T10:07:28.000Z</time>
      </trkpt>
      <trkpt lat="48.992037" lon="9.584745">
        <ele>312.797099</ele>
        <time>2022-07-23T10:07:30.000Z</time>
      </trkpt>
      <trkpt lat="48.991919" lon="9.584799">
        <ele>311.922672</ele>
        <time>2022-07-23T10:07:32.000Z</time>
      </trkpt>
      <trkpt lat="48.991799" lon="9.584826">
        <ele>311.131823</ele>
        <time>2022-07-23T10:07:34.000Z</time>
      </trkpt>
      <trkpt lat="48.991679" lon="9.584864">
        <ele>310.332743</ele>
        <time>2022-07-23T10:07:36.000Z</time>
      </trkpt>
      <trkpt lat="48.991558" lon="9.584900">
        <ele>309.528962</ele>
        <time>2022-07-23T10:07:38.000Z</time>
      </trkpt>
      <trkpt lat="48.991441" lon="9.584943">
        <ele>308.744284</ele>
        <time>2022-07-23T10:07:40.000Z</time>
      </trkpt>
      <trkpt lat="48.991325" lon="9.584981">
        <ele>307.970719</ele>
        <time>2022-07-23T10:07:42.000Z</time>
      </trkpt>
      <trkpt lat="48.991208" lon="9.585018">
        <ele>307.191659</ele>
        <time>2022-07-23T10:07:44.000Z</time>
      </trkpt>
      <trkpt lat="48.991091" lon="9.585053">
        <ele>306.414293</ele>
        <time>2022-07-23T10:07:46.000Z</time>
      </trkpt>
      <trkpt lat="48.990971" lon="9.585089">
        <ele>305.616909</ele>
        <time>2022-07-23T10:07:48.000Z</time>
      </trkpt>
      <trkpt lat="48.990850" lon="9.585124">
        <ele>304.813936</ele>
        <time>2022-07-23T10:07:50.000Z</time>
      </trkpt>
      <trkpt lat="48.990727" lon="9.585162">
        <ele>303.995695</ele>
        <time>2022-07-23T10:07:52.000Z</time>
      </trkpt>
      <trkpt lat="48.990604" lon="9.585201">
        <ele>303.176594</ele>
        <time>2022-07-23T10:07:54.000Z</time>
      </trkpt>
      <trkpt lat="48.990483" lon="9.585237">
        <ele>302.372812</ele>
        <time>2022-07-23T10:07:56.000Z</time>
      </trkpt>
      <trkpt lat="48.990363" lon="9.585273">
        <ele>301.575428</ele>
        <time>2022-07-23T10:07:58.000Z</time>
      </trkpt>
      <trkpt lat="48.990247" lon="9.585310">
        <ele>300.802750</ele>
        <time>2022-07-23T10:08:00.000Z</time>
      </trkpt>
      <trkpt lat="48.990131" lon="9.585346">
        <ele>300.412089</ele>
        <time>2022-07-23T10:08:02.000Z</time>
      </trkpt>
      <trkpt lat="48.990017" lon="9.585378">
        <ele>300.091744</ele>
        <time>2022-07-23T10:08:04.000Z</time>
      </trkpt>
      <trkpt lat="48.989902" lon="9.585404">
        <ele>299.770458</ele>
        <time>2022-07-23T10:08:06.000Z</time>
      </trkpt>
      <trkpt lat="48.989787" lon="9.585418">
        <ele>299.451637</ele>
        <time>2022-07-23T10:08:08.000Z</time>
      </trkpt>
      <trkpt lat="48.989673" lon="9.585412">
        <ele>299.136404</ele>
        <time>2022-07-23T10:08:10.000Z</time>
      </trkpt>
      <trkpt lat="48.989556" lon="9.585396">
        <ele>298.811770</ele>
        <time>2022-07-23T10:08:12.000Z</time>
      </trkpt>
      <trkpt lat="48.989432" lon="9.585386">
        <ele>298.468610</ele>
        <time>2022-07-23T10:08:14.000Z</time>
      </trkpt>
      <trkpt lat="48.989310" lon="9.585373">
        <ele>298.130633</ele>
        <time>2022-07-23T10:08:16.000Z</time>
      </trkpt>
      <trkpt lat="48.989184" lon="9.585359">
        <ele>297.781502</ele>
        <time>2022-07-23T10:08:18.000Z</time>
      </trkpt>
      <trkpt lat="48.989062" lon="9.585345">
        <ele>297.443394</ele>
        <time>2022-07-23T10:08:20.000Z</time>
      </trkpt>
      <trkpt lat="48.988942" lon="9.585323">
        <ele>297.109377</ele>
        <time>2022-07-23T10:08:22.000Z</time>
      </trkpt>
      <trkpt lat="48.988827" lon="9.585268">
        <ele>296.776285</ele>
        <time>2022-07-23T10:08:24.000Z</time>
      </trkpt>
      <trkpt lat="48.988729" lon="9.585172">
        <ele>296.454328</ele>
        <time>2022-07-23T10:08:26.000Z</time>
      </trkpt>
      <trkpt lat="48.988629" lon="9.585068">
        <ele>296.119751</ele>
        <time>2022-07-23T10:08:28.000Z</time>
      </trkpt>
      <trkpt lat="48.988532" lon="9.584967">
        <ele>295.795087</ele>
        <time>2022-07-23T10:08:30.000Z</time>
      </trkpt>
      <trkpt lat="48.988432" lon="9.584863">
        <ele>295.778154</ele>
        <time>2022-07-23T10:08:32.000Z</time>
      </trkpt>
      <trkpt lat="48.988324" lon="9.584789">
        <ele>295.848623</ele>
        <time>2022-07-23T10:08:34.000Z</time>
      </trkpt>
      <trkpt lat="48.988219" lon="9.584745">
        <ele>295.913429</ele>
        <time>2022-07-23T10:08:36.000Z</time>
      </trkpt>
      <trkpt lat="48.988112" lon="9.584709">
        <ele>295.978638</ele>
        <time>2022-07-23T10:08:38.000Z</time>
      </trkpt>
      <trkpt lat="48.988004" lon="9.584683">
        <ele>296.043706</ele>
        <time>2022-07-23T10:08:40.000Z</time>
      </trkpt>
      <trkpt lat="48.987908" lon="9.584670">
        <ele>296.101062</ele>
        <time>2022-07-23T10:08:42.000Z</time>
      </trkpt>
      <trkpt lat="48.987774" lon="9.584666">
        <ele>296.180821</ele>
        <time>2022-07-23T10:08:45.000Z</time>
      </trkpt>
      <trkpt lat="48.987676" lon="9.584656">
        <ele>296.239271</ele>
        <time>2022-07-23T10:08:47.000Z</time>
      </trkpt>
      <trkpt lat="48.987586" lon="9.584663">
        <ele>296.292900</ele>
        <time>2022-07-23T10:08:49.000Z</time>
      </trkpt>
      <trkpt lat="48.987453" lon="9.584677">
        <ele>296.372238</ele>
        <time>2022-07-23T10:08:52.000Z</time>
      </trkpt>
      <trkpt lat="48.987332" lon="9.584692">
        <ele>296.444483</ele>
        <time>2022-07-23T10:08:54.999Z</time>
      </trkpt>
      <trkpt lat="48.987241" lon="9.584715">
        <ele>296.499377</ele>
        <time>2022-07-23T10:08:56.999Z</time>
      </trkpt>
      <trkpt lat="48.987106" lon="9.584763">
        <ele>296.581874</ele>
        <time>2022-07-23T10:08:59.999Z</time>
      </trkpt>
      <trkpt lat="48.987011" lon="9.584802">
        <ele>296.640425</ele>
        <time>2022-07-23T10:09:01.999Z</time>
      </trkpt>
      <trkpt lat="48.986918" lon="9.584848">
        <ele>296.698612</ele>
        <time>2022-07-23T10:09:03.999Z</time>
      </trkpt>
      <trkpt lat="48.986831" lon="9.584911">
        <ele>296.755934</ele>
        <time>2022-07-23T10:09:05.999Z</time>
      </trkpt>
      <trkpt lat="48.986740" lon="9.584966">
        <ele>296.776992</ele>
        <time>2022-07-23T10:09:07.999Z</time>
      </trkpt>
      <trkpt lat="48.986644" lon="9.585003">
        <ele>296.736011</ele>
        <time>2022-07-23T10:09:09.999Z</time>
      </trkpt>
      <trkpt lat="48.986551" lon="9.585025">
        <ele>296.697062</ele>
        <time>2022-07-23T10:09:11.999Z</time>
      </trkpt>
      <trkpt lat="48.986455" lon="9.585034">
        <ele>296.657257</ele>
        <time>2022-07-23T10:09:13.999Z</time>
      </trkpt>
      <trkpt lat="48.986357" lon="9.585033">
        <ele>296.616698</ele>
        <time>2022-07-23T10:09:15.999Z</time>
      </trkpt>
      <trkpt lat="48.986257" lon="9.585022">
        <ele>296.575205</ele>
        <time>2022-07-23T10:09:17.999Z</time>
      </trkpt>
      <trkpt lat="48.986149" lon="9.585011">
        <ele>296.530409</ele>
        <time>2022-07-23T10:09:19.999Z</time>
      </trkpt>
      <trkpt lat="48.986035" lon="9.585005">
        <ele>296.483201</ele>
        <time>2022-07-23T10:09:21.999Z</time>
      </trkpt>
      <trkpt lat="48.985922" lon="9.584986">
        <ele>296.436152</ele>
        <time>2022-07-23T10:09:23.999Z</time>
      </trkpt>
      <trkpt lat="48.985807" lon="9.584969">
        <ele>296.388335</ele>
        <time>2022-07-23T10:09:25.999Z</time>
      </trkpt>
      <trkpt lat="48.985695" lon="9.584952">
        <ele>296.341754</ele>
        <time>2022-07-23T10:09:27.999Z</time>
      </trkpt>
      <trkpt lat="48.985583" lon="9.584928">
        <ele>296.294946</ele>
        <time>2022-07-23T10:09:29.999Z</time>
      </trkpt>
      <trkpt lat="48.985473" lon="9.584899">
        <ele>296.248746</ele>
        <time>2022-07-23T10:09:31.999Z</time>
      </trkpt>
      <trkpt lat="48.985367" lon="9.584863">
        <ele>296.203801</ele>
        <time>2022-07-23T10:09:34.000Z</time>
      </trkpt>
      <trkpt lat="48.985261" lon="9.584820">
        <ele>296.158404</ele>
        <time>2022-07-23T10:09:36.000Z</time>
      </trkpt>
      <trkpt lat="48.985153" lon="9.584761">
        <ele>296.110923</ele>
        <time>2022-07-23T10:09:38.000Z</time>
      </trkpt>
      <trkpt lat="48.985044" lon="9.584688">
        <ele>296.061648</ele>
        <time>2022-07-23T10:09:40.000Z</time>
      </trkpt>
      <trkpt lat="48.984935" lon="9.584608">
        <ele>295.882349</ele>
        <time>2022-07-23T10:09:42.000Z</time>
      </trkpt>
      <trkpt lat="48.984828" lon="9.584518">
        <ele>295.651684</ele>
        <time>2022-07-23T10:09:44.000Z</time>
      </trkpt>
      <trkpt lat="48.984724" lon="9.584426">
        <ele>295.424725</ele>
        <time>2022-07-23T10:09:46.000Z</time>
      </trkpt>
      <trkpt lat="48.984622" lon="9.584343">
        <ele>295.206490</ele>
        <time>2022-07-23T10:09:48.000Z</time>
      </trkpt>
      <trkpt lat="48.984520" lon="9.584248">
        <ele>294.980872</ele>
        <time>2022-07-23T10:09:50.000Z</time>
      </trkpt>
      <trkpt lat="48.984413" lon="9.584162">
        <ele>294.752560</ele>
        <time>2022-07-23T10:09:52.000Z</time>
      </trkpt>
      <trkpt lat="48.984310" lon="9.584078">
        <ele>294.532076</ele>
        <time>2022-07-23T10:09:54.000Z</time>
      </trkpt>
      <trkpt lat="48.984212" lon="9.583991">
        <ele>294.318019</ele>
        <time>2022-07-23T10:09:56.000Z</time>
      </trkpt>
      <trkpt lat="48.984112" lon="9.583901">
        <ele>294.098826</ele>
        <time>2022-07-23T10:09:58.000Z</time>
      </trkpt>
      <trkpt lat="48.984012" lon="9.583807">
        <ele>293.877072</ele>
        <time>2022-07-23T10:10:00.000Z</time>
      </trkpt>
      <trkpt lat="48.983918" lon="9.583691">
        <ele>293.648782</ele>
        <time>2022-07-23T10:10:02.000Z</time>
      </trkpt>
      <trkpt lat="48.983841" lon="9.583540">
        <ele>293.411932</ele>
        <time>2022-07-23T10:10:04.000Z</time>
      </trkpt>
      <trkpt lat="48.983778" lon="9.583378">
        <ele>293.178698</ele>
        <time>2022-07-23T10:10:06.000Z</time>
      </trkpt>
      <trkpt lat="48.983723" lon="9.583206">
        <ele>292.941716</ele>
        <time>2022-07-23T10:10:08.000Z</time>
      </trkpt>
      <trkpt lat="48.983660" lon="9.583045">
        <ele>292.709546</ele>
        <time>2022-07-23T10:10:10.000Z</time>
      </trkpt>
      <trkpt lat="48.983589" lon="9.582893">
        <ele>292.486189</ele>
        <time>2022-07-23T10:10:12.000Z</time>
      </trkpt>
      <trkpt lat="48.983501" lon="9.582775">
        <ele>292.274734</ele>
        <time>2022-07-23T10:10:14.000Z</time>
      </trkpt>
      <trkpt lat="48.983398" lon="9.582695">
        <ele>292.066188</ele>
        <time>2022-07-23T10:10:16.000Z</time>
      </trkpt>
      <trkpt lat="48.983297" lon="9.582611">
        <ele>291.858623</ele>
        <time>2022-07-23T10:10:18.000Z</time>
      </trkpt>
      <trkpt lat="48.983195" lon="9.582534">
        <ele>291.653284</ele>
        <time>2022-07-23T10:10:20.000Z</time>
      </trkpt>
      <trkpt lat="48.983103" lon="9.582435">
        <ele>291.450114</ele>
        <time>2022-07-23T10:10:22.000Z</time>
      </trkpt>
      <trkpt lat="48.983022" lon="9.582327">
        <ele>291.255958</ele>
        <time>2022-07-23T10:10:24.000Z</time>
      </trkpt>
      <trkpt lat="48.982942" lon="9.582205">
        <ele>291.051786</ele>
        <time>2022-07-23T10:10:26.000Z</time>
      </trkpt>
      <trkpt lat="48.982862" lon="9.582076">
        <ele>290.841671</ele>
        <time>2022-07-23T10:10:28.000Z</time>
      </trkpt>
      <trkpt lat="48.982771" lon="9.581966">
        <ele>290.632136</ele>
        <time>2022-07-23T10:10:30.000Z</time>
      </trkpt>
      <trkpt lat="48.982678" lon="9.581878">
        <ele>290.434659</ele>
        <time>2022-07-23T10:10:32.000Z</time>
      </trkpt>
      <trkpt lat="48.982582" lon="9.581788">
        <ele>290.231333</ele>
        <time>2022-07-23T10:10:34.000Z</time>
      </trkpt>
      <trkpt lat="48.982490" lon="9.581689">
        <ele>290.028162</ele>
        <time>2022-07-23T10:10:36.000Z</time>
      </trkpt>
      <trkpt lat="48.982404" lon="9.581586">
        <ele>289.830841</ele>
        <time>2022-07-23T10:10:38.000Z</time>
      </trkpt>
      <trkpt lat="48.982333" lon="9.581468">
        <ele>289.641319</ele>
        <time>2022-07-23T10:10:40.000Z</time>
      </trkpt>
      <trkpt lat="48.982259" lon="9.581350">
        <ele>289.448098</ele>
        <time>2022-07-23T10:10:42.000Z</time>
      </trkpt>
      <trkpt lat="48.982181" lon="9.581232">
        <ele>289.640381</ele>
        <time>2022-07-23T10:10:44.000Z</time>
      </trkpt>
      <trkpt lat="48.982090" lon="9.581139">
        <ele>289.928530</ele>
        <time>2022-07-23T10:10:46.000Z</time>
      </trkpt>
      <trkpt lat="48.982005" lon="9.581064">
        <ele>290.186831</ele>
        <time>2022-07-23T10:10:48.000Z</time>
      </trkpt>
      <trkpt lat="48.981923" lon="9.580986">
        <ele>290.441040</ele>
        <time>2022-07-23T10:10:50.000Z</time>
      </trkpt>
      <trkpt lat="48.981836" lon="9.580892">
        <ele>290.721510</ele>
        <time>2022-07-23T10:10:52.000Z</time>
      </trkpt>
      <trkpt lat="48.981750" lon="9.580781">
        <ele>291.017901</ele>
        <time>2022-07-23T10:10:54.000Z</time>
      </trkpt>
      <trkpt lat="48.981662" lon="9.580667">
        <ele>291.321653</ele>
        <time>2022-07-23T10:10:56.000Z</time>
      </trkpt>
      <trkpt lat="48.981582" lon="9.580576">
        <ele>291.584191</ele>
        <time>2022-07-23T10:10:58.000Z</time>
      </trkpt>
      <trkpt lat="48.981512" lon="9.580468">
        <ele>291.846164</ele>
        <time>2022-07-23T10:11:01.000Z</time>
      </trkpt>
      <trkpt lat="48.981424" lon="9.580380">
        <ele>292.122969</ele>
        <time>2022-07-23T10:11:03.000Z</time>
      </trkpt>
      <trkpt lat="48.981346" lon="9.580302">
        <ele>292.368319</ele>
        <time>2022-07-23T10:11:05.000Z</time>
      </trkpt>
      <trkpt lat="48.981278" lon="9.580212">
        <ele>292.605184</ele>
        <time>2022-07-23T10:11:07.000Z</time>
      </trkpt>
      <trkpt lat="48.981210" lon="9.580101">
        <ele>292.867251</ele>
        <time>2022-07-23T10:11:09.000Z</time>
      </trkpt>
      <trkpt lat="48.981162" lon="9.579980">
        <ele>293.111270</ele>
        <time>2022-07-23T10:11:12.000Z</time>
      </trkpt>
      <trkpt lat="48.981082" lon="9.579918">
        <ele>293.347299</ele>
        <time>2022-07-23T10:11:45.000Z</time>
      </trkpt>
      <trkpt lat="48.980970" lon="9.579667">
        <ele>293.871146</ele>
        <time>2022-07-23T10:12:13.000Z</time>
      </trkpt>
      <trkpt lat="48.980991" lon="9.579509">
        <ele>294.131458</ele>
        <time>2022-07-23T10:12:16.000Z</time>
      </trkpt>
      <trkpt lat="48.981095" lon="9.579446">
        <ele>293.932619</ele>
        <time>2022-07-23T10:12:19.000Z</time>
      </trkpt>
      <trkpt lat="48.981223" lon="9.579430">
        <ele>293.704444</ele>
        <time>2022-07-23T10:12:22.000Z</time>
      </trkpt>
      <trkpt lat="48.981345" lon="9.579400">
        <ele>293.484888</ele>
        <time>2022-07-23T10:12:24.999Z</time>
      </trkpt>
      <trkpt lat="48.981452" lon="9.579324">
        <ele>293.275145</ele>
        <time>2022-07-23T10:12:27.999Z</time>
      </trkpt>
      <trkpt lat="48.981539" lon="9.579260">
        <ele>293.103505</ele>
        <time>2022-07-23T10:12:30.999Z</time>
      </trkpt>
      <trkpt lat="48.981788" lon="9.579310">
        <ele>292.657293</ele>
        <time>2022-07-23T10:13:34.999Z</time>
      </trkpt>
      <trkpt lat="48.981900" lon="9.579215">
        <ele>292.429554</ele>
        <time>2022-07-23T10:13:37.999Z</time>
      </trkpt>
      <trkpt lat="48.981945" lon="9.579089">
        <ele>292.262291</ele>
        <time>2022-07-23T10:13:39.999Z</time>
      </trkpt>
      <trkpt lat="48.981983" lon="9.578958">
        <ele>292.095289</ele>
        <time>2022-07-23T10:13:41.999Z</time>
      </trkpt>
      <trkpt lat="48.982032" lon="9.578841">
        <ele>291.933456</ele>
        <time>2022-07-23T10:13:43.999Z</time>
      </trkpt>
      <trkpt lat="48.982096" lon="9.578674">
        <ele>291.707965</ele>
        <time>2022-07-23T10:13:46.999Z</time>
      </trkpt>
      <trkpt lat="48.982120" lon="9.578503">
        <ele>291.504069</ele>
        <time>2022-07-23T10:13:49.999Z</time>
      </trkpt>
      <trkpt lat="48.982177" lon="9.578369">
        <ele>291.317876</ele>
        <time>2022-07-23T10:13:52.999Z</time>
      </trkpt>
      <trkpt lat="48.982246" lon="9.578232">
        <ele>291.116516</ele>
        <time>2022-07-23T10:13:55.999Z</time>
      </trkpt>
      <trkpt lat="48.982302" lon="9.578111">
        <ele>290.943877</ele>
        <time>2022-07-23T10:13:58.999Z</time>
      </trkpt>
      <trkpt lat="48.982365" lon="9.577969">
        <ele>290.882944</ele>
        <time>2022-07-23T10:14:02.999Z</time>
      </trkpt>
      <trkpt lat="48.982367" lon="9.578106">
        <ele>290.834651</ele>
        <time>2022-07-23T10:16:07.999Z</time>
      </trkpt>
      <trkpt lat="48.982451" lon="9.578052">
        <ele>290.785695</ele>
        <time>2022-07-23T10:16:56.999Z</time>
      </trkpt>
      <trkpt lat="48.982396" lon="9.578162">
        <ele>290.736961</ele>
        <time>2022-07-23T10:18:56.999Z</time>
      </trkpt>
      <trkpt lat="48.982470" lon="9.578049">
        <ele>290.680705</ele>
        <time>2022-07-23T10:19:03.999Z</time>
      </trkpt>
      <trkpt lat="48.982405" lon="9.578159">
        <ele>290.628541</ele>
        <time>2022-07-23T10:19:18.999Z</time>
      </trkpt>
      <trkpt lat="48.982346" lon="9.578049">
        <ele>290.578477</ele>
        <time>2022-07-23T10:19:25.000Z</time>
      </trkpt>
      <trkpt lat="48.982415" lon="9.578154">
        <ele>290.526112</ele>
        <time>2022-07-23T10:19:50.000Z</time>
      </trkpt>
      <trkpt lat="48.982355" lon="9.578000">
        <ele>290.462998</ele>
        <time>2022-07-23T11:25:38.000Z</time>
      </trkpt>
      <trkpt lat="48.982423" lon="9.577892">
        <ele>290.410254</ele>
        <time>2022-07-23T11:31:15.000Z</time>
      </trkpt>
      <trkpt lat="48.982488" lon="9.577765">
        <ele>290.353497</ele>
        <time>2022-07-23T11:31:22.000Z</time>
      </trkpt>
      <trkpt lat="48.982539" lon="9.577638">
        <ele>290.301027</ele>
        <time>2022-07-23T11:31:26.998Z</time>
      </trkpt>
      <trkpt lat="48.982600" lon="9.577500">
        <ele>290.242392</ele>
        <time>2022-07-23T11:31:32.998Z</time>
      </trkpt>
      <trkpt lat="48.982671" lon="9.577358">
        <ele>290.179481</ele>
        <time>2022-07-23T11:31:36.999Z</time>
      </trkpt>
      <trkpt lat="48.982726" lon="9.577197">
        <ele>290.115516</ele>
        <time>2022-07-23T11:31:40.999Z</time>
      </trkpt>
      <trkpt lat="48.982771" lon="9.577057">
        <ele>290.060579</ele>
        <time>2022-07-23T11:31:43.999Z</time>
      </trkpt>
      <trkpt lat="48.982817" lon="9.576862">
        <ele>289.987555</ele>
        <time>2022-07-23T11:31:46.999Z</time>
      </trkpt>
      <trkpt lat="48.982858" lon="9.576728">
        <ele>289.794646</ele>
        <time>2022-07-23T11:31:48.999Z</time>
      </trkpt>
      <trkpt lat="48.982893" lon="9.576599">
        <ele>289.579898</ele>
        <time>2022-07-23T11:31:50.999Z</time>
      </trkpt>
      <trkpt lat="48.982938" lon="9.576415">
        <ele>289.277811</ele>
        <time>2022-07-23T11:31:53.999Z</time>
      </trkpt>
      <trkpt lat="48.982877" lon="9.576259">
        <ele>288.998447</ele>
        <time>2022-07-23T11:31:56.999Z</time>
      </trkpt>
      <trkpt lat="48.982885" lon="9.575955">
        <ele>288.530388</ele>
        <time>2022-07-23T11:32:17.999Z</time>
      </trkpt>
      <trkpt lat="48.982920" lon="9.575825">
        <ele>288.314218</ele>
        <time>2022-07-23T11:32:19.999Z</time>
      </trkpt>
      <trkpt lat="48.982965" lon="9.575659">
        <ele>288.037910</ele>
        <time>2022-07-23T11:32:21.999Z</time>
      </trkpt>
      <trkpt lat="48.983003" lon="9.575503">
        <ele>287.781918</ele>
        <time>2022-07-23T11:32:23.999Z</time>
      </trkpt>
      <trkpt lat="48.983040" lon="9.575340">
        <ele>287.516579</ele>
        <time>2022-07-23T11:32:25.999Z</time>
      </trkpt>
      <trkpt lat="48.983076" lon="9.575163">
        <ele>287.231501</ele>
        <time>2022-07-23T11:32:27.999Z</time>
      </trkpt>
      <trkpt lat="48.983107" lon="9.574999">
        <ele>286.968943</ele>
        <time>2022-07-23T11:32:29.999Z</time>
      </trkpt>
      <trkpt lat="48.983141" lon="9.574807">
        <ele>286.663002</ele>
        <time>2022-07-23T11:32:31.999Z</time>
      </trkpt>
      <trkpt lat="48.983172" lon="9.574606">
        <ele>286.345356</ele>
        <time>2022-07-23T11:32:33.999Z</time>
      </trkpt>
      <trkpt lat="48.983200" lon="9.574407">
        <ele>286.032254</ele>
        <time>2022-07-23T11:32:35.999Z</time>
      </trkpt>
      <trkpt lat="48.983224" lon="9.574212">
        <ele>285.780717</ele>
        <time>2022-07-23T11:32:37.999Z</time>
      </trkpt>
      <trkpt lat="48.983252" lon="9.574023">
        <ele>285.953696</ele>
        <time>2022-07-23T11:32:39.999Z</time>
      </trkpt>
      <trkpt lat="48.983269" lon="9.573831">
        <ele>286.126661</ele>
        <time>2022-07-23T11:32:41.999Z</time>
      </trkpt>
      <trkpt lat="48.983285" lon="9.573642">
        <ele>286.296793</ele>
        <time>2022-07-23T11:32:43.999Z</time>
      </trkpt>
      <trkpt lat="48.983294" lon="9.573449">
        <ele>286.469532</ele>
        <time>2022-07-23T11:32:45.999Z</time>
      </trkpt>
      <trkpt lat="48.983301" lon="9.573257">
        <ele>286.641208</ele>
        <time>2022-07-23T11:32:47.999Z</time>
      </trkpt>
      <trkpt lat="48.983326" lon="9.573073">
        <ele>286.808961</ele>
        <time>2022-07-23T11:32:49.999Z</time>
      </trkpt>
      <trkpt lat="48.983338" lon="9.572898">
        <ele>286.966046</ele>
        <time>2022-07-23T11:32:51.999Z</time>
      </trkpt>
      <trkpt lat="48.983347" lon="9.572740">
        <ele>287.107634</ele>
        <time>2022-07-23T11:32:53.999Z</time>
      </trkpt>
      <trkpt lat="48.983357" lon="9.572565">
        <ele>287.264460</ele>
        <time>2022-07-23T11:32:55.999Z</time>
      </trkpt>
      <trkpt lat="48.983371" lon="9.572388">
        <ele>287.423623</ele>
        <time>2022-07-23T11:32:57.999Z</time>
      </trkpt>
      <trkpt lat="48.983366" lon="9.572241">
        <ele>287.555037</ele>
        <time>2022-07-23T11:32:59.999Z</time>
      </trkpt>
      <trkpt lat="48.983350" lon="9.572056">
        <ele>287.721627</ele>
        <time>2022-07-23T11:33:02.999Z</time>
      </trkpt>
      <trkpt lat="48.983274" lon="9.571909">
        <ele>287.888696</ele>
        <time>2022-07-23T11:33:05.999Z</time>
      </trkpt>
      <trkpt lat="48.983257" lon="9.571735">
        <ele>288.045750</ele>
        <time>2022-07-23T11:33:08.999Z</time>
      </trkpt>
      <trkpt lat="48.983308" lon="9.571600">
        <ele>288.184816</ele>
        <time>2022-07-23T11:33:12.999Z</time>
      </trkpt>
      <trkpt lat="48.983310" lon="9.571429">
        <ele>288.229412</ele>
        <time>2022-07-23T11:33:20.999Z</time>
      </trkpt>
      <trkpt lat="48.983335" lon="9.571262">
        <ele>288.254902</ele>
        <time>2022-07-23T11:33:24.999Z</time>
      </trkpt>
      <trkpt lat="48.983370" lon="9.571132">
        <ele>288.275813</ele>
        <time>2022-07-23T11:33:31.999Z</time>
      </trkpt>
      <trkpt lat="48.983399" lon="9.570951">
        <ele>288.303540</ele>
        <time>2022-07-23T11:33:35.998Z</time>
      </trkpt>
      <trkpt lat="48.983428" lon="9.570760">
        <ele>288.332715</ele>
        <time>2022-07-23T11:33:38.998Z</time>
      </trkpt>
      <trkpt lat="48.983460" lon="9.570606">
        <ele>288.356754</ele>
        <time>2022-07-23T11:33:40.998Z</time>
      </trkpt>
      <trkpt lat="48.983500" lon="9.570437">
        <ele>288.383490</ele>
        <time>2022-07-23T11:33:42.998Z</time>
      </trkpt>
      <trkpt lat="48.983537" lon="9.570258">
        <ele>288.411418</ele>
        <time>2022-07-23T11:33:44.998Z</time>
      </trkpt>
      <trkpt lat="48.983564" lon="9.570109">
        <ele>288.434421</ele>
        <time>2022-07-23T11:33:46.998Z</time>
      </trkpt>
      <trkpt lat="48.983604" lon="9.569961">
        <ele>288.458241</ele>
        <time>2022-07-23T11:33:48.998Z</time>
      </trkpt>
      <trkpt lat="48.983659" lon="9.569811">
        <ele>288.483811</ele>
        <time>2022-07-23T11:33:50.998Z</time>
      </trkpt>
      <trkpt lat="48.983716" lon="9.569655">
        <ele>288.510382</ele>
        <time>2022-07-23T11:33:52.998Z</time>
      </trkpt>
      <trkpt lat="48.983773" lon="9.569503">
        <ele>288.536434</ele>
        <time>2022-07-23T11:33:54.998Z</time>
      </trkpt>
      <trkpt lat="48.983833" lon="9.569355">
        <ele>288.562322</ele>
        <time>2022-07-23T11:33:56.998Z</time>
      </trkpt>
      <trkpt lat="48.983891" lon="9.569187">
        <ele>288.590572</ele>
        <time>2022-07-23T11:33:58.998Z</time>
      </trkpt>
      <trkpt lat="48.983955" lon="9.569033">
        <ele>288.613319</ele>
        <time>2022-07-23T11:34:00.999Z</time>
      </trkpt>
      <trkpt lat="48.984007" lon="9.568918">
        <ele>288.589710</ele>
        <time>2022-07-23T11:34:02.999Z</time>
      </trkpt>
      <trkpt lat="48.984039" lon="9.568786">
        <ele>288.565921</ele>
        <time>2022-07-23T11:34:12.999Z</time>
      </trkpt>
      <trkpt lat="48.983948" lon="9.568999">
        <ele>288.522954</ele>
        <time>2022-07-23T11:34:34.999Z</time>
      </trkpt>
      <trkpt lat="48.983908" lon="9.569127">
        <ele>288.498987</ele>
        <time>2022-07-23T11:34:37.999Z</time>
      </trkpt>
      <trkpt lat="48.983856" lon="9.569305">
        <ele>288.466048</ele>
        <time>2022-07-23T11:34:40.999Z</time>
      </trkpt>
      <trkpt lat="48.983805" lon="9.569440">
        <ele>288.439715</ele>
        <time>2022-07-23T11:34:42.999Z</time>
      </trkpt>
      <trkpt lat="48.983752" lon="9.569580">
        <ele>288.412392</ele>
        <time>2022-07-23T11:34:44.999Z</time>
      </trkpt>
      <trkpt lat="48.983690" lon="9.569727">
        <ele>288.382851</ele>
        <time>2022-07-23T11:34:46.999Z</time>
      </trkpt>
      <trkpt lat="48.983623" lon="9.569895">
        <ele>288.349616</ele>
        <time>2022-07-23T11:34:48.999Z</time>
      </trkpt>
      <trkpt lat="48.983571" lon="9.570081">
        <ele>288.315438</ele>
        <time>2022-07-23T11:34:50.999Z</time>
      </trkpt>
      <trkpt lat="48.983526" lon="9.570272">
        <ele>288.281130</ele>
        <time>2022-07-23T11:34:52.999Z</time>
      </trkpt>
      <trkpt lat="48.983479" lon="9.570460">
        <ele>288.247120</ele>
        <time>2022-07-23T11:34:54.999Z</time>
      </trkpt>
      <trkpt lat="48.983435" lon="9.570648">
        <ele>288.213377</ele>
        <time>2022-07-23T11:34:56.999Z</time>
      </trkpt>
      <trkpt lat="48.983393" lon="9.570846">
        <ele>288.178198</ele>
        <time>2022-07-23T11:34:58.999Z</time>
      </trkpt>
      <trkpt lat="48.983353" lon="9.571044">
        <ele>288.118216</ele>
        <time>2022-07-23T11:35:00.999Z</time>
      </trkpt>
      <trkpt lat="48.983314" lon="9.571246">
        <ele>287.985453</ele>
        <time>2022-07-23T11:35:03.000Z</time>
      </trkpt>
      <trkpt lat="48.983284" lon="9.571448">
        <ele>287.854865</ele>
        <time>2022-07-23T11:35:05.000Z</time>
      </trkpt>
      <trkpt lat="48.983263" lon="9.571641">
        <ele>287.731512</ele>
        <time>2022-07-23T11:35:07.000Z</time>
      </trkpt>
      <trkpt lat="48.983246" lon="9.571809">
        <ele>287.624332</ele>
        <time>2022-07-23T11:35:09.000Z</time>
      </trkpt>
      <trkpt lat="48.983263" lon="9.571960">
        <ele>287.527731</ele>
        <time>2022-07-23T11:35:11.000Z</time>
      </trkpt>
      <trkpt lat="48.983329" lon="9.572106">
        <ele>287.415948</ele>
        <time>2022-07-23T11:35:14.000Z</time>
      </trkpt>
      <trkpt lat="48.983339" lon="9.572242">
        <ele>287.329660</ele>
        <time>2022-07-23T11:35:16.000Z</time>
      </trkpt>
      <trkpt lat="48.983323" lon="9.572390">
        <ele>287.235084</ele>
        <time>2022-07-23T11:35:18.000Z</time>
      </trkpt>
      <trkpt lat="48.983261" lon="9.572501">
        <ele>287.143178</ele>
        <time>2022-07-23T11:35:20.000Z</time>
      </trkpt>
      <trkpt lat="48.983146" lon="9.572539">
        <ele>287.030123</ele>
        <time>2022-07-23T11:35:23.000Z</time>
      </trkpt>
      <trkpt lat="48.983051" lon="9.572531">
        <ele>286.938711</ele>
        <time>2022-07-23T11:35:27.000Z</time>
      </trkpt>
      <trkpt lat="48.982944" lon="9.572522">
        <ele>286.835753</ele>
        <time>2022-07-23T11:35:37.000Z</time>
      </trkpt>
      <trkpt lat="48.982840" lon="9.572487">
        <ele>286.733425</ele>
        <time>2022-07-23T11:35:46.998Z</time>
      </trkpt>
      <trkpt lat="48.982732" lon="9.572478">
        <ele>286.629508</ele>
        <time>2022-07-23T11:35:49.998Z</time>
      </trkpt>
      <trkpt lat="48.982651" lon="9.572403">
        <ele>286.538444</ele>
        <time>2022-07-23T11:35:51.998Z</time>
      </trkpt>
      <trkpt lat="48.982555" lon="9.572337">
        <ele>286.437257</ele>
        <time>2022-07-23T11:35:53.998Z</time>
      </trkpt>
      <trkpt lat="48.982451" lon="9.572276">
        <ele>286.409907</ele>
        <time>2022-07-23T11:35:55.998Z</time>
      </trkpt>
      <trkpt lat="48.982349" lon="9.572210">
        <ele>286.393671</ele>
        <time>2022-07-23T11:35:57.998Z</time>
      </trkpt>
      <trkpt lat="48.982250" lon="9.572122">
        <ele>286.376879</ele>
        <time>2022-07-23T11:35:59.998Z</time>
      </trkpt>
      <trkpt lat="48.982168" lon="9.572002">
        <ele>286.360222</ele>
        <time>2022-07-23T11:36:01.998Z</time>
      </trkpt>
      <trkpt lat="48.982089" lon="9.571876">
        <ele>286.343467</ele>
        <time>2022-07-23T11:36:03.998Z</time>
      </trkpt>
      <trkpt lat="48.982010" lon="9.571743">
        <ele>286.326219</ele>
        <time>2022-07-23T11:36:05.999Z</time>
      </trkpt>
      <trkpt lat="48.981932" lon="9.571610">
        <ele>286.309068</ele>
        <time>2022-07-23T11:36:07.999Z</time>
      </trkpt>
      <trkpt lat="48.981874" lon="9.571501">
        <ele>286.295576</ele>
        <time>2022-07-23T11:36:09.999Z</time>
      </trkpt>
      <trkpt lat="48.981803" lon="9.571367">
        <ele>286.279016</ele>
        <time>2022-07-23T11:36:12.999Z</time>
      </trkpt>
      <trkpt lat="48.981735" lon="9.571233">
        <ele>286.262730</ele>
        <time>2022-07-23T11:36:15.999Z</time>
      </trkpt>
      <trkpt lat="48.981673" lon="9.571089">
        <ele>286.246170</ele>
        <time>2022-07-23T11:36:18.999Z</time>
      </trkpt>
      <trkpt lat="48.981605" lon="9.570943">
        <ele>286.228956</ele>
        <time>2022-07-23T11:36:21.999Z</time>
      </trkpt>
      <trkpt lat="48.981549" lon="9.570801">
        <ele>286.213026</ele>
        <time>2022-07-23T11:36:24.999Z</time>
      </trkpt>
      <trkpt lat="48.981503" lon="9.570629">
        <ele>286.195168</ele>
        <time>2022-07-23T11:36:27.999Z</time>
      </trkpt>
      <trkpt lat="48.981480" lon="9.570451">
        <ele>286.177724</ele>
        <time>2022-07-23T11:36:30.999Z</time>
      </trkpt>
      <trkpt lat="48.981468" lon="9.570284">
        <ele>286.161570</ele>
        <time>2022-07-23T11:36:33.999Z</time>
      </trkpt>
      <trkpt lat="48.981447" lon="9.570110">
        <ele>286.216956</ele>
        <time>2022-07-23T11:36:36.999Z</time>
      </trkpt>
      <trkpt lat="48.981429" lon="9.569946">
        <ele>286.272527</ele>
        <time>2022-07-23T11:36:39.999Z</time>
      </trkpt>
      <trkpt lat="48.981415" lon="9.569788">
        <ele>286.325811</ele>
        <time>2022-07-23T11:36:42.999Z</time>
      </trkpt>
      <trkpt lat="48.981403" lon="9.569631">
        <ele>286.378637</ele>
        <time>2022-07-23T11:36:45.999Z</time>
      </trkpt>
      <trkpt lat="48.981388" lon="9.569466">
        <ele>286.434308</ele>
        <time>2022-07-23T11:36:48.999Z</time>
      </trkpt>
      <trkpt lat="48.981375" lon="9.569279">
        <ele>286.497154</ele>
        <time>2022-07-23T11:36:52.000Z</time>
      </trkpt>
      <trkpt lat="48.981368" lon="9.569142">
        <ele>286.543079</ele>
        <time>2022-07-23T11:36:54.000Z</time>
      </trkpt>
      <trkpt lat="48.981360" lon="9.569000">
        <ele>286.590711</ele>
        <time>2022-07-23T11:36:56.000Z</time>
      </trkpt>
      <trkpt lat="48.981348" lon="9.568854">
        <ele>286.639887</ele>
        <time>2022-07-23T11:36:58.000Z</time>
      </trkpt>
      <trkpt lat="48.981339" lon="9.568708">
        <ele>286.688896</ele>
        <time>2022-07-23T11:37:00.000Z</time>
      </trkpt>
      <trkpt lat="48.981329" lon="9.568555">
        <ele>286.740283</ele>
        <time>2022-07-23T11:37:02.000Z</time>
      </trkpt>
      <trkpt lat="48.981326" lon="9.568394">
        <ele>286.794113</ele>
        <time>2022-07-23T11:37:04.000Z</time>
      </trkpt>
      <trkpt lat="48.981320" lon="9.568227">
        <ele>286.850009</ele>
        <time>2022-07-23T11:37:06.000Z</time>
      </trkpt>
      <trkpt lat="48.981314" lon="9.568058">
        <ele>286.906573</ele>
        <time>2022-07-23T11:37:08.000Z</time>
      </trkpt>
      <trkpt lat="48.981309" lon="9.567886">
        <ele>286.964113</ele>
        <time>2022-07-23T11:37:10.000Z</time>
      </trkpt>
      <trkpt lat="48.981306" lon="9.567713">
        <ele>287.021951</ele>
        <time>2022-07-23T11:37:12.000Z</time>
      </trkpt>
      <trkpt lat="48.981302" lon="9.567540">
        <ele>287.079405</ele>
        <time>2022-07-23T11:37:14.000Z</time>
      </trkpt>
      <trkpt lat="48.981299" lon="9.567364">
        <ele>287.130761</ele>
        <time>2022-07-23T11:37:16.000Z</time>
      </trkpt>
      <trkpt lat="48.981296" lon="9.567185">
        <ele>287.182992</ele>
        <time>2022-07-23T11:37:18.000Z</time>
      </trkpt>
      <trkpt lat="48.981295" lon="9.567003">
        <ele>287.236083</ele>
        <time>2022-07-23T11:37:20.000Z</time>
      </trkpt>
      <trkpt lat="48.981294" lon="9.566821">
        <ele>287.289173</ele>
        <time>2022-07-23T11:37:22.000Z</time>
      </trkpt>
      <trkpt lat="48.981291" lon="9.566632">
        <ele>287.344320</ele>
        <time>2022-07-23T11:37:24.000Z</time>
      </trkpt>
      <trkpt lat="48.981301" lon="9.566462">
        <ele>287.394108</ele>
        <time>2022-07-23T11:37:26.000Z</time>
      </trkpt>
      <trkpt lat="48.981324" lon="9.566283">
        <ele>287.447313</ele>
        <time>2022-07-23T11:37:28.000Z</time>
      </trkpt>
      <trkpt lat="48.981356" lon="9.566116">
        <ele>287.498060</ele>
        <time>2022-07-23T11:37:30.000Z</time>
      </trkpt>
      <trkpt lat="48.981391" lon="9.565955">
        <ele>287.547533</ele>
        <time>2022-07-23T11:37:32.000Z</time>
      </trkpt>
      <trkpt lat="48.981440" lon="9.565804">
        <ele>287.596669</ele>
        <time>2022-07-23T11:37:34.000Z</time>
      </trkpt>
      <trkpt lat="48.981496" lon="9.565659">
        <ele>287.645745</ele>
        <time>2022-07-23T11:37:36.000Z</time>
      </trkpt>
      <trkpt lat="48.981554" lon="9.565519">
        <ele>287.694038</ele>
        <time>2022-07-23T11:37:38.000Z</time>
      </trkpt>
      <trkpt lat="48.981614" lon="9.565384">
        <ele>287.741597</ele>
        <time>2022-07-23T11:37:40.000Z</time>
      </trkpt>
      <trkpt lat="48.981672" lon="9.565254">
        <ele>287.787450</ele>
        <time>2022-07-23T11:37:42.000Z</time>
      </trkpt>
      <trkpt lat="48.981721" lon="9.565120">
        <ele>287.832195</ele>
        <time>2022-07-23T11:37:44.000Z</time>
      </trkpt>
      <trkpt lat="48.981767" lon="9.564982">
        <ele>287.883035</ele>
        <time>2022-07-23T11:37:45.998Z</time>
      </trkpt>
      <trkpt lat="48.981799" lon="9.564831">
        <ele>288.136066</ele>
        <time>2022-07-23T11:37:47.998Z</time>
      </trkpt>
      <trkpt lat="48.981808" lon="9.564674">
        <ele>288.387375</ele>
        <time>2022-07-23T11:37:49.998Z</time>
      </trkpt>
      <trkpt lat="48.981806" lon="9.564532">
        <ele>288.613864</ele>
        <time>2022-07-23T11:37:51.998Z</time>
      </trkpt>
      <trkpt lat="48.981788" lon="9.564383">
        <ele>288.855455</ele>
        <time>2022-07-23T11:37:53.998Z</time>
      </trkpt>
      <trkpt lat="48.981768" lon="9.564224">
        <ele>289.113615</ele>
        <time>2022-07-23T11:37:55.999Z</time>
      </trkpt>
      <trkpt lat="48.981754" lon="9.564071">
        <ele>289.359953</ele>
        <time>2022-07-23T11:37:57.999Z</time>
      </trkpt>
      <trkpt lat="48.981712" lon="9.563881">
        <ele>289.679657</ele>
        <time>2022-07-23T11:38:00.999Z</time>
      </trkpt>
      <trkpt lat="48.981633" lon="9.563810">
        <ele>289.902508</ele>
        <time>2022-07-23T11:38:02.999Z</time>
      </trkpt>
      <trkpt lat="48.981535" lon="9.563792">
        <ele>290.142345</ele>
        <time>2022-07-23T11:38:04.999Z</time>
      </trkpt>
      <trkpt lat="48.981443" lon="9.563781">
        <ele>290.366567</ele>
        <time>2022-07-23T11:38:06.999Z</time>
      </trkpt>
      <trkpt lat="48.981353" lon="9.563742">
        <ele>290.593914</ele>
        <time>2022-07-23T11:38:08.999Z</time>
      </trkpt>
      <trkpt lat="48.981261" lon="9.563675">
        <ele>290.841669</ele>
        <time>2022-07-23T11:38:10.999Z</time>
      </trkpt>
      <trkpt lat="48.981174" lon="9.563601">
        <ele>291.083762</ele>
        <time>2022-07-23T11:38:12.999Z</time>
      </trkpt>
      <trkpt lat="48.981092" lon="9.563527">
        <ele>291.315323</ele>
        <time>2022-07-23T11:38:14.999Z</time>
      </trkpt>
      <trkpt lat="48.981016" lon="9.563414">
        <ele>291.573333</ele>
        <time>2022-07-23T11:38:16.999Z</time>
      </trkpt>
      <trkpt lat="48.980958" lon="9.563287">
        <ele>291.820061</ele>
        <time>2022-07-23T11:38:18.999Z</time>
      </trkpt>
      <trkpt lat="48.980907" lon="9.563139">
        <ele>292.086623</ele>
        <time>2022-07-23T11:38:20.999Z</time>
      </trkpt>
      <trkpt lat="48.980846" lon="9.562988">
        <ele>292.361415</ele>
        <time>2022-07-23T11:38:22.999Z</time>
      </trkpt>
      <trkpt lat="48.980789" lon="9.562827">
        <ele>292.634266</ele>
        <time>2022-07-23T11:38:24.999Z</time>
      </trkpt>
      <trkpt lat="48.980734" lon="9.562672">
        <ele>292.897083</ele>
        <time>2022-07-23T11:38:26.999Z</time>
      </trkpt>
      <trkpt lat="48.980680" lon="9.562515">
        <ele>293.161466</ele>
        <time>2022-07-23T11:38:28.999Z</time>
      </trkpt>
      <trkpt lat="48.980623" lon="9.562355">
        <ele>293.433006</ele>
        <time>2022-07-23T11:38:31.000Z</time>
      </trkpt>
      <trkpt lat="48.980566" lon="9.562193">
        <ele>293.707172</ele>
        <time>2022-07-23T11:38:33.000Z</time>
      </trkpt>
      <trkpt lat="48.980519" lon="9.562024">
        <ele>293.980942</ele>
        <time>2022-07-23T11:38:35.000Z</time>
      </trkpt>
      <trkpt lat="48.980478" lon="9.561853">
        <ele>294.252486</ele>
        <time>2022-07-23T11:38:37.000Z</time>
      </trkpt>
      <trkpt lat="48.980443" lon="9.561689">
        <ele>294.509710</ele>
        <time>2022-07-23T11:38:39.000Z</time>
      </trkpt>
      <trkpt lat="48.980406" lon="9.561531">
        <ele>294.759929</ele>
        <time>2022-07-23T11:38:41.000Z</time>
      </trkpt>
      <trkpt lat="48.980375" lon="9.561365">
        <ele>295.017357</ele>
        <time>2022-07-23T11:38:43.000Z</time>
      </trkpt>
      <trkpt lat="48.980348" lon="9.561216">
        <ele>295.247916</ele>
        <time>2022-07-23T11:38:45.000Z</time>
      </trkpt>
      <trkpt lat="48.980326" lon="9.561078">
        <ele>295.459737</ele>
        <time>2022-07-23T11:38:47.000Z</time>
      </trkpt>
      <trkpt lat="48.980304" lon="9.560945">
        <ele>295.664319</ele>
        <time>2022-07-23T11:38:49.000Z</time>
      </trkpt>
      <trkpt lat="48.980243" lon="9.560801">
        <ele>295.919958</ele>
        <time>2022-07-23T11:38:52.000Z</time>
      </trkpt>
      <trkpt lat="48.980138" lon="9.560768">
        <ele>296.163608</ele>
        <time>2022-07-23T11:38:55.000Z</time>
      </trkpt>
      <trkpt lat="48.980024" lon="9.560696">
        <ele>296.579891</ele>
        <time>2022-07-23T11:38:58.000Z</time>
      </trkpt>
      <trkpt lat="48.979901" lon="9.560627">
        <ele>297.245123</ele>
        <time>2022-07-23T11:39:01.000Z</time>
      </trkpt>
      <trkpt lat="48.979810" lon="9.560582">
        <ele>297.730694</ele>
        <time>2022-07-23T11:39:03.000Z</time>
      </trkpt>
      <trkpt lat="48.979709" lon="9.560560">
        <ele>298.248513</ele>
        <time>2022-07-23T11:39:05.000Z</time>
      </trkpt>
      <trkpt lat="48.979612" lon="9.560561">
        <ele>298.740830</ele>
        <time>2022-07-23T11:39:07.000Z</time>
      </trkpt>
      <trkpt lat="48.979514" lon="9.560580">
        <ele>299.242222</ele>
        <time>2022-07-23T11:39:09.000Z</time>
      </trkpt>
      <trkpt lat="48.979415" lon="9.560587">
        <ele>299.745220</ele>
        <time>2022-07-23T11:39:11.000Z</time>
      </trkpt>
      <trkpt lat="48.979321" lon="9.560590">
        <ele>300.222404</ele>
        <time>2022-07-23T11:39:13.000Z</time>
      </trkpt>
      <trkpt lat="48.979220" lon="9.560592">
        <ele>300.735055</ele>
        <time>2022-07-23T11:39:15.000Z</time>
      </trkpt>
      <trkpt lat="48.979105" lon="9.560598">
        <ele>301.319059</ele>
        <time>2022-07-23T11:39:17.000Z</time>
      </trkpt>
      <trkpt lat="48.978992" lon="9.560592">
        <ele>301.892918</ele>
        <time>2022-07-23T11:39:19.000Z</time>
      </trkpt>
      <trkpt lat="48.978884" lon="9.560588">
        <ele>302.441215</ele>
        <time>2022-07-23T11:39:21.000Z</time>
      </trkpt>
      <trkpt lat="48.978771" lon="9.560585">
        <ele>303.014813</ele>
        <time>2022-07-23T11:39:23.001Z</time>
      </trkpt>
      <trkpt lat="48.978650" lon="9.560578">
        <ele>303.629369</ele>
        <time>2022-07-23T11:39:25.001Z</time>
      </trkpt>
      <trkpt lat="48.978526" lon="9.560569">
        <ele>304.259423</ele>
        <time>2022-07-23T11:39:27.001Z</time>
      </trkpt>
      <trkpt lat="48.978404" lon="9.560541">
        <ele>304.885597</ele>
        <time>2022-07-23T11:39:29.001Z</time>
      </trkpt>
      <trkpt lat="48.978289" lon="9.560475">
        <ele>305.558172</ele>
        <time>2022-07-23T11:39:31.001Z</time>
      </trkpt>
      <trkpt lat="48.978188" lon="9.560385">
        <ele>306.773824</ele>
        <time>2022-07-23T11:39:33.001Z</time>
      </trkpt>
      <trkpt lat="48.978093" lon="9.560302">
        <ele>307.911610</ele>
        <time>2022-07-23T11:39:35.001Z</time>
      </trkpt>
      <trkpt lat="48.978012" lon="9.560231">
        <ele>308.882509</ele>
        <time>2022-07-23T11:39:37.001Z</time>
      </trkpt>
      <trkpt lat="48.977928" lon="9.560120">
        <ele>310.037764</ele>
        <time>2022-07-23T11:39:40.001Z</time>
      </trkpt>
      <trkpt lat="48.977848" lon="9.560035">
        <ele>311.051089</ele>
        <time>2022-07-23T11:39:44.001Z</time>
      </trkpt>
      <trkpt lat="48.977759" lon="9.559951">
        <ele>312.138818</ele>
        <time>2022-07-23T11:39:48.001Z</time>
      </trkpt>
      <trkpt lat="48.977671" lon="9.559895">
        <ele>313.129656</ele>
        <time>2022-07-23T11:39:50.999Z</time>
      </trkpt>
      <trkpt lat="48.977575" lon="9.559840">
        <ele>314.195251</ele>
        <time>2022-07-23T11:39:53.999Z</time>
      </trkpt>
      <trkpt lat="48.977473" lon="9.559743">
        <ele>315.444494</ele>
        <time>2022-07-23T11:39:56.999Z</time>
      </trkpt>
      <trkpt lat="48.977386" lon="9.559621">
        <ele>316.672985</ele>
        <time>2022-07-23T11:39:59.999Z</time>
      </trkpt>
      <trkpt lat="48.977307" lon="9.559488">
        <ele>317.896211</ele>
        <time>2022-07-23T11:40:02.999Z</time>
      </trkpt>
      <trkpt lat="48.977236" lon="9.559356">
        <ele>319.060010</ele>
        <time>2022-07-23T11:40:05.999Z</time>
      </trkpt>
      <trkpt lat="48.977164" lon="9.559223">
        <ele>320.235675</ele>
        <time>2022-07-23T11:40:08.999Z</time>
      </trkpt>
      <trkpt lat="48.977088" lon="9.559094">
        <ele>321.417775</ele>
        <time>2022-07-23T11:40:11.999Z</time>
      </trkpt>
      <trkpt lat="48.977008" lon="9.558970">
        <ele>322.603478</ele>
        <time>2022-07-23T11:40:14.999Z</time>
      </trkpt>
      <trkpt lat="48.976923" lon="9.558846">
        <ele>323.826159</ele>
        <time>2022-07-23T11:40:17.999Z</time>
      </trkpt>
      <trkpt lat="48.976837" lon="9.558720">
        <ele>325.301865</ele>
        <time>2022-07-23T11:40:20.999Z</time>
      </trkpt>
      <trkpt lat="48.976751" lon="9.558590">
        <ele>326.885002</ele>
        <time>2022-07-23T11:40:23.999Z</time>
      </trkpt>
      <trkpt lat="48.976667" lon="9.558461">
        <ele>328.443594</ele>
        <time>2022-07-23T11:40:26.999Z</time>
      </trkpt>
      <trkpt lat="48.976588" lon="9.558324">
        <ele>330.007753</ele>
        <time>2022-07-23T11:40:30.000Z</time>
      </trkpt>
      <trkpt lat="48.976510" lon="9.558181">
        <ele>331.602553</ele>
        <time>2022-07-23T11:40:33.000Z</time>
      </trkpt>
      <trkpt lat="48.976435" lon="9.558034">
        <ele>333.199535</ele>
        <time>2022-07-23T11:40:36.000Z</time>
      </trkpt>
      <trkpt lat="48.976346" lon="9.557920">
        <ele>334.719000</ele>
        <time>2022-07-23T11:40:39.000Z</time>
      </trkpt>
      <trkpt lat="48.976233" lon="9.557891">
        <ele>336.216468</ele>
        <time>2022-07-23T11:40:42.000Z</time>
      </trkpt>
      <trkpt lat="48.976116" lon="9.557880">
        <ele>337.748311</ele>
        <time>2022-07-23T11:40:45.000Z</time>
      </trkpt>
      <trkpt lat="48.976005" lon="9.557887">
        <ele>339.200082</ele>
        <time>2022-07-23T11:40:48.000Z</time>
      </trkpt>
      <trkpt lat="48.975903" lon="9.557903">
        <ele>340.540046</ele>
        <time>2022-07-23T11:40:51.000Z</time>
      </trkpt>
      <trkpt lat="48.975805" lon="9.557916">
        <ele>341.825538</ele>
        <time>2022-07-23T11:40:54.000Z</time>
      </trkpt>
      <trkpt lat="48.975708" lon="9.557928">
        <ele>343.097289</ele>
        <time>2022-07-23T11:40:57.000Z</time>
      </trkpt>
      <trkpt lat="48.975592" lon="9.557959">
        <ele>344.636300</ele>
        <time>2022-07-23T11:41:01.000Z</time>
      </trkpt>
      <trkpt lat="48.975483" lon="9.557997">
        <ele>346.097510</ele>
        <time>2022-07-23T11:41:05.000Z</time>
      </trkpt>
      <trkpt lat="48.975381" lon="9.558046">
        <ele>347.495122</ele>
        <time>2022-07-23T11:41:09.000Z</time>
      </trkpt>
      <trkpt lat="48.975291" lon="9.558109">
        <ele>349.583082</ele>
        <time>2022-07-23T11:41:13.000Z</time>
      </trkpt>
      <trkpt lat="48.975211" lon="9.558178">
        <ele>351.624326</ele>
        <time>2022-07-23T11:41:17.001Z</time>
      </trkpt>
      <trkpt lat="48.975117" lon="9.558260">
        <ele>354.029460</ele>
        <time>2022-07-23T11:41:22.001Z</time>
      </trkpt>
      <trkpt lat="48.975038" lon="9.558354">
        <ele>356.255195</ele>
        <time>2022-07-23T11:41:29.001Z</time>
      </trkpt>
      <trkpt lat="48.974963" lon="9.558459">
        <ele>358.516872</ele>
        <time>2022-07-23T11:41:34.001Z</time>
      </trkpt>
      <trkpt lat="48.974891" lon="9.558561">
        <ele>360.699955</ele>
        <time>2022-07-23T11:41:38.001Z</time>
      </trkpt>
      <trkpt lat="48.974814" lon="9.558672">
        <ele>363.053755</ele>
        <time>2022-07-23T11:41:42.001Z</time>
      </trkpt>
      <trkpt lat="48.974739" lon="9.558786">
        <ele>365.406175</ele>
        <time>2022-07-23T11:41:46.001Z</time>
      </trkpt>
      <trkpt lat="48.974667" lon="9.558908">
        <ele>367.797308</ele>
        <time>2022-07-23T11:41:50.001Z</time>
      </trkpt>
      <trkpt lat="48.974589" lon="9.559017">
        <ele>370.147488</ele>
        <time>2022-07-23T11:41:54.001Z</time>
      </trkpt>
      <trkpt lat="48.974505" lon="9.559112">
        <ele>372.470396</ele>
        <time>2022-07-23T11:41:57.999Z</time>
      </trkpt>
      <trkpt lat="48.974422" lon="9.559217">
        <ele>374.865896</ele>
        <time>2022-07-23T11:42:01.999Z</time>
      </trkpt>
      <trkpt lat="48.974348" lon="9.559326">
        <ele>377.151418</ele>
        <time>2022-07-23T11:42:05.999Z</time>
      </trkpt>
      <trkpt lat="48.974275" lon="9.559434">
        <ele>379.410854</ele>
        <time>2022-07-23T11:42:09.999Z</time>
      </trkpt>
      <trkpt lat="48.974198" lon="9.559539">
        <ele>381.705442</ele>
        <time>2022-07-23T11:42:13.999Z</time>
      </trkpt>
      <trkpt lat="48.974125" lon="9.559649">
        <ele>383.985284</ele>
        <time>2022-07-23T11:42:17.999Z</time>
      </trkpt>
      <trkpt lat="48.974046" lon="9.559759">
        <ele>386.361695</ele>
        <time>2022-07-23T11:42:22.000Z</time>
      </trkpt>
      <trkpt lat="48.973975" lon="9.559872">
        <ele>388.623661</ele>
        <time>2022-07-23T11:42:26.000Z</time>
      </trkpt>
      <trkpt lat="48.973905" lon="9.559986">
        <ele>390.860055</ele>
        <time>2022-07-23T11:42:30.000Z</time>
      </trkpt>
      <trkpt lat="48.973836" lon="9.560104">
        <ele>393.124059</ele>
        <time>2022-07-23T11:42:34.000Z</time>
      </trkpt>
      <trkpt lat="48.973782" lon="9.560233">
        <ele>395.315976</ele>
        <time>2022-07-23T11:42:38.000Z</time>
      </trkpt>
      <trkpt lat="48.973755" lon="9.560378">
        <ele>397.475263</ele>
        <time>2022-07-23T11:42:42.000Z</time>
      </trkpt>
      <trkpt lat="48.973746" lon="9.560531">
        <ele>399.675978</ele>
        <time>2022-07-23T11:42:46.000Z</time>
      </trkpt>
      <trkpt lat="48.973759" lon="9.560687">
        <ele>401.928826</ele>
        <time>2022-07-23T11:42:50.000Z</time>
      </trkpt>
      <trkpt lat="48.973789" lon="9.560848">
        <ele>404.326501</ele>
        <time>2022-07-23T11:42:54.000Z</time>
      </trkpt>
      <trkpt lat="48.973828" lon="9.561005">
        <ele>406.731410</ele>
        <time>2022-07-23T11:42:58.000Z</time>
      </trkpt>
      <trkpt lat="48.973865" lon="9.561151">
        <ele>408.973528</ele>
        <time>2022-07-23T11:43:02.000Z</time>
      </trkpt>
      <trkpt lat="48.973894" lon="9.561301">
        <ele>411.213747</ele>
        <time>2022-07-23T11:43:06.000Z</time>
      </trkpt>
      <trkpt lat="48.973915" lon="9.561458">
        <ele>413.509200</ele>
        <time>2022-07-23T11:43:10.001Z</time>
      </trkpt>
      <trkpt lat="48.973937" lon="9.561608">
        <ele>415.711135</ele>
        <time>2022-07-23T11:43:14.001Z</time>
      </trkpt>
      <trkpt lat="48.973949" lon="9.561763">
        <ele>417.947102</ele>
        <time>2022-07-23T11:43:18.001Z</time>
      </trkpt>
      <trkpt lat="48.973973" lon="9.561923">
        <ele>420.298397</ele>
        <time>2022-07-23T11:43:22.001Z</time>
      </trkpt>
      <trkpt lat="48.973992" lon="9.562091">
        <ele>422.740675</ele>
        <time>2022-07-23T11:43:26.001Z</time>
      </trkpt>
      <trkpt lat="48.974004" lon="9.562259">
        <ele>425.161697</ele>
        <time>2022-07-23T11:43:30.001Z</time>
      </trkpt>
      <trkpt lat="48.974018" lon="9.562413">
        <ele>427.261824</ele>
        <time>2022-07-23T11:43:34.001Z</time>
      </trkpt>
      <trkpt lat="48.974008" lon="9.562574">
        <ele>429.034089</ele>
        <time>2022-07-23T11:43:38.001Z</time>
      </trkpt>
      <trkpt lat="48.973978" lon="9.562735">
        <ele>430.868187</ele>
        <time>2022-07-23T11:43:42.001Z</time>
      </trkpt>
      <trkpt lat="48.973935" lon="9.562886">
        <ele>432.671999</ele>
        <time>2022-07-23T11:43:46.001Z</time>
      </trkpt>
      <trkpt lat="48.973896" lon="9.563032">
        <ele>434.399416</ele>
        <time>2022-07-23T11:43:50.001Z</time>
      </trkpt>
      <trkpt lat="48.973866" lon="9.563184">
        <ele>436.138845</ele>
        <time>2022-07-23T11:43:54.001Z</time>
      </trkpt>
      <trkpt lat="48.973839" lon="9.563339">
        <ele>437.896276</ele>
        <time>2022-07-23T11:43:58.002Z</time>
      </trkpt>
      <trkpt lat="48.973820" lon="9.563488">
        <ele>439.559685</ele>
        <time>2022-07-23T11:44:02.002Z</time>
      </trkpt>
      <trkpt lat="48.973796" lon="9.563655">
        <ele>441.433179</ele>
        <time>2022-07-23T11:44:06.000Z</time>
      </trkpt>
      <trkpt lat="48.973774" lon="9.563817">
        <ele>443.246127</ele>
        <time>2022-07-23T11:44:10.000Z</time>
      </trkpt>
      <trkpt lat="48.973754" lon="9.563979">
        <ele>445.052606</ele>
        <time>2022-07-23T11:44:14.000Z</time>
      </trkpt>
      <trkpt lat="48.973748" lon="9.564154">
        <ele>446.973039</ele>
        <time>2022-07-23T11:44:18.000Z</time>
      </trkpt>
      <trkpt lat="48.973763" lon="9.564318">
        <ele>448.787672</ele>
        <time>2022-07-23T11:44:22.000Z</time>
      </trkpt>
      <trkpt lat="48.973762" lon="9.564492">
        <ele>450.694604</ele>
        <time>2022-07-23T11:44:26.000Z</time>
      </trkpt>
      <trkpt lat="48.973755" lon="9.564667">
        <ele>452.615980</ele>
        <time>2022-07-23T11:44:30.000Z</time>
      </trkpt>
      <trkpt lat="48.973727" lon="9.564830">
        <ele>454.462446</ele>
        <time>2022-07-23T11:44:34.000Z</time>
      </trkpt>
      <trkpt lat="48.973690" lon="9.564997">
        <ele>456.394034</ele>
        <time>2022-07-23T11:44:38.000Z</time>
      </trkpt>
      <trkpt lat="48.973657" lon="9.565129">
        <ele>457.146021</ele>
        <time>2022-07-23T11:44:42.000Z</time>
      </trkpt>
      <trkpt lat="48.973603" lon="9.565267">
        <ele>457.590702</ele>
        <time>2022-07-23T11:44:45.000Z</time>
      </trkpt>
      <trkpt lat="48.973541" lon="9.565400">
        <ele>458.042211</ele>
        <time>2022-07-23T11:44:48.000Z</time>
      </trkpt>
      <trkpt lat="48.973462" lon="9.565510">
        <ele>458.493501</ele>
        <time>2022-07-23T11:44:51.000Z</time>
      </trkpt>
      <trkpt lat="48.973375" lon="9.565584">
        <ele>458.913654</ele>
        <time>2022-07-23T11:44:54.000Z</time>
      </trkpt>
      <trkpt lat="48.973281" lon="9.565625">
        <ele>459.325944</ele>
        <time>2022-07-23T11:44:57.000Z</time>
      </trkpt>
      <trkpt lat="48.973170" lon="9.565647">
        <ele>459.797935</ele>
        <time>2022-07-23T11:45:00.000Z</time>
      </trkpt>
      <trkpt lat="48.973068" lon="9.565614">
        <ele>460.237625</ele>
        <time>2022-07-23T11:45:03.001Z</time>
      </trkpt>
      <trkpt lat="48.972971" lon="9.565539">
        <ele>460.696304</ele>
        <time>2022-07-23T11:45:06.001Z</time>
      </trkpt>
      <trkpt lat="48.972893" lon="9.565435">
        <ele>461.133381</ele>
        <time>2022-07-23T11:45:09.001Z</time>
      </trkpt>
      <trkpt lat="48.972822" lon="9.565332">
        <ele>461.546789</ele>
        <time>2022-07-23T11:45:12.001Z</time>
      </trkpt>
      <trkpt lat="48.972751" lon="9.565227">
        <ele>461.964034</ele>
        <time>2022-07-23T11:45:15.001Z</time>
      </trkpt>
      <trkpt lat="48.972666" lon="9.565114">
        <ele>462.439730</ele>
        <time>2022-07-23T11:45:18.001Z</time>
      </trkpt>
      <trkpt lat="48.972591" lon="9.565013">
        <ele>462.861825</ele>
        <time>2022-07-23T11:45:21.001Z</time>
      </trkpt>
      <trkpt lat="48.972508" lon="9.564906">
        <ele>463.320301</ele>
        <time>2022-07-23T11:45:25.001Z</time>
      </trkpt>
      <trkpt lat="48.972422" lon="9.564806">
        <ele>463.776496</ele>
        <time>2022-07-23T11:45:29.001Z</time>
      </trkpt>
      <trkpt lat="48.972332" lon="9.564719">
        <ele>464.225948</ele>
        <time>2022-07-23T11:45:34.001Z</time>
      </trkpt>
      <trkpt lat="48.972218" lon="9.564636">
        <ele>464.704323</ele>
        <time>2022-07-23T11:45:38.001Z</time>
      </trkpt>
      <trkpt lat="48.972109" lon="9.564571">
        <ele>465.107622</ele>
        <time>2022-07-23T11:45:41.001Z</time>
      </trkpt>
      <trkpt lat="48.971994" lon="9.564510">
        <ele>465.527176</ele>
        <time>2022-07-23T11:45:44.001Z</time>
      </trkpt>
      <trkpt lat="48.971880" lon="9.564451">
        <ele>465.942002</ele>
        <time>2022-07-23T11:45:47.001Z</time>
      </trkpt>
      <trkpt lat="48.971754" lon="9.564404">
        <ele>466.388949</ele>
        <time>2022-07-23T11:45:50.001Z</time>
      </trkpt>
      <trkpt lat="48.971637" lon="9.564355">
        <ele>466.807019</ele>
        <time>2022-07-23T11:45:52.001Z</time>
      </trkpt>
      <trkpt lat="48.971512" lon="9.564296">
        <ele>467.257895</ele>
        <time>2022-07-23T11:45:54.002Z</time>
      </trkpt>
      <trkpt lat="48.971375" lon="9.564227">
        <ele>467.755046</ele>
        <time>2022-07-23T11:45:56.002Z</time>
      </trkpt>
      <trkpt lat="48.971231" lon="9.564138">
        <ele>468.290465</ele>
        <time>2022-07-23T11:45:58.002Z</time>
      </trkpt>
      <trkpt lat="48.971084" lon="9.564035">
        <ele>468.847948</ele>
        <time>2022-07-23T11:46:00.002Z</time>
      </trkpt>
      <trkpt lat="48.970933" lon="9.563932">
        <ele>469.417980</ele>
        <time>2022-07-23T11:46:02.002Z</time>
      </trkpt>
      <trkpt lat="48.970794" lon="9.563843">
        <ele>469.937477</ele>
        <time>2022-07-23T11:46:04.002Z</time>
      </trkpt>
      <trkpt lat="48.970661" lon="9.563757">
        <ele>470.435290</ele>
        <time>2022-07-23T11:46:06.002Z</time>
      </trkpt>
      <trkpt lat="48.970527" lon="9.563680">
        <ele>470.756037</ele>
        <time>2022-07-23T11:46:08.002Z</time>
      </trkpt>
      <trkpt lat="48.970392" lon="9.563591">
        <ele>470.939118</ele>
        <time>2022-07-23T11:46:10.000Z</time>
      </trkpt>
      <trkpt lat="48.970260" lon="9.563494">
        <ele>471.121521</ele>
        <time>2022-07-23T11:46:12.000Z</time>
      </trkpt>
      <trkpt lat="48.970133" lon="9.563370">
        <ele>471.309266</ele>
        <time>2022-07-23T11:46:14.000Z</time>
      </trkpt>
      <trkpt lat="48.970015" lon="9.563243">
        <ele>471.489086</ele>
        <time>2022-07-23T11:46:16.000Z</time>
      </trkpt>
      <trkpt lat="48.969900" lon="9.563125">
        <ele>471.661656</ele>
        <time>2022-07-23T11:46:18.000Z</time>
      </trkpt>
      <trkpt lat="48.969798" lon="9.563004">
        <ele>471.822558</ele>
        <time>2022-07-23T11:46:20.000Z</time>
      </trkpt>
      <trkpt lat="48.969704" lon="9.562889">
        <ele>471.972610</ele>
        <time>2022-07-23T11:46:22.000Z</time>
      </trkpt>
      <trkpt lat="48.969606" lon="9.562776">
        <ele>472.125582</ele>
        <time>2022-07-23T11:46:24.000Z</time>
      </trkpt>
      <trkpt lat="48.969508" lon="9.562672">
        <ele>472.274233</ele>
        <time>2022-07-23T11:46:26.000Z</time>
      </trkpt>
      <trkpt lat="48.969406" lon="9.562574">
        <ele>472.424323</ele>
        <time>2022-07-23T11:46:28.000Z</time>
      </trkpt>
      <trkpt lat="48.969298" lon="9.562482">
        <ele>472.578330</ele>
        <time>2022-07-23T11:46:30.000Z</time>
      </trkpt>
      <trkpt lat="48.969195" lon="9.562387">
        <ele>472.728191</ele>
        <time>2022-07-23T11:46:32.000Z</time>
      </trkpt>
      <trkpt lat="48.969094" lon="9.562298">
        <ele>472.873413</ele>
        <time>2022-07-23T11:46:34.000Z</time>
      </trkpt>
      <trkpt lat="48.968990" lon="9.562206">
        <ele>473.098488</ele>
        <time>2022-07-23T11:46:36.000Z</time>
      </trkpt>
      <trkpt lat="48.968888" lon="9.562138">
        <ele>473.319899</ele>
        <time>2022-07-23T11:46:38.000Z</time>
      </trkpt>
      <trkpt lat="48.968788" lon="9.562097">
        <ele>473.525836</ele>
        <time>2022-07-23T11:46:40.000Z</time>
      </trkpt>
      <trkpt lat="48.968684" lon="9.562076">
        <ele>473.734458</ele>
        <time>2022-07-23T11:46:42.000Z</time>
      </trkpt>
      <trkpt lat="48.968584" lon="9.562046">
        <ele>473.937137</ele>
        <time>2022-07-23T11:46:44.000Z</time>
      </trkpt>
      <trkpt lat="48.968485" lon="9.562022">
        <ele>474.136486</ele>
        <time>2022-07-23T11:46:46.000Z</time>
      </trkpt>
      <trkpt lat="48.968385" lon="9.562008">
        <ele>474.336183</ele>
        <time>2022-07-23T11:46:48.000Z</time>
      </trkpt>
      <trkpt lat="48.968296" lon="9.561994">
        <ele>474.514109</ele>
        <time>2022-07-23T11:46:50.000Z</time>
      </trkpt>
      <trkpt lat="48.968165" lon="9.561970">
        <ele>474.776492</ele>
        <time>2022-07-23T11:46:53.000Z</time>
      </trkpt>
      <trkpt lat="48.968073" lon="9.561954">
        <ele>474.960631</ele>
        <time>2022-07-23T11:46:55.000Z</time>
      </trkpt>
      <trkpt lat="48.967951" lon="9.561927">
        <ele>475.205786</ele>
        <time>2022-07-23T11:46:58.000Z</time>
      </trkpt>
      <trkpt lat="48.967828" lon="9.561903">
        <ele>475.452381</ele>
        <time>2022-07-23T11:47:01.000Z</time>
      </trkpt>
      <trkpt lat="48.967700" lon="9.561866">
        <ele>475.711464</ele>
        <time>2022-07-23T11:47:04.000Z</time>
      </trkpt>
      <trkpt lat="48.967579" lon="9.561819">
        <ele>475.959783</ele>
        <time>2022-07-23T11:47:07.001Z</time>
      </trkpt>
      <trkpt lat="48.967472" lon="9.561775">
        <ele>476.180180</ele>
        <time>2022-07-23T11:47:10.001Z</time>
      </trkpt>
      <trkpt lat="48.967358" lon="9.561746">
        <ele>476.410019</ele>
        <time>2022-07-23T11:47:13.001Z</time>
      </trkpt>
      <trkpt lat="48.967233" lon="9.561737">
        <ele>476.810651</ele>
        <time>2022-07-23T11:47:16.001Z</time>
      </trkpt>
      <trkpt lat="48.967119" lon="9.561747">
        <ele>477.223891</ele>
        <time>2022-07-23T11:47:19.001Z</time>
      </trkpt>
      <trkpt lat="48.967014" lon="9.561784">
        <ele>477.613913</ele>
        <time>2022-07-23T11:47:22.001Z</time>
      </trkpt>
      <trkpt lat="48.966903" lon="9.561814">
        <ele>478.021887</ele>
        <time>2022-07-23T11:47:26.001Z</time>
      </trkpt>
      <trkpt lat="48.966816" lon="9.561734">
        <ele>478.389654</ele>
        <time>2022-07-23T11:47:29.001Z</time>
      </trkpt>
      <trkpt lat="48.966785" lon="9.561573">
        <ele>478.788272</ele>
        <time>2022-07-23T11:47:43.001Z</time>
      </trkpt>
      <trkpt lat="48.966763" lon="9.561402">
        <ele>479.202263</ele>
        <time>2022-07-23T11:47:47.001Z</time>
      </trkpt>
      <trkpt lat="48.966741" lon="9.561262">
        <ele>479.544272</ele>
        <time>2022-07-23T11:47:50.001Z</time>
      </trkpt>
      <trkpt lat="48.966711" lon="9.561080">
        <ele>479.990091</ele>
        <time>2022-07-23T11:47:53.001Z</time>
      </trkpt>
      <trkpt lat="48.966672" lon="9.560896">
        <ele>480.449460</ele>
        <time>2022-07-23T11:47:56.001Z</time>
      </trkpt>
      <trkpt lat="48.966656" lon="9.560714">
        <ele>480.885718</ele>
        <time>2022-07-23T11:47:59.002Z</time>
      </trkpt>
      <trkpt lat="48.966607" lon="9.560567">
        <ele>481.277402</ele>
        <time>2022-07-23T11:48:02.002Z</time>
      </trkpt>
      <trkpt lat="48.966562" lon="9.560402">
        <ele>481.701893</ele>
        <time>2022-07-23T11:48:05.002Z</time>
      </trkpt>
      <trkpt lat="48.966519" lon="9.560270">
        <ele>482.051987</ele>
        <time>2022-07-23T11:48:07.002Z</time>
      </trkpt>
      <trkpt lat="48.966474" lon="9.560135">
        <ele>482.411698</ele>
        <time>2022-07-23T11:48:09.002Z</time>
      </trkpt>
      <trkpt lat="48.966437" lon="9.560011">
        <ele>482.735302</ele>
        <time>2022-07-23T11:48:11.002Z</time>
      </trkpt>
      <trkpt lat="48.966391" lon="9.559882">
        <ele>482.983401</ele>
        <time>2022-07-23T11:48:13.002Z</time>
      </trkpt>
      <trkpt lat="48.966338" lon="9.559757">
        <ele>482.985208</ele>
        <time>2022-07-23T11:48:15.000Z</time>
      </trkpt>
      <trkpt lat="48.966278" lon="9.559639">
        <ele>482.987021</ele>
        <time>2022-07-23T11:48:17.000Z</time>
      </trkpt>
      <trkpt lat="48.966219" lon="9.559514">
        <ele>482.988890</ele>
        <time>2022-07-23T11:48:19.000Z</time>
      </trkpt>
      <trkpt lat="48.966173" lon="9.559365">
        <ele>482.990890</ele>
        <time>2022-07-23T11:48:21.000Z</time>
      </trkpt>
      <trkpt lat="48.966123" lon="9.559217">
        <ele>482.992912</ele>
        <time>2022-07-23T11:48:23.000Z</time>
      </trkpt>
      <trkpt lat="48.966073" lon="9.559066">
        <ele>482.994966</ele>
        <time>2022-07-23T11:48:25.000Z</time>
      </trkpt>
      <trkpt lat="48.966026" lon="9.558917">
        <ele>482.996974</ele>
        <time>2022-07-23T11:48:27.000Z</time>
      </trkpt>
      <trkpt lat="48.965975" lon="9.558761">
        <ele>482.999090</ele>
        <time>2022-07-23T11:48:29.000Z</time>
      </trkpt>
      <trkpt lat="48.965916" lon="9.558606">
        <ele>483.001266</ele>
        <time>2022-07-23T11:48:31.000Z</time>
      </trkpt>
      <trkpt lat="48.965852" lon="9.558465">
        <ele>483.003348</ele>
        <time>2022-07-23T11:48:33.000Z</time>
      </trkpt>
      <trkpt lat="48.965784" lon="9.558331">
        <ele>483.005405</ele>
        <time>2022-07-23T11:48:35.000Z</time>
      </trkpt>
      <trkpt lat="48.965709" lon="9.558212">
        <ele>483.007409</ele>
        <time>2022-07-23T11:48:37.000Z</time>
      </trkpt>
      <trkpt lat="48.965631" lon="9.558108">
        <ele>483.009326</ele>
        <time>2022-07-23T11:48:39.000Z</time>
      </trkpt>
      <trkpt lat="48.965551" lon="9.558036">
        <ele>483.011045</ele>
        <time>2022-07-23T11:48:41.000Z</time>
      </trkpt>
      <trkpt lat="48.965464" lon="9.557999">
        <ele>483.012716</ele>
        <time>2022-07-23T11:48:43.000Z</time>
      </trkpt>
      <trkpt lat="48.965375" lon="9.557980">
        <ele>483.014379</ele>
        <time>2022-07-23T11:48:45.000Z</time>
      </trkpt>
      <trkpt lat="48.965283" lon="9.557976">
        <ele>483.016082</ele>
        <time>2022-07-23T11:48:47.000Z</time>
      </trkpt>
      <trkpt lat="48.965186" lon="9.557982">
        <ele>482.988007</ele>
        <time>2022-07-23T11:48:49.000Z</time>
      </trkpt>
      <trkpt lat="48.965096" lon="9.558007">
        <ele>482.960298</ele>
        <time>2022-07-23T11:48:51.000Z</time>
      </trkpt>
      <trkpt lat="48.964963" lon="9.558036">
        <ele>482.919604</ele>
        <time>2022-07-23T11:48:54.000Z</time>
      </trkpt>
      <trkpt lat="48.964874" lon="9.558066">
        <ele>482.891995</ele>
        <time>2022-07-23T11:48:56.000Z</time>
      </trkpt>
      <trkpt lat="48.964786" lon="9.558111">
        <ele>482.863880</ele>
        <time>2022-07-23T11:48:59.000Z</time>
      </trkpt>
      <trkpt lat="48.964678" lon="9.558128">
        <ele>482.830994</ele>
        <time>2022-07-23T11:49:04.000Z</time>
      </trkpt>
      <trkpt lat="48.964583" lon="9.558072">
        <ele>482.800141</ele>
        <time>2022-07-23T11:49:08.000Z</time>
      </trkpt>
      <trkpt lat="48.964495" lon="9.557992">
        <ele>482.769101</ele>
        <time>2022-07-23T11:49:11.000Z</time>
      </trkpt>
      <trkpt lat="48.964402" lon="9.557911">
        <ele>482.736653</ele>
        <time>2022-07-23T11:49:15.000Z</time>
      </trkpt>
      <trkpt lat="48.964308" lon="9.557817">
        <ele>482.702595</ele>
        <time>2022-07-23T11:49:18.000Z</time>
      </trkpt>
      <trkpt lat="48.964228" lon="9.557740">
        <ele>482.673932</ele>
        <time>2022-07-23T11:49:20.000Z</time>
      </trkpt>
      <trkpt lat="48.964141" lon="9.557652">
        <ele>482.642300</ele>
        <time>2022-07-23T11:49:22.001Z</time>
      </trkpt>
      <trkpt lat="48.964051" lon="9.557561">
        <ele>482.609582</ele>
        <time>2022-07-23T11:49:24.001Z</time>
      </trkpt>
      <trkpt lat="48.963960" lon="9.557474">
        <ele>482.577040</ele>
        <time>2022-07-23T11:49:26.001Z</time>
      </trkpt>
      <trkpt lat="48.963864" lon="9.557389">
        <ele>482.543408</ele>
        <time>2022-07-23T11:49:28.001Z</time>
      </trkpt>
      <trkpt lat="48.963764" lon="9.557316">
        <ele>482.509820</ele>
        <time>2022-07-23T11:49:30.001Z</time>
      </trkpt>
      <trkpt lat="48.963659" lon="9.557266">
        <ele>482.476500</ele>
        <time>2022-07-23T11:49:32.001Z</time>
      </trkpt>
      <trkpt lat="48.963552" lon="9.557218">
        <ele>482.709403</ele>
        <time>2022-07-23T11:49:34.001Z</time>
      </trkpt>
      <trkpt lat="48.963443" lon="9.557181">
        <ele>482.990232</ele>
        <time>2022-07-23T11:49:36.001Z</time>
      </trkpt>
      <trkpt lat="48.963340" lon="9.557152">
        <ele>483.253636</ele>
        <time>2022-07-23T11:49:38.001Z</time>
      </trkpt>
      <trkpt lat="48.963245" lon="9.557122">
        <ele>483.497615</ele>
        <time>2022-07-23T11:49:40.001Z</time>
      </trkpt>
      <trkpt lat="48.963151" lon="9.557099">
        <ele>483.737030</ele>
        <time>2022-07-23T11:49:42.001Z</time>
      </trkpt>
      <trkpt lat="48.963057" lon="9.557081">
        <ele>483.975274</ele>
        <time>2022-07-23T11:49:44.001Z</time>
      </trkpt>
      <trkpt lat="48.962965" lon="9.557072">
        <ele>484.207105</ele>
        <time>2022-07-23T11:49:46.001Z</time>
      </trkpt>
      <trkpt lat="48.962867" lon="9.557075">
        <ele>484.453597</ele>
        <time>2022-07-23T11:49:48.001Z</time>
      </trkpt>
      <trkpt lat="48.962767" lon="9.557089">
        <ele>484.706129</ele>
        <time>2022-07-23T11:49:50.001Z</time>
      </trkpt>
      <trkpt lat="48.962673" lon="9.557110">
        <ele>484.945042</ele>
        <time>2022-07-23T11:49:52.001Z</time>
      </trkpt>
      <trkpt lat="48.962578" lon="9.557128">
        <ele>485.185782</ele>
        <time>2022-07-23T11:49:54.001Z</time>
      </trkpt>
      <trkpt lat="48.962480" lon="9.557151">
        <ele>485.435133</ele>
        <time>2022-07-23T11:49:56.001Z</time>
      </trkpt>
      <trkpt lat="48.962389" lon="9.557180">
        <ele>485.668928</ele>
        <time>2022-07-23T11:49:58.001Z</time>
      </trkpt>
      <trkpt lat="48.962262" lon="9.557219">
        <ele>485.994724</ele>
        <time>2022-07-23T11:50:01.001Z</time>
      </trkpt>
      <trkpt lat="48.962174" lon="9.557261">
        <ele>486.226629</ele>
        <time>2022-07-23T11:50:03.001Z</time>
      </trkpt>
      <trkpt lat="48.962085" lon="9.557306">
        <ele>486.462449</ele>
        <time>2022-07-23T11:50:05.001Z</time>
      </trkpt>
      <trkpt lat="48.961994" lon="9.557346">
        <ele>486.700628</ele>
        <time>2022-07-23T11:50:07.001Z</time>
      </trkpt>
      <trkpt lat="48.961904" lon="9.557390">
        <ele>486.938326</ele>
        <time>2022-07-23T11:50:09.001Z</time>
      </trkpt>
      <trkpt lat="48.961812" lon="9.557429">
        <ele>486.862659</ele>
        <time>2022-07-23T11:50:11.001Z</time>
      </trkpt>
      <trkpt lat="48.961716" lon="9.557452">
        <ele>486.687606</ele>
        <time>2022-07-23T11:50:13.001Z</time>
      </trkpt>
      <trkpt lat="48.961620" lon="9.557461">
        <ele>486.514351</ele>
        <time>2022-07-23T11:50:15.002Z</time>
      </trkpt>
      <trkpt lat="48.961525" lon="9.557455">
        <ele>486.343078</ele>
        <time>2022-07-23T11:50:17.002Z</time>
      </trkpt>
      <trkpt lat="48.961399" lon="9.557434">
        <ele>486.114756</ele>
        <time>2022-07-23T11:50:20.002Z</time>
      </trkpt>
      <trkpt lat="48.961270" lon="9.557397">
        <ele>485.878301</ele>
        <time>2022-07-23T11:50:23.000Z</time>
      </trkpt>
      <trkpt lat="48.961158" lon="9.557353">
        <ele>485.669950</ele>
        <time>2022-07-23T11:50:26.000Z</time>
      </trkpt>
      <trkpt lat="48.961062" lon="9.557325">
        <ele>485.493880</ele>
        <time>2022-07-23T11:50:29.000Z</time>
      </trkpt>
      <trkpt lat="48.960944" lon="9.557271">
        <ele>485.271936</ele>
        <time>2022-07-23T11:50:33.000Z</time>
      </trkpt>
      <trkpt lat="48.960842" lon="9.557198">
        <ele>485.068927</ele>
        <time>2022-07-23T11:50:39.000Z</time>
      </trkpt>
      <trkpt lat="48.960760" lon="9.557121">
        <ele>484.895401</ele>
        <time>2022-07-23T11:50:42.000Z</time>
      </trkpt>
      <trkpt lat="48.960667" lon="9.557031">
        <ele>484.696921</ele>
        <time>2022-07-23T11:50:46.000Z</time>
      </trkpt>
      <trkpt lat="48.960606" lon="9.556912">
        <ele>484.518366</ele>
        <time>2022-07-23T11:50:49.000Z</time>
      </trkpt>
      <trkpt lat="48.960544" lon="9.556764">
        <ele>484.310731</ele>
        <time>2022-07-23T11:50:52.000Z</time>
      </trkpt>
      <trkpt lat="48.960482" lon="9.556599">
        <ele>484.085885</ele>
        <time>2022-07-23T11:50:55.000Z</time>
      </trkpt>
      <trkpt lat="48.960463" lon="9.556437">
        <ele>483.891253</ele>
        <time>2022-07-23T11:50:58.000Z</time>
      </trkpt>
      <trkpt lat="48.960448" lon="9.556300">
        <ele>483.653138</ele>
        <time>2022-07-23T11:51:01.000Z</time>
      </trkpt>
      <trkpt lat="48.960435" lon="9.556146">
        <ele>482.977138</ele>
        <time>2022-07-23T11:51:04.000Z</time>
      </trkpt>
      <trkpt lat="48.960425" lon="9.555968">
        <ele>482.199334</ele>
        <time>2022-07-23T11:51:08.000Z</time>
      </trkpt>
      <trkpt lat="48.960428" lon="9.555825">
        <ele>481.576426</ele>
        <time>2022-07-23T11:51:11.000Z</time>
      </trkpt>
      <trkpt lat="48.960438" lon="9.555671">
        <ele>480.902674</ele>
        <time>2022-07-23T11:51:14.000Z</time>
      </trkpt>
      <trkpt lat="48.960455" lon="9.555505">
        <ele>480.171209</ele>
        <time>2022-07-23T11:51:17.000Z</time>
      </trkpt>
      <trkpt lat="48.960479" lon="9.555349">
        <ele>479.473625</ele>
        <time>2022-07-23T11:51:20.000Z</time>
      </trkpt>
      <trkpt lat="48.960511" lon="9.555192">
        <ele>478.757905</ele>
        <time>2022-07-23T11:51:23.000Z</time>
      </trkpt>
      <trkpt lat="48.960549" lon="9.555043">
        <ele>478.061975</ele>
        <time>2022-07-23T11:51:26.001Z</time>
      </trkpt>
      <trkpt lat="48.960586" lon="9.554895">
        <ele>477.372489</ele>
        <time>2022-07-23T11:51:29.001Z</time>
      </trkpt>
      <trkpt lat="48.960633" lon="9.554749">
        <ele>476.664549</ele>
        <time>2022-07-23T11:51:32.001Z</time>
      </trkpt>
      <trkpt lat="48.960698" lon="9.554586">
        <ele>475.834252</ele>
        <time>2022-07-23T11:51:35.001Z</time>
      </trkpt>
      <trkpt lat="48.960774" lon="9.554420">
        <ele>474.953174</ele>
        <time>2022-07-23T11:51:38.001Z</time>
      </trkpt>
      <trkpt lat="48.960830" lon="9.554304">
        <ele>474.326317</ele>
        <time>2022-07-23T11:51:40.001Z</time>
      </trkpt>
      <trkpt lat="48.960880" lon="9.554179">
        <ele>473.689060</ele>
        <time>2022-07-23T11:51:42.001Z</time>
      </trkpt>
      <trkpt lat="48.960925" lon="9.554044">
        <ele>473.029898</ele>
        <time>2022-07-23T11:51:44.001Z</time>
      </trkpt>
      <trkpt lat="48.960961" lon="9.553911">
        <ele>472.403576</ele>
        <time>2022-07-23T11:51:46.001Z</time>
      </trkpt>
      <trkpt lat="48.960980" lon="9.553765">
        <ele>471.796534</ele>
        <time>2022-07-23T11:51:48.001Z</time>
      </trkpt>
      <trkpt lat="48.960992" lon="9.553617">
        <ele>471.515799</ele>
        <time>2022-07-23T11:51:50.001Z</time>
      </trkpt>
      <trkpt lat="48.960988" lon="9.553464">
        <ele>471.227539</ele>
        <time>2022-07-23T11:51:52.001Z</time>
      </trkpt>
      <trkpt lat="48.961008" lon="9.553330">
        <ele>470.968840</ele>
        <time>2022-07-23T11:51:55.001Z</time>
      </trkpt>
      <trkpt lat="48.960997" lon="9.553191">
        <ele>470.705271</ele>
        <time>2022-07-23T11:51:57.001Z</time>
      </trkpt>
      <trkpt lat="48.960975" lon="9.552988">
        <ele>470.317940</ele>
        <time>2022-07-23T11:52:00.001Z</time>
      </trkpt>
      <trkpt lat="48.960947" lon="9.552847">
        <ele>470.040624</ele>
        <time>2022-07-23T11:52:02.001Z</time>
      </trkpt>
      <trkpt lat="48.960906" lon="9.552663">
        <ele>469.674828</ele>
        <time>2022-07-23T11:52:05.001Z</time>
      </trkpt>
      <trkpt lat="48.960860" lon="9.552466">
        <ele>469.281208</ele>
        <time>2022-07-23T11:52:08.001Z</time>
      </trkpt>
      <trkpt lat="48.960827" lon="9.552336">
        <ele>469.018821</ele>
        <time>2022-07-23T11:52:10.001Z</time>
      </trkpt>
      <trkpt lat="48.960775" lon="9.552214">
        <ele>468.744997</ele>
        <time>2022-07-23T11:52:12.001Z</time>
      </trkpt>
      <trkpt lat="48.960702" lon="9.552070">
        <ele>468.402506</ele>
        <time>2022-07-23T11:52:15.001Z</time>
      </trkpt>
      <trkpt lat="48.960607" lon="9.551956">
        <ele>468.055728</ele>
        <time>2022-07-23T11:52:18.002Z</time>
      </trkpt>
      <trkpt lat="48.960509" lon="9.551843">
        <ele>467.703294</ele>
        <time>2022-07-23T11:52:21.002Z</time>
      </trkpt>
      <trkpt lat="48.960412" lon="9.551745">
        <ele>467.369542</ele>
        <time>2022-07-23T11:52:24.002Z</time>
      </trkpt>
      <trkpt lat="48.960335" lon="9.551662">
        <ele>467.099064</ele>
        <time>2022-07-23T11:52:26.002Z</time>
      </trkpt>
      <trkpt lat="48.960235" lon="9.551546">
        <ele>466.738646</ele>
        <time>2022-07-23T11:52:29.000Z</time>
      </trkpt>
      <trkpt lat="48.960141" lon="9.551452">
        <ele>466.305675</ele>
        <time>2022-07-23T11:52:32.000Z</time>
      </trkpt>
      <trkpt lat="48.960048" lon="9.551361">
        <ele>465.850986</ele>
        <time>2022-07-23T11:52:35.000Z</time>
      </trkpt>
      <trkpt lat="48.959960" lon="9.551282">
        <ele>465.430808</ele>
        <time>2022-07-23T11:52:38.000Z</time>
      </trkpt>
      <trkpt lat="48.959871" lon="9.551218">
        <ele>465.025964</ele>
        <time>2022-07-23T11:52:41.000Z</time>
      </trkpt>
      <trkpt lat="48.959741" lon="9.551131">
        <ele>464.441880</ele>
        <time>2022-07-23T11:52:44.000Z</time>
      </trkpt>
      <trkpt lat="48.959621" lon="9.551049">
        <ele>463.900870</ele>
        <time>2022-07-23T11:52:47.000Z</time>
      </trkpt>
      <trkpt lat="48.959486" lon="9.550977">
        <ele>463.312502</ele>
        <time>2022-07-23T11:52:50.000Z</time>
      </trkpt>
      <trkpt lat="48.959364" lon="9.550904">
        <ele>462.773331</ele>
        <time>2022-07-23T11:52:53.000Z</time>
      </trkpt>
      <trkpt lat="48.959276" lon="9.550865">
        <ele>462.396341</ele>
        <time>2022-07-23T11:52:55.000Z</time>
      </trkpt>
      <trkpt lat="48.959145" lon="9.550812">
        <ele>461.838802</ele>
        <time>2022-07-23T11:52:58.000Z</time>
      </trkpt>
      <trkpt lat="48.959015" lon="9.550772">
        <ele>461.293261</ele>
        <time>2022-07-23T11:53:01.000Z</time>
      </trkpt>
      <trkpt lat="48.958886" lon="9.550740">
        <ele>460.755644</ele>
        <time>2022-07-23T11:53:04.000Z</time>
      </trkpt>
      <trkpt lat="48.958792" lon="9.550703">
        <ele>460.356283</ele>
        <time>2022-07-23T11:53:06.000Z</time>
      </trkpt>
      <trkpt lat="48.958668" lon="9.550679">
        <ele>459.842123</ele>
        <time>2022-07-23T11:53:09.000Z</time>
      </trkpt>
      <trkpt lat="48.958571" lon="9.550679">
        <ele>459.443127</ele>
        <time>2022-07-23T11:53:12.000Z</time>
      </trkpt>
      <trkpt lat="48.958449" lon="9.550692">
        <ele>459.180127</ele>
        <time>2022-07-23T11:53:15.000Z</time>
      </trkpt>
      <trkpt lat="48.958337" lon="9.550745">
        <ele>459.046487</ele>
        <time>2022-07-23T11:53:18.000Z</time>
      </trkpt>
      <trkpt lat="48.958226" lon="9.550812">
        <ele>458.910434</ele>
        <time>2022-07-23T11:53:21.000Z</time>
      </trkpt>
      <trkpt lat="48.958124" lon="9.550887">
        <ele>458.781370</ele>
        <time>2022-07-23T11:53:24.000Z</time>
      </trkpt>
      <trkpt lat="48.958021" lon="9.550956">
        <ele>458.653152</ele>
        <time>2022-07-23T11:53:27.000Z</time>
      </trkpt>
      <trkpt lat="48.957902" lon="9.551044">
        <ele>458.502415</ele>
        <time>2022-07-23T11:53:30.001Z</time>
      </trkpt>
      <trkpt lat="48.957790" lon="9.551139">
        <ele>458.356335</ele>
        <time>2022-07-23T11:53:33.001Z</time>
      </trkpt>
      <trkpt lat="48.957688" lon="9.551240">
        <ele>458.217702</ele>
        <time>2022-07-23T11:53:36.001Z</time>
      </trkpt>
      <trkpt lat="48.957593" lon="9.551371">
        <ele>458.071672</ele>
        <time>2022-07-23T11:53:39.001Z</time>
      </trkpt>
      <trkpt lat="48.957513" lon="9.551521">
        <ele>457.927086</ele>
        <time>2022-07-23T11:53:42.001Z</time>
      </trkpt>
      <trkpt lat="48.957461" lon="9.551636">
        <ele>457.822614</ele>
        <time>2022-07-23T11:53:44.001Z</time>
      </trkpt>
      <trkpt lat="48.957396" lon="9.551773">
        <ele>457.696152</ele>
        <time>2022-07-23T11:53:47.001Z</time>
      </trkpt>
      <trkpt lat="48.957345" lon="9.551911">
        <ele>457.577669</ele>
        <time>2022-07-23T11:53:50.001Z</time>
      </trkpt>
      <trkpt lat="48.957304" lon="9.552051">
        <ele>457.462975</ele>
        <time>2022-07-23T11:53:53.001Z</time>
      </trkpt>
      <trkpt lat="48.957258" lon="9.552175">
        <ele>457.356415</ele>
        <time>2022-07-23T11:53:56.001Z</time>
      </trkpt>
      <trkpt lat="48.957216" lon="9.552310">
        <ele>457.244643</ele>
        <time>2022-07-23T11:53:59.001Z</time>
      </trkpt>
      <trkpt lat="48.957138" lon="9.552453">
        <ele>457.111142</ele>
        <time>2022-07-23T11:54:02.001Z</time>
      </trkpt>
      <trkpt lat="48.957075" lon="9.552606">
        <ele>456.982475</ele>
        <time>2022-07-23T11:54:05.001Z</time>
      </trkpt>
      <trkpt lat="48.957020" lon="9.552741">
        <ele>456.869283</ele>
        <time>2022-07-23T11:54:08.001Z</time>
      </trkpt>
      <trkpt lat="48.956962" lon="9.552892">
        <ele>456.744646</ele>
        <time>2022-07-23T11:54:11.001Z</time>
      </trkpt>
      <trkpt lat="48.956913" lon="9.553027">
        <ele>456.634747</ele>
        <time>2022-07-23T11:54:13.001Z</time>
      </trkpt>
      <trkpt lat="48.956854" lon="9.553206">
        <ele>456.492051</ele>
        <time>2022-07-23T11:54:16.001Z</time>
      </trkpt>
      <trkpt lat="48.956796" lon="9.553376">
        <ele>456.355558</ele>
        <time>2022-07-23T11:54:19.001Z</time>
      </trkpt>
      <trkpt lat="48.956762" lon="9.553511">
        <ele>456.252543</ele>
        <time>2022-07-23T11:54:21.001Z</time>
      </trkpt>
      <trkpt lat="48.956698" lon="9.553658">
        <ele>456.126880</ele>
        <time>2022-07-23T11:54:24.002Z</time>
      </trkpt>
      <trkpt lat="48.956661" lon="9.553795">
        <ele>456.021338</ele>
        <time>2022-07-23T11:54:27.002Z</time>
      </trkpt>
      <trkpt lat="48.956599" lon="9.553977">
        <ele>455.875257</ele>
        <time>2022-07-23T11:54:30.002Z</time>
      </trkpt>
      <trkpt lat="48.956540" lon="9.554137">
        <ele>455.744517</ele>
        <time>2022-07-23T11:54:33.000Z</time>
      </trkpt>
      <trkpt lat="48.956454" lon="9.554209">
        <ele>455.638033</ele>
        <time>2022-07-23T11:54:36.000Z</time>
      </trkpt>
      <trkpt lat="48.956344" lon="9.554163">
        <ele>455.514261</ele>
        <time>2022-07-23T11:54:39.000Z</time>
      </trkpt>
      <trkpt lat="48.956250" lon="9.554148">
        <ele>455.411710</ele>
        <time>2022-07-23T11:54:42.000Z</time>
      </trkpt>
      <trkpt lat="48.956134" lon="9.554162">
        <ele>455.285451</ele>
        <time>2022-07-23T11:54:45.000Z</time>
      </trkpt>
      <trkpt lat="48.956008" lon="9.554211">
        <ele>455.742578</ele>
        <time>2022-07-23T11:54:48.000Z</time>
      </trkpt>
      <trkpt lat="48.955902" lon="9.554288">
        <ele>456.217020</ele>
        <time>2022-07-23T11:54:51.000Z</time>
      </trkpt>
      <trkpt lat="48.955814" lon="9.554356">
        <ele>456.615670</ele>
        <time>2022-07-23T11:54:54.000Z</time>
      </trkpt>
      <trkpt lat="48.955733" lon="9.554427">
        <ele>456.993228</ele>
        <time>2022-07-23T11:54:57.000Z</time>
      </trkpt>
      <trkpt lat="48.955643" lon="9.554525">
        <ele>457.440191</ele>
        <time>2022-07-23T11:55:01.000Z</time>
      </trkpt>
      <trkpt lat="48.955564" lon="9.554639">
        <ele>457.879858</ele>
        <time>2022-07-23T11:55:05.000Z</time>
      </trkpt>
      <trkpt lat="48.955484" lon="9.554734">
        <ele>458.289684</ele>
        <time>2022-07-23T11:55:10.000Z</time>
      </trkpt>
      <trkpt lat="48.955388" lon="9.554737">
        <ele>458.677589</ele>
        <time>2022-07-23T11:55:17.000Z</time>
      </trkpt>
      <trkpt lat="48.955296" lon="9.554743">
        <ele>459.049594</ele>
        <time>2022-07-23T11:55:21.000Z</time>
      </trkpt>
      <trkpt lat="48.955195" lon="9.554799">
        <ele>459.483818</ele>
        <time>2022-07-23T11:55:25.000Z</time>
      </trkpt>
      <trkpt lat="48.955113" lon="9.554916">
        <ele>459.937764</ele>
        <time>2022-07-23T11:55:29.001Z</time>
      </trkpt>
      <trkpt lat="48.955043" lon="9.555031">
        <ele>460.353739</ele>
        <time>2022-07-23T11:55:33.001Z</time>
      </trkpt>
      <trkpt lat="48.954964" lon="9.555134">
        <ele>460.773871</ele>
        <time>2022-07-23T11:55:36.001Z</time>
      </trkpt>
      <trkpt lat="48.954847" lon="9.555152">
        <ele>461.248936</ele>
        <time>2022-07-23T11:55:39.001Z</time>
      </trkpt>
      <trkpt lat="48.954749" lon="9.555051">
        <ele>461.726980</ele>
        <time>2022-07-23T11:55:42.001Z</time>
      </trkpt>
      <trkpt lat="48.954681" lon="9.554905">
        <ele>462.201816</ele>
        <time>2022-07-23T11:55:45.001Z</time>
      </trkpt>
      <trkpt lat="48.954631" lon="9.554736">
        <ele>462.998792</ele>
        <time>2022-07-23T11:55:48.001Z</time>
      </trkpt>
      <trkpt lat="48.954597" lon="9.554560">
        <ele>464.435773</ele>
        <time>2022-07-23T11:55:51.001Z</time>
      </trkpt>
      <trkpt lat="48.954568" lon="9.554382">
        <ele>465.872275</ele>
        <time>2022-07-23T11:55:54.001Z</time>
      </trkpt>
      <trkpt lat="48.954538" lon="9.554210">
        <ele>467.266224</ele>
        <time>2022-07-23T11:55:57.001Z</time>
      </trkpt>
      <trkpt lat="48.954501" lon="9.554042">
        <ele>468.654168</ele>
        <time>2022-07-23T11:56:00.001Z</time>
      </trkpt>
      <trkpt lat="48.954454" lon="9.553881">
        <ele>470.034245</ele>
        <time>2022-07-23T11:56:03.001Z</time>
      </trkpt>
      <trkpt lat="48.954388" lon="9.553736">
        <ele>471.416170</ele>
        <time>2022-07-23T11:56:06.001Z</time>
      </trkpt>
      <trkpt lat="48.954310" lon="9.553610">
        <ele>472.772519</ele>
        <time>2022-07-23T11:56:09.001Z</time>
      </trkpt>
      <trkpt lat="48.954222" lon="9.553496">
        <ele>474.150625</ele>
        <time>2022-07-23T11:56:12.001Z</time>
      </trkpt>
      <trkpt lat="48.954131" lon="9.553383">
        <ele>475.551217</ele>
        <time>2022-07-23T11:56:15.001Z</time>
      </trkpt>
      <trkpt lat="48.954036" lon="9.553267">
        <ele>477.003687</ele>
        <time>2022-07-23T11:56:18.001Z</time>
      </trkpt>
      <trkpt lat="48.953944" lon="9.553142">
        <ele>478.474376</ele>
        <time>2022-07-23T11:56:21.001Z</time>
      </trkpt>
      <trkpt lat="48.953859" lon="9.553005">
        <ele>479.950702</ele>
        <time>2022-07-23T11:56:24.001Z</time>
      </trkpt>
      <trkpt lat="48.953795" lon="9.552850">
        <ele>481.384862</ele>
        <time>2022-07-23T11:56:27.001Z</time>
      </trkpt>
      <trkpt lat="48.953737" lon="9.552698">
        <ele>482.761874</ele>
        <time>2022-07-23T11:56:30.001Z</time>
      </trkpt>
      <trkpt lat="48.953626" lon="9.552607">
        <ele>484.085132</ele>
        <time>2022-07-23T11:56:33.002Z</time>
      </trkpt>
      <trkpt lat="48.953518" lon="9.552547">
        <ele>484.552509</ele>
        <time>2022-07-23T11:56:36.002Z</time>
      </trkpt>
      <trkpt lat="48.953392" lon="9.552578">
        <ele>485.071401</ele>
        <time>2022-07-23T11:56:39.000Z</time>
      </trkpt>
      <trkpt lat="48.953272" lon="9.552619">
        <ele>485.571386</ele>
        <time>2022-07-23T11:56:42.000Z</time>
      </trkpt>
      <trkpt lat="48.953167" lon="9.552678">
        <ele>486.026394</ele>
        <time>2022-07-23T11:56:46.000Z</time>
      </trkpt>
      <trkpt lat="48.953132" lon="9.552810">
        <ele>486.406437</ele>
        <time>2022-07-23T11:56:49.000Z</time>
      </trkpt>
      <trkpt lat="48.953103" lon="9.552976">
        <ele>486.865022</ele>
        <time>2022-07-23T11:56:52.000Z</time>
      </trkpt>
      <trkpt lat="48.953052" lon="9.553144">
        <ele>487.359138</ele>
        <time>2022-07-23T11:56:55.000Z</time>
      </trkpt>
      <trkpt lat="48.952990" lon="9.553258">
        <ele>487.754310</ele>
        <time>2022-07-23T11:56:57.000Z</time>
      </trkpt>
      <trkpt lat="48.952964" lon="9.553393">
        <ele>488.129901</ele>
        <time>2022-07-23T11:56:59.000Z</time>
      </trkpt>
      <trkpt lat="48.952954" lon="9.553536">
        <ele>488.513828</ele>
        <time>2022-07-23T11:57:01.000Z</time>
      </trkpt>
      <trkpt lat="48.952946" lon="9.553683">
        <ele>488.907621</ele>
        <time>2022-07-23T11:57:03.000Z</time>
      </trkpt>
      <trkpt lat="48.952941" lon="9.553831">
        <ele>489.303260</ele>
        <time>2022-07-23T11:57:05.000Z</time>
      </trkpt>
      <trkpt lat="48.952940" lon="9.553983">
        <ele>489.709077</ele>
        <time>2022-07-23T11:57:07.000Z</time>
      </trkpt>
      <trkpt lat="48.952938" lon="9.554135">
        <ele>490.114954</ele>
        <time>2022-07-23T11:57:09.000Z</time>
      </trkpt>
      <trkpt lat="48.952934" lon="9.554295">
        <ele>490.542417</ele>
        <time>2022-07-23T11:57:11.000Z</time>
      </trkpt>
      <trkpt lat="48.952927" lon="9.554455">
        <ele>490.970518</ele>
        <time>2022-07-23T11:57:13.000Z</time>
      </trkpt>
      <trkpt lat="48.952906" lon="9.554609">
        <ele>491.295191</ele>
        <time>2022-07-23T11:57:15.000Z</time>
      </trkpt>
      <trkpt lat="48.952881" lon="9.554742">
        <ele>491.256765</ele>
        <time>2022-07-23T11:57:17.000Z</time>
      </trkpt>
      <trkpt lat="48.952838" lon="9.554864">
        <ele>491.218304</ele>
        <time>2022-07-23T11:57:19.000Z</time>
      </trkpt>
      <trkpt lat="48.952720" lon="9.554928">
        <ele>491.165320</ele>
        <time>2022-07-23T11:57:22.000Z</time>
      </trkpt>
      <trkpt lat="48.952608" lon="9.554898">
        <ele>491.117218</ele>
        <time>2022-07-23T11:57:25.000Z</time>
      </trkpt>
      <trkpt lat="48.952499" lon="9.554874">
        <ele>491.070633</ele>
        <time>2022-07-23T11:57:28.000Z</time>
      </trkpt>
      <trkpt lat="48.952384" lon="9.554858">
        <ele>491.021787</ele>
        <time>2022-07-23T11:57:31.000Z</time>
      </trkpt>
      <trkpt lat="48.952267" lon="9.554857">
        <ele>490.972296</ele>
        <time>2022-07-23T11:57:34.000Z</time>
      </trkpt>
      <trkpt lat="48.952160" lon="9.554869">
        <ele>490.926914</ele>
        <time>2022-07-23T11:57:37.000Z</time>
      </trkpt>
      <trkpt lat="48.952057" lon="9.554890">
        <ele>490.882957</ele>
        <time>2022-07-23T11:57:41.000Z</time>
      </trkpt>
      <trkpt lat="48.951945" lon="9.554919">
        <ele>490.834902</ele>
        <time>2022-07-23T11:57:45.000Z</time>
      </trkpt>
      <trkpt lat="48.951831" lon="9.554942">
        <ele>490.786260</ele>
        <time>2022-07-23T11:57:48.000Z</time>
      </trkpt>
      <trkpt lat="48.951710" lon="9.554975">
        <ele>490.734264</ele>
        <time>2022-07-23T11:57:51.000Z</time>
      </trkpt>
      <trkpt lat="48.951619" lon="9.554997">
        <ele>490.695290</ele>
        <time>2022-07-23T11:57:53.001Z</time>
      </trkpt>
      <trkpt lat="48.951526" lon="9.555013">
        <ele>490.655702</ele>
        <time>2022-07-23T11:57:55.001Z</time>
      </trkpt>
      <trkpt lat="48.951430" lon="9.555030">
        <ele>490.614821</ele>
        <time>2022-07-23T11:57:57.001Z</time>
      </trkpt>
      <trkpt lat="48.951331" lon="9.555055">
        <ele>490.572374</ele>
        <time>2022-07-23T11:57:59.001Z</time>
      </trkpt>
      <trkpt lat="48.951230" lon="9.555071">
        <ele>490.493824</ele>
        <time>2022-07-23T11:58:01.001Z</time>
      </trkpt>
      <trkpt lat="48.951122" lon="9.555089">
        <ele>490.330505</ele>
        <time>2022-07-23T11:58:03.001Z</time>
      </trkpt>
      <trkpt lat="48.951011" lon="9.555101">
        <ele>490.163227</ele>
        <time>2022-07-23T11:58:05.001Z</time>
      </trkpt>
      <trkpt lat="48.950897" lon="9.555108">
        <ele>489.991719</ele>
        <time>2022-07-23T11:58:07.001Z</time>
      </trkpt>
      <trkpt lat="48.950784" lon="9.555118">
        <ele>489.821568</ele>
        <time>2022-07-23T11:58:09.001Z</time>
      </trkpt>
      <trkpt lat="48.950670" lon="9.555125">
        <ele>489.650060</ele>
        <time>2022-07-23T11:58:11.001Z</time>
      </trkpt>
      <trkpt lat="48.950556" lon="9.555107">
        <ele>489.477773</ele>
        <time>2022-07-23T11:58:13.001Z</time>
      </trkpt>
      <trkpt lat="48.950441" lon="9.555082">
        <ele>489.303149</ele>
        <time>2022-07-23T11:58:15.001Z</time>
      </trkpt>
      <trkpt lat="48.950319" lon="9.555052">
        <ele>489.117379</ele>
        <time>2022-07-23T11:58:17.001Z</time>
      </trkpt>
      <trkpt lat="48.950204" lon="9.555008">
        <ele>488.939134</ele>
        <time>2022-07-23T11:58:19.001Z</time>
      </trkpt>
      <trkpt lat="48.950095" lon="9.554959">
        <ele>488.768290</ele>
        <time>2022-07-23T11:58:21.001Z</time>
      </trkpt>
      <trkpt lat="48.949991" lon="9.554913">
        <ele>488.605493</ele>
        <time>2022-07-23T11:58:23.001Z</time>
      </trkpt>
      <trkpt lat="48.949884" lon="9.554855">
        <ele>488.434760</ele>
        <time>2022-07-23T11:58:25.001Z</time>
      </trkpt>
      <trkpt lat="48.949795" lon="9.554789">
        <ele>488.285950</ele>
        <time>2022-07-23T11:58:27.001Z</time>
      </trkpt>
      <trkpt lat="48.949693" lon="9.554713">
        <ele>488.115248</ele>
        <time>2022-07-23T11:58:29.001Z</time>
      </trkpt>
      <trkpt lat="48.949573" lon="9.554633">
        <ele>487.918330</ele>
        <time>2022-07-23T11:58:31.001Z</time>
      </trkpt>
      <trkpt lat="48.949460" lon="9.554553">
        <ele>487.789454</ele>
        <time>2022-07-23T11:58:33.001Z</time>
      </trkpt>
      <trkpt lat="48.949353" lon="9.554457">
        <ele>487.703263</ele>
        <time>2022-07-23T11:58:35.001Z</time>
      </trkpt>
      <trkpt lat="48.949248" lon="9.554405">
        <ele>487.626634</ele>
        <time>2022-07-23T11:58:37.001Z</time>
      </trkpt>
      <trkpt lat="48.949132" lon="9.554354">
        <ele>487.542840</ele>
        <time>2022-07-23T11:58:39.001Z</time>
      </trkpt>
      <trkpt lat="48.949009" lon="9.554291">
        <ele>487.452776</ele>
        <time>2022-07-23T11:58:41.001Z</time>
      </trkpt>
      <trkpt lat="48.948885" lon="9.554227">
        <ele>487.361908</ele>
        <time>2022-07-23T11:58:43.001Z</time>
      </trkpt>
      <trkpt lat="48.948774" lon="9.554166">
        <ele>487.280009</ele>
        <time>2022-07-23T11:58:45.000Z</time>
      </trkpt>
      <trkpt lat="48.948660" lon="9.554106">
        <ele>487.196298</ele>
        <time>2022-07-23T11:58:47.000Z</time>
      </trkpt>
      <trkpt lat="48.948551" lon="9.554043">
        <ele>487.115384</ele>
        <time>2022-07-23T11:58:49.000Z</time>
      </trkpt>
      <trkpt lat="48.948440" lon="9.553974">
        <ele>487.032176</ele>
        <time>2022-07-23T11:58:51.000Z</time>
      </trkpt>
      <trkpt lat="48.948334" lon="9.553897">
        <ele>486.950668</ele>
        <time>2022-07-23T11:58:53.000Z</time>
      </trkpt>
      <trkpt lat="48.948221" lon="9.553812">
        <ele>486.863196</ele>
        <time>2022-07-23T11:58:55.000Z</time>
      </trkpt>
      <trkpt lat="48.948117" lon="9.553720">
        <ele>486.779722</ele>
        <time>2022-07-23T11:58:57.000Z</time>
      </trkpt>
      <trkpt lat="48.948017" lon="9.553632">
        <ele>486.699564</ele>
        <time>2022-07-23T11:58:59.000Z</time>
      </trkpt>
      <trkpt lat="48.947918" lon="9.553560">
        <ele>486.623421</ele>
        <time>2022-07-23T11:59:01.000Z</time>
      </trkpt>
      <trkpt lat="48.947819" lon="9.553472">
        <ele>486.820782</ele>
        <time>2022-07-23T11:59:03.000Z</time>
      </trkpt>
      <trkpt lat="48.947725" lon="9.553378">
        <ele>487.198372</ele>
        <time>2022-07-23T11:59:05.000Z</time>
      </trkpt>
      <trkpt lat="48.947636" lon="9.553288">
        <ele>487.557093</ele>
        <time>2022-07-23T11:59:07.000Z</time>
      </trkpt>
      <trkpt lat="48.947555" lon="9.553203">
        <ele>487.887387</ele>
        <time>2022-07-23T11:59:09.000Z</time>
      </trkpt>
      <trkpt lat="48.947470" lon="9.553105">
        <ele>488.245364</ele>
        <time>2022-07-23T11:59:11.000Z</time>
      </trkpt>
      <trkpt lat="48.947388" lon="9.553009">
        <ele>488.592658</ele>
        <time>2022-07-23T11:59:13.000Z</time>
      </trkpt>
      <trkpt lat="48.947300" lon="9.552905">
        <ele>488.966679</ele>
        <time>2022-07-23T11:59:15.000Z</time>
      </trkpt>
      <trkpt lat="48.947213" lon="9.552794">
        <ele>489.347779</ele>
        <time>2022-07-23T11:59:17.000Z</time>
      </trkpt>
      <trkpt lat="48.947138" lon="9.552664">
        <ele>489.729338</ele>
        <time>2022-07-23T11:59:19.000Z</time>
      </trkpt>
      <trkpt lat="48.947081" lon="9.552515">
        <ele>490.109573</ele>
        <time>2022-07-23T11:59:21.000Z</time>
      </trkpt>
      <trkpt lat="48.947032" lon="9.552373">
        <ele>490.463287</ele>
        <time>2022-07-23T11:59:23.000Z</time>
      </trkpt>
      <trkpt lat="48.946979" lon="9.552234">
        <ele>490.817709</ele>
        <time>2022-07-23T11:59:25.000Z</time>
      </trkpt>
      <trkpt lat="48.946932" lon="9.552102">
        <ele>491.148808</ele>
        <time>2022-07-23T11:59:27.000Z</time>
      </trkpt>
      <trkpt lat="48.946883" lon="9.551970">
        <ele>491.483160</ele>
        <time>2022-07-23T11:59:29.000Z</time>
      </trkpt>
      <trkpt lat="48.946824" lon="9.551844">
        <ele>491.824392</ele>
        <time>2022-07-23T11:59:31.000Z</time>
      </trkpt>
      <trkpt lat="48.946750" lon="9.551721">
        <ele>492.192220</ele>
        <time>2022-07-23T11:59:33.000Z</time>
      </trkpt>
      <trkpt lat="48.946668" lon="9.551608">
        <ele>492.563557</ele>
        <time>2022-07-23T11:59:35.000Z</time>
      </trkpt>
      <trkpt lat="48.946578" lon="9.551510">
        <ele>492.674741</ele>
        <time>2022-07-23T11:59:37.000Z</time>
      </trkpt>
      <trkpt lat="48.946480" lon="9.551415">
        <ele>492.731558</ele>
        <time>2022-07-23T11:59:39.000Z</time>
      </trkpt>
      <trkpt lat="48.946379" lon="9.551332">
        <ele>492.787687</ele>
        <time>2022-07-23T11:59:41.000Z</time>
      </trkpt>
      <trkpt lat="48.946281" lon="9.551262">
        <ele>492.840626</ele>
        <time>2022-07-23T11:59:43.000Z</time>
      </trkpt>
      <trkpt lat="48.946187" lon="9.551193">
        <ele>492.891661</ele>
        <time>2022-07-23T11:59:45.000Z</time>
      </trkpt>
      <trkpt lat="48.946092" lon="9.551128">
        <ele>492.942596</ele>
        <time>2022-07-23T11:59:47.000Z</time>
      </trkpt>
      <trkpt lat="48.945995" lon="9.551076">
        <ele>492.992889</ele>
        <time>2022-07-23T11:59:49.000Z</time>
      </trkpt>
      <trkpt lat="48.945903" lon="9.551038">
        <ele>493.039508</ele>
        <time>2022-07-23T11:59:51.000Z</time>
      </trkpt>
      <trkpt lat="48.945774" lon="9.551040">
        <ele>493.102599</ele>
        <time>2022-07-23T11:59:54.000Z</time>
      </trkpt>
      <trkpt lat="48.945677" lon="9.551027">
        <ele>493.150221</ele>
        <time>2022-07-23T11:59:56.000Z</time>
      </trkpt>
      <trkpt lat="48.945570" lon="9.551051">
        <ele>493.203114</ele>
        <time>2022-07-23T11:59:58.000Z</time>
      </trkpt>
      <trkpt lat="48.945469" lon="9.551092">
        <ele>493.254234</ele>
        <time>2022-07-23T12:00:00.000Z</time>
      </trkpt>
      <trkpt lat="48.945375" lon="9.551151">
        <ele>493.303958</ele>
        <time>2022-07-23T12:00:02.001Z</time>
      </trkpt>
      <trkpt lat="48.945272" lon="9.551173">
        <ele>493.354824</ele>
        <time>2022-07-23T12:00:04.001Z</time>
      </trkpt>
      <trkpt lat="48.945160" lon="9.551189">
        <ele>493.409839</ele>
        <time>2022-07-23T12:00:06.001Z</time>
      </trkpt>
      <trkpt lat="48.945055" lon="9.551169">
        <ele>493.461590</ele>
        <time>2022-07-23T12:00:08.001Z</time>
      </trkpt>
      <trkpt lat="48.944957" lon="9.551121">
        <ele>493.519053</ele>
        <time>2022-07-23T12:00:10.001Z</time>
      </trkpt>
      <trkpt lat="48.944866" lon="9.551049">
        <ele>493.753016</ele>
        <time>2022-07-23T12:00:12.001Z</time>
      </trkpt>
      <trkpt lat="48.944780" lon="9.550957">
        <ele>493.992800</ele>
        <time>2022-07-23T12:00:14.001Z</time>
      </trkpt>
      <trkpt lat="48.944708" lon="9.550838">
        <ele>494.235234</ele>
        <time>2022-07-23T12:00:16.001Z</time>
      </trkpt>
      <trkpt lat="48.944618" lon="9.550771">
        <ele>494.463786</ele>
        <time>2022-07-23T12:00:18.001Z</time>
      </trkpt>
      <trkpt lat="48.944547" lon="9.550667">
        <ele>494.688553</ele>
        <time>2022-07-23T12:00:20.001Z</time>
      </trkpt>
      <trkpt lat="48.944472" lon="9.550571">
        <ele>494.912088</ele>
        <time>2022-07-23T12:00:22.001Z</time>
      </trkpt>
      <trkpt lat="48.944389" lon="9.550460">
        <ele>495.164114</ele>
        <time>2022-07-23T12:00:24.001Z</time>
      </trkpt>
      <trkpt lat="48.944299" lon="9.550347">
        <ele>495.430247</ele>
        <time>2022-07-23T12:00:26.001Z</time>
      </trkpt>
      <trkpt lat="48.944211" lon="9.550247">
        <ele>495.680759</ele>
        <time>2022-07-23T12:00:28.001Z</time>
      </trkpt>
      <trkpt lat="48.944124" lon="9.550159">
        <ele>495.919047</ele>
        <time>2022-07-23T12:00:30.001Z</time>
      </trkpt>
      <trkpt lat="48.944036" lon="9.550064">
        <ele>496.165152</ele>
        <time>2022-07-23T12:00:32.001Z</time>
      </trkpt>
      <trkpt lat="48.943943" lon="9.549975">
        <ele>496.415750</ele>
        <time>2022-07-23T12:00:34.001Z</time>
      </trkpt>
      <trkpt lat="48.943844" lon="9.549913">
        <ele>496.659966</ele>
        <time>2022-07-23T12:00:36.001Z</time>
      </trkpt>
      <trkpt lat="48.943739" lon="9.549881">
        <ele>496.904262</ele>
        <time>2022-07-23T12:00:38.001Z</time>
      </trkpt>
      <trkpt lat="48.943631" lon="9.549852">
        <ele>497.154453</ele>
        <time>2022-07-23T12:00:40.001Z</time>
      </trkpt>
      <trkpt lat="48.943524" lon="9.549827">
        <ele>497.401417</ele>
        <time>2022-07-23T12:00:42.001Z</time>
      </trkpt>
      <trkpt lat="48.943413" lon="9.549810">
        <ele>497.667759</ele>
        <time>2022-07-23T12:00:44.001Z</time>
      </trkpt>
      <trkpt lat="48.943304" lon="9.549796">
        <ele>497.986692</ele>
        <time>2022-07-23T12:00:46.001Z</time>
      </trkpt>
      <trkpt lat="48.943197" lon="9.549791">
        <ele>498.298812</ele>
        <time>2022-07-23T12:00:48.001Z</time>
      </trkpt>
      <trkpt lat="48.943095" lon="9.549790">
        <ele>498.596213</ele>
        <time>2022-07-23T12:00:50.001Z</time>
      </trkpt>
      <trkpt lat="48.943006" lon="9.549713">
        <ele>498.894674</ele>
        <time>2022-07-23T12:00:53.000Z</time>
      </trkpt>
      <trkpt lat="48.943001" lon="9.549574">
        <ele>499.161261</ele>
        <time>2022-07-23T12:00:56.000Z</time>
      </trkpt>
      <trkpt lat="48.943038" lon="9.549438">
        <ele>499.443161</ele>
        <time>2022-07-23T12:01:02.000Z</time>
      </trkpt>
      <trkpt lat="48.943052" lon="9.549256">
        <ele>499.794076</ele>
        <time>2022-07-23T12:01:06.000Z</time>
      </trkpt>
      <trkpt lat="48.943089" lon="9.549074">
        <ele>500.158922</ele>
        <time>2022-07-23T12:01:09.000Z</time>
      </trkpt>
      <trkpt lat="48.943127" lon="9.548938">
        <ele>500.441951</ele>
        <time>2022-07-23T12:01:11.000Z</time>
      </trkpt>
      <trkpt lat="48.943142" lon="9.548777">
        <ele>500.753354</ele>
        <time>2022-07-23T12:01:13.000Z</time>
      </trkpt>
      <trkpt lat="48.943139" lon="9.548610">
        <ele>501.073281</ele>
        <time>2022-07-23T12:01:15.000Z</time>
      </trkpt>
      <trkpt lat="48.943132" lon="9.548445">
        <ele>501.389916</ele>
        <time>2022-07-23T12:01:17.000Z</time>
      </trkpt>
      <trkpt lat="48.943114" lon="9.548283">
        <ele>501.704556</ele>
        <time>2022-07-23T12:01:19.000Z</time>
      </trkpt>
      <trkpt lat="48.943083" lon="9.548121">
        <ele>502.027687</ele>
        <time>2022-07-23T12:01:21.000Z</time>
      </trkpt>
      <trkpt lat="48.943056" lon="9.547961">
        <ele>502.344040</ele>
        <time>2022-07-23T12:01:23.000Z</time>
      </trkpt>
      <trkpt lat="48.943035" lon="9.547802">
        <ele>502.654623</ele>
        <time>2022-07-23T12:01:25.000Z</time>
      </trkpt>
      <trkpt lat="48.942996" lon="9.547654">
        <ele>502.753349</ele>
        <time>2022-07-23T12:01:27.000Z</time>
      </trkpt>
      <trkpt lat="48.942935" lon="9.547519">
        <ele>502.434150</ele>
        <time>2022-07-23T12:01:29.000Z</time>
      </trkpt>
      <trkpt lat="48.942866" lon="9.547387">
        <ele>502.105520</ele>
        <time>2022-07-23T12:01:31.000Z</time>
      </trkpt>
      <trkpt lat="48.942790" lon="9.547261">
        <ele>501.772277</ele>
        <time>2022-07-23T12:01:33.000Z</time>
      </trkpt>
      <trkpt lat="48.942711" lon="9.547131">
        <ele>501.427273</ele>
        <time>2022-07-23T12:01:35.000Z</time>
      </trkpt>
      <trkpt lat="48.942626" lon="9.546995">
        <ele>501.061569</ele>
        <time>2022-07-23T12:01:37.000Z</time>
      </trkpt>
      <trkpt lat="48.942541" lon="9.546853">
        <ele>500.687311</ele>
        <time>2022-07-23T12:01:39.000Z</time>
      </trkpt>
      <trkpt lat="48.942457" lon="9.546709">
        <ele>500.312139</ele>
        <time>2022-07-23T12:01:41.000Z</time>
      </trkpt>
      <trkpt lat="48.942369" lon="9.546560">
        <ele>499.921799</ele>
        <time>2022-07-23T12:01:43.000Z</time>
      </trkpt>
      <trkpt lat="48.942281" lon="9.546411">
        <ele>499.531459</ele>
        <time>2022-07-23T12:01:45.000Z</time>
      </trkpt>
      <trkpt lat="48.942193" lon="9.546258">
        <ele>499.135291</ele>
        <time>2022-07-23T12:01:47.000Z</time>
      </trkpt>
      <trkpt lat="48.942101" lon="9.546105">
        <ele>498.731207</ele>
        <time>2022-07-23T12:01:49.000Z</time>
      </trkpt>
      <trkpt lat="48.942007" lon="9.545950">
        <ele>498.320241</ele>
        <time>2022-07-23T12:01:51.000Z</time>
      </trkpt>
      <trkpt lat="48.941912" lon="9.545799">
        <ele>497.912919</ele>
        <time>2022-07-23T12:01:53.000Z</time>
      </trkpt>
      <trkpt lat="48.941823" lon="9.545639">
        <ele>497.483079</ele>
        <time>2022-07-23T12:01:55.000Z</time>
      </trkpt>
      <trkpt lat="48.941732" lon="9.545484">
        <ele>496.612049</ele>
        <time>2022-07-23T12:01:57.000Z</time>
      </trkpt>
      <trkpt lat="48.941642" lon="9.545330">
        <ele>495.748391</ele>
        <time>2022-07-23T12:01:59.000Z</time>
      </trkpt>
      <trkpt lat="48.941551" lon="9.545179">
        <ele>494.889782</ele>
        <time>2022-07-23T12:02:01.000Z</time>
      </trkpt>
      <trkpt lat="48.941457" lon="9.545032">
        <ele>494.030207</ele>
        <time>2022-07-23T12:02:03.000Z</time>
      </trkpt>
      <trkpt lat="48.941366" lon="9.544883">
        <ele>493.177751</ele>
        <time>2022-07-23T12:02:05.000Z</time>
      </trkpt>
      <trkpt lat="48.941275" lon="9.544731">
        <ele>492.316048</ele>
        <time>2022-07-23T12:02:07.000Z</time>
      </trkpt>
      <trkpt lat="48.941188" lon="9.544580">
        <ele>491.474475</ele>
        <time>2022-07-23T12:02:09.000Z</time>
      </trkpt>
      <trkpt lat="48.941103" lon="9.544424">
        <ele>490.625243</ele>
        <time>2022-07-23T12:02:11.001Z</time>
      </trkpt>
      <trkpt lat="48.941026" lon="9.544258">
        <ele>489.773780</ele>
        <time>2022-07-23T12:02:13.001Z</time>
      </trkpt>
      <trkpt lat="48.940975" lon="9.544070">
        <ele>488.921552</ele>
        <time>2022-07-23T12:02:15.001Z</time>
      </trkpt>
      <trkpt lat="48.940958" lon="9.543866">
        <ele>488.059970</ele>
        <time>2022-07-23T12:02:17.001Z</time>
      </trkpt>
      <trkpt lat="48.940983" lon="9.543665">
        <ele>487.202843</ele>
        <time>2022-07-23T12:02:19.001Z</time>
      </trkpt>
      <trkpt lat="48.941047" lon="9.543485">
        <ele>486.345264</ele>
        <time>2022-07-23T12:02:21.001Z</time>
      </trkpt>
      <trkpt lat="48.941137" lon="9.543337">
        <ele>485.640043</ele>
        <time>2022-07-23T12:02:23.001Z</time>
      </trkpt>
      <trkpt lat="48.941251" lon="9.543231">
        <ele>485.004744</ele>
        <time>2022-07-23T12:02:25.001Z</time>
      </trkpt>
      <trkpt lat="48.941382" lon="9.543184">
        <ele>484.364648</ele>
        <time>2022-07-23T12:02:27.001Z</time>
      </trkpt>
      <trkpt lat="48.941515" lon="9.543183">
        <ele>483.732098</ele>
        <time>2022-07-23T12:02:29.001Z</time>
      </trkpt>
      <trkpt lat="48.941646" lon="9.543207">
        <ele>483.104573</ele>
        <time>2022-07-23T12:02:31.001Z</time>
      </trkpt>
      <trkpt lat="48.941747" lon="9.543233">
        <ele>482.617403</ele>
        <time>2022-07-23T12:02:33.001Z</time>
      </trkpt>
      <trkpt lat="48.941844" lon="9.543234">
        <ele>482.156065</ele>
        <time>2022-07-23T12:02:37.001Z</time>
      </trkpt>
      <trkpt lat="48.941797" lon="9.543104">
        <ele>481.692512</ele>
        <time>2022-07-23T12:02:41.001Z</time>
      </trkpt>
      <trkpt lat="48.941713" lon="9.543018">
        <ele>481.211084</ele>
        <time>2022-07-23T12:02:44.001Z</time>
      </trkpt>
      <trkpt lat="48.941673" lon="9.542892">
        <ele>480.773918</ele>
        <time>2022-07-23T12:02:47.001Z</time>
      </trkpt>
      <trkpt lat="48.941654" lon="9.543033">
        <ele>480.324282</ele>
        <time>2022-07-23T12:02:52.001Z</time>
      </trkpt>
      <trkpt lat="48.941839" lon="9.543155">
        <ele>479.365438</ele>
        <time>2022-07-23T12:10:26.000Z</time>
      </trkpt>
      <trkpt lat="48.941892" lon="9.543274">
        <ele>478.916301</ele>
        <time>2022-07-23T12:10:31.000Z</time>
      </trkpt>
      <trkpt lat="48.942008" lon="9.543307">
        <ele>478.355061</ele>
        <time>2022-07-23T12:10:35.000Z</time>
      </trkpt>
      <trkpt lat="48.942116" lon="9.543338">
        <ele>477.832369</ele>
        <time>2022-07-23T12:10:37.001Z</time>
      </trkpt>
      <trkpt lat="48.942242" lon="9.543355">
        <ele>477.086673</ele>
        <time>2022-07-23T12:10:39.001Z</time>
      </trkpt>
      <trkpt lat="48.942362" lon="9.543357">
        <ele>476.205309</ele>
        <time>2022-07-23T12:10:41.001Z</time>
      </trkpt>
      <trkpt lat="48.942478" lon="9.543299">
        <ele>475.308610</ele>
        <time>2022-07-23T12:10:43.001Z</time>
      </trkpt>
      <trkpt lat="48.942577" lon="9.543200">
        <ele>474.438720</ele>
        <time>2022-07-23T12:10:45.001Z</time>
      </trkpt>
      <trkpt lat="48.942645" lon="9.543047">
        <ele>473.547586</ele>
        <time>2022-07-23T12:10:47.001Z</time>
      </trkpt>
      <trkpt lat="48.942698" lon="9.542882">
        <ele>472.661576</ele>
        <time>2022-07-23T12:10:49.001Z</time>
      </trkpt>
      <trkpt lat="48.942788" lon="9.542739">
        <ele>471.706208</ele>
        <time>2022-07-23T12:10:51.001Z</time>
      </trkpt>
      <trkpt lat="48.942905" lon="9.542658">
        <ele>470.762266</ele>
        <time>2022-07-23T12:10:53.001Z</time>
      </trkpt>
      <trkpt lat="48.943038" lon="9.542636">
        <ele>469.779732</ele>
        <time>2022-07-23T12:10:55.001Z</time>
      </trkpt>
      <trkpt lat="48.943178" lon="9.542677">
        <ele>468.732687</ele>
        <time>2022-07-23T12:10:57.001Z</time>
      </trkpt>
      <trkpt lat="48.943310" lon="9.542718">
        <ele>467.743277</ele>
        <time>2022-07-23T12:10:59.001Z</time>
      </trkpt>
      <trkpt lat="48.943440" lon="9.542735">
        <ele>466.785009</ele>
        <time>2022-07-23T12:11:01.001Z</time>
      </trkpt>
      <trkpt lat="48.943573" lon="9.542767">
        <ele>465.796101</ele>
        <time>2022-07-23T12:11:03.001Z</time>
      </trkpt>
      <trkpt lat="48.943695" lon="9.542787">
        <ele>464.894923</ele>
        <time>2022-07-23T12:11:05.001Z</time>
      </trkpt>
      <trkpt lat="48.943817" lon="9.542801">
        <ele>464.051078</ele>
        <time>2022-07-23T12:11:07.001Z</time>
      </trkpt>
      <trkpt lat="48.943956" lon="9.542775">
        <ele>463.216894</ele>
        <time>2022-07-23T12:11:09.001Z</time>
      </trkpt>
      <trkpt lat="48.944059" lon="9.542635">
        <ele>462.394458</ele>
        <time>2022-07-23T12:11:11.001Z</time>
      </trkpt>
      <trkpt lat="48.944095" lon="9.542448">
        <ele>461.632092</ele>
        <time>2022-07-23T12:11:13.001Z</time>
      </trkpt>
      <trkpt lat="48.944097" lon="9.542250">
        <ele>460.857380</ele>
        <time>2022-07-23T12:11:15.001Z</time>
      </trkpt>
      <trkpt lat="48.944076" lon="9.542055">
        <ele>460.084309</ele>
        <time>2022-07-23T12:11:17.001Z</time>
      </trkpt>
      <trkpt lat="48.944060" lon="9.541866">
        <ele>459.338781</ele>
        <time>2022-07-23T12:11:19.001Z</time>
      </trkpt>
      <trkpt lat="48.944030" lon="9.541682">
        <ele>458.597082</ele>
        <time>2022-07-23T12:11:20.999Z</time>
      </trkpt>
      <trkpt lat="48.943999" lon="9.541504">
        <ele>457.876639</ele>
        <time>2022-07-23T12:11:22.999Z</time>
      </trkpt>
      <trkpt lat="48.943973" lon="9.541337">
        <ele>457.205191</ele>
        <time>2022-07-23T12:11:24.999Z</time>
      </trkpt>
      <trkpt lat="48.943944" lon="9.541154">
        <ele>456.468708</ele>
        <time>2022-07-23T12:11:26.999Z</time>
      </trkpt>
      <trkpt lat="48.943898" lon="9.540985">
        <ele>455.753012</ele>
        <time>2022-07-23T12:11:28.999Z</time>
      </trkpt>
      <trkpt lat="48.943838" lon="9.540820">
        <ele>455.015160</ele>
        <time>2022-07-23T12:11:30.999Z</time>
      </trkpt>
      <trkpt lat="48.943770" lon="9.540664">
        <ele>454.282671</ele>
        <time>2022-07-23T12:11:32.999Z</time>
      </trkpt>
      <trkpt lat="48.943702" lon="9.540506">
        <ele>453.543781</ele>
        <time>2022-07-23T12:11:34.999Z</time>
      </trkpt>
      <trkpt lat="48.943638" lon="9.540349">
        <ele>452.824220</ele>
        <time>2022-07-23T12:11:36.999Z</time>
      </trkpt>
      <trkpt lat="48.943605" lon="9.540187">
        <ele>452.163726</ele>
        <time>2022-07-23T12:11:38.999Z</time>
      </trkpt>
      <trkpt lat="48.943589" lon="9.540000">
        <ele>451.429370</ele>
        <time>2022-07-23T12:11:40.999Z</time>
      </trkpt>
      <trkpt lat="48.943594" lon="9.539803">
        <ele>450.661653</ele>
        <time>2022-07-23T12:11:42.999Z</time>
      </trkpt>
      <trkpt lat="48.943597" lon="9.539602">
        <ele>449.878730</ele>
        <time>2022-07-23T12:11:44.999Z</time>
      </trkpt>
      <trkpt lat="48.943598" lon="9.539408">
        <ele>449.123244</ele>
        <time>2022-07-23T12:11:46.999Z</time>
      </trkpt>
      <trkpt lat="48.943593" lon="9.539209">
        <ele>448.347745</ele>
        <time>2022-07-23T12:11:48.999Z</time>
      </trkpt>
      <trkpt lat="48.943583" lon="9.539010">
        <ele>447.570547</ele>
        <time>2022-07-23T12:11:50.999Z</time>
      </trkpt>
      <trkpt lat="48.943572" lon="9.538824">
        <ele>446.843307</ele>
        <time>2022-07-23T12:11:52.999Z</time>
      </trkpt>
      <trkpt lat="48.943560" lon="9.538631">
        <ele>446.088379</ele>
        <time>2022-07-23T12:11:54.999Z</time>
      </trkpt>
      <trkpt lat="48.943547" lon="9.538437">
        <ele>445.328994</ele>
        <time>2022-07-23T12:11:57.000Z</time>
      </trkpt>
      <trkpt lat="48.943533" lon="9.538240">
        <ele>444.557371</ele>
        <time>2022-07-23T12:11:59.000Z</time>
      </trkpt>
      <trkpt lat="48.943518" lon="9.538044">
        <ele>443.788956</ele>
        <time>2022-07-23T12:12:01.000Z</time>
      </trkpt>
      <trkpt lat="48.943500" lon="9.537860">
        <ele>443.064530</ele>
        <time>2022-07-23T12:12:03.000Z</time>
      </trkpt>
      <trkpt lat="48.943474" lon="9.537674">
        <ele>442.106561</ele>
        <time>2022-07-23T12:12:05.000Z</time>
      </trkpt>
      <trkpt lat="48.943447" lon="9.537494">
        <ele>441.119927</ele>
        <time>2022-07-23T12:12:07.000Z</time>
      </trkpt>
      <trkpt lat="48.943419" lon="9.537321">
        <ele>440.167809</ele>
        <time>2022-07-23T12:12:09.000Z</time>
      </trkpt>
      <trkpt lat="48.943392" lon="9.537149">
        <ele>439.222802</ele>
        <time>2022-07-23T12:12:11.000Z</time>
      </trkpt>
      <trkpt lat="48.943342" lon="9.536997">
        <ele>438.314381</ele>
        <time>2022-07-23T12:12:13.000Z</time>
      </trkpt>
      <trkpt lat="48.943317" lon="9.536831">
        <ele>437.404301</ele>
        <time>2022-07-23T12:12:15.000Z</time>
      </trkpt>
      <trkpt lat="48.943292" lon="9.536667">
        <ele>436.504635</ele>
        <time>2022-07-23T12:12:17.000Z</time>
      </trkpt>
      <trkpt lat="48.943263" lon="9.536503">
        <ele>435.597056</ele>
        <time>2022-07-23T12:12:19.000Z</time>
      </trkpt>
      <trkpt lat="48.943246" lon="9.536344">
        <ele>434.736218</ele>
        <time>2022-07-23T12:12:21.000Z</time>
      </trkpt>
      <trkpt lat="48.943232" lon="9.536168">
        <ele>433.788847</ele>
        <time>2022-07-23T12:12:23.000Z</time>
      </trkpt>
      <trkpt lat="48.943237" lon="9.535986">
        <ele>432.815436</ele>
        <time>2022-07-23T12:12:25.000Z</time>
      </trkpt>
      <trkpt lat="48.943268" lon="9.535800">
        <ele>431.789999</ele>
        <time>2022-07-23T12:12:27.000Z</time>
      </trkpt>
      <trkpt lat="48.943310" lon="9.535633">
        <ele>430.834410</ele>
        <time>2022-07-23T12:12:29.000Z</time>
      </trkpt>
      <trkpt lat="48.943366" lon="9.535471">
        <ele>429.856150</ele>
        <time>2022-07-23T12:12:31.000Z</time>
      </trkpt>
      <trkpt lat="48.943433" lon="9.535320">
        <ele>428.882377</ele>
        <time>2022-07-23T12:12:33.000Z</time>
      </trkpt>
      <trkpt lat="48.943531" lon="9.535190">
        <ele>427.930027</ele>
        <time>2022-07-23T12:12:35.000Z</time>
      </trkpt>
      <trkpt lat="48.943645" lon="9.535134">
        <ele>427.183390</ele>
        <time>2022-07-23T12:12:37.000Z</time>
      </trkpt>
      <trkpt lat="48.943757" lon="9.535035">
        <ele>426.376167</ele>
        <time>2022-07-23T12:12:39.001Z</time>
      </trkpt>
      <trkpt lat="48.943873" lon="9.535009">
        <ele>425.645340</ele>
        <time>2022-07-23T12:12:41.001Z</time>
      </trkpt>
      <trkpt lat="48.943983" lon="9.534963">
        <ele>424.934312</ele>
        <time>2022-07-23T12:12:43.001Z</time>
      </trkpt>
      <trkpt lat="48.944090" lon="9.534893">
        <ele>424.208415</ele>
        <time>2022-07-23T12:12:45.001Z</time>
      </trkpt>
      <trkpt lat="48.944201" lon="9.534872">
        <ele>423.511225</ele>
        <time>2022-07-23T12:12:47.001Z</time>
      </trkpt>
      <trkpt lat="48.944302" lon="9.534831">
        <ele>422.859695</ele>
        <time>2022-07-23T12:12:49.001Z</time>
      </trkpt>
      <trkpt lat="48.944422" lon="9.534780">
        <ele>422.083135</ele>
        <time>2022-07-23T12:12:51.001Z</time>
      </trkpt>
      <trkpt lat="48.944511" lon="9.534705">
        <ele>421.449093</ele>
        <time>2022-07-23T12:12:53.001Z</time>
      </trkpt>
      <trkpt lat="48.944620" lon="9.534694">
        <ele>420.768200</ele>
        <time>2022-07-23T12:12:55.001Z</time>
      </trkpt>
      <trkpt lat="48.944720" lon="9.534655">
        <ele>420.124771</ele>
        <time>2022-07-23T12:12:57.001Z</time>
      </trkpt>
      <trkpt lat="48.944814" lon="9.534603">
        <ele>419.501390</ele>
        <time>2022-07-23T12:12:59.001Z</time>
      </trkpt>
      <trkpt lat="48.944913" lon="9.534487">
        <ele>418.722745</ele>
        <time>2022-07-23T12:13:01.001Z</time>
      </trkpt>
      <trkpt lat="48.944959" lon="9.534324">
        <ele>417.996469</ele>
        <time>2022-07-23T12:13:03.001Z</time>
      </trkpt>
      <trkpt lat="48.944953" lon="9.534116">
        <ele>417.144144</ele>
        <time>2022-07-23T12:13:05.001Z</time>
      </trkpt>
      <trkpt lat="48.944928" lon="9.533946">
        <ele>416.240594</ele>
        <time>2022-07-23T12:13:07.001Z</time>
      </trkpt>
      <trkpt lat="48.944903" lon="9.533778">
        <ele>415.323133</ele>
        <time>2022-07-23T12:13:09.001Z</time>
      </trkpt>
      <trkpt lat="48.944876" lon="9.533602">
        <ele>414.360511</ele>
        <time>2022-07-23T12:13:11.001Z</time>
      </trkpt>
      <trkpt lat="48.944851" lon="9.533443">
        <ele>413.489734</ele>
        <time>2022-07-23T12:13:13.001Z</time>
      </trkpt>
      <trkpt lat="48.944825" lon="9.533276">
        <ele>412.575629</ele>
        <time>2022-07-23T12:13:15.001Z</time>
      </trkpt>
      <trkpt lat="48.944799" lon="9.533114">
        <ele>411.687415</ele>
        <time>2022-07-23T12:13:17.001Z</time>
      </trkpt>
      <trkpt lat="48.944774" lon="9.532955">
        <ele>410.816637</ele>
        <time>2022-07-23T12:13:19.001Z</time>
      </trkpt>
      <trkpt lat="48.944749" lon="9.532800">
        <ele>409.966563</ele>
        <time>2022-07-23T12:13:21.001Z</time>
      </trkpt>
      <trkpt lat="48.944724" lon="9.532637">
        <ele>409.075052</ele>
        <time>2022-07-23T12:13:23.001Z</time>
      </trkpt>
      <trkpt lat="48.944700" lon="9.532480">
        <ele>408.216504</ele>
        <time>2022-07-23T12:13:25.001Z</time>
      </trkpt>
      <trkpt lat="48.944677" lon="9.532318">
        <ele>407.333746</ele>
        <time>2022-07-23T12:13:26.999Z</time>
      </trkpt>
      <trkpt lat="48.944661" lon="9.532144">
        <ele>406.397964</ele>
        <time>2022-07-23T12:13:28.999Z</time>
      </trkpt>
      <trkpt lat="48.944654" lon="9.531963">
        <ele>405.432269</ele>
        <time>2022-07-23T12:13:30.999Z</time>
      </trkpt>
      <trkpt lat="48.944657" lon="9.531783">
        <ele>404.473261</ele>
        <time>2022-07-23T12:13:32.999Z</time>
      </trkpt>
      <trkpt lat="48.944670" lon="9.531600">
        <ele>403.492899</ele>
        <time>2022-07-23T12:13:34.999Z</time>
      </trkpt>
      <trkpt lat="48.944672" lon="9.531414">
        <ele>402.502110</ele>
        <time>2022-07-23T12:13:36.999Z</time>
      </trkpt>
      <trkpt lat="48.944689" lon="9.531223">
        <ele>401.542436</ele>
        <time>2022-07-23T12:13:38.999Z</time>
      </trkpt>
      <trkpt lat="48.944709" lon="9.531039">
        <ele>400.615428</ele>
        <time>2022-07-23T12:13:40.999Z</time>
      </trkpt>
      <trkpt lat="48.944723" lon="9.530850">
        <ele>399.670052</ele>
        <time>2022-07-23T12:13:42.999Z</time>
      </trkpt>
      <trkpt lat="48.944734" lon="9.530666">
        <ele>398.751703</ele>
        <time>2022-07-23T12:13:44.999Z</time>
      </trkpt>
      <trkpt lat="48.944748" lon="9.530490">
        <ele>397.870507</ele>
        <time>2022-07-23T12:13:47.000Z</time>
      </trkpt>
      <trkpt lat="48.944763" lon="9.530314">
        <ele>396.988370</ele>
        <time>2022-07-23T12:13:49.000Z</time>
      </trkpt>
      <trkpt lat="48.944777" lon="9.530146">
        <ele>396.146636</ele>
        <time>2022-07-23T12:13:51.000Z</time>
      </trkpt>
      <trkpt lat="48.944788" lon="9.529980">
        <ele>395.317349</ele>
        <time>2022-07-23T12:13:53.000Z</time>
      </trkpt>
      <trkpt lat="48.944801" lon="9.529813">
        <ele>394.481471</ele>
        <time>2022-07-23T12:13:55.000Z</time>
      </trkpt>
      <trkpt lat="48.944814" lon="9.529643">
        <ele>393.630783</ele>
        <time>2022-07-23T12:13:57.000Z</time>
      </trkpt>
      <trkpt lat="48.944821" lon="9.529471">
        <ele>392.774223</ele>
        <time>2022-07-23T12:13:59.000Z</time>
      </trkpt>
      <trkpt lat="48.944809" lon="9.529295">
        <ele>391.894720</ele>
        <time>2022-07-23T12:14:01.000Z</time>
      </trkpt>
      <trkpt lat="48.944773" lon="9.529134">
        <ele>391.049369</ele>
        <time>2022-07-23T12:14:03.000Z</time>
      </trkpt>
      <trkpt lat="48.944740" lon="9.528986">
        <ele>390.272502</ele>
        <time>2022-07-23T12:14:05.000Z</time>
      </trkpt>
      <trkpt lat="48.944701" lon="9.528828">
        <ele>389.433537</ele>
        <time>2022-07-23T12:14:07.000Z</time>
      </trkpt>
      <trkpt lat="48.944666" lon="9.528675">
        <ele>388.663901</ele>
        <time>2022-07-23T12:14:09.000Z</time>
      </trkpt>
      <trkpt lat="48.944629" lon="9.528515">
        <ele>387.947356</ele>
        <time>2022-07-23T12:14:11.000Z</time>
      </trkpt>
      <trkpt lat="48.944590" lon="9.528356">
        <ele>387.230396</ele>
        <time>2022-07-23T12:14:13.000Z</time>
      </trkpt>
      <trkpt lat="48.944517" lon="9.528191">
        <ele>386.390013</ele>
        <time>2022-07-23T12:14:15.000Z</time>
      </trkpt>
      <trkpt lat="48.944424" lon="9.528060">
        <ele>385.575153</ele>
        <time>2022-07-23T12:14:17.000Z</time>
      </trkpt>
      <trkpt lat="48.944310" lon="9.527979">
        <ele>384.766038</ele>
        <time>2022-07-23T12:14:19.000Z</time>
      </trkpt>
      <trkpt lat="48.944191" lon="9.527953">
        <ele>383.992834</ele>
        <time>2022-07-23T12:14:21.000Z</time>
      </trkpt>
      <trkpt lat="48.944074" lon="9.527931">
        <ele>383.234616</ele>
        <time>2022-07-23T12:14:23.000Z</time>
      </trkpt>
      <trkpt lat="48.943959" lon="9.527897">
        <ele>382.481163</ele>
        <time>2022-07-23T12:14:25.000Z</time>
      </trkpt>
      <trkpt lat="48.943855" lon="9.527825">
        <ele>381.746371</ele>
        <time>2022-07-23T12:14:27.000Z</time>
      </trkpt>
      <trkpt lat="48.943762" lon="9.527721">
        <ele>381.004225</ele>
        <time>2022-07-23T12:14:29.000Z</time>
      </trkpt>
      <trkpt lat="48.943694" lon="9.527588">
        <ele>380.292235</ele>
        <time>2022-07-23T12:14:31.000Z</time>
      </trkpt>
      <trkpt lat="48.943640" lon="9.527444">
        <ele>379.591770</ele>
        <time>2022-07-23T12:14:33.001Z</time>
      </trkpt>
      <trkpt lat="48.943583" lon="9.527298">
        <ele>378.874291</ele>
        <time>2022-07-23T12:14:35.001Z</time>
      </trkpt>
      <trkpt lat="48.943528" lon="9.527163">
        <ele>378.203208</ele>
        <time>2022-07-23T12:14:37.001Z</time>
      </trkpt>
      <trkpt lat="48.943475" lon="9.527026">
        <ele>377.531548</ele>
        <time>2022-07-23T12:14:39.001Z</time>
      </trkpt>
      <trkpt lat="48.943421" lon="9.526885">
        <ele>376.678170</ele>
        <time>2022-07-23T12:14:41.001Z</time>
      </trkpt>
      <trkpt lat="48.943370" lon="9.526745">
        <ele>375.758548</ele>
        <time>2022-07-23T12:14:43.001Z</time>
      </trkpt>
      <trkpt lat="48.943318" lon="9.526605">
        <ele>374.834651</ele>
        <time>2022-07-23T12:14:45.001Z</time>
      </trkpt>
      <trkpt lat="48.943266" lon="9.526467">
        <ele>373.920737</ele>
        <time>2022-07-23T12:14:47.001Z</time>
      </trkpt>
      <trkpt lat="48.943218" lon="9.526327">
        <ele>373.013548</ele>
        <time>2022-07-23T12:14:49.001Z</time>
      </trkpt>
      <trkpt lat="48.943171" lon="9.526186">
        <ele>372.105254</ele>
        <time>2022-07-23T12:14:51.001Z</time>
      </trkpt>
      <trkpt lat="48.943126" lon="9.526043">
        <ele>371.194393</ele>
        <time>2022-07-23T12:14:53.001Z</time>
      </trkpt>
      <trkpt lat="48.943079" lon="9.525898">
        <ele>370.265549</ele>
        <time>2022-07-23T12:14:55.001Z</time>
      </trkpt>
      <trkpt lat="48.943031" lon="9.525751">
        <ele>369.322528</ele>
        <time>2022-07-23T12:14:57.001Z</time>
      </trkpt>
      <trkpt lat="48.942982" lon="9.525602">
        <ele>368.365321</ele>
        <time>2022-07-23T12:14:59.001Z</time>
      </trkpt>
      <trkpt lat="48.942936" lon="9.525453">
        <ele>367.419569</ele>
        <time>2022-07-23T12:15:01.001Z</time>
      </trkpt>
      <trkpt lat="48.942890" lon="9.525297">
        <ele>366.437276</ele>
        <time>2022-07-23T12:15:03.001Z</time>
      </trkpt>
      <trkpt lat="48.942841" lon="9.525141">
        <ele>365.443948</ele>
        <time>2022-07-23T12:15:05.001Z</time>
      </trkpt>
      <trkpt lat="48.942794" lon="9.524982">
        <ele>364.442350</ele>
        <time>2022-07-23T12:15:07.001Z</time>
      </trkpt>
      <trkpt lat="48.942745" lon="9.524827">
        <ele>363.454199</ele>
        <time>2022-07-23T12:15:09.001Z</time>
      </trkpt>
      <trkpt lat="48.942697" lon="9.524673">
        <ele>362.475002</ele>
        <time>2022-07-23T12:15:11.001Z</time>
      </trkpt>
      <trkpt lat="48.942651" lon="9.524519">
        <ele>361.512678</ele>
        <time>2022-07-23T12:15:13.001Z</time>
      </trkpt>
      <trkpt lat="48.942605" lon="9.524369">
        <ele>360.703861</ele>
        <time>2022-07-23T12:15:15.001Z</time>
      </trkpt>
      <trkpt lat="48.942562" lon="9.524220">
        <ele>359.908704</ele>
        <time>2022-07-23T12:15:17.001Z</time>
      </trkpt>
      <trkpt lat="48.942512" lon="9.524062">
        <ele>359.051819</ele>
        <time>2022-07-23T12:15:19.001Z</time>
      </trkpt>
      <trkpt lat="48.942467" lon="9.523909">
        <ele>358.232764</ele>
        <time>2022-07-23T12:15:21.002Z</time>
      </trkpt>
      <trkpt lat="48.942418" lon="9.523753">
        <ele>357.387905</ele>
        <time>2022-07-23T12:15:23.002Z</time>
      </trkpt>
      <trkpt lat="48.942368" lon="9.523607">
        <ele>356.583434</ele>
        <time>2022-07-23T12:15:25.002Z</time>
      </trkpt>
      <trkpt lat="48.942314" lon="9.523456">
        <ele>355.743408</ele>
        <time>2022-07-23T12:15:27.002Z</time>
      </trkpt>
      <trkpt lat="48.942247" lon="9.523309">
        <ele>354.869207</ele>
        <time>2022-07-23T12:15:29.002Z</time>
      </trkpt>
      <trkpt lat="48.942177" lon="9.523170">
        <ele>354.013430</ele>
        <time>2022-07-23T12:15:31.002Z</time>
      </trkpt>
      <trkpt lat="48.942095" lon="9.523046">
        <ele>353.153715</ele>
        <time>2022-07-23T12:15:33.000Z</time>
      </trkpt>
      <trkpt lat="48.942004" lon="9.522938">
        <ele>352.295429</ele>
        <time>2022-07-23T12:15:35.000Z</time>
      </trkpt>
      <trkpt lat="48.941907" lon="9.522844">
        <ele>351.440115</ele>
        <time>2022-07-23T12:15:37.000Z</time>
      </trkpt>
      <trkpt lat="48.941796" lon="9.522777">
        <ele>350.551902</ele>
        <time>2022-07-23T12:15:39.000Z</time>
      </trkpt>
      <trkpt lat="48.941681" lon="9.522738">
        <ele>349.675493</ele>
        <time>2022-07-23T12:15:41.000Z</time>
      </trkpt>
      <trkpt lat="48.941566" lon="9.522700">
        <ele>348.800134</ele>
        <time>2022-07-23T12:15:43.000Z</time>
      </trkpt>
      <trkpt lat="48.941456" lon="9.522663">
        <ele>347.980683</ele>
        <time>2022-07-23T12:15:45.000Z</time>
      </trkpt>
      <trkpt lat="48.941359" lon="9.522645">
        <ele>347.313623</ele>
        <time>2022-07-23T12:15:47.000Z</time>
      </trkpt>
      <trkpt lat="48.941240" lon="9.522603">
        <ele>346.479741</ele>
        <time>2022-07-23T12:15:50.000Z</time>
      </trkpt>
      <trkpt lat="48.941145" lon="9.522566">
        <ele>345.810351</ele>
        <time>2022-07-23T12:15:52.000Z</time>
      </trkpt>
      <trkpt lat="48.941041" lon="9.522528">
        <ele>345.080247</ele>
        <time>2022-07-23T12:15:54.000Z</time>
      </trkpt>
      <trkpt lat="48.940938" lon="9.522486">
        <ele>344.352347</ele>
        <time>2022-07-23T12:15:56.000Z</time>
      </trkpt>
      <trkpt lat="48.940834" lon="9.522438">
        <ele>343.610497</ele>
        <time>2022-07-23T12:15:58.000Z</time>
      </trkpt>
      <trkpt lat="48.940731" lon="9.522386">
        <ele>342.869729</ele>
        <time>2022-07-23T12:16:00.000Z</time>
      </trkpt>
      <trkpt lat="48.940627" lon="9.522329">
        <ele>342.115182</ele>
        <time>2022-07-23T12:16:02.000Z</time>
      </trkpt>
      <trkpt lat="48.940526" lon="9.522269">
        <ele>341.375088</ele>
        <time>2022-07-23T12:16:04.000Z</time>
      </trkpt>
      <trkpt lat="48.940425" lon="9.522211">
        <ele>340.638207</ele>
        <time>2022-07-23T12:16:06.000Z</time>
      </trkpt>
      <trkpt lat="48.940318" lon="9.522146">
        <ele>339.851783</ele>
        <time>2022-07-23T12:16:08.000Z</time>
      </trkpt>
      <trkpt lat="48.940209" lon="9.522071">
        <ele>339.035242</ele>
        <time>2022-07-23T12:16:10.000Z</time>
      </trkpt>
      <trkpt lat="48.940101" lon="9.521992">
        <ele>338.217309</ele>
        <time>2022-07-23T12:16:12.000Z</time>
      </trkpt>
      <trkpt lat="48.939996" lon="9.521911">
        <ele>337.413773</ele>
        <time>2022-07-23T12:16:14.000Z</time>
      </trkpt>
      <trkpt lat="48.939905" lon="9.521815">
        <ele>336.658007</ele>
        <time>2022-07-23T12:16:16.000Z</time>
      </trkpt>
      <trkpt lat="48.939824" lon="9.521708">
        <ele>335.925937</ele>
        <time>2022-07-23T12:16:18.001Z</time>
      </trkpt>
      <trkpt lat="48.939759" lon="9.521595">
        <ele>335.612382</ele>
        <time>2022-07-23T12:16:20.001Z</time>
      </trkpt>
      <trkpt lat="48.939705" lon="9.521474">
        <ele>335.316012</ele>
        <time>2022-07-23T12:16:22.001Z</time>
      </trkpt>
      <trkpt lat="48.939646" lon="9.521320">
        <ele>334.954821</ele>
        <time>2022-07-23T12:16:25.001Z</time>
      </trkpt>
      <trkpt lat="48.939575" lon="9.521171">
        <ele>334.581885</ele>
        <time>2022-07-23T12:16:28.001Z</time>
      </trkpt>
      <trkpt lat="48.939518" lon="9.521066">
        <ele>334.305912</ele>
        <time>2022-07-23T12:16:30.001Z</time>
      </trkpt>
      <trkpt lat="48.939483" lon="9.520928">
        <ele>334.006210</ele>
        <time>2022-07-23T12:16:32.001Z</time>
      </trkpt>
      <trkpt lat="48.939458" lon="9.520780">
        <ele>333.696610</ele>
        <time>2022-07-23T12:16:34.001Z</time>
      </trkpt>
      <trkpt lat="48.939367" lon="9.520708">
        <ele>333.380291</ele>
        <time>2022-07-23T12:16:36.001Z</time>
      </trkpt>
      <trkpt lat="48.939269" lon="9.520673">
        <ele>333.069819</ele>
        <time>2022-07-23T12:16:38.001Z</time>
      </trkpt>
      <trkpt lat="48.939181" lon="9.520599">
        <ele>332.759743</ele>
        <time>2022-07-23T12:16:40.001Z</time>
      </trkpt>
      <trkpt lat="48.939100" lon="9.520511">
        <ele>332.452818</ele>
        <time>2022-07-23T12:16:42.001Z</time>
      </trkpt>
      <trkpt lat="48.939020" lon="9.520426">
        <ele>332.151919</ele>
        <time>2022-07-23T12:16:44.001Z</time>
      </trkpt>
      <trkpt lat="48.938936" lon="9.520345">
        <ele>331.845233</ele>
        <time>2022-07-23T12:16:46.001Z</time>
      </trkpt>
      <trkpt lat="48.938851" lon="9.520255">
        <ele>331.525889</ele>
        <time>2022-07-23T12:16:48.001Z</time>
      </trkpt>
      <trkpt lat="48.938765" lon="9.520146">
        <ele>331.180740</ele>
        <time>2022-07-23T12:16:50.001Z</time>
      </trkpt>
      <trkpt lat="48.938688" lon="9.520008">
        <ele>330.813897</ele>
        <time>2022-07-23T12:16:52.001Z</time>
      </trkpt>
      <trkpt lat="48.938621" lon="9.519861">
        <ele>330.451401</ele>
        <time>2022-07-23T12:16:54.001Z</time>
      </trkpt>
      <trkpt lat="48.938565" lon="9.519702">
        <ele>329.856790</ele>
        <time>2022-07-23T12:16:56.001Z</time>
      </trkpt>
      <trkpt lat="48.938532" lon="9.519531">
        <ele>329.195480</ele>
        <time>2022-07-23T12:16:58.001Z</time>
      </trkpt>
      <trkpt lat="48.938510" lon="9.519346">
        <ele>328.497881</ele>
        <time>2022-07-23T12:17:00.001Z</time>
      </trkpt>
      <trkpt lat="48.938505" lon="9.519161">
        <ele>327.810859</ele>
        <time>2022-07-23T12:17:02.001Z</time>
      </trkpt>
      <trkpt lat="48.938519" lon="9.518976">
        <ele>327.119877</ele>
        <time>2022-07-23T12:17:04.001Z</time>
      </trkpt>
      <trkpt lat="48.938543" lon="9.518794">
        <ele>326.431094</ele>
        <time>2022-07-23T12:17:06.001Z</time>
      </trkpt>
      <trkpt lat="48.938561" lon="9.518615">
        <ele>325.759179</ele>
        <time>2022-07-23T12:17:08.001Z</time>
      </trkpt>
      <trkpt lat="48.938575" lon="9.518429">
        <ele>325.064511</ele>
        <time>2022-07-23T12:17:10.001Z</time>
      </trkpt>
      <trkpt lat="48.938573" lon="9.518245">
        <ele>324.381688</ele>
        <time>2022-07-23T12:17:12.002Z</time>
      </trkpt>
      <trkpt lat="48.938551" lon="9.518082">
        <ele>323.764243</ele>
        <time>2022-07-23T12:17:14.002Z</time>
      </trkpt>
      <trkpt lat="48.938517" lon="9.517913">
        <ele>323.108418</ele>
        <time>2022-07-23T12:17:16.002Z</time>
      </trkpt>
      <trkpt lat="48.938472" lon="9.517757">
        <ele>322.476225</ele>
        <time>2022-07-23T12:17:18.002Z</time>
      </trkpt>
      <trkpt lat="48.938416" lon="9.517617">
        <ele>321.868020</ele>
        <time>2022-07-23T12:17:20.002Z</time>
      </trkpt>
      <trkpt lat="48.938353" lon="9.517475">
        <ele>321.232206</ele>
        <time>2022-07-23T12:17:22.002Z</time>
      </trkpt>
      <trkpt lat="48.938275" lon="9.517359">
        <ele>320.616258</ele>
        <time>2022-07-23T12:17:24.002Z</time>
      </trkpt>
      <trkpt lat="48.938193" lon="9.517249">
        <ele>319.993063</ele>
        <time>2022-07-23T12:17:26.002Z</time>
      </trkpt>
      <trkpt lat="48.938110" lon="9.517129">
        <ele>319.327865</ele>
        <time>2022-07-23T12:17:28.002Z</time>
      </trkpt>
      <trkpt lat="48.938021" lon="9.517004">
        <ele>318.624165</ele>
        <time>2022-07-23T12:17:30.002Z</time>
      </trkpt>
      <trkpt lat="48.937950" lon="9.516852">
        <ele>317.912185</ele>
        <time>2022-07-23T12:17:32.002Z</time>
      </trkpt>
      <trkpt lat="48.937881" lon="9.516698">
        <ele>317.200583</ele>
        <time>2022-07-23T12:17:34.002Z</time>
      </trkpt>
      <trkpt lat="48.937829" lon="9.516523">
        <ele>316.467378</ele>
        <time>2022-07-23T12:17:36.002Z</time>
      </trkpt>
      <trkpt lat="48.937799" lon="9.516343">
        <ele>315.758484</ele>
        <time>2022-07-23T12:17:38.002Z</time>
      </trkpt>
      <trkpt lat="48.937776" lon="9.516155">
        <ele>315.028483</ele>
        <time>2022-07-23T12:17:40.000Z</time>
      </trkpt>
      <trkpt lat="48.937764" lon="9.515966">
        <ele>314.303642</ele>
        <time>2022-07-23T12:17:42.000Z</time>
      </trkpt>
      <trkpt lat="48.937753" lon="9.515779">
        <ele>313.586941</ele>
        <time>2022-07-23T12:17:44.000Z</time>
      </trkpt>
      <trkpt lat="48.937743" lon="9.515592">
        <ele>312.870735</ele>
        <time>2022-07-23T12:17:46.000Z</time>
      </trkpt>
      <trkpt lat="48.937726" lon="9.515406">
        <ele>312.153868</ele>
        <time>2022-07-23T12:17:48.000Z</time>
      </trkpt>
      <trkpt lat="48.937710" lon="9.515217">
        <ele>311.426422</ele>
        <time>2022-07-23T12:17:50.000Z</time>
      </trkpt>
      <trkpt lat="48.937697" lon="9.515024">
        <ele>310.685810</ele>
        <time>2022-07-23T12:17:52.000Z</time>
      </trkpt>
      <trkpt lat="48.937678" lon="9.514835">
        <ele>309.955930</ele>
        <time>2022-07-23T12:17:54.000Z</time>
      </trkpt>
      <trkpt lat="48.937666" lon="9.514640">
        <ele>309.370025</ele>
        <time>2022-07-23T12:17:56.000Z</time>
      </trkpt>
      <trkpt lat="48.937660" lon="9.514445">
        <ele>308.847821</ele>
        <time>2022-07-23T12:17:58.000Z</time>
      </trkpt>
      <trkpt lat="48.937643" lon="9.514261">
        <ele>308.350769</ele>
        <time>2022-07-23T12:18:00.000Z</time>
      </trkpt>
      <trkpt lat="48.937630" lon="9.514083">
        <ele>307.871677</ele>
        <time>2022-07-23T12:18:02.000Z</time>
      </trkpt>
      <trkpt lat="48.937625" lon="9.513916">
        <ele>307.424482</ele>
        <time>2022-07-23T12:18:04.000Z</time>
      </trkpt>
      <trkpt lat="48.937621" lon="9.513755">
        <ele>306.993492</ele>
        <time>2022-07-23T12:18:06.000Z</time>
      </trkpt>
      <trkpt lat="48.937623" lon="9.513598">
        <ele>306.573432</ele>
        <time>2022-07-23T12:18:08.000Z</time>
      </trkpt>
      <trkpt lat="48.937627" lon="9.513428">
        <ele>306.118383</ele>
        <time>2022-07-23T12:18:10.000Z</time>
      </trkpt>
      <trkpt lat="48.937627" lon="9.513252">
        <ele>305.647576</ele>
        <time>2022-07-23T12:18:12.000Z</time>
      </trkpt>
      <trkpt lat="48.937632" lon="9.513074">
        <ele>305.170983</ele>
        <time>2022-07-23T12:18:14.000Z</time>
      </trkpt>
      <trkpt lat="48.937640" lon="9.512894">
        <ele>304.688375</ele>
        <time>2022-07-23T12:18:16.000Z</time>
      </trkpt>
      <trkpt lat="48.937645" lon="9.512717">
        <ele>304.214455</ele>
        <time>2022-07-23T12:18:18.000Z</time>
      </trkpt>
      <trkpt lat="48.937647" lon="9.512541">
        <ele>303.743578</ele>
        <time>2022-07-23T12:18:20.000Z</time>
      </trkpt>
      <trkpt lat="48.937649" lon="9.512366">
        <ele>303.275375</ele>
        <time>2022-07-23T12:18:22.000Z</time>
      </trkpt>
      <trkpt lat="48.937653" lon="9.512189">
        <ele>302.801613</ele>
        <time>2022-07-23T12:18:24.000Z</time>
      </trkpt>
      <trkpt lat="48.937661" lon="9.512010">
        <ele>302.283914</ele>
        <time>2022-07-23T12:18:26.000Z</time>
      </trkpt>
      <trkpt lat="48.937661" lon="9.511827">
        <ele>301.613895</ele>
        <time>2022-07-23T12:18:28.000Z</time>
      </trkpt>
      <trkpt lat="48.937665" lon="9.511639">
        <ele>300.925210</ele>
        <time>2022-07-23T12:18:30.000Z</time>
      </trkpt>
      <trkpt lat="48.937672" lon="9.511446">
        <ele>300.217502</ele>
        <time>2022-07-23T12:18:32.000Z</time>
      </trkpt>
      <trkpt lat="48.937678" lon="9.511250">
        <ele>299.499109</ele>
        <time>2022-07-23T12:18:34.000Z</time>
      </trkpt>
      <trkpt lat="48.937679" lon="9.511054">
        <ele>298.781472</ele>
        <time>2022-07-23T12:18:36.000Z</time>
      </trkpt>
      <trkpt lat="48.937678" lon="9.510859">
        <ele>298.067497</ele>
        <time>2022-07-23T12:18:38.001Z</time>
      </trkpt>
      <trkpt lat="48.937672" lon="9.510662">
        <ele>297.345446</ele>
        <time>2022-07-23T12:18:40.001Z</time>
      </trkpt>
      <trkpt lat="48.937663" lon="9.510469">
        <ele>296.637037</ele>
        <time>2022-07-23T12:18:42.001Z</time>
      </trkpt>
      <trkpt lat="48.937662" lon="9.510275">
        <ele>295.926722</ele>
        <time>2022-07-23T12:18:44.001Z</time>
      </trkpt>
      <trkpt lat="48.937651" lon="9.510083">
        <ele>295.221084</ele>
        <time>2022-07-23T12:18:46.001Z</time>
      </trkpt>
      <trkpt lat="48.937646" lon="9.509892">
        <ele>294.521220</ele>
        <time>2022-07-23T12:18:48.001Z</time>
      </trkpt>
      <trkpt lat="48.937644" lon="9.509704">
        <ele>293.832805</ele>
        <time>2022-07-23T12:18:50.001Z</time>
      </trkpt>
      <trkpt lat="48.937650" lon="9.509515">
        <ele>293.140011</ele>
        <time>2022-07-23T12:18:52.001Z</time>
      </trkpt>
      <trkpt lat="48.937661" lon="9.509328">
        <ele>292.452608</ele>
        <time>2022-07-23T12:18:54.001Z</time>
      </trkpt>
      <trkpt lat="48.937674" lon="9.509142">
        <ele>292.129573</ele>
        <time>2022-07-23T12:18:56.001Z</time>
      </trkpt>
      <trkpt lat="48.937687" lon="9.508958">
        <ele>291.840463</ele>
        <time>2022-07-23T12:18:58.001Z</time>
      </trkpt>
      <trkpt lat="48.937710" lon="9.508776">
        <ele>291.550921</ele>
        <time>2022-07-23T12:19:00.001Z</time>
      </trkpt>
      <trkpt lat="48.937732" lon="9.508588">
        <ele>291.252596</ele>
        <time>2022-07-23T12:19:02.001Z</time>
      </trkpt>
      <trkpt lat="48.937752" lon="9.508396">
        <ele>290.948899</ele>
        <time>2022-07-23T12:19:04.001Z</time>
      </trkpt>
      <trkpt lat="48.937772" lon="9.508203">
        <ele>290.643658</ele>
        <time>2022-07-23T12:19:06.001Z</time>
      </trkpt>
      <trkpt lat="48.937796" lon="9.508008">
        <ele>290.333721</ele>
        <time>2022-07-23T12:19:08.001Z</time>
      </trkpt>
      <trkpt lat="48.937815" lon="9.507820">
        <ele>290.036564</ele>
        <time>2022-07-23T12:19:10.001Z</time>
      </trkpt>
      <trkpt lat="48.937821" lon="9.507630">
        <ele>289.739397</ele>
        <time>2022-07-23T12:19:12.001Z</time>
      </trkpt>
      <trkpt lat="48.937817" lon="9.507441">
        <ele>289.443981</ele>
        <time>2022-07-23T12:19:14.001Z</time>
      </trkpt>
      <trkpt lat="48.937805" lon="9.507252">
        <ele>289.147342</ele>
        <time>2022-07-23T12:19:16.001Z</time>
      </trkpt>
      <trkpt lat="48.937792" lon="9.507068">
        <ele>288.858233</ele>
        <time>2022-07-23T12:19:18.001Z</time>
      </trkpt>
      <trkpt lat="48.937772" lon="9.506886">
        <ele>288.569955</ele>
        <time>2022-07-23T12:19:20.001Z</time>
      </trkpt>
      <trkpt lat="48.937744" lon="9.506708">
        <ele>288.284014</ele>
        <time>2022-07-23T12:19:22.001Z</time>
      </trkpt>
      <trkpt lat="48.937716" lon="9.506528">
        <ele>288.108610</ele>
        <time>2022-07-23T12:19:24.001Z</time>
      </trkpt>
      <trkpt lat="48.937687" lon="9.506352">
        <ele>288.080351</ele>
        <time>2022-07-23T12:19:26.001Z</time>
      </trkpt>
      <trkpt lat="48.937655" lon="9.506176">
        <ele>288.051911</ele>
        <time>2022-07-23T12:19:28.001Z</time>
      </trkpt>
      <trkpt lat="48.937622" lon="9.506000">
        <ele>288.023406</ele>
        <time>2022-07-23T12:19:30.001Z</time>
      </trkpt>
      <trkpt lat="48.937587" lon="9.505823">
        <ele>287.994619</ele>
        <time>2022-07-23T12:19:32.001Z</time>
      </trkpt>
      <trkpt lat="48.937559" lon="9.505646">
        <ele>287.966266</ele>
        <time>2022-07-23T12:19:34.001Z</time>
      </trkpt>
      <trkpt lat="48.937528" lon="9.505462">
        <ele>287.936683</ele>
        <time>2022-07-23T12:19:36.002Z</time>
      </trkpt>
      <trkpt lat="48.937498" lon="9.505287">
        <ele>287.908516</ele>
        <time>2022-07-23T12:19:38.002Z</time>
      </trkpt>
      <trkpt lat="48.937469" lon="9.505116">
        <ele>287.881012</ele>
        <time>2022-07-23T12:19:40.002Z</time>
      </trkpt>
      <trkpt lat="48.937439" lon="9.504954">
        <ele>287.854799</ele>
        <time>2022-07-23T12:19:42.002Z</time>
      </trkpt>
      <trkpt lat="48.937411" lon="9.504793">
        <ele>287.828861</ele>
        <time>2022-07-23T12:19:44.002Z</time>
      </trkpt>
      <trkpt lat="48.937386" lon="9.504632">
        <ele>287.803097</ele>
        <time>2022-07-23T12:19:46.000Z</time>
      </trkpt>
      <trkpt lat="48.937356" lon="9.504462">
        <ele>287.775683</ele>
        <time>2022-07-23T12:19:48.000Z</time>
      </trkpt>
      <trkpt lat="48.937333" lon="9.504291">
        <ele>287.748499</ele>
        <time>2022-07-23T12:19:50.000Z</time>
      </trkpt>
      <trkpt lat="48.937321" lon="9.504116">
        <ele>287.721097</ele>
        <time>2022-07-23T12:19:52.000Z</time>
      </trkpt>
      <trkpt lat="48.937324" lon="9.503940">
        <ele>287.682283</ele>
        <time>2022-07-23T12:19:54.000Z</time>
      </trkpt>
      <trkpt lat="48.937346" lon="9.503767">
        <ele>287.364329</ele>
        <time>2022-07-23T12:19:56.000Z</time>
      </trkpt>
      <trkpt lat="48.937377" lon="9.503592">
        <ele>287.037281</ele>
        <time>2022-07-23T12:19:58.000Z</time>
      </trkpt>
      <trkpt lat="48.937407" lon="9.503419">
        <ele>286.714429</ele>
        <time>2022-07-23T12:20:00.000Z</time>
      </trkpt>
      <trkpt lat="48.937419" lon="9.503248">
        <ele>286.404124</ele>
        <time>2022-07-23T12:20:02.000Z</time>
      </trkpt>
      <trkpt lat="48.937421" lon="9.503079">
        <ele>286.099134</ele>
        <time>2022-07-23T12:20:04.000Z</time>
      </trkpt>
      <trkpt lat="48.937411" lon="9.502911">
        <ele>285.794756</ele>
        <time>2022-07-23T12:20:06.000Z</time>
      </trkpt>
      <trkpt lat="48.937384" lon="9.502748">
        <ele>285.491435</ele>
        <time>2022-07-23T12:20:08.000Z</time>
      </trkpt>
      <trkpt lat="48.937343" lon="9.502585">
        <ele>285.176495</ele>
        <time>2022-07-23T12:20:10.000Z</time>
      </trkpt>
      <trkpt lat="48.937299" lon="9.502446">
        <ele>284.898083</ele>
        <time>2022-07-23T12:20:12.000Z</time>
      </trkpt>
      <trkpt lat="48.937266" lon="9.502294">
        <ele>284.609225</ele>
        <time>2022-07-23T12:20:14.000Z</time>
      </trkpt>
      <trkpt lat="48.937229" lon="9.502145">
        <ele>284.321802</ele>
        <time>2022-07-23T12:20:16.000Z</time>
      </trkpt>
      <trkpt lat="48.937185" lon="9.501997">
        <ele>284.028675</ele>
        <time>2022-07-23T12:20:18.000Z</time>
      </trkpt>
      <trkpt lat="48.937160" lon="9.501838">
        <ele>283.733673</ele>
        <time>2022-07-23T12:20:20.000Z</time>
      </trkpt>
      <trkpt lat="48.937161" lon="9.501675">
        <ele>283.439544</ele>
        <time>2022-07-23T12:20:22.000Z</time>
      </trkpt>
      <trkpt lat="48.937155" lon="9.501535">
        <ele>283.186392</ele>
        <time>2022-07-23T12:20:24.000Z</time>
      </trkpt>
      <trkpt lat="48.937167" lon="9.501342">
        <ele>282.836588</ele>
        <time>2022-07-23T12:20:27.000Z</time>
      </trkpt>
      <trkpt lat="48.937175" lon="9.501192">
        <ele>282.640487</ele>
        <time>2022-07-23T12:20:29.000Z</time>
      </trkpt>
      <trkpt lat="48.937192" lon="9.501027">
        <ele>282.459393</ele>
        <time>2022-07-23T12:20:31.000Z</time>
      </trkpt>
      <trkpt lat="48.937209" lon="9.500845">
        <ele>282.260069</ele>
        <time>2022-07-23T12:20:33.000Z</time>
      </trkpt>
      <trkpt lat="48.937236" lon="9.500670">
        <ele>282.065156</ele>
        <time>2022-07-23T12:20:35.000Z</time>
      </trkpt>
      <trkpt lat="48.937290" lon="9.500520">
        <ele>281.879691</ele>
        <time>2022-07-23T12:20:37.000Z</time>
      </trkpt>
      <trkpt lat="48.937351" lon="9.500410">
        <ele>281.723603</ele>
        <time>2022-07-23T12:20:39.001Z</time>
      </trkpt>
      <trkpt lat="48.937422" lon="9.500310">
        <ele>281.563943</ele>
        <time>2022-07-23T12:20:41.001Z</time>
      </trkpt>
      <trkpt lat="48.937487" lon="9.500193">
        <ele>281.397795</ele>
        <time>2022-07-23T12:20:43.001Z</time>
      </trkpt>
      <trkpt lat="48.937542" lon="9.500067">
        <ele>281.233763</ele>
        <time>2022-07-23T12:20:45.001Z</time>
      </trkpt>
      <trkpt lat="48.937563" lon="9.499865">
        <ele>281.012014</ele>
        <time>2022-07-23T12:20:48.001Z</time>
      </trkpt>
      <trkpt lat="48.937561" lon="9.499721">
        <ele>280.855844</ele>
        <time>2022-07-23T12:20:50.001Z</time>
      </trkpt>
      <trkpt lat="48.937552" lon="9.499573">
        <ele>280.694685</ele>
        <time>2022-07-23T12:20:52.001Z</time>
      </trkpt>
      <trkpt lat="48.937515" lon="9.499423">
        <ele>280.520955</ele>
        <time>2022-07-23T12:20:54.001Z</time>
      </trkpt>
      <trkpt lat="48.937461" lon="9.499287">
        <ele>280.348648</ele>
        <time>2022-07-23T12:20:56.001Z</time>
      </trkpt>
      <trkpt lat="48.937396" lon="9.499179">
        <ele>280.189827</ele>
        <time>2022-07-23T12:20:58.001Z</time>
      </trkpt>
      <trkpt lat="48.937282" lon="9.499075">
        <ele>279.970453</ele>
        <time>2022-07-23T12:21:01.001Z</time>
      </trkpt>
      <trkpt lat="48.937168" lon="9.499002">
        <ele>279.795162</ele>
        <time>2022-07-23T12:21:04.001Z</time>
      </trkpt>
      <trkpt lat="48.937050" lon="9.498926">
        <ele>279.907018</ele>
        <time>2022-07-23T12:21:07.001Z</time>
      </trkpt>
      <trkpt lat="48.936967" lon="9.498874">
        <ele>279.985374</ele>
        <time>2022-07-23T12:21:09.001Z</time>
      </trkpt>
      <trkpt lat="48.936880" lon="9.498826">
        <ele>280.066159</ele>
        <time>2022-07-23T12:21:11.001Z</time>
      </trkpt>
      <trkpt lat="48.936787" lon="9.498782">
        <ele>280.151180</ele>
        <time>2022-07-23T12:21:13.001Z</time>
      </trkpt>
      <trkpt lat="48.936691" lon="9.498761">
        <ele>280.235849</ele>
        <time>2022-07-23T12:21:15.001Z</time>
      </trkpt>
      <trkpt lat="48.936559" lon="9.498768">
        <ele>280.351156</ele>
        <time>2022-07-23T12:21:18.001Z</time>
      </trkpt>
      <trkpt lat="48.936462" lon="9.498795">
        <ele>280.437242</ele>
        <time>2022-07-23T12:21:20.001Z</time>
      </trkpt>
      <trkpt lat="48.936363" lon="9.498838">
        <ele>280.527119</ele>
        <time>2022-07-23T12:21:22.001Z</time>
      </trkpt>
      <trkpt lat="48.936267" lon="9.498899">
        <ele>280.617936</ele>
        <time>2022-07-23T12:21:24.001Z</time>
      </trkpt>
      <trkpt lat="48.936175" lon="9.498969">
        <ele>280.707726</ele>
        <time>2022-07-23T12:21:26.001Z</time>
      </trkpt>
      <trkpt lat="48.936080" lon="9.499037">
        <ele>280.799372</ele>
        <time>2022-07-23T12:21:28.001Z</time>
      </trkpt>
      <trkpt lat="48.935984" lon="9.499105">
        <ele>280.891810</ele>
        <time>2022-07-23T12:21:30.001Z</time>
      </trkpt>
      <trkpt lat="48.935888" lon="9.499177">
        <ele>280.985238</ele>
        <time>2022-07-23T12:21:32.001Z</time>
      </trkpt>
      <trkpt lat="48.935787" lon="9.499242">
        <ele>281.080967</ele>
        <time>2022-07-23T12:21:34.001Z</time>
      </trkpt>
      <trkpt lat="48.935680" lon="9.499292">
        <ele>281.178681</ele>
        <time>2022-07-23T12:21:36.001Z</time>
      </trkpt>
      <trkpt lat="48.935569" lon="9.499322">
        <ele>281.277100</ele>
        <time>2022-07-23T12:21:38.001Z</time>
      </trkpt>
      <trkpt lat="48.935454" lon="9.499330">
        <ele>281.303927</ele>
        <time>2022-07-23T12:21:40.001Z</time>
      </trkpt>
      <trkpt lat="48.935337" lon="9.499316">
        <ele>281.066202</ele>
        <time>2022-07-23T12:21:42.001Z</time>
      </trkpt>
      <trkpt lat="48.935222" lon="9.499284">
        <ele>280.829400</ele>
        <time>2022-07-23T12:21:44.001Z</time>
      </trkpt>
      <trkpt lat="48.935109" lon="9.499236">
        <ele>280.591765</ele>
        <time>2022-07-23T12:21:46.002Z</time>
      </trkpt>
      <trkpt lat="48.935000" lon="9.499170">
        <ele>280.354151</ele>
        <time>2022-07-23T12:21:48.002Z</time>
      </trkpt>
      <trkpt lat="48.934903" lon="9.499079">
        <ele>280.123354</ele>
        <time>2022-07-23T12:21:50.002Z</time>
      </trkpt>
      <trkpt lat="48.934811" lon="9.498967">
        <ele>279.884737</ele>
        <time>2022-07-23T12:21:52.000Z</time>
      </trkpt>
      <trkpt lat="48.934736" lon="9.498834">
        <ele>279.651499</ele>
        <time>2022-07-23T12:21:54.000Z</time>
      </trkpt>
      <trkpt lat="48.934665" lon="9.498700">
        <ele>279.422422</ele>
        <time>2022-07-23T12:21:56.000Z</time>
      </trkpt>
      <trkpt lat="48.934601" lon="9.498561">
        <ele>279.196555</ele>
        <time>2022-07-23T12:21:58.000Z</time>
      </trkpt>
      <trkpt lat="48.934542" lon="9.498423">
        <ele>278.977461</ele>
        <time>2022-07-23T12:22:00.000Z</time>
      </trkpt>
      <trkpt lat="48.934490" lon="9.498284">
        <ele>278.764612</ele>
        <time>2022-07-23T12:22:02.000Z</time>
      </trkpt>
      <trkpt lat="48.934437" lon="9.498142">
        <ele>278.547291</ele>
        <time>2022-07-23T12:22:04.000Z</time>
      </trkpt>
      <trkpt lat="48.934383" lon="9.498001">
        <ele>278.330113</ele>
        <time>2022-07-23T12:22:06.000Z</time>
      </trkpt>
      <trkpt lat="48.934328" lon="9.497856">
        <ele>278.107314</ele>
        <time>2022-07-23T12:22:08.000Z</time>
      </trkpt>
      <trkpt lat="48.934273" lon="9.497710">
        <ele>277.883362</ele>
        <time>2022-07-23T12:22:10.000Z</time>
      </trkpt>
      <trkpt lat="48.934216" lon="9.497564">
        <ele>277.673144</ele>
        <time>2022-07-23T12:22:12.000Z</time>
      </trkpt>
      <trkpt lat="48.934160" lon="9.497415">
        <ele>277.510554</ele>
        <time>2022-07-23T12:22:14.000Z</time>
      </trkpt>
      <trkpt lat="48.934105" lon="9.497264">
        <ele>277.347022</ele>
        <time>2022-07-23T12:22:16.000Z</time>
      </trkpt>
      <trkpt lat="48.934053" lon="9.497124">
        <ele>277.194693</ele>
        <time>2022-07-23T12:22:18.000Z</time>
      </trkpt>
      <trkpt lat="48.934007" lon="9.496996">
        <ele>277.056502</ele>
        <time>2022-07-23T12:22:20.000Z</time>
      </trkpt>
      <trkpt lat="48.933963" lon="9.496876">
        <ele>276.926338</ele>
        <time>2022-07-23T12:22:22.000Z</time>
      </trkpt>
      <trkpt lat="48.933915" lon="9.496752">
        <ele>276.790017</ele>
        <time>2022-07-23T12:22:24.000Z</time>
      </trkpt>
      <trkpt lat="48.933863" lon="9.496616">
        <ele>276.640974</ele>
        <time>2022-07-23T12:22:26.000Z</time>
      </trkpt>
      <trkpt lat="48.933807" lon="9.496472">
        <ele>276.482477</ele>
        <time>2022-07-23T12:22:28.000Z</time>
      </trkpt>
      <trkpt lat="48.933750" lon="9.496325">
        <ele>276.320800</ele>
        <time>2022-07-23T12:22:30.000Z</time>
      </trkpt>
      <trkpt lat="48.933693" lon="9.496179">
        <ele>276.159937</ele>
        <time>2022-07-23T12:22:32.000Z</time>
      </trkpt>
      <trkpt lat="48.933635" lon="9.496031">
        <ele>275.996710</ele>
        <time>2022-07-23T12:22:34.000Z</time>
      </trkpt>
      <trkpt lat="48.933576" lon="9.495885">
        <ele>275.834355</ele>
        <time>2022-07-23T12:22:36.000Z</time>
      </trkpt>
      <trkpt lat="48.933514" lon="9.495742">
        <ele>275.672071</ele>
        <time>2022-07-23T12:22:38.000Z</time>
      </trkpt>
      <trkpt lat="48.933455" lon="9.495610">
        <ele>275.520851</ele>
        <time>2022-07-23T12:22:40.000Z</time>
      </trkpt>
      <trkpt lat="48.933399" lon="9.495489">
        <ele>275.380659</ele>
        <time>2022-07-23T12:22:42.000Z</time>
      </trkpt>
      <trkpt lat="48.933343" lon="9.495366">
        <ele>275.238915</ele>
        <time>2022-07-23T12:22:44.000Z</time>
      </trkpt>
      <trkpt lat="48.933283" lon="9.495244">
        <ele>275.101504</ele>
        <time>2022-07-23T12:22:46.000Z</time>
      </trkpt>
      <trkpt lat="48.933215" lon="9.495119">
        <ele>274.991719</ele>
        <time>2022-07-23T12:22:48.000Z</time>
      </trkpt>
      <trkpt lat="48.933142" lon="9.494993">
        <ele>274.878074</ele>
        <time>2022-07-23T12:22:50.000Z</time>
      </trkpt>
      <trkpt lat="48.933065" lon="9.494867">
        <ele>274.761663</ele>
        <time>2022-07-23T12:22:52.000Z</time>
      </trkpt>
      <trkpt lat="48.932990" lon="9.494742">
        <ele>274.647146</ele>
        <time>2022-07-23T12:22:54.001Z</time>
      </trkpt>
      <trkpt lat="48.932915" lon="9.494614">
        <ele>274.531122</ele>
        <time>2022-07-23T12:22:56.001Z</time>
      </trkpt>
      <trkpt lat="48.932835" lon="9.494491">
        <ele>274.414037</ele>
        <time>2022-07-23T12:22:58.001Z</time>
      </trkpt>
      <trkpt lat="48.932756" lon="9.494369">
        <ele>274.298156</ele>
        <time>2022-07-23T12:23:00.001Z</time>
      </trkpt>
      <trkpt lat="48.932676" lon="9.494246">
        <ele>274.181071</ele>
        <time>2022-07-23T12:23:02.001Z</time>
      </trkpt>
      <trkpt lat="48.932594" lon="9.494127">
        <ele>274.064410</ele>
        <time>2022-07-23T12:23:04.001Z</time>
      </trkpt>
      <trkpt lat="48.932510" lon="9.494013">
        <ele>273.948528</ele>
        <time>2022-07-23T12:23:06.001Z</time>
      </trkpt>
      <trkpt lat="48.932423" lon="9.493900">
        <ele>273.830763</ele>
        <time>2022-07-23T12:23:08.001Z</time>
      </trkpt>
      <trkpt lat="48.932338" lon="9.493789">
        <ele>273.715442</ele>
        <time>2022-07-23T12:23:10.001Z</time>
      </trkpt>
      <trkpt lat="48.932257" lon="9.493668">
        <ele>273.598581</ele>
        <time>2022-07-23T12:23:12.001Z</time>
      </trkpt>
      <trkpt lat="48.932176" lon="9.493545">
        <ele>273.480768</ele>
        <time>2022-07-23T12:23:14.001Z</time>
      </trkpt>
      <trkpt lat="48.932089" lon="9.493432">
        <ele>273.363002</ele>
        <time>2022-07-23T12:23:16.001Z</time>
      </trkpt>
      <trkpt lat="48.932006" lon="9.493310">
        <ele>273.261708</ele>
        <time>2022-07-23T12:23:18.001Z</time>
      </trkpt>
      <trkpt lat="48.931927" lon="9.493184">
        <ele>273.235358</ele>
        <time>2022-07-23T12:23:20.001Z</time>
      </trkpt>
      <trkpt lat="48.931847" lon="9.493054">
        <ele>273.208410</ele>
        <time>2022-07-23T12:23:22.001Z</time>
      </trkpt>
      <trkpt lat="48.931779" lon="9.492908">
        <ele>273.181334</ele>
        <time>2022-07-23T12:23:24.001Z</time>
      </trkpt>
      <trkpt lat="48.931717" lon="9.492758">
        <ele>273.154523</ele>
        <time>2022-07-23T12:23:26.001Z</time>
      </trkpt>
      <trkpt lat="48.931668" lon="9.492597">
        <ele>273.127679</ele>
        <time>2022-07-23T12:23:28.001Z</time>
      </trkpt>
      <trkpt lat="48.931624" lon="9.492435">
        <ele>273.101158</ele>
        <time>2022-07-23T12:23:30.001Z</time>
      </trkpt>
      <trkpt lat="48.931592" lon="9.492260">
        <ele>273.073677</ele>
        <time>2022-07-23T12:23:32.001Z</time>
      </trkpt>
      <trkpt lat="48.931574" lon="9.492078">
        <ele>273.045832</ele>
        <time>2022-07-23T12:23:34.001Z</time>
      </trkpt>
      <trkpt lat="48.931559" lon="9.491898">
        <ele>273.018382</ele>
        <time>2022-07-23T12:23:36.001Z</time>
      </trkpt>
      <trkpt lat="48.931558" lon="9.491718">
        <ele>272.991149</ele>
        <time>2022-07-23T12:23:38.001Z</time>
      </trkpt>
      <trkpt lat="48.931568" lon="9.491540">
        <ele>272.964121</ele>
        <time>2022-07-23T12:23:40.001Z</time>
      </trkpt>
      <trkpt lat="48.931586" lon="9.491366">
        <ele>272.937473</ele>
        <time>2022-07-23T12:23:42.001Z</time>
      </trkpt>
      <trkpt lat="48.931600" lon="9.491188">
        <ele>272.910351</ele>
        <time>2022-07-23T12:23:44.001Z</time>
      </trkpt>
      <trkpt lat="48.931613" lon="9.491014">
        <ele>272.883858</ele>
        <time>2022-07-23T12:23:46.001Z</time>
      </trkpt>
      <trkpt lat="48.931630" lon="9.490838">
        <ele>272.856945</ele>
        <time>2022-07-23T12:23:48.001Z</time>
      </trkpt>
      <trkpt lat="48.931646" lon="9.490665">
        <ele>272.952626</ele>
        <time>2022-07-23T12:23:50.001Z</time>
      </trkpt>
      <trkpt lat="48.931661" lon="9.490491">
        <ele>273.073180</ele>
        <time>2022-07-23T12:23:52.001Z</time>
      </trkpt>
      <trkpt lat="48.931677" lon="9.490319">
        <ele>273.192514</ele>
        <time>2022-07-23T12:23:54.001Z</time>
      </trkpt>
      <trkpt lat="48.931697" lon="9.490148">
        <ele>273.311829</ele>
        <time>2022-07-23T12:23:56.001Z</time>
      </trkpt>
      <trkpt lat="48.931716" lon="9.489976">
        <ele>273.431643</ele>
        <time>2022-07-23T12:23:58.000Z</time>
      </trkpt>
      <trkpt lat="48.931733" lon="9.489804">
        <ele>273.551128</ele>
        <time>2022-07-23T12:24:00.000Z</time>
      </trkpt>
      <trkpt lat="48.931749" lon="9.489630">
        <ele>273.671823</ele>
        <time>2022-07-23T12:24:02.000Z</time>
      </trkpt>
      <trkpt lat="48.931767" lon="9.489454">
        <ele>273.794182</ele>
        <time>2022-07-23T12:24:04.000Z</time>
      </trkpt>
      <trkpt lat="48.931783" lon="9.489284">
        <ele>273.912155</ele>
        <time>2022-07-23T12:24:06.000Z</time>
      </trkpt>
      <trkpt lat="48.931797" lon="9.489119">
        <ele>274.026443</ele>
        <time>2022-07-23T12:24:08.000Z</time>
      </trkpt>
      <trkpt lat="48.931812" lon="9.488956">
        <ele>274.139509</ele>
        <time>2022-07-23T12:24:10.000Z</time>
      </trkpt>
      <trkpt lat="48.931826" lon="9.488790">
        <ele>274.254478</ele>
        <time>2022-07-23T12:24:12.000Z</time>
      </trkpt>
      <trkpt lat="48.931840" lon="9.488623">
        <ele>274.370129</ele>
        <time>2022-07-23T12:24:14.000Z</time>
      </trkpt>
      <trkpt lat="48.931854" lon="9.488456">
        <ele>274.485779</ele>
        <time>2022-07-23T12:24:16.000Z</time>
      </trkpt>
      <trkpt lat="48.931870" lon="9.488288">
        <ele>274.602393</ele>
        <time>2022-07-23T12:24:18.000Z</time>
      </trkpt>
      <trkpt lat="48.931885" lon="9.488121">
        <ele>274.718180</ele>
        <time>2022-07-23T12:24:20.000Z</time>
      </trkpt>
      <trkpt lat="48.931902" lon="9.487959">
        <ele>274.921236</ele>
        <time>2022-07-23T12:24:22.000Z</time>
      </trkpt>
      <trkpt lat="48.931914" lon="9.487801">
        <ele>275.131684</ele>
        <time>2022-07-23T12:24:24.000Z</time>
      </trkpt>
      <trkpt lat="48.931930" lon="9.487646">
        <ele>275.339287</ele>
        <time>2022-07-23T12:24:26.000Z</time>
      </trkpt>
      <trkpt lat="48.931949" lon="9.487493">
        <ele>275.545311</ele>
        <time>2022-07-23T12:24:28.000Z</time>
      </trkpt>
      <trkpt lat="48.931976" lon="9.487339">
        <ele>275.756206</ele>
        <time>2022-07-23T12:24:30.000Z</time>
      </trkpt>
      <trkpt lat="48.932003" lon="9.487182">
        <ele>275.970937</ele>
        <time>2022-07-23T12:24:32.000Z</time>
      </trkpt>
      <trkpt lat="48.932028" lon="9.487022">
        <ele>276.188544</ele>
        <time>2022-07-23T12:24:34.000Z</time>
      </trkpt>
      <trkpt lat="48.932057" lon="9.486865">
        <ele>276.404331</ele>
        <time>2022-07-23T12:24:36.000Z</time>
      </trkpt>
      <trkpt lat="48.932082" lon="9.486707">
        <ele>276.619364</ele>
        <time>2022-07-23T12:24:38.000Z</time>
      </trkpt>
      <trkpt lat="48.932104" lon="9.486553">
        <ele>276.827888</ele>
        <time>2022-07-23T12:24:40.000Z</time>
      </trkpt>
      <trkpt lat="48.932113" lon="9.486394">
        <ele>277.039046</ele>
        <time>2022-07-23T12:24:42.000Z</time>
      </trkpt>
      <trkpt lat="48.932116" lon="9.486236">
        <ele>277.248188</ele>
        <time>2022-07-23T12:24:44.000Z</time>
      </trkpt>
      <trkpt lat="48.932112" lon="9.486080">
        <ele>277.454753</ele>
        <time>2022-07-23T12:24:46.000Z</time>
      </trkpt>
      <trkpt lat="48.932109" lon="9.485923">
        <ele>277.662573</ele>
        <time>2022-07-23T12:24:48.000Z</time>
      </trkpt>
      <trkpt lat="48.932097" lon="9.485771">
        <ele>277.865136</ele>
        <time>2022-07-23T12:24:50.000Z</time>
      </trkpt>
      <trkpt lat="48.932080" lon="9.485622">
        <ele>278.065234</ele>
        <time>2022-07-23T12:24:52.000Z</time>
      </trkpt>
      <trkpt lat="48.932064" lon="9.485468">
        <ele>278.271528</ele>
        <time>2022-07-23T12:24:54.000Z</time>
      </trkpt>
      <trkpt lat="48.932035" lon="9.485312">
        <ele>278.398863</ele>
        <time>2022-07-23T12:24:56.000Z</time>
      </trkpt>
      <trkpt lat="48.932013" lon="9.485148">
        <ele>278.472030</ele>
        <time>2022-07-23T12:24:58.000Z</time>
      </trkpt>
      <trkpt lat="48.931989" lon="9.484986">
        <ele>278.544622</ele>
        <time>2022-07-23T12:25:00.000Z</time>
      </trkpt>
      <trkpt lat="48.931969" lon="9.484824">
        <ele>278.616675</ele>
        <time>2022-07-23T12:25:02.000Z</time>
      </trkpt>
      <trkpt lat="48.931947" lon="9.484663">
        <ele>278.688558</ele>
        <time>2022-07-23T12:25:04.000Z</time>
      </trkpt>
      <trkpt lat="48.931922" lon="9.484504">
        <ele>278.760023</ele>
        <time>2022-07-23T12:25:06.000Z</time>
      </trkpt>
      <trkpt lat="48.931907" lon="9.484345">
        <ele>278.830238</ele>
        <time>2022-07-23T12:25:08.000Z</time>
      </trkpt>
      <trkpt lat="48.931886" lon="9.484175">
        <ele>278.905851</ele>
        <time>2022-07-23T12:25:11.000Z</time>
      </trkpt>
      <trkpt lat="48.931861" lon="9.484038">
        <ele>278.968004</ele>
        <time>2022-07-23T12:25:14.001Z</time>
      </trkpt>
      <trkpt lat="48.931833" lon="9.483856">
        <ele>279.049712</ele>
        <time>2022-07-23T12:25:17.001Z</time>
      </trkpt>
      <trkpt lat="48.931809" lon="9.483665">
        <ele>279.134716</ele>
        <time>2022-07-23T12:25:20.001Z</time>
      </trkpt>
      <trkpt lat="48.931787" lon="9.483499">
        <ele>279.208740</ele>
        <time>2022-07-23T12:25:23.001Z</time>
      </trkpt>
      <trkpt lat="48.931760" lon="9.483320">
        <ele>279.289021</ele>
        <time>2022-07-23T12:25:26.001Z</time>
      </trkpt>
      <trkpt lat="48.931737" lon="9.483170">
        <ele>279.356352</ele>
        <time>2022-07-23T12:25:28.001Z</time>
      </trkpt>
      <trkpt lat="48.931713" lon="9.483007">
        <ele>279.429371</ele>
        <time>2022-07-23T12:25:30.001Z</time>
      </trkpt>
      <trkpt lat="48.931687" lon="9.482847">
        <ele>279.501418</ele>
        <time>2022-07-23T12:25:32.001Z</time>
      </trkpt>
      <trkpt lat="48.931661" lon="9.482697">
        <ele>279.454845</ele>
        <time>2022-07-23T12:25:34.001Z</time>
      </trkpt>
      <trkpt lat="48.931634" lon="9.482551">
        <ele>279.064463</ele>
        <time>2022-07-23T12:25:36.001Z</time>
      </trkpt>
      <trkpt lat="48.931605" lon="9.482384">
        <ele>278.619873</ele>
        <time>2022-07-23T12:25:38.001Z</time>
      </trkpt>
      <trkpt lat="48.931571" lon="9.482206">
        <ele>278.142762</ele>
        <time>2022-07-23T12:25:40.001Z</time>
      </trkpt>
      <trkpt lat="48.931542" lon="9.482024">
        <ele>277.660745</ele>
        <time>2022-07-23T12:25:42.001Z</time>
      </trkpt>
      <trkpt lat="48.931506" lon="9.481841">
        <ele>277.169072</ele>
        <time>2022-07-23T12:25:44.001Z</time>
      </trkpt>
      <trkpt lat="48.931467" lon="9.481659">
        <ele>276.676347</ele>
        <time>2022-07-23T12:25:46.001Z</time>
      </trkpt>
      <trkpt lat="48.931436" lon="9.481472">
        <ele>276.179955</ele>
        <time>2022-07-23T12:25:48.001Z</time>
      </trkpt>
      <trkpt lat="48.931390" lon="9.481297">
        <ele>275.694820</ele>
        <time>2022-07-23T12:25:50.001Z</time>
      </trkpt>
      <trkpt lat="48.931355" lon="9.481128">
        <ele>275.238741</ele>
        <time>2022-07-23T12:25:52.001Z</time>
      </trkpt>
      <trkpt lat="48.931302" lon="9.480961">
        <ele>274.761385</ele>
        <time>2022-07-23T12:25:54.001Z</time>
      </trkpt>
      <trkpt lat="48.931252" lon="9.480803">
        <ele>274.309999</ele>
        <time>2022-07-23T12:25:56.001Z</time>
      </trkpt>
      <trkpt lat="48.931185" lon="9.480655">
        <ele>273.847389</ele>
        <time>2022-07-23T12:25:58.001Z</time>
      </trkpt>
      <trkpt lat="48.931132" lon="9.480486">
        <ele>273.365391</ele>
        <time>2022-07-23T12:26:00.001Z</time>
      </trkpt>
      <trkpt lat="48.931095" lon="9.480316">
        <ele>272.904451</ele>
        <time>2022-07-23T12:26:02.001Z</time>
      </trkpt>
      <trkpt lat="48.931076" lon="9.480133">
        <ele>272.436201</ele>
        <time>2022-07-23T12:26:04.000Z</time>
      </trkpt>
      <trkpt lat="48.931063" lon="9.479953">
        <ele>272.021329</ele>
        <time>2022-07-23T12:26:06.000Z</time>
      </trkpt>
      <trkpt lat="48.931043" lon="9.479789">
        <ele>271.639179</ele>
        <time>2022-07-23T12:26:08.000Z</time>
      </trkpt>
      <trkpt lat="48.931020" lon="9.479613">
        <ele>271.228055</ele>
        <time>2022-07-23T12:26:10.000Z</time>
      </trkpt>
      <trkpt lat="48.930992" lon="9.479441">
        <ele>270.822077</ele>
        <time>2022-07-23T12:26:12.000Z</time>
      </trkpt>
      <trkpt lat="48.930946" lon="9.479282">
        <ele>270.424044</ele>
        <time>2022-07-23T12:26:14.000Z</time>
      </trkpt>
      <trkpt lat="48.930870" lon="9.479151">
        <ele>270.023643</ele>
        <time>2022-07-23T12:26:16.000Z</time>
      </trkpt>
      <trkpt lat="48.930761" lon="9.479072">
        <ele>269.602636</ele>
        <time>2022-07-23T12:26:18.000Z</time>
      </trkpt>
      <trkpt lat="48.930643" lon="9.479066">
        <ele>269.190904</ele>
        <time>2022-07-23T12:26:20.000Z</time>
      </trkpt>
      <trkpt lat="48.930530" lon="9.479124">
        <ele>268.775037</ele>
        <time>2022-07-23T12:26:22.000Z</time>
      </trkpt>
      <trkpt lat="48.930419" lon="9.479169">
        <ele>268.374452</ele>
        <time>2022-07-23T12:26:24.000Z</time>
      </trkpt>
      <trkpt lat="48.930311" lon="9.479198">
        <ele>267.992007</ele>
        <time>2022-07-23T12:26:26.000Z</time>
      </trkpt>
      <trkpt lat="48.930208" lon="9.479207">
        <ele>267.632223</ele>
        <time>2022-07-23T12:26:28.000Z</time>
      </trkpt>
      <trkpt lat="48.930116" lon="9.479193">
        <ele>267.309792</ele>
        <time>2022-07-23T12:26:30.000Z</time>
      </trkpt>
      <trkpt lat="48.930023" lon="9.479142">
        <ele>266.965066</ele>
        <time>2022-07-23T12:26:32.000Z</time>
      </trkpt>
      <trkpt lat="48.929929" lon="9.479051">
        <ele>266.576575</ele>
        <time>2022-07-23T12:26:34.000Z</time>
      </trkpt>
      <trkpt lat="48.929852" lon="9.478927">
        <ele>266.252113</ele>
        <time>2022-07-23T12:26:36.000Z</time>
      </trkpt>
      <trkpt lat="48.929801" lon="9.478765">
        <ele>266.411910</ele>
        <time>2022-07-23T12:26:38.000Z</time>
      </trkpt>
      <trkpt lat="48.929770" lon="9.478591">
        <ele>266.572282</ele>
        <time>2022-07-23T12:26:40.000Z</time>
      </trkpt>
      <trkpt lat="48.929776" lon="9.478408">
        <ele>266.735272</ele>
        <time>2022-07-23T12:26:42.000Z</time>
      </trkpt>
      <trkpt lat="48.929783" lon="9.478224">
        <ele>266.899223</ele>
        <time>2022-07-23T12:26:44.000Z</time>
      </trkpt>
      <trkpt lat="48.929758" lon="9.478050">
        <ele>267.057662</ele>
        <time>2022-07-23T12:26:46.000Z</time>
      </trkpt>
      <trkpt lat="48.929701" lon="9.477906">
        <ele>267.207211</ele>
        <time>2022-07-23T12:26:48.000Z</time>
      </trkpt>
      <trkpt lat="48.929606" lon="9.477789">
        <ele>267.372672</ele>
        <time>2022-07-23T12:26:50.000Z</time>
      </trkpt>
      <trkpt lat="48.929485" lon="9.477728">
        <ele>267.545257</ele>
        <time>2022-07-23T12:26:52.000Z</time>
      </trkpt>
      <trkpt lat="48.929346" lon="9.477730">
        <ele>267.733470</ele>
        <time>2022-07-23T12:26:54.000Z</time>
      </trkpt>
      <trkpt lat="48.929205" lon="9.477730">
        <ele>267.924382</ele>
        <time>2022-07-23T12:26:56.000Z</time>
      </trkpt>
      <trkpt lat="48.929071" lon="9.477718">
        <ele>268.106131</ele>
        <time>2022-07-23T12:26:58.000Z</time>
      </trkpt>
      <trkpt lat="48.928936" lon="9.477705">
        <ele>268.289284</ele>
        <time>2022-07-23T12:27:00.000Z</time>
      </trkpt>
      <trkpt lat="48.928801" lon="9.477695">
        <ele>268.472289</ele>
        <time>2022-07-23T12:27:02.000Z</time>
      </trkpt>
      <trkpt lat="48.928667" lon="9.477675">
        <ele>268.654594</ele>
        <time>2022-07-23T12:27:04.000Z</time>
      </trkpt>
      <trkpt lat="48.928531" lon="9.477665">
        <ele>269.002581</ele>
        <time>2022-07-23T12:27:06.000Z</time>
      </trkpt>
      <trkpt lat="48.928400" lon="9.477648">
        <ele>269.351861</ele>
        <time>2022-07-23T12:27:08.000Z</time>
      </trkpt>
      <trkpt lat="48.928265" lon="9.477631">
        <ele>269.711731</ele>
        <time>2022-07-23T12:27:10.000Z</time>
      </trkpt>
      <trkpt lat="48.928136" lon="9.477574">
        <ele>270.068584</ele>
        <time>2022-07-23T12:27:12.000Z</time>
      </trkpt>
      <trkpt lat="48.928014" lon="9.477493">
        <ele>270.422185</ele>
        <time>2022-07-23T12:27:14.000Z</time>
      </trkpt>
      <trkpt lat="48.927916" lon="9.477387">
        <ele>270.741578</ele>
        <time>2022-07-23T12:27:16.000Z</time>
      </trkpt>
      <trkpt lat="48.927833" lon="9.477259">
        <ele>271.055480</ele>
        <time>2022-07-23T12:27:18.000Z</time>
      </trkpt>
      <trkpt lat="48.927758" lon="9.477127">
        <ele>271.360080</ele>
        <time>2022-07-23T12:27:20.000Z</time>
      </trkpt>
      <trkpt lat="48.927698" lon="9.476990">
        <ele>271.647461</ele>
        <time>2022-07-23T12:27:22.000Z</time>
      </trkpt>
      <trkpt lat="48.927664" lon="9.476848">
        <ele>271.911258</ele>
        <time>2022-07-23T12:27:24.000Z</time>
      </trkpt>
      <trkpt lat="48.927635" lon="9.476714">
        <ele>272.157508</ele>
        <time>2022-07-23T12:27:26.001Z</time>
      </trkpt>
      <trkpt lat="48.927605" lon="9.476577">
        <ele>272.409564</ele>
        <time>2022-07-23T12:27:28.001Z</time>
      </trkpt>
      <trkpt lat="48.927579" lon="9.476440">
        <ele>272.658464</ele>
        <time>2022-07-23T12:27:30.001Z</time>
      </trkpt>
      <trkpt lat="48.927554" lon="9.476298">
        <ele>272.915060</ele>
        <time>2022-07-23T12:27:32.001Z</time>
      </trkpt>
      <trkpt lat="48.927527" lon="9.476160">
        <ele>273.166384</ele>
        <time>2022-07-23T12:27:34.001Z</time>
      </trkpt>
      <trkpt lat="48.927500" lon="9.476014">
        <ele>273.431120</ele>
        <time>2022-07-23T12:27:36.001Z</time>
      </trkpt>
      <trkpt lat="48.927467" lon="9.475865">
        <ele>273.665558</ele>
        <time>2022-07-23T12:27:38.001Z</time>
      </trkpt>
      <trkpt lat="48.927437" lon="9.475712">
        <ele>273.901093</ele>
        <time>2022-07-23T12:27:40.001Z</time>
      </trkpt>
      <trkpt lat="48.927403" lon="9.475553">
        <ele>274.147753</ele>
        <time>2022-07-23T12:27:42.001Z</time>
      </trkpt>
      <trkpt lat="48.927370" lon="9.475398">
        <ele>274.388107</ele>
        <time>2022-07-23T12:27:44.001Z</time>
      </trkpt>
      <trkpt lat="48.927340" lon="9.475243">
        <ele>274.626471</ele>
        <time>2022-07-23T12:27:46.001Z</time>
      </trkpt>
      <trkpt lat="48.927308" lon="9.475083">
        <ele>274.873190</ele>
        <time>2022-07-23T12:27:48.001Z</time>
      </trkpt>
      <trkpt lat="48.927272" lon="9.474919">
        <ele>275.128261</ele>
        <time>2022-07-23T12:27:50.001Z</time>
      </trkpt>
      <trkpt lat="48.927243" lon="9.474753">
        <ele>275.381646</ele>
        <time>2022-07-23T12:27:52.001Z</time>
      </trkpt>
      <trkpt lat="48.927212" lon="9.474592">
        <ele>275.629136</ele>
        <time>2022-07-23T12:27:54.001Z</time>
      </trkpt>
      <trkpt lat="48.927184" lon="9.474430">
        <ele>275.876243</ele>
        <time>2022-07-23T12:27:56.001Z</time>
      </trkpt>
      <trkpt lat="48.927159" lon="9.474271">
        <ele>276.117417</ele>
        <time>2022-07-23T12:27:58.001Z</time>
      </trkpt>
      <trkpt lat="48.927129" lon="9.474110">
        <ele>276.364285</ele>
        <time>2022-07-23T12:28:00.001Z</time>
      </trkpt>
      <trkpt lat="48.927109" lon="9.473945">
        <ele>276.611794</ele>
        <time>2022-07-23T12:28:02.001Z</time>
      </trkpt>
      <trkpt lat="48.927083" lon="9.473776">
        <ele>276.867841</ele>
        <time>2022-07-23T12:28:04.001Z</time>
      </trkpt>
      <trkpt lat="48.927063" lon="9.473592">
        <ele>277.142960</ele>
        <time>2022-07-23T12:28:06.001Z</time>
      </trkpt>
      <trkpt lat="48.927043" lon="9.473412">
        <ele>277.412261</ele>
        <time>2022-07-23T12:28:08.001Z</time>
      </trkpt>
      <trkpt lat="48.927024" lon="9.473213">
        <ele>277.683238</ele>
        <time>2022-07-23T12:28:10.000Z</time>
      </trkpt>
      <trkpt lat="48.927006" lon="9.473012">
        <ele>277.948100</ele>
        <time>2022-07-23T12:28:12.000Z</time>
      </trkpt>
      <trkpt lat="48.926995" lon="9.472807">
        <ele>278.216649</ele>
        <time>2022-07-23T12:28:14.000Z</time>
      </trkpt>
      <trkpt lat="48.926986" lon="9.472616">
        <ele>278.466669</ele>
        <time>2022-07-23T12:28:16.000Z</time>
      </trkpt>
      <trkpt lat="48.926979" lon="9.472437">
        <ele>278.700794</ele>
        <time>2022-07-23T12:28:18.000Z</time>
      </trkpt>
      <trkpt lat="48.926991" lon="9.472260">
        <ele>278.933121</ele>
        <time>2022-07-23T12:28:20.000Z</time>
      </trkpt>
      <trkpt lat="48.926990" lon="9.472083">
        <ele>279.164230</ele>
        <time>2022-07-23T12:28:22.000Z</time>
      </trkpt>
      <trkpt lat="48.926991" lon="9.471888">
        <ele>279.418839</ele>
        <time>2022-07-23T12:28:24.000Z</time>
      </trkpt>
      <trkpt lat="48.926993" lon="9.471705">
        <ele>279.657806</ele>
        <time>2022-07-23T12:28:26.000Z</time>
      </trkpt>
      <trkpt lat="48.926997" lon="9.471531">
        <ele>279.885128</ele>
        <time>2022-07-23T12:28:28.000Z</time>
      </trkpt>
      <trkpt lat="48.927003" lon="9.471349">
        <ele>280.123055</ele>
        <time>2022-07-23T12:28:30.000Z</time>
      </trkpt>
      <trkpt lat="48.927011" lon="9.471176">
        <ele>280.349491</ele>
        <time>2022-07-23T12:28:32.000Z</time>
      </trkpt>
      <trkpt lat="48.927002" lon="9.470995">
        <ele>280.586490</ele>
        <time>2022-07-23T12:28:34.000Z</time>
      </trkpt>
      <trkpt lat="48.927018" lon="9.470813">
        <ele>280.826236</ele>
        <time>2022-07-23T12:28:36.000Z</time>
      </trkpt>
      <trkpt lat="48.927027" lon="9.470634">
        <ele>281.060562</ele>
        <time>2022-07-23T12:28:38.000Z</time>
      </trkpt>
      <trkpt lat="48.927039" lon="9.470466">
        <ele>281.261055</ele>
        <time>2022-07-23T12:28:40.000Z</time>
      </trkpt>
      <trkpt lat="48.927044" lon="9.470303">
        <ele>281.454653</ele>
        <time>2022-07-23T12:28:42.000Z</time>
      </trkpt>
      <trkpt lat="48.927050" lon="9.470147">
        <ele>281.640051</ele>
        <time>2022-07-23T12:28:44.000Z</time>
      </trkpt>
      <trkpt lat="48.927059" lon="9.470001">
        <ele>281.814029</ele>
        <time>2022-07-23T12:28:46.000Z</time>
      </trkpt>
      <trkpt lat="48.927066" lon="9.469841">
        <ele>282.004276</ele>
        <time>2022-07-23T12:28:48.000Z</time>
      </trkpt>
      <trkpt lat="48.927077" lon="9.469681">
        <ele>282.195140</ele>
        <time>2022-07-23T12:28:50.000Z</time>
      </trkpt>
      <trkpt lat="48.927085" lon="9.469519">
        <ele>282.387882</ele>
        <time>2022-07-23T12:28:52.000Z</time>
      </trkpt>
      <trkpt lat="48.927092" lon="9.469362">
        <ele>282.574578</ele>
        <time>2022-07-23T12:28:54.000Z</time>
      </trkpt>
      <trkpt lat="48.927101" lon="9.469210">
        <ele>282.755645</ele>
        <time>2022-07-23T12:28:56.000Z</time>
      </trkpt>
      <trkpt lat="48.927109" lon="9.469057">
        <ele>282.937741</ele>
        <time>2022-07-23T12:28:58.000Z</time>
      </trkpt>
      <trkpt lat="48.927113" lon="9.468904">
        <ele>283.119406</ele>
        <time>2022-07-23T12:29:00.000Z</time>
      </trkpt>
      <trkpt lat="48.927122" lon="9.468733">
        <ele>283.322934</ele>
        <time>2022-07-23T12:29:02.000Z</time>
      </trkpt>
      <trkpt lat="48.927130" lon="9.468550">
        <ele>283.540528</ele>
        <time>2022-07-23T12:29:04.000Z</time>
      </trkpt>
      <trkpt lat="48.927173" lon="9.468396">
        <ele>283.739052</ele>
        <time>2022-07-23T12:29:06.000Z</time>
      </trkpt>
      <trkpt lat="48.927245" lon="9.468279">
        <ele>283.929242</ele>
        <time>2022-07-23T12:29:08.000Z</time>
      </trkpt>
      <trkpt lat="48.927260" lon="9.468123">
        <ele>284.116294</ele>
        <time>2022-07-23T12:29:10.000Z</time>
      </trkpt>
      <trkpt lat="48.927203" lon="9.467976">
        <ele>284.325871</ele>
        <time>2022-07-23T12:29:12.000Z</time>
      </trkpt>
      <trkpt lat="48.927170" lon="9.467821">
        <ele>284.643376</ele>
        <time>2022-07-23T12:29:14.000Z</time>
      </trkpt>
      <trkpt lat="48.927162" lon="9.467657">
        <ele>284.963836</ele>
        <time>2022-07-23T12:29:16.000Z</time>
      </trkpt>
      <trkpt lat="48.927158" lon="9.467487">
        <ele>285.295321</ele>
        <time>2022-07-23T12:29:18.000Z</time>
      </trkpt>
      <trkpt lat="48.927153" lon="9.467317">
        <ele>285.626926</ele>
        <time>2022-07-23T12:29:20.000Z</time>
      </trkpt>
      <trkpt lat="48.927152" lon="9.467144">
        <ele>285.964057</ele>
        <time>2022-07-23T12:29:22.000Z</time>
      </trkpt>
      <trkpt lat="48.927144" lon="9.466976">
        <ele>286.292291</ele>
        <time>2022-07-23T12:29:24.000Z</time>
      </trkpt>
      <trkpt lat="48.927132" lon="9.466810">
        <ele>286.617721</ele>
        <time>2022-07-23T12:29:26.000Z</time>
      </trkpt>
      <trkpt lat="48.927118" lon="9.466642">
        <ele>286.947720</ele>
        <time>2022-07-23T12:29:28.000Z</time>
      </trkpt>
      <trkpt lat="48.927105" lon="9.466478">
        <ele>287.269618</ele>
        <time>2022-07-23T12:29:30.000Z</time>
      </trkpt>
      <trkpt lat="48.927088" lon="9.466312">
        <ele>287.597002</ele>
        <time>2022-07-23T12:29:32.000Z</time>
      </trkpt>
      <trkpt lat="48.927070" lon="9.466149">
        <ele>287.919090</ele>
        <time>2022-07-23T12:29:34.000Z</time>
      </trkpt>
      <trkpt lat="48.927052" lon="9.465989">
        <ele>288.235414</ele>
        <time>2022-07-23T12:29:36.000Z</time>
      </trkpt>
      <trkpt lat="48.927032" lon="9.465829">
        <ele>288.552794</ele>
        <time>2022-07-23T12:29:38.000Z</time>
      </trkpt>
      <trkpt lat="48.927010" lon="9.465665">
        <ele>288.878968</ele>
        <time>2022-07-23T12:29:40.000Z</time>
      </trkpt>
      <trkpt lat="48.926988" lon="9.465505">
        <ele>289.197510</ele>
        <time>2022-07-23T12:29:42.001Z</time>
      </trkpt>
      <trkpt lat="48.926961" lon="9.465336">
        <ele>289.536431</ele>
        <time>2022-07-23T12:29:44.001Z</time>
      </trkpt>
      <trkpt lat="48.926937" lon="9.465170">
        <ele>289.930423</ele>
        <time>2022-07-23T12:29:46.001Z</time>
      </trkpt>
      <trkpt lat="48.926914" lon="9.465004">
        <ele>290.353162</ele>
        <time>2022-07-23T12:29:48.001Z</time>
      </trkpt>
      <trkpt lat="48.926890" lon="9.464848">
        <ele>290.752400</ele>
        <time>2022-07-23T12:29:50.001Z</time>
      </trkpt>
      <trkpt lat="48.926865" lon="9.464707">
        <ele>291.116315</ele>
        <time>2022-07-23T12:29:52.001Z</time>
      </trkpt>
      <trkpt lat="48.926836" lon="9.464502">
        <ele>291.638844</ele>
        <time>2022-07-23T12:29:55.001Z</time>
      </trkpt>
      <trkpt lat="48.926810" lon="9.464342">
        <ele>292.049549</ele>
        <time>2022-07-23T12:29:57.001Z</time>
      </trkpt>
      <trkpt lat="48.926786" lon="9.464175">
        <ele>292.475522</ele>
        <time>2022-07-23T12:29:59.001Z</time>
      </trkpt>
      <trkpt lat="48.926756" lon="9.463996">
        <ele>292.935841</ele>
        <time>2022-07-23T12:30:01.001Z</time>
      </trkpt>
      <trkpt lat="48.926729" lon="9.463815">
        <ele>293.398340</ele>
        <time>2022-07-23T12:30:03.001Z</time>
      </trkpt>
      <trkpt lat="48.926704" lon="9.463646">
        <ele>293.830001</ele>
        <time>2022-07-23T12:30:05.001Z</time>
      </trkpt>
      <trkpt lat="48.926680" lon="9.463491">
        <ele>294.226815</ele>
        <time>2022-07-23T12:30:07.001Z</time>
      </trkpt>
      <trkpt lat="48.926657" lon="9.463345">
        <ele>294.600933</ele>
        <time>2022-07-23T12:30:09.001Z</time>
      </trkpt>
      <trkpt lat="48.926634" lon="9.463198">
        <ele>294.977475</ele>
        <time>2022-07-23T12:30:11.001Z</time>
      </trkpt>
      <trkpt lat="48.926612" lon="9.463049">
        <ele>295.358018</ele>
        <time>2022-07-23T12:30:13.001Z</time>
      </trkpt>
      <trkpt lat="48.926591" lon="9.462892">
        <ele>295.757261</ele>
        <time>2022-07-23T12:30:14.999Z</time>
      </trkpt>
      <trkpt lat="48.926565" lon="9.462727">
        <ele>296.180072</ele>
        <time>2022-07-23T12:30:16.999Z</time>
      </trkpt>
      <trkpt lat="48.926538" lon="9.462561">
        <ele>296.504023</ele>
        <time>2022-07-23T12:30:18.999Z</time>
      </trkpt>
      <trkpt lat="48.926511" lon="9.462397">
        <ele>296.622667</ele>
        <time>2022-07-23T12:30:20.999Z</time>
      </trkpt>
      <trkpt lat="48.926485" lon="9.462236">
        <ele>296.739010</ele>
        <time>2022-07-23T12:30:22.999Z</time>
      </trkpt>
      <trkpt lat="48.926460" lon="9.462076">
        <ele>296.854420</ele>
        <time>2022-07-23T12:30:24.999Z</time>
      </trkpt>
      <trkpt lat="48.926437" lon="9.461916">
        <ele>296.969354</ele>
        <time>2022-07-23T12:30:27.000Z</time>
      </trkpt>
      <trkpt lat="48.926414" lon="9.461756">
        <ele>297.084289</ele>
        <time>2022-07-23T12:30:29.000Z</time>
      </trkpt>
      <trkpt lat="48.926391" lon="9.461594">
        <ele>297.200595</ele>
        <time>2022-07-23T12:30:31.000Z</time>
      </trkpt>
      <trkpt lat="48.926366" lon="9.461432">
        <ele>297.317372</ele>
        <time>2022-07-23T12:30:33.000Z</time>
      </trkpt>
      <trkpt lat="48.926342" lon="9.461274">
        <ele>297.431172</ele>
        <time>2022-07-23T12:30:35.000Z</time>
      </trkpt>
      <trkpt lat="48.926320" lon="9.461131">
        <ele>297.534235</ele>
        <time>2022-07-23T12:30:37.000Z</time>
      </trkpt>
      <trkpt lat="48.926293" lon="9.460977">
        <ele>297.646085</ele>
        <time>2022-07-23T12:30:39.000Z</time>
      </trkpt>
      <trkpt lat="48.926267" lon="9.460819">
        <ele>297.760386</ele>
        <time>2022-07-23T12:30:41.000Z</time>
      </trkpt>
      <trkpt lat="48.926239" lon="9.460658">
        <ele>297.877258</ele>
        <time>2022-07-23T12:30:43.000Z</time>
      </trkpt>
      <trkpt lat="48.926213" lon="9.460491">
        <ele>297.997694</ele>
        <time>2022-07-23T12:30:45.000Z</time>
      </trkpt>
      <trkpt lat="48.926187" lon="9.460322">
        <ele>298.119497</ele>
        <time>2022-07-23T12:30:47.000Z</time>
      </trkpt>
      <trkpt lat="48.926164" lon="9.460169">
        <ele>298.229639</ele>
        <time>2022-07-23T12:30:49.000Z</time>
      </trkpt>
      <trkpt lat="48.926142" lon="9.460033">
        <ele>298.327926</ele>
        <time>2022-07-23T12:30:51.000Z</time>
      </trkpt>
      <trkpt lat="48.926123" lon="9.459899">
        <ele>298.304531</ele>
        <time>2022-07-23T12:30:53.000Z</time>
      </trkpt>
      <trkpt lat="48.926090" lon="9.459714">
        <ele>298.027649</ele>
        <time>2022-07-23T12:30:56.000Z</time>
      </trkpt>
      <trkpt lat="48.926060" lon="9.459531">
        <ele>297.755224</ele>
        <time>2022-07-23T12:30:59.000Z</time>
      </trkpt>
      <trkpt lat="48.926027" lon="9.459352">
        <ele>297.486695</ele>
        <time>2022-07-23T12:31:02.000Z</time>
      </trkpt>
      <trkpt lat="48.926002" lon="9.459170">
        <ele>297.218134</ele>
        <time>2022-07-23T12:31:05.000Z</time>
      </trkpt>
      <trkpt lat="48.925983" lon="9.459036">
        <ele>297.020132</ele>
        <time>2022-07-23T12:31:07.000Z</time>
      </trkpt>
      <trkpt lat="48.925957" lon="9.458893">
        <ele>296.805822</ele>
        <time>2022-07-23T12:31:09.000Z</time>
      </trkpt>
      <trkpt lat="48.925940" lon="9.458740">
        <ele>296.581694</ele>
        <time>2022-07-23T12:31:11.000Z</time>
      </trkpt>
      <trkpt lat="48.925914" lon="9.458590">
        <ele>296.357624</ele>
        <time>2022-07-23T12:31:13.000Z</time>
      </trkpt>
      <trkpt lat="48.925885" lon="9.458436">
        <ele>296.126233</ele>
        <time>2022-07-23T12:31:15.000Z</time>
      </trkpt>
      <trkpt lat="48.925858" lon="9.458281">
        <ele>295.894619</ele>
        <time>2022-07-23T12:31:17.000Z</time>
      </trkpt>
      <trkpt lat="48.925829" lon="9.458119">
        <ele>295.652099</ele>
        <time>2022-07-23T12:31:19.000Z</time>
      </trkpt>
      <trkpt lat="48.925801" lon="9.457954">
        <ele>295.405955</ele>
        <time>2022-07-23T12:31:21.000Z</time>
      </trkpt>
      <trkpt lat="48.925770" lon="9.457792">
        <ele>295.162242</ele>
        <time>2022-07-23T12:31:23.000Z</time>
      </trkpt>
      <trkpt lat="48.925733" lon="9.457626">
        <ele>294.909053</ele>
        <time>2022-07-23T12:31:25.000Z</time>
      </trkpt>
      <trkpt lat="48.925700" lon="9.457469">
        <ele>294.670963</ele>
        <time>2022-07-23T12:31:27.000Z</time>
      </trkpt>
      <trkpt lat="48.925660" lon="9.457307">
        <ele>294.437494</ele>
        <time>2022-07-23T12:31:29.000Z</time>
      </trkpt>
      <trkpt lat="48.925613" lon="9.457143">
        <ele>294.605486</ele>
        <time>2022-07-23T12:31:31.000Z</time>
      </trkpt>
      <trkpt lat="48.925569" lon="9.456979">
        <ele>294.771810</ele>
        <time>2022-07-23T12:31:33.000Z</time>
      </trkpt>
      <trkpt lat="48.925521" lon="9.456817">
        <ele>294.938665</ele>
        <time>2022-07-23T12:31:35.000Z</time>
      </trkpt>
      <trkpt lat="48.925470" lon="9.456654">
        <ele>295.108174</ele>
        <time>2022-07-23T12:31:37.000Z</time>
      </trkpt>
      <trkpt lat="48.925419" lon="9.456496">
        <ele>295.273458</ele>
        <time>2022-07-23T12:31:39.000Z</time>
      </trkpt>
      <trkpt lat="48.925365" lon="9.456343">
        <ele>295.436526</ele>
        <time>2022-07-23T12:31:41.000Z</time>
      </trkpt>
      <trkpt lat="48.925311" lon="9.456190">
        <ele>295.599594</ele>
        <time>2022-07-23T12:31:43.000Z</time>
      </trkpt>
      <trkpt lat="48.925253" lon="9.456046">
        <ele>295.758180</ele>
        <time>2022-07-23T12:31:45.000Z</time>
      </trkpt>
      <trkpt lat="48.925195" lon="9.455900">
        <ele>295.918370</ele>
        <time>2022-07-23T12:31:47.000Z</time>
      </trkpt>
      <trkpt lat="48.925137" lon="9.455756">
        <ele>296.076957</ele>
        <time>2022-07-23T12:31:49.000Z</time>
      </trkpt>
      <trkpt lat="48.925078" lon="9.455613">
        <ele>296.235499</ele>
        <time>2022-07-23T12:31:51.000Z</time>
      </trkpt>
      <trkpt lat="48.925042" lon="9.455466">
        <ele>296.382796</ele>
        <time>2022-07-23T12:31:54.001Z</time>
      </trkpt>
      <trkpt lat="48.925053" lon="9.455327">
        <ele>296.514250</ele>
        <time>2022-07-23T12:32:00.001Z</time>
      </trkpt>
      <trkpt lat="48.925065" lon="9.455175">
        <ele>296.657992</ele>
        <time>2022-07-23T12:32:03.001Z</time>
      </trkpt>
      <trkpt lat="48.925052" lon="9.455031">
        <ele>296.794467</ele>
        <time>2022-07-23T12:32:05.001Z</time>
      </trkpt>
      <trkpt lat="48.924990" lon="9.454906">
        <ele>296.941519</ele>
        <time>2022-07-23T12:32:07.001Z</time>
      </trkpt>
      <trkpt lat="48.924881" lon="9.454844">
        <ele>297.154264</ele>
        <time>2022-07-23T12:32:09.001Z</time>
      </trkpt>
      <trkpt lat="48.924758" lon="9.454814">
        <ele>297.409902</ele>
        <time>2022-07-23T12:32:11.001Z</time>
      </trkpt>
      <trkpt lat="48.924641" lon="9.454727">
        <ele>297.677132</ele>
        <time>2022-07-23T12:32:13.001Z</time>
      </trkpt>
      <trkpt lat="48.924545" lon="9.454561">
        <ele>297.975315</ele>
        <time>2022-07-23T12:32:15.001Z</time>
      </trkpt>
      <trkpt lat="48.924455" lon="9.454381">
        <ele>298.280308</ele>
        <time>2022-07-23T12:32:17.001Z</time>
      </trkpt>
      <trkpt lat="48.924367" lon="9.454198">
        <ele>298.586088</ele>
        <time>2022-07-23T12:32:19.001Z</time>
      </trkpt>
      <trkpt lat="48.924276" lon="9.454013">
        <ele>298.897699</ele>
        <time>2022-07-23T12:32:21.000Z</time>
      </trkpt>
      <trkpt lat="48.924182" lon="9.453831">
        <ele>299.209849</ele>
        <time>2022-07-23T12:32:22.999Z</time>
      </trkpt>
      <trkpt lat="48.924095" lon="9.453652">
        <ele>299.510069</ele>
        <time>2022-07-23T12:32:24.999Z</time>
      </trkpt>
      <trkpt lat="48.924004" lon="9.453477">
        <ele>299.810996</ele>
        <time>2022-07-23T12:32:26.999Z</time>
      </trkpt>
      <trkpt lat="48.923918" lon="9.453303">
        <ele>300.104586</ele>
        <time>2022-07-23T12:32:28.999Z</time>
      </trkpt>
      <trkpt lat="48.923832" lon="9.453131">
        <ele>300.396026</ele>
        <time>2022-07-23T12:32:30.999Z</time>
      </trkpt>
      <trkpt lat="48.923750" lon="9.452957">
        <ele>300.684757</ele>
        <time>2022-07-23T12:32:32.999Z</time>
      </trkpt>
      <trkpt lat="48.923670" lon="9.452782">
        <ele>300.700082</ele>
        <time>2022-07-23T12:32:34.999Z</time>
      </trkpt>
      <trkpt lat="48.923588" lon="9.452608">
        <ele>300.708012</ele>
        <time>2022-07-23T12:32:36.999Z</time>
      </trkpt>
      <trkpt lat="48.923515" lon="9.452443">
        <ele>300.715378</ele>
        <time>2022-07-23T12:32:38.999Z</time>
      </trkpt>
      <trkpt lat="48.923445" lon="9.452279">
        <ele>300.722620</ele>
        <time>2022-07-23T12:32:41.000Z</time>
      </trkpt>
      <trkpt lat="48.923380" lon="9.452112">
        <ele>300.729809</ele>
        <time>2022-07-23T12:32:43.000Z</time>
      </trkpt>
      <trkpt lat="48.923316" lon="9.451948">
        <ele>300.736872</ele>
        <time>2022-07-23T12:32:45.000Z</time>
      </trkpt>
      <trkpt lat="48.923255" lon="9.451779">
        <ele>300.744013</ele>
        <time>2022-07-23T12:32:47.000Z</time>
      </trkpt>
      <trkpt lat="48.923201" lon="9.451603">
        <ele>300.751206</ele>
        <time>2022-07-23T12:32:49.000Z</time>
      </trkpt>
      <trkpt lat="48.923152" lon="9.451425">
        <ele>300.758353</ele>
        <time>2022-07-23T12:32:51.000Z</time>
      </trkpt>
      <trkpt lat="48.923102" lon="9.451248">
        <ele>300.765488</ele>
        <time>2022-07-23T12:32:53.000Z</time>
      </trkpt>
      <trkpt lat="48.923058" lon="9.451072">
        <ele>300.772462</ele>
        <time>2022-07-23T12:32:55.000Z</time>
      </trkpt>
      <trkpt lat="48.923017" lon="9.450897">
        <ele>300.779343</ele>
        <time>2022-07-23T12:32:57.000Z</time>
      </trkpt>
      <trkpt lat="48.922979" lon="9.450721">
        <ele>300.786203</ele>
        <time>2022-07-23T12:32:59.000Z</time>
      </trkpt>
      <trkpt lat="48.922945" lon="9.450545">
        <ele>300.792997</ele>
        <time>2022-07-23T12:33:01.000Z</time>
      </trkpt>
      <trkpt lat="48.922914" lon="9.450364">
        <ele>300.749233</ele>
        <time>2022-07-23T12:33:03.000Z</time>
      </trkpt>
      <trkpt lat="48.922882" lon="9.450182">
        <ele>300.698739</ele>
        <time>2022-07-23T12:33:05.000Z</time>
      </trkpt>
      <trkpt lat="48.922854" lon="9.449999">
        <ele>300.648380</ele>
        <time>2022-07-23T12:33:07.000Z</time>
      </trkpt>
      <trkpt lat="48.922824" lon="9.449815">
        <ele>300.597570</ele>
        <time>2022-07-23T12:33:09.000Z</time>
      </trkpt>
      <trkpt lat="48.922794" lon="9.449627">
        <ele>300.545719</ele>
        <time>2022-07-23T12:33:11.000Z</time>
      </trkpt>
      <trkpt lat="48.922769" lon="9.449436">
        <ele>300.493523</ele>
        <time>2022-07-23T12:33:13.000Z</time>
      </trkpt>
      <trkpt lat="48.922744" lon="9.449247">
        <ele>300.441852</ele>
        <time>2022-07-23T12:33:15.000Z</time>
      </trkpt>
      <trkpt lat="48.922721" lon="9.449064">
        <ele>300.391916</ele>
        <time>2022-07-23T12:33:17.000Z</time>
      </trkpt>
      <trkpt lat="48.922696" lon="9.448881">
        <ele>300.341821</ele>
        <time>2022-07-23T12:33:19.000Z</time>
      </trkpt>
      <trkpt lat="48.922673" lon="9.448700">
        <ele>300.292412</ele>
        <time>2022-07-23T12:33:21.000Z</time>
      </trkpt>
      <trkpt lat="48.922651" lon="9.448517">
        <ele>300.242551</ele>
        <time>2022-07-23T12:33:23.000Z</time>
      </trkpt>
      <trkpt lat="48.922626" lon="9.448341">
        <ele>300.194291</ele>
        <time>2022-07-23T12:33:25.000Z</time>
      </trkpt>
      <trkpt lat="48.922603" lon="9.448171">
        <ele>300.147772</ele>
        <time>2022-07-23T12:33:27.000Z</time>
      </trkpt>
      <trkpt lat="48.922581" lon="9.447996">
        <ele>300.100019</ele>
        <time>2022-07-23T12:33:29.000Z</time>
      </trkpt>
      <trkpt lat="48.922561" lon="9.447818">
        <ele>300.021016</ele>
        <time>2022-07-23T12:33:31.000Z</time>
      </trkpt>
      <trkpt lat="48.922540" lon="9.447641">
        <ele>299.799328</ele>
        <time>2022-07-23T12:33:33.000Z</time>
      </trkpt>
      <trkpt lat="48.922519" lon="9.447464">
        <ele>299.577639</ele>
        <time>2022-07-23T12:33:35.000Z</time>
      </trkpt>
      <trkpt lat="48.922498" lon="9.447290">
        <ele>299.359589</ele>
        <time>2022-07-23T12:33:37.000Z</time>
      </trkpt>
      <trkpt lat="48.922475" lon="9.447116">
        <ele>299.140829</ele>
        <time>2022-07-23T12:33:39.000Z</time>
      </trkpt>
      <trkpt lat="48.922454" lon="9.446941">
        <ele>298.921566</ele>
        <time>2022-07-23T12:33:41.000Z</time>
      </trkpt>
      <trkpt lat="48.922427" lon="9.446775">
        <ele>298.710787</ele>
        <time>2022-07-23T12:33:43.000Z</time>
      </trkpt>
      <trkpt lat="48.922416" lon="9.446610">
        <ele>298.506373</ele>
        <time>2022-07-23T12:33:45.000Z</time>
      </trkpt>
      <trkpt lat="48.922473" lon="9.446451">
        <ele>298.283128</ele>
        <time>2022-07-23T12:33:47.000Z</time>
      </trkpt>
      <trkpt lat="48.922525" lon="9.446309">
        <ele>298.082761</ele>
        <time>2022-07-23T12:33:49.000Z</time>
      </trkpt>
      <trkpt lat="48.922463" lon="9.446163">
        <ele>297.868499</ele>
        <time>2022-07-23T12:33:51.000Z</time>
      </trkpt>
      <trkpt lat="48.922364" lon="9.446076">
        <ele>297.654059</ele>
        <time>2022-07-23T12:33:53.000Z</time>
      </trkpt>
      <trkpt lat="48.922290" lon="9.445969">
        <ele>297.462588</ele>
        <time>2022-07-23T12:33:55.000Z</time>
      </trkpt>
      <trkpt lat="48.922239" lon="9.445841">
        <ele>297.278083</ele>
        <time>2022-07-23T12:33:57.000Z</time>
      </trkpt>
      <trkpt lat="48.922203" lon="9.445710">
        <ele>297.103066</ele>
        <time>2022-07-23T12:33:59.000Z</time>
      </trkpt>
      <trkpt lat="48.922166" lon="9.445584">
        <ele>296.932961</ele>
        <time>2022-07-23T12:34:01.000Z</time>
      </trkpt>
      <trkpt lat="48.922112" lon="9.445405">
        <ele>296.690192</ele>
        <time>2022-07-23T12:34:04.001Z</time>
      </trkpt>
      <trkpt lat="48.922060" lon="9.445216">
        <ele>296.357259</ele>
        <time>2022-07-23T12:34:07.001Z</time>
      </trkpt>
      <trkpt lat="48.922033" lon="9.445074">
        <ele>296.116139</ele>
        <time>2022-07-23T12:34:09.001Z</time>
      </trkpt>
      <trkpt lat="48.921987" lon="9.444937">
        <ele>295.865193</ele>
        <time>2022-07-23T12:34:11.001Z</time>
      </trkpt>
      <trkpt lat="48.921945" lon="9.444789">
        <ele>295.602237</ele>
        <time>2022-07-23T12:34:13.001Z</time>
      </trkpt>
      <trkpt lat="48.921905" lon="9.444655">
        <ele>295.362171</ele>
        <time>2022-07-23T12:34:15.001Z</time>
      </trkpt>
      <trkpt lat="48.921853" lon="9.444464">
        <ele>295.024946</ele>
        <time>2022-07-23T12:34:18.001Z</time>
      </trkpt>
      <trkpt lat="48.921825" lon="9.444325">
        <ele>294.787807</ele>
        <time>2022-07-23T12:34:20.001Z</time>
      </trkpt>
      <trkpt lat="48.921789" lon="9.444189">
        <ele>294.548651</ele>
        <time>2022-07-23T12:34:22.001Z</time>
      </trkpt>
      <trkpt lat="48.921746" lon="9.444054">
        <ele>294.303943</ele>
        <time>2022-07-23T12:34:24.001Z</time>
      </trkpt>
      <trkpt lat="48.921678" lon="9.443936">
        <ele>294.047939</ele>
        <time>2022-07-23T12:34:26.001Z</time>
      </trkpt>
      <trkpt lat="48.921603" lon="9.443840">
        <ele>293.804667</ele>
        <time>2022-07-23T12:34:27.998Z</time>
      </trkpt>
      <trkpt lat="48.921514" lon="9.443771">
        <ele>293.556723</ele>
        <time>2022-07-23T12:34:29.998Z</time>
      </trkpt>
      <trkpt lat="48.921432" lon="9.443691">
        <ele>293.314936</ele>
        <time>2022-07-23T12:34:31.998Z</time>
      </trkpt>
      <trkpt lat="48.921344" lon="9.443615">
        <ele>293.063767</ele>
        <time>2022-07-23T12:34:33.998Z</time>
      </trkpt>
      <trkpt lat="48.921258" lon="9.443541">
        <ele>292.818525</ele>
        <time>2022-07-23T12:34:35.998Z</time>
      </trkpt>
      <trkpt lat="48.921168" lon="9.443465">
        <ele>292.563026</ele>
        <time>2022-07-23T12:34:37.998Z</time>
      </trkpt>
      <trkpt lat="48.921069" lon="9.443379">
        <ele>292.280057</ele>
        <time>2022-07-23T12:34:39.998Z</time>
      </trkpt>
      <trkpt lat="48.920969" lon="9.443293">
        <ele>292.174708</ele>
        <time>2022-07-23T12:34:41.998Z</time>
      </trkpt>
      <trkpt lat="48.920867" lon="9.443212">
        <ele>292.115830</ele>
        <time>2022-07-23T12:34:43.998Z</time>
      </trkpt>
      <trkpt lat="48.920777" lon="9.443111">
        <ele>292.058604</ele>
        <time>2022-07-23T12:34:45.999Z</time>
      </trkpt>
      <trkpt lat="48.920672" lon="9.443055">
        <ele>292.001666</ele>
        <time>2022-07-23T12:34:47.999Z</time>
      </trkpt>
      <trkpt lat="48.920586" lon="9.442957">
        <ele>291.946684</ele>
        <time>2022-07-23T12:34:49.999Z</time>
      </trkpt>
      <trkpt lat="48.920492" lon="9.442879">
        <ele>291.891893</ele>
        <time>2022-07-23T12:34:51.999Z</time>
      </trkpt>
      <trkpt lat="48.920383" lon="9.442861">
        <ele>291.835785</ele>
        <time>2022-07-23T12:34:53.999Z</time>
      </trkpt>
      <trkpt lat="48.920275" lon="9.442884">
        <ele>291.779977</ele>
        <time>2022-07-23T12:34:55.999Z</time>
      </trkpt>
      <trkpt lat="48.920178" lon="9.442945">
        <ele>291.726266</ele>
        <time>2022-07-23T12:34:57.999Z</time>
      </trkpt>
      <trkpt lat="48.920081" lon="9.443005">
        <ele>291.672682</ele>
        <time>2022-07-23T12:34:59.999Z</time>
      </trkpt>
      <trkpt lat="48.919977" lon="9.443065">
        <ele>291.615764</ele>
        <time>2022-07-23T12:35:01.999Z</time>
      </trkpt>
      <trkpt lat="48.919873" lon="9.443119">
        <ele>291.559529</ele>
        <time>2022-07-23T12:35:03.999Z</time>
      </trkpt>
      <trkpt lat="48.919770" lon="9.443150">
        <ele>291.505797</ele>
        <time>2022-07-23T12:35:05.999Z</time>
      </trkpt>
      <trkpt lat="48.919663" lon="9.443184">
        <ele>291.449859</ele>
        <time>2022-07-23T12:35:07.999Z</time>
      </trkpt>
      <trkpt lat="48.919554" lon="9.443185">
        <ele>291.394077</ele>
        <time>2022-07-23T12:35:09.999Z</time>
      </trkpt>
      <trkpt lat="48.919448" lon="9.443136">
        <ele>291.337384</ele>
        <time>2022-07-23T12:35:11.999Z</time>
      </trkpt>
      <trkpt lat="48.919349" lon="9.443071">
        <ele>291.386469</ele>
        <time>2022-07-23T12:35:13.999Z</time>
      </trkpt>
      <trkpt lat="48.919267" lon="9.442980">
        <ele>291.623637</ele>
        <time>2022-07-23T12:35:16.000Z</time>
      </trkpt>
      <trkpt lat="48.919182" lon="9.442901">
        <ele>291.856390</ele>
        <time>2022-07-23T12:35:18.000Z</time>
      </trkpt>
      <trkpt lat="48.919106" lon="9.442794">
        <ele>292.098346</ele>
        <time>2022-07-23T12:35:20.000Z</time>
      </trkpt>
      <trkpt lat="48.919033" lon="9.442685">
        <ele>292.337344</ele>
        <time>2022-07-23T12:35:22.000Z</time>
      </trkpt>
      <trkpt lat="48.918945" lon="9.442583">
        <ele>292.595851</ele>
        <time>2022-07-23T12:35:24.000Z</time>
      </trkpt>
      <trkpt lat="48.918848" lon="9.442504">
        <ele>292.852953</ele>
        <time>2022-07-23T12:35:26.000Z</time>
      </trkpt>
      <trkpt lat="48.918739" lon="9.442471">
        <ele>293.112668</ele>
        <time>2022-07-23T12:35:28.000Z</time>
      </trkpt>
      <trkpt lat="48.918631" lon="9.442479">
        <ele>293.365353</ele>
        <time>2022-07-23T12:35:30.000Z</time>
      </trkpt>
      <trkpt lat="48.918527" lon="9.442509">
        <ele>293.612720</ele>
        <time>2022-07-23T12:35:32.000Z</time>
      </trkpt>
      <trkpt lat="48.918422" lon="9.442539">
        <ele>293.862383</ele>
        <time>2022-07-23T12:35:34.000Z</time>
      </trkpt>
      <trkpt lat="48.918310" lon="9.442571">
        <ele>294.128690</ele>
        <time>2022-07-23T12:35:36.000Z</time>
      </trkpt>
      <trkpt lat="48.918193" lon="9.442599">
        <ele>294.405469</ele>
        <time>2022-07-23T12:35:38.000Z</time>
      </trkpt>
      <trkpt lat="48.918076" lon="9.442605">
        <ele>294.679042</ele>
        <time>2022-07-23T12:35:40.000Z</time>
      </trkpt>
      <trkpt lat="48.917959" lon="9.442587">
        <ele>294.953855</ele>
        <time>2022-07-23T12:35:42.000Z</time>
      </trkpt>
      <trkpt lat="48.917853" lon="9.442533">
        <ele>295.215079</ele>
        <time>2022-07-23T12:35:44.000Z</time>
      </trkpt>
      <trkpt lat="48.917760" lon="9.442448">
        <ele>295.468599</ele>
        <time>2022-07-23T12:35:46.000Z</time>
      </trkpt>
      <trkpt lat="48.917684" lon="9.442339">
        <ele>295.539018</ele>
        <time>2022-07-23T12:35:48.000Z</time>
      </trkpt>
      <trkpt lat="48.917612" lon="9.442220">
        <ele>295.580506</ele>
        <time>2022-07-23T12:35:50.000Z</time>
      </trkpt>
      <trkpt lat="48.917543" lon="9.442095">
        <ele>295.622376</ele>
        <time>2022-07-23T12:35:52.000Z</time>
      </trkpt>
      <trkpt lat="48.917485" lon="9.441948">
        <ele>295.666353</ele>
        <time>2022-07-23T12:35:54.000Z</time>
      </trkpt>
      <trkpt lat="48.917432" lon="9.441788">
        <ele>295.712309</ele>
        <time>2022-07-23T12:35:56.000Z</time>
      </trkpt>
      <trkpt lat="48.917390" lon="9.441634">
        <ele>295.755074</ele>
        <time>2022-07-23T12:35:58.000Z</time>
      </trkpt>
      <trkpt lat="48.917348" lon="9.441478">
        <ele>295.798313</ele>
        <time>2022-07-23T12:36:00.000Z</time>
      </trkpt>
      <trkpt lat="48.917309" lon="9.441320">
        <ele>295.841602</ele>
        <time>2022-07-23T12:36:02.000Z</time>
      </trkpt>
      <trkpt lat="48.917272" lon="9.441164">
        <ele>295.884140</ele>
        <time>2022-07-23T12:36:04.000Z</time>
      </trkpt>
      <trkpt lat="48.917239" lon="9.441006">
        <ele>295.926662</ele>
        <time>2022-07-23T12:36:06.000Z</time>
      </trkpt>
      <trkpt lat="48.917198" lon="9.440846">
        <ele>295.970709</ele>
        <time>2022-07-23T12:36:08.000Z</time>
      </trkpt>
      <trkpt lat="48.917161" lon="9.440688">
        <ele>296.013730</ele>
        <time>2022-07-23T12:36:10.001Z</time>
      </trkpt>
      <trkpt lat="48.917129" lon="9.440524">
        <ele>296.057608</ele>
        <time>2022-07-23T12:36:12.001Z</time>
      </trkpt>
      <trkpt lat="48.917097" lon="9.440357">
        <ele>296.102225</ele>
        <time>2022-07-23T12:36:14.001Z</time>
      </trkpt>
      <trkpt lat="48.917060" lon="9.440190">
        <ele>296.147427</ele>
        <time>2022-07-23T12:36:16.001Z</time>
      </trkpt>
      <trkpt lat="48.917022" lon="9.440014">
        <ele>296.194942</ele>
        <time>2022-07-23T12:36:18.001Z</time>
      </trkpt>
      <trkpt lat="48.916985" lon="9.439848">
        <ele>295.946636</ele>
        <time>2022-07-23T12:36:20.001Z</time>
      </trkpt>
      <trkpt lat="48.916958" lon="9.439665">
        <ele>295.575989</ele>
        <time>2022-07-23T12:36:22.001Z</time>
      </trkpt>
      <trkpt lat="48.916931" lon="9.439505">
        <ele>295.249539</ele>
        <time>2022-07-23T12:36:24.001Z</time>
      </trkpt>
      <trkpt lat="48.916904" lon="9.439336">
        <ele>294.905832</ele>
        <time>2022-07-23T12:36:26.001Z</time>
      </trkpt>
      <trkpt lat="48.916882" lon="9.439189">
        <ele>294.607893</ele>
        <time>2022-07-23T12:36:28.001Z</time>
      </trkpt>
      <trkpt lat="48.916860" lon="9.439009">
        <ele>294.246076</ele>
        <time>2022-07-23T12:36:30.001Z</time>
      </trkpt>
      <trkpt lat="48.916836" lon="9.438842">
        <ele>293.908250</ele>
        <time>2022-07-23T12:36:32.001Z</time>
      </trkpt>
      <trkpt lat="48.916821" lon="9.438673">
        <ele>293.571239</ele>
        <time>2022-07-23T12:36:33.999Z</time>
      </trkpt>
      <trkpt lat="48.916804" lon="9.438503">
        <ele>293.231417</ele>
        <time>2022-07-23T12:36:35.999Z</time>
      </trkpt>
      <trkpt lat="48.916791" lon="9.438336">
        <ele>292.899083</ele>
        <time>2022-07-23T12:36:37.999Z</time>
      </trkpt>
      <trkpt lat="48.916778" lon="9.438165">
        <ele>292.558898</ele>
        <time>2022-07-23T12:36:39.999Z</time>
      </trkpt>
      <trkpt lat="48.916796" lon="9.438010">
        <ele>292.247840</ele>
        <time>2022-07-23T12:36:41.999Z</time>
      </trkpt>
      <trkpt lat="48.916824" lon="9.437864">
        <ele>291.947279</ele>
        <time>2022-07-23T12:36:43.999Z</time>
      </trkpt>
      <trkpt lat="48.916784" lon="9.437711">
        <ele>291.621870</ele>
        <time>2022-07-23T12:36:45.999Z</time>
      </trkpt>
      <trkpt lat="48.916723" lon="9.437563">
        <ele>291.276625</ele>
        <time>2022-07-23T12:36:47.999Z</time>
      </trkpt>
      <trkpt lat="48.916684" lon="9.437399">
        <ele>290.931959</ele>
        <time>2022-07-23T12:36:49.999Z</time>
      </trkpt>
      <trkpt lat="48.916658" lon="9.437223">
        <ele>290.757459</ele>
        <time>2022-07-23T12:36:51.999Z</time>
      </trkpt>
      <trkpt lat="48.916635" lon="9.437049">
        <ele>290.694466</ele>
        <time>2022-07-23T12:36:53.999Z</time>
      </trkpt>
      <trkpt lat="48.916616" lon="9.436883">
        <ele>290.634661</ele>
        <time>2022-07-23T12:36:55.999Z</time>
      </trkpt>
      <trkpt lat="48.916589" lon="9.436719">
        <ele>290.574654</ele>
        <time>2022-07-23T12:36:57.999Z</time>
      </trkpt>
      <trkpt lat="48.916566" lon="9.436556">
        <ele>290.515483</ele>
        <time>2022-07-23T12:36:59.999Z</time>
      </trkpt>
      <trkpt lat="48.916544" lon="9.436400">
        <ele>290.458854</ele>
        <time>2022-07-23T12:37:02.000Z</time>
      </trkpt>
      <trkpt lat="48.916523" lon="9.436241">
        <ele>290.401292</ele>
        <time>2022-07-23T12:37:04.000Z</time>
      </trkpt>
      <trkpt lat="48.916494" lon="9.436081">
        <ele>290.342384</ele>
        <time>2022-07-23T12:37:06.000Z</time>
      </trkpt>
      <trkpt lat="48.916472" lon="9.435917">
        <ele>290.282975</ele>
        <time>2022-07-23T12:37:08.000Z</time>
      </trkpt>
      <trkpt lat="48.916459" lon="9.435780">
        <ele>290.233846</ele>
        <time>2022-07-23T12:37:10.000Z</time>
      </trkpt>
      <trkpt lat="48.916425" lon="9.435582">
        <ele>290.161211</ele>
        <time>2022-07-23T12:37:13.000Z</time>
      </trkpt>
      <trkpt lat="48.916419" lon="9.435424">
        <ele>290.105039</ele>
        <time>2022-07-23T12:37:15.000Z</time>
      </trkpt>
      <trkpt lat="48.916439" lon="9.435254">
        <ele>290.043742</ele>
        <time>2022-07-23T12:37:17.000Z</time>
      </trkpt>
      <trkpt lat="48.916462" lon="9.435080">
        <ele>289.980748</ele>
        <time>2022-07-23T12:37:19.000Z</time>
      </trkpt>
      <trkpt lat="48.916501" lon="9.434906">
        <ele>289.915497</ele>
        <time>2022-07-23T12:37:21.000Z</time>
      </trkpt>
      <trkpt lat="48.916539" lon="9.434730">
        <ele>289.849745</ele>
        <time>2022-07-23T12:37:23.000Z</time>
      </trkpt>
      <trkpt lat="48.916558" lon="9.434550">
        <ele>289.593235</ele>
        <time>2022-07-23T12:37:25.000Z</time>
      </trkpt>
      <trkpt lat="48.916571" lon="9.434364">
        <ele>289.214954</ele>
        <time>2022-07-23T12:37:27.000Z</time>
      </trkpt>
      <trkpt lat="48.916572" lon="9.434182">
        <ele>288.846870</ele>
        <time>2022-07-23T12:37:29.000Z</time>
      </trkpt>
      <trkpt lat="48.916566" lon="9.434010">
        <ele>288.498534</ele>
        <time>2022-07-23T12:37:31.000Z</time>
      </trkpt>
      <trkpt lat="48.916565" lon="9.433848">
        <ele>288.170897</ele>
        <time>2022-07-23T12:37:33.000Z</time>
      </trkpt>
      <trkpt lat="48.916556" lon="9.433674">
        <ele>287.817917</ele>
        <time>2022-07-23T12:37:35.000Z</time>
      </trkpt>
      <trkpt lat="48.916544" lon="9.433500">
        <ele>287.464093</ele>
        <time>2022-07-23T12:37:37.000Z</time>
      </trkpt>
      <trkpt lat="48.916531" lon="9.433320">
        <ele>287.097875</ele>
        <time>2022-07-23T12:37:39.000Z</time>
      </trkpt>
      <trkpt lat="48.916521" lon="9.433144">
        <ele>286.740611</ele>
        <time>2022-07-23T12:37:41.000Z</time>
      </trkpt>
      <trkpt lat="48.916505" lon="9.432967">
        <ele>286.379281</ele>
        <time>2022-07-23T12:37:43.000Z</time>
      </trkpt>
      <trkpt lat="48.916484" lon="9.432793">
        <ele>286.021504</ele>
        <time>2022-07-23T12:37:45.000Z</time>
      </trkpt>
      <trkpt lat="48.916453" lon="9.432630">
        <ele>285.678331</ele>
        <time>2022-07-23T12:37:47.000Z</time>
      </trkpt>
      <trkpt lat="48.916380" lon="9.432480">
        <ele>285.300848</ele>
        <time>2022-07-23T12:37:49.000Z</time>
      </trkpt>
      <trkpt lat="48.916289" lon="9.432366">
        <ele>284.938108</ele>
        <time>2022-07-23T12:37:51.000Z</time>
      </trkpt>
      <trkpt lat="48.916185" lon="9.432276">
        <ele>284.569918</ele>
        <time>2022-07-23T12:37:53.001Z</time>
      </trkpt>
      <trkpt lat="48.916073" lon="9.432224">
        <ele>284.295524</ele>
        <time>2022-07-23T12:37:55.001Z</time>
      </trkpt>
      <trkpt lat="48.915973" lon="9.432174">
        <ele>284.315015</ele>
        <time>2022-07-23T12:37:57.001Z</time>
      </trkpt>
      <trkpt lat="48.915881" lon="9.432082">
        <ele>284.335400</ele>
        <time>2022-07-23T12:37:59.001Z</time>
      </trkpt>
      <trkpt lat="48.915807" lon="9.431958">
        <ele>284.355783</ele>
        <time>2022-07-23T12:38:01.001Z</time>
      </trkpt>
      <trkpt lat="48.915736" lon="9.431837">
        <ele>284.375522</ele>
        <time>2022-07-23T12:38:03.001Z</time>
      </trkpt>
      <trkpt lat="48.915664" lon="9.431705">
        <ele>284.396398</ele>
        <time>2022-07-23T12:38:05.001Z</time>
      </trkpt>
      <trkpt lat="48.915590" lon="9.431571">
        <ele>284.417697</ele>
        <time>2022-07-23T12:38:07.001Z</time>
      </trkpt>
      <trkpt lat="48.915516" lon="9.431440">
        <ele>284.438718</ele>
        <time>2022-07-23T12:38:09.001Z</time>
      </trkpt>
      <trkpt lat="48.915447" lon="9.431308">
        <ele>284.459243</ele>
        <time>2022-07-23T12:38:11.001Z</time>
      </trkpt>
      <trkpt lat="48.915385" lon="9.431173">
        <ele>284.479285</ele>
        <time>2022-07-23T12:38:13.001Z</time>
      </trkpt>
      <trkpt lat="48.915357" lon="9.431023">
        <ele>284.498261</ele>
        <time>2022-07-23T12:38:15.001Z</time>
      </trkpt>
      <trkpt lat="48.915357" lon="9.430872">
        <ele>284.516636</ele>
        <time>2022-07-23T12:38:17.001Z</time>
      </trkpt>
      <trkpt lat="48.915369" lon="9.430720">
        <ele>284.535266</ele>
        <time>2022-07-23T12:38:19.001Z</time>
      </trkpt>
      <trkpt lat="48.915387" lon="9.430575">
        <ele>284.553223</ele>
        <time>2022-07-23T12:38:21.001Z</time>
      </trkpt>
      <trkpt lat="48.915417" lon="9.430403">
        <ele>284.574878</ele>
        <time>2022-07-23T12:38:24.001Z</time>
      </trkpt>
      <trkpt lat="48.915433" lon="9.430250">
        <ele>284.593731</ele>
        <time>2022-07-23T12:38:28.001Z</time>
      </trkpt>
      <trkpt lat="48.915500" lon="9.429956">
        <ele>284.678700</ele>
        <time>2022-07-23T12:38:52.000Z</time>
      </trkpt>
      <trkpt lat="48.915561" lon="9.429813">
        <ele>284.823219</ele>
        <time>2022-07-23T12:38:56.000Z</time>
      </trkpt>
      <trkpt lat="48.915578" lon="9.429666">
        <ele>284.949745</ele>
        <time>2022-07-23T12:38:59.000Z</time>
      </trkpt>
      <trkpt lat="48.915581" lon="9.429507">
        <ele>285.084585</ele>
        <time>2022-07-23T12:39:02.000Z</time>
      </trkpt>
      <trkpt lat="48.915598" lon="9.429364">
        <ele>285.207773</ele>
        <time>2022-07-23T12:39:04.000Z</time>
      </trkpt>
      <trkpt lat="48.915623" lon="9.429227">
        <ele>285.328301</ele>
        <time>2022-07-23T12:39:06.000Z</time>
      </trkpt>
      <trkpt lat="48.915649" lon="9.429091">
        <ele>285.448367</ele>
        <time>2022-07-23T12:39:08.000Z</time>
      </trkpt>
      <trkpt lat="48.915675" lon="9.428949">
        <ele>285.573325</ele>
        <time>2022-07-23T12:39:10.000Z</time>
      </trkpt>
      <trkpt lat="48.915702" lon="9.428799">
        <ele>285.705162</ele>
        <time>2022-07-23T12:39:12.000Z</time>
      </trkpt>
      <trkpt lat="48.915723" lon="9.428657">
        <ele>285.828545</ele>
        <time>2022-07-23T12:39:14.000Z</time>
      </trkpt>
      <trkpt lat="48.915758" lon="9.428455">
        <ele>286.005631</ele>
        <time>2022-07-23T12:39:17.000Z</time>
      </trkpt>
      <trkpt lat="48.915790" lon="9.428321">
        <ele>286.126489</ele>
        <time>2022-07-23T12:39:19.000Z</time>
      </trkpt>
      <trkpt lat="48.915748" lon="9.428136">
        <ele>286.292407</ele>
        <time>2022-07-23T12:39:22.000Z</time>
      </trkpt>
      <trkpt lat="48.915635" lon="9.428057">
        <ele>286.452816</ele>
        <time>2022-07-23T12:39:25.000Z</time>
      </trkpt>
      <trkpt lat="48.915549" lon="9.427990">
        <ele>286.577443</ele>
        <time>2022-07-23T12:39:27.000Z</time>
      </trkpt>
      <trkpt lat="48.915421" lon="9.427872">
        <ele>286.770489</ele>
        <time>2022-07-23T12:39:30.000Z</time>
      </trkpt>
      <trkpt lat="48.915346" lon="9.427760">
        <ele>286.906038</ele>
        <time>2022-07-23T12:39:32.000Z</time>
      </trkpt>
      <trkpt lat="48.915295" lon="9.427611">
        <ele>287.255163</ele>
        <time>2022-07-23T12:39:34.000Z</time>
      </trkpt>
      <trkpt lat="48.915264" lon="9.427446">
        <ele>287.688010</ele>
        <time>2022-07-23T12:39:36.000Z</time>
      </trkpt>
      <trkpt lat="48.915273" lon="9.427274">
        <ele>288.123211</ele>
        <time>2022-07-23T12:39:38.000Z</time>
      </trkpt>
      <trkpt lat="48.915311" lon="9.427108">
        <ele>288.566581</ele>
        <time>2022-07-23T12:39:40.000Z</time>
      </trkpt>
      <trkpt lat="48.915365" lon="9.426948">
        <ele>289.020250</ele>
        <time>2022-07-23T12:39:42.000Z</time>
      </trkpt>
      <trkpt lat="48.915423" lon="9.426789">
        <ele>289.478928</ele>
        <time>2022-07-23T12:39:44.001Z</time>
      </trkpt>
      <trkpt lat="48.915470" lon="9.426625">
        <ele>289.930199</ele>
        <time>2022-07-23T12:39:46.001Z</time>
      </trkpt>
      <trkpt lat="48.915528" lon="9.426452">
        <ele>290.420050</ele>
        <time>2022-07-23T12:39:48.001Z</time>
      </trkpt>
      <trkpt lat="48.915580" lon="9.426278">
        <ele>290.902169</ele>
        <time>2022-07-23T12:39:50.001Z</time>
      </trkpt>
      <trkpt lat="48.915622" lon="9.426110">
        <ele>291.355532</ele>
        <time>2022-07-23T12:39:52.001Z</time>
      </trkpt>
      <trkpt lat="48.915669" lon="9.425943">
        <ele>291.813747</ele>
        <time>2022-07-23T12:39:54.001Z</time>
      </trkpt>
      <trkpt lat="48.915716" lon="9.425775">
        <ele>292.274282</ele>
        <time>2022-07-23T12:39:56.001Z</time>
      </trkpt>
      <trkpt lat="48.915766" lon="9.425609">
        <ele>292.734856</ele>
        <time>2022-07-23T12:39:58.001Z</time>
      </trkpt>
      <trkpt lat="48.915807" lon="9.425443">
        <ele>293.182141</ele>
        <time>2022-07-23T12:40:00.001Z</time>
      </trkpt>
      <trkpt lat="48.915858" lon="9.425277">
        <ele>293.644327</ele>
        <time>2022-07-23T12:40:02.001Z</time>
      </trkpt>
      <trkpt lat="48.915906" lon="9.425112">
        <ele>294.203960</ele>
        <time>2022-07-23T12:40:04.001Z</time>
      </trkpt>
      <trkpt lat="48.915952" lon="9.424949">
        <ele>294.836670</ele>
        <time>2022-07-23T12:40:06.001Z</time>
      </trkpt>
      <trkpt lat="48.916004" lon="9.424782">
        <ele>295.495786</ele>
        <time>2022-07-23T12:40:08.001Z</time>
      </trkpt>
      <trkpt lat="48.916065" lon="9.424627">
        <ele>296.140174</ele>
        <time>2022-07-23T12:40:10.001Z</time>
      </trkpt>
      <trkpt lat="48.916155" lon="9.424526">
        <ele>296.747106</ele>
        <time>2022-07-23T12:40:12.001Z</time>
      </trkpt>
      <trkpt lat="48.916268" lon="9.424471">
        <ele>297.391010</ele>
        <time>2022-07-23T12:40:14.001Z</time>
      </trkpt>
      <trkpt lat="48.916380" lon="9.424436">
        <ele>298.011563</ele>
        <time>2022-07-23T12:40:16.001Z</time>
      </trkpt>
      <trkpt lat="48.916491" lon="9.424427">
        <ele>298.614857</ele>
        <time>2022-07-23T12:40:18.001Z</time>
      </trkpt>
      <trkpt lat="48.916597" lon="9.424430">
        <ele>299.190260</ele>
        <time>2022-07-23T12:40:20.001Z</time>
      </trkpt>
      <trkpt lat="48.916688" lon="9.424443">
        <ele>299.686324</ele>
        <time>2022-07-23T12:40:22.001Z</time>
      </trkpt>
      <trkpt lat="48.916786" lon="9.424487">
        <ele>300.240876</ele>
        <time>2022-07-23T12:40:24.001Z</time>
      </trkpt>
      <trkpt lat="48.916899" lon="9.424527">
        <ele>300.870545</ele>
        <time>2022-07-23T12:40:26.001Z</time>
      </trkpt>
      <trkpt lat="48.917017" lon="9.424567">
        <ele>301.526675</ele>
        <time>2022-07-23T12:40:28.001Z</time>
      </trkpt>
      <trkpt lat="48.917137" lon="9.424604">
        <ele>302.191196</ele>
        <time>2022-07-23T12:40:30.001Z</time>
      </trkpt>
      <trkpt lat="48.917239" lon="9.424614">
        <ele>302.745937</ele>
        <time>2022-07-23T12:40:32.001Z</time>
      </trkpt>
      <trkpt lat="48.917319" lon="9.424534">
        <ele>303.265489</ele>
        <time>2022-07-23T12:40:34.001Z</time>
      </trkpt>
      <trkpt lat="48.917348" lon="9.424403">
        <ele>303.548659</ele>
        <time>2022-07-23T12:40:36.001Z</time>
      </trkpt>
      <trkpt lat="48.917359" lon="9.424203">
        <ele>303.259758</ele>
        <time>2022-07-23T12:40:39.001Z</time>
      </trkpt>
      <trkpt lat="48.917371" lon="9.424060">
        <ele>303.052241</ele>
        <time>2022-07-23T12:40:41.002Z</time>
      </trkpt>
      <trkpt lat="48.917382" lon="9.423886">
        <ele>302.800616</ele>
        <time>2022-07-23T12:40:44.002Z</time>
      </trkpt>
      <trkpt lat="48.917307" lon="9.423765">
        <ele>302.561184</ele>
        <time>2022-07-23T12:40:47.000Z</time>
      </trkpt>
      <trkpt lat="48.917192" lon="9.423797">
        <ele>302.305101</ele>
        <time>2022-07-23T12:40:50.000Z</time>
      </trkpt>
      <trkpt lat="48.917053" lon="9.423834">
        <ele>301.995999</ele>
        <time>2022-07-23T12:40:53.000Z</time>
      </trkpt>
      <trkpt lat="48.916943" lon="9.423857">
        <ele>301.752781</ele>
        <time>2022-07-23T12:40:55.000Z</time>
      </trkpt>
      <trkpt lat="48.916811" lon="9.423862">
        <ele>301.463547</ele>
        <time>2022-07-23T12:40:57.000Z</time>
      </trkpt>
      <trkpt lat="48.916701" lon="9.423871">
        <ele>301.222245</ele>
        <time>2022-07-23T12:40:59.000Z</time>
      </trkpt>
      <trkpt lat="48.916587" lon="9.423866">
        <ele>300.972425</ele>
        <time>2022-07-23T12:41:01.000Z</time>
      </trkpt>
      <trkpt lat="48.916466" lon="9.423858">
        <ele>300.707125</ele>
        <time>2022-07-23T12:41:03.000Z</time>
      </trkpt>
      <trkpt lat="48.916343" lon="9.423859">
        <ele>300.437691</ele>
        <time>2022-07-23T12:41:05.000Z</time>
      </trkpt>
      <trkpt lat="48.916221" lon="9.423864">
        <ele>300.170354</ele>
        <time>2022-07-23T12:41:07.000Z</time>
      </trkpt>
      <trkpt lat="48.916103" lon="9.423853">
        <ele>299.911391</ele>
        <time>2022-07-23T12:41:09.000Z</time>
      </trkpt>
      <trkpt lat="48.915984" lon="9.423854">
        <ele>299.639903</ele>
        <time>2022-07-23T12:41:11.000Z</time>
      </trkpt>
      <trkpt lat="48.915864" lon="9.423829">
        <ele>299.218369</ele>
        <time>2022-07-23T12:41:13.000Z</time>
      </trkpt>
      <trkpt lat="48.915756" lon="9.423744">
        <ele>298.795196</ele>
        <time>2022-07-23T12:41:15.000Z</time>
      </trkpt>
      <trkpt lat="48.915677" lon="9.423616">
        <ele>298.393574</ele>
        <time>2022-07-23T12:41:17.000Z</time>
      </trkpt>
      <trkpt lat="48.915614" lon="9.423480">
        <ele>298.013010</ele>
        <time>2022-07-23T12:41:19.000Z</time>
      </trkpt>
      <trkpt lat="48.915548" lon="9.423338">
        <ele>297.615213</ele>
        <time>2022-07-23T12:41:21.000Z</time>
      </trkpt>
      <trkpt lat="48.915478" lon="9.423187">
        <ele>297.192571</ele>
        <time>2022-07-23T12:41:23.000Z</time>
      </trkpt>
      <trkpt lat="48.915409" lon="9.423027">
        <ele>296.754867</ele>
        <time>2022-07-23T12:41:25.000Z</time>
      </trkpt>
      <trkpt lat="48.915341" lon="9.422867">
        <ele>296.319062</ele>
        <time>2022-07-23T12:41:27.000Z</time>
      </trkpt>
      <trkpt lat="48.915286" lon="9.422716">
        <ele>295.924200</ele>
        <time>2022-07-23T12:41:29.000Z</time>
      </trkpt>
      <trkpt lat="48.915246" lon="9.422570">
        <ele>295.562416</ele>
        <time>2022-07-23T12:41:31.000Z</time>
      </trkpt>
      <trkpt lat="48.915203" lon="9.422436">
        <ele>295.221349</ele>
        <time>2022-07-23T12:41:33.000Z</time>
      </trkpt>
      <trkpt lat="48.915164" lon="9.422298">
        <ele>294.877771</ele>
        <time>2022-07-23T12:41:35.000Z</time>
      </trkpt>
      <trkpt lat="48.915119" lon="9.422151">
        <ele>294.506868</ele>
        <time>2022-07-23T12:41:37.000Z</time>
      </trkpt>
      <trkpt lat="48.915064" lon="9.421987">
        <ele>294.085752</ele>
        <time>2022-07-23T12:41:39.000Z</time>
      </trkpt>
      <trkpt lat="48.915012" lon="9.421811">
        <ele>293.644397</ele>
        <time>2022-07-23T12:41:41.000Z</time>
      </trkpt>
      <trkpt lat="48.914959" lon="9.421640">
        <ele>293.419689</ele>
        <time>2022-07-23T12:41:43.000Z</time>
      </trkpt>
      <trkpt lat="48.914908" lon="9.421468">
        <ele>293.442538</ele>
        <time>2022-07-23T12:41:45.000Z</time>
      </trkpt>
      <trkpt lat="48.914863" lon="9.421297">
        <ele>293.464843</ele>
        <time>2022-07-23T12:41:47.001Z</time>
      </trkpt>
      <trkpt lat="48.914823" lon="9.421119">
        <ele>293.487622</ele>
        <time>2022-07-23T12:41:49.001Z</time>
      </trkpt>
      <trkpt lat="48.914786" lon="9.420944">
        <ele>293.509883</ele>
        <time>2022-07-23T12:41:51.001Z</time>
      </trkpt>
      <trkpt lat="48.914756" lon="9.420772">
        <ele>293.531431</ele>
        <time>2022-07-23T12:41:53.001Z</time>
      </trkpt>
      <trkpt lat="48.914731" lon="9.420595">
        <ele>293.553353</ele>
        <time>2022-07-23T12:41:55.001Z</time>
      </trkpt>
      <trkpt lat="48.914706" lon="9.420420">
        <ele>293.575039</ele>
        <time>2022-07-23T12:41:57.001Z</time>
      </trkpt>
      <trkpt lat="48.914679" lon="9.420245">
        <ele>293.596806</ele>
        <time>2022-07-23T12:41:59.001Z</time>
      </trkpt>
      <trkpt lat="48.914653" lon="9.420070">
        <ele>293.618531</ele>
        <time>2022-07-23T12:42:01.001Z</time>
      </trkpt>
      <trkpt lat="48.914630" lon="9.419901">
        <ele>293.639430</ele>
        <time>2022-07-23T12:42:03.001Z</time>
      </trkpt>
      <trkpt lat="48.914604" lon="9.419723">
        <ele>293.661510</ele>
        <time>2022-07-23T12:42:05.001Z</time>
      </trkpt>
      <trkpt lat="48.914576" lon="9.419550">
        <ele>293.683084</ele>
        <time>2022-07-23T12:42:07.001Z</time>
      </trkpt>
      <trkpt lat="48.914547" lon="9.419390">
        <ele>293.703182</ele>
        <time>2022-07-23T12:42:09.001Z</time>
      </trkpt>
      <trkpt lat="48.914520" lon="9.419252">
        <ele>293.720617</ele>
        <time>2022-07-23T12:42:11.001Z</time>
      </trkpt>
      <trkpt lat="48.914452" lon="9.419148">
        <ele>293.738382</ele>
        <time>2022-07-23T12:42:13.001Z</time>
      </trkpt>
      <trkpt lat="48.914349" lon="9.419098">
        <ele>294.222326</ele>
        <time>2022-07-23T12:42:15.001Z</time>
      </trkpt>
      <trkpt lat="48.914236" lon="9.419061">
        <ele>294.803657</ele>
        <time>2022-07-23T12:42:17.001Z</time>
      </trkpt>
      <trkpt lat="48.914121" lon="9.419026">
        <ele>295.393494</ele>
        <time>2022-07-23T12:42:19.001Z</time>
      </trkpt>
      <trkpt lat="48.914005" lon="9.419004">
        <ele>295.981418</ele>
        <time>2022-07-23T12:42:21.001Z</time>
      </trkpt>
      <trkpt lat="48.913896" lon="9.418969">
        <ele>296.541695</ele>
        <time>2022-07-23T12:42:23.001Z</time>
      </trkpt>
      <trkpt lat="48.913777" lon="9.418953">
        <ele>297.142525</ele>
        <time>2022-07-23T12:42:25.001Z</time>
      </trkpt>
      <trkpt lat="48.913665" lon="9.418940">
        <ele>297.707454</ele>
        <time>2022-07-23T12:42:27.001Z</time>
      </trkpt>
      <trkpt lat="48.913544" lon="9.418933">
        <ele>298.316451</ele>
        <time>2022-07-23T12:42:29.001Z</time>
      </trkpt>
      <trkpt lat="48.913423" lon="9.418921">
        <ele>298.926299</ele>
        <time>2022-07-23T12:42:31.001Z</time>
      </trkpt>
      <trkpt lat="48.913304" lon="9.418913">
        <ele>299.525381</ele>
        <time>2022-07-23T12:42:33.001Z</time>
      </trkpt>
      <trkpt lat="48.913201" lon="9.418905">
        <ele>300.044083</ele>
        <time>2022-07-23T12:42:35.001Z</time>
      </trkpt>
      <trkpt lat="48.913098" lon="9.418898">
        <ele>300.562628</ele>
        <time>2022-07-23T12:42:37.001Z</time>
      </trkpt>
      <trkpt lat="48.912997" lon="9.418893">
        <ele>301.070865</ele>
        <time>2022-07-23T12:42:39.001Z</time>
      </trkpt>
      <trkpt lat="48.912892" lon="9.418882">
        <ele>301.600202</ele>
        <time>2022-07-23T12:42:41.001Z</time>
      </trkpt>
      <trkpt lat="48.912789" lon="9.418874">
        <ele>302.118904</ele>
        <time>2022-07-23T12:42:43.001Z</time>
      </trkpt>
      <trkpt lat="48.912685" lon="9.418858">
        <ele>302.644629</ele>
        <time>2022-07-23T12:42:45.001Z</time>
      </trkpt>
      <trkpt lat="48.912576" lon="9.418856">
        <ele>302.699686</ele>
        <time>2022-07-23T12:42:47.001Z</time>
      </trkpt>
      <trkpt lat="48.912463" lon="9.418859">
        <ele>302.577838</ele>
        <time>2022-07-23T12:42:49.001Z</time>
      </trkpt>
      <trkpt lat="48.912344" lon="9.418850">
        <ele>302.449381</ele>
        <time>2022-07-23T12:42:51.000Z</time>
      </trkpt>
      <trkpt lat="48.912216" lon="9.418846">
        <ele>302.311351</ele>
        <time>2022-07-23T12:42:53.000Z</time>
      </trkpt>
      <trkpt lat="48.912095" lon="9.418847">
        <ele>302.180894</ele>
        <time>2022-07-23T12:42:55.000Z</time>
      </trkpt>
      <trkpt lat="48.911979" lon="9.418850">
        <ele>302.055813</ele>
        <time>2022-07-23T12:42:57.000Z</time>
      </trkpt>
      <trkpt lat="48.911874" lon="9.418847">
        <ele>301.942588</ele>
        <time>2022-07-23T12:42:59.000Z</time>
      </trkpt>
      <trkpt lat="48.911777" lon="9.418848">
        <ele>301.838007</ele>
        <time>2022-07-23T12:43:01.000Z</time>
      </trkpt>
      <trkpt lat="48.911676" lon="9.418850">
        <ele>301.729106</ele>
        <time>2022-07-23T12:43:03.000Z</time>
      </trkpt>
      <trkpt lat="48.911580" lon="9.418850">
        <ele>301.625605</ele>
        <time>2022-07-23T12:43:05.000Z</time>
      </trkpt>
      <trkpt lat="48.911484" lon="9.418852">
        <ele>301.522094</ele>
        <time>2022-07-23T12:43:07.000Z</time>
      </trkpt>
      <trkpt lat="48.911390" lon="9.418856">
        <ele>301.420709</ele>
        <time>2022-07-23T12:43:09.000Z</time>
      </trkpt>
      <trkpt lat="48.911298" lon="9.418859">
        <ele>301.321498</ele>
        <time>2022-07-23T12:43:11.000Z</time>
      </trkpt>
      <trkpt lat="48.911198" lon="9.418859">
        <ele>301.213684</ele>
        <time>2022-07-23T12:43:13.000Z</time>
      </trkpt>
      <trkpt lat="48.911098" lon="9.418854">
        <ele>301.105813</ele>
        <time>2022-07-23T12:43:15.000Z</time>
      </trkpt>
      <trkpt lat="48.910995" lon="9.418856">
        <ele>300.994756</ele>
        <time>2022-07-23T12:43:17.000Z</time>
      </trkpt>
      <trkpt lat="48.910898" lon="9.418871">
        <ele>300.889638</ele>
        <time>2022-07-23T12:43:19.000Z</time>
      </trkpt>
      <trkpt lat="48.910798" lon="9.418898">
        <ele>300.956410</ele>
        <time>2022-07-23T12:43:21.000Z</time>
      </trkpt>
      <trkpt lat="48.910690" lon="9.418933">
        <ele>301.148599</ele>
        <time>2022-07-23T12:43:23.000Z</time>
      </trkpt>
      <trkpt lat="48.910580" lon="9.418960">
        <ele>301.342529</ele>
        <time>2022-07-23T12:43:25.000Z</time>
      </trkpt>
      <trkpt lat="48.910465" lon="9.418989">
        <ele>301.545416</ele>
        <time>2022-07-23T12:43:27.000Z</time>
      </trkpt>
      <trkpt lat="48.910352" lon="9.419023">
        <ele>301.745901</ele>
        <time>2022-07-23T12:43:29.000Z</time>
      </trkpt>
      <trkpt lat="48.910239" lon="9.419045">
        <ele>301.944180</ele>
        <time>2022-07-23T12:43:31.000Z</time>
      </trkpt>
      <trkpt lat="48.910134" lon="9.419059">
        <ele>302.127632</ele>
        <time>2022-07-23T12:43:33.000Z</time>
      </trkpt>
      <trkpt lat="48.910037" lon="9.419060">
        <ele>302.296464</ele>
        <time>2022-07-23T12:43:35.000Z</time>
      </trkpt>
      <trkpt lat="48.909909" lon="9.419054">
        <ele>302.519353</ele>
        <time>2022-07-23T12:43:38.000Z</time>
      </trkpt>
      <trkpt lat="48.909804" lon="9.419040">
        <ele>302.702805</ele>
        <time>2022-07-23T12:43:41.000Z</time>
      </trkpt>
      <trkpt lat="48.909708" lon="9.419040">
        <ele>302.869893</ele>
        <time>2022-07-23T12:43:45.000Z</time>
      </trkpt>
      <trkpt lat="48.909604" lon="9.419043">
        <ele>303.050937</ele>
        <time>2022-07-23T12:43:48.000Z</time>
      </trkpt>
      <trkpt lat="48.909479" lon="9.419032">
        <ele>303.268862</ele>
        <time>2022-07-23T12:43:51.000Z</time>
      </trkpt>
      <trkpt lat="48.909389" lon="9.419024">
        <ele>303.425773</ele>
        <time>2022-07-23T12:43:53.000Z</time>
      </trkpt>
      <trkpt lat="48.909297" lon="9.419012">
        <ele>303.586486</ele>
        <time>2022-07-23T12:43:55.000Z</time>
      </trkpt>
      <trkpt lat="48.909200" lon="9.419017">
        <ele>303.755411</ele>
        <time>2022-07-23T12:43:57.001Z</time>
      </trkpt>
      <trkpt lat="48.909107" lon="9.419014">
        <ele>303.917313</ele>
        <time>2022-07-23T12:43:59.001Z</time>
      </trkpt>
      <trkpt lat="48.908978" lon="9.419004">
        <ele>304.642490</ele>
        <time>2022-07-23T12:44:02.001Z</time>
      </trkpt>
      <trkpt lat="48.908864" lon="9.418999">
        <ele>305.446469</ele>
        <time>2022-07-23T12:44:05.001Z</time>
      </trkpt>
      <trkpt lat="48.908762" lon="9.418993">
        <ele>306.166056</ele>
        <time>2022-07-23T12:44:09.001Z</time>
      </trkpt>
      <trkpt lat="48.908662" lon="9.418983">
        <ele>306.872529</ele>
        <time>2022-07-23T12:44:12.001Z</time>
      </trkpt>
      <trkpt lat="48.908546" lon="9.418974">
        <ele>307.691335</ele>
        <time>2022-07-23T12:44:15.001Z</time>
      </trkpt>
      <trkpt lat="48.908421" lon="9.418968">
        <ele>308.572963</ele>
        <time>2022-07-23T12:44:18.001Z</time>
      </trkpt>
      <trkpt lat="48.908293" lon="9.418962">
        <ele>309.475729</ele>
        <time>2022-07-23T12:44:21.001Z</time>
      </trkpt>
      <trkpt lat="48.908165" lon="9.418955">
        <ele>310.378649</ele>
        <time>2022-07-23T12:44:24.001Z</time>
      </trkpt>
      <trkpt lat="48.908038" lon="9.418936">
        <ele>311.278255</ele>
        <time>2022-07-23T12:44:27.001Z</time>
      </trkpt>
      <trkpt lat="48.907910" lon="9.418934">
        <ele>312.180641</ele>
        <time>2022-07-23T12:44:30.001Z</time>
      </trkpt>
      <trkpt lat="48.907779" lon="9.418925">
        <ele>313.105068</ele>
        <time>2022-07-23T12:44:33.001Z</time>
      </trkpt>
      <trkpt lat="48.907645" lon="9.418910">
        <ele>314.052256</ele>
        <time>2022-07-23T12:44:36.001Z</time>
      </trkpt>
      <trkpt lat="48.907516" lon="9.418896">
        <ele>314.963954</ele>
        <time>2022-07-23T12:44:39.001Z</time>
      </trkpt>
      <trkpt lat="48.907430" lon="9.418849">
        <ele>315.608139</ele>
        <time>2022-07-23T12:44:41.001Z</time>
      </trkpt>
      <trkpt lat="48.907315" lon="9.418748">
        <ele>316.544212</ele>
        <time>2022-07-23T12:44:44.001Z</time>
      </trkpt>
      <trkpt lat="48.907208" lon="9.418649">
        <ele>316.717349</ele>
        <time>2022-07-23T12:44:46.001Z</time>
      </trkpt>
      <trkpt lat="48.907095" lon="9.418542">
        <ele>316.790152</ele>
        <time>2022-07-23T12:44:48.001Z</time>
      </trkpt>
      <trkpt lat="48.906978" lon="9.418417">
        <ele>316.868353</ele>
        <time>2022-07-23T12:44:50.001Z</time>
      </trkpt>
      <trkpt lat="48.906853" lon="9.418291">
        <ele>316.950371</ele>
        <time>2022-07-23T12:44:52.001Z</time>
      </trkpt>
      <trkpt lat="48.906725" lon="9.418163">
        <ele>317.034155</ele>
        <time>2022-07-23T12:44:54.001Z</time>
      </trkpt>
      <trkpt lat="48.906591" lon="9.418020">
        <ele>317.123684</ele>
        <time>2022-07-23T12:44:56.001Z</time>
      </trkpt>
      <trkpt lat="48.906464" lon="9.417890">
        <ele>317.207411</ele>
        <time>2022-07-23T12:44:58.000Z</time>
      </trkpt>
      <trkpt lat="48.906335" lon="9.417760">
        <ele>317.292048</ele>
        <time>2022-07-23T12:45:00.000Z</time>
      </trkpt>
      <trkpt lat="48.906220" lon="9.417643">
        <ele>317.367720</ele>
        <time>2022-07-23T12:45:02.000Z</time>
      </trkpt>
      <trkpt lat="48.906117" lon="9.417529">
        <ele>317.437391</ele>
        <time>2022-07-23T12:45:04.000Z</time>
      </trkpt>
      <trkpt lat="48.906027" lon="9.417414">
        <ele>317.501679</ele>
        <time>2022-07-23T12:45:06.000Z</time>
      </trkpt>
      <trkpt lat="48.905948" lon="9.417293">
        <ele>317.562996</ele>
        <time>2022-07-23T12:45:08.000Z</time>
      </trkpt>
      <trkpt lat="48.905869" lon="9.417178">
        <ele>317.622802</ele>
        <time>2022-07-23T12:45:10.000Z</time>
      </trkpt>
      <trkpt lat="48.905784" lon="9.417086">
        <ele>317.347435</ele>
        <time>2022-07-23T12:45:12.000Z</time>
      </trkpt>
      <trkpt lat="48.905700" lon="9.417011">
        <ele>316.939262</ele>
        <time>2022-07-23T12:45:14.000Z</time>
      </trkpt>
      <trkpt lat="48.905612" lon="9.416971">
        <ele>316.554364</ele>
        <time>2022-07-23T12:45:16.000Z</time>
      </trkpt>
      <trkpt lat="48.905495" lon="9.416863">
        <ele>315.980846</ele>
        <time>2022-07-23T12:45:19.000Z</time>
      </trkpt>
      <trkpt lat="48.905413" lon="9.416782">
        <ele>315.571119</ele>
        <time>2022-07-23T12:45:21.000Z</time>
      </trkpt>
      <trkpt lat="48.905328" lon="9.416709">
        <ele>315.162062</ele>
        <time>2022-07-23T12:45:23.000Z</time>
      </trkpt>
      <trkpt lat="48.905243" lon="9.416623">
        <ele>314.734263</ele>
        <time>2022-07-23T12:45:25.000Z</time>
      </trkpt>
      <trkpt lat="48.905181" lon="9.416497">
        <ele>314.300698</ele>
        <time>2022-07-23T12:45:27.000Z</time>
      </trkpt>
      <trkpt lat="48.905133" lon="9.416350">
        <ele>313.848553</ele>
        <time>2022-07-23T12:45:29.000Z</time>
      </trkpt>
      <trkpt lat="48.905112" lon="9.416191">
        <ele>313.401810</ele>
        <time>2022-07-23T12:45:31.000Z</time>
      </trkpt>
      <trkpt lat="48.905120" lon="9.416041">
        <ele>312.987256</ele>
        <time>2022-07-23T12:45:33.000Z</time>
      </trkpt>
      <trkpt lat="48.905054" lon="9.415883">
        <ele>312.471570</ele>
        <time>2022-07-23T12:45:36.000Z</time>
      </trkpt>
      <trkpt lat="48.904939" lon="9.415829">
        <ele>311.967194</ele>
        <time>2022-07-23T12:45:39.000Z</time>
      </trkpt>
      <trkpt lat="48.904813" lon="9.415758">
        <ele>311.404097</ele>
        <time>2022-07-23T12:45:42.000Z</time>
      </trkpt>
      <trkpt lat="48.904728" lon="9.415700">
        <ele>311.013690</ele>
        <time>2022-07-23T12:45:44.000Z</time>
      </trkpt>
      <trkpt lat="48.904637" lon="9.415638">
        <ele>310.595831</ele>
        <time>2022-07-23T12:45:46.000Z</time>
      </trkpt>
      <trkpt lat="48.904540" lon="9.415582">
        <ele>310.161038</ele>
        <time>2022-07-23T12:45:48.000Z</time>
      </trkpt>
      <trkpt lat="48.904440" lon="9.415518">
        <ele>309.963437</ele>
        <time>2022-07-23T12:45:50.000Z</time>
      </trkpt>
      <trkpt lat="48.904340" lon="9.415452">
        <ele>309.802143</ele>
        <time>2022-07-23T12:45:52.000Z</time>
      </trkpt>
      <trkpt lat="48.904239" lon="9.415390">
        <ele>309.640985</ele>
        <time>2022-07-23T12:45:54.000Z</time>
      </trkpt>
      <trkpt lat="48.904139" lon="9.415325">
        <ele>309.480075</ele>
        <time>2022-07-23T12:45:56.000Z</time>
      </trkpt>
      <trkpt lat="48.904037" lon="9.415262">
        <ele>309.317181</ele>
        <time>2022-07-23T12:45:58.000Z</time>
      </trkpt>
      <trkpt lat="48.903936" lon="9.415200">
        <ele>309.156024</ele>
        <time>2022-07-23T12:46:00.000Z</time>
      </trkpt>
      <trkpt lat="48.903838" lon="9.415136">
        <ele>308.998217</ele>
        <time>2022-07-23T12:46:02.000Z</time>
      </trkpt>
      <trkpt lat="48.903742" lon="9.415080">
        <ele>308.846081</ele>
        <time>2022-07-23T12:46:04.000Z</time>
      </trkpt>
      <trkpt lat="48.903652" lon="9.415024">
        <ele>308.702200</ele>
        <time>2022-07-23T12:46:06.000Z</time>
      </trkpt>
      <trkpt lat="48.903560" lon="9.414959">
        <ele>308.552103</ele>
        <time>2022-07-23T12:46:08.000Z</time>
      </trkpt>
      <trkpt lat="48.903461" lon="9.414893">
        <ele>308.392164</ele>
        <time>2022-07-23T12:46:10.000Z</time>
      </trkpt>
      <trkpt lat="48.903374" lon="9.414845">
        <ele>308.255226</ele>
        <time>2022-07-23T12:46:12.000Z</time>
      </trkpt>
      <trkpt lat="48.903281" lon="9.414786">
        <ele>308.106128</ele>
        <time>2022-07-23T12:46:14.000Z</time>
      </trkpt>
      <trkpt lat="48.903187" lon="9.414734">
        <ele>307.958125</ele>
        <time>2022-07-23T12:46:16.000Z</time>
      </trkpt>
      <trkpt lat="48.903100" lon="9.414687">
        <ele>307.821516</ele>
        <time>2022-07-23T12:46:18.000Z</time>
      </trkpt>
      <trkpt lat="48.903066" lon="9.414506">
        <ele>307.638417</ele>
        <time>2022-07-23T12:46:21.001Z</time>
      </trkpt>
      <trkpt lat="48.903086" lon="9.414338">
        <ele>307.472352</ele>
        <time>2022-07-23T12:46:24.001Z</time>
      </trkpt>
      <trkpt lat="48.903092" lon="9.414181">
        <ele>307.376156</ele>
        <time>2022-07-23T12:46:27.001Z</time>
      </trkpt>
      <trkpt lat="48.903107" lon="9.414022">
        <ele>307.292089</ele>
        <time>2022-07-23T12:46:30.001Z</time>
      </trkpt>
      <trkpt lat="48.903115" lon="9.413849">
        <ele>307.201324</ele>
        <time>2022-07-23T12:46:33.001Z</time>
      </trkpt>
      <trkpt lat="48.903114" lon="9.413676">
        <ele>307.110779</ele>
        <time>2022-07-23T12:46:36.001Z</time>
      </trkpt>
      <trkpt lat="48.903124" lon="9.413495">
        <ele>307.015716</ele>
        <time>2022-07-23T12:46:39.001Z</time>
      </trkpt>
      <trkpt lat="48.903127" lon="9.413315">
        <ele>306.921481</ele>
        <time>2022-07-23T12:46:42.001Z</time>
      </trkpt>
      <trkpt lat="48.903135" lon="9.413109">
        <ele>306.813481</ele>
        <time>2022-07-23T12:46:45.001Z</time>
      </trkpt>
      <trkpt lat="48.903150" lon="9.412964">
        <ele>306.736659</ele>
        <time>2022-07-23T12:46:47.001Z</time>
      </trkpt>
      <trkpt lat="48.903188" lon="9.412831">
        <ele>306.660761</ele>
        <time>2022-07-23T12:46:49.001Z</time>
      </trkpt>
      <trkpt lat="48.903253" lon="9.412640">
        <ele>306.548197</ele>
        <time>2022-07-23T12:46:52.001Z</time>
      </trkpt>
      <trkpt lat="48.903305" lon="9.412449">
        <ele>306.440001</ele>
        <time>2022-07-23T12:46:55.001Z</time>
      </trkpt>
      <trkpt lat="48.903349" lon="9.412309">
        <ele>306.358787</ele>
        <time>2022-07-23T12:46:57.001Z</time>
      </trkpt>
      <trkpt lat="48.903394" lon="9.412161">
        <ele>306.273445</ele>
        <time>2022-07-23T12:46:59.001Z</time>
      </trkpt>
      <trkpt lat="48.903435" lon="9.412027">
        <ele>306.196089</ele>
        <time>2022-07-23T12:47:01.001Z</time>
      </trkpt>
      <trkpt lat="48.903493" lon="9.411843">
        <ele>306.089292</ele>
        <time>2022-07-23T12:47:04.000Z</time>
      </trkpt>
      <trkpt lat="48.903527" lon="9.411710">
        <ele>306.014607</ele>
        <time>2022-07-23T12:47:06.000Z</time>
      </trkpt>
      <trkpt lat="48.903570" lon="9.411578">
        <ele>305.995254</ele>
        <time>2022-07-23T12:47:08.000Z</time>
      </trkpt>
      <trkpt lat="48.903607" lon="9.411442">
        <ele>305.979395</ele>
        <time>2022-07-23T12:47:10.000Z</time>
      </trkpt>
      <trkpt lat="48.903665" lon="9.411268">
        <ele>305.958374</ele>
        <time>2022-07-23T12:47:13.000Z</time>
      </trkpt>
      <trkpt lat="48.903708" lon="9.411102">
        <ele>305.939148</ele>
        <time>2022-07-23T12:47:16.000Z</time>
      </trkpt>
      <trkpt lat="48.903763" lon="9.410925">
        <ele>305.918053</ele>
        <time>2022-07-23T12:47:19.000Z</time>
      </trkpt>
      <trkpt lat="48.903792" lon="9.410786">
        <ele>305.902340</ele>
        <time>2022-07-23T12:47:21.000Z</time>
      </trkpt>
      <trkpt lat="48.903819" lon="9.410595">
        <ele>305.881289</ele>
        <time>2022-07-23T12:47:24.000Z</time>
      </trkpt>
      <trkpt lat="48.903835" lon="9.410409">
        <ele>305.861077</ele>
        <time>2022-07-23T12:47:27.000Z</time>
      </trkpt>
      <trkpt lat="48.903856" lon="9.410225">
        <ele>305.840954</ele>
        <time>2022-07-23T12:47:30.000Z</time>
      </trkpt>
      <trkpt lat="48.903877" lon="9.410026">
        <ele>305.819238</ele>
        <time>2022-07-23T12:47:33.000Z</time>
      </trkpt>
      <trkpt lat="48.903897" lon="9.409825">
        <ele>305.797333</ele>
        <time>2022-07-23T12:47:36.000Z</time>
      </trkpt>
      <trkpt lat="48.903903" lon="9.409636">
        <ele>305.776945</ele>
        <time>2022-07-23T12:47:39.000Z</time>
      </trkpt>
      <trkpt lat="48.903911" lon="9.409446">
        <ele>305.756431</ele>
        <time>2022-07-23T12:47:42.000Z</time>
      </trkpt>
      <trkpt lat="48.903917" lon="9.409247">
        <ele>305.734966</ele>
        <time>2022-07-23T12:47:45.000Z</time>
      </trkpt>
      <trkpt lat="48.903926" lon="9.409057">
        <ele>305.711915</ele>
        <time>2022-07-23T12:47:48.000Z</time>
      </trkpt>
      <trkpt lat="48.903931" lon="9.408857">
        <ele>305.633040</ele>
        <time>2022-07-23T12:47:51.000Z</time>
      </trkpt>
      <trkpt lat="48.903940" lon="9.408719">
        <ele>305.578389</ele>
        <time>2022-07-23T12:47:53.000Z</time>
      </trkpt>
      <trkpt lat="48.903938" lon="9.408581">
        <ele>305.523992</ele>
        <time>2022-07-23T12:47:55.000Z</time>
      </trkpt>
      <trkpt lat="48.903908" lon="9.408402">
        <ele>305.451193</ele>
        <time>2022-07-23T12:47:58.000Z</time>
      </trkpt>
      <trkpt lat="48.903877" lon="9.408232">
        <ele>305.381667</ele>
        <time>2022-07-23T12:48:01.000Z</time>
      </trkpt>
      <trkpt lat="48.903843" lon="9.408068">
        <ele>305.313898</ele>
        <time>2022-07-23T12:48:04.000Z</time>
      </trkpt>
      <trkpt lat="48.903812" lon="9.407901">
        <ele>305.245512</ele>
        <time>2022-07-23T12:48:07.000Z</time>
      </trkpt>
      <trkpt lat="48.903772" lon="9.407736">
        <ele>305.176205</ele>
        <time>2022-07-23T12:48:10.000Z</time>
      </trkpt>
      <trkpt lat="48.903721" lon="9.407556">
        <ele>305.098960</ele>
        <time>2022-07-23T12:48:13.000Z</time>
      </trkpt>
      <trkpt lat="48.903675" lon="9.407428">
        <ele>305.041470</ele>
        <time>2022-07-23T12:48:15.000Z</time>
      </trkpt>
      <trkpt lat="48.903623" lon="9.407246">
        <ele>304.963262</ele>
        <time>2022-07-23T12:48:18.000Z</time>
      </trkpt>
      <trkpt lat="48.903592" lon="9.407111">
        <ele>304.906907</ele>
        <time>2022-07-23T12:48:20.000Z</time>
      </trkpt>
      <trkpt lat="48.903556" lon="9.406971">
        <ele>304.847663</ele>
        <time>2022-07-23T12:48:22.000Z</time>
      </trkpt>
      <trkpt lat="48.903525" lon="9.406781">
        <ele>304.770513</ele>
        <time>2022-07-23T12:48:25.000Z</time>
      </trkpt>
      <trkpt lat="48.903483" lon="9.406602">
        <ele>304.695611</ele>
        <time>2022-07-23T12:48:28.000Z</time>
      </trkpt>
      <trkpt lat="48.903432" lon="9.406436">
        <ele>304.612670</ele>
        <time>2022-07-23T12:48:31.000Z</time>
      </trkpt>
      <trkpt lat="48.903401" lon="9.406267">
        <ele>304.489136</ele>
        <time>2022-07-23T12:48:34.000Z</time>
      </trkpt>
      <trkpt lat="48.903369" lon="9.406089">
        <ele>304.359210</ele>
        <time>2022-07-23T12:48:37.001Z</time>
      </trkpt>
      <trkpt lat="48.903330" lon="9.405899">
        <ele>304.219067</ele>
        <time>2022-07-23T12:48:40.001Z</time>
      </trkpt>
      <trkpt lat="48.903311" lon="9.405758">
        <ele>304.117729</ele>
        <time>2022-07-23T12:48:42.001Z</time>
      </trkpt>
      <trkpt lat="48.903293" lon="9.405612">
        <ele>304.013142</ele>
        <time>2022-07-23T12:48:44.001Z</time>
      </trkpt>
      <trkpt lat="48.903298" lon="9.405462">
        <ele>303.907396</ele>
        <time>2022-07-23T12:48:46.001Z</time>
      </trkpt>
      <trkpt lat="48.903329" lon="9.405323">
        <ele>303.804051</ele>
        <time>2022-07-23T12:48:48.001Z</time>
      </trkpt>
      <trkpt lat="48.903384" lon="9.405212">
        <ele>303.706184</ele>
        <time>2022-07-23T12:48:50.001Z</time>
      </trkpt>
      <trkpt lat="48.903468" lon="9.405091">
        <ele>303.582278</ele>
        <time>2022-07-23T12:48:53.001Z</time>
      </trkpt>
      <trkpt lat="48.903530" lon="9.404985">
        <ele>303.482378</ele>
        <time>2022-07-23T12:49:02.001Z</time>
      </trkpt>
      <trkpt lat="48.903499" lon="9.404848">
        <ele>303.380366</ele>
        <time>2022-07-23T12:49:06.001Z</time>
      </trkpt>
      <trkpt lat="48.903392" lon="9.404767">
        <ele>303.252354</ele>
        <time>2022-07-23T12:49:08.999Z</time>
      </trkpt>
      <trkpt lat="48.903307" lon="9.404697">
        <ele>303.148826</ele>
        <time>2022-07-23T12:49:10.999Z</time>
      </trkpt>
      <trkpt lat="48.903209" lon="9.404623">
        <ele>303.031639</ele>
        <time>2022-07-23T12:49:12.999Z</time>
      </trkpt>
      <trkpt lat="48.903115" lon="9.404542">
        <ele>302.915926</ele>
        <time>2022-07-23T12:49:14.999Z</time>
      </trkpt>
      <trkpt lat="48.903033" lon="9.404456">
        <ele>302.809247</ele>
        <time>2022-07-23T12:49:16.999Z</time>
      </trkpt>
      <trkpt lat="48.902924" lon="9.404387">
        <ele>302.692658</ele>
        <time>2022-07-23T12:49:19.999Z</time>
      </trkpt>
      <trkpt lat="48.902853" lon="9.404289">
        <ele>302.626517</ele>
        <time>2022-07-23T12:49:22.999Z</time>
      </trkpt>
      <trkpt lat="48.902743" lon="9.404268">
        <ele>302.550031</ele>
        <time>2022-07-23T12:49:25.999Z</time>
      </trkpt>
      <trkpt lat="48.902623" lon="9.404214">
        <ele>302.463696</ele>
        <time>2022-07-23T12:49:29.000Z</time>
      </trkpt>
      <trkpt lat="48.902545" lon="9.404052">
        <ele>302.372627</ele>
        <time>2022-07-23T12:49:32.000Z</time>
      </trkpt>
      <trkpt lat="48.902472" lon="9.403952">
        <ele>302.304854</ele>
        <time>2022-07-23T12:49:34.000Z</time>
      </trkpt>
      <trkpt lat="48.902404" lon="9.403848">
        <ele>302.238330</ele>
        <time>2022-07-23T12:49:36.000Z</time>
      </trkpt>
      <trkpt lat="48.902314" lon="9.403701">
        <ele>302.147227</ele>
        <time>2022-07-23T12:49:39.000Z</time>
      </trkpt>
      <trkpt lat="48.902234" lon="9.403548">
        <ele>302.058565</ele>
        <time>2022-07-23T12:49:42.000Z</time>
      </trkpt>
      <trkpt lat="48.902144" lon="9.403378">
        <ele>301.959573</ele>
        <time>2022-07-23T12:49:45.000Z</time>
      </trkpt>
      <trkpt lat="48.902075" lon="9.403271">
        <ele>301.891596</ele>
        <time>2022-07-23T12:49:47.000Z</time>
      </trkpt>
      <trkpt lat="48.901999" lon="9.403157">
        <ele>301.817961</ele>
        <time>2022-07-23T12:49:49.000Z</time>
      </trkpt>
      <trkpt lat="48.901931" lon="9.403052">
        <ele>301.751114</ele>
        <time>2022-07-23T12:49:51.000Z</time>
      </trkpt>
      <trkpt lat="48.901875" lon="9.402938">
        <ele>301.686572</ele>
        <time>2022-07-23T12:49:53.000Z</time>
      </trkpt>
      <trkpt lat="48.901811" lon="9.402830">
        <ele>301.620628</ele>
        <time>2022-07-23T12:49:55.000Z</time>
      </trkpt>
      <trkpt lat="48.901732" lon="9.402728">
        <ele>301.549141</ele>
        <time>2022-07-23T12:49:57.000Z</time>
      </trkpt>
      <trkpt lat="48.901636" lon="9.402711">
        <ele>301.482462</ele>
        <time>2022-07-23T12:49:59.000Z</time>
      </trkpt>
      <trkpt lat="48.901544" lon="9.402741">
        <ele>301.493046</ele>
        <time>2022-07-23T12:50:01.000Z</time>
      </trkpt>
      <trkpt lat="48.901448" lon="9.402767">
        <ele>301.523336</ele>
        <time>2022-07-23T12:50:03.000Z</time>
      </trkpt>
      <trkpt lat="48.901354" lon="9.402768">
        <ele>301.552537</ele>
        <time>2022-07-23T12:50:05.000Z</time>
      </trkpt>
      <trkpt lat="48.901250" lon="9.402703">
        <ele>301.587464</ele>
        <time>2022-07-23T12:50:08.000Z</time>
      </trkpt>
      <trkpt lat="48.901198" lon="9.402550">
        <ele>301.622636</ele>
        <time>2022-07-23T12:50:17.000Z</time>
      </trkpt>
      <trkpt lat="48.901206" lon="9.402381">
        <ele>301.657235</ele>
        <time>2022-07-23T12:50:20.000Z</time>
      </trkpt>
      <trkpt lat="48.901282" lon="9.402295">
        <ele>301.686659</ele>
        <time>2022-07-23T12:50:23.000Z</time>
      </trkpt>
      <trkpt lat="48.901361" lon="9.402216">
        <ele>301.716027</ele>
        <time>2022-07-23T12:50:26.000Z</time>
      </trkpt>
      <trkpt lat="48.901386" lon="9.402055">
        <ele>301.749809</ele>
        <time>2022-07-23T12:50:30.000Z</time>
      </trkpt>
      <trkpt lat="48.901326" lon="9.401926">
        <ele>301.782078</ele>
        <time>2022-07-23T12:50:33.000Z</time>
      </trkpt>
      <trkpt lat="48.901257" lon="9.401793">
        <ele>301.816676</ele>
        <time>2022-07-23T12:50:36.000Z</time>
      </trkpt>
      <trkpt lat="48.901200" lon="9.401619">
        <ele>301.856374</ele>
        <time>2022-07-23T12:50:39.000Z</time>
      </trkpt>
      <trkpt lat="48.901162" lon="9.401489">
        <ele>301.885427</ele>
        <time>2022-07-23T12:50:41.000Z</time>
      </trkpt>
      <trkpt lat="48.901110" lon="9.401322">
        <ele>301.923161</ele>
        <time>2022-07-23T12:50:44.000Z</time>
      </trkpt>
      <trkpt lat="48.901056" lon="9.401145">
        <ele>301.963008</ele>
        <time>2022-07-23T12:50:47.000Z</time>
      </trkpt>
      <trkpt lat="48.901010" lon="9.401014">
        <ele>301.993336</ele>
        <time>2022-07-23T12:50:49.000Z</time>
      </trkpt>
      <trkpt lat="48.900970" lon="9.400872">
        <ele>302.024883</ele>
        <time>2022-07-23T12:50:51.000Z</time>
      </trkpt>
      <trkpt lat="48.900930" lon="9.400727">
        <ele>301.843024</ele>
        <time>2022-07-23T12:50:53.001Z</time>
      </trkpt>
      <trkpt lat="48.900888" lon="9.400582">
        <ele>301.633785</ele>
        <time>2022-07-23T12:50:55.001Z</time>
      </trkpt>
      <trkpt lat="48.900840" lon="9.400439">
        <ele>301.421758</ele>
        <time>2022-07-23T12:50:57.001Z</time>
      </trkpt>
      <trkpt lat="48.900795" lon="9.400294">
        <ele>301.210017</ele>
        <time>2022-07-23T12:50:59.001Z</time>
      </trkpt>
      <trkpt lat="48.900753" lon="9.400141">
        <ele>300.991068</ele>
        <time>2022-07-23T12:51:01.001Z</time>
      </trkpt>
      <trkpt lat="48.900702" lon="9.399993">
        <ele>300.770407</ele>
        <time>2022-07-23T12:51:03.001Z</time>
      </trkpt>
      <trkpt lat="48.900662" lon="9.399841">
        <ele>300.554202</ele>
        <time>2022-07-23T12:51:05.001Z</time>
      </trkpt>
      <trkpt lat="48.900627" lon="9.399685">
        <ele>300.336532</ele>
        <time>2022-07-23T12:51:07.001Z</time>
      </trkpt>
      <trkpt lat="48.900595" lon="9.399522">
        <ele>300.111893</ele>
        <time>2022-07-23T12:51:09.001Z</time>
      </trkpt>
      <trkpt lat="48.900557" lon="9.399359">
        <ele>299.883513</ele>
        <time>2022-07-23T12:51:11.001Z</time>
      </trkpt>
      <trkpt lat="48.900527" lon="9.399206">
        <ele>299.672676</ele>
        <time>2022-07-23T12:51:13.001Z</time>
      </trkpt>
      <trkpt lat="48.900498" lon="9.399057">
        <ele>299.467475</ele>
        <time>2022-07-23T12:51:14.999Z</time>
      </trkpt>
      <trkpt lat="48.900469" lon="9.398905">
        <ele>299.258471</ele>
        <time>2022-07-23T12:51:16.999Z</time>
      </trkpt>
      <trkpt lat="48.900439" lon="9.398749">
        <ele>299.043835</ele>
        <time>2022-07-23T12:51:18.999Z</time>
      </trkpt>
      <trkpt lat="48.900415" lon="9.398582">
        <ele>298.818098</ele>
        <time>2022-07-23T12:51:20.999Z</time>
      </trkpt>
      <trkpt lat="48.900389" lon="9.398432">
        <ele>298.613249</ele>
        <time>2022-07-23T12:51:22.999Z</time>
      </trkpt>
      <trkpt lat="48.900365" lon="9.398293">
        <ele>298.423469</ele>
        <time>2022-07-23T12:51:24.999Z</time>
      </trkpt>
      <trkpt lat="48.900345" lon="9.398158">
        <ele>298.234128</ele>
        <time>2022-07-23T12:51:26.999Z</time>
      </trkpt>
      <trkpt lat="48.900321" lon="9.398022">
        <ele>298.041145</ele>
        <time>2022-07-23T12:51:28.999Z</time>
      </trkpt>
      <trkpt lat="48.900296" lon="9.397883">
        <ele>297.843649</ele>
        <time>2022-07-23T12:51:30.999Z</time>
      </trkpt>
      <trkpt lat="48.900275" lon="9.397743">
        <ele>297.646851</ele>
        <time>2022-07-23T12:51:32.999Z</time>
      </trkpt>
      <trkpt lat="48.900251" lon="9.397599">
        <ele>297.443260</ele>
        <time>2022-07-23T12:51:34.999Z</time>
      </trkpt>
      <trkpt lat="48.900222" lon="9.397444">
        <ele>297.222400</ele>
        <time>2022-07-23T12:51:36.999Z</time>
      </trkpt>
      <trkpt lat="48.900192" lon="9.397282">
        <ele>296.991743</ele>
        <time>2022-07-23T12:51:38.999Z</time>
      </trkpt>
      <trkpt lat="48.900164" lon="9.397118">
        <ele>296.759529</ele>
        <time>2022-07-23T12:51:41.000Z</time>
      </trkpt>
      <trkpt lat="48.900124" lon="9.396964">
        <ele>296.532598</ele>
        <time>2022-07-23T12:51:43.000Z</time>
      </trkpt>
      <trkpt lat="48.900071" lon="9.396822">
        <ele>296.308811</ele>
        <time>2022-07-23T12:51:45.000Z</time>
      </trkpt>
      <trkpt lat="48.900024" lon="9.396687">
        <ele>296.099452</ele>
        <time>2022-07-23T12:51:47.000Z</time>
      </trkpt>
      <trkpt lat="48.899985" lon="9.396558">
        <ele>295.904860</ele>
        <time>2022-07-23T12:51:50.000Z</time>
      </trkpt>
      <trkpt lat="48.899926" lon="9.396449">
        <ele>295.711354</ele>
        <time>2022-07-23T12:51:55.000Z</time>
      </trkpt>
      <trkpt lat="48.899837" lon="9.396375">
        <ele>295.499902</ele>
        <time>2022-07-23T12:51:58.000Z</time>
      </trkpt>
      <trkpt lat="48.899748" lon="9.396276">
        <ele>295.270043</ele>
        <time>2022-07-23T12:52:01.000Z</time>
      </trkpt>
      <trkpt lat="48.899674" lon="9.396196">
        <ele>295.080779</ele>
        <time>2022-07-23T12:52:03.000Z</time>
      </trkpt>
      <trkpt lat="48.899596" lon="9.396127">
        <ele>294.892669</ele>
        <time>2022-07-23T12:52:05.000Z</time>
      </trkpt>
      <trkpt lat="48.899488" lon="9.396013">
        <ele>294.636926</ele>
        <time>2022-07-23T12:52:08.000Z</time>
      </trkpt>
      <trkpt lat="48.899377" lon="9.395893">
        <ele>294.464021</ele>
        <time>2022-07-23T12:52:11.000Z</time>
      </trkpt>
      <trkpt lat="48.899286" lon="9.395751">
        <ele>294.298495</ele>
        <time>2022-07-23T12:52:14.000Z</time>
      </trkpt>
      <trkpt lat="48.899207" lon="9.395596">
        <ele>294.134788</ele>
        <time>2022-07-23T12:52:17.000Z</time>
      </trkpt>
      <trkpt lat="48.899147" lon="9.395473">
        <ele>294.006944</ele>
        <time>2022-07-23T12:52:19.000Z</time>
      </trkpt>
      <trkpt lat="48.899080" lon="9.395345">
        <ele>293.870372</ele>
        <time>2022-07-23T12:52:21.000Z</time>
      </trkpt>
      <trkpt lat="48.899007" lon="9.395219">
        <ele>293.730185</ele>
        <time>2022-07-23T12:52:23.000Z</time>
      </trkpt>
      <trkpt lat="48.898939" lon="9.395092">
        <ele>293.593466</ele>
        <time>2022-07-23T12:52:25.000Z</time>
      </trkpt>
      <trkpt lat="48.898872" lon="9.394966">
        <ele>293.458196</ele>
        <time>2022-07-23T12:52:27.000Z</time>
      </trkpt>
      <trkpt lat="48.898808" lon="9.394842">
        <ele>293.326605</ele>
        <time>2022-07-23T12:52:29.000Z</time>
      </trkpt>
      <trkpt lat="48.898743" lon="9.394718">
        <ele>293.194226</ele>
        <time>2022-07-23T12:52:31.000Z</time>
      </trkpt>
      <trkpt lat="48.898672" lon="9.394593">
        <ele>293.056338</ele>
        <time>2022-07-23T12:52:33.000Z</time>
      </trkpt>
      <trkpt lat="48.898610" lon="9.394475">
        <ele>292.930249</ele>
        <time>2022-07-23T12:52:35.000Z</time>
      </trkpt>
      <trkpt lat="48.898548" lon="9.394354">
        <ele>292.802194</ele>
        <time>2022-07-23T12:52:37.000Z</time>
      </trkpt>
      <trkpt lat="48.898484" lon="9.394225">
        <ele>292.667296</ele>
        <time>2022-07-23T12:52:39.000Z</time>
      </trkpt>
      <trkpt lat="48.898413" lon="9.394097">
        <ele>292.527502</ele>
        <time>2022-07-23T12:52:41.000Z</time>
      </trkpt>
      <trkpt lat="48.898348" lon="9.393968">
        <ele>292.391835</ele>
        <time>2022-07-23T12:52:43.000Z</time>
      </trkpt>
      <trkpt lat="48.898287" lon="9.393851">
        <ele>292.277528</ele>
        <time>2022-07-23T12:52:45.000Z</time>
      </trkpt>
      <trkpt lat="48.898223" lon="9.393739">
        <ele>292.164844</ele>
        <time>2022-07-23T12:52:47.000Z</time>
      </trkpt>
      <trkpt lat="48.898161" lon="9.393629">
        <ele>292.054819</ele>
        <time>2022-07-23T12:52:49.000Z</time>
      </trkpt>
      <trkpt lat="48.898100" lon="9.393512">
        <ele>291.941428</ele>
        <time>2022-07-23T12:52:51.000Z</time>
      </trkpt>
      <trkpt lat="48.898036" lon="9.393387">
        <ele>291.821119</ele>
        <time>2022-07-23T12:52:53.000Z</time>
      </trkpt>
      <trkpt lat="48.897970" lon="9.393266">
        <ele>291.701730</ele>
        <time>2022-07-23T12:52:55.001Z</time>
      </trkpt>
      <trkpt lat="48.897917" lon="9.393154">
        <ele>291.596942</ele>
        <time>2022-07-23T12:52:57.001Z</time>
      </trkpt>
      <trkpt lat="48.897838" lon="9.393002">
        <ele>291.449807</ele>
        <time>2022-07-23T12:53:00.001Z</time>
      </trkpt>
      <trkpt lat="48.897773" lon="9.392894">
        <ele>291.338621</ele>
        <time>2022-07-23T12:53:02.001Z</time>
      </trkpt>
      <trkpt lat="48.897712" lon="9.392782">
        <ele>291.228179</ele>
        <time>2022-07-23T12:53:04.001Z</time>
      </trkpt>
      <trkpt lat="48.897653" lon="9.392661">
        <ele>291.113783</ele>
        <time>2022-07-23T12:53:06.001Z</time>
      </trkpt>
      <trkpt lat="48.897589" lon="9.392546">
        <ele>290.999369</ele>
        <time>2022-07-23T12:53:08.001Z</time>
      </trkpt>
      <trkpt lat="48.897522" lon="9.392434">
        <ele>290.884381</ele>
        <time>2022-07-23T12:53:10.001Z</time>
      </trkpt>
      <trkpt lat="48.897464" lon="9.392323">
        <ele>290.776712</ele>
        <time>2022-07-23T12:53:12.001Z</time>
      </trkpt>
      <trkpt lat="48.897403" lon="9.392216">
        <ele>290.669166</ele>
        <time>2022-07-23T12:53:14.001Z</time>
      </trkpt>
      <trkpt lat="48.897334" lon="9.392114">
        <ele>290.558030</ele>
        <time>2022-07-23T12:53:16.001Z</time>
      </trkpt>
      <trkpt lat="48.897264" lon="9.392004">
        <ele>290.441778</ele>
        <time>2022-07-23T12:53:18.001Z</time>
      </trkpt>
      <trkpt lat="48.897191" lon="9.391896">
        <ele>290.324153</ele>
        <time>2022-07-23T12:53:20.001Z</time>
      </trkpt>
      <trkpt lat="48.897119" lon="9.391788">
        <ele>290.109000</ele>
        <time>2022-07-23T12:53:21.999Z</time>
      </trkpt>
      <trkpt lat="48.897046" lon="9.391676">
        <ele>289.867527</ele>
        <time>2022-07-23T12:53:23.999Z</time>
      </trkpt>
      <trkpt lat="48.896969" lon="9.391570">
        <ele>289.625664</ele>
        <time>2022-07-23T12:53:25.999Z</time>
      </trkpt>
      <trkpt lat="48.896891" lon="9.391474">
        <ele>289.391991</ele>
        <time>2022-07-23T12:53:28.000Z</time>
      </trkpt>
      <trkpt lat="48.896816" lon="9.391377">
        <ele>289.162718</ele>
        <time>2022-07-23T12:53:30.000Z</time>
      </trkpt>
      <trkpt lat="48.896735" lon="9.391284">
        <ele>288.926369</ele>
        <time>2022-07-23T12:53:32.000Z</time>
      </trkpt>
      <trkpt lat="48.896640" lon="9.391227">
        <ele>288.688530</ele>
        <time>2022-07-23T12:53:34.000Z</time>
      </trkpt>
      <trkpt lat="48.896543" lon="9.391187">
        <ele>288.454470</ele>
        <time>2022-07-23T12:53:36.000Z</time>
      </trkpt>
      <trkpt lat="48.896441" lon="9.391142">
        <ele>288.207129</ele>
        <time>2022-07-23T12:53:38.000Z</time>
      </trkpt>
      <trkpt lat="48.896340" lon="9.391094">
        <ele>287.960693</ele>
        <time>2022-07-23T12:53:40.000Z</time>
      </trkpt>
      <trkpt lat="48.896234" lon="9.391050">
        <ele>287.704800</ele>
        <time>2022-07-23T12:53:42.000Z</time>
      </trkpt>
      <trkpt lat="48.896126" lon="9.391001">
        <ele>287.442325</ele>
        <time>2022-07-23T12:53:44.000Z</time>
      </trkpt>
      <trkpt lat="48.896018" lon="9.390952">
        <ele>287.179850</ele>
        <time>2022-07-23T12:53:46.000Z</time>
      </trkpt>
      <trkpt lat="48.895909" lon="9.390904">
        <ele>286.915572</ele>
        <time>2022-07-23T12:53:48.000Z</time>
      </trkpt>
      <trkpt lat="48.895797" lon="9.390858">
        <ele>286.645391</ele>
        <time>2022-07-23T12:53:50.000Z</time>
      </trkpt>
      <trkpt lat="48.895686" lon="9.390813">
        <ele>286.377855</ele>
        <time>2022-07-23T12:53:52.000Z</time>
      </trkpt>
      <trkpt lat="48.895574" lon="9.390765">
        <ele>286.104166</ele>
        <time>2022-07-23T12:53:54.000Z</time>
      </trkpt>
      <trkpt lat="48.895463" lon="9.390708">
        <ele>285.743428</ele>
        <time>2022-07-23T12:53:56.000Z</time>
      </trkpt>
      <trkpt lat="48.895350" lon="9.390656">
        <ele>285.379908</ele>
        <time>2022-07-23T12:53:58.000Z</time>
      </trkpt>
      <trkpt lat="48.895241" lon="9.390609">
        <ele>285.031055</ele>
        <time>2022-07-23T12:54:00.000Z</time>
      </trkpt>
      <trkpt lat="48.895128" lon="9.390562">
        <ele>284.670336</ele>
        <time>2022-07-23T12:54:02.000Z</time>
      </trkpt>
      <trkpt lat="48.895018" lon="9.390510">
        <ele>284.315648</ele>
        <time>2022-07-23T12:54:04.000Z</time>
      </trkpt>
      <trkpt lat="48.894907" lon="9.390458">
        <ele>283.958019</ele>
        <time>2022-07-23T12:54:06.000Z</time>
      </trkpt>
      <trkpt lat="48.894796" lon="9.390402">
        <ele>283.597923</ele>
        <time>2022-07-23T12:54:08.000Z</time>
      </trkpt>
      <trkpt lat="48.894684" lon="9.390344">
        <ele>283.233618</ele>
        <time>2022-07-23T12:54:10.000Z</time>
      </trkpt>
      <trkpt lat="48.894574" lon="9.390279">
        <ele>282.870249</ele>
        <time>2022-07-23T12:54:12.000Z</time>
      </trkpt>
      <trkpt lat="48.894461" lon="9.390214">
        <ele>282.498254</ele>
        <time>2022-07-23T12:54:14.000Z</time>
      </trkpt>
      <trkpt lat="48.894345" lon="9.390155">
        <ele>282.121631</ele>
        <time>2022-07-23T12:54:16.000Z</time>
      </trkpt>
      <trkpt lat="48.894232" lon="9.390090">
        <ele>281.749637</ele>
        <time>2022-07-23T12:54:18.000Z</time>
      </trkpt>
      <trkpt lat="48.894123" lon="9.390006">
        <ele>281.373388</ele>
        <time>2022-07-23T12:54:20.000Z</time>
      </trkpt>
      <trkpt lat="48.894020" lon="9.389915">
        <ele>281.006614</ele>
        <time>2022-07-23T12:54:22.000Z</time>
      </trkpt>
      <trkpt lat="48.893922" lon="9.389811">
        <ele>280.638669</ele>
        <time>2022-07-23T12:54:24.000Z</time>
      </trkpt>
      <trkpt lat="48.893827" lon="9.389699">
        <ele>280.532441</ele>
        <time>2022-07-23T12:54:26.000Z</time>
      </trkpt>
      <trkpt lat="48.893730" lon="9.389621">
        <ele>280.483708</ele>
        <time>2022-07-23T12:54:28.000Z</time>
      </trkpt>
      <trkpt lat="48.893625" lon="9.389548">
        <ele>280.432432</ele>
        <time>2022-07-23T12:54:30.000Z</time>
      </trkpt>
      <trkpt lat="48.893517" lon="9.389493">
        <ele>280.381847</ele>
        <time>2022-07-23T12:54:32.000Z</time>
      </trkpt>
      <trkpt lat="48.893417" lon="9.389437">
        <ele>280.334517</ele>
        <time>2022-07-23T12:54:34.000Z</time>
      </trkpt>
      <trkpt lat="48.893318" lon="9.389392">
        <ele>280.288625</ele>
        <time>2022-07-23T12:54:36.000Z</time>
      </trkpt>
      <trkpt lat="48.893225" lon="9.389369">
        <ele>280.246776</ele>
        <time>2022-07-23T12:54:38.000Z</time>
      </trkpt>
      <trkpt lat="48.893130" lon="9.389348">
        <ele>280.204139</ele>
        <time>2022-07-23T12:54:40.000Z</time>
      </trkpt>
      <trkpt lat="48.893035" lon="9.389343">
        <ele>280.161919</ele>
        <time>2022-07-23T12:54:42.000Z</time>
      </trkpt>
      <trkpt lat="48.892940" lon="9.389337">
        <ele>280.119689</ele>
        <time>2022-07-23T12:54:44.000Z</time>
      </trkpt>
      <trkpt lat="48.892849" lon="9.389319">
        <ele>280.078931</ele>
        <time>2022-07-23T12:54:46.000Z</time>
      </trkpt>
      <trkpt lat="48.892761" lon="9.389282">
        <ele>280.038380</ele>
        <time>2022-07-23T12:54:48.000Z</time>
      </trkpt>
      <trkpt lat="48.892642" lon="9.389212">
        <ele>279.981711</ele>
        <time>2022-07-23T12:54:51.000Z</time>
      </trkpt>
      <trkpt lat="48.892533" lon="9.389111">
        <ele>279.925022</ele>
        <time>2022-07-23T12:54:54.000Z</time>
      </trkpt>
      <trkpt lat="48.892455" lon="9.389036">
        <ele>279.884037</ele>
        <time>2022-07-23T12:54:56.000Z</time>
      </trkpt>
      <trkpt lat="48.892373" lon="9.388953">
        <ele>279.840289</ele>
        <time>2022-07-23T12:54:58.001Z</time>
      </trkpt>
      <trkpt lat="48.892295" lon="9.388863">
        <ele>279.796804</ele>
        <time>2022-07-23T12:55:00.001Z</time>
      </trkpt>
      <trkpt lat="48.892223" lon="9.388762">
        <ele>279.923312</ele>
        <time>2022-07-23T12:55:02.001Z</time>
      </trkpt>
      <trkpt lat="48.892149" lon="9.388666">
        <ele>280.176820</ele>
        <time>2022-07-23T12:55:04.001Z</time>
      </trkpt>
      <trkpt lat="48.892062" lon="9.388567">
        <ele>280.460022</ele>
        <time>2022-07-23T12:55:06.001Z</time>
      </trkpt>
      <trkpt lat="48.891993" lon="9.388450">
        <ele>280.729364</ele>
        <time>2022-07-23T12:55:08.001Z</time>
      </trkpt>
      <trkpt lat="48.891918" lon="9.388344">
        <ele>280.996218</ele>
        <time>2022-07-23T12:55:10.001Z</time>
      </trkpt>
      <trkpt lat="48.891826" lon="9.388269">
        <ele>281.268285</ele>
        <time>2022-07-23T12:55:12.001Z</time>
      </trkpt>
      <trkpt lat="48.891729" lon="9.388226">
        <ele>281.531630</ele>
        <time>2022-07-23T12:55:14.001Z</time>
      </trkpt>
      <trkpt lat="48.891633" lon="9.388184">
        <ele>281.791996</ele>
        <time>2022-07-23T12:55:16.001Z</time>
      </trkpt>
      <trkpt lat="48.891533" lon="9.388152">
        <ele>282.058347</ele>
        <time>2022-07-23T12:55:18.001Z</time>
      </trkpt>
      <trkpt lat="48.891424" lon="9.388138">
        <ele>282.343462</ele>
        <time>2022-07-23T12:55:20.001Z</time>
      </trkpt>
      <trkpt lat="48.891315" lon="9.388112">
        <ele>282.631038</ele>
        <time>2022-07-23T12:55:22.001Z</time>
      </trkpt>
      <trkpt lat="48.891203" lon="9.388103">
        <ele>282.923367</ele>
        <time>2022-07-23T12:55:24.001Z</time>
      </trkpt>
      <trkpt lat="48.891092" lon="9.388097">
        <ele>283.212866</ele>
        <time>2022-07-23T12:55:26.001Z</time>
      </trkpt>
      <trkpt lat="48.890981" lon="9.388094">
        <ele>283.502228</ele>
        <time>2022-07-23T12:55:28.000Z</time>
      </trkpt>
      <trkpt lat="48.890883" lon="9.388089">
        <ele>283.757804</ele>
        <time>2022-07-23T12:55:30.000Z</time>
      </trkpt>
      <trkpt lat="48.890789" lon="9.388082">
        <ele>284.003103</ele>
        <time>2022-07-23T12:55:32.000Z</time>
      </trkpt>
      <trkpt lat="48.890670" lon="9.388068">
        <ele>284.314198</ele>
        <time>2022-07-23T12:55:35.000Z</time>
      </trkpt>
      <trkpt lat="48.890565" lon="9.388058">
        <ele>284.291041</ele>
        <time>2022-07-23T12:55:38.000Z</time>
      </trkpt>
      <trkpt lat="48.890445" lon="9.388057">
        <ele>283.843193</ele>
        <time>2022-07-23T12:55:41.000Z</time>
      </trkpt>
      <trkpt lat="48.890314" lon="9.388063">
        <ele>283.354079</ele>
        <time>2022-07-23T12:55:44.000Z</time>
      </trkpt>
      <trkpt lat="48.890204" lon="9.388056">
        <ele>282.943199</ele>
        <time>2022-07-23T12:55:47.000Z</time>
      </trkpt>
      <trkpt lat="48.890174" lon="9.387918">
        <ele>282.586545</ele>
        <time>2022-07-23T12:55:50.000Z</time>
      </trkpt>
      <trkpt lat="48.890236" lon="9.387766">
        <ele>282.147623</ele>
        <time>2022-07-23T12:55:53.000Z</time>
      </trkpt>
      <trkpt lat="48.890302" lon="9.387578">
        <ele>281.624669</ele>
        <time>2022-07-23T12:55:56.000Z</time>
      </trkpt>
      <trkpt lat="48.890350" lon="9.387438">
        <ele>281.237236</ele>
        <time>2022-07-23T12:55:58.000Z</time>
      </trkpt>
      <trkpt lat="48.890397" lon="9.387305">
        <ele>280.866730</ele>
        <time>2022-07-23T12:56:00.000Z</time>
      </trkpt>
      <trkpt lat="48.890447" lon="9.387170">
        <ele>280.486527</ele>
        <time>2022-07-23T12:56:02.000Z</time>
      </trkpt>
      <trkpt lat="48.890497" lon="9.387017">
        <ele>280.067280</ele>
        <time>2022-07-23T12:56:04.000Z</time>
      </trkpt>
      <trkpt lat="48.890552" lon="9.386868">
        <ele>279.647987</ele>
        <time>2022-07-23T12:56:06.000Z</time>
      </trkpt>
      <trkpt lat="48.890612" lon="9.386725">
        <ele>279.231736</ele>
        <time>2022-07-23T12:56:08.000Z</time>
      </trkpt>
      <trkpt lat="48.890681" lon="9.386588">
        <ele>278.808274</ele>
        <time>2022-07-23T12:56:10.000Z</time>
      </trkpt>
      <trkpt lat="48.890759" lon="9.386455">
        <ele>278.370960</ele>
        <time>2022-07-23T12:56:12.000Z</time>
      </trkpt>
      <trkpt lat="48.890839" lon="9.386318">
        <ele>277.921352</ele>
        <time>2022-07-23T12:56:14.000Z</time>
      </trkpt>
      <trkpt lat="48.890934" lon="9.386204">
        <ele>277.686266</ele>
        <time>2022-07-23T12:56:16.000Z</time>
      </trkpt>
      <trkpt lat="48.891027" lon="9.386091">
        <ele>277.580907</ele>
        <time>2022-07-23T12:56:18.000Z</time>
      </trkpt>
      <trkpt lat="48.891117" lon="9.385977">
        <ele>277.477239</ele>
        <time>2022-07-23T12:56:20.000Z</time>
      </trkpt>
      <trkpt lat="48.891209" lon="9.385867">
        <ele>277.373659</ele>
        <time>2022-07-23T12:56:22.000Z</time>
      </trkpt>
      <trkpt lat="48.891297" lon="9.385750">
        <ele>277.270204</ele>
        <time>2022-07-23T12:56:24.000Z</time>
      </trkpt>
      <trkpt lat="48.891382" lon="9.385627">
        <ele>277.166358</ele>
        <time>2022-07-23T12:56:26.000Z</time>
      </trkpt>
      <trkpt lat="48.891457" lon="9.385495">
        <ele>277.064831</ele>
        <time>2022-07-23T12:56:28.000Z</time>
      </trkpt>
      <trkpt lat="48.891519" lon="9.385370">
        <ele>276.973709</ele>
        <time>2022-07-23T12:56:30.000Z</time>
      </trkpt>
      <trkpt lat="48.891575" lon="9.385248">
        <ele>276.887121</ele>
        <time>2022-07-23T12:56:32.000Z</time>
      </trkpt>
      <trkpt lat="48.891628" lon="9.385126">
        <ele>276.802025</ele>
        <time>2022-07-23T12:56:34.000Z</time>
      </trkpt>
      <trkpt lat="48.891683" lon="9.385003">
        <ele>276.715460</ele>
        <time>2022-07-23T12:56:36.000Z</time>
      </trkpt>
      <trkpt lat="48.891754" lon="9.384840">
        <ele>276.601674</ele>
        <time>2022-07-23T12:56:39.000Z</time>
      </trkpt>
      <trkpt lat="48.891721" lon="9.384661">
        <ele>276.493487</ele>
        <time>2022-07-23T12:56:42.000Z</time>
      </trkpt>
      <trkpt lat="48.891663" lon="9.384503">
        <ele>276.388179</ele>
        <time>2022-07-23T12:56:45.000Z</time>
      </trkpt>
      <trkpt lat="48.891709" lon="9.384317">
        <ele>276.272532</ele>
        <time>2022-07-23T12:56:48.000Z</time>
      </trkpt>
      <trkpt lat="48.891777" lon="9.384218">
        <ele>276.189215</ele>
        <time>2022-07-23T12:56:50.000Z</time>
      </trkpt>
      <trkpt lat="48.891895" lon="9.384123">
        <ele>275.977469</ele>
        <time>2022-07-23T12:56:53.000Z</time>
      </trkpt>
      <trkpt lat="48.891987" lon="9.384070">
        <ele>275.800398</ele>
        <time>2022-07-23T12:56:55.000Z</time>
      </trkpt>
      <trkpt lat="48.892081" lon="9.384010">
        <ele>275.616912</ele>
        <time>2022-07-23T12:56:57.000Z</time>
      </trkpt>
      <trkpt lat="48.892168" lon="9.383914">
        <ele>275.423450</ele>
        <time>2022-07-23T12:56:59.000Z</time>
      </trkpt>
      <trkpt lat="48.892243" lon="9.383793">
        <ele>275.226659</ele>
        <time>2022-07-23T12:57:01.001Z</time>
      </trkpt>
      <trkpt lat="48.892320" lon="9.383683">
        <ele>275.036520</ele>
        <time>2022-07-23T12:57:03.001Z</time>
      </trkpt>
      <trkpt lat="48.892391" lon="9.383573">
        <ele>274.854102</ele>
        <time>2022-07-23T12:57:05.001Z</time>
      </trkpt>
      <trkpt lat="48.892477" lon="9.383429">
        <ele>274.623886</ele>
        <time>2022-07-23T12:57:08.001Z</time>
      </trkpt>
      <trkpt lat="48.892494" lon="9.383230">
        <ele>274.386412</ele>
        <time>2022-07-23T12:57:11.001Z</time>
      </trkpt>
      <trkpt lat="48.892461" lon="9.383099">
        <ele>274.220399</ele>
        <time>2022-07-23T12:57:13.001Z</time>
      </trkpt>
      <trkpt lat="48.892415" lon="9.382973">
        <ele>274.049846</ele>
        <time>2022-07-23T12:57:15.001Z</time>
      </trkpt>
      <trkpt lat="48.892360" lon="9.382842">
        <ele>273.865910</ele>
        <time>2022-07-23T12:57:17.001Z</time>
      </trkpt>
      <trkpt lat="48.892311" lon="9.382695">
        <ele>273.670871</ele>
        <time>2022-07-23T12:57:20.001Z</time>
      </trkpt>
      <trkpt lat="48.892282" lon="9.382553">
        <ele>273.494909</ele>
        <time>2022-07-23T12:57:24.001Z</time>
      </trkpt>
      <trkpt lat="48.892312" lon="9.382390">
        <ele>273.294601</ele>
        <time>2022-07-23T12:57:27.001Z</time>
      </trkpt>
      <trkpt lat="48.892335" lon="9.382212">
        <ele>273.079927</ele>
        <time>2022-07-23T12:57:30.001Z</time>
      </trkpt>
      <trkpt lat="48.892310" lon="9.382030">
        <ele>272.882558</ele>
        <time>2022-07-23T12:57:33.000Z</time>
      </trkpt>
      <trkpt lat="48.892299" lon="9.381893">
        <ele>272.776791</ele>
        <time>2022-07-23T12:57:35.000Z</time>
      </trkpt>
      <trkpt lat="48.892244" lon="9.381729">
        <ele>272.635707</ele>
        <time>2022-07-23T12:57:38.000Z</time>
      </trkpt>
      <trkpt lat="48.892176" lon="9.381578">
        <ele>272.495449</ele>
        <time>2022-07-23T12:57:41.000Z</time>
      </trkpt>
      <trkpt lat="48.892119" lon="9.381403">
        <ele>272.345786</ele>
        <time>2022-07-23T12:57:44.000Z</time>
      </trkpt>
      <trkpt lat="48.892058" lon="9.381227">
        <ele>272.193318</ele>
        <time>2022-07-23T12:57:47.000Z</time>
      </trkpt>
      <trkpt lat="48.892007" lon="9.381041">
        <ele>272.038881</ele>
        <time>2022-07-23T12:57:50.000Z</time>
      </trkpt>
      <trkpt lat="48.891964" lon="9.380906">
        <ele>271.923924</ele>
        <time>2022-07-23T12:57:52.000Z</time>
      </trkpt>
      <trkpt lat="48.891952" lon="9.380737">
        <ele>271.793660</ele>
        <time>2022-07-23T12:57:55.000Z</time>
      </trkpt>
      <trkpt lat="48.892077" lon="9.380689">
        <ele>271.643392</ele>
        <time>2022-07-23T12:57:58.000Z</time>
      </trkpt>
      <trkpt lat="48.892182" lon="9.380605">
        <ele>271.505111</ele>
        <time>2022-07-23T12:58:01.000Z</time>
      </trkpt>
      <trkpt lat="48.892288" lon="9.380542">
        <ele>271.372463</ele>
        <time>2022-07-23T12:58:03.000Z</time>
      </trkpt>
      <trkpt lat="48.892379" lon="9.380455">
        <ele>271.247182</ele>
        <time>2022-07-23T12:58:05.000Z</time>
      </trkpt>
      <trkpt lat="48.892460" lon="9.380360">
        <ele>271.127962</ele>
        <time>2022-07-23T12:58:07.000Z</time>
      </trkpt>
      <trkpt lat="48.892532" lon="9.380258">
        <ele>271.013277</ele>
        <time>2022-07-23T12:58:09.000Z</time>
      </trkpt>
      <trkpt lat="48.892594" lon="9.380150">
        <ele>270.903405</ele>
        <time>2022-07-23T12:58:11.000Z</time>
      </trkpt>
      <trkpt lat="48.892674" lon="9.379990">
        <ele>270.806025</ele>
        <time>2022-07-23T12:58:14.000Z</time>
      </trkpt>
      <trkpt lat="48.892743" lon="9.379864">
        <ele>270.771192</ele>
        <time>2022-07-23T12:58:16.000Z</time>
      </trkpt>
      <trkpt lat="48.892812" lon="9.379726">
        <ele>270.734364</ele>
        <time>2022-07-23T12:58:18.000Z</time>
      </trkpt>
      <trkpt lat="48.892883" lon="9.379584">
        <ele>270.696469</ele>
        <time>2022-07-23T12:58:20.000Z</time>
      </trkpt>
      <trkpt lat="48.892960" lon="9.379452">
        <ele>270.658984</ele>
        <time>2022-07-23T12:58:22.000Z</time>
      </trkpt>
      <trkpt lat="48.893030" lon="9.379308">
        <ele>270.620943</ele>
        <time>2022-07-23T12:58:24.000Z</time>
      </trkpt>
      <trkpt lat="48.893087" lon="9.379158">
        <ele>270.584141</ele>
        <time>2022-07-23T12:58:26.000Z</time>
      </trkpt>
      <trkpt lat="48.893131" lon="9.379007">
        <ele>270.549056</ele>
        <time>2022-07-23T12:58:28.000Z</time>
      </trkpt>
      <trkpt lat="48.893181" lon="9.378859">
        <ele>270.513711</ele>
        <time>2022-07-23T12:58:30.000Z</time>
      </trkpt>
      <trkpt lat="48.893231" lon="9.378715">
        <ele>270.479119</ele>
        <time>2022-07-23T12:58:32.000Z</time>
      </trkpt>
      <trkpt lat="48.893275" lon="9.378563">
        <ele>270.443840</ele>
        <time>2022-07-23T12:58:34.000Z</time>
      </trkpt>
      <trkpt lat="48.893313" lon="9.378410">
        <ele>270.409098</ele>
        <time>2022-07-23T12:58:36.000Z</time>
      </trkpt>
      <trkpt lat="48.893339" lon="9.378251">
        <ele>270.374295</ele>
        <time>2022-07-23T12:58:38.000Z</time>
      </trkpt>
      <trkpt lat="48.893356" lon="9.378089">
        <ele>270.339448</ele>
        <time>2022-07-23T12:58:40.000Z</time>
      </trkpt>
      <trkpt lat="48.893371" lon="9.377923">
        <ele>270.303855</ele>
        <time>2022-07-23T12:58:42.000Z</time>
      </trkpt>
      <trkpt lat="48.893389" lon="9.377752">
        <ele>270.267069</ele>
        <time>2022-07-23T12:58:44.000Z</time>
      </trkpt>
      <trkpt lat="48.893401" lon="9.377580">
        <ele>270.265321</ele>
        <time>2022-07-23T12:58:46.000Z</time>
      </trkpt>
      <trkpt lat="48.893415" lon="9.377407">
        <ele>270.307747</ele>
        <time>2022-07-23T12:58:48.000Z</time>
      </trkpt>
      <trkpt lat="48.893429" lon="9.377234">
        <ele>270.350173</ele>
        <time>2022-07-23T12:58:50.000Z</time>
      </trkpt>
      <trkpt lat="48.893445" lon="9.377072">
        <ele>270.390046</ele>
        <time>2022-07-23T12:58:52.000Z</time>
      </trkpt>
      <trkpt lat="48.893467" lon="9.376897">
        <ele>270.433412</ele>
        <time>2022-07-23T12:58:54.000Z</time>
      </trkpt>
      <trkpt lat="48.893499" lon="9.376713">
        <ele>270.479738</ele>
        <time>2022-07-23T12:58:56.000Z</time>
      </trkpt>
      <trkpt lat="48.893523" lon="9.376531">
        <ele>270.524919</ele>
        <time>2022-07-23T12:58:58.000Z</time>
      </trkpt>
      <trkpt lat="48.893552" lon="9.376367">
        <ele>270.566255</ele>
        <time>2022-07-23T12:59:00.000Z</time>
      </trkpt>
      <trkpt lat="48.893583" lon="9.376214">
        <ele>270.605223</ele>
        <time>2022-07-23T12:59:02.000Z</time>
      </trkpt>
      <trkpt lat="48.893613" lon="9.376064">
        <ele>270.643385</ele>
        <time>2022-07-23T12:59:04.000Z</time>
      </trkpt>
      <trkpt lat="48.893642" lon="9.375908">
        <ele>270.682843</ele>
        <time>2022-07-23T12:59:06.001Z</time>
      </trkpt>
      <trkpt lat="48.893672" lon="9.375752">
        <ele>270.722404</ele>
        <time>2022-07-23T12:59:08.001Z</time>
      </trkpt>
      <trkpt lat="48.893712" lon="9.375601">
        <ele>270.762029</ele>
        <time>2022-07-23T12:59:10.001Z</time>
      </trkpt>
      <trkpt lat="48.893753" lon="9.375448">
        <ele>270.802243</ele>
        <time>2022-07-23T12:59:12.001Z</time>
      </trkpt>
      <trkpt lat="48.893789" lon="9.375296">
        <ele>270.841567</ele>
        <time>2022-07-23T12:59:14.001Z</time>
      </trkpt>
      <trkpt lat="48.893830" lon="9.375145">
        <ele>270.881331</ele>
        <time>2022-07-23T12:59:16.001Z</time>
      </trkpt>
      <trkpt lat="48.893872" lon="9.374999">
        <ele>270.904736</ele>
        <time>2022-07-23T12:59:18.001Z</time>
      </trkpt>
      <trkpt lat="48.893933" lon="9.374877">
        <ele>270.866609</ele>
        <time>2022-07-23T12:59:20.001Z</time>
      </trkpt>
      <trkpt lat="48.894030" lon="9.374833">
        <ele>270.828312</ele>
        <time>2022-07-23T12:59:22.001Z</time>
      </trkpt>
      <trkpt lat="48.894134" lon="9.374798">
        <ele>270.788012</ele>
        <time>2022-07-23T12:59:24.001Z</time>
      </trkpt>
      <trkpt lat="48.894235" lon="9.374732">
        <ele>270.746421</ele>
        <time>2022-07-23T12:59:26.001Z</time>
      </trkpt>
      <trkpt lat="48.894343" lon="9.374673">
        <ele>270.703003</ele>
        <time>2022-07-23T12:59:28.001Z</time>
      </trkpt>
      <trkpt lat="48.894450" lon="9.374611">
        <ele>270.659681</ele>
        <time>2022-07-23T12:59:30.001Z</time>
      </trkpt>
      <trkpt lat="48.894558" lon="9.374544">
        <ele>270.615551</ele>
        <time>2022-07-23T12:59:32.001Z</time>
      </trkpt>
      <trkpt lat="48.894670" lon="9.374493">
        <ele>270.571318</ele>
        <time>2022-07-23T12:59:34.001Z</time>
      </trkpt>
      <trkpt lat="48.894785" lon="9.374459">
        <ele>270.526993</ele>
        <time>2022-07-23T12:59:36.001Z</time>
      </trkpt>
      <trkpt lat="48.894902" lon="9.374422">
        <ele>270.481779</ele>
        <time>2022-07-23T12:59:38.001Z</time>
      </trkpt>
      <trkpt lat="48.895016" lon="9.374383">
        <ele>270.437569</ele>
        <time>2022-07-23T12:59:40.000Z</time>
      </trkpt>
      <trkpt lat="48.895128" lon="9.374344">
        <ele>270.394098</ele>
        <time>2022-07-23T12:59:42.000Z</time>
      </trkpt>
      <trkpt lat="48.895235" lon="9.374287">
        <ele>270.351203</ele>
        <time>2022-07-23T12:59:44.000Z</time>
      </trkpt>
      <trkpt lat="48.895334" lon="9.374203">
        <ele>270.308312</ele>
        <time>2022-07-23T12:59:46.000Z</time>
      </trkpt>
      <trkpt lat="48.895410" lon="9.374095">
        <ele>270.268961</ele>
        <time>2022-07-23T12:59:48.000Z</time>
      </trkpt>
      <trkpt lat="48.895456" lon="9.373960">
        <ele>270.232759</ele>
        <time>2022-07-23T12:59:50.000Z</time>
      </trkpt>
      <trkpt lat="48.895504" lon="9.373828">
        <ele>270.266590</ele>
        <time>2022-07-23T12:59:52.000Z</time>
      </trkpt>
      <trkpt lat="48.895555" lon="9.373693">
        <ele>270.301510</ele>
        <time>2022-07-23T12:59:54.000Z</time>
      </trkpt>
      <trkpt lat="48.895608" lon="9.373560">
        <ele>270.336390</ele>
        <time>2022-07-23T12:59:56.000Z</time>
      </trkpt>
      <trkpt lat="48.895655" lon="9.373414">
        <ele>270.372848</ele>
        <time>2022-07-23T12:59:58.000Z</time>
      </trkpt>
      <trkpt lat="48.895690" lon="9.373260">
        <ele>270.409392</ele>
        <time>2022-07-23T13:00:00.000Z</time>
      </trkpt>
      <trkpt lat="48.895704" lon="9.373094">
        <ele>270.446926</ele>
        <time>2022-07-23T13:00:02.000Z</time>
      </trkpt>
      <trkpt lat="48.895739" lon="9.372952">
        <ele>270.480938</ele>
        <time>2022-07-23T13:00:04.000Z</time>
      </trkpt>
      <trkpt lat="48.895765" lon="9.372800">
        <ele>270.516162</ele>
        <time>2022-07-23T13:00:06.000Z</time>
      </trkpt>
      <trkpt lat="48.895790" lon="9.372646">
        <ele>270.551737</ele>
        <time>2022-07-23T13:00:08.000Z</time>
      </trkpt>
      <trkpt lat="48.895816" lon="9.372488">
        <ele>270.588266</ele>
        <time>2022-07-23T13:00:10.000Z</time>
      </trkpt>
      <trkpt lat="48.895849" lon="9.372331">
        <ele>270.625232</ele>
        <time>2022-07-23T13:00:12.000Z</time>
      </trkpt>
      <trkpt lat="48.895875" lon="9.372171">
        <ele>270.662196</ele>
        <time>2022-07-23T13:00:14.000Z</time>
      </trkpt>
      <trkpt lat="48.895902" lon="9.372013">
        <ele>270.698808</ele>
        <time>2022-07-23T13:00:16.000Z</time>
      </trkpt>
      <trkpt lat="48.895933" lon="9.371847">
        <ele>270.737510</ele>
        <time>2022-07-23T13:00:18.000Z</time>
      </trkpt>
      <trkpt lat="48.895966" lon="9.371675">
        <ele>270.777694</ele>
        <time>2022-07-23T13:00:20.000Z</time>
      </trkpt>
      <trkpt lat="48.895994" lon="9.371505">
        <ele>270.816998</ele>
        <time>2022-07-23T13:00:22.000Z</time>
      </trkpt>
      <trkpt lat="48.896020" lon="9.371334">
        <ele>270.933987</ele>
        <time>2022-07-23T13:00:24.000Z</time>
      </trkpt>
      <trkpt lat="48.896054" lon="9.371161">
        <ele>271.265804</ele>
        <time>2022-07-23T13:00:26.000Z</time>
      </trkpt>
      <trkpt lat="48.896089" lon="9.370991">
        <ele>271.593167</ele>
        <time>2022-07-23T13:00:28.000Z</time>
      </trkpt>
      <trkpt lat="48.896117" lon="9.370831">
        <ele>271.897432</ele>
        <time>2022-07-23T13:00:30.000Z</time>
      </trkpt>
      <trkpt lat="48.896146" lon="9.370671">
        <ele>272.202427</ele>
        <time>2022-07-23T13:00:32.000Z</time>
      </trkpt>
      <trkpt lat="48.896179" lon="9.370509">
        <ele>272.514091</ele>
        <time>2022-07-23T13:00:34.000Z</time>
      </trkpt>
      <trkpt lat="48.896212" lon="9.370357">
        <ele>272.808252</ele>
        <time>2022-07-23T13:00:36.000Z</time>
      </trkpt>
      <trkpt lat="48.896235" lon="9.370212">
        <ele>273.082359</ele>
        <time>2022-07-23T13:00:38.000Z</time>
      </trkpt>
      <trkpt lat="48.896237" lon="9.370021">
        <ele>273.433396</ele>
        <time>2022-07-23T13:00:41.000Z</time>
      </trkpt>
      <trkpt lat="48.896126" lon="9.369918">
        <ele>273.796844</ele>
        <time>2022-07-23T13:00:44.000Z</time>
      </trkpt>
      <trkpt lat="48.896020" lon="9.369825">
        <ele>274.138894</ele>
        <time>2022-07-23T13:00:47.000Z</time>
      </trkpt>
      <trkpt lat="48.895899" lon="9.369727">
        <ele>274.522076</ele>
        <time>2022-07-23T13:00:50.000Z</time>
      </trkpt>
      <trkpt lat="48.895812" lon="9.369654">
        <ele>274.799808</ele>
        <time>2022-07-23T13:00:52.000Z</time>
      </trkpt>
      <trkpt lat="48.895721" lon="9.369574">
        <ele>275.093603</ele>
        <time>2022-07-23T13:00:54.000Z</time>
      </trkpt>
      <trkpt lat="48.895627" lon="9.369488">
        <ele>275.400222</ele>
        <time>2022-07-23T13:00:56.000Z</time>
      </trkpt>
      <trkpt lat="48.895528" lon="9.369402">
        <ele>275.718900</ele>
        <time>2022-07-23T13:00:58.000Z</time>
      </trkpt>
      <trkpt lat="48.895439" lon="9.369330">
        <ele>276.063879</ele>
        <time>2022-07-23T13:01:00.000Z</time>
      </trkpt>
      <trkpt lat="48.895355" lon="9.369262">
        <ele>276.461748</ele>
        <time>2022-07-23T13:01:02.000Z</time>
      </trkpt>
      <trkpt lat="48.895273" lon="9.369188">
        <ele>276.860412</ele>
        <time>2022-07-23T13:01:04.000Z</time>
      </trkpt>
      <trkpt lat="48.895191" lon="9.369109">
        <ele>277.266262</ele>
        <time>2022-07-23T13:01:06.000Z</time>
      </trkpt>
      <trkpt lat="48.895102" lon="9.369033">
        <ele>277.693025</ele>
        <time>2022-07-23T13:01:08.000Z</time>
      </trkpt>
      <trkpt lat="48.895006" lon="9.368946">
        <ele>278.160269</ele>
        <time>2022-07-23T13:01:10.000Z</time>
      </trkpt>
      <trkpt lat="48.894901" lon="9.368865">
        <ele>278.652535</ele>
        <time>2022-07-23T13:01:12.001Z</time>
      </trkpt>
      <trkpt lat="48.894809" lon="9.368770">
        <ele>279.117478</ele>
        <time>2022-07-23T13:01:14.001Z</time>
      </trkpt>
      <trkpt lat="48.894746" lon="9.368660">
        <ele>279.518507</ele>
        <time>2022-07-23T13:01:16.001Z</time>
      </trkpt>
      <trkpt lat="48.894684" lon="9.368494">
        <ele>280.043325</ele>
        <time>2022-07-23T13:01:19.001Z</time>
      </trkpt>
      <trkpt lat="48.894622" lon="9.368335">
        <ele>280.551502</ele>
        <time>2022-07-23T13:01:22.001Z</time>
      </trkpt>
      <trkpt lat="48.894561" lon="9.368169">
        <ele>281.074268</ele>
        <time>2022-07-23T13:01:25.001Z</time>
      </trkpt>
      <trkpt lat="48.894504" lon="9.368017">
        <ele>281.555300</ele>
        <time>2022-07-23T13:01:28.001Z</time>
      </trkpt>
      <trkpt lat="48.894445" lon="9.367864">
        <ele>282.042898</ele>
        <time>2022-07-23T13:01:31.001Z</time>
      </trkpt>
      <trkpt lat="48.894378" lon="9.367702">
        <ele>282.569015</ele>
        <time>2022-07-23T13:01:34.001Z</time>
      </trkpt>
      <trkpt lat="48.894326" lon="9.367589">
        <ele>282.948179</ele>
        <time>2022-07-23T13:01:36.001Z</time>
      </trkpt>
      <trkpt lat="48.894276" lon="9.367465">
        <ele>283.348053</ele>
        <time>2022-07-23T13:01:38.001Z</time>
      </trkpt>
      <trkpt lat="48.894227" lon="9.367330">
        <ele>283.784653</ele>
        <time>2022-07-23T13:01:40.001Z</time>
      </trkpt>
      <trkpt lat="48.894173" lon="9.367193">
        <ele>284.238493</ele>
        <time>2022-07-23T13:01:42.001Z</time>
      </trkpt>
      <trkpt lat="48.894116" lon="9.367052">
        <ele>284.708776</ele>
        <time>2022-07-23T13:01:44.001Z</time>
      </trkpt>
      <trkpt lat="48.894061" lon="9.366907">
        <ele>285.184400</ele>
        <time>2022-07-23T13:01:46.000Z</time>
      </trkpt>
      <trkpt lat="48.894004" lon="9.366763">
        <ele>285.661966</ele>
        <time>2022-07-23T13:01:48.000Z</time>
      </trkpt>
      <trkpt lat="48.893947" lon="9.366621">
        <ele>286.134673</ele>
        <time>2022-07-23T13:01:50.000Z</time>
      </trkpt>
      <trkpt lat="48.893893" lon="9.366479">
        <ele>286.600756</ele>
        <time>2022-07-23T13:01:52.000Z</time>
      </trkpt>
      <trkpt lat="48.893838" lon="9.366338">
        <ele>287.066572</ele>
        <time>2022-07-23T13:01:54.000Z</time>
      </trkpt>
      <trkpt lat="48.893780" lon="9.366198">
        <ele>287.536729</ele>
        <time>2022-07-23T13:01:56.000Z</time>
      </trkpt>
      <trkpt lat="48.893723" lon="9.366057">
        <ele>288.007015</ele>
        <time>2022-07-23T13:01:58.000Z</time>
      </trkpt>
      <trkpt lat="48.893668" lon="9.365914">
        <ele>288.477729</ele>
        <time>2022-07-23T13:02:00.000Z</time>
      </trkpt>
      <trkpt lat="48.893636" lon="9.365766">
        <ele>288.920388</ele>
        <time>2022-07-23T13:02:02.000Z</time>
      </trkpt>
      <trkpt lat="48.893675" lon="9.365637">
        <ele>289.323801</ele>
        <time>2022-07-23T13:02:04.000Z</time>
      </trkpt>
      <trkpt lat="48.893743" lon="9.365535">
        <ele>289.736529</ele>
        <time>2022-07-23T13:02:07.000Z</time>
      </trkpt>
      <trkpt lat="48.893808" lon="9.365433">
        <ele>290.140128</ele>
        <time>2022-07-23T13:02:11.000Z</time>
      </trkpt>
      <trkpt lat="48.893862" lon="9.365324">
        <ele>290.527902</ele>
        <time>2022-07-23T13:02:15.000Z</time>
      </trkpt>
      <trkpt lat="48.893815" lon="9.365180">
        <ele>290.984682</ele>
        <time>2022-07-23T13:02:18.000Z</time>
      </trkpt>
      <trkpt lat="48.893711" lon="9.365070">
        <ele>291.588671</ele>
        <time>2022-07-23T13:02:21.000Z</time>
      </trkpt>
      <trkpt lat="48.893638" lon="9.364977">
        <ele>292.063881</ele>
        <time>2022-07-23T13:02:23.000Z</time>
      </trkpt>
      <trkpt lat="48.893558" lon="9.364873">
        <ele>292.589071</ele>
        <time>2022-07-23T13:02:25.000Z</time>
      </trkpt>
      <trkpt lat="48.893474" lon="9.364771">
        <ele>293.125474</ele>
        <time>2022-07-23T13:02:27.000Z</time>
      </trkpt>
      <trkpt lat="48.893393" lon="9.364680">
        <ele>293.628013</ele>
        <time>2022-07-23T13:02:29.000Z</time>
      </trkpt>
      <trkpt lat="48.893312" lon="9.364585">
        <ele>294.138460</ele>
        <time>2022-07-23T13:02:31.000Z</time>
      </trkpt>
      <trkpt lat="48.893233" lon="9.364488">
        <ele>294.645135</ele>
        <time>2022-07-23T13:02:33.000Z</time>
      </trkpt>
      <trkpt lat="48.893156" lon="9.364395">
        <ele>295.135817</ele>
        <time>2022-07-23T13:02:35.000Z</time>
      </trkpt>
      <trkpt lat="48.893087" lon="9.364306">
        <ele>295.587307</ele>
        <time>2022-07-23T13:02:37.000Z</time>
      </trkpt>
      <trkpt lat="48.892992" lon="9.364197">
        <ele>296.181165</ele>
        <time>2022-07-23T13:02:40.000Z</time>
      </trkpt>
      <trkpt lat="48.892909" lon="9.364105">
        <ele>296.693695</ele>
        <time>2022-07-23T13:02:45.000Z</time>
      </trkpt>
      <trkpt lat="48.892836" lon="9.364020">
        <ele>297.152494</ele>
        <time>2022-07-23T13:02:53.000Z</time>
      </trkpt>
      <trkpt lat="48.892760" lon="9.363870">
        <ele>297.773841</ele>
        <time>2022-07-23T13:02:57.000Z</time>
      </trkpt>
      <trkpt lat="48.892719" lon="9.363726">
        <ele>298.288718</ele>
        <time>2022-07-23T13:03:00.000Z</time>
      </trkpt>
      <trkpt lat="48.892592" lon="9.363657">
        <ele>298.961727</ele>
        <time>2022-07-23T13:03:03.000Z</time>
      </trkpt>
      <trkpt lat="48.892501" lon="9.363639">
        <ele>299.419683</ele>
        <time>2022-07-23T13:03:05.000Z</time>
      </trkpt>
      <trkpt lat="48.892384" lon="9.363569">
        <ele>300.047115</ele>
        <time>2022-07-23T13:03:08.000Z</time>
      </trkpt>
      <trkpt lat="48.892297" lon="9.363505">
        <ele>300.369150</ele>
        <time>2022-07-23T13:03:10.000Z</time>
      </trkpt>
      <trkpt lat="48.892199" lon="9.363438">
        <ele>300.683133</ele>
        <time>2022-07-23T13:03:12.000Z</time>
      </trkpt>
      <trkpt lat="48.892098" lon="9.363363">
        <ele>301.011580</ele>
        <time>2022-07-23T13:03:14.000Z</time>
      </trkpt>
      <trkpt lat="48.891988" lon="9.363285">
        <ele>301.366246</ele>
        <time>2022-07-23T13:03:16.000Z</time>
      </trkpt>
      <trkpt lat="48.891875" lon="9.363200">
        <ele>301.734639</ele>
        <time>2022-07-23T13:03:18.001Z</time>
      </trkpt>
      <trkpt lat="48.891770" lon="9.363117">
        <ele>302.080442</ele>
        <time>2022-07-23T13:03:20.001Z</time>
      </trkpt>
      <trkpt lat="48.891672" lon="9.363043">
        <ele>302.400175</ele>
        <time>2022-07-23T13:03:22.001Z</time>
      </trkpt>
      <trkpt lat="48.891575" lon="9.362974">
        <ele>302.713104</ele>
        <time>2022-07-23T13:03:24.001Z</time>
      </trkpt>
      <trkpt lat="48.891477" lon="9.362900">
        <ele>303.032837</ele>
        <time>2022-07-23T13:03:26.001Z</time>
      </trkpt>
      <trkpt lat="48.891378" lon="9.362818">
        <ele>303.362259</ele>
        <time>2022-07-23T13:03:28.001Z</time>
      </trkpt>
      <trkpt lat="48.891273" lon="9.362742">
        <ele>303.702071</ele>
        <time>2022-07-23T13:03:30.001Z</time>
      </trkpt>
      <trkpt lat="48.891164" lon="9.362669">
        <ele>304.050110</ele>
        <time>2022-07-23T13:03:32.001Z</time>
      </trkpt>
      <trkpt lat="48.891054" lon="9.362591">
        <ele>304.404778</ele>
        <time>2022-07-23T13:03:34.001Z</time>
      </trkpt>
      <trkpt lat="48.890946" lon="9.362505">
        <ele>304.761021</ele>
        <time>2022-07-23T13:03:36.001Z</time>
      </trkpt>
      <trkpt lat="48.890835" lon="9.362417">
        <ele>305.126814</ele>
        <time>2022-07-23T13:03:38.001Z</time>
      </trkpt>
      <trkpt lat="48.890722" lon="9.362333">
        <ele>305.340624</ele>
        <time>2022-07-23T13:03:40.001Z</time>
      </trkpt>
      <trkpt lat="48.890609" lon="9.362249">
        <ele>305.116710</ele>
        <time>2022-07-23T13:03:42.001Z</time>
      </trkpt>
      <trkpt lat="48.890496" lon="9.362167">
        <ele>304.893813</ele>
        <time>2022-07-23T13:03:44.001Z</time>
      </trkpt>
      <trkpt lat="48.890386" lon="9.362087">
        <ele>304.676744</ele>
        <time>2022-07-23T13:03:46.001Z</time>
      </trkpt>
      <trkpt lat="48.890281" lon="9.362012">
        <ele>304.470226</ele>
        <time>2022-07-23T13:03:48.001Z</time>
      </trkpt>
      <trkpt lat="48.890173" lon="9.361931">
        <ele>304.255849</ele>
        <time>2022-07-23T13:03:50.001Z</time>
      </trkpt>
      <trkpt lat="48.890067" lon="9.361848">
        <ele>304.043598</ele>
        <time>2022-07-23T13:03:52.000Z</time>
      </trkpt>
      <trkpt lat="48.889958" lon="9.361763">
        <ele>303.825526</ele>
        <time>2022-07-23T13:03:54.000Z</time>
      </trkpt>
      <trkpt lat="48.889844" lon="9.361682">
        <ele>303.601519</ele>
        <time>2022-07-23T13:03:56.000Z</time>
      </trkpt>
      <trkpt lat="48.889735" lon="9.361599">
        <ele>303.384506</ele>
        <time>2022-07-23T13:03:58.000Z</time>
      </trkpt>
      <trkpt lat="48.889628" lon="9.361513">
        <ele>303.169051</ele>
        <time>2022-07-23T13:04:00.000Z</time>
      </trkpt>
      <trkpt lat="48.889511" lon="9.361427">
        <ele>302.937708</ele>
        <time>2022-07-23T13:04:02.000Z</time>
      </trkpt>
      <trkpt lat="48.889394" lon="9.361339">
        <ele>302.705336</ele>
        <time>2022-07-23T13:04:04.000Z</time>
      </trkpt>
      <trkpt lat="48.889288" lon="9.361256">
        <ele>302.493084</ele>
        <time>2022-07-23T13:04:06.000Z</time>
      </trkpt>
      <trkpt lat="48.889191" lon="9.361178">
        <ele>302.297745</ele>
        <time>2022-07-23T13:04:08.000Z</time>
      </trkpt>
      <trkpt lat="48.889090" lon="9.361095">
        <ele>302.147715</ele>
        <time>2022-07-23T13:04:10.000Z</time>
      </trkpt>
      <trkpt lat="48.888987" lon="9.361010">
        <ele>302.048779</ele>
        <time>2022-07-23T13:04:12.000Z</time>
      </trkpt>
      <trkpt lat="48.888888" lon="9.360923">
        <ele>301.952247</ele>
        <time>2022-07-23T13:04:14.000Z</time>
      </trkpt>
      <trkpt lat="48.888794" lon="9.360834">
        <ele>301.858764</ele>
        <time>2022-07-23T13:04:16.000Z</time>
      </trkpt>
      <trkpt lat="48.888701" lon="9.360746">
        <ele>301.766291</ele>
        <time>2022-07-23T13:04:18.000Z</time>
      </trkpt>
      <trkpt lat="48.888605" lon="9.360655">
        <ele>301.670788</ele>
        <time>2022-07-23T13:04:20.000Z</time>
      </trkpt>
      <trkpt lat="48.888508" lon="9.360559">
        <ele>301.573082</ele>
        <time>2022-07-23T13:04:22.000Z</time>
      </trkpt>
      <trkpt lat="48.888415" lon="9.360453">
        <ele>301.474963</ele>
        <time>2022-07-23T13:04:24.000Z</time>
      </trkpt>
      <trkpt lat="48.888316" lon="9.360348">
        <ele>301.373063</ele>
        <time>2022-07-23T13:04:26.000Z</time>
      </trkpt>
      <trkpt lat="48.888217" lon="9.360244">
        <ele>301.271481</ele>
        <time>2022-07-23T13:04:28.000Z</time>
      </trkpt>
      <trkpt lat="48.888119" lon="9.360139">
        <ele>301.170272</ele>
        <time>2022-07-23T13:04:30.000Z</time>
      </trkpt>
      <trkpt lat="48.888022" lon="9.360033">
        <ele>301.069430</ele>
        <time>2022-07-23T13:04:32.000Z</time>
      </trkpt>
      <trkpt lat="48.887924" lon="9.359925">
        <ele>300.967254</ele>
        <time>2022-07-23T13:04:34.000Z</time>
      </trkpt>
      <trkpt lat="48.887826" lon="9.359818">
        <ele>300.865402</ele>
        <time>2022-07-23T13:04:36.000Z</time>
      </trkpt>
      <trkpt lat="48.887728" lon="9.359713">
        <ele>300.764194</ele>
        <time>2022-07-23T13:04:38.000Z</time>
      </trkpt>
      <trkpt lat="48.887629" lon="9.359606">
        <ele>300.639314</ele>
        <time>2022-07-23T13:04:40.000Z</time>
      </trkpt>
      <trkpt lat="48.887531" lon="9.359494">
        <ele>300.396141</ele>
        <time>2022-07-23T13:04:42.000Z</time>
      </trkpt>
      <trkpt lat="48.887435" lon="9.359383">
        <ele>300.156919</ele>
        <time>2022-07-23T13:04:44.000Z</time>
      </trkpt>
      <trkpt lat="48.887339" lon="9.359270">
        <ele>299.916110</ele>
        <time>2022-07-23T13:04:46.000Z</time>
      </trkpt>
      <trkpt lat="48.887245" lon="9.359163">
        <ele>299.683197</ele>
        <time>2022-07-23T13:04:48.000Z</time>
      </trkpt>
      <trkpt lat="48.887151" lon="9.359060">
        <ele>299.453373</ele>
        <time>2022-07-23T13:04:50.000Z</time>
      </trkpt>
      <trkpt lat="48.887057" lon="9.358957">
        <ele>299.223548</ele>
        <time>2022-07-23T13:04:52.000Z</time>
      </trkpt>
      <trkpt lat="48.886962" lon="9.358857">
        <ele>298.994361</ele>
        <time>2022-07-23T13:04:54.000Z</time>
      </trkpt>
      <trkpt lat="48.886867" lon="9.358747">
        <ele>298.757506</ele>
        <time>2022-07-23T13:04:56.000Z</time>
      </trkpt>
      <trkpt lat="48.886776" lon="9.358631">
        <ele>298.521966</ele>
        <time>2022-07-23T13:04:58.000Z</time>
      </trkpt>
      <trkpt lat="48.886676" lon="9.358511">
        <ele>298.269281</ele>
        <time>2022-07-23T13:05:00.000Z</time>
      </trkpt>
      <trkpt lat="48.886573" lon="9.358399">
        <ele>298.018106</ele>
        <time>2022-07-23T13:05:02.000Z</time>
      </trkpt>
      <trkpt lat="48.886466" lon="9.358278">
        <ele>297.753603</ele>
        <time>2022-07-23T13:05:04.000Z</time>
      </trkpt>
      <trkpt lat="48.886359" lon="9.358154">
        <ele>297.486746</ele>
        <time>2022-07-23T13:05:06.000Z</time>
      </trkpt>
      <trkpt lat="48.886252" lon="9.358028">
        <ele>297.218300</ele>
        <time>2022-07-23T13:05:08.000Z</time>
      </trkpt>
      <trkpt lat="48.886144" lon="9.357900">
        <ele>296.852451</ele>
        <time>2022-07-23T13:05:10.000Z</time>
      </trkpt>
      <trkpt lat="48.886038" lon="9.357765">
        <ele>296.420188</ele>
        <time>2022-07-23T13:05:12.000Z</time>
      </trkpt>
      <trkpt lat="48.885936" lon="9.357624">
        <ele>295.989238</ele>
        <time>2022-07-23T13:05:14.000Z</time>
      </trkpt>
      <trkpt lat="48.885833" lon="9.357487">
        <ele>295.561427</ele>
        <time>2022-07-23T13:05:16.000Z</time>
      </trkpt>
      <trkpt lat="48.885734" lon="9.357346">
        <ele>295.137370</ele>
        <time>2022-07-23T13:05:18.000Z</time>
      </trkpt>
      <trkpt lat="48.885639" lon="9.357202">
        <ele>294.718022</ele>
        <time>2022-07-23T13:05:20.001Z</time>
      </trkpt>
      <trkpt lat="48.885542" lon="9.357064">
        <ele>294.302744</ele>
        <time>2022-07-23T13:05:22.001Z</time>
      </trkpt>
      <trkpt lat="48.885453" lon="9.356926">
        <ele>293.905362</ele>
        <time>2022-07-23T13:05:24.001Z</time>
      </trkpt>
      <trkpt lat="48.885371" lon="9.356795">
        <ele>293.533538</ele>
        <time>2022-07-23T13:05:26.001Z</time>
      </trkpt>
      <trkpt lat="48.885288" lon="9.356667">
        <ele>293.163967</ele>
        <time>2022-07-23T13:05:28.001Z</time>
      </trkpt>
      <trkpt lat="48.885209" lon="9.356535">
        <ele>292.797027</ele>
        <time>2022-07-23T13:05:30.001Z</time>
      </trkpt>
      <trkpt lat="48.885129" lon="9.356393">
        <ele>292.412606</ele>
        <time>2022-07-23T13:05:32.001Z</time>
      </trkpt>
      <trkpt lat="48.885050" lon="9.356251">
        <ele>292.030212</ele>
        <time>2022-07-23T13:05:34.001Z</time>
      </trkpt>
      <trkpt lat="48.884971" lon="9.356113">
        <ele>291.654057</ele>
        <time>2022-07-23T13:05:36.001Z</time>
      </trkpt>
      <trkpt lat="48.884893" lon="9.355976">
        <ele>291.612252</ele>
        <time>2022-07-23T13:05:38.001Z</time>
      </trkpt>
      <trkpt lat="48.884816" lon="9.355841">
        <ele>291.836300</ele>
        <time>2022-07-23T13:05:40.001Z</time>
      </trkpt>
      <trkpt lat="48.884741" lon="9.355704">
        <ele>292.059789</ele>
        <time>2022-07-23T13:05:42.001Z</time>
      </trkpt>
      <trkpt lat="48.884666" lon="9.355568">
        <ele>292.282317</ele>
        <time>2022-07-23T13:05:44.001Z</time>
      </trkpt>
      <trkpt lat="48.884588" lon="9.355432">
        <ele>292.508563</ele>
        <time>2022-07-23T13:05:46.001Z</time>
      </trkpt>
      <trkpt lat="48.884515" lon="9.355291">
        <ele>292.733551</ele>
        <time>2022-07-23T13:05:48.001Z</time>
      </trkpt>
      <trkpt lat="48.884439" lon="9.355157">
        <ele>292.955404</ele>
        <time>2022-07-23T13:05:50.001Z</time>
      </trkpt>
      <trkpt lat="48.884358" lon="9.355024">
        <ele>293.182677</ele>
        <time>2022-07-23T13:05:52.001Z</time>
      </trkpt>
      <trkpt lat="48.884284" lon="9.354885">
        <ele>293.406896</ele>
        <time>2022-07-23T13:05:54.001Z</time>
      </trkpt>
      <trkpt lat="48.884208" lon="9.354746">
        <ele>293.633534</ele>
        <time>2022-07-23T13:05:56.001Z</time>
      </trkpt>
      <trkpt lat="48.884131" lon="9.354607">
        <ele>293.861395</ele>
        <time>2022-07-23T13:05:58.000Z</time>
      </trkpt>
      <trkpt lat="48.884055" lon="9.354472">
        <ele>294.084201</ele>
        <time>2022-07-23T13:06:00.000Z</time>
      </trkpt>
      <trkpt lat="48.883979" lon="9.354337">
        <ele>294.307006</ele>
        <time>2022-07-23T13:06:02.000Z</time>
      </trkpt>
      <trkpt lat="48.883900" lon="9.354202">
        <ele>294.533573</ele>
        <time>2022-07-23T13:06:04.000Z</time>
      </trkpt>
      <trkpt lat="48.883824" lon="9.354062">
        <ele>294.761177</ele>
        <time>2022-07-23T13:06:06.000Z</time>
      </trkpt>
      <trkpt lat="48.883745" lon="9.353928">
        <ele>294.885813</ele>
        <time>2022-07-23T13:06:08.000Z</time>
      </trkpt>
      <trkpt lat="48.883665" lon="9.353793">
        <ele>294.787834</ele>
        <time>2022-07-23T13:06:10.000Z</time>
      </trkpt>
      <trkpt lat="48.883583" lon="9.353659">
        <ele>294.689144</ele>
        <time>2022-07-23T13:06:12.000Z</time>
      </trkpt>
      <trkpt lat="48.883500" lon="9.353530">
        <ele>294.591839</ele>
        <time>2022-07-23T13:06:14.000Z</time>
      </trkpt>
      <trkpt lat="48.883411" lon="9.353402">
        <ele>294.491404</ele>
        <time>2022-07-23T13:06:16.000Z</time>
      </trkpt>
      <trkpt lat="48.883320" lon="9.353273">
        <ele>294.389403</ele>
        <time>2022-07-23T13:06:18.000Z</time>
      </trkpt>
      <trkpt lat="48.883226" lon="9.353152">
        <ele>294.288429</ele>
        <time>2022-07-23T13:06:20.000Z</time>
      </trkpt>
      <trkpt lat="48.883128" lon="9.353034">
        <ele>294.185942</ele>
        <time>2022-07-23T13:06:22.000Z</time>
      </trkpt>
      <trkpt lat="48.883027" lon="9.352916">
        <ele>294.081515</ele>
        <time>2022-07-23T13:06:24.000Z</time>
      </trkpt>
      <trkpt lat="48.882923" lon="9.352802">
        <ele>293.976403</ele>
        <time>2022-07-23T13:06:26.000Z</time>
      </trkpt>
      <trkpt lat="48.882820" lon="9.352682">
        <ele>293.870019</ele>
        <time>2022-07-23T13:06:28.000Z</time>
      </trkpt>
      <trkpt lat="48.882723" lon="9.352567">
        <ele>293.769175</ele>
        <time>2022-07-23T13:06:30.000Z</time>
      </trkpt>
      <trkpt lat="48.882622" lon="9.352456">
        <ele>293.667004</ele>
        <time>2022-07-23T13:06:32.000Z</time>
      </trkpt>
      <trkpt lat="48.882521" lon="9.352349">
        <ele>293.566080</ele>
        <time>2022-07-23T13:06:34.000Z</time>
      </trkpt>
      <trkpt lat="48.882416" lon="9.352241">
        <ele>293.462148</ele>
        <time>2022-07-23T13:06:36.000Z</time>
      </trkpt>
      <trkpt lat="48.882310" lon="9.352130">
        <ele>292.981750</ele>
        <time>2022-07-23T13:06:38.000Z</time>
      </trkpt>
      <trkpt lat="48.882208" lon="9.352016">
        <ele>292.419502</ele>
        <time>2022-07-23T13:06:40.000Z</time>
      </trkpt>
      <trkpt lat="48.882106" lon="9.351903">
        <ele>291.858980</ele>
        <time>2022-07-23T13:06:42.000Z</time>
      </trkpt>
      <trkpt lat="48.882003" lon="9.351800">
        <ele>291.311437</ele>
        <time>2022-07-23T13:06:44.000Z</time>
      </trkpt>
      <trkpt lat="48.881898" lon="9.351698">
        <ele>290.758029</ele>
        <time>2022-07-23T13:06:46.000Z</time>
      </trkpt>
      <trkpt lat="48.881794" lon="9.351592">
        <ele>290.201938</ele>
        <time>2022-07-23T13:06:48.000Z</time>
      </trkpt>
      <trkpt lat="48.881694" lon="9.351483">
        <ele>289.655457</ele>
        <time>2022-07-23T13:06:50.000Z</time>
      </trkpt>
      <trkpt lat="48.881593" lon="9.351380">
        <ele>289.115314</ele>
        <time>2022-07-23T13:06:52.000Z</time>
      </trkpt>
      <trkpt lat="48.881492" lon="9.351280">
        <ele>288.580001</ele>
        <time>2022-07-23T13:06:54.000Z</time>
      </trkpt>
      <trkpt lat="48.881390" lon="9.351182">
        <ele>288.044103</ele>
        <time>2022-07-23T13:06:56.000Z</time>
      </trkpt>
      <trkpt lat="48.881286" lon="9.351088">
        <ele>287.506737</ele>
        <time>2022-07-23T13:06:58.000Z</time>
      </trkpt>
      <trkpt lat="48.881186" lon="9.350999">
        <ele>286.992093</ele>
        <time>2022-07-23T13:07:00.000Z</time>
      </trkpt>
      <trkpt lat="48.881082" lon="9.350917">
        <ele>286.471762</ele>
        <time>2022-07-23T13:07:02.000Z</time>
      </trkpt>
      <trkpt lat="48.880970" lon="9.350842">
        <ele>285.928202</ele>
        <time>2022-07-23T13:07:04.000Z</time>
      </trkpt>
      <trkpt lat="48.880859" lon="9.350763">
        <ele>285.392738</ele>
        <time>2022-07-23T13:07:06.000Z</time>
      </trkpt>
      <trkpt lat="48.880751" lon="9.350694">
        <ele>284.939646</ele>
        <time>2022-07-23T13:07:08.000Z</time>
      </trkpt>
      <trkpt lat="48.880646" lon="9.350613">
        <ele>284.484257</ele>
        <time>2022-07-23T13:07:10.000Z</time>
      </trkpt>
      <trkpt lat="48.880569" lon="9.350482">
        <ele>284.037352</ele>
        <time>2022-07-23T13:07:12.000Z</time>
      </trkpt>
      <trkpt lat="48.880481" lon="9.350397">
        <ele>283.634124</ele>
        <time>2022-07-23T13:07:14.000Z</time>
      </trkpt>
      <trkpt lat="48.880370" lon="9.350418">
        <ele>283.201490</ele>
        <time>2022-07-23T13:07:16.000Z</time>
      </trkpt>
      <trkpt lat="48.880257" lon="9.350441">
        <ele>282.760533</ele>
        <time>2022-07-23T13:07:18.000Z</time>
      </trkpt>
      <trkpt lat="48.880146" lon="9.350421">
        <ele>282.328205</ele>
        <time>2022-07-23T13:07:20.000Z</time>
      </trkpt>
      <trkpt lat="48.880030" lon="9.350388">
        <ele>281.871758</ele>
        <time>2022-07-23T13:07:22.000Z</time>
      </trkpt>
      <trkpt lat="48.879914" lon="9.350357">
        <ele>281.416218</ele>
        <time>2022-07-23T13:07:24.000Z</time>
      </trkpt>
      <trkpt lat="48.879807" lon="9.350313">
        <ele>280.987499</ele>
        <time>2022-07-23T13:07:26.000Z</time>
      </trkpt>
      <trkpt lat="48.879692" lon="9.350284">
        <ele>280.536629</ele>
        <time>2022-07-23T13:07:28.000Z</time>
      </trkpt>
      <trkpt lat="48.879575" lon="9.350242">
        <ele>280.071659</ele>
        <time>2022-07-23T13:07:30.000Z</time>
      </trkpt>
      <trkpt lat="48.879456" lon="9.350201">
        <ele>279.599726</ele>
        <time>2022-07-23T13:07:32.000Z</time>
      </trkpt>
      <trkpt lat="48.879343" lon="9.350147">
        <ele>279.141590</ele>
        <time>2022-07-23T13:07:34.001Z</time>
      </trkpt>
      <trkpt lat="48.879237" lon="9.350077">
        <ele>278.694610</ele>
        <time>2022-07-23T13:07:36.001Z</time>
      </trkpt>
      <trkpt lat="48.879135" lon="9.350006">
        <ele>278.176377</ele>
        <time>2022-07-23T13:07:38.001Z</time>
      </trkpt>
      <trkpt lat="48.879034" lon="9.349937">
        <ele>277.594487</ele>
        <time>2022-07-23T13:07:40.001Z</time>
      </trkpt>
      <trkpt lat="48.878932" lon="9.349865">
        <ele>277.003508</ele>
        <time>2022-07-23T13:07:42.001Z</time>
      </trkpt>
      <trkpt lat="48.878832" lon="9.349759">
        <ele>276.362893</ele>
        <time>2022-07-23T13:07:44.001Z</time>
      </trkpt>
      <trkpt lat="48.878716" lon="9.349688">
        <ele>275.705750</ele>
        <time>2022-07-23T13:07:46.001Z</time>
      </trkpt>
      <trkpt lat="48.878610" lon="9.349616">
        <ele>275.095640</ele>
        <time>2022-07-23T13:07:48.001Z</time>
      </trkpt>
      <trkpt lat="48.878505" lon="9.349540">
        <ele>274.484511</ele>
        <time>2022-07-23T13:07:50.001Z</time>
      </trkpt>
      <trkpt lat="48.878398" lon="9.349481">
        <ele>273.886368</ele>
        <time>2022-07-23T13:07:52.001Z</time>
      </trkpt>
      <trkpt lat="48.878295" lon="9.349426">
        <ele>273.312670</ele>
        <time>2022-07-23T13:07:54.001Z</time>
      </trkpt>
      <trkpt lat="48.878191" lon="9.349385">
        <ele>272.748053</ele>
        <time>2022-07-23T13:07:56.001Z</time>
      </trkpt>
      <trkpt lat="48.878091" lon="9.349367">
        <ele>272.218859</ele>
        <time>2022-07-23T13:07:58.001Z</time>
      </trkpt>
      <trkpt lat="48.877994" lon="9.349357">
        <ele>271.707929</ele>
        <time>2022-07-23T13:08:00.001Z</time>
      </trkpt>
      <trkpt lat="48.877897" lon="9.349360">
        <ele>271.198065</ele>
        <time>2022-07-23T13:08:02.001Z</time>
      </trkpt>
      <trkpt lat="48.877799" lon="9.349327">
        <ele>270.670573</ele>
        <time>2022-07-23T13:08:04.000Z</time>
      </trkpt>
      <trkpt lat="48.877704" lon="9.349246">
        <ele>270.098189</ele>
        <time>2022-07-23T13:08:06.000Z</time>
      </trkpt>
      <trkpt lat="48.877602" lon="9.349160">
        <ele>269.485260</ele>
        <time>2022-07-23T13:08:08.000Z</time>
      </trkpt>
      <trkpt lat="48.877500" lon="9.349072">
        <ele>268.923046</ele>
        <time>2022-07-23T13:08:10.000Z</time>
      </trkpt>
      <trkpt lat="48.877400" lon="9.348973">
        <ele>268.490251</ele>
        <time>2022-07-23T13:08:12.000Z</time>
      </trkpt>
      <trkpt lat="48.877299" lon="9.348876">
        <ele>268.056978</ele>
        <time>2022-07-23T13:08:14.000Z</time>
      </trkpt>
      <trkpt lat="48.877202" lon="9.348755">
        <ele>267.601922</ele>
        <time>2022-07-23T13:08:16.000Z</time>
      </trkpt>
      <trkpt lat="48.877117" lon="9.348618">
        <ele>267.152662</ele>
        <time>2022-07-23T13:08:18.000Z</time>
      </trkpt>
      <trkpt lat="48.877063" lon="9.348499">
        <ele>266.807796</ele>
        <time>2022-07-23T13:08:20.000Z</time>
      </trkpt>
      <trkpt lat="48.877022" lon="9.348363">
        <ele>266.450930</ele>
        <time>2022-07-23T13:08:22.000Z</time>
      </trkpt>
      <trkpt lat="48.876984" lon="9.348214">
        <ele>266.069727</ele>
        <time>2022-07-23T13:08:24.000Z</time>
      </trkpt>
      <trkpt lat="48.876951" lon="9.348071">
        <ele>265.708233</ele>
        <time>2022-07-23T13:08:26.000Z</time>
      </trkpt>
      <trkpt lat="48.876937" lon="9.347932">
        <ele>265.372804</ele>
        <time>2022-07-23T13:08:28.000Z</time>
      </trkpt>
      <trkpt lat="48.876927" lon="9.347780">
        <ele>265.008421</ele>
        <time>2022-07-23T13:08:30.000Z</time>
      </trkpt>
      <trkpt lat="48.876911" lon="9.347612">
        <ele>264.603502</ele>
        <time>2022-07-23T13:08:32.000Z</time>
      </trkpt>
      <trkpt lat="48.876899" lon="9.347451">
        <ele>264.217002</ele>
        <time>2022-07-23T13:08:34.000Z</time>
      </trkpt>
      <trkpt lat="48.876885" lon="9.347287">
        <ele>263.822523</ele>
        <time>2022-07-23T13:08:36.000Z</time>
      </trkpt>
      <trkpt lat="48.876868" lon="9.347125">
        <ele>263.431207</ele>
        <time>2022-07-23T13:08:38.000Z</time>
      </trkpt>
      <trkpt lat="48.876862" lon="9.346965">
        <ele>263.048931</ele>
        <time>2022-07-23T13:08:40.000Z</time>
      </trkpt>
      <trkpt lat="48.876850" lon="9.346800">
        <ele>262.652948</ele>
        <time>2022-07-23T13:08:42.000Z</time>
      </trkpt>
      <trkpt lat="48.876839" lon="9.346634">
        <ele>262.512139</ele>
        <time>2022-07-23T13:08:44.000Z</time>
      </trkpt>
      <trkpt lat="48.876826" lon="9.346472">
        <ele>262.500594</ele>
        <time>2022-07-23T13:08:46.000Z</time>
      </trkpt>
      <trkpt lat="48.876805" lon="9.346311">
        <ele>262.488984</ele>
        <time>2022-07-23T13:08:48.000Z</time>
      </trkpt>
      <trkpt lat="48.876762" lon="9.346164">
        <ele>262.477603</ele>
        <time>2022-07-23T13:08:50.000Z</time>
      </trkpt>
      <trkpt lat="48.876690" lon="9.346053">
        <ele>262.466575</ele>
        <time>2022-07-23T13:08:52.000Z</time>
      </trkpt>
      <trkpt lat="48.876597" lon="9.345982">
        <ele>262.455382</ele>
        <time>2022-07-23T13:08:54.000Z</time>
      </trkpt>
      <trkpt lat="48.876497" lon="9.345943">
        <ele>262.444279</ele>
        <time>2022-07-23T13:08:56.000Z</time>
      </trkpt>
      <trkpt lat="48.876396" lon="9.345929">
        <ele>262.433371</ele>
        <time>2022-07-23T13:08:58.000Z</time>
      </trkpt>
      <trkpt lat="48.876297" lon="9.345903">
        <ele>262.422565</ele>
        <time>2022-07-23T13:09:00.000Z</time>
      </trkpt>
      <trkpt lat="48.876193" lon="9.345898">
        <ele>262.411374</ele>
        <time>2022-07-23T13:09:02.000Z</time>
      </trkpt>
      <trkpt lat="48.876083" lon="9.345913">
        <ele>262.399495</ele>
        <time>2022-07-23T13:09:04.000Z</time>
      </trkpt>
      <trkpt lat="48.875975" lon="9.345943">
        <ele>262.387687</ele>
        <time>2022-07-23T13:09:06.000Z</time>
      </trkpt>
      <trkpt lat="48.875864" lon="9.345973">
        <ele>262.375561</ele>
        <time>2022-07-23T13:09:08.000Z</time>
      </trkpt>
      <trkpt lat="48.875753" lon="9.345997">
        <ele>262.363502</ele>
        <time>2022-07-23T13:09:10.000Z</time>
      </trkpt>
      <trkpt lat="48.875639" lon="9.346022">
        <ele>262.351114</ele>
        <time>2022-07-23T13:09:12.000Z</time>
      </trkpt>
      <trkpt lat="48.875528" lon="9.346038">
        <ele>262.339122</ele>
        <time>2022-07-23T13:09:14.000Z</time>
      </trkpt>
      <trkpt lat="48.875417" lon="9.346029">
        <ele>262.327166</ele>
        <time>2022-07-23T13:09:16.000Z</time>
      </trkpt>
      <trkpt lat="48.875309" lon="9.345990">
        <ele>262.966681</ele>
        <time>2022-07-23T13:09:18.000Z</time>
      </trkpt>
      <trkpt lat="48.875214" lon="9.345908">
        <ele>263.631283</ele>
        <time>2022-07-23T13:09:20.000Z</time>
      </trkpt>
      <trkpt lat="48.875126" lon="9.345805">
        <ele>264.306919</ele>
        <time>2022-07-23T13:09:22.000Z</time>
      </trkpt>
      <trkpt lat="48.875054" lon="9.345719">
        <ele>264.863956</ele>
        <time>2022-07-23T13:09:24.000Z</time>
      </trkpt>
      <trkpt lat="48.874955" lon="9.345585">
        <ele>265.670338</ele>
        <time>2022-07-23T13:09:27.000Z</time>
      </trkpt>
      <trkpt lat="48.874896" lon="9.345470">
        <ele>266.253934</ele>
        <time>2022-07-23T13:09:29.000Z</time>
      </trkpt>
      <trkpt lat="48.874864" lon="9.345334">
        <ele>266.831895</ele>
        <time>2022-07-23T13:09:31.000Z</time>
      </trkpt>
      <trkpt lat="48.874808" lon="9.345182">
        <ele>267.529023</ele>
        <time>2022-07-23T13:09:34.000Z</time>
      </trkpt>
      <trkpt lat="48.874719" lon="9.345144">
        <ele>268.091427</ele>
        <time>2022-07-23T13:09:39.000Z</time>
      </trkpt>
      <trkpt lat="48.874655" lon="9.345036">
        <ele>268.673111</ele>
        <time>2022-07-23T13:09:43.001Z</time>
      </trkpt>
      <trkpt lat="48.874609" lon="9.344893">
        <ele>269.310079</ele>
        <time>2022-07-23T13:09:47.001Z</time>
      </trkpt>
      <trkpt lat="48.874546" lon="9.344779">
        <ele>269.905884</ele>
        <time>2022-07-23T13:09:50.001Z</time>
      </trkpt>
      <trkpt lat="48.874480" lon="9.344669">
        <ele>270.501671</ele>
        <time>2022-07-23T13:09:53.001Z</time>
      </trkpt>
      <trkpt lat="48.874392" lon="9.344588">
        <ele>271.127512</ele>
        <time>2022-07-23T13:09:56.001Z</time>
      </trkpt>
      <trkpt lat="48.874298" lon="9.344497">
        <ele>271.805475</ele>
        <time>2022-07-23T13:09:59.001Z</time>
      </trkpt>
      <trkpt lat="48.874196" lon="9.344444">
        <ele>272.461262</ele>
        <time>2022-07-23T13:10:02.001Z</time>
      </trkpt>
      <trkpt lat="48.874085" lon="9.344431">
        <ele>273.138566</ele>
        <time>2022-07-23T13:10:05.001Z</time>
      </trkpt>
      <trkpt lat="48.873974" lon="9.344418">
        <ele>274.045809</ele>
        <time>2022-07-23T13:10:08.001Z</time>
      </trkpt>
      <trkpt lat="48.873866" lon="9.344369">
        <ele>275.019878</ele>
        <time>2022-07-23T13:10:11.000Z</time>
      </trkpt>
      <trkpt lat="48.873760" lon="9.344313">
        <ele>275.989720</ele>
        <time>2022-07-23T13:10:14.000Z</time>
      </trkpt>
      <trkpt lat="48.873649" lon="9.344293">
        <ele>276.955758</ele>
        <time>2022-07-23T13:10:17.000Z</time>
      </trkpt>
      <trkpt lat="48.873539" lon="9.344282">
        <ele>277.908494</ele>
        <time>2022-07-23T13:10:20.000Z</time>
      </trkpt>
      <trkpt lat="48.873428" lon="9.344248">
        <ele>278.887094</ele>
        <time>2022-07-23T13:10:23.000Z</time>
      </trkpt>
      <trkpt lat="48.873319" lon="9.344195">
        <ele>279.876137</ele>
        <time>2022-07-23T13:10:26.000Z</time>
      </trkpt>
      <trkpt lat="48.873212" lon="9.344135">
        <ele>280.861782</ele>
        <time>2022-07-23T13:10:29.000Z</time>
      </trkpt>
      <trkpt lat="48.873102" lon="9.344107">
        <ele>281.825696</ele>
        <time>2022-07-23T13:10:32.000Z</time>
      </trkpt>
      <trkpt lat="48.872989" lon="9.344105">
        <ele>282.802373</ele>
        <time>2022-07-23T13:10:35.000Z</time>
      </trkpt>
      <trkpt lat="48.872877" lon="9.344097">
        <ele>283.771408</ele>
        <time>2022-07-23T13:10:38.000Z</time>
      </trkpt>
      <trkpt lat="48.872768" lon="9.344052">
        <ele>284.747560</ele>
        <time>2022-07-23T13:10:41.000Z</time>
      </trkpt>
      <trkpt lat="48.872660" lon="9.344001">
        <ele>285.724943</ele>
        <time>2022-07-23T13:10:44.000Z</time>
      </trkpt>
      <trkpt lat="48.872546" lon="9.343981">
        <ele>286.716734</ele>
        <time>2022-07-23T13:10:47.000Z</time>
      </trkpt>
      <trkpt lat="48.872433" lon="9.343971">
        <ele>287.694997</ele>
        <time>2022-07-23T13:10:50.000Z</time>
      </trkpt>
      <trkpt lat="48.872320" lon="9.343974">
        <ele>288.671756</ele>
        <time>2022-07-23T13:10:53.000Z</time>
      </trkpt>
      <trkpt lat="48.872210" lon="9.344061">
        <ele>289.495553</ele>
        <time>2022-07-23T13:10:56.000Z</time>
      </trkpt>
      <trkpt lat="48.872108" lon="9.344164">
        <ele>290.271611</ele>
        <time>2022-07-23T13:10:59.000Z</time>
      </trkpt>
      <trkpt lat="48.872006" lon="9.344260">
        <ele>291.031914</ele>
        <time>2022-07-23T13:11:02.000Z</time>
      </trkpt>
      <trkpt lat="48.871903" lon="9.344354">
        <ele>291.793289</ele>
        <time>2022-07-23T13:11:05.000Z</time>
      </trkpt>
      <trkpt lat="48.871801" lon="9.344448">
        <ele>292.549238</ele>
        <time>2022-07-23T13:11:08.000Z</time>
      </trkpt>
      <trkpt lat="48.871701" lon="9.344539">
        <ele>293.287876</ele>
        <time>2022-07-23T13:11:11.000Z</time>
      </trkpt>
      <trkpt lat="48.871602" lon="9.344638">
        <ele>294.038880</ele>
        <time>2022-07-23T13:11:14.000Z</time>
      </trkpt>
      <trkpt lat="48.871502" lon="9.344729">
        <ele>294.777519</ele>
        <time>2022-07-23T13:11:17.000Z</time>
      </trkpt>
      <trkpt lat="48.871399" lon="9.344818">
        <ele>295.528381</ele>
        <time>2022-07-23T13:11:20.000Z</time>
      </trkpt>
      <trkpt lat="48.871291" lon="9.344912">
        <ele>296.317097</ele>
        <time>2022-07-23T13:11:23.000Z</time>
      </trkpt>
      <trkpt lat="48.871178" lon="9.345012">
        <ele>297.145763</ele>
        <time>2022-07-23T13:11:26.000Z</time>
      </trkpt>
      <trkpt lat="48.871067" lon="9.345099">
        <ele>297.937247</ele>
        <time>2022-07-23T13:11:29.000Z</time>
      </trkpt>
      <trkpt lat="48.870977" lon="9.345180">
        <ele>298.600104</ele>
        <time>2022-07-23T13:11:31.000Z</time>
      </trkpt>
      <trkpt lat="48.870875" lon="9.345278">
        <ele>299.364833</ele>
        <time>2022-07-23T13:11:33.000Z</time>
      </trkpt>
      <trkpt lat="48.870776" lon="9.345370">
        <ele>300.100210</ele>
        <time>2022-07-23T13:11:35.000Z</time>
      </trkpt>
      <trkpt lat="48.870662" lon="9.345436">
        <ele>300.540328</ele>
        <time>2022-07-23T13:11:37.000Z</time>
      </trkpt>
      <trkpt lat="48.870537" lon="9.345473">
        <ele>300.940084</ele>
        <time>2022-07-23T13:11:39.000Z</time>
      </trkpt>
      <trkpt lat="48.870421" lon="9.345555">
        <ele>301.341658</ele>
        <time>2022-07-23T13:11:41.000Z</time>
      </trkpt>
      <trkpt lat="48.870312" lon="9.345641">
        <ele>301.727154</ele>
        <time>2022-07-23T13:11:43.000Z</time>
      </trkpt>
      <trkpt lat="48.870199" lon="9.345710">
        <ele>302.109415</ele>
        <time>2022-07-23T13:11:45.000Z</time>
      </trkpt>
      <trkpt lat="48.870082" lon="9.345767">
        <ele>302.495087</ele>
        <time>2022-07-23T13:11:47.000Z</time>
      </trkpt>
      <trkpt lat="48.869971" lon="9.345813">
        <ele>302.856241</ele>
        <time>2022-07-23T13:11:49.000Z</time>
      </trkpt>
      <trkpt lat="48.869862" lon="9.345855">
        <ele>303.209222</ele>
        <time>2022-07-23T13:11:51.000Z</time>
      </trkpt>
      <trkpt lat="48.869757" lon="9.345893">
        <ele>303.548038</ele>
        <time>2022-07-23T13:11:53.000Z</time>
      </trkpt>
      <trkpt lat="48.869650" lon="9.345931">
        <ele>303.892965</ele>
        <time>2022-07-23T13:11:55.000Z</time>
      </trkpt>
      <trkpt lat="48.869542" lon="9.345963">
        <ele>304.238368</ele>
        <time>2022-07-23T13:11:57.001Z</time>
      </trkpt>
      <trkpt lat="48.869433" lon="9.345999">
        <ele>304.588511</ele>
        <time>2022-07-23T13:11:59.001Z</time>
      </trkpt>
      <trkpt lat="48.869322" lon="9.346034">
        <ele>304.944368</ele>
        <time>2022-07-23T13:12:01.001Z</time>
      </trkpt>
      <trkpt lat="48.869211" lon="9.346065">
        <ele>305.298639</ele>
        <time>2022-07-23T13:12:03.001Z</time>
      </trkpt>
      <trkpt lat="48.869114" lon="9.346094">
        <ele>305.608964</ele>
        <time>2022-07-23T13:12:05.001Z</time>
      </trkpt>
      <trkpt lat="48.869021" lon="9.346122">
        <ele>305.923560</ele>
        <time>2022-07-23T13:12:07.001Z</time>
      </trkpt>
      <trkpt lat="48.868926" lon="9.346150">
        <ele>306.337333</ele>
        <time>2022-07-23T13:12:09.001Z</time>
      </trkpt>
      <trkpt lat="48.868795" lon="9.346190">
        <ele>306.908660</ele>
        <time>2022-07-23T13:12:12.001Z</time>
      </trkpt>
      <trkpt lat="48.868698" lon="9.346194">
        <ele>307.323573</ele>
        <time>2022-07-23T13:12:14.001Z</time>
      </trkpt>
      <trkpt lat="48.868595" lon="9.346186">
        <ele>307.764563</ele>
        <time>2022-07-23T13:12:15.999Z</time>
      </trkpt>
      <trkpt lat="48.868491" lon="9.346211">
        <ele>308.214779</ele>
        <time>2022-07-23T13:12:17.999Z</time>
      </trkpt>
      <trkpt lat="48.868395" lon="9.346239">
        <ele>308.632750</ele>
        <time>2022-07-23T13:12:19.999Z</time>
      </trkpt>
      <trkpt lat="48.868299" lon="9.346261">
        <ele>309.047872</ele>
        <time>2022-07-23T13:12:21.999Z</time>
      </trkpt>
      <trkpt lat="48.868199" lon="9.346280">
        <ele>309.478787</ele>
        <time>2022-07-23T13:12:23.999Z</time>
      </trkpt>
      <trkpt lat="48.868101" lon="9.346296">
        <ele>309.900233</ele>
        <time>2022-07-23T13:12:25.999Z</time>
      </trkpt>
      <trkpt lat="48.868008" lon="9.346319">
        <ele>310.303117</ele>
        <time>2022-07-23T13:12:27.999Z</time>
      </trkpt>
      <trkpt lat="48.867915" lon="9.346340">
        <ele>310.705137</ele>
        <time>2022-07-23T13:12:29.999Z</time>
      </trkpt>
      <trkpt lat="48.867821" lon="9.346351">
        <ele>311.108259</ele>
        <time>2022-07-23T13:12:31.999Z</time>
      </trkpt>
      <trkpt lat="48.867724" lon="9.346367">
        <ele>311.525454</ele>
        <time>2022-07-23T13:12:33.999Z</time>
      </trkpt>
      <trkpt lat="48.867631" lon="9.346387">
        <ele>311.927070</ele>
        <time>2022-07-23T13:12:36.000Z</time>
      </trkpt>
      <trkpt lat="48.867537" lon="9.346410">
        <ele>312.334175</ele>
        <time>2022-07-23T13:12:38.000Z</time>
      </trkpt>
      <trkpt lat="48.867437" lon="9.346433">
        <ele>312.766629</ele>
        <time>2022-07-23T13:12:40.000Z</time>
      </trkpt>
      <trkpt lat="48.867332" lon="9.346456">
        <ele>313.220234</ele>
        <time>2022-07-23T13:12:42.000Z</time>
      </trkpt>
      <trkpt lat="48.867225" lon="9.346466">
        <ele>313.653827</ele>
        <time>2022-07-23T13:12:44.000Z</time>
      </trkpt>
      <trkpt lat="48.867115" lon="9.346483">
        <ele>314.035164</ele>
        <time>2022-07-23T13:12:46.000Z</time>
      </trkpt>
      <trkpt lat="48.867003" lon="9.346502">
        <ele>314.423841</ele>
        <time>2022-07-23T13:12:48.000Z</time>
      </trkpt>
      <trkpt lat="48.866890" lon="9.346517">
        <ele>314.815052</ele>
        <time>2022-07-23T13:12:50.000Z</time>
      </trkpt>
      <trkpt lat="48.866772" lon="9.346507">
        <ele>315.222657</ele>
        <time>2022-07-23T13:12:52.000Z</time>
      </trkpt>
      <trkpt lat="48.866659" lon="9.346490">
        <ele>315.614289</ele>
        <time>2022-07-23T13:12:54.000Z</time>
      </trkpt>
      <trkpt lat="48.866550" lon="9.346458">
        <ele>315.997167</ele>
        <time>2022-07-23T13:12:56.000Z</time>
      </trkpt>
      <trkpt lat="48.866446" lon="9.346424">
        <ele>316.364056</ele>
        <time>2022-07-23T13:12:58.000Z</time>
      </trkpt>
      <trkpt lat="48.866344" lon="9.346399">
        <ele>316.720389</ele>
        <time>2022-07-23T13:13:00.000Z</time>
      </trkpt>
      <trkpt lat="48.866243" lon="9.346386">
        <ele>317.069976</ele>
        <time>2022-07-23T13:13:02.000Z</time>
      </trkpt>
      <trkpt lat="48.866136" lon="9.346382">
        <ele>317.439122</ele>
        <time>2022-07-23T13:13:04.000Z</time>
      </trkpt>
      <trkpt lat="48.866031" lon="9.346366">
        <ele>317.803074</ele>
        <time>2022-07-23T13:13:06.000Z</time>
      </trkpt>
      <trkpt lat="48.865925" lon="9.346346">
        <ele>318.171465</ele>
        <time>2022-07-23T13:13:08.000Z</time>
      </trkpt>
      <trkpt lat="48.865818" lon="9.346324">
        <ele>318.543860</ele>
        <time>2022-07-23T13:13:10.000Z</time>
      </trkpt>
      <trkpt lat="48.865710" lon="9.346306">
        <ele>318.918575</ele>
        <time>2022-07-23T13:13:12.000Z</time>
      </trkpt>
      <trkpt lat="48.865601" lon="9.346295">
        <ele>319.295335</ele>
        <time>2022-07-23T13:13:14.000Z</time>
      </trkpt>
      <trkpt lat="48.865496" lon="9.346291">
        <ele>319.657586</ele>
        <time>2022-07-23T13:13:16.000Z</time>
      </trkpt>
      <trkpt lat="48.865404" lon="9.346301">
        <ele>319.451833</ele>
        <time>2022-07-23T13:13:18.000Z</time>
      </trkpt>
      <trkpt lat="48.865287" lon="9.346329">
        <ele>318.895856</ele>
        <time>2022-07-23T13:13:21.000Z</time>
      </trkpt>
      <trkpt lat="48.865193" lon="9.346362">
        <ele>318.442994</ele>
        <time>2022-07-23T13:13:24.000Z</time>
      </trkpt>
      <trkpt lat="48.865088" lon="9.346439">
        <ele>317.895756</ele>
        <time>2022-07-23T13:13:28.000Z</time>
      </trkpt>
      <trkpt lat="48.865000" lon="9.346515">
        <ele>317.420662</ele>
        <time>2022-07-23T13:13:34.000Z</time>
      </trkpt>
      <trkpt lat="48.864904" lon="9.346609">
        <ele>316.884632</ele>
        <time>2022-07-23T13:13:39.000Z</time>
      </trkpt>
      <trkpt lat="48.864840" lon="9.346705">
        <ele>316.462572</ele>
        <time>2022-07-23T13:13:43.000Z</time>
      </trkpt>
      <trkpt lat="48.864736" lon="9.346772">
        <ele>315.932352</ele>
        <time>2022-07-23T13:13:47.000Z</time>
      </trkpt>
      <trkpt lat="48.864629" lon="9.346846">
        <ele>315.380543</ele>
        <time>2022-07-23T13:13:51.000Z</time>
      </trkpt>
      <trkpt lat="48.864542" lon="9.346908">
        <ele>314.929503</ele>
        <time>2022-07-23T13:13:54.000Z</time>
      </trkpt>
      <trkpt lat="48.864453" lon="9.346978">
        <ele>314.459118</ele>
        <time>2022-07-23T13:13:57.000Z</time>
      </trkpt>
      <trkpt lat="48.864358" lon="9.347036">
        <ele>313.978553</ele>
        <time>2022-07-23T13:14:00.001Z</time>
      </trkpt>
      <trkpt lat="48.864255" lon="9.347110">
        <ele>313.443778</ele>
        <time>2022-07-23T13:14:03.001Z</time>
      </trkpt>
      <trkpt lat="48.864154" lon="9.347181">
        <ele>312.921430</ele>
        <time>2022-07-23T13:14:06.001Z</time>
      </trkpt>
      <trkpt lat="48.864050" lon="9.347245">
        <ele>312.394754</ele>
        <time>2022-07-23T13:14:09.001Z</time>
      </trkpt>
      <trkpt lat="48.863939" lon="9.347314">
        <ele>311.831823</ele>
        <time>2022-07-23T13:14:12.001Z</time>
      </trkpt>
      <trkpt lat="48.863827" lon="9.347381">
        <ele>311.249348</ele>
        <time>2022-07-23T13:14:15.001Z</time>
      </trkpt>
      <trkpt lat="48.863709" lon="9.347470">
        <ele>310.384852</ele>
        <time>2022-07-23T13:14:18.001Z</time>
      </trkpt>
      <trkpt lat="48.863592" lon="9.347540">
        <ele>309.559672</ele>
        <time>2022-07-23T13:14:20.999Z</time>
      </trkpt>
      <trkpt lat="48.863478" lon="9.347619">
        <ele>308.737437</ele>
        <time>2022-07-23T13:14:23.999Z</time>
      </trkpt>
      <trkpt lat="48.863354" lon="9.347711">
        <ele>307.831890</ele>
        <time>2022-07-23T13:14:26.999Z</time>
      </trkpt>
      <trkpt lat="48.863248" lon="9.347774">
        <ele>307.084951</ele>
        <time>2022-07-23T13:14:29.000Z</time>
      </trkpt>
      <trkpt lat="48.863140" lon="9.347851">
        <ele>306.302080</ele>
        <time>2022-07-23T13:14:31.000Z</time>
      </trkpt>
      <trkpt lat="48.863024" lon="9.347940">
        <ele>305.449320</ele>
        <time>2022-07-23T13:14:33.000Z</time>
      </trkpt>
      <trkpt lat="48.862918" lon="9.348052">
        <ele>304.602114</ele>
        <time>2022-07-23T13:14:35.000Z</time>
      </trkpt>
      <trkpt lat="48.862831" lon="9.348200">
        <ele>303.745205</ele>
        <time>2022-07-23T13:14:37.000Z</time>
      </trkpt>
      <trkpt lat="48.862752" lon="9.348371">
        <ele>302.843064</ele>
        <time>2022-07-23T13:14:39.000Z</time>
      </trkpt>
      <trkpt lat="48.862659" lon="9.348526">
        <ele>301.937334</ele>
        <time>2022-07-23T13:14:41.000Z</time>
      </trkpt>
      <trkpt lat="48.862545" lon="9.348647">
        <ele>301.024836</ele>
        <time>2022-07-23T13:14:43.000Z</time>
      </trkpt>
      <trkpt lat="48.862427" lon="9.348756">
        <ele>300.118648</ele>
        <time>2022-07-23T13:14:45.000Z</time>
      </trkpt>
      <trkpt lat="48.862308" lon="9.348857">
        <ele>299.565734</ele>
        <time>2022-07-23T13:14:47.000Z</time>
      </trkpt>
      <trkpt lat="48.862185" lon="9.348938">
        <ele>299.749772</ele>
        <time>2022-07-23T13:14:49.000Z</time>
      </trkpt>
      <trkpt lat="48.862060" lon="9.348996">
        <ele>299.929207</ele>
        <time>2022-07-23T13:14:51.000Z</time>
      </trkpt>
      <trkpt lat="48.861940" lon="9.349078">
        <ele>300.109842</ele>
        <time>2022-07-23T13:14:53.000Z</time>
      </trkpt>
      <trkpt lat="48.861825" lon="9.349193">
        <ele>300.298833</ele>
        <time>2022-07-23T13:14:55.000Z</time>
      </trkpt>
      <trkpt lat="48.861709" lon="9.349322">
        <ele>300.496166</ele>
        <time>2022-07-23T13:14:57.000Z</time>
      </trkpt>
      <trkpt lat="48.861592" lon="9.349442">
        <ele>300.689947</ele>
        <time>2022-07-23T13:14:59.000Z</time>
      </trkpt>
      <trkpt lat="48.861477" lon="9.349561">
        <ele>300.880948</ele>
        <time>2022-07-23T13:15:01.000Z</time>
      </trkpt>
      <trkpt lat="48.861359" lon="9.349667">
        <ele>301.069131</ele>
        <time>2022-07-23T13:15:03.000Z</time>
      </trkpt>
      <trkpt lat="48.861250" lon="9.349756">
        <ele>301.239006</ele>
        <time>2022-07-23T13:15:05.000Z</time>
      </trkpt>
      <trkpt lat="48.861143" lon="9.349832">
        <ele>301.401157</ele>
        <time>2022-07-23T13:15:07.000Z</time>
      </trkpt>
      <trkpt lat="48.861033" lon="9.349908">
        <ele>301.567050</ele>
        <time>2022-07-23T13:15:09.000Z</time>
      </trkpt>
      <trkpt lat="48.860921" lon="9.349971">
        <ele>301.731010</ele>
        <time>2022-07-23T13:15:11.000Z</time>
      </trkpt>
      <trkpt lat="48.860813" lon="9.350026">
        <ele>301.887389</ele>
        <time>2022-07-23T13:15:13.000Z</time>
      </trkpt>
      <trkpt lat="48.860706" lon="9.350050">
        <ele>301.946412</ele>
        <time>2022-07-23T13:15:15.000Z</time>
      </trkpt>
      <trkpt lat="48.860588" lon="9.350070">
        <ele>301.865583</ele>
        <time>2022-07-23T13:15:18.000Z</time>
      </trkpt>
      <trkpt lat="48.860486" lon="9.350084">
        <ele>301.795862</ele>
        <time>2022-07-23T13:15:21.000Z</time>
      </trkpt>
      <trkpt lat="48.860361" lon="9.350135">
        <ele>301.707753</ele>
        <time>2022-07-23T13:15:24.000Z</time>
      </trkpt>
      <trkpt lat="48.860242" lon="9.350211">
        <ele>301.619881</ele>
        <time>2022-07-23T13:15:27.000Z</time>
      </trkpt>
      <trkpt lat="48.860124" lon="9.350292">
        <ele>301.531739</ele>
        <time>2022-07-23T13:15:30.000Z</time>
      </trkpt>
      <trkpt lat="48.860009" lon="9.350375">
        <ele>301.445073</ele>
        <time>2022-07-23T13:15:33.000Z</time>
      </trkpt>
      <trkpt lat="48.859891" lon="9.350456">
        <ele>301.356930</ele>
        <time>2022-07-23T13:15:36.000Z</time>
      </trkpt>
      <trkpt lat="48.859800" lon="9.350521">
        <ele>301.288480</ele>
        <time>2022-07-23T13:15:38.000Z</time>
      </trkpt>
      <trkpt lat="48.859701" lon="9.350591">
        <ele>301.214149</ele>
        <time>2022-07-23T13:15:40.000Z</time>
      </trkpt>
      <trkpt lat="48.859605" lon="9.350670">
        <ele>301.139832</ele>
        <time>2022-07-23T13:15:42.000Z</time>
      </trkpt>
      <trkpt lat="48.859513" lon="9.350754">
        <ele>301.066770</ele>
        <time>2022-07-23T13:15:44.000Z</time>
      </trkpt>
      <trkpt lat="48.859425" lon="9.350841">
        <ele>300.995304</ele>
        <time>2022-07-23T13:15:46.000Z</time>
      </trkpt>
      <trkpt lat="48.859342" lon="9.350933">
        <ele>300.925372</ele>
        <time>2022-07-23T13:15:48.000Z</time>
      </trkpt>
      <trkpt lat="48.859248" lon="9.351011">
        <ele>300.852464</ele>
        <time>2022-07-23T13:15:50.000Z</time>
      </trkpt>
      <trkpt lat="48.859154" lon="9.351105">
        <ele>300.775865</ele>
        <time>2022-07-23T13:15:52.000Z</time>
      </trkpt>
      <trkpt lat="48.859063" lon="9.351198">
        <ele>300.891167</ele>
        <time>2022-07-23T13:15:54.000Z</time>
      </trkpt>
      <trkpt lat="48.858963" lon="9.351296">
        <ele>301.115481</ele>
        <time>2022-07-23T13:15:56.000Z</time>
      </trkpt>
      <trkpt lat="48.858862" lon="9.351392">
        <ele>301.340056</ele>
        <time>2022-07-23T13:15:58.000Z</time>
      </trkpt>
      <trkpt lat="48.858758" lon="9.351499">
        <ele>301.576815</ele>
        <time>2022-07-23T13:16:00.001Z</time>
      </trkpt>
      <trkpt lat="48.858648" lon="9.351612">
        <ele>301.827114</ele>
        <time>2022-07-23T13:16:02.001Z</time>
      </trkpt>
      <trkpt lat="48.858536" lon="9.351730">
        <ele>302.084028</ele>
        <time>2022-07-23T13:16:04.001Z</time>
      </trkpt>
      <trkpt lat="48.858428" lon="9.351848">
        <ele>302.334781</ele>
        <time>2022-07-23T13:16:06.001Z</time>
      </trkpt>
      <trkpt lat="48.858329" lon="9.351957">
        <ele>302.565242</ele>
        <time>2022-07-23T13:16:08.001Z</time>
      </trkpt>
      <trkpt lat="48.858232" lon="9.352064">
        <ele>302.791195</ele>
        <time>2022-07-23T13:16:10.001Z</time>
      </trkpt>
      <trkpt lat="48.858139" lon="9.352170">
        <ele>303.010344</ele>
        <time>2022-07-23T13:16:12.001Z</time>
      </trkpt>
      <trkpt lat="48.858043" lon="9.352268">
        <ele>303.228359</ele>
        <time>2022-07-23T13:16:14.001Z</time>
      </trkpt>
      <trkpt lat="48.857952" lon="9.352368">
        <ele>303.440059</ele>
        <time>2022-07-23T13:16:16.001Z</time>
      </trkpt>
      <trkpt lat="48.857860" lon="9.352462">
        <ele>303.649047</ele>
        <time>2022-07-23T13:16:18.001Z</time>
      </trkpt>
      <trkpt lat="48.857765" lon="9.352564">
        <ele>303.868325</ele>
        <time>2022-07-23T13:16:20.001Z</time>
      </trkpt>
      <trkpt lat="48.857670" lon="9.352659">
        <ele>304.082710</ele>
        <time>2022-07-23T13:16:22.001Z</time>
      </trkpt>
      <trkpt lat="48.857576" lon="9.352762">
        <ele>304.766029</ele>
        <time>2022-07-23T13:16:24.001Z</time>
      </trkpt>
      <trkpt lat="48.857481" lon="9.352868">
        <ele>305.639068</ele>
        <time>2022-07-23T13:16:26.001Z</time>
      </trkpt>
      <trkpt lat="48.857384" lon="9.352974">
        <ele>306.524095</ele>
        <time>2022-07-23T13:16:28.000Z</time>
      </trkpt>
      <trkpt lat="48.857273" lon="9.353062">
        <ele>307.451524</ele>
        <time>2022-07-23T13:16:30.000Z</time>
      </trkpt>
      <trkpt lat="48.857150" lon="9.353127">
        <ele>308.416213</ele>
        <time>2022-07-23T13:16:32.000Z</time>
      </trkpt>
      <trkpt lat="48.857021" lon="9.353155">
        <ele>309.381542</ele>
        <time>2022-07-23T13:16:34.000Z</time>
      </trkpt>
      <trkpt lat="48.856892" lon="9.353151">
        <ele>310.337374</ele>
        <time>2022-07-23T13:16:36.000Z</time>
      </trkpt>
      <trkpt lat="48.856774" lon="9.353146">
        <ele>311.211858</ele>
        <time>2022-07-23T13:16:38.000Z</time>
      </trkpt>
      <trkpt lat="48.856659" lon="9.353137">
        <ele>312.064907</ele>
        <time>2022-07-23T13:16:40.000Z</time>
      </trkpt>
      <trkpt lat="48.856538" lon="9.353142">
        <ele>312.961607</ele>
        <time>2022-07-23T13:16:42.000Z</time>
      </trkpt>
      <trkpt lat="48.856425" lon="9.353140">
        <ele>313.798769</ele>
        <time>2022-07-23T13:16:44.000Z</time>
      </trkpt>
      <trkpt lat="48.856311" lon="9.353140">
        <ele>314.643281</ele>
        <time>2022-07-23T13:16:46.000Z</time>
      </trkpt>
      <trkpt lat="48.856199" lon="9.353144">
        <ele>315.473207</ele>
        <time>2022-07-23T13:16:48.000Z</time>
      </trkpt>
      <trkpt lat="48.856092" lon="9.353168">
        <ele>316.274449</ele>
        <time>2022-07-23T13:16:50.000Z</time>
      </trkpt>
      <trkpt lat="48.855989" lon="9.353196">
        <ele>317.049583</ele>
        <time>2022-07-23T13:16:52.000Z</time>
      </trkpt>
      <trkpt lat="48.855892" lon="9.353241">
        <ele>317.623394</ele>
        <time>2022-07-23T13:16:54.000Z</time>
      </trkpt>
      <trkpt lat="48.855803" lon="9.353296">
        <ele>317.956935</ele>
        <time>2022-07-23T13:16:56.000Z</time>
      </trkpt>
      <trkpt lat="48.855709" lon="9.353366">
        <ele>318.320337</ele>
        <time>2022-07-23T13:16:58.000Z</time>
      </trkpt>
      <trkpt lat="48.855631" lon="9.353449">
        <ele>318.650898</ele>
        <time>2022-07-23T13:17:00.000Z</time>
      </trkpt>
      <trkpt lat="48.855562" lon="9.353549">
        <ele>318.981892</ele>
        <time>2022-07-23T13:17:02.000Z</time>
      </trkpt>
      <trkpt lat="48.855517" lon="9.353679">
        <ele>319.317427</ele>
        <time>2022-07-23T13:17:04.000Z</time>
      </trkpt>
      <trkpt lat="48.855471" lon="9.353807">
        <ele>319.650576</ele>
        <time>2022-07-23T13:17:06.000Z</time>
      </trkpt>
      <trkpt lat="48.855439" lon="9.353938">
        <ele>319.969765</ele>
        <time>2022-07-23T13:17:08.000Z</time>
      </trkpt>
      <trkpt lat="48.855369" lon="9.354069">
        <ele>320.355247</ele>
        <time>2022-07-23T13:17:11.000Z</time>
      </trkpt>
      <trkpt lat="48.855296" lon="9.353984">
        <ele>320.674503</ele>
        <time>2022-07-23T13:17:13.000Z</time>
      </trkpt>
      <trkpt lat="48.855244" lon="9.353842">
        <ele>321.045716</ele>
        <time>2022-07-23T13:17:15.000Z</time>
      </trkpt>
      <trkpt lat="48.855165" lon="9.353684">
        <ele>321.499007</ele>
        <time>2022-07-23T13:17:17.000Z</time>
      </trkpt>
      <trkpt lat="48.855096" lon="9.353527">
        <ele>321.930275</ele>
        <time>2022-07-23T13:17:19.000Z</time>
      </trkpt>
      <trkpt lat="48.855024" lon="9.353376">
        <ele>322.356243</ele>
        <time>2022-07-23T13:17:21.000Z</time>
      </trkpt>
      <trkpt lat="48.854952" lon="9.353247">
        <ele>322.742647</ele>
        <time>2022-07-23T13:17:23.000Z</time>
      </trkpt>
      <trkpt lat="48.854889" lon="9.353125">
        <ele>323.096902</ele>
        <time>2022-07-23T13:17:25.000Z</time>
      </trkpt>
      <trkpt lat="48.854820" lon="9.353001">
        <ele>323.467859</ele>
        <time>2022-07-23T13:17:27.000Z</time>
      </trkpt>
      <trkpt lat="48.854749" lon="9.352876">
        <ele>323.791781</ele>
        <time>2022-07-23T13:17:29.000Z</time>
      </trkpt>
      <trkpt lat="48.854677" lon="9.352745">
        <ele>324.026581</ele>
        <time>2022-07-23T13:17:31.000Z</time>
      </trkpt>
      <trkpt lat="48.854606" lon="9.352602">
        <ele>324.273010</ele>
        <time>2022-07-23T13:17:33.000Z</time>
      </trkpt>
      <trkpt lat="48.854530" lon="9.352464">
        <ele>324.520562</ele>
        <time>2022-07-23T13:17:35.000Z</time>
      </trkpt>
      <trkpt lat="48.854453" lon="9.352328">
        <ele>324.767368</ele>
        <time>2022-07-23T13:17:37.000Z</time>
      </trkpt>
      <trkpt lat="48.854379" lon="9.352192">
        <ele>325.010131</ele>
        <time>2022-07-23T13:17:39.000Z</time>
      </trkpt>
      <trkpt lat="48.854304" lon="9.352055">
        <ele>325.255287</ele>
        <time>2022-07-23T13:17:41.000Z</time>
      </trkpt>
      <trkpt lat="48.854226" lon="9.351924">
        <ele>325.498320</ele>
        <time>2022-07-23T13:17:43.000Z</time>
      </trkpt>
      <trkpt lat="48.854144" lon="9.351803">
        <ele>325.737264</ele>
        <time>2022-07-23T13:17:45.000Z</time>
      </trkpt>
      <trkpt lat="48.854065" lon="9.351681">
        <ele>325.972727</ele>
        <time>2022-07-23T13:17:47.000Z</time>
      </trkpt>
      <trkpt lat="48.853978" lon="9.351569">
        <ele>326.211095</ele>
        <time>2022-07-23T13:17:49.000Z</time>
      </trkpt>
      <trkpt lat="48.853884" lon="9.351459">
        <ele>326.459121</ele>
        <time>2022-07-23T13:17:51.000Z</time>
      </trkpt>
      <trkpt lat="48.853784" lon="9.351340">
        <ele>326.724649</ele>
        <time>2022-07-23T13:17:53.000Z</time>
      </trkpt>
      <trkpt lat="48.853683" lon="9.351235">
        <ele>326.980479</ele>
        <time>2022-07-23T13:17:55.000Z</time>
      </trkpt>
      <trkpt lat="48.853585" lon="9.351139">
        <ele>327.224235</ele>
        <time>2022-07-23T13:17:57.000Z</time>
      </trkpt>
      <trkpt lat="48.853476" lon="9.351058">
        <ele>327.485286</ele>
        <time>2022-07-23T13:17:59.000Z</time>
      </trkpt>
      <trkpt lat="48.853364" lon="9.350992">
        <ele>328.023972</ele>
        <time>2022-07-23T13:18:01.000Z</time>
      </trkpt>
      <trkpt lat="48.853253" lon="9.350928">
        <ele>328.556358</ele>
        <time>2022-07-23T13:18:03.000Z</time>
      </trkpt>
      <trkpt lat="48.853151" lon="9.350863">
        <ele>329.052350</ele>
        <time>2022-07-23T13:18:05.001Z</time>
      </trkpt>
      <trkpt lat="48.853053" lon="9.350787">
        <ele>329.545730</ele>
        <time>2022-07-23T13:18:07.001Z</time>
      </trkpt>
      <trkpt lat="48.852955" lon="9.350703">
        <ele>330.050278</ele>
        <time>2022-07-23T13:18:09.001Z</time>
      </trkpt>
      <trkpt lat="48.852864" lon="9.350631">
        <ele>330.510348</ele>
        <time>2022-07-23T13:18:11.001Z</time>
      </trkpt>
      <trkpt lat="48.852784" lon="9.350558">
        <ele>330.928799</ele>
        <time>2022-07-23T13:18:13.001Z</time>
      </trkpt>
      <trkpt lat="48.852672" lon="9.350459">
        <ele>331.509826</ele>
        <time>2022-07-23T13:18:16.001Z</time>
      </trkpt>
      <trkpt lat="48.852590" lon="9.350397">
        <ele>331.920541</ele>
        <time>2022-07-23T13:18:18.001Z</time>
      </trkpt>
      <trkpt lat="48.852506" lon="9.350319">
        <ele>332.361978</ele>
        <time>2022-07-23T13:18:20.001Z</time>
      </trkpt>
      <trkpt lat="48.852431" lon="9.350234">
        <ele>332.781531</ele>
        <time>2022-07-23T13:18:22.001Z</time>
      </trkpt>
      <trkpt lat="48.852320" lon="9.350123">
        <ele>333.377392</ele>
        <time>2022-07-23T13:18:25.001Z</time>
      </trkpt>
      <trkpt lat="48.852221" lon="9.350038">
        <ele>333.887297</ele>
        <time>2022-07-23T13:18:28.001Z</time>
      </trkpt>
      <trkpt lat="48.852112" lon="9.349944">
        <ele>334.449311</ele>
        <time>2022-07-23T13:18:31.001Z</time>
      </trkpt>
      <trkpt lat="48.852028" lon="9.349861">
        <ele>334.898618</ele>
        <time>2022-07-23T13:18:33.000Z</time>
      </trkpt>
      <trkpt lat="48.851948" lon="9.349782">
        <ele>335.326453</ele>
        <time>2022-07-23T13:18:35.000Z</time>
      </trkpt>
      <trkpt lat="48.851874" lon="9.349694">
        <ele>335.676153</ele>
        <time>2022-07-23T13:18:37.000Z</time>
      </trkpt>
      <trkpt lat="48.851807" lon="9.349601">
        <ele>335.944563</ele>
        <time>2022-07-23T13:18:39.000Z</time>
      </trkpt>
      <trkpt lat="48.851739" lon="9.349509">
        <ele>336.213867</ele>
        <time>2022-07-23T13:18:41.000Z</time>
      </trkpt>
      <trkpt lat="48.851669" lon="9.349417">
        <ele>336.487618</ele>
        <time>2022-07-23T13:18:43.000Z</time>
      </trkpt>
      <trkpt lat="48.851566" lon="9.349286">
        <ele>336.884909</ele>
        <time>2022-07-23T13:18:46.000Z</time>
      </trkpt>
      <trkpt lat="48.851462" lon="9.349159">
        <ele>337.279551</ele>
        <time>2022-07-23T13:18:49.000Z</time>
      </trkpt>
      <trkpt lat="48.851391" lon="9.349073">
        <ele>337.548117</ele>
        <time>2022-07-23T13:18:51.000Z</time>
      </trkpt>
      <trkpt lat="48.851318" lon="9.348990">
        <ele>337.817796</ele>
        <time>2022-07-23T13:18:53.000Z</time>
      </trkpt>
      <trkpt lat="48.851211" lon="9.348868">
        <ele>338.213478</ele>
        <time>2022-07-23T13:18:56.000Z</time>
      </trkpt>
      <trkpt lat="48.851106" lon="9.348736">
        <ele>338.616564</ele>
        <time>2022-07-23T13:18:59.000Z</time>
      </trkpt>
      <trkpt lat="48.851028" lon="9.348640">
        <ele>338.913463</ele>
        <time>2022-07-23T13:19:01.000Z</time>
      </trkpt>
      <trkpt lat="48.850942" lon="9.348542">
        <ele>339.231424</ele>
        <time>2022-07-23T13:19:03.000Z</time>
      </trkpt>
      <trkpt lat="48.850859" lon="9.348449">
        <ele>339.536456</ele>
        <time>2022-07-23T13:19:05.000Z</time>
      </trkpt>
      <trkpt lat="48.850782" lon="9.348376">
        <ele>339.804909</ele>
        <time>2022-07-23T13:19:07.000Z</time>
      </trkpt>
      <trkpt lat="48.850677" lon="9.348289">
        <ele>340.158664</ele>
        <time>2022-07-23T13:19:10.000Z</time>
      </trkpt>
      <trkpt lat="48.850593" lon="9.348216">
        <ele>340.444894</ele>
        <time>2022-07-23T13:19:12.000Z</time>
      </trkpt>
      <trkpt lat="48.850509" lon="9.348147">
        <ele>340.727341</ele>
        <time>2022-07-23T13:19:14.000Z</time>
      </trkpt>
      <trkpt lat="48.850428" lon="9.348064">
        <ele>340.596164</ele>
        <time>2022-07-23T13:19:16.000Z</time>
      </trkpt>
      <trkpt lat="48.850353" lon="9.347978">
        <ele>340.138070</ele>
        <time>2022-07-23T13:19:18.000Z</time>
      </trkpt>
      <trkpt lat="48.850268" lon="9.347904">
        <ele>339.660449</ele>
        <time>2022-07-23T13:19:20.000Z</time>
      </trkpt>
      <trkpt lat="48.850170" lon="9.347940">
        <ele>339.168871</ele>
        <time>2022-07-23T13:19:22.000Z</time>
      </trkpt>
      <trkpt lat="48.850096" lon="9.348075">
        <ele>338.605154</ele>
        <time>2022-07-23T13:19:24.000Z</time>
      </trkpt>
      <trkpt lat="48.850024" lon="9.348204">
        <ele>338.062447</ele>
        <time>2022-07-23T13:19:26.000Z</time>
      </trkpt>
      <trkpt lat="48.849958" lon="9.348333">
        <ele>337.538188</ele>
        <time>2022-07-23T13:19:28.000Z</time>
      </trkpt>
      <trkpt lat="48.849892" lon="9.348459">
        <ele>337.021493</ele>
        <time>2022-07-23T13:19:30.000Z</time>
      </trkpt>
      <trkpt lat="48.849827" lon="9.348582">
        <ele>336.515361</ele>
        <time>2022-07-23T13:19:32.000Z</time>
      </trkpt>
      <trkpt lat="48.849757" lon="9.348720">
        <ele>335.956329</ele>
        <time>2022-07-23T13:19:34.000Z</time>
      </trkpt>
      <trkpt lat="48.849680" lon="9.348861">
        <ele>335.368455</ele>
        <time>2022-07-23T13:19:36.000Z</time>
      </trkpt>
      <trkpt lat="48.849607" lon="9.349005">
        <ele>334.785246</ele>
        <time>2022-07-23T13:19:38.000Z</time>
      </trkpt>
      <trkpt lat="48.849533" lon="9.349141">
        <ele>334.219057</ele>
        <time>2022-07-23T13:19:40.000Z</time>
      </trkpt>
      <trkpt lat="48.849459" lon="9.349273">
        <ele>333.662697</ele>
        <time>2022-07-23T13:19:42.000Z</time>
      </trkpt>
      <trkpt lat="48.849386" lon="9.349415">
        <ele>333.084556</ele>
        <time>2022-07-23T13:19:44.000Z</time>
      </trkpt>
      <trkpt lat="48.849319" lon="9.349551">
        <ele>332.539479</ele>
        <time>2022-07-23T13:19:46.000Z</time>
      </trkpt>
      <trkpt lat="48.849242" lon="9.349682">
        <ele>332.025254</ele>
        <time>2022-07-23T13:19:48.000Z</time>
      </trkpt>
      <trkpt lat="48.849164" lon="9.349803">
        <ele>331.720907</ele>
        <time>2022-07-23T13:19:50.000Z</time>
      </trkpt>
      <trkpt lat="48.849086" lon="9.349909">
        <ele>331.435190</ele>
        <time>2022-07-23T13:19:52.000Z</time>
      </trkpt>
      <trkpt lat="48.849008" lon="9.350006">
        <ele>331.159988</ele>
        <time>2022-07-23T13:19:54.000Z</time>
      </trkpt>
      <trkpt lat="48.848924" lon="9.350145">
        <ele>330.820895</ele>
        <time>2022-07-23T13:19:57.000Z</time>
      </trkpt>
      <trkpt lat="48.848853" lon="9.350234">
        <ele>330.569586</ele>
        <time>2022-07-23T13:20:00.000Z</time>
      </trkpt>
      <trkpt lat="48.848759" lon="9.350351">
        <ele>330.237815</ele>
        <time>2022-07-23T13:20:03.000Z</time>
      </trkpt>
      <trkpt lat="48.848656" lon="9.350476">
        <ele>329.877896</ele>
        <time>2022-07-23T13:20:06.000Z</time>
      </trkpt>
      <trkpt lat="48.848547" lon="9.350607">
        <ele>329.498444</ele>
        <time>2022-07-23T13:20:09.000Z</time>
      </trkpt>
      <trkpt lat="48.848466" lon="9.350704">
        <ele>329.216854</ele>
        <time>2022-07-23T13:20:11.001Z</time>
      </trkpt>
      <trkpt lat="48.848378" lon="9.350806">
        <ele>328.914653</ele>
        <time>2022-07-23T13:20:13.001Z</time>
      </trkpt>
      <trkpt lat="48.848287" lon="9.350911">
        <ele>328.602668</ele>
        <time>2022-07-23T13:20:15.001Z</time>
      </trkpt>
      <trkpt lat="48.848191" lon="9.351007">
        <ele>328.288877</ele>
        <time>2022-07-23T13:20:17.001Z</time>
      </trkpt>
      <trkpt lat="48.848091" lon="9.351094">
        <ele>327.974246</ele>
        <time>2022-07-23T13:20:19.001Z</time>
      </trkpt>
      <trkpt lat="48.847989" lon="9.351162">
        <ele>327.670113</ele>
        <time>2022-07-23T13:20:21.001Z</time>
      </trkpt>
      <trkpt lat="48.847898" lon="9.351219">
        <ele>327.401358</ele>
        <time>2022-07-23T13:20:23.001Z</time>
      </trkpt>
      <trkpt lat="48.847805" lon="9.351287">
        <ele>327.136737</ele>
        <time>2022-07-23T13:20:25.001Z</time>
      </trkpt>
      <trkpt lat="48.847710" lon="9.351356">
        <ele>326.935423</ele>
        <time>2022-07-23T13:20:27.001Z</time>
      </trkpt>
      <trkpt lat="48.847608" lon="9.351414">
        <ele>326.727199</ele>
        <time>2022-07-23T13:20:29.001Z</time>
      </trkpt>
      <trkpt lat="48.847509" lon="9.351486">
        <ele>326.517357</ele>
        <time>2022-07-23T13:20:31.001Z</time>
      </trkpt>
      <trkpt lat="48.847414" lon="9.351544">
        <ele>326.321612</ele>
        <time>2022-07-23T13:20:33.001Z</time>
      </trkpt>
      <trkpt lat="48.847328" lon="9.351609">
        <ele>326.137970</ele>
        <time>2022-07-23T13:20:35.001Z</time>
      </trkpt>
      <trkpt lat="48.847235" lon="9.351675">
        <ele>325.941725</ele>
        <time>2022-07-23T13:20:37.001Z</time>
      </trkpt>
      <trkpt lat="48.847131" lon="9.351732">
        <ele>325.730346</ele>
        <time>2022-07-23T13:20:39.000Z</time>
      </trkpt>
      <trkpt lat="48.847022" lon="9.351793">
        <ele>325.508262</ele>
        <time>2022-07-23T13:20:41.000Z</time>
      </trkpt>
      <trkpt lat="48.846916" lon="9.351860">
        <ele>325.288764</ele>
        <time>2022-07-23T13:20:43.000Z</time>
      </trkpt>
      <trkpt lat="48.846809" lon="9.351914">
        <ele>325.073200</ele>
        <time>2022-07-23T13:20:45.000Z</time>
      </trkpt>
      <trkpt lat="48.846701" lon="9.351955">
        <ele>324.860365</ele>
        <time>2022-07-23T13:20:47.000Z</time>
      </trkpt>
      <trkpt lat="48.846596" lon="9.351992">
        <ele>324.654285</ele>
        <time>2022-07-23T13:20:49.000Z</time>
      </trkpt>
      <trkpt lat="48.846492" lon="9.352032">
        <ele>324.449173</ele>
        <time>2022-07-23T13:20:51.000Z</time>
      </trkpt>
      <trkpt lat="48.846389" lon="9.352082">
        <ele>324.242439</ele>
        <time>2022-07-23T13:20:53.000Z</time>
      </trkpt>
      <trkpt lat="48.846284" lon="9.352126">
        <ele>324.034193</ele>
        <time>2022-07-23T13:20:55.000Z</time>
      </trkpt>
      <trkpt lat="48.846166" lon="9.352175">
        <ele>323.800312</ele>
        <time>2022-07-23T13:20:57.000Z</time>
      </trkpt>
      <trkpt lat="48.846056" lon="9.352222">
        <ele>323.455912</ele>
        <time>2022-07-23T13:20:59.000Z</time>
      </trkpt>
      <trkpt lat="48.845939" lon="9.352252">
        <ele>323.046081</ele>
        <time>2022-07-23T13:21:01.000Z</time>
      </trkpt>
      <trkpt lat="48.845814" lon="9.352279">
        <ele>322.609991</ele>
        <time>2022-07-23T13:21:03.000Z</time>
      </trkpt>
      <trkpt lat="48.845688" lon="9.352325">
        <ele>322.162403</ele>
        <time>2022-07-23T13:21:05.000Z</time>
      </trkpt>
      <trkpt lat="48.845563" lon="9.352375">
        <ele>321.715945</ele>
        <time>2022-07-23T13:21:07.000Z</time>
      </trkpt>
      <trkpt lat="48.845435" lon="9.352406">
        <ele>321.268253</ele>
        <time>2022-07-23T13:21:09.000Z</time>
      </trkpt>
      <trkpt lat="48.845308" lon="9.352433">
        <ele>320.825322</ele>
        <time>2022-07-23T13:21:11.000Z</time>
      </trkpt>
      <trkpt lat="48.845180" lon="9.352461">
        <ele>320.378653</ele>
        <time>2022-07-23T13:21:13.000Z</time>
      </trkpt>
      <trkpt lat="48.845056" lon="9.352485">
        <ele>319.946897</ele>
        <time>2022-07-23T13:21:15.000Z</time>
      </trkpt>
      <trkpt lat="48.844934" lon="9.352498">
        <ele>319.524474</ele>
        <time>2022-07-23T13:21:17.000Z</time>
      </trkpt>
      <trkpt lat="48.844813" lon="9.352517">
        <ele>319.104314</ele>
        <time>2022-07-23T13:21:19.000Z</time>
      </trkpt>
      <trkpt lat="48.844696" lon="9.352541">
        <ele>318.696531</ele>
        <time>2022-07-23T13:21:21.000Z</time>
      </trkpt>
      <trkpt lat="48.844578" lon="9.352558">
        <ele>318.287131</ele>
        <time>2022-07-23T13:21:23.000Z</time>
      </trkpt>
      <trkpt lat="48.844462" lon="9.352582">
        <ele>317.882770</ele>
        <time>2022-07-23T13:21:25.000Z</time>
      </trkpt>
      <trkpt lat="48.844346" lon="9.352606">
        <ele>317.505116</ele>
        <time>2022-07-23T13:21:27.000Z</time>
      </trkpt>
      <trkpt lat="48.844227" lon="9.352626">
        <ele>317.326266</ele>
        <time>2022-07-23T13:21:29.000Z</time>
      </trkpt>
      <trkpt lat="48.844104" lon="9.352645">
        <ele>317.141578</ele>
        <time>2022-07-23T13:21:31.000Z</time>
      </trkpt>
      <trkpt lat="48.843982" lon="9.352670">
        <ele>316.957681</ele>
        <time>2022-07-23T13:21:33.000Z</time>
      </trkpt>
      <trkpt lat="48.843870" lon="9.352696">
        <ele>316.788431</ele>
        <time>2022-07-23T13:21:35.000Z</time>
      </trkpt>
      <trkpt lat="48.843763" lon="9.352715">
        <ele>316.627504</ele>
        <time>2022-07-23T13:21:37.000Z</time>
      </trkpt>
      <trkpt lat="48.843655" lon="9.352726">
        <ele>316.465809</ele>
        <time>2022-07-23T13:21:39.000Z</time>
      </trkpt>
      <trkpt lat="48.843544" lon="9.352741">
        <ele>316.299339</ele>
        <time>2022-07-23T13:21:41.000Z</time>
      </trkpt>
      <trkpt lat="48.843429" lon="9.352755">
        <ele>316.126999</ele>
        <time>2022-07-23T13:21:43.000Z</time>
      </trkpt>
      <trkpt lat="48.843310" lon="9.352764">
        <ele>315.949013</ele>
        <time>2022-07-23T13:21:45.000Z</time>
      </trkpt>
      <trkpt lat="48.843195" lon="9.352784">
        <ele>315.776101</ele>
        <time>2022-07-23T13:21:47.000Z</time>
      </trkpt>
      <trkpt lat="48.843080" lon="9.352792">
        <ele>315.604131</ele>
        <time>2022-07-23T13:21:49.000Z</time>
      </trkpt>
      <trkpt lat="48.842965" lon="9.352804">
        <ele>315.431936</ele>
        <time>2022-07-23T13:21:51.000Z</time>
      </trkpt>
      <trkpt lat="48.842852" lon="9.352800">
        <ele>315.263088</ele>
        <time>2022-07-23T13:21:53.000Z</time>
      </trkpt>
      <trkpt lat="48.842739" lon="9.352782">
        <ele>315.093360</ele>
        <time>2022-07-23T13:21:55.000Z</time>
      </trkpt>
      <trkpt lat="48.842633" lon="9.352746">
        <ele>314.931107</ele>
        <time>2022-07-23T13:21:57.000Z</time>
      </trkpt>
      <trkpt lat="48.842520" lon="9.352745">
        <ele>314.692330</ele>
        <time>2022-07-23T13:21:59.000Z</time>
      </trkpt>
      <trkpt lat="48.842404" lon="9.352779">
        <ele>314.354017</ele>
        <time>2022-07-23T13:22:01.000Z</time>
      </trkpt>
      <trkpt lat="48.842291" lon="9.352816">
        <ele>314.022989</ele>
        <time>2022-07-23T13:22:03.000Z</time>
      </trkpt>
      <trkpt lat="48.842184" lon="9.352818">
        <ele>313.716550</ele>
        <time>2022-07-23T13:22:05.000Z</time>
      </trkpt>
      <trkpt lat="48.842071" lon="9.352836">
        <ele>313.391178</ele>
        <time>2022-07-23T13:22:07.000Z</time>
      </trkpt>
      <trkpt lat="48.841955" lon="9.352866">
        <ele>313.054211</ele>
        <time>2022-07-23T13:22:09.000Z</time>
      </trkpt>
      <trkpt lat="48.841832" lon="9.352903">
        <ele>312.695138</ele>
        <time>2022-07-23T13:22:11.000Z</time>
      </trkpt>
      <trkpt lat="48.841708" lon="9.352940">
        <ele>312.333256</ele>
        <time>2022-07-23T13:22:13.000Z</time>
      </trkpt>
      <trkpt lat="48.841585" lon="9.352963">
        <ele>311.978363</ele>
        <time>2022-07-23T13:22:15.000Z</time>
      </trkpt>
      <trkpt lat="48.841462" lon="9.352983">
        <ele>311.624116</ele>
        <time>2022-07-23T13:22:17.000Z</time>
      </trkpt>
      <trkpt lat="48.841347" lon="9.353019">
        <ele>311.287873</ele>
        <time>2022-07-23T13:22:19.000Z</time>
      </trkpt>
      <trkpt lat="48.841235" lon="9.353043">
        <ele>310.963965</ele>
        <time>2022-07-23T13:22:21.000Z</time>
      </trkpt>
      <trkpt lat="48.841127" lon="9.353062">
        <ele>310.652618</ele>
        <time>2022-07-23T13:22:23.001Z</time>
      </trkpt>
      <trkpt lat="48.841025" lon="9.353126">
        <ele>310.336594</ele>
        <time>2022-07-23T13:22:26.001Z</time>
      </trkpt>
      <trkpt lat="48.840744" lon="9.353311">
        <ele>309.444167</ele>
        <time>2022-07-23T13:22:54.000Z</time>
      </trkpt>
      <trkpt lat="48.840640" lon="9.353393">
        <ele>309.085942</ele>
        <time>2022-07-23T13:22:56.000Z</time>
      </trkpt>
      <trkpt lat="48.840543" lon="9.353490">
        <ele>308.730913</ele>
        <time>2022-07-23T13:22:58.000Z</time>
      </trkpt>
      <trkpt lat="48.840434" lon="9.353577">
        <ele>308.354480</ele>
        <time>2022-07-23T13:23:00.000Z</time>
      </trkpt>
      <trkpt lat="48.840323" lon="9.353674">
        <ele>307.962990</ele>
        <time>2022-07-23T13:23:02.000Z</time>
      </trkpt>
      <trkpt lat="48.840218" lon="9.353769">
        <ele>307.589364</ele>
        <time>2022-07-23T13:23:04.000Z</time>
      </trkpt>
      <trkpt lat="48.840113" lon="9.353853">
        <ele>307.226564</ele>
        <time>2022-07-23T13:23:06.000Z</time>
      </trkpt>
      <trkpt lat="48.840008" lon="9.353950">
        <ele>306.850863</ele>
        <time>2022-07-23T13:23:08.000Z</time>
      </trkpt>
      <trkpt lat="48.839898" lon="9.354044">
        <ele>306.465014</ele>
        <time>2022-07-23T13:23:10.000Z</time>
      </trkpt>
      <trkpt lat="48.839797" lon="9.354126">
        <ele>306.114903</ele>
        <time>2022-07-23T13:23:12.000Z</time>
      </trkpt>
      <trkpt lat="48.839691" lon="9.354211">
        <ele>305.748459</ele>
        <time>2022-07-23T13:23:14.000Z</time>
      </trkpt>
      <trkpt lat="48.839580" lon="9.354305">
        <ele>305.359941</ele>
        <time>2022-07-23T13:23:16.000Z</time>
      </trkpt>
      <trkpt lat="48.839470" lon="9.354403">
        <ele>304.970082</ele>
        <time>2022-07-23T13:23:18.000Z</time>
      </trkpt>
      <trkpt lat="48.839361" lon="9.354496">
        <ele>304.587883</ele>
        <time>2022-07-23T13:23:20.000Z</time>
      </trkpt>
      <trkpt lat="48.839253" lon="9.354597">
        <ele>304.200156</ele>
        <time>2022-07-23T13:23:22.000Z</time>
      </trkpt>
      <trkpt lat="48.839146" lon="9.354699">
        <ele>304.183956</ele>
        <time>2022-07-23T13:23:24.000Z</time>
      </trkpt>
      <trkpt lat="48.839049" lon="9.354806">
        <ele>304.179250</ele>
        <time>2022-07-23T13:23:26.000Z</time>
      </trkpt>
      <trkpt lat="48.838950" lon="9.354910">
        <ele>304.174524</ele>
        <time>2022-07-23T13:23:28.000Z</time>
      </trkpt>
      <trkpt lat="48.838851" lon="9.355012">
        <ele>304.169827</ele>
        <time>2022-07-23T13:23:30.000Z</time>
      </trkpt>
      <trkpt lat="48.838757" lon="9.355115">
        <ele>304.165276</ele>
        <time>2022-07-23T13:23:32.000Z</time>
      </trkpt>
      <trkpt lat="48.838665" lon="9.355225">
        <ele>304.160679</ele>
        <time>2022-07-23T13:23:34.000Z</time>
      </trkpt>
      <trkpt lat="48.838573" lon="9.355340">
        <ele>304.156001</ele>
        <time>2022-07-23T13:23:36.000Z</time>
      </trkpt>
      <trkpt lat="48.838478" lon="9.355458">
        <ele>304.151183</ele>
        <time>2022-07-23T13:23:38.000Z</time>
      </trkpt>
      <trkpt lat="48.838397" lon="9.355584">
        <ele>304.146632</ele>
        <time>2022-07-23T13:23:40.000Z</time>
      </trkpt>
      <trkpt lat="48.838332" lon="9.355705">
        <ele>304.142595</ele>
        <time>2022-07-23T13:23:42.000Z</time>
      </trkpt>
      <trkpt lat="48.838249" lon="9.355784">
        <ele>304.138749</ele>
        <time>2022-07-23T13:23:45.000Z</time>
      </trkpt>
      <trkpt lat="48.838163" lon="9.355728">
        <ele>304.135076</ele>
        <time>2022-07-23T13:23:48.000Z</time>
      </trkpt>
      <trkpt lat="48.838030" lon="9.355718">
        <ele>304.129847</ele>
        <time>2022-07-23T13:23:51.000Z</time>
      </trkpt>
      <trkpt lat="48.837915" lon="9.355759">
        <ele>304.125209</ele>
        <time>2022-07-23T13:23:54.000Z</time>
      </trkpt>
      <trkpt lat="48.837801" lon="9.355801">
        <ele>304.120603</ele>
        <time>2022-07-23T13:23:57.000Z</time>
      </trkpt>
      <trkpt lat="48.837671" lon="9.355859">
        <ele>304.116037</ele>
        <time>2022-07-23T13:24:00.000Z</time>
      </trkpt>
      <trkpt lat="48.837578" lon="9.355905">
        <ele>304.113208</ele>
        <time>2022-07-23T13:24:02.000Z</time>
      </trkpt>
      <trkpt lat="48.837479" lon="9.355965">
        <ele>304.110125</ele>
        <time>2022-07-23T13:24:04.000Z</time>
      </trkpt>
      <trkpt lat="48.837377" lon="9.356020">
        <ele>304.106994</ele>
        <time>2022-07-23T13:24:06.000Z</time>
      </trkpt>
      <trkpt lat="48.837269" lon="9.356086">
        <ele>304.103627</ele>
        <time>2022-07-23T13:24:08.000Z</time>
      </trkpt>
      <trkpt lat="48.837164" lon="9.356144">
        <ele>304.100395</ele>
        <time>2022-07-23T13:24:10.000Z</time>
      </trkpt>
      <trkpt lat="48.837056" lon="9.356197">
        <ele>304.097112</ele>
        <time>2022-07-23T13:24:12.000Z</time>
      </trkpt>
      <trkpt lat="48.836938" lon="9.356259">
        <ele>304.093501</ele>
        <time>2022-07-23T13:24:14.000Z</time>
      </trkpt>
      <trkpt lat="48.836814" lon="9.356314">
        <ele>304.089764</ele>
        <time>2022-07-23T13:24:16.000Z</time>
      </trkpt>
      <trkpt lat="48.836688" lon="9.356370">
        <ele>304.085967</ele>
        <time>2022-07-23T13:24:18.000Z</time>
      </trkpt>
      <trkpt lat="48.836561" lon="9.356428">
        <ele>304.082131</ele>
        <time>2022-07-23T13:24:20.000Z</time>
      </trkpt>
      <trkpt lat="48.836442" lon="9.356475">
        <ele>304.078575</ele>
        <time>2022-07-23T13:24:22.000Z</time>
      </trkpt>
      <trkpt lat="48.836324" lon="9.356528">
        <ele>304.075016</ele>
        <time>2022-07-23T13:24:24.000Z</time>
      </trkpt>
      <trkpt lat="48.836204" lon="9.356580">
        <ele>304.071406</ele>
        <time>2022-07-23T13:24:26.000Z</time>
      </trkpt>
      <trkpt lat="48.836083" lon="9.356631">
        <ele>304.067774</ele>
        <time>2022-07-23T13:24:28.000Z</time>
      </trkpt>
      <trkpt lat="48.835961" lon="9.356676">
        <ele>304.110107</ele>
        <time>2022-07-23T13:24:30.001Z</time>
      </trkpt>
      <trkpt lat="48.835841" lon="9.356725">
        <ele>304.190067</ele>
        <time>2022-07-23T13:24:32.001Z</time>
      </trkpt>
      <trkpt lat="48.835726" lon="9.356783">
        <ele>304.268040</ele>
        <time>2022-07-23T13:24:34.001Z</time>
      </trkpt>
      <trkpt lat="48.835622" lon="9.356826">
        <ele>304.337397</ele>
        <time>2022-07-23T13:24:36.001Z</time>
      </trkpt>
      <trkpt lat="48.835527" lon="9.356877">
        <ele>304.402233</ele>
        <time>2022-07-23T13:24:39.001Z</time>
      </trkpt>
      <trkpt lat="48.835422" lon="9.356910">
        <ele>304.471231</ele>
        <time>2022-07-23T13:24:42.001Z</time>
      </trkpt>
      <trkpt lat="48.835285" lon="9.356950">
        <ele>304.561003</ele>
        <time>2022-07-23T13:24:45.001Z</time>
      </trkpt>
      <trkpt lat="48.835177" lon="9.356986">
        <ele>304.632154</ele>
        <time>2022-07-23T13:24:47.001Z</time>
      </trkpt>
      <trkpt lat="48.835056" lon="9.357029">
        <ele>304.712118</ele>
        <time>2022-07-23T13:24:49.001Z</time>
      </trkpt>
      <trkpt lat="48.834925" lon="9.357073">
        <ele>304.798452</ele>
        <time>2022-07-23T13:24:50.999Z</time>
      </trkpt>
      <trkpt lat="48.834793" lon="9.357115">
        <ele>304.885236</ele>
        <time>2022-07-23T13:24:52.999Z</time>
      </trkpt>
      <trkpt lat="48.834663" lon="9.357164">
        <ele>304.971426</ele>
        <time>2022-07-23T13:24:54.999Z</time>
      </trkpt>
      <trkpt lat="48.834541" lon="9.357213">
        <ele>305.052630</ele>
        <time>2022-07-23T13:24:56.999Z</time>
      </trkpt>
      <trkpt lat="48.834426" lon="9.357256">
        <ele>305.128840</ele>
        <time>2022-07-23T13:24:58.999Z</time>
      </trkpt>
      <trkpt lat="48.834320" lon="9.357289">
        <ele>305.198468</ele>
        <time>2022-07-23T13:25:00.999Z</time>
      </trkpt>
      <trkpt lat="48.834225" lon="9.357324">
        <ele>305.086670</ele>
        <time>2022-07-23T13:25:02.999Z</time>
      </trkpt>
      <trkpt lat="48.834138" lon="9.357374">
        <ele>304.870141</ele>
        <time>2022-07-23T13:25:04.999Z</time>
      </trkpt>
      <trkpt lat="48.834051" lon="9.357439">
        <ele>304.644455</ele>
        <time>2022-07-23T13:25:06.999Z</time>
      </trkpt>
      <trkpt lat="48.833959" lon="9.357513">
        <ele>304.402129</ele>
        <time>2022-07-23T13:25:08.999Z</time>
      </trkpt>
      <trkpt lat="48.833852" lon="9.357590">
        <ele>304.126521</ele>
        <time>2022-07-23T13:25:11.000Z</time>
      </trkpt>
      <trkpt lat="48.833744" lon="9.357678">
        <ele>303.841237</ele>
        <time>2022-07-23T13:25:13.000Z</time>
      </trkpt>
      <trkpt lat="48.833635" lon="9.357766">
        <ele>303.553900</ele>
        <time>2022-07-23T13:25:15.000Z</time>
      </trkpt>
      <trkpt lat="48.833532" lon="9.357849">
        <ele>303.282491</ele>
        <time>2022-07-23T13:25:17.000Z</time>
      </trkpt>
      <trkpt lat="48.833428" lon="9.357933">
        <ele>303.008308</ele>
        <time>2022-07-23T13:25:19.000Z</time>
      </trkpt>
      <trkpt lat="48.833323" lon="9.358020">
        <ele>302.729895</ele>
        <time>2022-07-23T13:25:21.000Z</time>
      </trkpt>
      <trkpt lat="48.833216" lon="9.358117">
        <ele>302.439841</ele>
        <time>2022-07-23T13:25:23.000Z</time>
      </trkpt>
      <trkpt lat="48.833108" lon="9.358213">
        <ele>302.148562</ele>
        <time>2022-07-23T13:25:25.000Z</time>
      </trkpt>
      <trkpt lat="48.832997" lon="9.358302">
        <ele>301.856392</ele>
        <time>2022-07-23T13:25:27.000Z</time>
      </trkpt>
      <trkpt lat="48.832891" lon="9.358403">
        <ele>301.565124</ele>
        <time>2022-07-23T13:25:29.000Z</time>
      </trkpt>
      <trkpt lat="48.832783" lon="9.358501">
        <ele>301.272285</ele>
        <time>2022-07-23T13:25:31.000Z</time>
      </trkpt>
      <trkpt lat="48.832675" lon="9.358599">
        <ele>300.950355</ele>
        <time>2022-07-23T13:25:33.000Z</time>
      </trkpt>
      <trkpt lat="48.832566" lon="9.358694">
        <ele>300.508947</ele>
        <time>2022-07-23T13:25:35.000Z</time>
      </trkpt>
      <trkpt lat="48.832457" lon="9.358795">
        <ele>300.060474</ele>
        <time>2022-07-23T13:25:37.000Z</time>
      </trkpt>
      <trkpt lat="48.832354" lon="9.358904">
        <ele>299.619547</ele>
        <time>2022-07-23T13:25:39.000Z</time>
      </trkpt>
      <trkpt lat="48.832249" lon="9.359004">
        <ele>299.184239</ele>
        <time>2022-07-23T13:25:41.000Z</time>
      </trkpt>
      <trkpt lat="48.832146" lon="9.359114">
        <ele>298.741986</ele>
        <time>2022-07-23T13:25:43.000Z</time>
      </trkpt>
      <trkpt lat="48.832045" lon="9.359221">
        <ele>298.309466</ele>
        <time>2022-07-23T13:25:45.000Z</time>
      </trkpt>
      <trkpt lat="48.831943" lon="9.359325">
        <ele>297.877964</ele>
        <time>2022-07-23T13:25:47.000Z</time>
      </trkpt>
      <trkpt lat="48.831844" lon="9.359425">
        <ele>297.460362</ele>
        <time>2022-07-23T13:25:49.000Z</time>
      </trkpt>
      <trkpt lat="48.831751" lon="9.359515">
        <ele>297.073038</ele>
        <time>2022-07-23T13:25:51.000Z</time>
      </trkpt>
      <trkpt lat="48.831673" lon="9.359588">
        <ele>296.751234</ele>
        <time>2022-07-23T13:25:53.000Z</time>
      </trkpt>
      <trkpt lat="48.831576" lon="9.359688">
        <ele>296.339463</ele>
        <time>2022-07-23T13:25:57.000Z</time>
      </trkpt>
      <trkpt lat="48.831468" lon="9.359792">
        <ele>295.890307</ele>
        <time>2022-07-23T13:26:01.000Z</time>
      </trkpt>
      <trkpt lat="48.831354" lon="9.359898">
        <ele>295.420816</ele>
        <time>2022-07-23T13:26:04.000Z</time>
      </trkpt>
      <trkpt lat="48.831265" lon="9.359970">
        <ele>295.066629</ele>
        <time>2022-07-23T13:26:06.000Z</time>
      </trkpt>
      <trkpt lat="48.831164" lon="9.360041">
        <ele>294.682910</ele>
        <time>2022-07-23T13:26:08.000Z</time>
      </trkpt>
      <trkpt lat="48.831069" lon="9.360116">
        <ele>294.369776</ele>
        <time>2022-07-23T13:26:10.000Z</time>
      </trkpt>
      <trkpt lat="48.830981" lon="9.360187">
        <ele>294.078348</ele>
        <time>2022-07-23T13:26:12.000Z</time>
      </trkpt>
      <trkpt lat="48.830897" lon="9.360259">
        <ele>293.796258</ele>
        <time>2022-07-23T13:26:14.000Z</time>
      </trkpt>
      <trkpt lat="48.830824" lon="9.360339">
        <ele>293.532991</ele>
        <time>2022-07-23T13:26:16.000Z</time>
      </trkpt>
      <trkpt lat="48.830753" lon="9.360431">
        <ele>293.260050</ele>
        <time>2022-07-23T13:26:18.000Z</time>
      </trkpt>
      <trkpt lat="48.830656" lon="9.360522">
        <ele>292.926609</ele>
        <time>2022-07-23T13:26:20.000Z</time>
      </trkpt>
      <trkpt lat="48.830549" lon="9.360632">
        <ele>292.548732</ele>
        <time>2022-07-23T13:26:22.000Z</time>
      </trkpt>
      <trkpt lat="48.830438" lon="9.360739">
        <ele>292.164236</ele>
        <time>2022-07-23T13:26:24.000Z</time>
      </trkpt>
      <trkpt lat="48.830325" lon="9.360849">
        <ele>291.771703</ele>
        <time>2022-07-23T13:26:26.000Z</time>
      </trkpt>
      <trkpt lat="48.830214" lon="9.360961">
        <ele>291.381964</ele>
        <time>2022-07-23T13:26:28.000Z</time>
      </trkpt>
      <trkpt lat="48.830102" lon="9.361067">
        <ele>290.996016</ele>
        <time>2022-07-23T13:26:30.000Z</time>
      </trkpt>
      <trkpt lat="48.829989" lon="9.361169">
        <ele>290.611573</ele>
        <time>2022-07-23T13:26:32.001Z</time>
      </trkpt>
      <trkpt lat="48.829880" lon="9.361267">
        <ele>290.241121</ele>
        <time>2022-07-23T13:26:34.001Z</time>
      </trkpt>
      <trkpt lat="48.829772" lon="9.361364">
        <ele>289.874167</ele>
        <time>2022-07-23T13:26:36.001Z</time>
      </trkpt>
      <trkpt lat="48.829665" lon="9.361465">
        <ele>289.505721</ele>
        <time>2022-07-23T13:26:38.001Z</time>
      </trkpt>
      <trkpt lat="48.829554" lon="9.361558">
        <ele>289.218373</ele>
        <time>2022-07-23T13:26:40.001Z</time>
      </trkpt>
      <trkpt lat="48.829438" lon="9.361629">
        <ele>288.947006</ele>
        <time>2022-07-23T13:26:42.001Z</time>
      </trkpt>
      <trkpt lat="48.829333" lon="9.361705">
        <ele>288.694630</ele>
        <time>2022-07-23T13:26:44.001Z</time>
      </trkpt>
      <trkpt lat="48.829226" lon="9.361777">
        <ele>288.440696</ele>
        <time>2022-07-23T13:26:46.001Z</time>
      </trkpt>
      <trkpt lat="48.829120" lon="9.361852">
        <ele>288.186965</ele>
        <time>2022-07-23T13:26:48.001Z</time>
      </trkpt>
      <trkpt lat="48.829014" lon="9.361934">
        <ele>287.928852</ele>
        <time>2022-07-23T13:26:50.001Z</time>
      </trkpt>
      <trkpt lat="48.828909" lon="9.362004">
        <ele>287.680042</ele>
        <time>2022-07-23T13:26:52.001Z</time>
      </trkpt>
      <trkpt lat="48.828812" lon="9.362090">
        <ele>287.436338</ele>
        <time>2022-07-23T13:26:54.001Z</time>
      </trkpt>
      <trkpt lat="48.828720" lon="9.362157">
        <ele>287.214956</ele>
        <time>2022-07-23T13:26:56.001Z</time>
      </trkpt>
      <trkpt lat="48.828626" lon="9.362225">
        <ele>286.989041</ele>
        <time>2022-07-23T13:26:57.999Z</time>
      </trkpt>
      <trkpt lat="48.828527" lon="9.362298">
        <ele>286.750254</ele>
        <time>2022-07-23T13:26:59.999Z</time>
      </trkpt>
      <trkpt lat="48.828428" lon="9.362371">
        <ele>286.511466</ele>
        <time>2022-07-23T13:27:01.999Z</time>
      </trkpt>
      <trkpt lat="48.828338" lon="9.362436">
        <ele>286.295230</ele>
        <time>2022-07-23T13:27:03.999Z</time>
      </trkpt>
      <trkpt lat="48.828251" lon="9.362497">
        <ele>286.087313</ele>
        <time>2022-07-23T13:27:05.999Z</time>
      </trkpt>
      <trkpt lat="48.828157" lon="9.362563">
        <ele>285.862612</ele>
        <time>2022-07-23T13:27:07.999Z</time>
      </trkpt>
      <trkpt lat="48.828067" lon="9.362619">
        <ele>285.651577</ele>
        <time>2022-07-23T13:27:09.999Z</time>
      </trkpt>
      <trkpt lat="48.827979" lon="9.362685">
        <ele>285.531543</ele>
        <time>2022-07-23T13:27:12.999Z</time>
      </trkpt>
      <trkpt lat="48.827880" lon="9.362748">
        <ele>285.484091</ele>
        <time>2022-07-23T13:27:16.999Z</time>
      </trkpt>
      <trkpt lat="48.827768" lon="9.362834">
        <ele>285.428610</ele>
        <time>2022-07-23T13:27:20.000Z</time>
      </trkpt>
      <trkpt lat="48.827678" lon="9.362882">
        <ele>285.386441</ele>
        <time>2022-07-23T13:27:22.000Z</time>
      </trkpt>
      <trkpt lat="48.827585" lon="9.362936">
        <ele>285.342425</ele>
        <time>2022-07-23T13:27:24.000Z</time>
      </trkpt>
      <trkpt lat="48.827482" lon="9.362999">
        <ele>285.293338</ele>
        <time>2022-07-23T13:27:26.000Z</time>
      </trkpt>
      <trkpt lat="48.827371" lon="9.363056">
        <ele>285.241537</ele>
        <time>2022-07-23T13:27:28.000Z</time>
      </trkpt>
      <trkpt lat="48.827259" lon="9.363115">
        <ele>285.189131</ele>
        <time>2022-07-23T13:27:30.000Z</time>
      </trkpt>
      <trkpt lat="48.827151" lon="9.363174">
        <ele>285.138391</ele>
        <time>2022-07-23T13:27:32.000Z</time>
      </trkpt>
      <trkpt lat="48.827043" lon="9.363224">
        <ele>285.088477</ele>
        <time>2022-07-23T13:27:34.000Z</time>
      </trkpt>
      <trkpt lat="48.826939" lon="9.363278">
        <ele>285.039888</ele>
        <time>2022-07-23T13:27:36.000Z</time>
      </trkpt>
      <trkpt lat="48.826837" lon="9.363342">
        <ele>284.991100</ele>
        <time>2022-07-23T13:27:38.000Z</time>
      </trkpt>
      <trkpt lat="48.826738" lon="9.363401">
        <ele>284.944085</ele>
        <time>2022-07-23T13:27:40.000Z</time>
      </trkpt>
      <trkpt lat="48.826639" lon="9.363460">
        <ele>284.897070</ele>
        <time>2022-07-23T13:27:42.000Z</time>
      </trkpt>
      <trkpt lat="48.826539" lon="9.363515">
        <ele>284.850052</ele>
        <time>2022-07-23T13:27:44.000Z</time>
      </trkpt>
      <trkpt lat="48.826438" lon="9.363549">
        <ele>284.804318</ele>
        <time>2022-07-23T13:27:46.000Z</time>
      </trkpt>
      <trkpt lat="48.826340" lon="9.363592">
        <ele>284.759008</ele>
        <time>2022-07-23T13:27:48.000Z</time>
      </trkpt>
      <trkpt lat="48.826251" lon="9.363630">
        <ele>284.708791</ele>
        <time>2022-07-23T13:27:50.000Z</time>
      </trkpt>
      <trkpt lat="48.826138" lon="9.363683">
        <ele>284.644553</ele>
        <time>2022-07-23T13:27:53.000Z</time>
      </trkpt>
      <trkpt lat="48.826013" lon="9.363721">
        <ele>284.575309</ele>
        <time>2022-07-23T13:27:56.000Z</time>
      </trkpt>
      <trkpt lat="48.825897" lon="9.363761">
        <ele>284.510697</ele>
        <time>2022-07-23T13:27:59.000Z</time>
      </trkpt>
      <trkpt lat="48.825794" lon="9.363794">
        <ele>284.453519</ele>
        <time>2022-07-23T13:28:02.000Z</time>
      </trkpt>
      <trkpt lat="48.825670" lon="9.363858">
        <ele>284.382383</ele>
        <time>2022-07-23T13:28:05.000Z</time>
      </trkpt>
      <trkpt lat="48.825571" lon="9.363893">
        <ele>284.327171</ele>
        <time>2022-07-23T13:28:07.000Z</time>
      </trkpt>
      <trkpt lat="48.825463" lon="9.363933">
        <ele>284.266789</ele>
        <time>2022-07-23T13:28:09.000Z</time>
      </trkpt>
      <trkpt lat="48.825352" lon="9.363986">
        <ele>284.203587</ele>
        <time>2022-07-23T13:28:11.000Z</time>
      </trkpt>
      <trkpt lat="48.825243" lon="9.364067">
        <ele>284.137675</ele>
        <time>2022-07-23T13:28:13.000Z</time>
      </trkpt>
      <trkpt lat="48.825144" lon="9.364176">
        <ele>284.071259</ele>
        <time>2022-07-23T13:28:15.000Z</time>
      </trkpt>
      <trkpt lat="48.825051" lon="9.364285">
        <ele>284.007454</ele>
        <time>2022-07-23T13:28:17.000Z</time>
      </trkpt>
      <trkpt lat="48.824954" lon="9.364396">
        <ele>283.941486</ele>
        <time>2022-07-23T13:28:19.000Z</time>
      </trkpt>
      <trkpt lat="48.824859" lon="9.364504">
        <ele>283.877032</ele>
        <time>2022-07-23T13:28:21.000Z</time>
      </trkpt>
      <trkpt lat="48.824769" lon="9.364618">
        <ele>283.813378</ele>
        <time>2022-07-23T13:28:23.000Z</time>
      </trkpt>
      <trkpt lat="48.824685" lon="9.364718">
        <ele>283.662879</ele>
        <time>2022-07-23T13:28:25.000Z</time>
      </trkpt>
      <trkpt lat="48.824595" lon="9.364818">
        <ele>283.400498</ele>
        <time>2022-07-23T13:28:27.000Z</time>
      </trkpt>
      <trkpt lat="48.824513" lon="9.364925">
        <ele>283.146132</ele>
        <time>2022-07-23T13:28:29.000Z</time>
      </trkpt>
      <trkpt lat="48.824434" lon="9.365038">
        <ele>282.890796</ele>
        <time>2022-07-23T13:28:31.000Z</time>
      </trkpt>
      <trkpt lat="48.824353" lon="9.365154">
        <ele>282.628849</ele>
        <time>2022-07-23T13:28:33.000Z</time>
      </trkpt>
      <trkpt lat="48.824268" lon="9.365276">
        <ele>282.353676</ele>
        <time>2022-07-23T13:28:35.000Z</time>
      </trkpt>
      <trkpt lat="48.824184" lon="9.365398">
        <ele>282.080209</ele>
        <time>2022-07-23T13:28:37.000Z</time>
      </trkpt>
      <trkpt lat="48.824092" lon="9.365519">
        <ele>281.793858</ele>
        <time>2022-07-23T13:28:39.001Z</time>
      </trkpt>
      <trkpt lat="48.823999" lon="9.365643">
        <ele>281.502680</ele>
        <time>2022-07-23T13:28:41.001Z</time>
      </trkpt>
      <trkpt lat="48.823909" lon="9.365766">
        <ele>281.217807</ele>
        <time>2022-07-23T13:28:43.001Z</time>
      </trkpt>
      <trkpt lat="48.823821" lon="9.365882">
        <ele>280.943641</ele>
        <time>2022-07-23T13:28:45.001Z</time>
      </trkpt>
      <trkpt lat="48.823732" lon="9.365999">
        <ele>280.666682</ele>
        <time>2022-07-23T13:28:47.001Z</time>
      </trkpt>
      <trkpt lat="48.823645" lon="9.366116">
        <ele>280.393264</ele>
        <time>2022-07-23T13:28:49.001Z</time>
      </trkpt>
      <trkpt lat="48.823555" lon="9.366232">
        <ele>280.115526</ele>
        <time>2022-07-23T13:28:51.001Z</time>
      </trkpt>
      <trkpt lat="48.823465" lon="9.366348">
        <ele>279.837788</ele>
        <time>2022-07-23T13:28:53.001Z</time>
      </trkpt>
      <trkpt lat="48.823378" lon="9.366464">
        <ele>279.565394</ele>
        <time>2022-07-23T13:28:55.001Z</time>
      </trkpt>
      <trkpt lat="48.823293" lon="9.366586">
        <ele>279.364875</ele>
        <time>2022-07-23T13:28:57.001Z</time>
      </trkpt>
      <trkpt lat="48.823204" lon="9.366700">
        <ele>279.169355</ele>
        <time>2022-07-23T13:28:59.001Z</time>
      </trkpt>
      <trkpt lat="48.823116" lon="9.366807">
        <ele>278.980045</ele>
        <time>2022-07-23T13:29:01.001Z</time>
      </trkpt>
      <trkpt lat="48.823029" lon="9.366925">
        <ele>278.784162</ele>
        <time>2022-07-23T13:29:02.999Z</time>
      </trkpt>
      <trkpt lat="48.822944" lon="9.367050">
        <ele>278.585467</ele>
        <time>2022-07-23T13:29:04.999Z</time>
      </trkpt>
      <trkpt lat="48.822856" lon="9.367173">
        <ele>278.384626</ele>
        <time>2022-07-23T13:29:06.999Z</time>
      </trkpt>
      <trkpt lat="48.822771" lon="9.367297">
        <ele>278.186698</ele>
        <time>2022-07-23T13:29:08.999Z</time>
      </trkpt>
      <trkpt lat="48.822686" lon="9.367419">
        <ele>277.990296</ele>
        <time>2022-07-23T13:29:10.999Z</time>
      </trkpt>
      <trkpt lat="48.822600" lon="9.367542">
        <ele>277.791913</ele>
        <time>2022-07-23T13:29:12.999Z</time>
      </trkpt>
      <trkpt lat="48.822518" lon="9.367670">
        <ele>277.594441</ele>
        <time>2022-07-23T13:29:14.999Z</time>
      </trkpt>
      <trkpt lat="48.822432" lon="9.367789">
        <ele>277.399063</ele>
        <time>2022-07-23T13:29:16.999Z</time>
      </trkpt>
      <trkpt lat="48.822349" lon="9.367916">
        <ele>277.201203</ele>
        <time>2022-07-23T13:29:18.999Z</time>
      </trkpt>
      <trkpt lat="48.822263" lon="9.368038">
        <ele>277.003576</ele>
        <time>2022-07-23T13:29:20.999Z</time>
      </trkpt>
      <trkpt lat="48.822181" lon="9.368165">
        <ele>276.806895</ele>
        <time>2022-07-23T13:29:22.999Z</time>
      </trkpt>
      <trkpt lat="48.822101" lon="9.368283">
        <ele>276.619614</ele>
        <time>2022-07-23T13:29:24.999Z</time>
      </trkpt>
      <trkpt lat="48.822018" lon="9.368406">
        <ele>276.290881</ele>
        <time>2022-07-23T13:29:26.999Z</time>
      </trkpt>
      <trkpt lat="48.821942" lon="9.368534">
        <ele>275.858276</ele>
        <time>2022-07-23T13:29:29.000Z</time>
      </trkpt>
      <trkpt lat="48.821863" lon="9.368662">
        <ele>275.417930</ele>
        <time>2022-07-23T13:29:31.000Z</time>
      </trkpt>
      <trkpt lat="48.821788" lon="9.368795">
        <ele>274.978415</ele>
        <time>2022-07-23T13:29:33.000Z</time>
      </trkpt>
      <trkpt lat="48.821716" lon="9.368932">
        <ele>274.538449</ele>
        <time>2022-07-23T13:29:35.000Z</time>
      </trkpt>
      <trkpt lat="48.821648" lon="9.369064">
        <ele>274.117784</ele>
        <time>2022-07-23T13:29:37.000Z</time>
      </trkpt>
      <trkpt lat="48.821584" lon="9.369186">
        <ele>273.726268</ele>
        <time>2022-07-23T13:29:39.000Z</time>
      </trkpt>
      <trkpt lat="48.821521" lon="9.369311">
        <ele>273.331162</ele>
        <time>2022-07-23T13:29:41.000Z</time>
      </trkpt>
      <trkpt lat="48.821463" lon="9.369431">
        <ele>272.957532</ele>
        <time>2022-07-23T13:29:43.000Z</time>
      </trkpt>
      <trkpt lat="48.821393" lon="9.369564">
        <ele>272.530168</ele>
        <time>2022-07-23T13:29:46.000Z</time>
      </trkpt>
      <trkpt lat="48.821298" lon="9.369512">
        <ele>272.145220</ele>
        <time>2022-07-23T13:29:49.000Z</time>
      </trkpt>
      <trkpt lat="48.821190" lon="9.369414">
        <ele>271.665634</ele>
        <time>2022-07-23T13:29:52.000Z</time>
      </trkpt>
      <trkpt lat="48.821102" lon="9.369381">
        <ele>271.320097</ele>
        <time>2022-07-23T13:29:54.000Z</time>
      </trkpt>
      <trkpt lat="48.821006" lon="9.369340">
        <ele>270.939945</ele>
        <time>2022-07-23T13:29:56.000Z</time>
      </trkpt>
      <trkpt lat="48.820904" lon="9.369298">
        <ele>270.537076</ele>
        <time>2022-07-23T13:29:58.000Z</time>
      </trkpt>
      <trkpt lat="48.820797" lon="9.369256">
        <ele>270.115782</ele>
        <time>2022-07-23T13:30:00.000Z</time>
      </trkpt>
      <trkpt lat="48.820701" lon="9.369219">
        <ele>269.738223</ele>
        <time>2022-07-23T13:30:02.000Z</time>
      </trkpt>
      <trkpt lat="48.820571" lon="9.369169">
        <ele>268.683554</ele>
        <time>2022-07-23T13:30:05.000Z</time>
      </trkpt>
      <trkpt lat="48.820474" lon="9.369126">
        <ele>267.829823</ele>
        <time>2022-07-23T13:30:07.000Z</time>
      </trkpt>
      <trkpt lat="48.820382" lon="9.369091">
        <ele>267.028518</ele>
        <time>2022-07-23T13:30:09.000Z</time>
      </trkpt>
      <trkpt lat="48.820292" lon="9.369054">
        <ele>266.240759</ele>
        <time>2022-07-23T13:30:11.000Z</time>
      </trkpt>
      <trkpt lat="48.820194" lon="9.369015">
        <ele>265.384823</ele>
        <time>2022-07-23T13:30:13.000Z</time>
      </trkpt>
      <trkpt lat="48.820100" lon="9.368980">
        <ele>264.567116</ele>
        <time>2022-07-23T13:30:15.000Z</time>
      </trkpt>
      <trkpt lat="48.820010" lon="9.368941">
        <ele>263.776377</ele>
        <time>2022-07-23T13:30:17.000Z</time>
      </trkpt>
      <trkpt lat="48.819882" lon="9.368892">
        <ele>262.661104</ele>
        <time>2022-07-23T13:30:20.000Z</time>
      </trkpt>
      <trkpt lat="48.819766" lon="9.368855">
        <ele>261.659660</ele>
        <time>2022-07-23T13:30:23.000Z</time>
      </trkpt>
      <trkpt lat="48.819655" lon="9.368808">
        <ele>260.686076</ele>
        <time>2022-07-23T13:30:26.000Z</time>
      </trkpt>
      <trkpt lat="48.819612" lon="9.368659">
        <ele>259.781072</ele>
        <time>2022-07-23T13:30:29.000Z</time>
      </trkpt>
      <trkpt lat="48.819628" lon="9.368514">
        <ele>258.963192</ele>
        <time>2022-07-23T13:30:32.000Z</time>
      </trkpt>
      <trkpt lat="48.819643" lon="9.368370">
        <ele>258.152162</ele>
        <time>2022-07-23T13:30:35.000Z</time>
      </trkpt>
      <trkpt lat="48.819658" lon="9.368227">
        <ele>257.346626</ele>
        <time>2022-07-23T13:30:38.000Z</time>
      </trkpt>
      <trkpt lat="48.819651" lon="9.368065">
        <ele>256.443487</ele>
        <time>2022-07-23T13:30:42.000Z</time>
      </trkpt>
      <trkpt lat="48.819559" lon="9.367999">
        <ele>255.583844</ele>
        <time>2022-07-23T13:30:46.001Z</time>
      </trkpt>
      <trkpt lat="48.819446" lon="9.367954">
        <ele>254.596853</ele>
        <time>2022-07-23T13:30:49.001Z</time>
      </trkpt>
      <trkpt lat="48.819355" lon="9.367935">
        <ele>253.563952</ele>
        <time>2022-07-23T13:30:51.001Z</time>
      </trkpt>
      <trkpt lat="48.819254" lon="9.367917">
        <ele>252.368708</ele>
        <time>2022-07-23T13:30:54.001Z</time>
      </trkpt>
      <trkpt lat="48.819126" lon="9.367887">
        <ele>250.846457</ele>
        <time>2022-07-23T13:30:58.001Z</time>
      </trkpt>
      <trkpt lat="48.819023" lon="9.367883">
        <ele>249.635455</ele>
        <time>2022-07-23T13:31:00.001Z</time>
      </trkpt>
      <trkpt lat="48.818903" lon="9.367888">
        <ele>248.224510</ele>
        <time>2022-07-23T13:31:03.001Z</time>
      </trkpt>
      <trkpt lat="48.818802" lon="9.367923">
        <ele>247.006901</ele>
        <time>2022-07-23T13:31:06.001Z</time>
      </trkpt>
      <trkpt lat="48.818712" lon="9.368024">
        <ele>245.691636</ele>
        <time>2022-07-23T13:31:09.999Z</time>
      </trkpt>
      <trkpt lat="48.818636" lon="9.368146">
        <ele>244.391886</ele>
        <time>2022-07-23T13:31:13.999Z</time>
      </trkpt>
      <trkpt lat="48.818564" lon="9.368257">
        <ele>243.186038</ele>
        <time>2022-07-23T13:31:16.999Z</time>
      </trkpt>
      <trkpt lat="48.818491" lon="9.368375">
        <ele>241.932997</ele>
        <time>2022-07-23T13:31:19.999Z</time>
      </trkpt>
      <trkpt lat="48.818404" lon="9.368453">
        <ele>240.745565</ele>
        <time>2022-07-23T13:31:22.999Z</time>
      </trkpt>
      <trkpt lat="48.818290" lon="9.368523">
        <ele>239.300300</ele>
        <time>2022-07-23T13:31:25.999Z</time>
      </trkpt>
      <trkpt lat="48.818197" lon="9.368587">
        <ele>238.100247</ele>
        <time>2022-07-23T13:31:28.999Z</time>
      </trkpt>
      <trkpt lat="48.818107" lon="9.368637">
        <ele>236.973882</ele>
        <time>2022-07-23T13:31:31.999Z</time>
      </trkpt>
      <trkpt lat="48.817987" lon="9.368664">
        <ele>235.548073</ele>
        <time>2022-07-23T13:31:36.000Z</time>
      </trkpt>
      <trkpt lat="48.817872" lon="9.368686">
        <ele>234.185744</ele>
        <time>2022-07-23T13:31:39.000Z</time>
      </trkpt>
      <trkpt lat="48.817742" lon="9.368697">
        <ele>233.208783</ele>
        <time>2022-07-23T13:31:42.000Z</time>
      </trkpt>
      <trkpt lat="48.817627" lon="9.368718">
        <ele>232.952486</ele>
        <time>2022-07-23T13:31:45.000Z</time>
      </trkpt>
      <trkpt lat="48.817505" lon="9.368736">
        <ele>232.681261</ele>
        <time>2022-07-23T13:31:48.000Z</time>
      </trkpt>
      <trkpt lat="48.817413" lon="9.368756">
        <ele>232.475615</ele>
        <time>2022-07-23T13:31:50.000Z</time>
      </trkpt>
      <trkpt lat="48.817281" lon="9.368776">
        <ele>232.182083</ele>
        <time>2022-07-23T13:31:53.000Z</time>
      </trkpt>
      <trkpt lat="48.817185" lon="9.368792">
        <ele>231.968386</ele>
        <time>2022-07-23T13:31:55.000Z</time>
      </trkpt>
      <trkpt lat="48.817081" lon="9.368821">
        <ele>231.734414</ele>
        <time>2022-07-23T13:31:57.000Z</time>
      </trkpt>
      <trkpt lat="48.816971" lon="9.368835">
        <ele>231.490160</ele>
        <time>2022-07-23T13:31:59.000Z</time>
      </trkpt>
      <trkpt lat="48.816852" lon="9.368853">
        <ele>231.225542</ele>
        <time>2022-07-23T13:32:01.000Z</time>
      </trkpt>
      <trkpt lat="48.816736" lon="9.368880">
        <ele>230.965867</ele>
        <time>2022-07-23T13:32:03.000Z</time>
      </trkpt>
      <trkpt lat="48.816620" lon="9.368929">
        <ele>230.699446</ele>
        <time>2022-07-23T13:32:05.000Z</time>
      </trkpt>
      <trkpt lat="48.816508" lon="9.369002">
        <ele>230.429759</ele>
        <time>2022-07-23T13:32:07.000Z</time>
      </trkpt>
      <trkpt lat="48.816405" lon="9.369088">
        <ele>230.169672</ele>
        <time>2022-07-23T13:32:09.000Z</time>
      </trkpt>
      <trkpt lat="48.816305" lon="9.369173">
        <ele>229.916098</ele>
        <time>2022-07-23T13:32:11.000Z</time>
      </trkpt>
      <trkpt lat="48.816211" lon="9.369259">
        <ele>229.673272</ele>
        <time>2022-07-23T13:32:13.000Z</time>
      </trkpt>
      <trkpt lat="48.816118" lon="9.369351">
        <ele>229.427679</ele>
        <time>2022-07-23T13:32:15.000Z</time>
      </trkpt>
      <trkpt lat="48.816027" lon="9.369431">
        <ele>229.416352</ele>
        <time>2022-07-23T13:32:17.000Z</time>
      </trkpt>
      <trkpt lat="48.815926" lon="9.369495">
        <ele>229.504674</ele>
        <time>2022-07-23T13:32:19.000Z</time>
      </trkpt>
      <trkpt lat="48.815837" lon="9.369533">
        <ele>229.579286</ele>
        <time>2022-07-23T13:32:21.000Z</time>
      </trkpt>
      <trkpt lat="48.815741" lon="9.369566">
        <ele>229.658722</ele>
        <time>2022-07-23T13:32:23.000Z</time>
      </trkpt>
      <trkpt lat="48.815647" lon="9.369591">
        <ele>229.735738</ele>
        <time>2022-07-23T13:32:25.000Z</time>
      </trkpt>
      <trkpt lat="48.815539" lon="9.369608">
        <ele>229.823365</ele>
        <time>2022-07-23T13:32:27.000Z</time>
      </trkpt>
      <trkpt lat="48.815440" lon="9.369615">
        <ele>229.903349</ele>
        <time>2022-07-23T13:32:29.000Z</time>
      </trkpt>
      <trkpt lat="48.815335" lon="9.369607">
        <ele>229.988195</ele>
        <time>2022-07-23T13:32:31.000Z</time>
      </trkpt>
      <trkpt lat="48.815231" lon="9.369575">
        <ele>230.073833</ele>
        <time>2022-07-23T13:32:33.000Z</time>
      </trkpt>
      <trkpt lat="48.815120" lon="9.369538">
        <ele>230.165547</ele>
        <time>2022-07-23T13:32:35.000Z</time>
      </trkpt>
      <trkpt lat="48.815010" lon="9.369495">
        <ele>230.257215</ele>
        <time>2022-07-23T13:32:37.000Z</time>
      </trkpt>
      <trkpt lat="48.814910" lon="9.369442">
        <ele>230.342693</ele>
        <time>2022-07-23T13:32:39.000Z</time>
      </trkpt>
      <trkpt lat="48.814818" lon="9.369381">
        <ele>230.423709</ele>
        <time>2022-07-23T13:32:41.000Z</time>
      </trkpt>
      <trkpt lat="48.814659" lon="9.369318">
        <ele>230.556325</ele>
        <time>2022-07-23T13:32:44.001Z</time>
      </trkpt>
      <trkpt lat="48.814543" lon="9.369280">
        <ele>230.652095</ele>
        <time>2022-07-23T13:32:46.001Z</time>
      </trkpt>
      <trkpt lat="48.814448" lon="9.369277">
        <ele>230.728780</ele>
        <time>2022-07-23T13:32:48.001Z</time>
      </trkpt>
      <trkpt lat="48.814347" lon="9.369222">
        <ele>230.814123</ele>
        <time>2022-07-23T13:32:51.001Z</time>
      </trkpt>
      <trkpt lat="48.814286" lon="9.369075">
        <ele>230.888949</ele>
        <time>2022-07-23T13:32:54.001Z</time>
      </trkpt>
      <trkpt lat="48.814255" lon="9.368923">
        <ele>230.957476</ele>
        <time>2022-07-23T13:32:56.001Z</time>
      </trkpt>
      <trkpt lat="48.814214" lon="9.368764">
        <ele>231.031012</ele>
        <time>2022-07-23T13:32:58.001Z</time>
      </trkpt>
      <trkpt lat="48.814177" lon="9.368588">
        <ele>231.110575</ele>
        <time>2022-07-23T13:33:00.001Z</time>
      </trkpt>
      <trkpt lat="48.814136" lon="9.368416">
        <ele>231.189351</ele>
        <time>2022-07-23T13:33:02.001Z</time>
      </trkpt>
      <trkpt lat="48.814099" lon="9.368247">
        <ele>231.266048</ele>
        <time>2022-07-23T13:33:04.001Z</time>
      </trkpt>
      <trkpt lat="48.814065" lon="9.368074">
        <ele>231.343798</ele>
        <time>2022-07-23T13:33:06.001Z</time>
      </trkpt>
      <trkpt lat="48.814036" lon="9.367905">
        <ele>231.419009</ele>
        <time>2022-07-23T13:33:08.001Z</time>
      </trkpt>
      <trkpt lat="48.814015" lon="9.367741">
        <ele>231.490959</ele>
        <time>2022-07-23T13:33:10.001Z</time>
      </trkpt>
      <trkpt lat="48.813999" lon="9.367591">
        <ele>231.556399</ele>
        <time>2022-07-23T13:33:12.001Z</time>
      </trkpt>
      <trkpt lat="48.813997" lon="9.367443">
        <ele>231.620149</ele>
        <time>2022-07-23T13:33:14.001Z</time>
      </trkpt>
      <trkpt lat="48.814038" lon="9.367301">
        <ele>231.686921</ele>
        <time>2022-07-23T13:33:15.999Z</time>
      </trkpt>
      <trkpt lat="48.814144" lon="9.367187">
        <ele>231.771868</ele>
        <time>2022-07-23T13:33:17.999Z</time>
      </trkpt>
      <trkpt lat="48.814193" lon="9.367044">
        <ele>231.841289</ele>
        <time>2022-07-23T13:33:19.999Z</time>
      </trkpt>
      <trkpt lat="48.814165" lon="9.366880">
        <ele>231.914251</ele>
        <time>2022-07-23T13:33:21.999Z</time>
      </trkpt>
      <trkpt lat="48.814078" lon="9.366761">
        <ele>232.018887</ele>
        <time>2022-07-23T13:33:23.999Z</time>
      </trkpt>
      <trkpt lat="48.813975" lon="9.366726">
        <ele>232.424092</ele>
        <time>2022-07-23T13:33:25.999Z</time>
      </trkpt>
      <trkpt lat="48.813858" lon="9.366794">
        <ele>232.905038</ele>
        <time>2022-07-23T13:33:28.999Z</time>
      </trkpt>
      <trkpt lat="48.813766" lon="9.366884">
        <ele>233.325176</ele>
        <time>2022-07-23T13:33:31.999Z</time>
      </trkpt>
      <trkpt lat="48.813648" lon="9.366881">
        <ele>233.778251</ele>
        <time>2022-07-23T13:33:34.999Z</time>
      </trkpt>
      <trkpt lat="48.813522" lon="9.366862">
        <ele>234.264355</ele>
        <time>2022-07-23T13:33:38.000Z</time>
      </trkpt>
      <trkpt lat="48.813442" lon="9.366985">
        <ele>234.701414</ele>
        <time>2022-07-23T13:33:41.000Z</time>
      </trkpt>
      <trkpt lat="48.813388" lon="9.367154">
        <ele>235.176301</ele>
        <time>2022-07-23T13:33:44.000Z</time>
      </trkpt>
      <trkpt lat="48.813365" lon="9.367292">
        <ele>235.536178</ele>
        <time>2022-07-23T13:33:46.000Z</time>
      </trkpt>
      <trkpt lat="48.813340" lon="9.367446">
        <ele>235.937160</ele>
        <time>2022-07-23T13:33:48.000Z</time>
      </trkpt>
      <trkpt lat="48.813315" lon="9.367591">
        <ele>236.316090</ele>
        <time>2022-07-23T13:33:50.000Z</time>
      </trkpt>
      <trkpt lat="48.813300" lon="9.367727">
        <ele>236.664700</ele>
        <time>2022-07-23T13:33:52.000Z</time>
      </trkpt>
      <trkpt lat="48.813286" lon="9.367870">
        <ele>237.030192</ele>
        <time>2022-07-23T13:33:54.000Z</time>
      </trkpt>
      <trkpt lat="48.813260" lon="9.368012">
        <ele>237.402800</ele>
        <time>2022-07-23T13:33:56.000Z</time>
      </trkpt>
      <trkpt lat="48.813238" lon="9.368150">
        <ele>237.761756</ele>
        <time>2022-07-23T13:33:58.000Z</time>
      </trkpt>
      <trkpt lat="48.813216" lon="9.368293">
        <ele>238.133009</ele>
        <time>2022-07-23T13:34:00.000Z</time>
      </trkpt>
      <trkpt lat="48.813199" lon="9.368444">
        <ele>238.520291</ele>
        <time>2022-07-23T13:34:02.000Z</time>
      </trkpt>
      <trkpt lat="48.813182" lon="9.368603">
        <ele>238.902873</ele>
        <time>2022-07-23T13:34:04.000Z</time>
      </trkpt>
      <trkpt lat="48.813164" lon="9.368761">
        <ele>239.040436</ele>
        <time>2022-07-23T13:34:06.000Z</time>
      </trkpt>
      <trkpt lat="48.813136" lon="9.368909">
        <ele>239.172542</ele>
        <time>2022-07-23T13:34:08.000Z</time>
      </trkpt>
      <trkpt lat="48.813111" lon="9.369058">
        <ele>239.304454</ele>
        <time>2022-07-23T13:34:10.000Z</time>
      </trkpt>
      <trkpt lat="48.813090" lon="9.369215">
        <ele>239.441895</ele>
        <time>2022-07-23T13:34:12.000Z</time>
      </trkpt>
      <trkpt lat="48.813066" lon="9.369370">
        <ele>239.578497</ele>
        <time>2022-07-23T13:34:14.000Z</time>
      </trkpt>
      <trkpt lat="48.813004" lon="9.369549">
        <ele>239.752010</ele>
        <time>2022-07-23T13:34:17.000Z</time>
      </trkpt>
      <trkpt lat="48.812878" lon="9.369637">
        <ele>239.932689</ele>
        <time>2022-07-23T13:34:20.000Z</time>
      </trkpt>
      <trkpt lat="48.812801" lon="9.369713">
        <ele>240.052331</ele>
        <time>2022-07-23T13:34:22.000Z</time>
      </trkpt>
      <trkpt lat="48.812758" lon="9.369871">
        <ele>240.199001</ele>
        <time>2022-07-23T13:34:24.000Z</time>
      </trkpt>
      <trkpt lat="48.812742" lon="9.370034">
        <ele>240.340385</ele>
        <time>2022-07-23T13:34:26.000Z</time>
      </trkpt>
      <trkpt lat="48.812719" lon="9.370202">
        <ele>240.487596</ele>
        <time>2022-07-23T13:34:28.000Z</time>
      </trkpt>
      <trkpt lat="48.812695" lon="9.370373">
        <ele>240.637594</ele>
        <time>2022-07-23T13:34:30.000Z</time>
      </trkpt>
      <trkpt lat="48.812663" lon="9.370562">
        <ele>240.805013</ele>
        <time>2022-07-23T13:34:32.000Z</time>
      </trkpt>
      <trkpt lat="48.812634" lon="9.370756">
        <ele>240.975683</ele>
        <time>2022-07-23T13:34:34.000Z</time>
      </trkpt>
      <trkpt lat="48.812602" lon="9.370951">
        <ele>241.148092</ele>
        <time>2022-07-23T13:34:36.000Z</time>
      </trkpt>
      <trkpt lat="48.812579" lon="9.371144">
        <ele>241.387777</ele>
        <time>2022-07-23T13:34:38.000Z</time>
      </trkpt>
      <trkpt lat="48.812552" lon="9.371337">
        <ele>241.702869</ele>
        <time>2022-07-23T13:34:40.000Z</time>
      </trkpt>
      <trkpt lat="48.812533" lon="9.371531">
        <ele>242.016088</ele>
        <time>2022-07-23T13:34:42.000Z</time>
      </trkpt>
      <trkpt lat="48.812512" lon="9.371721">
        <ele>242.323756</ele>
        <time>2022-07-23T13:34:44.000Z</time>
      </trkpt>
      <trkpt lat="48.812493" lon="9.371905">
        <ele>242.621188</ele>
        <time>2022-07-23T13:34:46.000Z</time>
      </trkpt>
      <trkpt lat="48.812478" lon="9.372116">
        <ele>242.960106</ele>
        <time>2022-07-23T13:34:48.001Z</time>
      </trkpt>
      <trkpt lat="48.812468" lon="9.372308">
        <ele>243.267681</ele>
        <time>2022-07-23T13:34:50.001Z</time>
      </trkpt>
      <trkpt lat="48.812461" lon="9.372507">
        <ele>243.585931</ele>
        <time>2022-07-23T13:34:52.001Z</time>
      </trkpt>
      <trkpt lat="48.812458" lon="9.372700">
        <ele>243.894232</ele>
        <time>2022-07-23T13:34:54.001Z</time>
      </trkpt>
      <trkpt lat="48.812462" lon="9.372887">
        <ele>244.193022</ele>
        <time>2022-07-23T13:34:56.001Z</time>
      </trkpt>
      <trkpt lat="48.812452" lon="9.373070">
        <ele>244.486272</ele>
        <time>2022-07-23T13:34:58.001Z</time>
      </trkpt>
      <trkpt lat="48.812420" lon="9.373247">
        <ele>244.779394</ele>
        <time>2022-07-23T13:35:00.001Z</time>
      </trkpt>
      <trkpt lat="48.812349" lon="9.373386">
        <ele>245.060322</ele>
        <time>2022-07-23T13:35:02.001Z</time>
      </trkpt>
      <trkpt lat="48.812249" lon="9.373479">
        <ele>245.344694</ele>
        <time>2022-07-23T13:35:04.001Z</time>
      </trkpt>
      <trkpt lat="48.812135" lon="9.373498">
        <ele>245.624751</ele>
        <time>2022-07-23T13:35:06.001Z</time>
      </trkpt>
      <trkpt lat="48.812020" lon="9.373476">
        <ele>245.925647</ele>
        <time>2022-07-23T13:35:08.001Z</time>
      </trkpt>
      <trkpt lat="48.811903" lon="9.373435">
        <ele>246.237356</ele>
        <time>2022-07-23T13:35:10.001Z</time>
      </trkpt>
      <trkpt lat="48.811785" lon="9.373384">
        <ele>246.555846</ele>
        <time>2022-07-23T13:35:12.001Z</time>
      </trkpt>
      <trkpt lat="48.811669" lon="9.373343">
        <ele>246.865027</ele>
        <time>2022-07-23T13:35:14.001Z</time>
      </trkpt>
      <trkpt lat="48.811558" lon="9.373291">
        <ele>247.166579</ele>
        <time>2022-07-23T13:35:16.001Z</time>
      </trkpt>
      <trkpt lat="48.811445" lon="9.373234">
        <ele>247.475684</ele>
        <time>2022-07-23T13:35:18.001Z</time>
      </trkpt>
      <trkpt lat="48.811328" lon="9.373172">
        <ele>247.797374</ele>
        <time>2022-07-23T13:35:20.001Z</time>
      </trkpt>
      <trkpt lat="48.811215" lon="9.373125">
        <ele>248.101523</ele>
        <time>2022-07-23T13:35:21.999Z</time>
      </trkpt>
      <trkpt lat="48.811102" lon="9.373055">
        <ele>248.418336</ele>
        <time>2022-07-23T13:35:23.999Z</time>
      </trkpt>
      <trkpt lat="48.810990" lon="9.373007">
        <ele>248.720442</ele>
        <time>2022-07-23T13:35:25.999Z</time>
      </trkpt>
      <trkpt lat="48.810877" lon="9.372960">
        <ele>249.024591</ele>
        <time>2022-07-23T13:35:27.999Z</time>
      </trkpt>
      <trkpt lat="48.810763" lon="9.372898">
        <ele>249.338939</ele>
        <time>2022-07-23T13:35:29.999Z</time>
      </trkpt>
      <trkpt lat="48.810642" lon="9.372839">
        <ele>249.668847</ele>
        <time>2022-07-23T13:35:31.999Z</time>
      </trkpt>
      <trkpt lat="48.810521" lon="9.372790">
        <ele>249.993937</ele>
        <time>2022-07-23T13:35:33.999Z</time>
      </trkpt>
      <trkpt lat="48.810397" lon="9.372741">
        <ele>250.233524</ele>
        <time>2022-07-23T13:35:35.999Z</time>
      </trkpt>
      <trkpt lat="48.810282" lon="9.372687">
        <ele>250.077624</ele>
        <time>2022-07-23T13:35:37.999Z</time>
      </trkpt>
      <trkpt lat="48.810166" lon="9.372682">
        <ele>249.927326</ele>
        <time>2022-07-23T13:35:39.999Z</time>
      </trkpt>
      <trkpt lat="48.810070" lon="9.372780">
        <ele>249.777507</ele>
        <time>2022-07-23T13:35:41.999Z</time>
      </trkpt>
      <trkpt lat="48.810034" lon="9.372941">
        <ele>249.632485</ele>
        <time>2022-07-23T13:35:43.999Z</time>
      </trkpt>
      <trkpt lat="48.810005" lon="9.373108">
        <ele>249.485177</ele>
        <time>2022-07-23T13:35:45.999Z</time>
      </trkpt>
      <trkpt lat="48.809973" lon="9.373279">
        <ele>249.333552</ele>
        <time>2022-07-23T13:35:48.000Z</time>
      </trkpt>
      <trkpt lat="48.809940" lon="9.373456">
        <ele>249.176650</ele>
        <time>2022-07-23T13:35:50.000Z</time>
      </trkpt>
      <trkpt lat="48.809902" lon="9.373635">
        <ele>249.016239</ele>
        <time>2022-07-23T13:35:52.000Z</time>
      </trkpt>
      <trkpt lat="48.809863" lon="9.373821">
        <ele>248.849746</ele>
        <time>2022-07-23T13:35:54.000Z</time>
      </trkpt>
      <trkpt lat="48.809816" lon="9.374002">
        <ele>248.683798</ele>
        <time>2022-07-23T13:35:56.000Z</time>
      </trkpt>
      <trkpt lat="48.809766" lon="9.374175">
        <ele>248.522656</ele>
        <time>2022-07-23T13:35:58.000Z</time>
      </trkpt>
      <trkpt lat="48.809717" lon="9.374327">
        <ele>248.378311</ele>
        <time>2022-07-23T13:36:00.000Z</time>
      </trkpt>
      <trkpt lat="48.809669" lon="9.374466">
        <ele>248.244442</ele>
        <time>2022-07-23T13:36:02.000Z</time>
      </trkpt>
      <trkpt lat="48.809625" lon="9.374601">
        <ele>248.115966</ele>
        <time>2022-07-23T13:36:04.000Z</time>
      </trkpt>
      <trkpt lat="48.809584" lon="9.374724">
        <ele>247.998382</ele>
        <time>2022-07-23T13:36:06.000Z</time>
      </trkpt>
      <trkpt lat="48.809532" lon="9.374877">
        <ele>247.769956</ele>
        <time>2022-07-23T13:36:09.000Z</time>
      </trkpt>
      <trkpt lat="48.809481" lon="9.375014">
        <ele>247.504522</ele>
        <time>2022-07-23T13:36:14.000Z</time>
      </trkpt>
      <trkpt lat="48.809413" lon="9.375170">
        <ele>247.188987</ele>
        <time>2022-07-23T13:36:17.000Z</time>
      </trkpt>
      <trkpt lat="48.809352" lon="9.375302">
        <ele>246.917002</ele>
        <time>2022-07-23T13:36:19.000Z</time>
      </trkpt>
      <trkpt lat="48.809279" lon="9.375461">
        <ele>246.590085</ele>
        <time>2022-07-23T13:36:21.000Z</time>
      </trkpt>
      <trkpt lat="48.809187" lon="9.375640">
        <ele>246.207109</ele>
        <time>2022-07-23T13:36:23.000Z</time>
      </trkpt>
      <trkpt lat="48.809083" lon="9.375828">
        <ele>245.792990</ele>
        <time>2022-07-23T13:36:25.000Z</time>
      </trkpt>
      <trkpt lat="48.808972" lon="9.376009">
        <ele>245.375834</ele>
        <time>2022-07-23T13:36:27.000Z</time>
      </trkpt>
      <trkpt lat="48.808861" lon="9.376194">
        <ele>244.953716</ele>
        <time>2022-07-23T13:36:29.000Z</time>
      </trkpt>
      <trkpt lat="48.808747" lon="9.376376">
        <ele>244.530065</ele>
        <time>2022-07-23T13:36:31.000Z</time>
      </trkpt>
      <trkpt lat="48.808641" lon="9.376549">
        <ele>244.131510</ele>
        <time>2022-07-23T13:36:33.000Z</time>
      </trkpt>
      <trkpt lat="48.808543" lon="9.376701">
        <ele>243.772727</ele>
        <time>2022-07-23T13:36:35.000Z</time>
      </trkpt>
      <trkpt lat="48.808445" lon="9.376856">
        <ele>243.410311</ele>
        <time>2022-07-23T13:36:37.000Z</time>
      </trkpt>
      <trkpt lat="48.808346" lon="9.377012">
        <ele>243.068311</ele>
        <time>2022-07-23T13:36:39.000Z</time>
      </trkpt>
      <trkpt lat="48.808254" lon="9.377168">
        <ele>242.744266</ele>
        <time>2022-07-23T13:36:41.000Z</time>
      </trkpt>
      <trkpt lat="48.808168" lon="9.377331">
        <ele>242.421069</ele>
        <time>2022-07-23T13:36:43.000Z</time>
      </trkpt>
      <trkpt lat="48.808106" lon="9.377523">
        <ele>242.090164</ele>
        <time>2022-07-23T13:36:45.000Z</time>
      </trkpt>
      <trkpt lat="48.808063" lon="9.377694">
        <ele>241.806915</ele>
        <time>2022-07-23T13:36:47.000Z</time>
      </trkpt>
      <trkpt lat="48.808004" lon="9.377864">
        <ele>241.509553</ele>
        <time>2022-07-23T13:36:49.000Z</time>
      </trkpt>
      <trkpt lat="48.807929" lon="9.377994">
        <ele>241.242111</ele>
        <time>2022-07-23T13:36:51.000Z</time>
      </trkpt>
      <trkpt lat="48.807923" lon="9.378181">
        <ele>240.952392</ele>
        <time>2022-07-23T13:36:53.001Z</time>
      </trkpt>
      <trkpt lat="48.807920" lon="9.378370">
        <ele>240.659836</ele>
        <time>2022-07-23T13:36:55.001Z</time>
      </trkpt>
      <trkpt lat="48.807869" lon="9.378544">
        <ele>240.365114</ele>
        <time>2022-07-23T13:36:57.001Z</time>
      </trkpt>
      <trkpt lat="48.807798" lon="9.378696">
        <ele>240.076744</ele>
        <time>2022-07-23T13:36:59.001Z</time>
      </trkpt>
      <trkpt lat="48.807709" lon="9.378833">
        <ele>239.778956</ele>
        <time>2022-07-23T13:37:01.001Z</time>
      </trkpt>
      <trkpt lat="48.807622" lon="9.378980">
        <ele>239.473121</ele>
        <time>2022-07-23T13:37:03.001Z</time>
      </trkpt>
      <trkpt lat="48.807539" lon="9.379136">
        <ele>239.162780</ele>
        <time>2022-07-23T13:37:05.001Z</time>
      </trkpt>
      <trkpt lat="48.807454" lon="9.379296">
        <ele>239.102072</ele>
        <time>2022-07-23T13:37:07.001Z</time>
      </trkpt>
      <trkpt lat="48.807373" lon="9.379460">
        <ele>239.101913</ele>
        <time>2022-07-23T13:37:09.001Z</time>
      </trkpt>
      <trkpt lat="48.807289" lon="9.379629">
        <ele>239.101749</ele>
        <time>2022-07-23T13:37:11.001Z</time>
      </trkpt>
      <trkpt lat="48.807204" lon="9.379790">
        <ele>239.101588</ele>
        <time>2022-07-23T13:37:13.001Z</time>
      </trkpt>
      <trkpt lat="48.807122" lon="9.379951">
        <ele>239.101430</ele>
        <time>2022-07-23T13:37:15.001Z</time>
      </trkpt>
      <trkpt lat="48.807042" lon="9.380113">
        <ele>239.101273</ele>
        <time>2022-07-23T13:37:17.001Z</time>
      </trkpt>
      <trkpt lat="48.806958" lon="9.380276">
        <ele>239.101112</ele>
        <time>2022-07-23T13:37:19.001Z</time>
      </trkpt>
      <trkpt lat="48.806873" lon="9.380437">
        <ele>239.100952</ele>
        <time>2022-07-23T13:37:21.001Z</time>
      </trkpt>
      <trkpt lat="48.806786" lon="9.380591">
        <ele>239.100794</ele>
        <time>2022-07-23T13:37:23.001Z</time>
      </trkpt>
      <trkpt lat="48.806696" lon="9.380742">
        <ele>239.100636</ele>
        <time>2022-07-23T13:37:25.001Z</time>
      </trkpt>
      <trkpt lat="48.806607" lon="9.380889">
        <ele>239.100481</ele>
        <time>2022-07-23T13:37:26.999Z</time>
      </trkpt>
      <trkpt lat="48.806514" lon="9.381026">
        <ele>239.100328</ele>
        <time>2022-07-23T13:37:28.999Z</time>
      </trkpt>
      <trkpt lat="48.806421" lon="9.381162">
        <ele>239.100176</ele>
        <time>2022-07-23T13:37:30.999Z</time>
      </trkpt>
      <trkpt lat="48.806324" lon="9.381293">
        <ele>239.108161</ele>
        <time>2022-07-23T13:37:32.999Z</time>
      </trkpt>
      <trkpt lat="48.806223" lon="9.381416">
        <ele>239.129651</ele>
        <time>2022-07-23T13:37:34.999Z</time>
      </trkpt>
      <trkpt lat="48.806122" lon="9.381535">
        <ele>239.150870</ele>
        <time>2022-07-23T13:37:36.999Z</time>
      </trkpt>
      <trkpt lat="48.806018" lon="9.381654">
        <ele>239.172485</ele>
        <time>2022-07-23T13:37:38.999Z</time>
      </trkpt>
      <trkpt lat="48.805916" lon="9.381770">
        <ele>239.193638</ele>
        <time>2022-07-23T13:37:40.999Z</time>
      </trkpt>
      <trkpt lat="48.805808" lon="9.381881">
        <ele>239.215285</ele>
        <time>2022-07-23T13:37:42.999Z</time>
      </trkpt>
      <trkpt lat="48.805702" lon="9.381991">
        <ele>239.236595</ele>
        <time>2022-07-23T13:37:44.999Z</time>
      </trkpt>
      <trkpt lat="48.805597" lon="9.382096">
        <ele>239.257464</ele>
        <time>2022-07-23T13:37:46.999Z</time>
      </trkpt>
      <trkpt lat="48.805493" lon="9.382189">
        <ele>239.277497</ele>
        <time>2022-07-23T13:37:48.999Z</time>
      </trkpt>
      <trkpt lat="48.805394" lon="9.382286">
        <ele>239.297054</ele>
        <time>2022-07-23T13:37:51.000Z</time>
      </trkpt>
      <trkpt lat="48.805294" lon="9.382389">
        <ele>239.317111</ele>
        <time>2022-07-23T13:37:53.000Z</time>
      </trkpt>
      <trkpt lat="48.805190" lon="9.382492">
        <ele>239.337720</ele>
        <time>2022-07-23T13:37:55.000Z</time>
      </trkpt>
      <trkpt lat="48.805090" lon="9.382607">
        <ele>239.358542</ele>
        <time>2022-07-23T13:37:57.000Z</time>
      </trkpt>
      <trkpt lat="48.804996" lon="9.382726">
        <ele>239.378856</ele>
        <time>2022-07-23T13:37:59.000Z</time>
      </trkpt>
      <trkpt lat="48.804898" lon="9.382857">
        <ele>239.406989</ele>
        <time>2022-07-23T13:38:01.000Z</time>
      </trkpt>
      <trkpt lat="48.804826" lon="9.382961">
        <ele>239.479363</ele>
        <time>2022-07-23T13:38:03.000Z</time>
      </trkpt>
      <trkpt lat="48.804694" lon="9.383158">
        <ele>239.614162</ele>
        <time>2022-07-23T13:38:35.000Z</time>
      </trkpt>
      <trkpt lat="48.804628" lon="9.383274">
        <ele>239.687690</ele>
        <time>2022-07-23T13:38:37.000Z</time>
      </trkpt>
      <trkpt lat="48.804561" lon="9.383407">
        <ele>239.768007</ele>
        <time>2022-07-23T13:38:39.000Z</time>
      </trkpt>
      <trkpt lat="48.804480" lon="9.383555">
        <ele>239.860308</ele>
        <time>2022-07-23T13:38:41.000Z</time>
      </trkpt>
      <trkpt lat="48.804393" lon="9.383703">
        <ele>239.955462</ele>
        <time>2022-07-23T13:38:43.000Z</time>
      </trkpt>
      <trkpt lat="48.804309" lon="9.383847">
        <ele>240.047730</ele>
        <time>2022-07-23T13:38:45.000Z</time>
      </trkpt>
      <trkpt lat="48.804225" lon="9.383994">
        <ele>240.141081</ele>
        <time>2022-07-23T13:38:47.000Z</time>
      </trkpt>
      <trkpt lat="48.804145" lon="9.384146">
        <ele>240.234410</ele>
        <time>2022-07-23T13:38:49.000Z</time>
      </trkpt>
      <trkpt lat="48.804064" lon="9.384296">
        <ele>240.327452</ele>
        <time>2022-07-23T13:38:51.000Z</time>
      </trkpt>
      <trkpt lat="48.803982" lon="9.384441">
        <ele>240.419125</ele>
        <time>2022-07-23T13:38:53.000Z</time>
      </trkpt>
      <trkpt lat="48.803901" lon="9.384590">
        <ele>240.511797</ele>
        <time>2022-07-23T13:38:55.000Z</time>
      </trkpt>
      <trkpt lat="48.803818" lon="9.384731">
        <ele>240.602506</ele>
        <time>2022-07-23T13:38:57.001Z</time>
      </trkpt>
      <trkpt lat="48.803727" lon="9.384875">
        <ele>240.698231</ele>
        <time>2022-07-23T13:38:59.001Z</time>
      </trkpt>
      <trkpt lat="48.803638" lon="9.385020">
        <ele>240.636375</ele>
        <time>2022-07-23T13:39:01.001Z</time>
      </trkpt>
      <trkpt lat="48.803554" lon="9.385163">
        <ele>240.558129</ele>
        <time>2022-07-23T13:39:03.001Z</time>
      </trkpt>
      <trkpt lat="48.803469" lon="9.385309">
        <ele>240.478556</ele>
        <time>2022-07-23T13:39:05.001Z</time>
      </trkpt>
      <trkpt lat="48.803380" lon="9.385460">
        <ele>240.395809</ele>
        <time>2022-07-23T13:39:07.001Z</time>
      </trkpt>
      <trkpt lat="48.803296" lon="9.385608">
        <ele>240.316028</ele>
        <time>2022-07-23T13:39:09.001Z</time>
      </trkpt>
      <trkpt lat="48.803214" lon="9.385749">
        <ele>240.239217</ele>
        <time>2022-07-23T13:39:11.001Z</time>
      </trkpt>
      <trkpt lat="48.803126" lon="9.385891">
        <ele>240.159597</ele>
        <time>2022-07-23T13:39:13.001Z</time>
      </trkpt>
      <trkpt lat="48.803036" lon="9.386027">
        <ele>240.080869</ele>
        <time>2022-07-23T13:39:15.001Z</time>
      </trkpt>
      <trkpt lat="48.802942" lon="9.386160">
        <ele>240.001205</ele>
        <time>2022-07-23T13:39:17.001Z</time>
      </trkpt>
      <trkpt lat="48.802856" lon="9.386299">
        <ele>239.923327</ele>
        <time>2022-07-23T13:39:19.001Z</time>
      </trkpt>
      <trkpt lat="48.802763" lon="9.386427">
        <ele>239.845500</ele>
        <time>2022-07-23T13:39:21.001Z</time>
      </trkpt>
      <trkpt lat="48.802654" lon="9.386536">
        <ele>239.764578</ele>
        <time>2022-07-23T13:39:23.001Z</time>
      </trkpt>
      <trkpt lat="48.802542" lon="9.386648">
        <ele>239.681429</ele>
        <time>2022-07-23T13:39:25.001Z</time>
      </trkpt>
      <trkpt lat="48.802434" lon="9.386757">
        <ele>239.601024</ele>
        <time>2022-07-23T13:39:27.001Z</time>
      </trkpt>
      <trkpt lat="48.802325" lon="9.386872">
        <ele>239.542282</ele>
        <time>2022-07-23T13:39:29.001Z</time>
      </trkpt>
      <trkpt lat="48.802222" lon="9.386993">
        <ele>239.487013</ele>
        <time>2022-07-23T13:39:31.001Z</time>
      </trkpt>
      <trkpt lat="48.802132" lon="9.387131">
        <ele>239.432729</ele>
        <time>2022-07-23T13:39:32.999Z</time>
      </trkpt>
      <trkpt lat="48.802041" lon="9.387274">
        <ele>239.377149</ele>
        <time>2022-07-23T13:39:34.999Z</time>
      </trkpt>
      <trkpt lat="48.801958" lon="9.387419">
        <ele>239.323451</ele>
        <time>2022-07-23T13:39:36.999Z</time>
      </trkpt>
      <trkpt lat="48.801876" lon="9.387572">
        <ele>239.268315</ele>
        <time>2022-07-23T13:39:38.999Z</time>
      </trkpt>
      <trkpt lat="48.801811" lon="9.387748">
        <ele>239.211913</ele>
        <time>2022-07-23T13:39:40.999Z</time>
      </trkpt>
      <trkpt lat="48.801777" lon="9.387937">
        <ele>239.157148</ele>
        <time>2022-07-23T13:39:42.999Z</time>
      </trkpt>
      <trkpt lat="48.801748" lon="9.388123">
        <ele>239.103719</ele>
        <time>2022-07-23T13:39:44.999Z</time>
      </trkpt>
      <trkpt lat="48.801706" lon="9.388303">
        <ele>239.050341</ele>
        <time>2022-07-23T13:39:46.999Z</time>
      </trkpt>
      <trkpt lat="48.801635" lon="9.388460">
        <ele>238.997107</ele>
        <time>2022-07-23T13:39:48.999Z</time>
      </trkpt>
      <trkpt lat="48.801539" lon="9.388595">
        <ele>238.941575</ele>
        <time>2022-07-23T13:39:50.999Z</time>
      </trkpt>
      <trkpt lat="48.801431" lon="9.388709">
        <ele>238.885753</ele>
        <time>2022-07-23T13:39:52.999Z</time>
      </trkpt>
      <trkpt lat="48.801319" lon="9.388802">
        <ele>238.831578</ele>
        <time>2022-07-23T13:39:55.000Z</time>
      </trkpt>
      <trkpt lat="48.801199" lon="9.388889">
        <ele>238.946720</ele>
        <time>2022-07-23T13:39:57.000Z</time>
      </trkpt>
      <trkpt lat="48.801081" lon="9.388990">
        <ele>239.068809</ele>
        <time>2022-07-23T13:39:59.000Z</time>
      </trkpt>
      <trkpt lat="48.800971" lon="9.389091">
        <ele>239.184672</ele>
        <time>2022-07-23T13:40:01.000Z</time>
      </trkpt>
      <trkpt lat="48.800863" lon="9.389202">
        <ele>239.302219</ele>
        <time>2022-07-23T13:40:03.000Z</time>
      </trkpt>
      <trkpt lat="48.800751" lon="9.389328">
        <ele>239.427857</ele>
        <time>2022-07-23T13:40:05.000Z</time>
      </trkpt>
      <trkpt lat="48.800637" lon="9.389470">
        <ele>239.560760</ele>
        <time>2022-07-23T13:40:07.000Z</time>
      </trkpt>
      <trkpt lat="48.800528" lon="9.389615">
        <ele>239.691379</ele>
        <time>2022-07-23T13:40:09.000Z</time>
      </trkpt>
      <trkpt lat="48.800415" lon="9.389758">
        <ele>239.823966</ele>
        <time>2022-07-23T13:40:11.000Z</time>
      </trkpt>
      <trkpt lat="48.800304" lon="9.389909">
        <ele>239.958296</ele>
        <time>2022-07-23T13:40:13.000Z</time>
      </trkpt>
      <trkpt lat="48.800195" lon="9.390065">
        <ele>240.093308</ele>
        <time>2022-07-23T13:40:15.000Z</time>
      </trkpt>
      <trkpt lat="48.800090" lon="9.390223">
        <ele>240.226553</ele>
        <time>2022-07-23T13:40:17.000Z</time>
      </trkpt>
      <trkpt lat="48.799990" lon="9.390385">
        <ele>240.358358</ele>
        <time>2022-07-23T13:40:19.000Z</time>
      </trkpt>
      <trkpt lat="48.799888" lon="9.390544">
        <ele>240.495365</ele>
        <time>2022-07-23T13:40:21.000Z</time>
      </trkpt>
      <trkpt lat="48.799779" lon="9.390703">
        <ele>240.649945</ele>
        <time>2022-07-23T13:40:23.000Z</time>
      </trkpt>
      <trkpt lat="48.799670" lon="9.390867">
        <ele>240.806877</ele>
        <time>2022-07-23T13:40:25.000Z</time>
      </trkpt>
      <trkpt lat="48.799569" lon="9.391031">
        <ele>240.958109</ele>
        <time>2022-07-23T13:40:27.000Z</time>
      </trkpt>
      <trkpt lat="48.799467" lon="9.391200">
        <ele>241.112507</ele>
        <time>2022-07-23T13:40:29.000Z</time>
      </trkpt>
      <trkpt lat="48.799375" lon="9.391379">
        <ele>241.265441</ele>
        <time>2022-07-23T13:40:31.000Z</time>
      </trkpt>
      <trkpt lat="48.799290" lon="9.391569">
        <ele>241.420151</ele>
        <time>2022-07-23T13:40:33.000Z</time>
      </trkpt>
      <trkpt lat="48.799208" lon="9.391763">
        <ele>241.575419</ele>
        <time>2022-07-23T13:40:35.000Z</time>
      </trkpt>
      <trkpt lat="48.799124" lon="9.391950">
        <ele>241.727883</ele>
        <time>2022-07-23T13:40:37.000Z</time>
      </trkpt>
      <trkpt lat="48.799038" lon="9.392133">
        <ele>241.879308</ele>
        <time>2022-07-23T13:40:39.000Z</time>
      </trkpt>
      <trkpt lat="48.798949" lon="9.392310">
        <ele>242.029302</ele>
        <time>2022-07-23T13:40:41.000Z</time>
      </trkpt>
      <trkpt lat="48.798857" lon="9.392480">
        <ele>242.177505</ele>
        <time>2022-07-23T13:40:43.000Z</time>
      </trkpt>
      <trkpt lat="48.798763" lon="9.392649">
        <ele>242.307014</ele>
        <time>2022-07-23T13:40:45.000Z</time>
      </trkpt>
      <trkpt lat="48.798670" lon="9.392817">
        <ele>242.374859</ele>
        <time>2022-07-23T13:40:47.000Z</time>
      </trkpt>
      <trkpt lat="48.798578" lon="9.392989">
        <ele>242.443359</ele>
        <time>2022-07-23T13:40:49.000Z</time>
      </trkpt>
      <trkpt lat="48.798489" lon="9.393161">
        <ele>242.510980</ele>
        <time>2022-07-23T13:40:51.000Z</time>
      </trkpt>
      <trkpt lat="48.798409" lon="9.393343">
        <ele>242.578626</ele>
        <time>2022-07-23T13:40:53.000Z</time>
      </trkpt>
      <trkpt lat="48.798340" lon="9.393535">
        <ele>242.646245</ele>
        <time>2022-07-23T13:40:55.001Z</time>
      </trkpt>
      <trkpt lat="48.798282" lon="9.393734">
        <ele>242.713522</ele>
        <time>2022-07-23T13:40:57.001Z</time>
      </trkpt>
      <trkpt lat="48.798235" lon="9.393941">
        <ele>242.781215</ele>
        <time>2022-07-23T13:40:59.001Z</time>
      </trkpt>
      <trkpt lat="48.798194" lon="9.394149">
        <ele>242.848339</ele>
        <time>2022-07-23T13:41:01.001Z</time>
      </trkpt>
      <trkpt lat="48.798147" lon="9.394357">
        <ele>242.916324</ele>
        <time>2022-07-23T13:41:03.001Z</time>
      </trkpt>
      <trkpt lat="48.798097" lon="9.394560">
        <ele>242.983329</ele>
        <time>2022-07-23T13:41:05.001Z</time>
      </trkpt>
      <trkpt lat="48.798044" lon="9.394763">
        <ele>243.050840</ele>
        <time>2022-07-23T13:41:07.001Z</time>
      </trkpt>
      <trkpt lat="48.797989" lon="9.394966">
        <ele>243.118702</ele>
        <time>2022-07-23T13:41:09.001Z</time>
      </trkpt>
      <trkpt lat="48.797936" lon="9.395171">
        <ele>243.219852</ele>
        <time>2022-07-23T13:41:11.001Z</time>
      </trkpt>
      <trkpt lat="48.797883" lon="9.395379">
        <ele>243.332548</ele>
        <time>2022-07-23T13:41:13.001Z</time>
      </trkpt>
      <trkpt lat="48.797830" lon="9.395585">
        <ele>243.444302</ele>
        <time>2022-07-23T13:41:15.001Z</time>
      </trkpt>
      <trkpt lat="48.797772" lon="9.395790">
        <ele>243.557044</ele>
        <time>2022-07-23T13:41:17.001Z</time>
      </trkpt>
      <trkpt lat="48.797712" lon="9.395995">
        <ele>243.670400</ele>
        <time>2022-07-23T13:41:19.001Z</time>
      </trkpt>
      <trkpt lat="48.797645" lon="9.396195">
        <ele>243.783783</ele>
        <time>2022-07-23T13:41:21.001Z</time>
      </trkpt>
      <trkpt lat="48.797572" lon="9.396387">
        <ele>243.895806</ele>
        <time>2022-07-23T13:41:23.001Z</time>
      </trkpt>
      <trkpt lat="48.797492" lon="9.396567">
        <ele>244.005532</ele>
        <time>2022-07-23T13:41:25.001Z</time>
      </trkpt>
      <trkpt lat="48.797404" lon="9.396738">
        <ele>244.115186</ele>
        <time>2022-07-23T13:41:27.001Z</time>
      </trkpt>
      <trkpt lat="48.797305" lon="9.396893">
        <ele>244.224285</ele>
        <time>2022-07-23T13:41:29.001Z</time>
      </trkpt>
      <trkpt lat="48.797202" lon="9.397042">
        <ele>244.333428</ele>
        <time>2022-07-23T13:41:31.001Z</time>
      </trkpt>
      <trkpt lat="48.797086" lon="9.397171">
        <ele>244.443737</ele>
        <time>2022-07-23T13:41:33.001Z</time>
      </trkpt>
      <trkpt lat="48.796963" lon="9.397286">
        <ele>244.615351</ele>
        <time>2022-07-23T13:41:35.001Z</time>
      </trkpt>
      <trkpt lat="48.796833" lon="9.397385">
        <ele>244.896118</ele>
        <time>2022-07-23T13:41:37.001Z</time>
      </trkpt>
      <trkpt lat="48.796699" lon="9.397463">
        <ele>245.173164</ele>
        <time>2022-07-23T13:41:39.000Z</time>
      </trkpt>
      <trkpt lat="48.796568" lon="9.397529">
        <ele>245.439617</ele>
        <time>2022-07-23T13:41:41.000Z</time>
      </trkpt>
      <trkpt lat="48.796440" lon="9.397598">
        <ele>245.701832</ele>
        <time>2022-07-23T13:41:43.000Z</time>
      </trkpt>
      <trkpt lat="48.796309" lon="9.397659">
        <ele>245.966352</ele>
        <time>2022-07-23T13:41:45.000Z</time>
      </trkpt>
      <trkpt lat="48.796176" lon="9.397714">
        <ele>246.232459</ele>
        <time>2022-07-23T13:41:47.000Z</time>
      </trkpt>
      <trkpt lat="48.796043" lon="9.397770">
        <ele>246.498903</ele>
        <time>2022-07-23T13:41:49.000Z</time>
      </trkpt>
      <trkpt lat="48.795920" lon="9.397832">
        <ele>246.749097</ele>
        <time>2022-07-23T13:41:51.000Z</time>
      </trkpt>
      <trkpt lat="48.795797" lon="9.397876">
        <ele>246.993047</ele>
        <time>2022-07-23T13:41:53.000Z</time>
      </trkpt>
      <trkpt lat="48.795684" lon="9.397957">
        <ele>247.234286</ele>
        <time>2022-07-23T13:41:55.000Z</time>
      </trkpt>
      <trkpt lat="48.795565" lon="9.398035">
        <ele>247.484510</ele>
        <time>2022-07-23T13:41:57.000Z</time>
      </trkpt>
      <trkpt lat="48.795434" lon="9.398057">
        <ele>247.738943</ele>
        <time>2022-07-23T13:41:59.000Z</time>
      </trkpt>
      <trkpt lat="48.795302" lon="9.398075">
        <ele>247.997997</ele>
        <time>2022-07-23T13:42:01.000Z</time>
      </trkpt>
      <trkpt lat="48.795177" lon="9.398128">
        <ele>248.347488</ele>
        <time>2022-07-23T13:42:03.000Z</time>
      </trkpt>
      <trkpt lat="48.795051" lon="9.398181">
        <ele>248.699572</ele>
        <time>2022-07-23T13:42:05.000Z</time>
      </trkpt>
      <trkpt lat="48.794927" lon="9.398238">
        <ele>249.048460</ele>
        <time>2022-07-23T13:42:07.000Z</time>
      </trkpt>
      <trkpt lat="48.794807" lon="9.398293">
        <ele>249.386010</ele>
        <time>2022-07-23T13:42:09.000Z</time>
      </trkpt>
      <trkpt lat="48.794684" lon="9.398340">
        <ele>249.727564</ele>
        <time>2022-07-23T13:42:11.000Z</time>
      </trkpt>
      <trkpt lat="48.794560" lon="9.398388">
        <ele>250.072163</ele>
        <time>2022-07-23T13:42:13.000Z</time>
      </trkpt>
      <trkpt lat="48.794436" lon="9.398441">
        <ele>250.419061</ele>
        <time>2022-07-23T13:42:15.000Z</time>
      </trkpt>
      <trkpt lat="48.794309" lon="9.398499">
        <ele>250.776195</ele>
        <time>2022-07-23T13:42:17.000Z</time>
      </trkpt>
      <trkpt lat="48.794185" lon="9.398567">
        <ele>251.131230</ele>
        <time>2022-07-23T13:42:19.000Z</time>
      </trkpt>
      <trkpt lat="48.794073" lon="9.398641">
        <ele>251.460160</ele>
        <time>2022-07-23T13:42:21.000Z</time>
      </trkpt>
      <trkpt lat="48.793971" lon="9.398720">
        <ele>251.768518</ele>
        <time>2022-07-23T13:42:23.000Z</time>
      </trkpt>
      <trkpt lat="48.793877" lon="9.398810">
        <ele>252.067791</ele>
        <time>2022-07-23T13:42:25.000Z</time>
      </trkpt>
      <trkpt lat="48.793784" lon="9.398908">
        <ele>252.372654</ele>
        <time>2022-07-23T13:42:27.000Z</time>
      </trkpt>
      <trkpt lat="48.793701" lon="9.398999">
        <ele>252.648363</ele>
        <time>2022-07-23T13:42:29.000Z</time>
      </trkpt>
      <trkpt lat="48.793615" lon="9.399093">
        <ele>252.935237</ele>
        <time>2022-07-23T13:42:31.000Z</time>
      </trkpt>
      <trkpt lat="48.793526" lon="9.399172">
        <ele>253.216887</ele>
        <time>2022-07-23T13:42:33.000Z</time>
      </trkpt>
      <trkpt lat="48.793413" lon="9.399264">
        <ele>253.567183</ele>
        <time>2022-07-23T13:42:36.000Z</time>
      </trkpt>
      <trkpt lat="48.793322" lon="9.399391">
        <ele>253.904880</ele>
        <time>2022-07-23T13:42:39.000Z</time>
      </trkpt>
      <trkpt lat="48.793247" lon="9.399475">
        <ele>254.159501</ele>
        <time>2022-07-23T13:42:41.000Z</time>
      </trkpt>
      <trkpt lat="48.793158" lon="9.399553">
        <ele>254.440247</ele>
        <time>2022-07-23T13:42:43.000Z</time>
      </trkpt>
      <trkpt lat="48.793069" lon="9.399641">
        <ele>254.730412</ele>
        <time>2022-07-23T13:42:45.000Z</time>
      </trkpt>
      <trkpt lat="48.792995" lon="9.399741">
        <ele>255.001069</ele>
        <time>2022-07-23T13:42:47.000Z</time>
      </trkpt>
      <trkpt lat="48.792911" lon="9.399844">
        <ele>255.296059</ele>
        <time>2022-07-23T13:42:49.000Z</time>
      </trkpt>
      <trkpt lat="48.792828" lon="9.399971">
        <ele>255.618009</ele>
        <time>2022-07-23T13:42:51.000Z</time>
      </trkpt>
      <trkpt lat="48.792748" lon="9.400102">
        <ele>255.939482</ele>
        <time>2022-07-23T13:42:53.000Z</time>
      </trkpt>
      <trkpt lat="48.792666" lon="9.400231">
        <ele>256.262095</ele>
        <time>2022-07-23T13:42:55.000Z</time>
      </trkpt>
      <trkpt lat="48.792585" lon="9.400368">
        <ele>256.593388</ele>
        <time>2022-07-23T13:42:57.001Z</time>
      </trkpt>
      <trkpt lat="48.792496" lon="9.400501">
        <ele>256.934572</ele>
        <time>2022-07-23T13:42:59.001Z</time>
      </trkpt>
      <trkpt lat="48.792415" lon="9.400623">
        <ele>257.246297</ele>
        <time>2022-07-23T13:43:01.001Z</time>
      </trkpt>
      <trkpt lat="48.792336" lon="9.400749">
        <ele>257.559342</ele>
        <time>2022-07-23T13:43:03.001Z</time>
      </trkpt>
      <trkpt lat="48.792250" lon="9.400882">
        <ele>257.841743</ele>
        <time>2022-07-23T13:43:05.001Z</time>
      </trkpt>
      <trkpt lat="48.792164" lon="9.401016">
        <ele>258.060262</ele>
        <time>2022-07-23T13:43:07.001Z</time>
      </trkpt>
      <trkpt lat="48.792065" lon="9.401149">
        <ele>258.294670</ele>
        <time>2022-07-23T13:43:09.001Z</time>
      </trkpt>
      <trkpt lat="48.791959" lon="9.401254">
        <ele>258.519094</ele>
        <time>2022-07-23T13:43:11.001Z</time>
      </trkpt>
      <trkpt lat="48.791852" lon="9.401377">
        <ele>258.757076</ele>
        <time>2022-07-23T13:43:13.001Z</time>
      </trkpt>
      <trkpt lat="48.791745" lon="9.401500">
        <ele>258.995058</ele>
        <time>2022-07-23T13:43:15.001Z</time>
      </trkpt>
      <trkpt lat="48.791637" lon="9.401616">
        <ele>259.229640</ele>
        <time>2022-07-23T13:43:17.001Z</time>
      </trkpt>
      <trkpt lat="48.791524" lon="9.401728">
        <ele>259.468927</ele>
        <time>2022-07-23T13:43:19.001Z</time>
      </trkpt>
      <trkpt lat="48.791418" lon="9.401837">
        <ele>259.695939</ele>
        <time>2022-07-23T13:43:21.001Z</time>
      </trkpt>
      <trkpt lat="48.791312" lon="9.401944">
        <ele>259.921649</ele>
        <time>2022-07-23T13:43:23.001Z</time>
      </trkpt>
      <trkpt lat="48.791203" lon="9.402043">
        <ele>260.146869</ele>
        <time>2022-07-23T13:43:25.001Z</time>
      </trkpt>
      <trkpt lat="48.791098" lon="9.402149">
        <ele>260.370456</ele>
        <time>2022-07-23T13:43:27.001Z</time>
      </trkpt>
      <trkpt lat="48.790997" lon="9.402259">
        <ele>260.590864</ele>
        <time>2022-07-23T13:43:29.001Z</time>
      </trkpt>
      <trkpt lat="48.790897" lon="9.402369">
        <ele>260.809834</ele>
        <time>2022-07-23T13:43:31.001Z</time>
      </trkpt>
      <trkpt lat="48.790788" lon="9.402477">
        <ele>261.074557</ele>
        <time>2022-07-23T13:43:33.001Z</time>
      </trkpt>
      <trkpt lat="48.790710" lon="9.402614">
        <ele>261.352652</ele>
        <time>2022-07-23T13:43:35.001Z</time>
      </trkpt>
      <trkpt lat="48.790639" lon="9.402754">
        <ele>261.623998</ele>
        <time>2022-07-23T13:43:37.001Z</time>
      </trkpt>
      <trkpt lat="48.790581" lon="9.402908">
        <ele>261.896438</ele>
        <time>2022-07-23T13:43:39.001Z</time>
      </trkpt>
      <trkpt lat="48.790521" lon="9.403052">
        <ele>262.158119</ele>
        <time>2022-07-23T13:43:41.001Z</time>
      </trkpt>
      <trkpt lat="48.790465" lon="9.403210">
        <ele>262.433671</ele>
        <time>2022-07-23T13:43:43.001Z</time>
      </trkpt>
      <trkpt lat="48.790419" lon="9.403372">
        <ele>262.704604</ele>
        <time>2022-07-23T13:43:45.000Z</time>
      </trkpt>
      <trkpt lat="48.790381" lon="9.403531">
        <ele>262.964376</ele>
        <time>2022-07-23T13:43:47.000Z</time>
      </trkpt>
      <trkpt lat="48.790380" lon="9.403698">
        <ele>263.220874</ele>
        <time>2022-07-23T13:43:49.000Z</time>
      </trkpt>
      <trkpt lat="48.790410" lon="9.403869">
        <ele>263.492656</ele>
        <time>2022-07-23T13:43:51.000Z</time>
      </trkpt>
      <trkpt lat="48.790407" lon="9.404046">
        <ele>263.764592</ele>
        <time>2022-07-23T13:43:53.000Z</time>
      </trkpt>
      <trkpt lat="48.790371" lon="9.404204">
        <ele>264.021358</ele>
        <time>2022-07-23T13:43:55.000Z</time>
      </trkpt>
      <trkpt lat="48.790337" lon="9.404377">
        <ele>264.298631</ele>
        <time>2022-07-23T13:43:56.999Z</time>
      </trkpt>
      <trkpt lat="48.790267" lon="9.404523">
        <ele>264.575959</ele>
        <time>2022-07-23T13:43:58.999Z</time>
      </trkpt>
      <trkpt lat="48.790161" lon="9.404598">
        <ele>264.848598</ele>
        <time>2022-07-23T13:44:00.999Z</time>
      </trkpt>
      <trkpt lat="48.790054" lon="9.404662">
        <ele>265.116708</ele>
        <time>2022-07-23T13:44:03.000Z</time>
      </trkpt>
      <trkpt lat="48.789948" lon="9.404748">
        <ele>265.108233</ele>
        <time>2022-07-23T13:44:05.000Z</time>
      </trkpt>
      <trkpt lat="48.789842" lon="9.404830">
        <ele>265.090150</ele>
        <time>2022-07-23T13:44:07.000Z</time>
      </trkpt>
      <trkpt lat="48.789735" lon="9.404936">
        <ele>265.070729</ele>
        <time>2022-07-23T13:44:09.000Z</time>
      </trkpt>
      <trkpt lat="48.789624" lon="9.405045">
        <ele>265.050635</ele>
        <time>2022-07-23T13:44:11.000Z</time>
      </trkpt>
      <trkpt lat="48.789514" lon="9.405173">
        <ele>265.029568</ele>
        <time>2022-07-23T13:44:13.000Z</time>
      </trkpt>
      <trkpt lat="48.789398" lon="9.405260">
        <ele>265.009902</ele>
        <time>2022-07-23T13:44:15.000Z</time>
      </trkpt>
      <trkpt lat="48.789292" lon="9.405362">
        <ele>264.990826</ele>
        <time>2022-07-23T13:44:17.000Z</time>
      </trkpt>
      <trkpt lat="48.789192" lon="9.405485">
        <ele>264.971263</ele>
        <time>2022-07-23T13:44:19.000Z</time>
      </trkpt>
      <trkpt lat="48.789087" lon="9.405610">
        <ele>264.950980</ele>
        <time>2022-07-23T13:44:21.000Z</time>
      </trkpt>
      <trkpt lat="48.788993" lon="9.405731">
        <ele>264.932247</ele>
        <time>2022-07-23T13:44:23.000Z</time>
      </trkpt>
      <trkpt lat="48.788892" lon="9.405842">
        <ele>264.913294</ele>
        <time>2022-07-23T13:44:25.000Z</time>
      </trkpt>
      <trkpt lat="48.788793" lon="9.405952">
        <ele>264.894646</ele>
        <time>2022-07-23T13:44:27.000Z</time>
      </trkpt>
      <trkpt lat="48.788689" lon="9.406055">
        <ele>264.875771</ele>
        <time>2022-07-23T13:44:29.000Z</time>
      </trkpt>
      <trkpt lat="48.788583" lon="9.406160">
        <ele>264.856532</ele>
        <time>2022-07-23T13:44:31.000Z</time>
      </trkpt>
      <trkpt lat="48.788478" lon="9.406267">
        <ele>264.919660</ele>
        <time>2022-07-23T13:44:33.000Z</time>
      </trkpt>
      <trkpt lat="48.788368" lon="9.406378">
        <ele>265.008274</ele>
        <time>2022-07-23T13:44:35.000Z</time>
      </trkpt>
      <trkpt lat="48.788263" lon="9.406492">
        <ele>265.094880</ele>
        <time>2022-07-23T13:44:37.000Z</time>
      </trkpt>
      <trkpt lat="48.788157" lon="9.406602">
        <ele>265.181022</ele>
        <time>2022-07-23T13:44:39.000Z</time>
      </trkpt>
      <trkpt lat="48.788051" lon="9.406706">
        <ele>265.265696</ele>
        <time>2022-07-23T13:44:41.000Z</time>
      </trkpt>
      <trkpt lat="48.787944" lon="9.406814">
        <ele>265.351901</ele>
        <time>2022-07-23T13:44:43.000Z</time>
      </trkpt>
      <trkpt lat="48.787833" lon="9.406932">
        <ele>265.442814</ele>
        <time>2022-07-23T13:44:45.000Z</time>
      </trkpt>
      <trkpt lat="48.787719" lon="9.407045">
        <ele>265.534156</ele>
        <time>2022-07-23T13:44:47.000Z</time>
      </trkpt>
      <trkpt lat="48.787597" lon="9.407146">
        <ele>265.627383</ele>
        <time>2022-07-23T13:44:49.000Z</time>
      </trkpt>
      <trkpt lat="48.787488" lon="9.407267">
        <ele>265.717977</ele>
        <time>2022-07-23T13:44:51.000Z</time>
      </trkpt>
      <trkpt lat="48.787383" lon="9.407398">
        <ele>265.809160</ele>
        <time>2022-07-23T13:44:53.000Z</time>
      </trkpt>
      <trkpt lat="48.787282" lon="9.407537">
        <ele>265.900623</ele>
        <time>2022-07-23T13:44:55.000Z</time>
      </trkpt>
      <trkpt lat="48.787182" lon="9.407686">
        <ele>265.994632</ele>
        <time>2022-07-23T13:44:57.000Z</time>
      </trkpt>
      <trkpt lat="48.787081" lon="9.407841">
        <ele>266.240877</ele>
        <time>2022-07-23T13:44:59.000Z</time>
      </trkpt>
      <trkpt lat="48.786982" lon="9.408000">
        <ele>266.792795</ele>
        <time>2022-07-23T13:45:01.000Z</time>
      </trkpt>
      <trkpt lat="48.786890" lon="9.408170">
        <ele>267.347812</ele>
        <time>2022-07-23T13:45:03.000Z</time>
      </trkpt>
      <trkpt lat="48.786767" lon="9.408291">
        <ele>267.909071</ele>
        <time>2022-07-23T13:45:05.000Z</time>
      </trkpt>
      <trkpt lat="48.786650" lon="9.408415">
        <ele>268.455493</ele>
        <time>2022-07-23T13:45:07.001Z</time>
      </trkpt>
      <trkpt lat="48.786538" lon="9.408544">
        <ele>268.993862</ele>
        <time>2022-07-23T13:45:09.001Z</time>
      </trkpt>
      <trkpt lat="48.786404" lon="9.408624">
        <ele>269.545233</ele>
        <time>2022-07-23T13:45:11.001Z</time>
      </trkpt>
      <trkpt lat="48.786270" lon="9.408705">
        <ele>270.097533</ele>
        <time>2022-07-23T13:45:13.001Z</time>
      </trkpt>
      <trkpt lat="48.786135" lon="9.408783">
        <ele>270.650654</ele>
        <time>2022-07-23T13:45:15.001Z</time>
      </trkpt>
      <trkpt lat="48.786000" lon="9.408857">
        <ele>271.200266</ele>
        <time>2022-07-23T13:45:17.001Z</time>
      </trkpt>
      <trkpt lat="48.785867" lon="9.408923">
        <ele>271.736070</ele>
        <time>2022-07-23T13:45:19.001Z</time>
      </trkpt>
      <trkpt lat="48.785734" lon="9.408987">
        <ele>272.270327</ele>
        <time>2022-07-23T13:45:21.001Z</time>
      </trkpt>
      <trkpt lat="48.785598" lon="9.409044">
        <ele>272.810579</ele>
        <time>2022-07-23T13:45:23.001Z</time>
      </trkpt>
      <trkpt lat="48.785462" lon="9.409107">
        <ele>272.913118</ele>
        <time>2022-07-23T13:45:25.001Z</time>
      </trkpt>
      <trkpt lat="48.785321" lon="9.409171">
        <ele>272.867256</ele>
        <time>2022-07-23T13:45:27.001Z</time>
      </trkpt>
      <trkpt lat="48.785183" lon="9.409272">
        <ele>272.819514</ele>
        <time>2022-07-23T13:45:29.001Z</time>
      </trkpt>
      <trkpt lat="48.785051" lon="9.409377">
        <ele>272.773073</ele>
        <time>2022-07-23T13:45:31.001Z</time>
      </trkpt>
      <trkpt lat="48.784930" lon="9.409506">
        <ele>272.726993</ele>
        <time>2022-07-23T13:45:33.001Z</time>
      </trkpt>
      <trkpt lat="48.784847" lon="9.409681">
        <ele>272.682721</ele>
        <time>2022-07-23T13:45:35.001Z</time>
      </trkpt>
      <trkpt lat="48.784787" lon="9.409871">
        <ele>272.639460</ele>
        <time>2022-07-23T13:45:37.001Z</time>
      </trkpt>
      <trkpt lat="48.784707" lon="9.410036">
        <ele>272.597398</ele>
        <time>2022-07-23T13:45:39.001Z</time>
      </trkpt>
      <trkpt lat="48.784593" lon="9.410128">
        <ele>272.557163</ele>
        <time>2022-07-23T13:45:41.001Z</time>
      </trkpt>
      <trkpt lat="48.784473" lon="9.410195">
        <ele>272.517319</ele>
        <time>2022-07-23T13:45:43.001Z</time>
      </trkpt>
      <trkpt lat="48.784344" lon="9.410237">
        <ele>272.476205</ele>
        <time>2022-07-23T13:45:45.001Z</time>
      </trkpt>
      <trkpt lat="48.784212" lon="9.410261">
        <ele>272.434777</ele>
        <time>2022-07-23T13:45:47.001Z</time>
      </trkpt>
      <trkpt lat="48.784087" lon="9.410292">
        <ele>272.395308</ele>
        <time>2022-07-23T13:45:49.001Z</time>
      </trkpt>
      <trkpt lat="48.783978" lon="9.410357">
        <ele>272.342148</ele>
        <time>2022-07-23T13:45:50.999Z</time>
      </trkpt>
      <trkpt lat="48.783880" lon="9.410463">
        <ele>272.281560</ele>
        <time>2022-07-23T13:45:52.999Z</time>
      </trkpt>
      <trkpt lat="48.783788" lon="9.410605">
        <ele>272.215496</ele>
        <time>2022-07-23T13:45:54.999Z</time>
      </trkpt>
      <trkpt lat="48.783704" lon="9.410762">
        <ele>272.148406</ele>
        <time>2022-07-23T13:45:56.999Z</time>
      </trkpt>
      <trkpt lat="48.783609" lon="9.410899">
        <ele>272.082427</ele>
        <time>2022-07-23T13:45:58.999Z</time>
      </trkpt>
      <trkpt lat="48.783505" lon="9.411017">
        <ele>272.017052</ele>
        <time>2022-07-23T13:46:00.999Z</time>
      </trkpt>
      <trkpt lat="48.783390" lon="9.411111">
        <ele>271.951290</ele>
        <time>2022-07-23T13:46:02.999Z</time>
      </trkpt>
      <trkpt lat="48.783279" lon="9.411195">
        <ele>271.888843</ele>
        <time>2022-07-23T13:46:04.999Z</time>
      </trkpt>
      <trkpt lat="48.783175" lon="9.411281">
        <ele>271.829215</ele>
        <time>2022-07-23T13:46:06.999Z</time>
      </trkpt>
      <trkpt lat="48.783067" lon="9.411359">
        <ele>271.768997</ele>
        <time>2022-07-23T13:46:09.000Z</time>
      </trkpt>
      <trkpt lat="48.782958" lon="9.411431">
        <ele>271.709147</ele>
        <time>2022-07-23T13:46:11.000Z</time>
      </trkpt>
      <trkpt lat="48.782849" lon="9.411509">
        <ele>271.648474</ele>
        <time>2022-07-23T13:46:13.000Z</time>
      </trkpt>
      <trkpt lat="48.782737" lon="9.411588">
        <ele>271.586293</ele>
        <time>2022-07-23T13:46:15.000Z</time>
      </trkpt>
      <trkpt lat="48.782621" lon="9.411664">
        <ele>271.522682</ele>
        <time>2022-07-23T13:46:17.000Z</time>
      </trkpt>
      <trkpt lat="48.782506" lon="9.411743">
        <ele>271.497699</ele>
        <time>2022-07-23T13:46:19.000Z</time>
      </trkpt>
      <trkpt lat="48.782392" lon="9.411819">
        <ele>271.549075</ele>
        <time>2022-07-23T13:46:21.000Z</time>
      </trkpt>
      <trkpt lat="48.782276" lon="9.411890">
        <ele>271.600684</ele>
        <time>2022-07-23T13:46:23.000Z</time>
      </trkpt>
      <trkpt lat="48.782161" lon="9.411961">
        <ele>271.651911</ele>
        <time>2022-07-23T13:46:25.000Z</time>
      </trkpt>
      <trkpt lat="48.782041" lon="9.412011">
        <ele>271.703257</ele>
        <time>2022-07-23T13:46:27.000Z</time>
      </trkpt>
      <trkpt lat="48.781919" lon="9.412038">
        <ele>271.754128</ele>
        <time>2022-07-23T13:46:29.000Z</time>
      </trkpt>
      <trkpt lat="48.781797" lon="9.412060">
        <ele>271.804821</ele>
        <time>2022-07-23T13:46:31.000Z</time>
      </trkpt>
      <trkpt lat="48.781672" lon="9.412067">
        <ele>271.856433</ele>
        <time>2022-07-23T13:46:33.000Z</time>
      </trkpt>
      <trkpt lat="48.781543" lon="9.412073">
        <ele>271.909685</ele>
        <time>2022-07-23T13:46:35.000Z</time>
      </trkpt>
      <trkpt lat="48.781416" lon="9.412062">
        <ele>271.962172</ele>
        <time>2022-07-23T13:46:37.000Z</time>
      </trkpt>
      <trkpt lat="48.781294" lon="9.412056">
        <ele>272.012538</ele>
        <time>2022-07-23T13:46:39.000Z</time>
      </trkpt>
      <trkpt lat="48.781175" lon="9.412049">
        <ele>272.061675</ele>
        <time>2022-07-23T13:46:41.000Z</time>
      </trkpt>
      <trkpt lat="48.781056" lon="9.412032">
        <ele>272.110994</ele>
        <time>2022-07-23T13:46:43.000Z</time>
      </trkpt>
      <trkpt lat="48.780930" lon="9.412016">
        <ele>272.163165</ele>
        <time>2022-07-23T13:46:45.000Z</time>
      </trkpt>
      <trkpt lat="48.780802" lon="9.411999">
        <ele>272.216181</ele>
        <time>2022-07-23T13:46:47.000Z</time>
      </trkpt>
      <trkpt lat="48.780673" lon="9.411982">
        <ele>272.382444</ele>
        <time>2022-07-23T13:46:49.000Z</time>
      </trkpt>
      <trkpt lat="48.780546" lon="9.411977">
        <ele>272.560341</ele>
        <time>2022-07-23T13:46:51.000Z</time>
      </trkpt>
      <trkpt lat="48.780418" lon="9.411999">
        <ele>272.740726</ele>
        <time>2022-07-23T13:46:53.000Z</time>
      </trkpt>
      <trkpt lat="48.780293" lon="9.412039">
        <ele>272.919612</ele>
        <time>2022-07-23T13:46:55.000Z</time>
      </trkpt>
      <trkpt lat="48.780170" lon="9.412083">
        <ele>273.096569</ele>
        <time>2022-07-23T13:46:57.000Z</time>
      </trkpt>
      <trkpt lat="48.780052" lon="9.412141">
        <ele>273.270255</ele>
        <time>2022-07-23T13:46:59.000Z</time>
      </trkpt>
      <trkpt lat="48.779936" lon="9.412200">
        <ele>273.441570</ele>
        <time>2022-07-23T13:47:01.000Z</time>
      </trkpt>
      <trkpt lat="48.779821" lon="9.412252">
        <ele>273.609601</ele>
        <time>2022-07-23T13:47:03.000Z</time>
      </trkpt>
      <trkpt lat="48.779704" lon="9.412300">
        <ele>273.779317</ele>
        <time>2022-07-23T13:47:05.000Z</time>
      </trkpt>
      <trkpt lat="48.779588" lon="9.412364">
        <ele>273.952154</ele>
        <time>2022-07-23T13:47:07.000Z</time>
      </trkpt>
      <trkpt lat="48.779463" lon="9.412431">
        <ele>274.137789</ele>
        <time>2022-07-23T13:47:09.000Z</time>
      </trkpt>
      <trkpt lat="48.779336" lon="9.412501">
        <ele>274.326993</ele>
        <time>2022-07-23T13:47:11.001Z</time>
      </trkpt>
      <trkpt lat="48.779209" lon="9.412574">
        <ele>274.517161</ele>
        <time>2022-07-23T13:47:13.001Z</time>
      </trkpt>
      <trkpt lat="48.779083" lon="9.412647">
        <ele>274.706020</ele>
        <time>2022-07-23T13:47:15.001Z</time>
      </trkpt>
      <trkpt lat="48.778962" lon="9.412725">
        <ele>274.848323</ele>
        <time>2022-07-23T13:47:17.001Z</time>
      </trkpt>
      <trkpt lat="48.778844" lon="9.412810">
        <ele>274.979935</ele>
        <time>2022-07-23T13:47:19.001Z</time>
      </trkpt>
      <trkpt lat="48.778731" lon="9.412898">
        <ele>275.107911</ele>
        <time>2022-07-23T13:47:21.001Z</time>
      </trkpt>
      <trkpt lat="48.778625" lon="9.412996">
        <ele>275.232977</ele>
        <time>2022-07-23T13:47:23.001Z</time>
      </trkpt>
      <trkpt lat="48.778520" lon="9.413107">
        <ele>275.361915</ele>
        <time>2022-07-23T13:47:25.001Z</time>
      </trkpt>
      <trkpt lat="48.778413" lon="9.413205">
        <ele>275.487843</ele>
        <time>2022-07-23T13:47:27.001Z</time>
      </trkpt>
      <trkpt lat="48.778295" lon="9.413283">
        <ele>275.617530</ele>
        <time>2022-07-23T13:47:29.001Z</time>
      </trkpt>
      <trkpt lat="48.778175" lon="9.413335">
        <ele>275.743275</ele>
        <time>2022-07-23T13:47:31.001Z</time>
      </trkpt>
      <trkpt lat="48.778052" lon="9.413368">
        <ele>275.869132</ele>
        <time>2022-07-23T13:47:33.001Z</time>
      </trkpt>
      <trkpt lat="48.777927" lon="9.413390">
        <ele>275.995926</ele>
        <time>2022-07-23T13:47:35.001Z</time>
      </trkpt>
      <trkpt lat="48.777800" lon="9.413416">
        <ele>276.125050</ele>
        <time>2022-07-23T13:47:37.001Z</time>
      </trkpt>
      <trkpt lat="48.777673" lon="9.413431">
        <ele>276.253402</ele>
        <time>2022-07-23T13:47:39.001Z</time>
      </trkpt>
      <trkpt lat="48.777542" lon="9.413460">
        <ele>276.386795</ele>
        <time>2022-07-23T13:47:41.001Z</time>
      </trkpt>
      <trkpt lat="48.777407" lon="9.413484">
        <ele>276.523751</ele>
        <time>2022-07-23T13:47:43.001Z</time>
      </trkpt>
      <trkpt lat="48.777273" lon="9.413523">
        <ele>276.348211</ele>
        <time>2022-07-23T13:47:45.001Z</time>
      </trkpt>
      <trkpt lat="48.777141" lon="9.413572">
        <ele>276.087587</ele>
        <time>2022-07-23T13:47:47.001Z</time>
      </trkpt>
      <trkpt lat="48.777006" lon="9.413614">
        <ele>275.823288</ele>
        <time>2022-07-23T13:47:49.001Z</time>
      </trkpt>
      <trkpt lat="48.776869" lon="9.413622">
        <ele>275.560345</ele>
        <time>2022-07-23T13:47:51.001Z</time>
      </trkpt>
      <trkpt lat="48.776734" lon="9.413605">
        <ele>275.300541</ele>
        <time>2022-07-23T13:47:53.001Z</time>
      </trkpt>
      <trkpt lat="48.776605" lon="9.413553">
        <ele>275.044555</ele>
        <time>2022-07-23T13:47:55.001Z</time>
      </trkpt>
      <trkpt lat="48.776474" lon="9.413512">
        <ele>274.788025</ele>
        <time>2022-07-23T13:47:57.000Z</time>
      </trkpt>
      <trkpt lat="48.776336" lon="9.413495">
        <ele>274.522488</ele>
        <time>2022-07-23T13:47:59.000Z</time>
      </trkpt>
      <trkpt lat="48.776199" lon="9.413499">
        <ele>274.259690</ele>
        <time>2022-07-23T13:48:01.000Z</time>
      </trkpt>
      <trkpt lat="48.776061" lon="9.413494">
        <ele>273.994948</ele>
        <time>2022-07-23T13:48:03.000Z</time>
      </trkpt>
      <trkpt lat="48.775925" lon="9.413504">
        <ele>273.733811</ele>
        <time>2022-07-23T13:48:05.000Z</time>
      </trkpt>
      <trkpt lat="48.775792" lon="9.413505">
        <ele>273.478730</ele>
        <time>2022-07-23T13:48:07.000Z</time>
      </trkpt>
      <trkpt lat="48.775659" lon="9.413522">
        <ele>273.222749</ele>
        <time>2022-07-23T13:48:09.000Z</time>
      </trkpt>
      <trkpt lat="48.775525" lon="9.413539">
        <ele>273.151665</ele>
        <time>2022-07-23T13:48:11.000Z</time>
      </trkpt>
      <trkpt lat="48.775394" lon="9.413557">
        <ele>273.238461</ele>
        <time>2022-07-23T13:48:13.000Z</time>
      </trkpt>
      <trkpt lat="48.775262" lon="9.413580">
        <ele>273.326135</ele>
        <time>2022-07-23T13:48:15.000Z</time>
      </trkpt>
      <trkpt lat="48.775131" lon="9.413602">
        <ele>273.413105</ele>
        <time>2022-07-23T13:48:17.000Z</time>
      </trkpt>
      <trkpt lat="48.774998" lon="9.413626">
        <ele>273.501485</ele>
        <time>2022-07-23T13:48:19.000Z</time>
      </trkpt>
      <trkpt lat="48.774862" lon="9.413655">
        <ele>273.592108</ele>
        <time>2022-07-23T13:48:21.000Z</time>
      </trkpt>
      <trkpt lat="48.774725" lon="9.413689">
        <ele>273.683710</ele>
        <time>2022-07-23T13:48:23.000Z</time>
      </trkpt>
      <trkpt lat="48.774586" lon="9.413730">
        <ele>273.777148</ele>
        <time>2022-07-23T13:48:25.000Z</time>
      </trkpt>
      <trkpt lat="48.774446" lon="9.413771">
        <ele>273.871233</ele>
        <time>2022-07-23T13:48:27.000Z</time>
      </trkpt>
      <trkpt lat="48.774307" lon="9.413817">
        <ele>273.965110</ele>
        <time>2022-07-23T13:48:29.000Z</time>
      </trkpt>
      <trkpt lat="48.774172" lon="9.413855">
        <ele>274.055711</ele>
        <time>2022-07-23T13:48:31.000Z</time>
      </trkpt>
      <trkpt lat="48.774035" lon="9.413895">
        <ele>274.147770</ele>
        <time>2022-07-23T13:48:33.000Z</time>
      </trkpt>
      <trkpt lat="48.773898" lon="9.413927">
        <ele>274.239236</ele>
        <time>2022-07-23T13:48:35.000Z</time>
      </trkpt>
      <trkpt lat="48.773764" lon="9.413968">
        <ele>274.347757</ele>
        <time>2022-07-23T13:48:37.000Z</time>
      </trkpt>
      <trkpt lat="48.773627" lon="9.414004">
        <ele>274.482894</ele>
        <time>2022-07-23T13:48:39.000Z</time>
      </trkpt>
      <trkpt lat="48.773490" lon="9.414041">
        <ele>274.618142</ele>
        <time>2022-07-23T13:48:41.000Z</time>
      </trkpt>
      <trkpt lat="48.773352" lon="9.414075">
        <ele>274.754026</ele>
        <time>2022-07-23T13:48:43.000Z</time>
      </trkpt>
      <trkpt lat="48.773214" lon="9.414107">
        <ele>274.889710</ele>
        <time>2022-07-23T13:48:45.000Z</time>
      </trkpt>
      <trkpt lat="48.773075" lon="9.414135">
        <ele>275.025995</ele>
        <time>2022-07-23T13:48:47.000Z</time>
      </trkpt>
      <trkpt lat="48.772937" lon="9.414176">
        <ele>275.162669</ele>
        <time>2022-07-23T13:48:49.000Z</time>
      </trkpt>
      <trkpt lat="48.772796" lon="9.414228">
        <ele>275.303702</ele>
        <time>2022-07-23T13:48:51.000Z</time>
      </trkpt>
      <trkpt lat="48.772659" lon="9.414287">
        <ele>275.442116</ele>
        <time>2022-07-23T13:48:53.000Z</time>
      </trkpt>
      <trkpt lat="48.772525" lon="9.414341">
        <ele>275.576871</ele>
        <time>2022-07-23T13:48:55.000Z</time>
      </trkpt>
      <trkpt lat="48.772389" lon="9.414389">
        <ele>275.712583</ele>
        <time>2022-07-23T13:48:57.000Z</time>
      </trkpt>
      <trkpt lat="48.772256" lon="9.414434">
        <ele>275.845026</ele>
        <time>2022-07-23T13:48:59.000Z</time>
      </trkpt>
      <trkpt lat="48.772126" lon="9.414478">
        <ele>275.974483</ele>
        <time>2022-07-23T13:49:01.000Z</time>
      </trkpt>
      <trkpt lat="48.771997" lon="9.414529">
        <ele>276.111243</ele>
        <time>2022-07-23T13:49:03.000Z</time>
      </trkpt>
      <trkpt lat="48.771871" lon="9.414588">
        <ele>276.253553</ele>
        <time>2022-07-23T13:49:05.000Z</time>
      </trkpt>
      <trkpt lat="48.771746" lon="9.414656">
        <ele>276.396863</ele>
        <time>2022-07-23T13:49:07.000Z</time>
      </trkpt>
      <trkpt lat="48.771627" lon="9.414748">
        <ele>276.541001</ele>
        <time>2022-07-23T13:49:09.000Z</time>
      </trkpt>
      <trkpt lat="48.771511" lon="9.414849">
        <ele>276.685338</ele>
        <time>2022-07-23T13:49:11.001Z</time>
      </trkpt>
      <trkpt lat="48.771403" lon="9.414965">
        <ele>276.828141</ele>
        <time>2022-07-23T13:49:13.001Z</time>
      </trkpt>
      <trkpt lat="48.771299" lon="9.415094">
        <ele>276.973111</ele>
        <time>2022-07-23T13:49:15.001Z</time>
      </trkpt>
      <trkpt lat="48.771192" lon="9.415229">
        <ele>277.123295</ele>
        <time>2022-07-23T13:49:17.001Z</time>
      </trkpt>
      <trkpt lat="48.771085" lon="9.415370">
        <ele>277.276243</ele>
        <time>2022-07-23T13:49:19.001Z</time>
      </trkpt>
      <trkpt lat="48.770964" lon="9.415479">
        <ele>277.428109</ele>
        <time>2022-07-23T13:49:21.001Z</time>
      </trkpt>
      <trkpt lat="48.770834" lon="9.415561">
        <ele>277.580048</ele>
        <time>2022-07-23T13:49:23.001Z</time>
      </trkpt>
      <trkpt lat="48.770700" lon="9.415624">
        <ele>277.731447</ele>
        <time>2022-07-23T13:49:25.001Z</time>
      </trkpt>
      <trkpt lat="48.770569" lon="9.415687">
        <ele>277.879756</ele>
        <time>2022-07-23T13:49:27.001Z</time>
      </trkpt>
      <trkpt lat="48.770442" lon="9.415755">
        <ele>278.030607</ele>
        <time>2022-07-23T13:49:29.001Z</time>
      </trkpt>
      <trkpt lat="48.770320" lon="9.415819">
        <ele>278.186926</ele>
        <time>2022-07-23T13:49:31.001Z</time>
      </trkpt>
      <trkpt lat="48.770197" lon="9.415872">
        <ele>278.341765</ele>
        <time>2022-07-23T13:49:33.001Z</time>
      </trkpt>
      <trkpt lat="48.770075" lon="9.415931">
        <ele>278.496825</ele>
        <time>2022-07-23T13:49:35.001Z</time>
      </trkpt>
      <trkpt lat="48.769952" lon="9.416005">
        <ele>278.657056</ele>
        <time>2022-07-23T13:49:37.001Z</time>
      </trkpt>
      <trkpt lat="48.769829" lon="9.416113">
        <ele>278.829149</ele>
        <time>2022-07-23T13:49:39.001Z</time>
      </trkpt>
      <trkpt lat="48.769708" lon="9.416242">
        <ele>279.008231</ele>
        <time>2022-07-23T13:49:41.001Z</time>
      </trkpt>
      <trkpt lat="48.769587" lon="9.416369">
        <ele>279.186401</ele>
        <time>2022-07-23T13:49:43.001Z</time>
      </trkpt>
      <trkpt lat="48.769456" lon="9.416467">
        <ele>279.363272</ele>
        <time>2022-07-23T13:49:45.001Z</time>
      </trkpt>
      <trkpt lat="48.769310" lon="9.416519">
        <ele>279.544879</ele>
        <time>2022-07-23T13:49:47.001Z</time>
      </trkpt>
      <trkpt lat="48.769173" lon="9.416560">
        <ele>279.713978</ele>
        <time>2022-07-23T13:49:49.001Z</time>
      </trkpt>
      <trkpt lat="48.769033" lon="9.416598">
        <ele>279.886204</ele>
        <time>2022-07-23T13:49:51.001Z</time>
      </trkpt>
      <trkpt lat="48.768888" lon="9.416669">
        <ele>280.070712</ele>
        <time>2022-07-23T13:49:53.001Z</time>
      </trkpt>
      <trkpt lat="48.768744" lon="9.416770">
        <ele>280.263920</ele>
        <time>2022-07-23T13:49:55.001Z</time>
      </trkpt>
      <trkpt lat="48.768602" lon="9.416896">
        <ele>280.465215</ele>
        <time>2022-07-23T13:49:57.001Z</time>
      </trkpt>
      <trkpt lat="48.768462" lon="9.417030">
        <ele>280.667768</ele>
        <time>2022-07-23T13:49:59.001Z</time>
      </trkpt>
      <trkpt lat="48.768323" lon="9.417164">
        <ele>280.869288</ele>
        <time>2022-07-23T13:50:01.001Z</time>
      </trkpt>
      <trkpt lat="48.768176" lon="9.417289">
        <ele>281.075492</ele>
        <time>2022-07-23T13:50:03.000Z</time>
      </trkpt>
      <trkpt lat="48.768035" lon="9.417425">
        <ele>281.279942</ele>
        <time>2022-07-23T13:50:05.000Z</time>
      </trkpt>
      <trkpt lat="48.767897" lon="9.417572">
        <ele>281.486272</ele>
        <time>2022-07-23T13:50:07.000Z</time>
      </trkpt>
      <trkpt lat="48.767767" lon="9.417737">
        <ele>281.693672</ele>
        <time>2022-07-23T13:50:09.000Z</time>
      </trkpt>
      <trkpt lat="48.767653" lon="9.417929">
        <ele>281.902093</ele>
        <time>2022-07-23T13:50:11.000Z</time>
      </trkpt>
      <trkpt lat="48.767552" lon="9.418140">
        <ele>282.112415</ele>
        <time>2022-07-23T13:50:13.000Z</time>
      </trkpt>
      <trkpt lat="48.767468" lon="9.418365">
        <ele>282.320974</ele>
        <time>2022-07-23T13:50:15.000Z</time>
      </trkpt>
      <trkpt lat="48.767390" lon="9.418596">
        <ele>282.584948</ele>
        <time>2022-07-23T13:50:17.000Z</time>
      </trkpt>
      <trkpt lat="48.767306" lon="9.418819">
        <ele>282.858187</ele>
        <time>2022-07-23T13:50:19.000Z</time>
      </trkpt>
      <trkpt lat="48.767199" lon="9.419009">
        <ele>283.124044</ele>
        <time>2022-07-23T13:50:21.000Z</time>
      </trkpt>
      <trkpt lat="48.767070" lon="9.419170">
        <ele>283.393645</ele>
        <time>2022-07-23T13:50:23.000Z</time>
      </trkpt>
      <trkpt lat="48.766935" lon="9.419311">
        <ele>283.658175</ele>
        <time>2022-07-23T13:50:25.000Z</time>
      </trkpt>
      <trkpt lat="48.766810" lon="9.419438">
        <ele>283.900986</ele>
        <time>2022-07-23T13:50:27.000Z</time>
      </trkpt>
      <trkpt lat="48.766697" lon="9.419568">
        <ele>284.129873</ele>
        <time>2022-07-23T13:50:29.000Z</time>
      </trkpt>
      <trkpt lat="48.766600" lon="9.419705">
        <ele>284.343771</ele>
        <time>2022-07-23T13:50:31.000Z</time>
      </trkpt>
      <trkpt lat="48.766519" lon="9.419844">
        <ele>284.541148</ele>
        <time>2022-07-23T13:50:33.000Z</time>
      </trkpt>
      <trkpt lat="48.766435" lon="9.419961">
        <ele>284.725196</ele>
        <time>2022-07-23T13:50:35.000Z</time>
      </trkpt>
      <trkpt lat="48.766331" lon="9.419978">
        <ele>284.894023</ele>
        <time>2022-07-23T13:50:37.000Z</time>
      </trkpt>
      <trkpt lat="48.766226" lon="9.419905">
        <ele>285.080440</ele>
        <time>2022-07-23T13:50:39.000Z</time>
      </trkpt>
      <trkpt lat="48.766126" lon="9.419830">
        <ele>285.260485</ele>
        <time>2022-07-23T13:50:41.000Z</time>
      </trkpt>
      <trkpt lat="48.766059" lon="9.419726">
        <ele>285.488897</ele>
        <time>2022-07-23T13:50:43.000Z</time>
      </trkpt>
      <trkpt lat="48.765963" lon="9.419684">
        <ele>285.727754</ele>
        <time>2022-07-23T13:50:45.000Z</time>
      </trkpt>
      <trkpt lat="48.765863" lon="9.419757">
        <ele>285.993058</ele>
        <time>2022-07-23T13:50:47.000Z</time>
      </trkpt>
      <trkpt lat="48.765764" lon="9.419843">
        <ele>286.265787</ele>
        <time>2022-07-23T13:50:49.000Z</time>
      </trkpt>
      <trkpt lat="48.765653" lon="9.419932">
        <ele>286.565934</ele>
        <time>2022-07-23T13:50:51.000Z</time>
      </trkpt>
      <trkpt lat="48.765525" lon="9.420002">
        <ele>286.891215</ele>
        <time>2022-07-23T13:50:53.000Z</time>
      </trkpt>
      <trkpt lat="48.765383" lon="9.420074">
        <ele>287.249149</ele>
        <time>2022-07-23T13:50:55.000Z</time>
      </trkpt>
      <trkpt lat="48.765240" lon="9.420172">
        <ele>287.624278</ele>
        <time>2022-07-23T13:50:57.000Z</time>
      </trkpt>
      <trkpt lat="48.765096" lon="9.420286">
        <ele>288.012589</ele>
        <time>2022-07-23T13:50:59.000Z</time>
      </trkpt>
      <trkpt lat="48.764971" lon="9.420443">
        <ele>288.400546</ele>
        <time>2022-07-23T13:51:01.000Z</time>
      </trkpt>
      <trkpt lat="48.764832" lon="9.420572">
        <ele>288.790096</ele>
        <time>2022-07-23T13:51:03.000Z</time>
      </trkpt>
      <trkpt lat="48.764677" lon="9.420654">
        <ele>289.182535</ele>
        <time>2022-07-23T13:51:05.000Z</time>
      </trkpt>
      <trkpt lat="48.764518" lon="9.420741">
        <ele>289.634310</ele>
        <time>2022-07-23T13:51:07.000Z</time>
      </trkpt>
      <trkpt lat="48.764361" lon="9.420831">
        <ele>290.813311</ele>
        <time>2022-07-23T13:51:09.000Z</time>
      </trkpt>
      <trkpt lat="48.764205" lon="9.420928">
        <ele>291.997652</ele>
        <time>2022-07-23T13:51:11.001Z</time>
      </trkpt>
      <trkpt lat="48.764053" lon="9.421028">
        <ele>293.161500</ele>
        <time>2022-07-23T13:51:13.001Z</time>
      </trkpt>
      <trkpt lat="48.763901" lon="9.421121">
        <ele>294.312837</ele>
        <time>2022-07-23T13:51:15.001Z</time>
      </trkpt>
      <trkpt lat="48.763747" lon="9.421192">
        <ele>295.443507</ele>
        <time>2022-07-23T13:51:17.001Z</time>
      </trkpt>
      <trkpt lat="48.763589" lon="9.421207">
        <ele>296.555596</ele>
        <time>2022-07-23T13:51:19.001Z</time>
      </trkpt>
      <trkpt lat="48.763433" lon="9.421188">
        <ele>297.654989</ele>
        <time>2022-07-23T13:51:21.001Z</time>
      </trkpt>
      <trkpt lat="48.763278" lon="9.421131">
        <ele>298.775366</ele>
        <time>2022-07-23T13:51:23.001Z</time>
      </trkpt>
      <trkpt lat="48.763136" lon="9.421035">
        <ele>299.867454</ele>
        <time>2022-07-23T13:51:25.001Z</time>
      </trkpt>
      <trkpt lat="48.763004" lon="9.420921">
        <ele>300.934457</ele>
        <time>2022-07-23T13:51:27.001Z</time>
      </trkpt>
      <trkpt lat="48.762871" lon="9.420812">
        <ele>301.996373</ele>
        <time>2022-07-23T13:51:29.001Z</time>
      </trkpt>
      <trkpt lat="48.762723" lon="9.420726">
        <ele>303.072220</ele>
        <time>2022-07-23T13:51:31.001Z</time>
      </trkpt>
      <trkpt lat="48.762571" lon="9.420671">
        <ele>304.124856</ele>
        <time>2022-07-23T13:51:33.001Z</time>
      </trkpt>
      <trkpt lat="48.762420" lon="9.420646">
        <ele>305.148073</ele>
        <time>2022-07-23T13:51:35.001Z</time>
      </trkpt>
      <trkpt lat="48.762269" lon="9.420662">
        <ele>306.167728</ele>
        <time>2022-07-23T13:51:37.001Z</time>
      </trkpt>
      <trkpt lat="48.762120" lon="9.420703">
        <ele>307.187810</ele>
        <time>2022-07-23T13:51:39.001Z</time>
      </trkpt>
      <trkpt lat="48.761968" lon="9.420761">
        <ele>308.243617</ele>
        <time>2022-07-23T13:51:41.001Z</time>
      </trkpt>
      <trkpt lat="48.761818" lon="9.420821">
        <ele>309.288593</ele>
        <time>2022-07-23T13:51:43.001Z</time>
      </trkpt>
      <trkpt lat="48.761665" lon="9.420884">
        <ele>310.356534</ele>
        <time>2022-07-23T13:51:45.001Z</time>
      </trkpt>
      <trkpt lat="48.761513" lon="9.420954">
        <ele>311.426589</ele>
        <time>2022-07-23T13:51:47.001Z</time>
      </trkpt>
      <trkpt lat="48.761362" lon="9.421025">
        <ele>312.491506</ele>
        <time>2022-07-23T13:51:49.001Z</time>
      </trkpt>
      <trkpt lat="48.761216" lon="9.421102">
        <ele>313.532742</ele>
        <time>2022-07-23T13:51:51.001Z</time>
      </trkpt>
      <trkpt lat="48.761066" lon="9.421172">
        <ele>314.608915</ele>
        <time>2022-07-23T13:51:53.001Z</time>
      </trkpt>
      <trkpt lat="48.760921" lon="9.421269">
        <ele>315.749752</ele>
        <time>2022-07-23T13:51:55.001Z</time>
      </trkpt>
      <trkpt lat="48.760793" lon="9.421406">
        <ele>316.877485</ele>
        <time>2022-07-23T13:51:57.001Z</time>
      </trkpt>
      <trkpt lat="48.760683" lon="9.421571">
        <ele>317.991128</ele>
        <time>2022-07-23T13:51:59.001Z</time>
      </trkpt>
      <trkpt lat="48.760579" lon="9.421757">
        <ele>319.148565</ele>
        <time>2022-07-23T13:52:01.001Z</time>
      </trkpt>
      <trkpt lat="48.760504" lon="9.421965">
        <ele>320.273665</ele>
        <time>2022-07-23T13:52:03.001Z</time>
      </trkpt>
      <trkpt lat="48.760454" lon="9.422191">
        <ele>321.404961</ele>
        <time>2022-07-23T13:52:05.001Z</time>
      </trkpt>
      <trkpt lat="48.760422" lon="9.422426">
        <ele>322.543723</ele>
        <time>2022-07-23T13:52:07.001Z</time>
      </trkpt>
      <trkpt lat="48.760403" lon="9.422662">
        <ele>323.672008</ele>
        <time>2022-07-23T13:52:09.000Z</time>
      </trkpt>
      <trkpt lat="48.760395" lon="9.422902">
        <ele>324.812410</ele>
        <time>2022-07-23T13:52:11.000Z</time>
      </trkpt>
      <trkpt lat="48.760399" lon="9.423141">
        <ele>325.946976</ele>
        <time>2022-07-23T13:52:13.000Z</time>
      </trkpt>
      <trkpt lat="48.760410" lon="9.423380">
        <ele>327.083938</ele>
        <time>2022-07-23T13:52:15.000Z</time>
      </trkpt>
      <trkpt lat="48.760433" lon="9.423615">
        <ele>328.151420</ele>
        <time>2022-07-23T13:52:17.000Z</time>
      </trkpt>
      <trkpt lat="48.760469" lon="9.423849">
        <ele>329.219745</ele>
        <time>2022-07-23T13:52:19.000Z</time>
      </trkpt>
      <trkpt lat="48.760516" lon="9.424077">
        <ele>330.281842</ele>
        <time>2022-07-23T13:52:21.000Z</time>
      </trkpt>
      <trkpt lat="48.760571" lon="9.424304">
        <ele>331.357097</ele>
        <time>2022-07-23T13:52:23.000Z</time>
      </trkpt>
      <trkpt lat="48.760628" lon="9.424526">
        <ele>332.416335</ele>
        <time>2022-07-23T13:52:25.000Z</time>
      </trkpt>
      <trkpt lat="48.760682" lon="9.424750">
        <ele>333.476743</ele>
        <time>2022-07-23T13:52:27.000Z</time>
      </trkpt>
      <trkpt lat="48.760740" lon="9.424973">
        <ele>334.542580</ele>
        <time>2022-07-23T13:52:29.000Z</time>
      </trkpt>
      <trkpt lat="48.760796" lon="9.425192">
        <ele>335.586939</ele>
        <time>2022-07-23T13:52:31.000Z</time>
      </trkpt>
      <trkpt lat="48.760857" lon="9.425414">
        <ele>336.656259</ele>
        <time>2022-07-23T13:52:33.000Z</time>
      </trkpt>
      <trkpt lat="48.760922" lon="9.425625">
        <ele>337.691739</ele>
        <time>2022-07-23T13:52:35.000Z</time>
      </trkpt>
      <trkpt lat="48.760981" lon="9.425823">
        <ele>338.657801</ele>
        <time>2022-07-23T13:52:37.000Z</time>
      </trkpt>
      <trkpt lat="48.761033" lon="9.426030">
        <ele>339.643047</ele>
        <time>2022-07-23T13:52:39.000Z</time>
      </trkpt>
      <trkpt lat="48.761061" lon="9.426242">
        <ele>340.605746</ele>
        <time>2022-07-23T13:52:41.000Z</time>
      </trkpt>
      <trkpt lat="48.761069" lon="9.426469">
        <ele>341.617917</ele>
        <time>2022-07-23T13:52:43.000Z</time>
      </trkpt>
      <trkpt lat="48.761060" lon="9.426697">
        <ele>342.634916</ele>
        <time>2022-07-23T13:52:45.000Z</time>
      </trkpt>
      <trkpt lat="48.761052" lon="9.426924">
        <ele>343.647087</ele>
        <time>2022-07-23T13:52:47.000Z</time>
      </trkpt>
      <trkpt lat="48.761053" lon="9.427152">
        <ele>344.662290</ele>
        <time>2022-07-23T13:52:49.000Z</time>
      </trkpt>
      <trkpt lat="48.761051" lon="9.427387">
        <ele>345.708726</ele>
        <time>2022-07-23T13:52:51.000Z</time>
      </trkpt>
      <trkpt lat="48.761059" lon="9.427617">
        <ele>346.734236</ele>
        <time>2022-07-23T13:52:53.000Z</time>
      </trkpt>
      <trkpt lat="48.761074" lon="9.427854">
        <ele>347.794342</ele>
        <time>2022-07-23T13:52:55.000Z</time>
      </trkpt>
      <trkpt lat="48.761096" lon="9.428091">
        <ele>348.860006</ele>
        <time>2022-07-23T13:52:57.000Z</time>
      </trkpt>
      <trkpt lat="48.761119" lon="9.428329">
        <ele>349.931038</ele>
        <time>2022-07-23T13:52:59.000Z</time>
      </trkpt>
      <trkpt lat="48.761140" lon="9.428567">
        <ele>351.000193</ele>
        <time>2022-07-23T13:53:01.000Z</time>
      </trkpt>
      <trkpt lat="48.761155" lon="9.428806">
        <ele>352.033966</ele>
        <time>2022-07-23T13:53:03.000Z</time>
      </trkpt>
      <trkpt lat="48.761176" lon="9.429043">
        <ele>353.027708</ele>
        <time>2022-07-23T13:53:05.000Z</time>
      </trkpt>
      <trkpt lat="48.761193" lon="9.429281">
        <ele>354.022537</ele>
        <time>2022-07-23T13:53:07.000Z</time>
      </trkpt>
      <trkpt lat="48.761212" lon="9.429519">
        <ele>355.018803</ele>
        <time>2022-07-23T13:53:09.000Z</time>
      </trkpt>
      <trkpt lat="48.761230" lon="9.429755">
        <ele>356.006073</ele>
        <time>2022-07-23T13:53:11.000Z</time>
      </trkpt>
      <trkpt lat="48.761245" lon="9.429997">
        <ele>357.016170</ele>
        <time>2022-07-23T13:53:13.000Z</time>
      </trkpt>
      <trkpt lat="48.761252" lon="9.430237">
        <ele>358.014495</ele>
        <time>2022-07-23T13:53:15.000Z</time>
      </trkpt>
      <trkpt lat="48.761244" lon="9.430472">
        <ele>358.992368</ele>
        <time>2022-07-23T13:53:17.001Z</time>
      </trkpt>
      <trkpt lat="48.761217" lon="9.430710">
        <ele>359.995946</ele>
        <time>2022-07-23T13:53:19.001Z</time>
      </trkpt>
      <trkpt lat="48.761165" lon="9.430939">
        <ele>361.002463</ele>
        <time>2022-07-23T13:53:21.001Z</time>
      </trkpt>
      <trkpt lat="48.761107" lon="9.431160">
        <ele>361.990966</ele>
        <time>2022-07-23T13:53:23.001Z</time>
      </trkpt>
      <trkpt lat="48.761063" lon="9.431400">
        <ele>363.011869</ele>
        <time>2022-07-23T13:53:25.001Z</time>
      </trkpt>
      <trkpt lat="48.761043" lon="9.431644">
        <ele>363.933593</ele>
        <time>2022-07-23T13:53:27.001Z</time>
      </trkpt>
      <trkpt lat="48.761044" lon="9.431886">
        <ele>364.840794</ele>
        <time>2022-07-23T13:53:29.001Z</time>
      </trkpt>
      <trkpt lat="48.761044" lon="9.432134">
        <ele>365.770470</ele>
        <time>2022-07-23T13:53:31.001Z</time>
      </trkpt>
      <trkpt lat="48.761031" lon="9.432379">
        <ele>366.691870</ele>
        <time>2022-07-23T13:53:33.001Z</time>
      </trkpt>
      <trkpt lat="48.760976" lon="9.432607">
        <ele>367.602002</ele>
        <time>2022-07-23T13:53:35.001Z</time>
      </trkpt>
      <trkpt lat="48.760884" lon="9.432816">
        <ele>368.544103</ele>
        <time>2022-07-23T13:53:37.001Z</time>
      </trkpt>
      <trkpt lat="48.760768" lon="9.432995">
        <ele>369.485069</ele>
        <time>2022-07-23T13:53:39.001Z</time>
      </trkpt>
      <trkpt lat="48.760645" lon="9.433162">
        <ele>370.423778</ele>
        <time>2022-07-23T13:53:41.001Z</time>
      </trkpt>
      <trkpt lat="48.760526" lon="9.433329">
        <ele>371.345663</ele>
        <time>2022-07-23T13:53:43.001Z</time>
      </trkpt>
      <trkpt lat="48.760407" lon="9.433496">
        <ele>372.267549</ele>
        <time>2022-07-23T13:53:45.001Z</time>
      </trkpt>
      <trkpt lat="48.760290" lon="9.433660">
        <ele>373.180710</ele>
        <time>2022-07-23T13:53:47.001Z</time>
      </trkpt>
      <trkpt lat="48.760176" lon="9.433825">
        <ele>374.176873</ele>
        <time>2022-07-23T13:53:49.001Z</time>
      </trkpt>
      <trkpt lat="48.760061" lon="9.433991">
        <ele>375.180489</ele>
        <time>2022-07-23T13:53:51.001Z</time>
      </trkpt>
      <trkpt lat="48.759945" lon="9.434156">
        <ele>376.185839</ele>
        <time>2022-07-23T13:53:53.001Z</time>
      </trkpt>
      <trkpt lat="48.759823" lon="9.434311">
        <ele>377.191934</ele>
        <time>2022-07-23T13:53:55.001Z</time>
      </trkpt>
      <trkpt lat="48.759679" lon="9.434387">
        <ele>378.155861</ele>
        <time>2022-07-23T13:53:57.001Z</time>
      </trkpt>
      <trkpt lat="48.759529" lon="9.434399">
        <ele>379.105510</ele>
        <time>2022-07-23T13:53:59.001Z</time>
      </trkpt>
      <trkpt lat="48.759375" lon="9.434348">
        <ele>380.102063</ele>
        <time>2022-07-23T13:54:01.001Z</time>
      </trkpt>
      <trkpt lat="48.759229" lon="9.434247">
        <ele>381.116558</ele>
        <time>2022-07-23T13:54:03.001Z</time>
      </trkpt>
      <trkpt lat="48.759088" lon="9.434143">
        <ele>382.107783</ele>
        <time>2022-07-23T13:54:05.001Z</time>
      </trkpt>
      <trkpt lat="48.758944" lon="9.434048">
        <ele>383.100554</ele>
        <time>2022-07-23T13:54:07.001Z</time>
      </trkpt>
      <trkpt lat="48.758796" lon="9.433994">
        <ele>384.062927</ele>
        <time>2022-07-23T13:54:09.001Z</time>
      </trkpt>
      <trkpt lat="48.758637" lon="9.433966">
        <ele>385.059231</ele>
        <time>2022-07-23T13:54:11.001Z</time>
      </trkpt>
      <trkpt lat="48.758480" lon="9.433942">
        <ele>386.030559</ele>
        <time>2022-07-23T13:54:13.001Z</time>
      </trkpt>
      <trkpt lat="48.758317" lon="9.433926">
        <ele>387.036024</ele>
        <time>2022-07-23T13:54:15.000Z</time>
      </trkpt>
      <trkpt lat="48.758160" lon="9.433906">
        <ele>388.005858</ele>
        <time>2022-07-23T13:54:17.000Z</time>
      </trkpt>
      <trkpt lat="48.757999" lon="9.433893">
        <ele>388.998316</ele>
        <time>2022-07-23T13:54:19.000Z</time>
      </trkpt>
      <trkpt lat="48.757835" lon="9.433876">
        <ele>390.010193</ele>
        <time>2022-07-23T13:54:21.000Z</time>
      </trkpt>
      <trkpt lat="48.757672" lon="9.433860">
        <ele>391.015657</ele>
        <time>2022-07-23T13:54:23.000Z</time>
      </trkpt>
      <trkpt lat="48.757510" lon="9.433847">
        <ele>392.014262</ele>
        <time>2022-07-23T13:54:25.000Z</time>
      </trkpt>
      <trkpt lat="48.757349" lon="9.433867">
        <ele>393.008635</ele>
        <time>2022-07-23T13:54:27.000Z</time>
      </trkpt>
      <trkpt lat="48.757186" lon="9.433913">
        <ele>394.029219</ele>
        <time>2022-07-23T13:54:29.000Z</time>
      </trkpt>
      <trkpt lat="48.757032" lon="9.433989">
        <ele>395.026093</ele>
        <time>2022-07-23T13:54:31.000Z</time>
      </trkpt>
      <trkpt lat="48.756880" lon="9.434051">
        <ele>396.029860</ele>
        <time>2022-07-23T13:54:33.000Z</time>
      </trkpt>
      <trkpt lat="48.756719" lon="9.434072">
        <ele>397.102821</ele>
        <time>2022-07-23T13:54:35.000Z</time>
      </trkpt>
      <trkpt lat="48.756556" lon="9.434075">
        <ele>398.185197</ele>
        <time>2022-07-23T13:54:37.000Z</time>
      </trkpt>
      <trkpt lat="48.756396" lon="9.434088">
        <ele>399.249096</ele>
        <time>2022-07-23T13:54:39.000Z</time>
      </trkpt>
      <trkpt lat="48.756237" lon="9.434108">
        <ele>400.308455</ele>
        <time>2022-07-23T13:54:41.000Z</time>
      </trkpt>
      <trkpt lat="48.756078" lon="9.434123">
        <ele>401.366231</ele>
        <time>2022-07-23T13:54:43.000Z</time>
      </trkpt>
      <trkpt lat="48.755917" lon="9.434124">
        <ele>402.435256</ele>
        <time>2022-07-23T13:54:45.000Z</time>
      </trkpt>
      <trkpt lat="48.755753" lon="9.434133">
        <ele>403.524904</ele>
        <time>2022-07-23T13:54:47.000Z</time>
      </trkpt>
      <trkpt lat="48.755592" lon="9.434115">
        <ele>404.596820</ele>
        <time>2022-07-23T13:54:49.000Z</time>
      </trkpt>
      <trkpt lat="48.755448" lon="9.433995">
        <ele>405.687754</ele>
        <time>2022-07-23T13:54:51.000Z</time>
      </trkpt>
      <trkpt lat="48.755340" lon="9.433812">
        <ele>406.762913</ele>
        <time>2022-07-23T13:54:53.000Z</time>
      </trkpt>
      <trkpt lat="48.755253" lon="9.433604">
        <ele>407.833847</ele>
        <time>2022-07-23T13:54:55.000Z</time>
      </trkpt>
      <trkpt lat="48.755175" lon="9.433387">
        <ele>408.892781</ele>
        <time>2022-07-23T13:54:57.000Z</time>
      </trkpt>
      <trkpt lat="48.755082" lon="9.433188">
        <ele>409.937873</ele>
        <time>2022-07-23T13:54:59.000Z</time>
      </trkpt>
      <trkpt lat="48.754971" lon="9.433007">
        <ele>410.996996</ele>
        <time>2022-07-23T13:55:01.000Z</time>
      </trkpt>
      <trkpt lat="48.754862" lon="9.432819">
        <ele>412.069646</ele>
        <time>2022-07-23T13:55:03.000Z</time>
      </trkpt>
      <trkpt lat="48.754753" lon="9.432630">
        <ele>413.145518</ele>
        <time>2022-07-23T13:55:05.000Z</time>
      </trkpt>
      <trkpt lat="48.754650" lon="9.432439">
        <ele>414.202747</ele>
        <time>2022-07-23T13:55:07.000Z</time>
      </trkpt>
      <trkpt lat="48.754549" lon="9.432249">
        <ele>415.248458</ele>
        <time>2022-07-23T13:55:09.000Z</time>
      </trkpt>
      <trkpt lat="48.754457" lon="9.432048">
        <ele>416.296841</ele>
        <time>2022-07-23T13:55:11.000Z</time>
      </trkpt>
      <trkpt lat="48.754409" lon="9.431811">
        <ele>417.359107</ele>
        <time>2022-07-23T13:55:13.000Z</time>
      </trkpt>
      <trkpt lat="48.754386" lon="9.431575">
        <ele>418.381243</ele>
        <time>2022-07-23T13:55:15.000Z</time>
      </trkpt>
      <trkpt lat="48.754316" lon="9.431374">
        <ele>419.343881</ele>
        <time>2022-07-23T13:55:17.000Z</time>
      </trkpt>
      <trkpt lat="48.754186" lon="9.431273">
        <ele>420.230607</ele>
        <time>2022-07-23T13:55:19.000Z</time>
      </trkpt>
      <trkpt lat="48.754044" lon="9.431283">
        <ele>421.093603</ele>
        <time>2022-07-23T13:55:21.000Z</time>
      </trkpt>
      <trkpt lat="48.753931" lon="9.431410">
        <ele>421.947418</ele>
        <time>2022-07-23T13:55:23.000Z</time>
      </trkpt>
      <trkpt lat="48.753859" lon="9.431601">
        <ele>422.828037</ele>
        <time>2022-07-23T13:55:25.000Z</time>
      </trkpt>
      <trkpt lat="48.753806" lon="9.431811">
        <ele>423.728046</ele>
        <time>2022-07-23T13:55:27.000Z</time>
      </trkpt>
      <trkpt lat="48.753754" lon="9.432024">
        <ele>424.637154</ele>
        <time>2022-07-23T13:55:29.000Z</time>
      </trkpt>
      <trkpt lat="48.753707" lon="9.432248">
        <ele>425.578028</ele>
        <time>2022-07-23T13:55:31.001Z</time>
      </trkpt>
      <trkpt lat="48.753701" lon="9.432482">
        <ele>426.515327</ele>
        <time>2022-07-23T13:55:33.001Z</time>
      </trkpt>
      <trkpt lat="48.753715" lon="9.432702">
        <ele>427.399975</ele>
        <time>2022-07-23T13:55:35.001Z</time>
      </trkpt>
      <trkpt lat="48.753721" lon="9.432934">
        <ele>428.329276</ele>
        <time>2022-07-23T13:55:37.001Z</time>
      </trkpt>
      <trkpt lat="48.753712" lon="9.433160">
        <ele>429.235495</ele>
        <time>2022-07-23T13:55:39.001Z</time>
      </trkpt>
      <trkpt lat="48.753713" lon="9.433366">
        <ele>430.060038</ele>
        <time>2022-07-23T13:55:41.001Z</time>
      </trkpt>
      <trkpt lat="48.753721" lon="9.433564">
        <ele>430.880214</ele>
        <time>2022-07-23T13:55:43.001Z</time>
      </trkpt>
      <trkpt lat="48.753734" lon="9.433753">
        <ele>431.667306</ele>
        <time>2022-07-23T13:55:45.001Z</time>
      </trkpt>
      <trkpt lat="48.753751" lon="9.433930">
        <ele>432.408184</ele>
        <time>2022-07-23T13:55:47.001Z</time>
      </trkpt>
      <trkpt lat="48.753772" lon="9.434105">
        <ele>433.144947</ele>
        <time>2022-07-23T13:55:49.001Z</time>
      </trkpt>
      <trkpt lat="48.753783" lon="9.434283">
        <ele>433.885460</ele>
        <time>2022-07-23T13:55:51.001Z</time>
      </trkpt>
      <trkpt lat="48.753797" lon="9.434461">
        <ele>434.627968</ele>
        <time>2022-07-23T13:55:53.001Z</time>
      </trkpt>
      <trkpt lat="48.753823" lon="9.434639">
        <ele>435.383126</ele>
        <time>2022-07-23T13:55:55.001Z</time>
      </trkpt>
      <trkpt lat="48.753829" lon="9.434835">
        <ele>436.195836</ele>
        <time>2022-07-23T13:55:57.001Z</time>
      </trkpt>
      <trkpt lat="48.753828" lon="9.435026">
        <ele>436.986987</ele>
        <time>2022-07-23T13:55:59.001Z</time>
      </trkpt>
      <trkpt lat="48.753828" lon="9.435222">
        <ele>437.798824</ele>
        <time>2022-07-23T13:56:01.001Z</time>
      </trkpt>
      <trkpt lat="48.753841" lon="9.435423">
        <ele>438.635366</ele>
        <time>2022-07-23T13:56:03.001Z</time>
      </trkpt>
      <trkpt lat="48.753859" lon="9.435626">
        <ele>439.483767</ele>
        <time>2022-07-23T13:56:05.001Z</time>
      </trkpt>
      <trkpt lat="48.753885" lon="9.435827">
        <ele>440.332185</ele>
        <time>2022-07-23T13:56:07.001Z</time>
      </trkpt>
      <trkpt lat="48.753911" lon="9.436015">
        <ele>441.127831</ele>
        <time>2022-07-23T13:56:09.001Z</time>
      </trkpt>
      <trkpt lat="48.753938" lon="9.436161">
        <ele>441.731665</ele>
        <time>2022-07-23T13:56:11.001Z</time>
      </trkpt>
      <trkpt lat="48.753890" lon="9.436279">
        <ele>442.266564</ele>
        <time>2022-07-23T13:56:14.001Z</time>
      </trkpt>
      <trkpt lat="48.753839" lon="9.436166">
        <ele>442.794859</ele>
        <time>2022-07-23T13:56:18.001Z</time>
      </trkpt>
      <trkpt lat="48.753953" lon="9.436403">
        <ele>443.926641</ele>
        <time>2022-07-23T13:59:10.000Z</time>
      </trkpt>
      <trkpt lat="48.753905" lon="9.436559">
        <ele>444.590777</ele>
        <time>2022-07-23T13:59:14.000Z</time>
      </trkpt>
      <trkpt lat="48.753809" lon="9.436697">
        <ele>445.364716</ele>
        <time>2022-07-23T13:59:17.000Z</time>
      </trkpt>
      <trkpt lat="48.753711" lon="9.436773">
        <ele>446.008765</ele>
        <time>2022-07-23T13:59:20.000Z</time>
      </trkpt>
      <trkpt lat="48.753621" lon="9.436817">
        <ele>446.562076</ele>
        <time>2022-07-23T13:59:22.000Z</time>
      </trkpt>
      <trkpt lat="48.753532" lon="9.436849">
        <ele>447.097287</ele>
        <time>2022-07-23T13:59:24.000Z</time>
      </trkpt>
      <trkpt lat="48.753439" lon="9.436869">
        <ele>447.646915</ele>
        <time>2022-07-23T13:59:26.000Z</time>
      </trkpt>
      <trkpt lat="48.753343" lon="9.436892">
        <ele>448.215619</ele>
        <time>2022-07-23T13:59:28.000Z</time>
      </trkpt>
      <trkpt lat="48.753246" lon="9.436921">
        <ele>448.794131</ele>
        <time>2022-07-23T13:59:30.000Z</time>
      </trkpt>
      <trkpt lat="48.753146" lon="9.436944">
        <ele>449.385965</ele>
        <time>2022-07-23T13:59:32.000Z</time>
      </trkpt>
      <trkpt lat="48.753044" lon="9.436965">
        <ele>449.988286</ele>
        <time>2022-07-23T13:59:34.000Z</time>
      </trkpt>
      <trkpt lat="48.752937" lon="9.436988">
        <ele>450.620648</ele>
        <time>2022-07-23T13:59:36.000Z</time>
      </trkpt>
      <trkpt lat="48.752822" lon="9.437012">
        <ele>451.299905</ele>
        <time>2022-07-23T13:59:38.000Z</time>
      </trkpt>
      <trkpt lat="48.752705" lon="9.437051">
        <ele>451.968471</ele>
        <time>2022-07-23T13:59:40.000Z</time>
      </trkpt>
      <trkpt lat="48.752585" lon="9.437111">
        <ele>452.382366</ele>
        <time>2022-07-23T13:59:42.000Z</time>
      </trkpt>
      <trkpt lat="48.752457" lon="9.437174">
        <ele>452.823183</ele>
        <time>2022-07-23T13:59:44.000Z</time>
      </trkpt>
      <trkpt lat="48.752324" lon="9.437241">
        <ele>453.282257</ele>
        <time>2022-07-23T13:59:46.000Z</time>
      </trkpt>
      <trkpt lat="48.752186" lon="9.437327">
        <ele>453.770978</ele>
        <time>2022-07-23T13:59:48.000Z</time>
      </trkpt>
      <trkpt lat="48.752046" lon="9.437439">
        <ele>454.289463</ele>
        <time>2022-07-23T13:59:50.000Z</time>
      </trkpt>
      <trkpt lat="48.751921" lon="9.437558">
        <ele>454.772906</ele>
        <time>2022-07-23T13:59:52.000Z</time>
      </trkpt>
      <trkpt lat="48.751795" lon="9.437686">
        <ele>455.269675</ele>
        <time>2022-07-23T13:59:54.000Z</time>
      </trkpt>
      <trkpt lat="48.751671" lon="9.437820">
        <ele>455.768421</ele>
        <time>2022-07-23T13:59:56.000Z</time>
      </trkpt>
      <trkpt lat="48.751559" lon="9.437977">
        <ele>456.268000</ele>
        <time>2022-07-23T13:59:58.001Z</time>
      </trkpt>
      <trkpt lat="48.751449" lon="9.438131">
        <ele>456.758372</ele>
        <time>2022-07-23T14:00:00.001Z</time>
      </trkpt>
      <trkpt lat="48.751344" lon="9.438280">
        <ele>457.229394</ele>
        <time>2022-07-23T14:00:02.001Z</time>
      </trkpt>
      <trkpt lat="48.751240" lon="9.438422">
        <ele>457.687780</ele>
        <time>2022-07-23T14:00:04.001Z</time>
      </trkpt>
      <trkpt lat="48.751138" lon="9.438555">
        <ele>457.991522</ele>
        <time>2022-07-23T14:00:06.001Z</time>
      </trkpt>
      <trkpt lat="48.751038" lon="9.438692">
        <ele>458.237566</ele>
        <time>2022-07-23T14:00:08.001Z</time>
      </trkpt>
      <trkpt lat="48.750938" lon="9.438826">
        <ele>458.481204</ele>
        <time>2022-07-23T14:00:10.001Z</time>
      </trkpt>
      <trkpt lat="48.750845" lon="9.438947">
        <ele>458.704926</ele>
        <time>2022-07-23T14:00:12.001Z</time>
      </trkpt>
      <trkpt lat="48.750751" lon="9.439059">
        <ele>458.923182</ele>
        <time>2022-07-23T14:00:14.001Z</time>
      </trkpt>
      <trkpt lat="48.750659" lon="9.439185">
        <ele>459.149511</ele>
        <time>2022-07-23T14:00:16.001Z</time>
      </trkpt>
      <trkpt lat="48.750575" lon="9.439327">
        <ele>459.379175</ele>
        <time>2022-07-23T14:00:18.001Z</time>
      </trkpt>
      <trkpt lat="48.750487" lon="9.439472">
        <ele>459.616424</ele>
        <time>2022-07-23T14:00:20.001Z</time>
      </trkpt>
      <trkpt lat="48.750394" lon="9.439601">
        <ele>459.846533</ele>
        <time>2022-07-23T14:00:22.001Z</time>
      </trkpt>
      <trkpt lat="48.750299" lon="9.439719">
        <ele>460.070735</ele>
        <time>2022-07-23T14:00:24.001Z</time>
      </trkpt>
      <trkpt lat="48.750203" lon="9.439834">
        <ele>460.294096</ele>
        <time>2022-07-23T14:00:26.001Z</time>
      </trkpt>
      <trkpt lat="48.750109" lon="9.439955">
        <ele>460.519208</ele>
        <time>2022-07-23T14:00:28.001Z</time>
      </trkpt>
      <trkpt lat="48.750005" lon="9.440072">
        <ele>460.755633</ele>
        <time>2022-07-23T14:00:30.001Z</time>
      </trkpt>
      <trkpt lat="48.749905" lon="9.440200">
        <ele>460.994552</ele>
        <time>2022-07-23T14:00:32.001Z</time>
      </trkpt>
      <trkpt lat="48.749808" lon="9.440339">
        <ele>461.169500</ele>
        <time>2022-07-23T14:00:34.000Z</time>
      </trkpt>
      <trkpt lat="48.749707" lon="9.440468">
        <ele>461.287907</ele>
        <time>2022-07-23T14:00:36.000Z</time>
      </trkpt>
      <trkpt lat="48.749614" lon="9.440594">
        <ele>461.399732</ele>
        <time>2022-07-23T14:00:38.000Z</time>
      </trkpt>
      <trkpt lat="48.749530" lon="9.440719">
        <ele>461.505261</ele>
        <time>2022-07-23T14:00:40.000Z</time>
      </trkpt>
      <trkpt lat="48.749448" lon="9.440836">
        <ele>461.606218</ele>
        <time>2022-07-23T14:00:42.000Z</time>
      </trkpt>
      <trkpt lat="48.749363" lon="9.440945">
        <ele>461.706035</ele>
        <time>2022-07-23T14:00:44.000Z</time>
      </trkpt>
      <trkpt lat="48.749277" lon="9.441061">
        <ele>461.809240</ele>
        <time>2022-07-23T14:00:46.000Z</time>
      </trkpt>
      <trkpt lat="48.749196" lon="9.441185">
        <ele>461.912445</ele>
        <time>2022-07-23T14:00:48.000Z</time>
      </trkpt>
      <trkpt lat="48.749110" lon="9.441291">
        <ele>462.011820</ele>
        <time>2022-07-23T14:00:50.000Z</time>
      </trkpt>
      <trkpt lat="48.749028" lon="9.441394">
        <ele>462.107296</ele>
        <time>2022-07-23T14:00:52.000Z</time>
      </trkpt>
      <trkpt lat="48.748956" lon="9.441495">
        <ele>462.195244</ele>
        <time>2022-07-23T14:00:54.000Z</time>
      </trkpt>
      <trkpt lat="48.748911" lon="9.441623">
        <ele>462.281012</ele>
        <time>2022-07-23T14:00:56.000Z</time>
      </trkpt>
      <trkpt lat="48.748793" lon="9.441714">
        <ele>462.399720</ele>
        <time>2022-07-23T14:00:59.000Z</time>
      </trkpt>
      <trkpt lat="48.748687" lon="9.441682">
        <ele>462.496638</ele>
        <time>2022-07-23T14:01:01.000Z</time>
      </trkpt>
      <trkpt lat="48.748581" lon="9.441653">
        <ele>462.593226</ele>
        <time>2022-07-23T14:01:03.000Z</time>
      </trkpt>
      <trkpt lat="48.748481" lon="9.441614">
        <ele>462.685816</ele>
        <time>2022-07-23T14:01:05.000Z</time>
      </trkpt>
      <trkpt lat="48.748384" lon="9.441592">
        <ele>462.723639</ele>
        <time>2022-07-23T14:01:07.000Z</time>
      </trkpt>
      <trkpt lat="48.748282" lon="9.441565">
        <ele>462.735802</ele>
        <time>2022-07-23T14:01:09.000Z</time>
      </trkpt>
      <trkpt lat="48.748170" lon="9.441528">
        <ele>462.749268</ele>
        <time>2022-07-23T14:01:11.000Z</time>
      </trkpt>
      <trkpt lat="48.748054" lon="9.441496">
        <ele>462.763118</ele>
        <time>2022-07-23T14:01:13.000Z</time>
      </trkpt>
      <trkpt lat="48.747934" lon="9.441467">
        <ele>462.777393</ele>
        <time>2022-07-23T14:01:15.000Z</time>
      </trkpt>
      <trkpt lat="48.747815" lon="9.441429">
        <ele>462.791679</ele>
        <time>2022-07-23T14:01:17.000Z</time>
      </trkpt>
      <trkpt lat="48.747698" lon="9.441395">
        <ele>462.805673</ele>
        <time>2022-07-23T14:01:19.000Z</time>
      </trkpt>
      <trkpt lat="48.747579" lon="9.441364">
        <ele>462.819857</ele>
        <time>2022-07-23T14:01:21.000Z</time>
      </trkpt>
      <trkpt lat="48.747462" lon="9.441330">
        <ele>462.833852</ele>
        <time>2022-07-23T14:01:23.000Z</time>
      </trkpt>
      <trkpt lat="48.747342" lon="9.441290">
        <ele>462.848285</ele>
        <time>2022-07-23T14:01:25.000Z</time>
      </trkpt>
      <trkpt lat="48.747225" lon="9.441241">
        <ele>462.862544</ele>
        <time>2022-07-23T14:01:27.000Z</time>
      </trkpt>
      <trkpt lat="48.747121" lon="9.441195">
        <ele>462.875270</ele>
        <time>2022-07-23T14:01:29.000Z</time>
      </trkpt>
      <trkpt lat="48.747024" lon="9.441150">
        <ele>462.887186</ele>
        <time>2022-07-23T14:01:31.000Z</time>
      </trkpt>
      <trkpt lat="48.746910" lon="9.441074">
        <ele>462.901815</ele>
        <time>2022-07-23T14:01:34.000Z</time>
      </trkpt>
      <trkpt lat="48.746856" lon="9.440960">
        <ele>462.912688</ele>
        <time>2022-07-23T14:01:36.000Z</time>
      </trkpt>
      <trkpt lat="48.746770" lon="9.440889">
        <ele>462.924191</ele>
        <time>2022-07-23T14:01:38.000Z</time>
      </trkpt>
      <trkpt lat="48.746672" lon="9.440949">
        <ele>462.835962</ele>
        <time>2022-07-23T14:01:40.000Z</time>
      </trkpt>
      <trkpt lat="48.746648" lon="9.441119">
        <ele>462.702601</ele>
        <time>2022-07-23T14:01:42.000Z</time>
      </trkpt>
      <trkpt lat="48.746696" lon="9.441284">
        <ele>462.564261</ele>
        <time>2022-07-23T14:01:44.000Z</time>
      </trkpt>
      <trkpt lat="48.746720" lon="9.441474">
        <ele>462.415865</ele>
        <time>2022-07-23T14:01:46.000Z</time>
      </trkpt>
      <trkpt lat="48.746705" lon="9.441662">
        <ele>462.270600</ele>
        <time>2022-07-23T14:01:48.000Z</time>
      </trkpt>
      <trkpt lat="48.746659" lon="9.441839">
        <ele>462.124661</ele>
        <time>2022-07-23T14:01:50.000Z</time>
      </trkpt>
      <trkpt lat="48.746598" lon="9.442019">
        <ele>461.969417</ele>
        <time>2022-07-23T14:01:52.000Z</time>
      </trkpt>
      <trkpt lat="48.746544" lon="9.442181">
        <ele>461.830172</ele>
        <time>2022-07-23T14:01:54.000Z</time>
      </trkpt>
      <trkpt lat="48.746491" lon="9.442337">
        <ele>461.695556</ele>
        <time>2022-07-23T14:01:56.000Z</time>
      </trkpt>
      <trkpt lat="48.746429" lon="9.442491">
        <ele>461.557146</ele>
        <time>2022-07-23T14:01:58.000Z</time>
      </trkpt>
      <trkpt lat="48.746358" lon="9.442644">
        <ele>461.413630</ele>
        <time>2022-07-23T14:02:00.000Z</time>
      </trkpt>
      <trkpt lat="48.746293" lon="9.442803">
        <ele>461.270124</ele>
        <time>2022-07-23T14:02:02.000Z</time>
      </trkpt>
      <trkpt lat="48.746217" lon="9.442956">
        <ele>461.123183</ele>
        <time>2022-07-23T14:02:04.000Z</time>
      </trkpt>
      <trkpt lat="48.746139" lon="9.443108">
        <ele>460.975437</ele>
        <time>2022-07-23T14:02:06.000Z</time>
      </trkpt>
      <trkpt lat="48.746057" lon="9.443259">
        <ele>460.840943</ele>
        <time>2022-07-23T14:02:08.000Z</time>
      </trkpt>
      <trkpt lat="48.745970" lon="9.443407">
        <ele>460.936002</ele>
        <time>2022-07-23T14:02:10.000Z</time>
      </trkpt>
      <trkpt lat="48.745885" lon="9.443563">
        <ele>461.033024</ele>
        <time>2022-07-23T14:02:12.000Z</time>
      </trkpt>
      <trkpt lat="48.745798" lon="9.443714">
        <ele>461.129162</ele>
        <time>2022-07-23T14:02:14.000Z</time>
      </trkpt>
      <trkpt lat="48.745712" lon="9.443872">
        <ele>461.227386</ele>
        <time>2022-07-23T14:02:16.000Z</time>
      </trkpt>
      <trkpt lat="48.745630" lon="9.444029">
        <ele>461.323410</ele>
        <time>2022-07-23T14:02:18.000Z</time>
      </trkpt>
      <trkpt lat="48.745545" lon="9.444180">
        <ele>461.418597</ele>
        <time>2022-07-23T14:02:20.000Z</time>
      </trkpt>
      <trkpt lat="48.745457" lon="9.444336">
        <ele>461.517023</ele>
        <time>2022-07-23T14:02:22.000Z</time>
      </trkpt>
      <trkpt lat="48.745368" lon="9.444488">
        <ele>461.614482</ele>
        <time>2022-07-23T14:02:24.000Z</time>
      </trkpt>
      <trkpt lat="48.745283" lon="9.444643">
        <ele>461.711136</ele>
        <time>2022-07-23T14:02:26.000Z</time>
      </trkpt>
      <trkpt lat="48.745198" lon="9.444795">
        <ele>461.806688</ele>
        <time>2022-07-23T14:02:28.000Z</time>
      </trkpt>
      <trkpt lat="48.745107" lon="9.444948">
        <ele>461.905474</ele>
        <time>2022-07-23T14:02:30.000Z</time>
      </trkpt>
      <trkpt lat="48.745010" lon="9.445087">
        <ele>462.002507</ele>
        <time>2022-07-23T14:02:32.000Z</time>
      </trkpt>
      <trkpt lat="48.744914" lon="9.445225">
        <ele>462.098682</ele>
        <time>2022-07-23T14:02:34.001Z</time>
      </trkpt>
      <trkpt lat="48.744816" lon="9.445368">
        <ele>462.121116</ele>
        <time>2022-07-23T14:02:36.001Z</time>
      </trkpt>
      <trkpt lat="48.744716" lon="9.445507">
        <ele>462.082273</ele>
        <time>2022-07-23T14:02:38.001Z</time>
      </trkpt>
      <trkpt lat="48.744610" lon="9.445645">
        <ele>462.042270</ele>
        <time>2022-07-23T14:02:39.999Z</time>
      </trkpt>
      <trkpt lat="48.744506" lon="9.445788">
        <ele>462.002072</ele>
        <time>2022-07-23T14:02:41.999Z</time>
      </trkpt>
      <trkpt lat="48.744400" lon="9.445920">
        <ele>461.962798</ele>
        <time>2022-07-23T14:02:43.999Z</time>
      </trkpt>
      <trkpt lat="48.744293" lon="9.446052">
        <ele>461.923302</ele>
        <time>2022-07-23T14:02:45.999Z</time>
      </trkpt>
      <trkpt lat="48.744187" lon="9.446192">
        <ele>461.883051</ele>
        <time>2022-07-23T14:02:47.999Z</time>
      </trkpt>
      <trkpt lat="48.744083" lon="9.446340">
        <ele>461.842213</ele>
        <time>2022-07-23T14:02:49.999Z</time>
      </trkpt>
      <trkpt lat="48.743984" lon="9.446488">
        <ele>461.802406</ele>
        <time>2022-07-23T14:02:51.999Z</time>
      </trkpt>
      <trkpt lat="48.743876" lon="9.446619">
        <ele>461.762806</ele>
        <time>2022-07-23T14:02:53.999Z</time>
      </trkpt>
      <trkpt lat="48.743763" lon="9.446745">
        <ele>461.722643</ele>
        <time>2022-07-23T14:02:55.999Z</time>
      </trkpt>
      <trkpt lat="48.743652" lon="9.446876">
        <ele>461.682368</ele>
        <time>2022-07-23T14:02:57.999Z</time>
      </trkpt>
      <trkpt lat="48.743545" lon="9.447011">
        <ele>461.642512</ele>
        <time>2022-07-23T14:02:59.999Z</time>
      </trkpt>
      <trkpt lat="48.743438" lon="9.447143">
        <ele>461.610503</ele>
        <time>2022-07-23T14:03:01.999Z</time>
      </trkpt>
      <trkpt lat="48.743336" lon="9.447278">
        <ele>461.583501</ele>
        <time>2022-07-23T14:03:03.999Z</time>
      </trkpt>
      <trkpt lat="48.743238" lon="9.447415">
        <ele>461.556918</ele>
        <time>2022-07-23T14:03:05.999Z</time>
      </trkpt>
      <trkpt lat="48.743140" lon="9.447563">
        <ele>461.529333</ele>
        <time>2022-07-23T14:03:07.999Z</time>
      </trkpt>
      <trkpt lat="48.743055" lon="9.447717">
        <ele>461.502920</ele>
        <time>2022-07-23T14:03:10.000Z</time>
      </trkpt>
      <trkpt lat="48.742959" lon="9.447852">
        <ele>461.476808</ele>
        <time>2022-07-23T14:03:12.000Z</time>
      </trkpt>
      <trkpt lat="48.742876" lon="9.448009">
        <ele>461.450343</ele>
        <time>2022-07-23T14:03:14.000Z</time>
      </trkpt>
      <trkpt lat="48.742801" lon="9.448174">
        <ele>461.423986</ele>
        <time>2022-07-23T14:03:16.000Z</time>
      </trkpt>
      <trkpt lat="48.742722" lon="9.448338">
        <ele>461.397275</ele>
        <time>2022-07-23T14:03:18.000Z</time>
      </trkpt>
      <trkpt lat="48.742631" lon="9.448480">
        <ele>461.371233</ele>
        <time>2022-07-23T14:03:20.000Z</time>
      </trkpt>
      <trkpt lat="48.742542" lon="9.448626">
        <ele>461.345083</ele>
        <time>2022-07-23T14:03:22.000Z</time>
      </trkpt>
      <trkpt lat="48.742444" lon="9.448764">
        <ele>461.318410</ele>
        <time>2022-07-23T14:03:24.000Z</time>
      </trkpt>
      <trkpt lat="48.742339" lon="9.448892">
        <ele>461.291541</ele>
        <time>2022-07-23T14:03:26.000Z</time>
      </trkpt>
      <trkpt lat="48.742224" lon="9.448997">
        <ele>461.272794</ele>
        <time>2022-07-23T14:03:28.000Z</time>
      </trkpt>
      <trkpt lat="48.742096" lon="9.449072">
        <ele>461.297834</ele>
        <time>2022-07-23T14:03:30.000Z</time>
      </trkpt>
      <trkpt lat="48.741963" lon="9.449101">
        <ele>461.322353</ele>
        <time>2022-07-23T14:03:32.000Z</time>
      </trkpt>
      <trkpt lat="48.741824" lon="9.449073">
        <ele>461.347940</ele>
        <time>2022-07-23T14:03:34.000Z</time>
      </trkpt>
      <trkpt lat="48.741691" lon="9.449023">
        <ele>461.372944</ele>
        <time>2022-07-23T14:03:36.000Z</time>
      </trkpt>
      <trkpt lat="48.741559" lon="9.448973">
        <ele>461.397771</ele>
        <time>2022-07-23T14:03:38.000Z</time>
      </trkpt>
      <trkpt lat="48.741434" lon="9.448922">
        <ele>461.421392</ele>
        <time>2022-07-23T14:03:40.000Z</time>
      </trkpt>
      <trkpt lat="48.741307" lon="9.448868">
        <ele>461.445461</ele>
        <time>2022-07-23T14:03:42.000Z</time>
      </trkpt>
      <trkpt lat="48.741177" lon="9.448831">
        <ele>461.469597</ele>
        <time>2022-07-23T14:03:44.000Z</time>
      </trkpt>
      <trkpt lat="48.741046" lon="9.448813">
        <ele>461.493599</ele>
        <time>2022-07-23T14:03:46.000Z</time>
      </trkpt>
      <trkpt lat="48.740915" lon="9.448798">
        <ele>461.517572</ele>
        <time>2022-07-23T14:03:48.000Z</time>
      </trkpt>
      <trkpt lat="48.740787" lon="9.448801">
        <ele>461.540932</ele>
        <time>2022-07-23T14:03:50.000Z</time>
      </trkpt>
      <trkpt lat="48.740659" lon="9.448812">
        <ele>461.564326</ele>
        <time>2022-07-23T14:03:52.000Z</time>
      </trkpt>
      <trkpt lat="48.740534" lon="9.448823">
        <ele>461.587174</ele>
        <time>2022-07-23T14:03:54.000Z</time>
      </trkpt>
      <trkpt lat="48.740409" lon="9.448836">
        <ele>461.623813</ele>
        <time>2022-07-23T14:03:56.000Z</time>
      </trkpt>
      <trkpt lat="48.740283" lon="9.448860">
        <ele>461.671795</ele>
        <time>2022-07-23T14:03:58.000Z</time>
      </trkpt>
      <trkpt lat="48.740158" lon="9.448884">
        <ele>461.719402</ele>
        <time>2022-07-23T14:04:00.000Z</time>
      </trkpt>
      <trkpt lat="48.740028" lon="9.448885">
        <ele>461.768522</ele>
        <time>2022-07-23T14:04:02.000Z</time>
      </trkpt>
      <trkpt lat="48.739898" lon="9.448885">
        <ele>461.817641</ele>
        <time>2022-07-23T14:04:04.000Z</time>
      </trkpt>
      <trkpt lat="48.739768" lon="9.448899">
        <ele>461.866884</ele>
        <time>2022-07-23T14:04:06.000Z</time>
      </trkpt>
      <trkpt lat="48.739636" lon="9.448913">
        <ele>461.916880</ele>
        <time>2022-07-23T14:04:08.000Z</time>
      </trkpt>
      <trkpt lat="48.739506" lon="9.448930">
        <ele>461.966182</ele>
        <time>2022-07-23T14:04:10.000Z</time>
      </trkpt>
      <trkpt lat="48.739383" lon="9.448945">
        <ele>462.012806</ele>
        <time>2022-07-23T14:04:12.000Z</time>
      </trkpt>
      <trkpt lat="48.739261" lon="9.448959">
        <ele>462.059034</ele>
        <time>2022-07-23T14:04:14.000Z</time>
      </trkpt>
      <trkpt lat="48.739139" lon="9.448972">
        <ele>462.105244</ele>
        <time>2022-07-23T14:04:16.000Z</time>
      </trkpt>
      <trkpt lat="48.739015" lon="9.448982">
        <ele>462.152162</ele>
        <time>2022-07-23T14:04:18.000Z</time>
      </trkpt>
      <trkpt lat="48.738890" lon="9.448986">
        <ele>462.199403</ele>
        <time>2022-07-23T14:04:20.000Z</time>
      </trkpt>
      <trkpt lat="48.738765" lon="9.448983">
        <ele>462.246639</ele>
        <time>2022-07-23T14:04:22.000Z</time>
      </trkpt>
      <trkpt lat="48.738638" lon="9.448983">
        <ele>462.217319</ele>
        <time>2022-07-23T14:04:24.000Z</time>
      </trkpt>
      <trkpt lat="48.738509" lon="9.448991">
        <ele>462.054902</ele>
        <time>2022-07-23T14:04:26.000Z</time>
      </trkpt>
      <trkpt lat="48.738381" lon="9.448998">
        <ele>461.893774</ele>
        <time>2022-07-23T14:04:28.000Z</time>
      </trkpt>
      <trkpt lat="48.738251" lon="9.449002">
        <ele>461.730201</ele>
        <time>2022-07-23T14:04:30.000Z</time>
      </trkpt>
      <trkpt lat="48.738120" lon="9.449004">
        <ele>461.565395</ele>
        <time>2022-07-23T14:04:32.000Z</time>
      </trkpt>
      <trkpt lat="48.737989" lon="9.449000">
        <ele>461.400565</ele>
        <time>2022-07-23T14:04:34.000Z</time>
      </trkpt>
      <trkpt lat="48.737859" lon="9.448967">
        <ele>461.234749</ele>
        <time>2022-07-23T14:04:36.000Z</time>
      </trkpt>
      <trkpt lat="48.737730" lon="9.448903">
        <ele>461.064002</ele>
        <time>2022-07-23T14:04:38.000Z</time>
      </trkpt>
      <trkpt lat="48.737593" lon="9.448894">
        <ele>460.891495</ele>
        <time>2022-07-23T14:04:40.000Z</time>
      </trkpt>
      <trkpt lat="48.737459" lon="9.448933">
        <ele>460.719846</ele>
        <time>2022-07-23T14:04:42.000Z</time>
      </trkpt>
      <trkpt lat="48.737331" lon="9.448988">
        <ele>460.552482</ele>
        <time>2022-07-23T14:04:44.001Z</time>
      </trkpt>
      <trkpt lat="48.737193" lon="9.449007">
        <ele>460.378165</ele>
        <time>2022-07-23T14:04:45.999Z</time>
      </trkpt>
      <trkpt lat="48.737053" lon="9.449006">
        <ele>460.202044</ele>
        <time>2022-07-23T14:04:47.999Z</time>
      </trkpt>
      <trkpt lat="48.736912" lon="9.448995">
        <ele>460.024432</ele>
        <time>2022-07-23T14:04:49.999Z</time>
      </trkpt>
      <trkpt lat="48.736771" lon="9.448988">
        <ele>459.770461</ele>
        <time>2022-07-23T14:04:51.999Z</time>
      </trkpt>
      <trkpt lat="48.736632" lon="9.448984">
        <ele>459.515515</ele>
        <time>2022-07-23T14:04:53.999Z</time>
      </trkpt>
      <trkpt lat="48.736493" lon="9.448974">
        <ele>459.260328</ele>
        <time>2022-07-23T14:04:55.999Z</time>
      </trkpt>
      <trkpt lat="48.736353" lon="9.448963">
        <ele>459.003250</ele>
        <time>2022-07-23T14:04:57.999Z</time>
      </trkpt>
      <trkpt lat="48.736215" lon="9.448954">
        <ele>458.749949</ele>
        <time>2022-07-23T14:04:59.999Z</time>
      </trkpt>
      <trkpt lat="48.736077" lon="9.448949">
        <ele>458.496811</ele>
        <time>2022-07-23T14:05:01.999Z</time>
      </trkpt>
      <trkpt lat="48.735936" lon="9.448942">
        <ele>458.238104</ele>
        <time>2022-07-23T14:05:03.999Z</time>
      </trkpt>
      <trkpt lat="48.735794" lon="9.448944">
        <ele>457.977691</ele>
        <time>2022-07-23T14:05:05.999Z</time>
      </trkpt>
      <trkpt lat="48.735646" lon="9.448958">
        <ele>457.705759</ele>
        <time>2022-07-23T14:05:07.999Z</time>
      </trkpt>
      <trkpt lat="48.735498" lon="9.448982">
        <ele>457.432807</ele>
        <time>2022-07-23T14:05:09.999Z</time>
      </trkpt>
      <trkpt lat="48.735350" lon="9.449023">
        <ele>457.156909</ele>
        <time>2022-07-23T14:05:11.999Z</time>
      </trkpt>
      <trkpt lat="48.735204" lon="9.449076">
        <ele>456.881605</ele>
        <time>2022-07-23T14:05:14.000Z</time>
      </trkpt>
      <trkpt lat="48.735059" lon="9.449138">
        <ele>456.618532</ele>
        <time>2022-07-23T14:05:16.000Z</time>
      </trkpt>
      <trkpt lat="48.734921" lon="9.449198">
        <ele>456.386752</ele>
        <time>2022-07-23T14:05:18.000Z</time>
      </trkpt>
      <trkpt lat="48.734784" lon="9.449258">
        <ele>456.156524</ele>
        <time>2022-07-23T14:05:20.000Z</time>
      </trkpt>
      <trkpt lat="48.734651" lon="9.449318">
        <ele>455.932493</ele>
        <time>2022-07-23T14:05:22.000Z</time>
      </trkpt>
      <trkpt lat="48.734519" lon="9.449377">
        <ele>455.710313</ele>
        <time>2022-07-23T14:05:24.000Z</time>
      </trkpt>
      <trkpt lat="48.734388" lon="9.449430">
        <ele>455.491414</ele>
        <time>2022-07-23T14:05:26.000Z</time>
      </trkpt>
      <trkpt lat="48.734253" lon="9.449482">
        <ele>455.266534</ele>
        <time>2022-07-23T14:05:28.000Z</time>
      </trkpt>
      <trkpt lat="48.734123" lon="9.449539">
        <ele>455.048050</ele>
        <time>2022-07-23T14:05:30.000Z</time>
      </trkpt>
      <trkpt lat="48.733989" lon="9.449589">
        <ele>454.825252</ele>
        <time>2022-07-23T14:05:32.000Z</time>
      </trkpt>
      <trkpt lat="48.733852" lon="9.449645">
        <ele>454.596170</ele>
        <time>2022-07-23T14:05:34.000Z</time>
      </trkpt>
      <trkpt lat="48.733717" lon="9.449718">
        <ele>454.364766</ele>
        <time>2022-07-23T14:05:36.000Z</time>
      </trkpt>
      <trkpt lat="48.733592" lon="9.449827">
        <ele>454.131957</ele>
        <time>2022-07-23T14:05:38.000Z</time>
      </trkpt>
      <trkpt lat="48.733478" lon="9.449962">
        <ele>453.898417</ele>
        <time>2022-07-23T14:05:40.000Z</time>
      </trkpt>
      <trkpt lat="48.733374" lon="9.450113">
        <ele>453.670531</ele>
        <time>2022-07-23T14:05:42.000Z</time>
      </trkpt>
      <trkpt lat="48.733266" lon="9.450267">
        <ele>453.438707</ele>
        <time>2022-07-23T14:05:44.000Z</time>
      </trkpt>
      <trkpt lat="48.733150" lon="9.450409">
        <ele>453.205585</ele>
        <time>2022-07-23T14:05:46.000Z</time>
      </trkpt>
      <trkpt lat="48.733029" lon="9.450540">
        <ele>452.973100</ele>
        <time>2022-07-23T14:05:48.000Z</time>
      </trkpt>
      <trkpt lat="48.732903" lon="9.450661">
        <ele>452.739887</ele>
        <time>2022-07-23T14:05:50.000Z</time>
      </trkpt>
      <trkpt lat="48.732773" lon="9.450765">
        <ele>452.510053</ele>
        <time>2022-07-23T14:05:52.000Z</time>
      </trkpt>
      <trkpt lat="48.732635" lon="9.450844">
        <ele>452.279402</ele>
        <time>2022-07-23T14:05:54.000Z</time>
      </trkpt>
      <trkpt lat="48.732493" lon="9.450903">
        <ele>452.049180</ele>
        <time>2022-07-23T14:05:56.000Z</time>
      </trkpt>
      <trkpt lat="48.732348" lon="9.450954">
        <ele>451.816433</ele>
        <time>2022-07-23T14:05:58.000Z</time>
      </trkpt>
      <trkpt lat="48.732202" lon="9.450997">
        <ele>451.583875</ele>
        <time>2022-07-23T14:06:00.000Z</time>
      </trkpt>
      <trkpt lat="48.732056" lon="9.451042">
        <ele>451.350915</ele>
        <time>2022-07-23T14:06:02.000Z</time>
      </trkpt>
      <trkpt lat="48.731910" lon="9.451087">
        <ele>451.117955</ele>
        <time>2022-07-23T14:06:04.000Z</time>
      </trkpt>
      <trkpt lat="48.731764" lon="9.451120">
        <ele>450.855612</ele>
        <time>2022-07-23T14:06:06.000Z</time>
      </trkpt>
      <trkpt lat="48.731615" lon="9.451141">
        <ele>450.555903</ele>
        <time>2022-07-23T14:06:08.000Z</time>
      </trkpt>
      <trkpt lat="48.731467" lon="9.451155">
        <ele>450.258908</ele>
        <time>2022-07-23T14:06:10.000Z</time>
      </trkpt>
      <trkpt lat="48.731319" lon="9.451167">
        <ele>449.962065</ele>
        <time>2022-07-23T14:06:12.000Z</time>
      </trkpt>
      <trkpt lat="48.731170" lon="9.451171">
        <ele>449.663596</ele>
        <time>2022-07-23T14:06:14.000Z</time>
      </trkpt>
      <trkpt lat="48.731022" lon="9.451176">
        <ele>449.367104</ele>
        <time>2022-07-23T14:06:16.000Z</time>
      </trkpt>
      <trkpt lat="48.730874" lon="9.451182">
        <ele>449.070579</ele>
        <time>2022-07-23T14:06:18.000Z</time>
      </trkpt>
      <trkpt lat="48.730727" lon="9.451185">
        <ele>448.776136</ele>
        <time>2022-07-23T14:06:20.000Z</time>
      </trkpt>
      <trkpt lat="48.730582" lon="9.451188">
        <ele>448.485698</ele>
        <time>2022-07-23T14:06:22.000Z</time>
      </trkpt>
      <trkpt lat="48.730441" lon="9.451194">
        <ele>448.203188</ele>
        <time>2022-07-23T14:06:24.000Z</time>
      </trkpt>
      <trkpt lat="48.730306" lon="9.451207">
        <ele>447.932261</ele>
        <time>2022-07-23T14:06:26.000Z</time>
      </trkpt>
      <trkpt lat="48.730173" lon="9.451239">
        <ele>447.662551</ele>
        <time>2022-07-23T14:06:28.000Z</time>
      </trkpt>
      <trkpt lat="48.730039" lon="9.451291">
        <ele>447.382902</ele>
        <time>2022-07-23T14:06:30.000Z</time>
      </trkpt>
      <trkpt lat="48.729905" lon="9.451339">
        <ele>447.044379</ele>
        <time>2022-07-23T14:06:32.000Z</time>
      </trkpt>
      <trkpt lat="48.729770" lon="9.451392">
        <ele>446.701520</ele>
        <time>2022-07-23T14:06:34.000Z</time>
      </trkpt>
      <trkpt lat="48.729634" lon="9.451448">
        <ele>446.355037</ele>
        <time>2022-07-23T14:06:36.000Z</time>
      </trkpt>
      <trkpt lat="48.729497" lon="9.451494">
        <ele>446.010047</ele>
        <time>2022-07-23T14:06:38.000Z</time>
      </trkpt>
      <trkpt lat="48.729358" lon="9.451546">
        <ele>445.658050</ele>
        <time>2022-07-23T14:06:40.000Z</time>
      </trkpt>
      <trkpt lat="48.729220" lon="9.451602">
        <ele>445.306820</ele>
        <time>2022-07-23T14:06:42.000Z</time>
      </trkpt>
      <trkpt lat="48.729083" lon="9.451663">
        <ele>444.955765</ele>
        <time>2022-07-23T14:06:44.001Z</time>
      </trkpt>
      <trkpt lat="48.728947" lon="9.451732">
        <ele>444.603168</ele>
        <time>2022-07-23T14:06:46.001Z</time>
      </trkpt>
      <trkpt lat="48.728814" lon="9.451813">
        <ele>444.250775</ele>
        <time>2022-07-23T14:06:48.001Z</time>
      </trkpt>
      <trkpt lat="48.728689" lon="9.451907">
        <ele>443.907719</ele>
        <time>2022-07-23T14:06:50.001Z</time>
      </trkpt>
      <trkpt lat="48.728568" lon="9.452005">
        <ele>443.570435</ele>
        <time>2022-07-23T14:06:52.000Z</time>
      </trkpt>
      <trkpt lat="48.728450" lon="9.452102">
        <ele>443.240416</ele>
        <time>2022-07-23T14:06:54.000Z</time>
      </trkpt>
      <trkpt lat="48.728332" lon="9.452207">
        <ele>442.822266</ele>
        <time>2022-07-23T14:06:56.000Z</time>
      </trkpt>
      <trkpt lat="48.728209" lon="9.452318">
        <ele>442.064300</ele>
        <time>2022-07-23T14:06:58.000Z</time>
      </trkpt>
      <trkpt lat="48.728085" lon="9.452436">
        <ele>441.289061</ele>
        <time>2022-07-23T14:07:00.000Z</time>
      </trkpt>
      <trkpt lat="48.727963" lon="9.452563">
        <ele>440.505414</ele>
        <time>2022-07-23T14:07:02.000Z</time>
      </trkpt>
      <trkpt lat="48.727863" lon="9.452732">
        <ele>439.712422</ele>
        <time>2022-07-23T14:07:04.000Z</time>
      </trkpt>
      <trkpt lat="48.727772" lon="9.452913">
        <ele>438.917514</ele>
        <time>2022-07-23T14:07:06.000Z</time>
      </trkpt>
      <trkpt lat="48.727698" lon="9.453094">
        <ele>438.173719</ele>
        <time>2022-07-23T14:07:08.000Z</time>
      </trkpt>
      <trkpt lat="48.727630" lon="9.453272">
        <ele>437.455245</ele>
        <time>2022-07-23T14:07:10.000Z</time>
      </trkpt>
      <trkpt lat="48.727559" lon="9.453437">
        <ele>436.767135</ele>
        <time>2022-07-23T14:07:12.000Z</time>
      </trkpt>
      <trkpt lat="48.727485" lon="9.453595">
        <ele>436.090297</ele>
        <time>2022-07-23T14:07:14.000Z</time>
      </trkpt>
      <trkpt lat="48.727406" lon="9.453763">
        <ele>435.369650</ele>
        <time>2022-07-23T14:07:16.000Z</time>
      </trkpt>
      <trkpt lat="48.727313" lon="9.453925">
        <ele>434.619520</ele>
        <time>2022-07-23T14:07:18.000Z</time>
      </trkpt>
      <trkpt lat="48.727211" lon="9.454082">
        <ele>433.849817</ele>
        <time>2022-07-23T14:07:20.000Z</time>
      </trkpt>
      <trkpt lat="48.727102" lon="9.454233">
        <ele>432.872348</ele>
        <time>2022-07-23T14:07:22.000Z</time>
      </trkpt>
      <trkpt lat="48.726991" lon="9.454382">
        <ele>431.686158</ele>
        <time>2022-07-23T14:07:24.000Z</time>
      </trkpt>
      <trkpt lat="48.726881" lon="9.454531">
        <ele>430.505945</ele>
        <time>2022-07-23T14:07:26.000Z</time>
      </trkpt>
      <trkpt lat="48.726773" lon="9.454678">
        <ele>429.344693</ele>
        <time>2022-07-23T14:07:28.000Z</time>
      </trkpt>
      <trkpt lat="48.726667" lon="9.454825">
        <ele>428.195296</ele>
        <time>2022-07-23T14:07:30.000Z</time>
      </trkpt>
      <trkpt lat="48.726555" lon="9.454966">
        <ele>427.030516</ele>
        <time>2022-07-23T14:07:32.000Z</time>
      </trkpt>
      <trkpt lat="48.726444" lon="9.455107">
        <ele>425.871880</ele>
        <time>2022-07-23T14:07:34.000Z</time>
      </trkpt>
      <trkpt lat="48.726322" lon="9.455237">
        <ele>424.678788</ele>
        <time>2022-07-23T14:07:36.000Z</time>
      </trkpt>
      <trkpt lat="48.726196" lon="9.455360">
        <ele>423.479772</ele>
        <time>2022-07-23T14:07:38.000Z</time>
      </trkpt>
      <trkpt lat="48.726068" lon="9.455485">
        <ele>422.261586</ele>
        <time>2022-07-23T14:07:40.000Z</time>
      </trkpt>
      <trkpt lat="48.725940" lon="9.455605">
        <ele>421.057487</ele>
        <time>2022-07-23T14:07:42.000Z</time>
      </trkpt>
      <trkpt lat="48.725810" lon="9.455723">
        <ele>419.845205</ele>
        <time>2022-07-23T14:07:44.000Z</time>
      </trkpt>
      <trkpt lat="48.725677" lon="9.455849">
        <ele>418.436489</ele>
        <time>2022-07-23T14:07:46.000Z</time>
      </trkpt>
      <trkpt lat="48.725542" lon="9.455974">
        <ele>416.756388</ele>
        <time>2022-07-23T14:07:48.000Z</time>
      </trkpt>
      <trkpt lat="48.725404" lon="9.456101">
        <ele>415.041784</ele>
        <time>2022-07-23T14:07:50.000Z</time>
      </trkpt>
      <trkpt lat="48.725266" lon="9.456229">
        <ele>413.323532</ele>
        <time>2022-07-23T14:07:52.000Z</time>
      </trkpt>
      <trkpt lat="48.725136" lon="9.456350">
        <ele>411.703349</ele>
        <time>2022-07-23T14:07:54.000Z</time>
      </trkpt>
      <trkpt lat="48.725004" lon="9.456469">
        <ele>410.072233</ele>
        <time>2022-07-23T14:07:56.000Z</time>
      </trkpt>
      <trkpt lat="48.724871" lon="9.456600">
        <ele>408.387686</ele>
        <time>2022-07-23T14:07:58.000Z</time>
      </trkpt>
      <trkpt lat="48.724733" lon="9.456728">
        <ele>406.669429</ele>
        <time>2022-07-23T14:08:00.000Z</time>
      </trkpt>
      <trkpt lat="48.724595" lon="9.456854">
        <ele>404.958443</ele>
        <time>2022-07-23T14:08:02.000Z</time>
      </trkpt>
      <trkpt lat="48.724452" lon="9.456981">
        <ele>403.198221</ele>
        <time>2022-07-23T14:08:04.000Z</time>
      </trkpt>
      <trkpt lat="48.724312" lon="9.457112">
        <ele>401.450858</ele>
        <time>2022-07-23T14:08:06.000Z</time>
      </trkpt>
      <trkpt lat="48.724169" lon="9.457243">
        <ele>399.792427</ele>
        <time>2022-07-23T14:08:08.000Z</time>
      </trkpt>
      <trkpt lat="48.724026" lon="9.457381">
        <ele>398.735412</ele>
        <time>2022-07-23T14:08:10.000Z</time>
      </trkpt>
      <trkpt lat="48.723880" lon="9.457516">
        <ele>397.669046</ele>
        <time>2022-07-23T14:08:12.000Z</time>
      </trkpt>
      <trkpt lat="48.723731" lon="9.457636">
        <ele>396.616988</ele>
        <time>2022-07-23T14:08:14.000Z</time>
      </trkpt>
      <trkpt lat="48.723578" lon="9.457741">
        <ele>395.569759</ele>
        <time>2022-07-23T14:08:16.000Z</time>
      </trkpt>
      <trkpt lat="48.723425" lon="9.457817">
        <ele>394.565829</ele>
        <time>2022-07-23T14:08:18.000Z</time>
      </trkpt>
      <trkpt lat="48.723278" lon="9.457883">
        <ele>393.609866</ele>
        <time>2022-07-23T14:08:20.000Z</time>
      </trkpt>
      <trkpt lat="48.723134" lon="9.457925">
        <ele>392.695501</ele>
        <time>2022-07-23T14:08:22.000Z</time>
      </trkpt>
      <trkpt lat="48.722990" lon="9.457955">
        <ele>391.789165</ele>
        <time>2022-07-23T14:08:24.001Z</time>
      </trkpt>
      <trkpt lat="48.722842" lon="9.457975">
        <ele>390.862668</ele>
        <time>2022-07-23T14:08:26.001Z</time>
      </trkpt>
      <trkpt lat="48.722701" lon="9.457985">
        <ele>389.982517</ele>
        <time>2022-07-23T14:08:28.001Z</time>
      </trkpt>
      <trkpt lat="48.722561" lon="9.457992">
        <ele>389.109088</ele>
        <time>2022-07-23T14:08:30.001Z</time>
      </trkpt>
      <trkpt lat="48.722423" lon="9.458002">
        <ele>388.430703</ele>
        <time>2022-07-23T14:08:32.001Z</time>
      </trkpt>
      <trkpt lat="48.722285" lon="9.458013">
        <ele>387.887930</ele>
        <time>2022-07-23T14:08:34.001Z</time>
      </trkpt>
      <trkpt lat="48.722144" lon="9.458015">
        <ele>387.334098</ele>
        <time>2022-07-23T14:08:36.001Z</time>
      </trkpt>
      <trkpt lat="48.722002" lon="9.458025">
        <ele>386.775761</ele>
        <time>2022-07-23T14:08:38.001Z</time>
      </trkpt>
      <trkpt lat="48.721861" lon="9.458030">
        <ele>386.221802</ele>
        <time>2022-07-23T14:08:40.001Z</time>
      </trkpt>
      <trkpt lat="48.721721" lon="9.458033">
        <ele>385.671867</ele>
        <time>2022-07-23T14:08:42.001Z</time>
      </trkpt>
      <trkpt lat="48.721582" lon="9.458039">
        <ele>385.125694</ele>
        <time>2022-07-23T14:08:44.001Z</time>
      </trkpt>
      <trkpt lat="48.721444" lon="9.458043">
        <ele>384.583571</ele>
        <time>2022-07-23T14:08:46.001Z</time>
      </trkpt>
      <trkpt lat="48.721302" lon="9.458044">
        <ele>384.025829</ele>
        <time>2022-07-23T14:08:48.001Z</time>
      </trkpt>
      <trkpt lat="48.721160" lon="9.458050">
        <ele>383.467877</ele>
        <time>2022-07-23T14:08:50.001Z</time>
      </trkpt>
      <trkpt lat="48.721017" lon="9.458051">
        <ele>382.906209</ele>
        <time>2022-07-23T14:08:52.001Z</time>
      </trkpt>
      <trkpt lat="48.720873" lon="9.458050">
        <ele>382.340612</ele>
        <time>2022-07-23T14:08:54.001Z</time>
      </trkpt>
      <trkpt lat="48.720728" lon="9.458047">
        <ele>381.771041</ele>
        <time>2022-07-23T14:08:56.001Z</time>
      </trkpt>
      <trkpt lat="48.720579" lon="9.458044">
        <ele>380.555631</ele>
        <time>2022-07-23T14:08:58.000Z</time>
      </trkpt>
      <trkpt lat="48.720430" lon="9.458037">
        <ele>379.220222</ele>
        <time>2022-07-23T14:09:00.000Z</time>
      </trkpt>
      <trkpt lat="48.720284" lon="9.458026">
        <ele>377.910714</ele>
        <time>2022-07-23T14:09:02.000Z</time>
      </trkpt>
      <trkpt lat="48.720141" lon="9.458015">
        <ele>376.628047</ele>
        <time>2022-07-23T14:09:04.000Z</time>
      </trkpt>
      <trkpt lat="48.720000" lon="9.457997">
        <ele>375.360473</ele>
        <time>2022-07-23T14:09:06.000Z</time>
      </trkpt>
      <trkpt lat="48.719855" lon="9.457979">
        <ele>374.057189</ele>
        <time>2022-07-23T14:09:08.000Z</time>
      </trkpt>
      <trkpt lat="48.719710" lon="9.457961">
        <ele>372.753905</ele>
        <time>2022-07-23T14:09:10.000Z</time>
      </trkpt>
      <trkpt lat="48.719562" lon="9.457950">
        <ele>371.426502</ele>
        <time>2022-07-23T14:09:12.000Z</time>
      </trkpt>
      <trkpt lat="48.719411" lon="9.457934">
        <ele>370.070517</ele>
        <time>2022-07-23T14:09:14.000Z</time>
      </trkpt>
      <trkpt lat="48.719255" lon="9.457915">
        <ele>368.668538</ele>
        <time>2022-07-23T14:09:16.000Z</time>
      </trkpt>
      <trkpt lat="48.719102" lon="9.457899">
        <ele>367.294679</ele>
        <time>2022-07-23T14:09:18.000Z</time>
      </trkpt>
      <trkpt lat="48.718964" lon="9.457887">
        <ele>366.056419</ele>
        <time>2022-07-23T14:09:20.000Z</time>
      </trkpt>
      <trkpt lat="48.718846" lon="9.457870">
        <ele>364.956585</ele>
        <time>2022-07-23T14:09:22.000Z</time>
      </trkpt>
      <trkpt lat="48.718743" lon="9.457852">
        <ele>363.965919</ele>
        <time>2022-07-23T14:09:24.000Z</time>
      </trkpt>
      <trkpt lat="48.718649" lon="9.457841">
        <ele>363.065093</ele>
        <time>2022-07-23T14:09:26.000Z</time>
      </trkpt>
      <trkpt lat="48.718546" lon="9.457825">
        <ele>362.075791</ele>
        <time>2022-07-23T14:09:28.000Z</time>
      </trkpt>
      <trkpt lat="48.718441" lon="9.457781">
        <ele>361.034898</ele>
        <time>2022-07-23T14:09:30.000Z</time>
      </trkpt>
      <trkpt lat="48.718338" lon="9.457700">
        <ele>359.926172</ele>
        <time>2022-07-23T14:09:32.000Z</time>
      </trkpt>
      <trkpt lat="48.718240" lon="9.457600">
        <ele>358.797374</ele>
        <time>2022-07-23T14:09:34.000Z</time>
      </trkpt>
      <trkpt lat="48.718145" lon="9.457486">
        <ele>357.639623</ele>
        <time>2022-07-23T14:09:36.000Z</time>
      </trkpt>
      <trkpt lat="48.718060" lon="9.457344">
        <ele>356.430941</ele>
        <time>2022-07-23T14:09:38.000Z</time>
      </trkpt>
      <trkpt lat="48.717991" lon="9.457187">
        <ele>355.241741</ele>
        <time>2022-07-23T14:09:40.000Z</time>
      </trkpt>
      <trkpt lat="48.717929" lon="9.457017">
        <ele>354.017234</ele>
        <time>2022-07-23T14:09:42.000Z</time>
      </trkpt>
      <trkpt lat="48.717885" lon="9.456838">
        <ele>352.813054</ele>
        <time>2022-07-23T14:09:44.000Z</time>
      </trkpt>
      <trkpt lat="48.717832" lon="9.456663">
        <ele>351.599183</ele>
        <time>2022-07-23T14:09:46.000Z</time>
      </trkpt>
      <trkpt lat="48.717776" lon="9.456493">
        <ele>350.401357</ele>
        <time>2022-07-23T14:09:48.000Z</time>
      </trkpt>
      <trkpt lat="48.717734" lon="9.456334">
        <ele>349.321675</ele>
        <time>2022-07-23T14:09:50.000Z</time>
      </trkpt>
      <trkpt lat="48.717699" lon="9.456196">
        <ele>348.389663</ele>
        <time>2022-07-23T14:09:52.000Z</time>
      </trkpt>
      <trkpt lat="48.717667" lon="9.456067">
        <ele>347.617391</ele>
        <time>2022-07-23T14:09:54.000Z</time>
      </trkpt>
      <trkpt lat="48.717631" lon="9.455940">
        <ele>346.843976</ele>
        <time>2022-07-23T14:09:56.000Z</time>
      </trkpt>
      <trkpt lat="48.717585" lon="9.455800">
        <ele>345.968867</ele>
        <time>2022-07-23T14:09:58.000Z</time>
      </trkpt>
      <trkpt lat="48.717537" lon="9.455649">
        <ele>345.031021</ele>
        <time>2022-07-23T14:10:00.000Z</time>
      </trkpt>
      <trkpt lat="48.717492" lon="9.455494">
        <ele>344.083492</ele>
        <time>2022-07-23T14:10:02.000Z</time>
      </trkpt>
      <trkpt lat="48.717447" lon="9.455328">
        <ele>343.079320</ele>
        <time>2022-07-23T14:10:04.000Z</time>
      </trkpt>
      <trkpt lat="48.717399" lon="9.455154">
        <ele>342.024055</ele>
        <time>2022-07-23T14:10:06.000Z</time>
      </trkpt>
      <trkpt lat="48.717347" lon="9.454967">
        <ele>340.888588</ele>
        <time>2022-07-23T14:10:08.000Z</time>
      </trkpt>
      <trkpt lat="48.717274" lon="9.454795">
        <ele>339.744259</ele>
        <time>2022-07-23T14:10:10.000Z</time>
      </trkpt>
      <trkpt lat="48.717174" lon="9.454661">
        <ele>338.612274</ele>
        <time>2022-07-23T14:10:12.000Z</time>
      </trkpt>
      <trkpt lat="48.717053" lon="9.454576">
        <ele>337.481249</ele>
        <time>2022-07-23T14:10:14.000Z</time>
      </trkpt>
      <trkpt lat="48.716920" lon="9.454540">
        <ele>336.335470</ele>
        <time>2022-07-23T14:10:16.000Z</time>
      </trkpt>
      <trkpt lat="48.716787" lon="9.454560">
        <ele>335.201998</ele>
        <time>2022-07-23T14:10:18.000Z</time>
      </trkpt>
      <trkpt lat="48.716664" lon="9.454638">
        <ele>334.071248</ele>
        <time>2022-07-23T14:10:20.000Z</time>
      </trkpt>
      <trkpt lat="48.716543" lon="9.454741">
        <ele>332.883773</ele>
        <time>2022-07-23T14:10:22.000Z</time>
      </trkpt>
      <trkpt lat="48.716421" lon="9.454840">
        <ele>331.656698</ele>
        <time>2022-07-23T14:10:24.000Z</time>
      </trkpt>
      <trkpt lat="48.716299" lon="9.454934">
        <ele>330.443156</ele>
        <time>2022-07-23T14:10:26.001Z</time>
      </trkpt>
      <trkpt lat="48.716178" lon="9.455034">
        <ele>329.221099</ele>
        <time>2022-07-23T14:10:28.001Z</time>
      </trkpt>
      <trkpt lat="48.716055" lon="9.455124">
        <ele>328.010001</ele>
        <time>2022-07-23T14:10:30.001Z</time>
      </trkpt>
      <trkpt lat="48.715934" lon="9.455220">
        <ele>326.798972</ele>
        <time>2022-07-23T14:10:32.001Z</time>
      </trkpt>
      <trkpt lat="48.715816" lon="9.455323">
        <ele>325.591538</ele>
        <time>2022-07-23T14:10:34.001Z</time>
      </trkpt>
      <trkpt lat="48.715695" lon="9.455417">
        <ele>324.385891</ele>
        <time>2022-07-23T14:10:36.001Z</time>
      </trkpt>
      <trkpt lat="48.715574" lon="9.455507">
        <ele>323.190735</ele>
        <time>2022-07-23T14:10:38.001Z</time>
      </trkpt>
      <trkpt lat="48.715456" lon="9.455600">
        <ele>322.011407</ele>
        <time>2022-07-23T14:10:40.001Z</time>
      </trkpt>
      <trkpt lat="48.715332" lon="9.455688">
        <ele>320.797322</ele>
        <time>2022-07-23T14:10:42.001Z</time>
      </trkpt>
      <trkpt lat="48.715207" lon="9.455776">
        <ele>319.575200</ele>
        <time>2022-07-23T14:10:44.001Z</time>
      </trkpt>
      <trkpt lat="48.715073" lon="9.455852">
        <ele>318.306541</ele>
        <time>2022-07-23T14:10:46.001Z</time>
      </trkpt>
      <trkpt lat="48.714937" lon="9.455931">
        <ele>316.947397</ele>
        <time>2022-07-23T14:10:48.001Z</time>
      </trkpt>
      <trkpt lat="48.714799" lon="9.456011">
        <ele>315.089697</ele>
        <time>2022-07-23T14:10:50.001Z</time>
      </trkpt>
      <trkpt lat="48.714668" lon="9.456077">
        <ele>313.353983</ele>
        <time>2022-07-23T14:10:52.001Z</time>
      </trkpt>
      <trkpt lat="48.714549" lon="9.456137">
        <ele>311.777145</ele>
        <time>2022-07-23T14:10:54.001Z</time>
      </trkpt>
      <trkpt lat="48.714438" lon="9.456188">
        <ele>310.318795</ele>
        <time>2022-07-23T14:10:56.001Z</time>
      </trkpt>
      <trkpt lat="48.714318" lon="9.456241">
        <ele>308.747247</ele>
        <time>2022-07-23T14:10:58.001Z</time>
      </trkpt>
      <trkpt lat="48.714197" lon="9.456309">
        <ele>307.124663</ele>
        <time>2022-07-23T14:11:00.001Z</time>
      </trkpt>
      <trkpt lat="48.714069" lon="9.456395">
        <ele>305.364237</ele>
        <time>2022-07-23T14:11:02.001Z</time>
      </trkpt>
      <trkpt lat="48.713934" lon="9.456492">
        <ele>303.485757</ele>
        <time>2022-07-23T14:11:04.000Z</time>
      </trkpt>
      <trkpt lat="48.713808" lon="9.456613">
        <ele>301.610275</ele>
        <time>2022-07-23T14:11:06.000Z</time>
      </trkpt>
      <trkpt lat="48.713688" lon="9.456751">
        <ele>299.716300</ele>
        <time>2022-07-23T14:11:08.000Z</time>
      </trkpt>
      <trkpt lat="48.713600" lon="9.456897">
        <ele>298.075782</ele>
        <time>2022-07-23T14:11:10.000Z</time>
      </trkpt>
      <trkpt lat="48.713523" lon="9.457040">
        <ele>296.544540</ele>
        <time>2022-07-23T14:11:12.000Z</time>
      </trkpt>
      <trkpt lat="48.713447" lon="9.457175">
        <ele>295.072312</ele>
        <time>2022-07-23T14:11:14.000Z</time>
      </trkpt>
      <trkpt lat="48.713382" lon="9.457309">
        <ele>293.944195</ele>
        <time>2022-07-23T14:11:16.000Z</time>
      </trkpt>
      <trkpt lat="48.713329" lon="9.457456">
        <ele>292.956580</ele>
        <time>2022-07-23T14:11:18.000Z</time>
      </trkpt>
      <trkpt lat="48.713280" lon="9.457612">
        <ele>291.937953</ele>
        <time>2022-07-23T14:11:20.000Z</time>
      </trkpt>
      <trkpt lat="48.713242" lon="9.457779">
        <ele>290.896465</ele>
        <time>2022-07-23T14:11:22.000Z</time>
      </trkpt>
      <trkpt lat="48.713204" lon="9.457956">
        <ele>289.799072</ele>
        <time>2022-07-23T14:11:24.000Z</time>
      </trkpt>
      <trkpt lat="48.713164" lon="9.458129">
        <ele>288.718302</ele>
        <time>2022-07-23T14:11:26.000Z</time>
      </trkpt>
      <trkpt lat="48.713137" lon="9.458308">
        <ele>287.635740</ele>
        <time>2022-07-23T14:11:28.000Z</time>
      </trkpt>
      <trkpt lat="48.713114" lon="9.458486">
        <ele>286.566365</ele>
        <time>2022-07-23T14:11:30.000Z</time>
      </trkpt>
      <trkpt lat="48.713114" lon="9.458656">
        <ele>285.564089</ele>
        <time>2022-07-23T14:11:32.000Z</time>
      </trkpt>
      <trkpt lat="48.713126" lon="9.458799">
        <ele>284.714207</ele>
        <time>2022-07-23T14:11:34.000Z</time>
      </trkpt>
      <trkpt lat="48.713147" lon="9.458996">
        <ele>283.537687</ele>
        <time>2022-07-23T14:11:37.000Z</time>
      </trkpt>
      <trkpt lat="48.713169" lon="9.459181">
        <ele>282.429403</ele>
        <time>2022-07-23T14:11:40.000Z</time>
      </trkpt>
      <trkpt lat="48.713185" lon="9.459344">
        <ele>281.457822</ele>
        <time>2022-07-23T14:11:43.000Z</time>
      </trkpt>
      <trkpt lat="48.713180" lon="9.459497">
        <ele>280.554669</ele>
        <time>2022-07-23T14:11:46.000Z</time>
      </trkpt>
      <trkpt lat="48.713098" lon="9.459643">
        <ele>279.424282</ele>
        <time>2022-07-23T14:11:49.000Z</time>
      </trkpt>
      <trkpt lat="48.713002" lon="9.459681">
        <ele>278.537723</ele>
        <time>2022-07-23T14:11:51.000Z</time>
      </trkpt>
      <trkpt lat="48.712894" lon="9.459708">
        <ele>277.990829</ele>
        <time>2022-07-23T14:11:53.000Z</time>
      </trkpt>
      <trkpt lat="48.712789" lon="9.459733">
        <ele>277.480812</ele>
        <time>2022-07-23T14:11:55.000Z</time>
      </trkpt>
      <trkpt lat="48.712692" lon="9.459759">
        <ele>277.008139</ele>
        <time>2022-07-23T14:11:57.000Z</time>
      </trkpt>
      <trkpt lat="48.712571" lon="9.459793">
        <ele>276.417632</ele>
        <time>2022-07-23T14:12:00.000Z</time>
      </trkpt>
      <trkpt lat="48.712471" lon="9.459846">
        <ele>275.909291</ele>
        <time>2022-07-23T14:12:09.000Z</time>
      </trkpt>
      <trkpt lat="48.712347" lon="9.459900">
        <ele>275.290206</ele>
        <time>2022-07-23T14:12:12.000Z</time>
      </trkpt>
      <trkpt lat="48.712233" lon="9.459920">
        <ele>274.739530</ele>
        <time>2022-07-23T14:12:14.000Z</time>
      </trkpt>
      <trkpt lat="48.712130" lon="9.459942">
        <ele>274.240405</ele>
        <time>2022-07-23T14:12:16.000Z</time>
      </trkpt>
      <trkpt lat="48.712031" lon="9.459921">
        <ele>273.760729</ele>
        <time>2022-07-23T14:12:18.000Z</time>
      </trkpt>
      <trkpt lat="48.711939" lon="9.460021">
        <ele>273.217466</ele>
        <time>2022-07-23T14:12:21.000Z</time>
      </trkpt>
      <trkpt lat="48.711952" lon="9.460193">
        <ele>272.669313</ele>
        <time>2022-07-23T14:12:24.000Z</time>
      </trkpt>
      <trkpt lat="48.711968" lon="9.460382">
        <ele>272.065991</ele>
        <time>2022-07-23T14:12:27.000Z</time>
      </trkpt>
      <trkpt lat="48.711979" lon="9.460519">
        <ele>271.629018</ele>
        <time>2022-07-23T14:12:29.000Z</time>
      </trkpt>
      <trkpt lat="48.711991" lon="9.460717">
        <ele>270.999465</ele>
        <time>2022-07-23T14:12:32.000Z</time>
      </trkpt>
      <trkpt lat="48.711978" lon="9.460900">
        <ele>270.416697</ele>
        <time>2022-07-23T14:12:35.000Z</time>
      </trkpt>
      <trkpt lat="48.711961" lon="9.461091">
        <ele>269.860248</ele>
        <time>2022-07-23T14:12:38.000Z</time>
      </trkpt>
      <trkpt lat="48.712010" lon="9.461240">
        <ele>269.860248</ele>
        <time>2022-07-23T14:12:41.001Z</time>
      </trkpt>
      <trkpt lat="48.712124" lon="9.461287">
        <ele>269.860248</ele>
        <time>2022-07-23T14:12:44.001Z</time>
      </trkpt>
      <trkpt lat="48.712220" lon="9.461253">
        <ele>269.860248</ele>
        <time>2022-07-23T14:12:46.001Z</time>
      </trkpt>
      <trkpt lat="48.712321" lon="9.461219">
        <ele>269.860248</ele>
        <time>2022-07-23T14:12:48.001Z</time>
      </trkpt>
      <trkpt lat="48.712416" lon="9.461187">
        <ele>269.860248</ele>
        <time>2022-07-23T14:12:50.001Z</time>
      </trkpt>
      <trkpt lat="48.712513" lon="9.461150">
        <ele>269.860248</ele>
        <time>2022-07-23T14:12:52.001Z</time>
      </trkpt>
      <trkpt lat="48.712601" lon="9.461114">
        <ele>269.860248</ele>
        <time>2022-07-23T14:12:54.001Z</time>
      </trkpt>
      <trkpt lat="48.712693" lon="9.461071">
        <ele>269.860248</ele>
        <time>2022-07-23T14:12:56.001Z</time>
      </trkpt>
      <trkpt lat="48.712789" lon="9.461025">
        <ele>269.860248</ele>
        <time>2022-07-23T14:12:58.001Z</time>
      </trkpt>
      <trkpt lat="48.712876" lon="9.460985">
        <ele>269.860248</ele>
        <time>2022-07-23T14:13:00.001Z</time>
      </trkpt>
      <trkpt lat="48.712990" lon="9.460913">
        <ele>269.860248</ele>
        <time>2022-07-23T14:13:03.001Z</time>
      </trkpt>
      <trkpt lat="48.713013" lon="9.460742">
        <ele>269.860248</ele>
        <time>2022-07-23T14:13:06.001Z</time>
      </trkpt>
      <trkpt lat="48.713002" lon="9.460594">
        <ele>269.860248</ele>
        <time>2022-07-23T14:13:09.000Z</time>
      </trkpt>
    </trkseg>
  </trk>
</gpx>